<?xml version="1.0" encoding="UTF-8" standalone="no" ?>
<gpx xmlns="http://www.topografix.com/GPX/1/1" xmlns:xsi="http://www.w3.org/2001/XMLSchema-instance" xsi:schemaLocation="http://www.topografix.com/GPX/1/1 http://www.topografix.com/GPX/1/1/gpx.xsd" version="1.1" creator="VisuGPX - https://www.visugpx.com">
  <metadata>
    <name>BREVET DE 150 KMS 14 AVRIL 2018</name>
    <desc><![CDATA[Brevet de 150 kms cyclo club rémois du 14 avril 2018 Etienne DUGOIS]]></desc>
  </metadata>
  <trk>
    <name><![CDATA[7291294-Brevet 150 km CCR 2018]]></name>
    <trkseg>
      <trkpt lat="49.24176" lon="4.03593">
        <ele>80</ele>
        <time>2018-03-28T15:46:32Z</time>
      </trkpt>
      <trkpt lat="49.24175" lon="4.03592">
        <ele>80</ele>
        <time>2018-03-28T15:47:32Z</time>
      </trkpt>
      <trkpt lat="49.24172" lon="4.0358">
        <ele>80</ele>
        <time>2018-03-28T15:48:32Z</time>
      </trkpt>
      <trkpt lat="49.24169" lon="4.03564">
        <ele>80</ele>
        <time>2018-03-28T15:49:32Z</time>
      </trkpt>
      <trkpt lat="49.24166" lon="4.03551">
        <ele>80</ele>
        <time>2018-03-28T15:50:32Z</time>
      </trkpt>
      <trkpt lat="49.24165" lon="4.03543">
        <ele>80</ele>
        <time>2018-03-28T15:51:32Z</time>
      </trkpt>
      <trkpt lat="49.24164" lon="4.03539">
        <ele>81</ele>
        <time>2018-03-28T15:52:32Z</time>
      </trkpt>
      <trkpt lat="49.24162" lon="4.03526">
        <ele>81</ele>
        <time>2018-03-28T15:53:32Z</time>
      </trkpt>
      <trkpt lat="49.2416" lon="4.03516">
        <ele>81</ele>
        <time>2018-03-28T15:54:32Z</time>
      </trkpt>
      <trkpt lat="49.24158" lon="4.03505">
        <ele>81</ele>
        <time>2018-03-28T15:55:32Z</time>
      </trkpt>
      <trkpt lat="49.24151" lon="4.03482">
        <ele>81</ele>
        <time>2018-03-28T15:56:32Z</time>
      </trkpt>
      <trkpt lat="49.24146" lon="4.03465">
        <ele>81</ele>
        <time>2018-03-28T15:57:32Z</time>
      </trkpt>
      <trkpt lat="49.2414" lon="4.03448">
        <ele>80</ele>
        <time>2018-03-28T15:58:32Z</time>
      </trkpt>
      <trkpt lat="49.24136" lon="4.03439">
        <ele>80</ele>
        <time>2018-03-28T15:59:32Z</time>
      </trkpt>
      <trkpt lat="49.2413" lon="4.03428">
        <ele>80</ele>
        <time>2018-03-28T16:00:32Z</time>
      </trkpt>
      <trkpt lat="49.24103" lon="4.03382">
        <ele>80</ele>
        <time>2018-03-28T16:01:32Z</time>
      </trkpt>
      <trkpt lat="49.24087" lon="4.03354">
        <ele>80</ele>
        <time>2018-03-28T16:02:32Z</time>
      </trkpt>
      <trkpt lat="49.2408" lon="4.03342">
        <ele>80</ele>
        <time>2018-03-28T16:03:32Z</time>
      </trkpt>
      <trkpt lat="49.24068" lon="4.03321">
        <ele>80</ele>
        <time>2018-03-28T16:04:32Z</time>
      </trkpt>
      <trkpt lat="49.24059" lon="4.03307">
        <ele>80</ele>
        <time>2018-03-28T16:05:32Z</time>
      </trkpt>
      <trkpt lat="49.24048" lon="4.03288">
        <ele>80</ele>
        <time>2018-03-28T16:06:32Z</time>
      </trkpt>
      <trkpt lat="49.2402" lon="4.03239">
        <ele>80</ele>
        <time>2018-03-28T16:07:32Z</time>
      </trkpt>
      <trkpt lat="49.24001" lon="4.03207">
        <ele>79</ele>
        <time>2018-03-28T16:08:32Z</time>
      </trkpt>
      <trkpt lat="49.24001" lon="4.03207">
        <ele>79</ele>
        <time>2018-03-28T16:09:32Z</time>
      </trkpt>
      <trkpt lat="49.24052" lon="4.03138">
        <ele>78</ele>
        <time>2018-03-28T16:10:32Z</time>
      </trkpt>
      <trkpt lat="49.24095" lon="4.03083">
        <ele>77</ele>
        <time>2018-03-28T16:11:32Z</time>
      </trkpt>
      <trkpt lat="49.24095" lon="4.03083">
        <ele>77</ele>
        <time>2018-03-28T16:12:32Z</time>
      </trkpt>
      <trkpt lat="49.2408" lon="4.03046">
        <ele>77</ele>
        <time>2018-03-28T16:13:32Z</time>
      </trkpt>
      <trkpt lat="49.2408" lon="4.03041">
        <ele>77</ele>
        <time>2018-03-28T16:14:32Z</time>
      </trkpt>
      <trkpt lat="49.24079" lon="4.03037">
        <ele>77</ele>
        <time>2018-03-28T16:15:32Z</time>
      </trkpt>
      <trkpt lat="49.2408" lon="4.03033">
        <ele>77</ele>
        <time>2018-03-28T16:16:32Z</time>
      </trkpt>
      <trkpt lat="49.24081" lon="4.03029">
        <ele>77</ele>
        <time>2018-03-28T16:17:32Z</time>
      </trkpt>
      <trkpt lat="49.24083" lon="4.03023">
        <ele>77</ele>
        <time>2018-03-28T16:18:32Z</time>
      </trkpt>
      <trkpt lat="49.24102" lon="4.02984">
        <ele>77</ele>
        <time>2018-03-28T16:19:32Z</time>
      </trkpt>
      <trkpt lat="49.24116" lon="4.02954">
        <ele>77</ele>
        <time>2018-03-28T16:20:32Z</time>
      </trkpt>
      <trkpt lat="49.24137" lon="4.02909">
        <ele>77</ele>
        <time>2018-03-28T16:21:32Z</time>
      </trkpt>
      <trkpt lat="49.24138" lon="4.02907">
        <ele>77</ele>
        <time>2018-03-28T16:22:32Z</time>
      </trkpt>
      <trkpt lat="49.2416" lon="4.02831">
        <ele>78</ele>
        <time>2018-03-28T16:23:32Z</time>
      </trkpt>
      <trkpt lat="49.24161" lon="4.02827">
        <ele>78</ele>
        <time>2018-03-28T16:24:32Z</time>
      </trkpt>
      <trkpt lat="49.24164" lon="4.0282">
        <ele>78</ele>
        <time>2018-03-28T16:25:32Z</time>
      </trkpt>
      <trkpt lat="49.24183" lon="4.02745">
        <ele>80</ele>
        <time>2018-03-28T16:26:32Z</time>
      </trkpt>
      <trkpt lat="49.24191" lon="4.02713">
        <ele>80</ele>
        <time>2018-03-28T16:27:32Z</time>
      </trkpt>
      <trkpt lat="49.24201" lon="4.0268">
        <ele>80</ele>
        <time>2018-03-28T16:28:32Z</time>
      </trkpt>
      <trkpt lat="49.24206" lon="4.02663">
        <ele>80</ele>
        <time>2018-03-28T16:29:32Z</time>
      </trkpt>
      <trkpt lat="49.24208" lon="4.02648">
        <ele>80</ele>
        <time>2018-03-28T16:30:32Z</time>
      </trkpt>
      <trkpt lat="49.24217" lon="4.0259">
        <ele>80</ele>
        <time>2018-03-28T16:31:32Z</time>
      </trkpt>
      <trkpt lat="49.24225" lon="4.02536">
        <ele>79</ele>
        <time>2018-03-28T16:32:32Z</time>
      </trkpt>
      <trkpt lat="49.24227" lon="4.0253">
        <ele>79</ele>
        <time>2018-03-28T16:33:32Z</time>
      </trkpt>
      <trkpt lat="49.24229" lon="4.02521">
        <ele>78</ele>
        <time>2018-03-28T16:34:32Z</time>
      </trkpt>
      <trkpt lat="49.24226" lon="4.02496">
        <ele>78</ele>
        <time>2018-03-28T16:35:32Z</time>
      </trkpt>
      <trkpt lat="49.24226" lon="4.02496">
        <ele>78</ele>
        <time>2018-03-28T16:36:32Z</time>
      </trkpt>
      <trkpt lat="49.24227" lon="4.02495">
        <ele>78</ele>
        <time>2018-03-28T16:37:32Z</time>
      </trkpt>
      <trkpt lat="49.24228" lon="4.02494">
        <ele>78</ele>
        <time>2018-03-28T16:38:32Z</time>
      </trkpt>
      <trkpt lat="49.24229" lon="4.02494">
        <ele>78</ele>
        <time>2018-03-28T16:39:32Z</time>
      </trkpt>
      <trkpt lat="49.2423" lon="4.02493">
        <ele>78</ele>
        <time>2018-03-28T16:40:32Z</time>
      </trkpt>
      <trkpt lat="49.2423" lon="4.02492">
        <ele>78</ele>
        <time>2018-03-28T16:41:32Z</time>
      </trkpt>
      <trkpt lat="49.24231" lon="4.02492">
        <ele>78</ele>
        <time>2018-03-28T16:42:32Z</time>
      </trkpt>
      <trkpt lat="49.24232" lon="4.02491">
        <ele>78</ele>
        <time>2018-03-28T16:43:32Z</time>
      </trkpt>
      <trkpt lat="49.24232" lon="4.0249">
        <ele>78</ele>
        <time>2018-03-28T16:44:32Z</time>
      </trkpt>
      <trkpt lat="49.24233" lon="4.02489">
        <ele>78</ele>
        <time>2018-03-28T16:45:32Z</time>
      </trkpt>
      <trkpt lat="49.24233" lon="4.02488">
        <ele>78</ele>
        <time>2018-03-28T16:46:32Z</time>
      </trkpt>
      <trkpt lat="49.24234" lon="4.02487">
        <ele>78</ele>
        <time>2018-03-28T16:47:32Z</time>
      </trkpt>
      <trkpt lat="49.24234" lon="4.02486">
        <ele>78</ele>
        <time>2018-03-28T16:48:32Z</time>
      </trkpt>
      <trkpt lat="49.24234" lon="4.02485">
        <ele>78</ele>
        <time>2018-03-28T16:49:32Z</time>
      </trkpt>
      <trkpt lat="49.24235" lon="4.02484">
        <ele>78</ele>
        <time>2018-03-28T16:50:32Z</time>
      </trkpt>
      <trkpt lat="49.24235" lon="4.02483">
        <ele>78</ele>
        <time>2018-03-28T16:51:32Z</time>
      </trkpt>
      <trkpt lat="49.24235" lon="4.02482">
        <ele>78</ele>
        <time>2018-03-28T16:52:32Z</time>
      </trkpt>
      <trkpt lat="49.24235" lon="4.02481">
        <ele>78</ele>
        <time>2018-03-28T16:53:32Z</time>
      </trkpt>
      <trkpt lat="49.24235" lon="4.0248">
        <ele>78</ele>
        <time>2018-03-28T16:54:32Z</time>
      </trkpt>
      <trkpt lat="49.24236" lon="4.02478">
        <ele>78</ele>
        <time>2018-03-28T16:55:32Z</time>
      </trkpt>
      <trkpt lat="49.24236" lon="4.02477">
        <ele>79</ele>
        <time>2018-03-28T16:56:32Z</time>
      </trkpt>
      <trkpt lat="49.24236" lon="4.02476">
        <ele>79</ele>
        <time>2018-03-28T16:57:32Z</time>
      </trkpt>
      <trkpt lat="49.24236" lon="4.02474">
        <ele>79</ele>
        <time>2018-03-28T16:58:32Z</time>
      </trkpt>
      <trkpt lat="49.24235" lon="4.02473">
        <ele>79</ele>
        <time>2018-03-28T16:59:32Z</time>
      </trkpt>
      <trkpt lat="49.24235" lon="4.02472">
        <ele>79</ele>
        <time>2018-03-28T17:00:32Z</time>
      </trkpt>
      <trkpt lat="49.24235" lon="4.02471">
        <ele>79</ele>
        <time>2018-03-28T17:01:32Z</time>
      </trkpt>
      <trkpt lat="49.24235" lon="4.0247">
        <ele>79</ele>
        <time>2018-03-28T17:02:32Z</time>
      </trkpt>
      <trkpt lat="49.24235" lon="4.02469">
        <ele>79</ele>
        <time>2018-03-28T17:03:32Z</time>
      </trkpt>
      <trkpt lat="49.24234" lon="4.02468">
        <ele>79</ele>
        <time>2018-03-28T17:04:32Z</time>
      </trkpt>
      <trkpt lat="49.24234" lon="4.02467">
        <ele>79</ele>
        <time>2018-03-28T17:05:32Z</time>
      </trkpt>
      <trkpt lat="49.24234" lon="4.02466">
        <ele>79</ele>
        <time>2018-03-28T17:06:32Z</time>
      </trkpt>
      <trkpt lat="49.24233" lon="4.02465">
        <ele>79</ele>
        <time>2018-03-28T17:07:32Z</time>
      </trkpt>
      <trkpt lat="49.24233" lon="4.02464">
        <ele>79</ele>
        <time>2018-03-28T17:08:32Z</time>
      </trkpt>
      <trkpt lat="49.24232" lon="4.02463">
        <ele>79</ele>
        <time>2018-03-28T17:09:32Z</time>
      </trkpt>
      <trkpt lat="49.24232" lon="4.02462">
        <ele>79</ele>
        <time>2018-03-28T17:10:32Z</time>
      </trkpt>
      <trkpt lat="49.24234" lon="4.02449">
        <ele>80</ele>
        <time>2018-03-28T17:11:32Z</time>
      </trkpt>
      <trkpt lat="49.24235" lon="4.02432">
        <ele>81</ele>
        <time>2018-03-28T17:12:32Z</time>
      </trkpt>
      <trkpt lat="49.24238" lon="4.02417">
        <ele>81</ele>
        <time>2018-03-28T17:13:32Z</time>
      </trkpt>
      <trkpt lat="49.24238" lon="4.0241">
        <ele>81</ele>
        <time>2018-03-28T17:14:32Z</time>
      </trkpt>
      <trkpt lat="49.24266" lon="4.02316">
        <ele>84</ele>
        <time>2018-03-28T17:15:32Z</time>
      </trkpt>
      <trkpt lat="49.24272" lon="4.02295">
        <ele>84</ele>
        <time>2018-03-28T17:16:32Z</time>
      </trkpt>
      <trkpt lat="49.24286" lon="4.0225">
        <ele>83</ele>
        <time>2018-03-28T17:17:32Z</time>
      </trkpt>
      <trkpt lat="49.24304" lon="4.02188">
        <ele>83</ele>
        <time>2018-03-28T17:18:32Z</time>
      </trkpt>
      <trkpt lat="49.24308" lon="4.02175">
        <ele>83</ele>
        <time>2018-03-28T17:19:32Z</time>
      </trkpt>
      <trkpt lat="49.24315" lon="4.0215">
        <ele>83</ele>
        <time>2018-03-28T17:20:32Z</time>
      </trkpt>
      <trkpt lat="49.24329" lon="4.02107">
        <ele>84</ele>
        <time>2018-03-28T17:21:32Z</time>
      </trkpt>
      <trkpt lat="49.24333" lon="4.021">
        <ele>85</ele>
        <time>2018-03-28T17:22:32Z</time>
      </trkpt>
      <trkpt lat="49.24351" lon="4.02073">
        <ele>85</ele>
        <time>2018-03-28T17:23:32Z</time>
      </trkpt>
      <trkpt lat="49.24479" lon="4.01894">
        <ele>82</ele>
        <time>2018-03-28T17:24:32Z</time>
      </trkpt>
      <trkpt lat="49.24486" lon="4.01885">
        <ele>82</ele>
        <time>2018-03-28T17:25:32Z</time>
      </trkpt>
      <trkpt lat="49.24525" lon="4.01831">
        <ele>81</ele>
        <time>2018-03-28T17:26:32Z</time>
      </trkpt>
      <trkpt lat="49.24538" lon="4.01814">
        <ele>80</ele>
        <time>2018-03-28T17:27:32Z</time>
      </trkpt>
      <trkpt lat="49.24567" lon="4.01777">
        <ele>79</ele>
        <time>2018-03-28T17:28:32Z</time>
      </trkpt>
      <trkpt lat="49.24571" lon="4.0177">
        <ele>79</ele>
        <time>2018-03-28T17:29:32Z</time>
      </trkpt>
      <trkpt lat="49.24573" lon="4.01767">
        <ele>79</ele>
        <time>2018-03-28T17:30:32Z</time>
      </trkpt>
      <trkpt lat="49.24576" lon="4.01762">
        <ele>79</ele>
        <time>2018-03-28T17:31:32Z</time>
      </trkpt>
      <trkpt lat="49.24596" lon="4.01736">
        <ele>79</ele>
        <time>2018-03-28T17:32:32Z</time>
      </trkpt>
      <trkpt lat="49.24606" lon="4.01723">
        <ele>79</ele>
        <time>2018-03-28T17:33:32Z</time>
      </trkpt>
      <trkpt lat="49.24661" lon="4.01643">
        <ele>79</ele>
        <time>2018-03-28T17:34:32Z</time>
      </trkpt>
      <trkpt lat="49.24701" lon="4.01586">
        <ele>79</ele>
        <time>2018-03-28T17:35:32Z</time>
      </trkpt>
      <trkpt lat="49.24765" lon="4.01495">
        <ele>79</ele>
        <time>2018-03-28T17:36:32Z</time>
      </trkpt>
      <trkpt lat="49.24802" lon="4.01444">
        <ele>79</ele>
        <time>2018-03-28T17:37:32Z</time>
      </trkpt>
      <trkpt lat="49.24802" lon="4.01444">
        <ele>79</ele>
        <time>2018-03-28T17:38:32Z</time>
      </trkpt>
      <trkpt lat="49.24836" lon="4.01471">
        <ele>79</ele>
        <time>2018-03-28T17:39:32Z</time>
      </trkpt>
      <trkpt lat="49.24856" lon="4.01485">
        <ele>79</ele>
        <time>2018-03-28T17:40:32Z</time>
      </trkpt>
      <trkpt lat="49.24864" lon="4.0149">
        <ele>79</ele>
        <time>2018-03-28T17:41:32Z</time>
      </trkpt>
      <trkpt lat="49.24901" lon="4.01524">
        <ele>79</ele>
        <time>2018-03-28T17:42:32Z</time>
      </trkpt>
      <trkpt lat="49.24901" lon="4.01524">
        <ele>79</ele>
        <time>2018-03-28T17:43:32Z</time>
      </trkpt>
      <trkpt lat="49.24899" lon="4.01506">
        <ele>79</ele>
        <time>2018-03-28T17:44:32Z</time>
      </trkpt>
      <trkpt lat="49.24896" lon="4.01489">
        <ele>79</ele>
        <time>2018-03-28T17:45:32Z</time>
      </trkpt>
      <trkpt lat="49.24888" lon="4.01441">
        <ele>79</ele>
        <time>2018-03-28T17:46:32Z</time>
      </trkpt>
      <trkpt lat="49.24868" lon="4.01297">
        <ele>80</ele>
        <time>2018-03-28T17:47:32Z</time>
      </trkpt>
      <trkpt lat="49.24866" lon="4.01285">
        <ele>80</ele>
        <time>2018-03-28T17:48:32Z</time>
      </trkpt>
      <trkpt lat="49.24864" lon="4.01273">
        <ele>80</ele>
        <time>2018-03-28T17:49:32Z</time>
      </trkpt>
      <trkpt lat="49.24857" lon="4.01222">
        <ele>80</ele>
        <time>2018-03-28T17:50:32Z</time>
      </trkpt>
      <trkpt lat="49.24841" lon="4.01125">
        <ele>83</ele>
        <time>2018-03-28T17:51:32Z</time>
      </trkpt>
      <trkpt lat="49.24839" lon="4.01108">
        <ele>83</ele>
        <time>2018-03-28T17:52:32Z</time>
      </trkpt>
      <trkpt lat="49.2482" lon="4.00975">
        <ele>88</ele>
        <time>2018-03-28T17:53:32Z</time>
      </trkpt>
      <trkpt lat="49.24796" lon="4.00814">
        <ele>93</ele>
        <time>2018-03-28T17:54:32Z</time>
      </trkpt>
      <trkpt lat="49.24796" lon="4.00814">
        <ele>93</ele>
        <time>2018-03-28T17:55:32Z</time>
      </trkpt>
      <trkpt lat="49.24795" lon="4.00809">
        <ele>93</ele>
        <time>2018-03-28T17:56:32Z</time>
      </trkpt>
      <trkpt lat="49.24793" lon="4.00789">
        <ele>93</ele>
        <time>2018-03-28T17:57:32Z</time>
      </trkpt>
      <trkpt lat="49.24789" lon="4.00754">
        <ele>93</ele>
        <time>2018-03-28T17:58:32Z</time>
      </trkpt>
      <trkpt lat="49.24781" lon="4.00675">
        <ele>91</ele>
        <time>2018-03-28T17:59:32Z</time>
      </trkpt>
      <trkpt lat="49.24777" lon="4.00626">
        <ele>90</ele>
        <time>2018-03-28T18:00:32Z</time>
      </trkpt>
      <trkpt lat="49.24771" lon="4.00566">
        <ele>90</ele>
        <time>2018-03-28T18:01:32Z</time>
      </trkpt>
      <trkpt lat="49.24767" lon="4.00518">
        <ele>89</ele>
        <time>2018-03-28T18:02:32Z</time>
      </trkpt>
      <trkpt lat="49.24768" lon="4.00508">
        <ele>89</ele>
        <time>2018-03-28T18:03:32Z</time>
      </trkpt>
      <trkpt lat="49.24768" lon="4.00494">
        <ele>89</ele>
        <time>2018-03-28T18:04:32Z</time>
      </trkpt>
      <trkpt lat="49.24765" lon="4.00461">
        <ele>89</ele>
        <time>2018-03-28T18:05:32Z</time>
      </trkpt>
      <trkpt lat="49.24761" lon="4.00414">
        <ele>89</ele>
        <time>2018-03-28T18:06:32Z</time>
      </trkpt>
      <trkpt lat="49.24759" lon="4.00394">
        <ele>89</ele>
        <time>2018-03-28T18:07:32Z</time>
      </trkpt>
      <trkpt lat="49.24758" lon="4.00376">
        <ele>89</ele>
        <time>2018-03-28T18:08:32Z</time>
      </trkpt>
      <trkpt lat="49.24757" lon="4.00365">
        <ele>88</ele>
        <time>2018-03-28T18:09:32Z</time>
      </trkpt>
      <trkpt lat="49.24753" lon="4.00333">
        <ele>88</ele>
        <time>2018-03-28T18:10:32Z</time>
      </trkpt>
      <trkpt lat="49.2475" lon="4.003">
        <ele>88</ele>
        <time>2018-03-28T18:11:32Z</time>
      </trkpt>
      <trkpt lat="49.24747" lon="4.00269">
        <ele>89</ele>
        <time>2018-03-28T18:12:32Z</time>
      </trkpt>
      <trkpt lat="49.2474" lon="4.00203">
        <ele>88</ele>
        <time>2018-03-28T18:13:32Z</time>
      </trkpt>
      <trkpt lat="49.24739" lon="4.00197">
        <ele>88</ele>
        <time>2018-03-28T18:14:32Z</time>
      </trkpt>
      <trkpt lat="49.24736" lon="4.00181">
        <ele>87</ele>
        <time>2018-03-28T18:15:32Z</time>
      </trkpt>
      <trkpt lat="49.24734" lon="4.00163">
        <ele>87</ele>
        <time>2018-03-28T18:16:32Z</time>
      </trkpt>
      <trkpt lat="49.24732" lon="4.00138">
        <ele>85</ele>
        <time>2018-03-28T18:17:32Z</time>
      </trkpt>
      <trkpt lat="49.24725" lon="4.00055">
        <ele>81</ele>
        <time>2018-03-28T18:18:32Z</time>
      </trkpt>
      <trkpt lat="49.24723" lon="4.00041">
        <ele>81</ele>
        <time>2018-03-28T18:19:32Z</time>
      </trkpt>
      <trkpt lat="49.24725" lon="4.00034">
        <ele>81</ele>
        <time>2018-03-28T18:20:32Z</time>
      </trkpt>
      <trkpt lat="49.24726" lon="4.00021">
        <ele>80</ele>
        <time>2018-03-28T18:21:32Z</time>
      </trkpt>
      <trkpt lat="49.24725" lon="4.00005">
        <ele>80</ele>
        <time>2018-03-28T18:22:32Z</time>
      </trkpt>
      <trkpt lat="49.24726" lon="3.99985">
        <ele>80</ele>
        <time>2018-03-28T18:23:32Z</time>
      </trkpt>
      <trkpt lat="49.24727" lon="3.99974">
        <ele>80</ele>
        <time>2018-03-28T18:24:32Z</time>
      </trkpt>
      <trkpt lat="49.24728" lon="3.99964">
        <ele>80</ele>
        <time>2018-03-28T18:25:32Z</time>
      </trkpt>
      <trkpt lat="49.24728" lon="3.99964">
        <ele>80</ele>
        <time>2018-03-28T18:26:32Z</time>
      </trkpt>
      <trkpt lat="49.24729" lon="3.99963">
        <ele>80</ele>
        <time>2018-03-28T18:27:32Z</time>
      </trkpt>
      <trkpt lat="49.24729" lon="3.99962">
        <ele>80</ele>
        <time>2018-03-28T18:28:32Z</time>
      </trkpt>
      <trkpt lat="49.2473" lon="3.99962">
        <ele>80</ele>
        <time>2018-03-28T18:29:32Z</time>
      </trkpt>
      <trkpt lat="49.24731" lon="3.99961">
        <ele>80</ele>
        <time>2018-03-28T18:30:32Z</time>
      </trkpt>
      <trkpt lat="49.24731" lon="3.9996">
        <ele>80</ele>
        <time>2018-03-28T18:31:32Z</time>
      </trkpt>
      <trkpt lat="49.24732" lon="3.99959">
        <ele>80</ele>
        <time>2018-03-28T18:32:32Z</time>
      </trkpt>
      <trkpt lat="49.24732" lon="3.99958">
        <ele>80</ele>
        <time>2018-03-28T18:33:32Z</time>
      </trkpt>
      <trkpt lat="49.24733" lon="3.99958">
        <ele>80</ele>
        <time>2018-03-28T18:34:32Z</time>
      </trkpt>
      <trkpt lat="49.24733" lon="3.99957">
        <ele>80</ele>
        <time>2018-03-28T18:35:32Z</time>
      </trkpt>
      <trkpt lat="49.24733" lon="3.99956">
        <ele>80</ele>
        <time>2018-03-28T18:36:32Z</time>
      </trkpt>
      <trkpt lat="49.24734" lon="3.99955">
        <ele>80</ele>
        <time>2018-03-28T18:37:32Z</time>
      </trkpt>
      <trkpt lat="49.24734" lon="3.99954">
        <ele>80</ele>
        <time>2018-03-28T18:38:32Z</time>
      </trkpt>
      <trkpt lat="49.24734" lon="3.99953">
        <ele>80</ele>
        <time>2018-03-28T18:39:32Z</time>
      </trkpt>
      <trkpt lat="49.24735" lon="3.99952">
        <ele>80</ele>
        <time>2018-03-28T18:40:32Z</time>
      </trkpt>
      <trkpt lat="49.24735" lon="3.9995">
        <ele>80</ele>
        <time>2018-03-28T18:41:32Z</time>
      </trkpt>
      <trkpt lat="49.24735" lon="3.99949">
        <ele>80</ele>
        <time>2018-03-28T18:42:32Z</time>
      </trkpt>
      <trkpt lat="49.24735" lon="3.99948">
        <ele>80</ele>
        <time>2018-03-28T18:43:32Z</time>
      </trkpt>
      <trkpt lat="49.24735" lon="3.99947">
        <ele>80</ele>
        <time>2018-03-28T18:44:32Z</time>
      </trkpt>
      <trkpt lat="49.24735" lon="3.99945">
        <ele>80</ele>
        <time>2018-03-28T18:45:32Z</time>
      </trkpt>
      <trkpt lat="49.24735" lon="3.99943">
        <ele>80</ele>
        <time>2018-03-28T18:46:32Z</time>
      </trkpt>
      <trkpt lat="49.24735" lon="3.99942">
        <ele>80</ele>
        <time>2018-03-28T18:47:32Z</time>
      </trkpt>
      <trkpt lat="49.24735" lon="3.99941">
        <ele>80</ele>
        <time>2018-03-28T18:48:32Z</time>
      </trkpt>
      <trkpt lat="49.24735" lon="3.9994">
        <ele>80</ele>
        <time>2018-03-28T18:49:32Z</time>
      </trkpt>
      <trkpt lat="49.24734" lon="3.99939">
        <ele>80</ele>
        <time>2018-03-28T18:50:32Z</time>
      </trkpt>
      <trkpt lat="49.24734" lon="3.99938">
        <ele>80</ele>
        <time>2018-03-28T18:51:32Z</time>
      </trkpt>
      <trkpt lat="49.24734" lon="3.99937">
        <ele>80</ele>
        <time>2018-03-28T18:52:32Z</time>
      </trkpt>
      <trkpt lat="49.24733" lon="3.99936">
        <ele>80</ele>
        <time>2018-03-28T18:53:32Z</time>
      </trkpt>
      <trkpt lat="49.24733" lon="3.99935">
        <ele>80</ele>
        <time>2018-03-28T18:54:32Z</time>
      </trkpt>
      <trkpt lat="49.24733" lon="3.99934">
        <ele>80</ele>
        <time>2018-03-28T18:55:32Z</time>
      </trkpt>
      <trkpt lat="49.24732" lon="3.99933">
        <ele>80</ele>
        <time>2018-03-28T18:56:32Z</time>
      </trkpt>
      <trkpt lat="49.24732" lon="3.99932">
        <ele>80</ele>
        <time>2018-03-28T18:57:32Z</time>
      </trkpt>
      <trkpt lat="49.24731" lon="3.99931">
        <ele>80</ele>
        <time>2018-03-28T18:58:32Z</time>
      </trkpt>
      <trkpt lat="49.2473" lon="3.9993">
        <ele>80</ele>
        <time>2018-03-28T18:59:32Z</time>
      </trkpt>
      <trkpt lat="49.24729" lon="3.99929">
        <ele>80</ele>
        <time>2018-03-28T19:00:32Z</time>
      </trkpt>
      <trkpt lat="49.24728" lon="3.99928">
        <ele>80</ele>
        <time>2018-03-28T19:01:32Z</time>
      </trkpt>
      <trkpt lat="49.24727" lon="3.99927">
        <ele>80</ele>
        <time>2018-03-28T19:02:32Z</time>
      </trkpt>
      <trkpt lat="49.24726" lon="3.99927">
        <ele>80</ele>
        <time>2018-03-28T19:03:32Z</time>
      </trkpt>
      <trkpt lat="49.24725" lon="3.99926">
        <ele>80</ele>
        <time>2018-03-28T19:04:32Z</time>
      </trkpt>
      <trkpt lat="49.24724" lon="3.99926">
        <ele>80</ele>
        <time>2018-03-28T19:05:32Z</time>
      </trkpt>
      <trkpt lat="49.24723" lon="3.99926">
        <ele>80</ele>
        <time>2018-03-28T19:06:32Z</time>
      </trkpt>
      <trkpt lat="49.24722" lon="3.99926">
        <ele>80</ele>
        <time>2018-03-28T19:07:32Z</time>
      </trkpt>
      <trkpt lat="49.24721" lon="3.99926">
        <ele>80</ele>
        <time>2018-03-28T19:08:32Z</time>
      </trkpt>
      <trkpt lat="49.2472" lon="3.99926">
        <ele>80</ele>
        <time>2018-03-28T19:09:32Z</time>
      </trkpt>
      <trkpt lat="49.24716" lon="3.9992">
        <ele>80</ele>
        <time>2018-03-28T19:10:32Z</time>
      </trkpt>
      <trkpt lat="49.24706" lon="3.9991">
        <ele>81</ele>
        <time>2018-03-28T19:11:32Z</time>
      </trkpt>
      <trkpt lat="49.24706" lon="3.9991">
        <ele>81</ele>
        <time>2018-03-28T19:12:32Z</time>
      </trkpt>
      <trkpt lat="49.24696" lon="3.99899">
        <ele>81</ele>
        <time>2018-03-28T19:13:32Z</time>
      </trkpt>
      <trkpt lat="49.24685" lon="3.99886">
        <ele>81</ele>
        <time>2018-03-28T19:14:32Z</time>
      </trkpt>
      <trkpt lat="49.24676" lon="3.99877">
        <ele>81</ele>
        <time>2018-03-28T19:15:32Z</time>
      </trkpt>
      <trkpt lat="49.24653" lon="3.99848">
        <ele>82</ele>
        <time>2018-03-28T19:16:32Z</time>
      </trkpt>
      <trkpt lat="49.24545" lon="3.9971">
        <ele>85</ele>
        <time>2018-03-28T19:17:32Z</time>
      </trkpt>
      <trkpt lat="49.24471" lon="3.99616">
        <ele>86</ele>
        <time>2018-03-28T19:18:32Z</time>
      </trkpt>
      <trkpt lat="49.24416" lon="3.99546">
        <ele>86</ele>
        <time>2018-03-28T19:19:32Z</time>
      </trkpt>
      <trkpt lat="49.24382" lon="3.99502">
        <ele>86</ele>
        <time>2018-03-28T19:20:32Z</time>
      </trkpt>
      <trkpt lat="49.24361" lon="3.99476">
        <ele>87</ele>
        <time>2018-03-28T19:21:32Z</time>
      </trkpt>
      <trkpt lat="49.24338" lon="3.99446">
        <ele>87</ele>
        <time>2018-03-28T19:22:32Z</time>
      </trkpt>
      <trkpt lat="49.24303" lon="3.99402">
        <ele>89</ele>
        <time>2018-03-28T19:23:32Z</time>
      </trkpt>
      <trkpt lat="49.24269" lon="3.99358">
        <ele>90</ele>
        <time>2018-03-28T19:24:32Z</time>
      </trkpt>
      <trkpt lat="49.24254" lon="3.9934">
        <ele>90</ele>
        <time>2018-03-28T19:25:32Z</time>
      </trkpt>
      <trkpt lat="49.24217" lon="3.99291">
        <ele>90</ele>
        <time>2018-03-28T19:26:32Z</time>
      </trkpt>
      <trkpt lat="49.242" lon="3.9927">
        <ele>91</ele>
        <time>2018-03-28T19:27:32Z</time>
      </trkpt>
      <trkpt lat="49.24194" lon="3.99255">
        <ele>91</ele>
        <time>2018-03-28T19:28:32Z</time>
      </trkpt>
      <trkpt lat="49.24192" lon="3.99249">
        <ele>91</ele>
        <time>2018-03-28T19:29:32Z</time>
      </trkpt>
      <trkpt lat="49.24191" lon="3.99242">
        <ele>91</ele>
        <time>2018-03-28T19:30:32Z</time>
      </trkpt>
      <trkpt lat="49.24189" lon="3.99223">
        <ele>92</ele>
        <time>2018-03-28T19:31:32Z</time>
      </trkpt>
      <trkpt lat="49.24189" lon="3.99223">
        <ele>92</ele>
        <time>2018-03-28T19:32:32Z</time>
      </trkpt>
      <trkpt lat="49.24191" lon="3.99221">
        <ele>92</ele>
        <time>2018-03-28T19:33:32Z</time>
      </trkpt>
      <trkpt lat="49.24192" lon="3.9922">
        <ele>92</ele>
        <time>2018-03-28T19:34:32Z</time>
      </trkpt>
      <trkpt lat="49.24192" lon="3.99218">
        <ele>92</ele>
        <time>2018-03-28T19:35:32Z</time>
      </trkpt>
      <trkpt lat="49.24193" lon="3.99217">
        <ele>92</ele>
        <time>2018-03-28T19:36:32Z</time>
      </trkpt>
      <trkpt lat="49.24194" lon="3.99215">
        <ele>92</ele>
        <time>2018-03-28T19:37:32Z</time>
      </trkpt>
      <trkpt lat="49.24194" lon="3.99213">
        <ele>92</ele>
        <time>2018-03-28T19:38:32Z</time>
      </trkpt>
      <trkpt lat="49.24195" lon="3.99211">
        <ele>92</ele>
        <time>2018-03-28T19:39:32Z</time>
      </trkpt>
      <trkpt lat="49.24195" lon="3.99209">
        <ele>92</ele>
        <time>2018-03-28T19:40:32Z</time>
      </trkpt>
      <trkpt lat="49.24196" lon="3.99207">
        <ele>92</ele>
        <time>2018-03-28T19:41:32Z</time>
      </trkpt>
      <trkpt lat="49.24196" lon="3.99205">
        <ele>92</ele>
        <time>2018-03-28T19:42:32Z</time>
      </trkpt>
      <trkpt lat="49.24196" lon="3.99203">
        <ele>92</ele>
        <time>2018-03-28T19:43:32Z</time>
      </trkpt>
      <trkpt lat="49.24196" lon="3.99201">
        <ele>92</ele>
        <time>2018-03-28T19:44:32Z</time>
      </trkpt>
      <trkpt lat="49.24196" lon="3.99199">
        <ele>92</ele>
        <time>2018-03-28T19:45:32Z</time>
      </trkpt>
      <trkpt lat="49.24196" lon="3.99197">
        <ele>92</ele>
        <time>2018-03-28T19:46:32Z</time>
      </trkpt>
      <trkpt lat="49.24195" lon="3.99195">
        <ele>92</ele>
        <time>2018-03-28T19:47:32Z</time>
      </trkpt>
      <trkpt lat="49.24195" lon="3.99193">
        <ele>92</ele>
        <time>2018-03-28T19:48:32Z</time>
      </trkpt>
      <trkpt lat="49.24194" lon="3.99191">
        <ele>93</ele>
        <time>2018-03-28T19:49:32Z</time>
      </trkpt>
      <trkpt lat="49.24194" lon="3.99189">
        <ele>93</ele>
        <time>2018-03-28T19:50:32Z</time>
      </trkpt>
      <trkpt lat="49.24193" lon="3.99188">
        <ele>93</ele>
        <time>2018-03-28T19:51:32Z</time>
      </trkpt>
      <trkpt lat="49.24192" lon="3.99186">
        <ele>93</ele>
        <time>2018-03-28T19:52:32Z</time>
      </trkpt>
      <trkpt lat="49.24191" lon="3.99185">
        <ele>93</ele>
        <time>2018-03-28T19:53:32Z</time>
      </trkpt>
      <trkpt lat="49.24191" lon="3.99183">
        <ele>93</ele>
        <time>2018-03-28T19:54:32Z</time>
      </trkpt>
      <trkpt lat="49.2419" lon="3.99182">
        <ele>93</ele>
        <time>2018-03-28T19:55:32Z</time>
      </trkpt>
      <trkpt lat="49.24188" lon="3.9918">
        <ele>93</ele>
        <time>2018-03-28T19:56:32Z</time>
      </trkpt>
      <trkpt lat="49.24187" lon="3.99179">
        <ele>93</ele>
        <time>2018-03-28T19:57:32Z</time>
      </trkpt>
      <trkpt lat="49.24186" lon="3.99178">
        <ele>93</ele>
        <time>2018-03-28T19:58:32Z</time>
      </trkpt>
      <trkpt lat="49.24185" lon="3.99178">
        <ele>93</ele>
        <time>2018-03-28T19:59:32Z</time>
      </trkpt>
      <trkpt lat="49.24184" lon="3.99177">
        <ele>93</ele>
        <time>2018-03-28T20:00:32Z</time>
      </trkpt>
      <trkpt lat="49.24183" lon="3.99177">
        <ele>93</ele>
        <time>2018-03-28T20:01:32Z</time>
      </trkpt>
      <trkpt lat="49.24182" lon="3.99176">
        <ele>93</ele>
        <time>2018-03-28T20:02:32Z</time>
      </trkpt>
      <trkpt lat="49.24181" lon="3.99176">
        <ele>93</ele>
        <time>2018-03-28T20:03:32Z</time>
      </trkpt>
      <trkpt lat="49.2418" lon="3.99176">
        <ele>93</ele>
        <time>2018-03-28T20:04:32Z</time>
      </trkpt>
      <trkpt lat="49.24169" lon="3.99153">
        <ele>93</ele>
        <time>2018-03-28T20:05:32Z</time>
      </trkpt>
      <trkpt lat="49.24164" lon="3.99147">
        <ele>93</ele>
        <time>2018-03-28T20:06:32Z</time>
      </trkpt>
      <trkpt lat="49.24162" lon="3.99145">
        <ele>93</ele>
        <time>2018-03-28T20:07:32Z</time>
      </trkpt>
      <trkpt lat="49.24159" lon="3.99144">
        <ele>93</ele>
        <time>2018-03-28T20:08:32Z</time>
      </trkpt>
      <trkpt lat="49.24154" lon="3.99143">
        <ele>93</ele>
        <time>2018-03-28T20:09:32Z</time>
      </trkpt>
      <trkpt lat="49.24144" lon="3.99144">
        <ele>93</ele>
        <time>2018-03-28T20:10:32Z</time>
      </trkpt>
      <trkpt lat="49.24133" lon="3.99145">
        <ele>93</ele>
        <time>2018-03-28T20:11:32Z</time>
      </trkpt>
      <trkpt lat="49.24125" lon="3.99149">
        <ele>92</ele>
        <time>2018-03-28T20:12:32Z</time>
      </trkpt>
      <trkpt lat="49.24117" lon="3.99148">
        <ele>92</ele>
        <time>2018-03-28T20:13:32Z</time>
      </trkpt>
      <trkpt lat="49.24111" lon="3.99145">
        <ele>92</ele>
        <time>2018-03-28T20:14:32Z</time>
      </trkpt>
      <trkpt lat="49.24105" lon="3.9914">
        <ele>92</ele>
        <time>2018-03-28T20:15:32Z</time>
      </trkpt>
      <trkpt lat="49.24097" lon="3.99131">
        <ele>92</ele>
        <time>2018-03-28T20:16:32Z</time>
      </trkpt>
      <trkpt lat="49.24095" lon="3.99129">
        <ele>92</ele>
        <time>2018-03-28T20:17:32Z</time>
      </trkpt>
      <trkpt lat="49.24074" lon="3.99104">
        <ele>92</ele>
        <time>2018-03-28T20:18:32Z</time>
      </trkpt>
      <trkpt lat="49.24024" lon="3.99044">
        <ele>93</ele>
        <time>2018-03-28T20:19:32Z</time>
      </trkpt>
      <trkpt lat="49.24002" lon="3.99016">
        <ele>93</ele>
        <time>2018-03-28T20:20:32Z</time>
      </trkpt>
      <trkpt lat="49.23982" lon="3.98988">
        <ele>93</ele>
        <time>2018-03-28T20:21:32Z</time>
      </trkpt>
      <trkpt lat="49.23967" lon="3.98963">
        <ele>93</ele>
        <time>2018-03-28T20:22:32Z</time>
      </trkpt>
      <trkpt lat="49.23957" lon="3.98943">
        <ele>94</ele>
        <time>2018-03-28T20:23:32Z</time>
      </trkpt>
      <trkpt lat="49.23947" lon="3.98922">
        <ele>94</ele>
        <time>2018-03-28T20:24:32Z</time>
      </trkpt>
      <trkpt lat="49.23931" lon="3.9888">
        <ele>95</ele>
        <time>2018-03-28T20:25:32Z</time>
      </trkpt>
      <trkpt lat="49.23914" lon="3.98835">
        <ele>97</ele>
        <time>2018-03-28T20:26:32Z</time>
      </trkpt>
      <trkpt lat="49.23902" lon="3.98798">
        <ele>97</ele>
        <time>2018-03-28T20:27:32Z</time>
      </trkpt>
      <trkpt lat="49.23892" lon="3.9877">
        <ele>96</ele>
        <time>2018-03-28T20:28:32Z</time>
      </trkpt>
      <trkpt lat="49.23855" lon="3.98664">
        <ele>97</ele>
        <time>2018-03-28T20:29:32Z</time>
      </trkpt>
      <trkpt lat="49.23829" lon="3.98589">
        <ele>98</ele>
        <time>2018-03-28T20:30:32Z</time>
      </trkpt>
      <trkpt lat="49.23744" lon="3.9835">
        <ele>101</ele>
        <time>2018-03-28T20:31:32Z</time>
      </trkpt>
      <trkpt lat="49.23734" lon="3.9832">
        <ele>101</ele>
        <time>2018-03-28T20:32:32Z</time>
      </trkpt>
      <trkpt lat="49.23725" lon="3.98293">
        <ele>101</ele>
        <time>2018-03-28T20:33:32Z</time>
      </trkpt>
      <trkpt lat="49.23716" lon="3.98263">
        <ele>100</ele>
        <time>2018-03-28T20:34:32Z</time>
      </trkpt>
      <trkpt lat="49.23706" lon="3.98224">
        <ele>99</ele>
        <time>2018-03-28T20:35:32Z</time>
      </trkpt>
      <trkpt lat="49.23619" lon="3.97891">
        <ele>92</ele>
        <time>2018-03-28T20:36:32Z</time>
      </trkpt>
      <trkpt lat="49.236" lon="3.97828">
        <ele>92</ele>
        <time>2018-03-28T20:37:32Z</time>
      </trkpt>
      <trkpt lat="49.23582" lon="3.97774">
        <ele>93</ele>
        <time>2018-03-28T20:38:32Z</time>
      </trkpt>
      <trkpt lat="49.23564" lon="3.97717">
        <ele>94</ele>
        <time>2018-03-28T20:39:32Z</time>
      </trkpt>
      <trkpt lat="49.2355" lon="3.97671">
        <ele>95</ele>
        <time>2018-03-28T20:40:32Z</time>
      </trkpt>
      <trkpt lat="49.23527" lon="3.97599">
        <ele>94</ele>
        <time>2018-03-28T20:41:32Z</time>
      </trkpt>
      <trkpt lat="49.23516" lon="3.97567">
        <ele>94</ele>
        <time>2018-03-28T20:42:32Z</time>
      </trkpt>
      <trkpt lat="49.2351" lon="3.97546">
        <ele>93</ele>
        <time>2018-03-28T20:43:32Z</time>
      </trkpt>
      <trkpt lat="49.23489" lon="3.97481">
        <ele>92</ele>
        <time>2018-03-28T20:44:32Z</time>
      </trkpt>
      <trkpt lat="49.23434" lon="3.97312">
        <ele>89</ele>
        <time>2018-03-28T20:45:32Z</time>
      </trkpt>
      <trkpt lat="49.23421" lon="3.9727">
        <ele>89</ele>
        <time>2018-03-28T20:46:32Z</time>
      </trkpt>
      <trkpt lat="49.23409" lon="3.97234">
        <ele>89</ele>
        <time>2018-03-28T20:47:32Z</time>
      </trkpt>
      <trkpt lat="49.23388" lon="3.97167">
        <ele>88</ele>
        <time>2018-03-28T20:48:32Z</time>
      </trkpt>
      <trkpt lat="49.23375" lon="3.97126">
        <ele>88</ele>
        <time>2018-03-28T20:49:32Z</time>
      </trkpt>
      <trkpt lat="49.23362" lon="3.97086">
        <ele>88</ele>
        <time>2018-03-28T20:50:32Z</time>
      </trkpt>
      <trkpt lat="49.23344" lon="3.97028">
        <ele>88</ele>
        <time>2018-03-28T20:51:32Z</time>
      </trkpt>
      <trkpt lat="49.23327" lon="3.96975">
        <ele>87</ele>
        <time>2018-03-28T20:52:32Z</time>
      </trkpt>
      <trkpt lat="49.23322" lon="3.9696">
        <ele>86</ele>
        <time>2018-03-28T20:53:32Z</time>
      </trkpt>
      <trkpt lat="49.23317" lon="3.96946">
        <ele>86</ele>
        <time>2018-03-28T20:54:32Z</time>
      </trkpt>
      <trkpt lat="49.23298" lon="3.96885">
        <ele>86</ele>
        <time>2018-03-28T20:55:32Z</time>
      </trkpt>
      <trkpt lat="49.23266" lon="3.96785">
        <ele>85</ele>
        <time>2018-03-28T20:56:32Z</time>
      </trkpt>
      <trkpt lat="49.23239" lon="3.96703">
        <ele>85</ele>
        <time>2018-03-28T20:57:32Z</time>
      </trkpt>
      <trkpt lat="49.23218" lon="3.96636">
        <ele>85</ele>
        <time>2018-03-28T20:58:32Z</time>
      </trkpt>
      <trkpt lat="49.23195" lon="3.96573">
        <ele>85</ele>
        <time>2018-03-28T20:59:32Z</time>
      </trkpt>
      <trkpt lat="49.23184" lon="3.96543">
        <ele>86</ele>
        <time>2018-03-28T21:00:32Z</time>
      </trkpt>
      <trkpt lat="49.23171" lon="3.96511">
        <ele>87</ele>
        <time>2018-03-28T21:01:32Z</time>
      </trkpt>
      <trkpt lat="49.23164" lon="3.96492">
        <ele>87</ele>
        <time>2018-03-28T21:02:32Z</time>
      </trkpt>
      <trkpt lat="49.23146" lon="3.96444">
        <ele>86</ele>
        <time>2018-03-28T21:03:32Z</time>
      </trkpt>
      <trkpt lat="49.23134" lon="3.9641">
        <ele>86</ele>
        <time>2018-03-28T21:04:32Z</time>
      </trkpt>
      <trkpt lat="49.23118" lon="3.96363">
        <ele>86</ele>
        <time>2018-03-28T21:05:32Z</time>
      </trkpt>
      <trkpt lat="49.23109" lon="3.96334">
        <ele>87</ele>
        <time>2018-03-28T21:06:32Z</time>
      </trkpt>
      <trkpt lat="49.231" lon="3.96299">
        <ele>87</ele>
        <time>2018-03-28T21:07:32Z</time>
      </trkpt>
      <trkpt lat="49.2309" lon="3.96264">
        <ele>87</ele>
        <time>2018-03-28T21:08:32Z</time>
      </trkpt>
      <trkpt lat="49.23078" lon="3.96213">
        <ele>87</ele>
        <time>2018-03-28T21:09:32Z</time>
      </trkpt>
      <trkpt lat="49.23075" lon="3.96186">
        <ele>87</ele>
        <time>2018-03-28T21:10:32Z</time>
      </trkpt>
      <trkpt lat="49.23075" lon="3.96175">
        <ele>87</ele>
        <time>2018-03-28T21:11:32Z</time>
      </trkpt>
      <trkpt lat="49.23076" lon="3.96168">
        <ele>87</ele>
        <time>2018-03-28T21:12:32Z</time>
      </trkpt>
      <trkpt lat="49.23077" lon="3.96157">
        <ele>87</ele>
        <time>2018-03-28T21:13:32Z</time>
      </trkpt>
      <trkpt lat="49.23077" lon="3.96157">
        <ele>87</ele>
        <time>2018-03-28T21:14:32Z</time>
      </trkpt>
      <trkpt lat="49.23078" lon="3.96156">
        <ele>87</ele>
        <time>2018-03-28T21:15:32Z</time>
      </trkpt>
      <trkpt lat="49.23078" lon="3.96155">
        <ele>87</ele>
        <time>2018-03-28T21:16:32Z</time>
      </trkpt>
      <trkpt lat="49.23078" lon="3.96154">
        <ele>87</ele>
        <time>2018-03-28T21:17:32Z</time>
      </trkpt>
      <trkpt lat="49.23079" lon="3.96153">
        <ele>87</ele>
        <time>2018-03-28T21:18:32Z</time>
      </trkpt>
      <trkpt lat="49.23079" lon="3.96151">
        <ele>87</ele>
        <time>2018-03-28T21:19:32Z</time>
      </trkpt>
      <trkpt lat="49.23079" lon="3.9615">
        <ele>87</ele>
        <time>2018-03-28T21:20:32Z</time>
      </trkpt>
      <trkpt lat="49.2308" lon="3.96149">
        <ele>87</ele>
        <time>2018-03-28T21:21:32Z</time>
      </trkpt>
      <trkpt lat="49.2308" lon="3.96147">
        <ele>87</ele>
        <time>2018-03-28T21:22:32Z</time>
      </trkpt>
      <trkpt lat="49.2308" lon="3.96145">
        <ele>87</ele>
        <time>2018-03-28T21:23:32Z</time>
      </trkpt>
      <trkpt lat="49.2308" lon="3.96143">
        <ele>87</ele>
        <time>2018-03-28T21:24:32Z</time>
      </trkpt>
      <trkpt lat="49.2308" lon="3.96141">
        <ele>87</ele>
        <time>2018-03-28T21:25:32Z</time>
      </trkpt>
      <trkpt lat="49.2308" lon="3.96139">
        <ele>87</ele>
        <time>2018-03-28T21:26:32Z</time>
      </trkpt>
      <trkpt lat="49.2308" lon="3.96138">
        <ele>87</ele>
        <time>2018-03-28T21:27:32Z</time>
      </trkpt>
      <trkpt lat="49.23079" lon="3.96136">
        <ele>87</ele>
        <time>2018-03-28T21:28:32Z</time>
      </trkpt>
      <trkpt lat="49.23079" lon="3.96134">
        <ele>87</ele>
        <time>2018-03-28T21:29:32Z</time>
      </trkpt>
      <trkpt lat="49.23078" lon="3.96132">
        <ele>87</ele>
        <time>2018-03-28T21:30:32Z</time>
      </trkpt>
      <trkpt lat="49.23078" lon="3.9613">
        <ele>87</ele>
        <time>2018-03-28T21:31:32Z</time>
      </trkpt>
      <trkpt lat="49.23077" lon="3.96129">
        <ele>87</ele>
        <time>2018-03-28T21:32:32Z</time>
      </trkpt>
      <trkpt lat="49.23076" lon="3.96127">
        <ele>87</ele>
        <time>2018-03-28T21:33:32Z</time>
      </trkpt>
      <trkpt lat="49.23076" lon="3.96126">
        <ele>87</ele>
        <time>2018-03-28T21:34:32Z</time>
      </trkpt>
      <trkpt lat="49.23074" lon="3.96124">
        <ele>87</ele>
        <time>2018-03-28T21:35:32Z</time>
      </trkpt>
      <trkpt lat="49.23073" lon="3.96123">
        <ele>87</ele>
        <time>2018-03-28T21:36:32Z</time>
      </trkpt>
      <trkpt lat="49.23073" lon="3.96122">
        <ele>87</ele>
        <time>2018-03-28T21:37:32Z</time>
      </trkpt>
      <trkpt lat="49.23072" lon="3.96121">
        <ele>87</ele>
        <time>2018-03-28T21:38:32Z</time>
      </trkpt>
      <trkpt lat="49.23071" lon="3.96121">
        <ele>87</ele>
        <time>2018-03-28T21:39:32Z</time>
      </trkpt>
      <trkpt lat="49.2307" lon="3.9612">
        <ele>87</ele>
        <time>2018-03-28T21:40:32Z</time>
      </trkpt>
      <trkpt lat="49.2307" lon="3.96119">
        <ele>87</ele>
        <time>2018-03-28T21:41:32Z</time>
      </trkpt>
      <trkpt lat="49.23069" lon="3.96119">
        <ele>88</ele>
        <time>2018-03-28T21:42:32Z</time>
      </trkpt>
      <trkpt lat="49.23068" lon="3.96118">
        <ele>88</ele>
        <time>2018-03-28T21:43:32Z</time>
      </trkpt>
      <trkpt lat="49.23066" lon="3.96116">
        <ele>88</ele>
        <time>2018-03-28T21:44:32Z</time>
      </trkpt>
      <trkpt lat="49.23063" lon="3.96111">
        <ele>88</ele>
        <time>2018-03-28T21:45:32Z</time>
      </trkpt>
      <trkpt lat="49.23061" lon="3.96106">
        <ele>88</ele>
        <time>2018-03-28T21:46:32Z</time>
      </trkpt>
      <trkpt lat="49.23059" lon="3.96101">
        <ele>88</ele>
        <time>2018-03-28T21:47:32Z</time>
      </trkpt>
      <trkpt lat="49.23057" lon="3.96096">
        <ele>88</ele>
        <time>2018-03-28T21:48:32Z</time>
      </trkpt>
      <trkpt lat="49.23055" lon="3.9609">
        <ele>89</ele>
        <time>2018-03-28T21:49:32Z</time>
      </trkpt>
      <trkpt lat="49.23049" lon="3.96072">
        <ele>89</ele>
        <time>2018-03-28T21:50:32Z</time>
      </trkpt>
      <trkpt lat="49.23047" lon="3.96061">
        <ele>90</ele>
        <time>2018-03-28T21:51:32Z</time>
      </trkpt>
      <trkpt lat="49.23038" lon="3.96018">
        <ele>90</ele>
        <time>2018-03-28T21:52:32Z</time>
      </trkpt>
      <trkpt lat="49.23019" lon="3.9592">
        <ele>90</ele>
        <time>2018-03-28T21:53:32Z</time>
      </trkpt>
      <trkpt lat="49.23014" lon="3.95892">
        <ele>90</ele>
        <time>2018-03-28T21:54:32Z</time>
      </trkpt>
      <trkpt lat="49.23008" lon="3.95865">
        <ele>90</ele>
        <time>2018-03-28T21:55:32Z</time>
      </trkpt>
      <trkpt lat="49.23006" lon="3.95854">
        <ele>91</ele>
        <time>2018-03-28T21:56:32Z</time>
      </trkpt>
      <trkpt lat="49.23002" lon="3.9584">
        <ele>91</ele>
        <time>2018-03-28T21:57:32Z</time>
      </trkpt>
      <trkpt lat="49.22999" lon="3.9583">
        <ele>91</ele>
        <time>2018-03-28T21:58:32Z</time>
      </trkpt>
      <trkpt lat="49.22996" lon="3.9582">
        <ele>91</ele>
        <time>2018-03-28T21:59:32Z</time>
      </trkpt>
      <trkpt lat="49.22991" lon="3.95806">
        <ele>92</ele>
        <time>2018-03-28T22:00:32Z</time>
      </trkpt>
      <trkpt lat="49.22988" lon="3.95798">
        <ele>92</ele>
        <time>2018-03-28T22:01:32Z</time>
      </trkpt>
      <trkpt lat="49.22984" lon="3.95786">
        <ele>93</ele>
        <time>2018-03-28T22:02:32Z</time>
      </trkpt>
      <trkpt lat="49.22978" lon="3.95772">
        <ele>93</ele>
        <time>2018-03-28T22:03:32Z</time>
      </trkpt>
      <trkpt lat="49.22967" lon="3.95747">
        <ele>94</ele>
        <time>2018-03-28T22:04:32Z</time>
      </trkpt>
      <trkpt lat="49.22961" lon="3.95733">
        <ele>95</ele>
        <time>2018-03-28T22:05:32Z</time>
      </trkpt>
      <trkpt lat="49.22948" lon="3.95703">
        <ele>96</ele>
        <time>2018-03-28T22:06:32Z</time>
      </trkpt>
      <trkpt lat="49.22945" lon="3.95696">
        <ele>96</ele>
        <time>2018-03-28T22:07:32Z</time>
      </trkpt>
      <trkpt lat="49.22932" lon="3.95669">
        <ele>97</ele>
        <time>2018-03-28T22:08:32Z</time>
      </trkpt>
      <trkpt lat="49.22913" lon="3.95626">
        <ele>99</ele>
        <time>2018-03-28T22:09:32Z</time>
      </trkpt>
      <trkpt lat="49.22902" lon="3.95605">
        <ele>100</ele>
        <time>2018-03-28T22:10:32Z</time>
      </trkpt>
      <trkpt lat="49.22895" lon="3.9559">
        <ele>101</ele>
        <time>2018-03-28T22:11:32Z</time>
      </trkpt>
      <trkpt lat="49.22883" lon="3.9557">
        <ele>101</ele>
        <time>2018-03-28T22:12:32Z</time>
      </trkpt>
      <trkpt lat="49.22873" lon="3.95554">
        <ele>102</ele>
        <time>2018-03-28T22:13:32Z</time>
      </trkpt>
      <trkpt lat="49.22863" lon="3.95538">
        <ele>102</ele>
        <time>2018-03-28T22:14:32Z</time>
      </trkpt>
      <trkpt lat="49.22852" lon="3.95522">
        <ele>103</ele>
        <time>2018-03-28T22:15:32Z</time>
      </trkpt>
      <trkpt lat="49.2285" lon="3.95519">
        <ele>103</ele>
        <time>2018-03-28T22:16:32Z</time>
      </trkpt>
      <trkpt lat="49.22824" lon="3.95484">
        <ele>104</ele>
        <time>2018-03-28T22:17:32Z</time>
      </trkpt>
      <trkpt lat="49.22803" lon="3.95455">
        <ele>104</ele>
        <time>2018-03-28T22:18:32Z</time>
      </trkpt>
      <trkpt lat="49.22792" lon="3.95438">
        <ele>104</ele>
        <time>2018-03-28T22:19:32Z</time>
      </trkpt>
      <trkpt lat="49.22781" lon="3.95422">
        <ele>104</ele>
        <time>2018-03-28T22:20:32Z</time>
      </trkpt>
      <trkpt lat="49.22769" lon="3.95403">
        <ele>104</ele>
        <time>2018-03-28T22:21:32Z</time>
      </trkpt>
      <trkpt lat="49.22758" lon="3.95385">
        <ele>104</ele>
        <time>2018-03-28T22:22:32Z</time>
      </trkpt>
      <trkpt lat="49.22746" lon="3.95365">
        <ele>105</ele>
        <time>2018-03-28T22:23:32Z</time>
      </trkpt>
      <trkpt lat="49.22714" lon="3.95307">
        <ele>107</ele>
        <time>2018-03-28T22:24:32Z</time>
      </trkpt>
      <trkpt lat="49.227" lon="3.95281">
        <ele>108</ele>
        <time>2018-03-28T22:25:32Z</time>
      </trkpt>
      <trkpt lat="49.22672" lon="3.9523">
        <ele>109</ele>
        <time>2018-03-28T22:26:32Z</time>
      </trkpt>
      <trkpt lat="49.22657" lon="3.95204">
        <ele>109</ele>
        <time>2018-03-28T22:27:32Z</time>
      </trkpt>
      <trkpt lat="49.22632" lon="3.95157">
        <ele>109</ele>
        <time>2018-03-28T22:28:32Z</time>
      </trkpt>
      <trkpt lat="49.22604" lon="3.95107">
        <ele>109</ele>
        <time>2018-03-28T22:29:32Z</time>
      </trkpt>
      <trkpt lat="49.22562" lon="3.9503">
        <ele>110</ele>
        <time>2018-03-28T22:30:32Z</time>
      </trkpt>
      <trkpt lat="49.22536" lon="3.94982">
        <ele>110</ele>
        <time>2018-03-28T22:31:32Z</time>
      </trkpt>
      <trkpt lat="49.22531" lon="3.94973">
        <ele>110</ele>
        <time>2018-03-28T22:32:32Z</time>
      </trkpt>
      <trkpt lat="49.22524" lon="3.9496">
        <ele>110</ele>
        <time>2018-03-28T22:33:32Z</time>
      </trkpt>
      <trkpt lat="49.22518" lon="3.94949">
        <ele>109</ele>
        <time>2018-03-28T22:34:32Z</time>
      </trkpt>
      <trkpt lat="49.22498" lon="3.94909">
        <ele>109</ele>
        <time>2018-03-28T22:35:32Z</time>
      </trkpt>
      <trkpt lat="49.22482" lon="3.94883">
        <ele>109</ele>
        <time>2018-03-28T22:36:32Z</time>
      </trkpt>
      <trkpt lat="49.22474" lon="3.94869">
        <ele>109</ele>
        <time>2018-03-28T22:37:32Z</time>
      </trkpt>
      <trkpt lat="49.22466" lon="3.94857">
        <ele>109</ele>
        <time>2018-03-28T22:38:32Z</time>
      </trkpt>
      <trkpt lat="49.22458" lon="3.94847">
        <ele>109</ele>
        <time>2018-03-28T22:39:32Z</time>
      </trkpt>
      <trkpt lat="49.22429" lon="3.94811">
        <ele>110</ele>
        <time>2018-03-28T22:40:32Z</time>
      </trkpt>
      <trkpt lat="49.22394" lon="3.94768">
        <ele>113</ele>
        <time>2018-03-28T22:41:32Z</time>
      </trkpt>
      <trkpt lat="49.22353" lon="3.94717">
        <ele>114</ele>
        <time>2018-03-28T22:42:32Z</time>
      </trkpt>
      <trkpt lat="49.22342" lon="3.94703">
        <ele>115</ele>
        <time>2018-03-28T22:43:32Z</time>
      </trkpt>
      <trkpt lat="49.22323" lon="3.94679">
        <ele>114</ele>
        <time>2018-03-28T22:44:32Z</time>
      </trkpt>
      <trkpt lat="49.22296" lon="3.94644">
        <ele>114</ele>
        <time>2018-03-28T22:45:32Z</time>
      </trkpt>
      <trkpt lat="49.22275" lon="3.94614">
        <ele>114</ele>
        <time>2018-03-28T22:46:32Z</time>
      </trkpt>
      <trkpt lat="49.22264" lon="3.94597">
        <ele>114</ele>
        <time>2018-03-28T22:47:32Z</time>
      </trkpt>
      <trkpt lat="49.22254" lon="3.94578">
        <ele>114</ele>
        <time>2018-03-28T22:48:32Z</time>
      </trkpt>
      <trkpt lat="49.22244" lon="3.94558">
        <ele>114</ele>
        <time>2018-03-28T22:49:32Z</time>
      </trkpt>
      <trkpt lat="49.22237" lon="3.94539">
        <ele>114</ele>
        <time>2018-03-28T22:50:32Z</time>
      </trkpt>
      <trkpt lat="49.22226" lon="3.94507">
        <ele>114</ele>
        <time>2018-03-28T22:51:32Z</time>
      </trkpt>
      <trkpt lat="49.22215" lon="3.94467">
        <ele>114</ele>
        <time>2018-03-28T22:52:32Z</time>
      </trkpt>
      <trkpt lat="49.22192" lon="3.94379">
        <ele>114</ele>
        <time>2018-03-28T22:53:32Z</time>
      </trkpt>
      <trkpt lat="49.22174" lon="3.94303">
        <ele>115</ele>
        <time>2018-03-28T22:54:32Z</time>
      </trkpt>
      <trkpt lat="49.22154" lon="3.94225">
        <ele>117</ele>
        <time>2018-03-28T22:55:32Z</time>
      </trkpt>
      <trkpt lat="49.22141" lon="3.9417">
        <ele>116</ele>
        <time>2018-03-28T22:56:32Z</time>
      </trkpt>
      <trkpt lat="49.22118" lon="3.9408">
        <ele>116</ele>
        <time>2018-03-28T22:57:32Z</time>
      </trkpt>
      <trkpt lat="49.22063" lon="3.93857">
        <ele>111</ele>
        <time>2018-03-28T22:58:32Z</time>
      </trkpt>
      <trkpt lat="49.22038" lon="3.93758">
        <ele>112</ele>
        <time>2018-03-28T22:59:32Z</time>
      </trkpt>
      <trkpt lat="49.22027" lon="3.93713">
        <ele>113</ele>
        <time>2018-03-28T23:00:32Z</time>
      </trkpt>
      <trkpt lat="49.22012" lon="3.93653">
        <ele>114</ele>
        <time>2018-03-28T23:01:32Z</time>
      </trkpt>
      <trkpt lat="49.21991" lon="3.93568">
        <ele>116</ele>
        <time>2018-03-28T23:02:32Z</time>
      </trkpt>
      <trkpt lat="49.21974" lon="3.93499">
        <ele>116</ele>
        <time>2018-03-28T23:03:32Z</time>
      </trkpt>
      <trkpt lat="49.2195" lon="3.93401">
        <ele>116</ele>
        <time>2018-03-28T23:04:32Z</time>
      </trkpt>
      <trkpt lat="49.2194" lon="3.93363">
        <ele>117</ele>
        <time>2018-03-28T23:05:32Z</time>
      </trkpt>
      <trkpt lat="49.21909" lon="3.93238">
        <ele>119</ele>
        <time>2018-03-28T23:06:32Z</time>
      </trkpt>
      <trkpt lat="49.21894" lon="3.9318">
        <ele>120</ele>
        <time>2018-03-28T23:07:32Z</time>
      </trkpt>
      <trkpt lat="49.21887" lon="3.93151">
        <ele>121</ele>
        <time>2018-03-28T23:08:32Z</time>
      </trkpt>
      <trkpt lat="49.21883" lon="3.93134">
        <ele>121</ele>
        <time>2018-03-28T23:09:32Z</time>
      </trkpt>
      <trkpt lat="49.21882" lon="3.93128">
        <ele>121</ele>
        <time>2018-03-28T23:10:32Z</time>
      </trkpt>
      <trkpt lat="49.21881" lon="3.93125">
        <ele>121</ele>
        <time>2018-03-28T23:11:32Z</time>
      </trkpt>
      <trkpt lat="49.21881" lon="3.93124">
        <ele>121</ele>
        <time>2018-03-28T23:12:32Z</time>
      </trkpt>
      <trkpt lat="49.2188" lon="3.93122">
        <ele>121</ele>
        <time>2018-03-28T23:13:32Z</time>
      </trkpt>
      <trkpt lat="49.2188" lon="3.9312">
        <ele>121</ele>
        <time>2018-03-28T23:14:32Z</time>
      </trkpt>
      <trkpt lat="49.2188" lon="3.93118">
        <ele>121</ele>
        <time>2018-03-28T23:15:32Z</time>
      </trkpt>
      <trkpt lat="49.2188" lon="3.93116">
        <ele>121</ele>
        <time>2018-03-28T23:16:32Z</time>
      </trkpt>
      <trkpt lat="49.2188" lon="3.93114">
        <ele>121</ele>
        <time>2018-03-28T23:17:32Z</time>
      </trkpt>
      <trkpt lat="49.21879" lon="3.93112">
        <ele>121</ele>
        <time>2018-03-28T23:18:32Z</time>
      </trkpt>
      <trkpt lat="49.21879" lon="3.9311">
        <ele>121</ele>
        <time>2018-03-28T23:19:32Z</time>
      </trkpt>
      <trkpt lat="49.21867" lon="3.93063">
        <ele>122</ele>
        <time>2018-03-28T23:20:32Z</time>
      </trkpt>
      <trkpt lat="49.21865" lon="3.93054">
        <ele>122</ele>
        <time>2018-03-28T23:21:32Z</time>
      </trkpt>
      <trkpt lat="49.21864" lon="3.93049">
        <ele>122</ele>
        <time>2018-03-28T23:22:32Z</time>
      </trkpt>
      <trkpt lat="49.21862" lon="3.93045">
        <ele>122</ele>
        <time>2018-03-28T23:23:32Z</time>
      </trkpt>
      <trkpt lat="49.21859" lon="3.93039">
        <ele>122</ele>
        <time>2018-03-28T23:24:32Z</time>
      </trkpt>
      <trkpt lat="49.2185" lon="3.93021">
        <ele>123</ele>
        <time>2018-03-28T23:25:32Z</time>
      </trkpt>
      <trkpt lat="49.21849" lon="3.93014">
        <ele>123</ele>
        <time>2018-03-28T23:26:32Z</time>
      </trkpt>
      <trkpt lat="49.21848" lon="3.93008">
        <ele>123</ele>
        <time>2018-03-28T23:27:32Z</time>
      </trkpt>
      <trkpt lat="49.21847" lon="3.93004">
        <ele>123</ele>
        <time>2018-03-28T23:28:32Z</time>
      </trkpt>
      <trkpt lat="49.21847" lon="3.93">
        <ele>123</ele>
        <time>2018-03-28T23:29:32Z</time>
      </trkpt>
      <trkpt lat="49.21848" lon="3.92993">
        <ele>123</ele>
        <time>2018-03-28T23:30:32Z</time>
      </trkpt>
      <trkpt lat="49.21847" lon="3.92984">
        <ele>124</ele>
        <time>2018-03-28T23:31:32Z</time>
      </trkpt>
      <trkpt lat="49.21847" lon="3.9298">
        <ele>124</ele>
        <time>2018-03-28T23:32:32Z</time>
      </trkpt>
      <trkpt lat="49.21844" lon="3.9297">
        <ele>124</ele>
        <time>2018-03-28T23:33:32Z</time>
      </trkpt>
      <trkpt lat="49.21837" lon="3.92938">
        <ele>125</ele>
        <time>2018-03-28T23:34:32Z</time>
      </trkpt>
      <trkpt lat="49.21831" lon="3.92915">
        <ele>126</ele>
        <time>2018-03-28T23:35:32Z</time>
      </trkpt>
      <trkpt lat="49.21824" lon="3.92891">
        <ele>126</ele>
        <time>2018-03-28T23:36:32Z</time>
      </trkpt>
      <trkpt lat="49.21814" lon="3.92857">
        <ele>127</ele>
        <time>2018-03-28T23:37:32Z</time>
      </trkpt>
      <trkpt lat="49.21802" lon="3.92813">
        <ele>127</ele>
        <time>2018-03-28T23:38:32Z</time>
      </trkpt>
      <trkpt lat="49.21772" lon="3.92717">
        <ele>130</ele>
        <time>2018-03-28T23:39:32Z</time>
      </trkpt>
      <trkpt lat="49.21752" lon="3.9265">
        <ele>133</ele>
        <time>2018-03-28T23:40:32Z</time>
      </trkpt>
      <trkpt lat="49.21745" lon="3.92629">
        <ele>133</ele>
        <time>2018-03-28T23:41:32Z</time>
      </trkpt>
      <trkpt lat="49.21735" lon="3.92602">
        <ele>133</ele>
        <time>2018-03-28T23:42:32Z</time>
      </trkpt>
      <trkpt lat="49.21726" lon="3.92581">
        <ele>133</ele>
        <time>2018-03-28T23:43:32Z</time>
      </trkpt>
      <trkpt lat="49.21722" lon="3.92574">
        <ele>134</ele>
        <time>2018-03-28T23:44:32Z</time>
      </trkpt>
      <trkpt lat="49.21714" lon="3.9256">
        <ele>134</ele>
        <time>2018-03-28T23:45:32Z</time>
      </trkpt>
      <trkpt lat="49.217" lon="3.92541">
        <ele>135</ele>
        <time>2018-03-28T23:46:32Z</time>
      </trkpt>
      <trkpt lat="49.21692" lon="3.92531">
        <ele>136</ele>
        <time>2018-03-28T23:47:32Z</time>
      </trkpt>
      <trkpt lat="49.21685" lon="3.92523">
        <ele>136</ele>
        <time>2018-03-28T23:48:32Z</time>
      </trkpt>
      <trkpt lat="49.21678" lon="3.92517">
        <ele>137</ele>
        <time>2018-03-28T23:49:32Z</time>
      </trkpt>
      <trkpt lat="49.21664" lon="3.92506">
        <ele>138</ele>
        <time>2018-03-28T23:50:32Z</time>
      </trkpt>
      <trkpt lat="49.21652" lon="3.92497">
        <ele>138</ele>
        <time>2018-03-28T23:51:32Z</time>
      </trkpt>
      <trkpt lat="49.21638" lon="3.92487">
        <ele>139</ele>
        <time>2018-03-28T23:52:32Z</time>
      </trkpt>
      <trkpt lat="49.21612" lon="3.92469">
        <ele>141</ele>
        <time>2018-03-28T23:53:32Z</time>
      </trkpt>
      <trkpt lat="49.21573" lon="3.92443">
        <ele>143</ele>
        <time>2018-03-28T23:54:32Z</time>
      </trkpt>
      <trkpt lat="49.21562" lon="3.92435">
        <ele>143</ele>
        <time>2018-03-28T23:55:32Z</time>
      </trkpt>
      <trkpt lat="49.21512" lon="3.92402">
        <ele>144</ele>
        <time>2018-03-28T23:56:32Z</time>
      </trkpt>
      <trkpt lat="49.21446" lon="3.92359">
        <ele>147</ele>
        <time>2018-03-28T23:57:32Z</time>
      </trkpt>
      <trkpt lat="49.21413" lon="3.92336">
        <ele>148</ele>
        <time>2018-03-28T23:58:32Z</time>
      </trkpt>
      <trkpt lat="49.21387" lon="3.92314">
        <ele>150</ele>
        <time>2018-03-28T23:59:32Z</time>
      </trkpt>
      <trkpt lat="49.21376" lon="3.92303">
        <ele>150</ele>
        <time>2018-03-29T00:00:32Z</time>
      </trkpt>
      <trkpt lat="49.21365" lon="3.9229">
        <ele>151</ele>
        <time>2018-03-29T00:01:32Z</time>
      </trkpt>
      <trkpt lat="49.21348" lon="3.9227">
        <ele>152</ele>
        <time>2018-03-29T00:02:32Z</time>
      </trkpt>
      <trkpt lat="49.21344" lon="3.92265">
        <ele>152</ele>
        <time>2018-03-29T00:03:32Z</time>
      </trkpt>
      <trkpt lat="49.21338" lon="3.92256">
        <ele>153</ele>
        <time>2018-03-29T00:04:32Z</time>
      </trkpt>
      <trkpt lat="49.21331" lon="3.92245">
        <ele>153</ele>
        <time>2018-03-29T00:05:32Z</time>
      </trkpt>
      <trkpt lat="49.21327" lon="3.92238">
        <ele>153</ele>
        <time>2018-03-29T00:06:32Z</time>
      </trkpt>
      <trkpt lat="49.21323" lon="3.92232">
        <ele>154</ele>
        <time>2018-03-29T00:07:32Z</time>
      </trkpt>
      <trkpt lat="49.2132" lon="3.92227">
        <ele>154</ele>
        <time>2018-03-29T00:08:32Z</time>
      </trkpt>
      <trkpt lat="49.21312" lon="3.92213">
        <ele>154</ele>
        <time>2018-03-29T00:09:32Z</time>
      </trkpt>
      <trkpt lat="49.21302" lon="3.92197">
        <ele>155</ele>
        <time>2018-03-29T00:10:32Z</time>
      </trkpt>
      <trkpt lat="49.21293" lon="3.92182">
        <ele>155</ele>
        <time>2018-03-29T00:11:32Z</time>
      </trkpt>
      <trkpt lat="49.21281" lon="3.92163">
        <ele>156</ele>
        <time>2018-03-29T00:12:32Z</time>
      </trkpt>
      <trkpt lat="49.2127" lon="3.92148">
        <ele>157</ele>
        <time>2018-03-29T00:13:32Z</time>
      </trkpt>
      <trkpt lat="49.21246" lon="3.92118">
        <ele>159</ele>
        <time>2018-03-29T00:14:32Z</time>
      </trkpt>
      <trkpt lat="49.21234" lon="3.92104">
        <ele>160</ele>
        <time>2018-03-29T00:15:32Z</time>
      </trkpt>
      <trkpt lat="49.21214" lon="3.92084">
        <ele>162</ele>
        <time>2018-03-29T00:16:32Z</time>
      </trkpt>
      <trkpt lat="49.21173" lon="3.92042">
        <ele>165</ele>
        <time>2018-03-29T00:17:32Z</time>
      </trkpt>
      <trkpt lat="49.21142" lon="3.92011">
        <ele>168</ele>
        <time>2018-03-29T00:18:32Z</time>
      </trkpt>
      <trkpt lat="49.2113" lon="3.91999">
        <ele>169</ele>
        <time>2018-03-29T00:19:32Z</time>
      </trkpt>
      <trkpt lat="49.21121" lon="3.91989">
        <ele>170</ele>
        <time>2018-03-29T00:20:32Z</time>
      </trkpt>
      <trkpt lat="49.21114" lon="3.91981">
        <ele>171</ele>
        <time>2018-03-29T00:21:32Z</time>
      </trkpt>
      <trkpt lat="49.21107" lon="3.91975">
        <ele>172</ele>
        <time>2018-03-29T00:22:32Z</time>
      </trkpt>
      <trkpt lat="49.21101" lon="3.91971">
        <ele>173</ele>
        <time>2018-03-29T00:23:32Z</time>
      </trkpt>
      <trkpt lat="49.21097" lon="3.91968">
        <ele>173</ele>
        <time>2018-03-29T00:24:32Z</time>
      </trkpt>
      <trkpt lat="49.21091" lon="3.91965">
        <ele>174</ele>
        <time>2018-03-29T00:25:32Z</time>
      </trkpt>
      <trkpt lat="49.21087" lon="3.91963">
        <ele>174</ele>
        <time>2018-03-29T00:26:32Z</time>
      </trkpt>
      <trkpt lat="49.21082" lon="3.91962">
        <ele>175</ele>
        <time>2018-03-29T00:27:32Z</time>
      </trkpt>
      <trkpt lat="49.21078" lon="3.91961">
        <ele>175</ele>
        <time>2018-03-29T00:28:32Z</time>
      </trkpt>
      <trkpt lat="49.21071" lon="3.91959">
        <ele>176</ele>
        <time>2018-03-29T00:29:32Z</time>
      </trkpt>
      <trkpt lat="49.21065" lon="3.91959">
        <ele>177</ele>
        <time>2018-03-29T00:30:32Z</time>
      </trkpt>
      <trkpt lat="49.21058" lon="3.9196">
        <ele>178</ele>
        <time>2018-03-29T00:31:32Z</time>
      </trkpt>
      <trkpt lat="49.21053" lon="3.9196">
        <ele>178</ele>
        <time>2018-03-29T00:32:32Z</time>
      </trkpt>
      <trkpt lat="49.21045" lon="3.91962">
        <ele>179</ele>
        <time>2018-03-29T00:33:32Z</time>
      </trkpt>
      <trkpt lat="49.21039" lon="3.91964">
        <ele>180</ele>
        <time>2018-03-29T00:34:32Z</time>
      </trkpt>
      <trkpt lat="49.21034" lon="3.91966">
        <ele>180</ele>
        <time>2018-03-29T00:35:32Z</time>
      </trkpt>
      <trkpt lat="49.21026" lon="3.91969">
        <ele>181</ele>
        <time>2018-03-29T00:36:32Z</time>
      </trkpt>
      <trkpt lat="49.21017" lon="3.91974">
        <ele>181</ele>
        <time>2018-03-29T00:37:32Z</time>
      </trkpt>
      <trkpt lat="49.2101" lon="3.91978">
        <ele>182</ele>
        <time>2018-03-29T00:38:32Z</time>
      </trkpt>
      <trkpt lat="49.21003" lon="3.91982">
        <ele>182</ele>
        <time>2018-03-29T00:39:32Z</time>
      </trkpt>
      <trkpt lat="49.20997" lon="3.91986">
        <ele>183</ele>
        <time>2018-03-29T00:40:32Z</time>
      </trkpt>
      <trkpt lat="49.20989" lon="3.91992">
        <ele>183</ele>
        <time>2018-03-29T00:41:32Z</time>
      </trkpt>
      <trkpt lat="49.20979" lon="3.92001">
        <ele>183</ele>
        <time>2018-03-29T00:42:32Z</time>
      </trkpt>
      <trkpt lat="49.20972" lon="3.92008">
        <ele>183</ele>
        <time>2018-03-29T00:43:32Z</time>
      </trkpt>
      <trkpt lat="49.20957" lon="3.92023">
        <ele>182</ele>
        <time>2018-03-29T00:44:32Z</time>
      </trkpt>
      <trkpt lat="49.20941" lon="3.92041">
        <ele>182</ele>
        <time>2018-03-29T00:45:32Z</time>
      </trkpt>
      <trkpt lat="49.20932" lon="3.92051">
        <ele>182</ele>
        <time>2018-03-29T00:46:32Z</time>
      </trkpt>
      <trkpt lat="49.20923" lon="3.9206">
        <ele>182</ele>
        <time>2018-03-29T00:47:32Z</time>
      </trkpt>
      <trkpt lat="49.20916" lon="3.92066">
        <ele>183</ele>
        <time>2018-03-29T00:48:32Z</time>
      </trkpt>
      <trkpt lat="49.20908" lon="3.92072">
        <ele>182</ele>
        <time>2018-03-29T00:49:32Z</time>
      </trkpt>
      <trkpt lat="49.209" lon="3.92078">
        <ele>182</ele>
        <time>2018-03-29T00:50:32Z</time>
      </trkpt>
      <trkpt lat="49.20893" lon="3.92081">
        <ele>183</ele>
        <time>2018-03-29T00:51:32Z</time>
      </trkpt>
      <trkpt lat="49.2088" lon="3.92085">
        <ele>183</ele>
        <time>2018-03-29T00:52:32Z</time>
      </trkpt>
      <trkpt lat="49.20869" lon="3.92087">
        <ele>184</ele>
        <time>2018-03-29T00:53:32Z</time>
      </trkpt>
      <trkpt lat="49.20859" lon="3.92087">
        <ele>184</ele>
        <time>2018-03-29T00:54:32Z</time>
      </trkpt>
      <trkpt lat="49.2085" lon="3.92086">
        <ele>185</ele>
        <time>2018-03-29T00:55:32Z</time>
      </trkpt>
      <trkpt lat="49.20841" lon="3.92084">
        <ele>186</ele>
        <time>2018-03-29T00:56:32Z</time>
      </trkpt>
      <trkpt lat="49.20834" lon="3.92082">
        <ele>186</ele>
        <time>2018-03-29T00:57:32Z</time>
      </trkpt>
      <trkpt lat="49.20826" lon="3.92079">
        <ele>186</ele>
        <time>2018-03-29T00:58:32Z</time>
      </trkpt>
      <trkpt lat="49.20819" lon="3.92075">
        <ele>186</ele>
        <time>2018-03-29T00:59:32Z</time>
      </trkpt>
      <trkpt lat="49.20812" lon="3.92071">
        <ele>186</ele>
        <time>2018-03-29T01:00:32Z</time>
      </trkpt>
      <trkpt lat="49.20804" lon="3.92065">
        <ele>186</ele>
        <time>2018-03-29T01:01:32Z</time>
      </trkpt>
      <trkpt lat="49.20793" lon="3.92055">
        <ele>186</ele>
        <time>2018-03-29T01:02:32Z</time>
      </trkpt>
      <trkpt lat="49.20782" lon="3.92044">
        <ele>185</ele>
        <time>2018-03-29T01:03:32Z</time>
      </trkpt>
      <trkpt lat="49.20754" lon="3.92018">
        <ele>184</ele>
        <time>2018-03-29T01:04:32Z</time>
      </trkpt>
      <trkpt lat="49.20748" lon="3.92014">
        <ele>184</ele>
        <time>2018-03-29T01:05:32Z</time>
      </trkpt>
      <trkpt lat="49.20741" lon="3.92009">
        <ele>183</ele>
        <time>2018-03-29T01:06:32Z</time>
      </trkpt>
      <trkpt lat="49.20731" lon="3.92004">
        <ele>182</ele>
        <time>2018-03-29T01:07:32Z</time>
      </trkpt>
      <trkpt lat="49.20727" lon="3.92002">
        <ele>182</ele>
        <time>2018-03-29T01:08:32Z</time>
      </trkpt>
      <trkpt lat="49.20721" lon="3.92">
        <ele>182</ele>
        <time>2018-03-29T01:09:32Z</time>
      </trkpt>
      <trkpt lat="49.20714" lon="3.92">
        <ele>181</ele>
        <time>2018-03-29T01:10:32Z</time>
      </trkpt>
      <trkpt lat="49.20705" lon="3.91999">
        <ele>181</ele>
        <time>2018-03-29T01:11:32Z</time>
      </trkpt>
      <trkpt lat="49.20693" lon="3.92">
        <ele>180</ele>
        <time>2018-03-29T01:12:32Z</time>
      </trkpt>
      <trkpt lat="49.20646" lon="3.92004">
        <ele>178</ele>
        <time>2018-03-29T01:13:32Z</time>
      </trkpt>
      <trkpt lat="49.20621" lon="3.9201">
        <ele>176</ele>
        <time>2018-03-29T01:14:32Z</time>
      </trkpt>
      <trkpt lat="49.20612" lon="3.92013">
        <ele>176</ele>
        <time>2018-03-29T01:15:32Z</time>
      </trkpt>
      <trkpt lat="49.20604" lon="3.92016">
        <ele>175</ele>
        <time>2018-03-29T01:16:32Z</time>
      </trkpt>
      <trkpt lat="49.20598" lon="3.92019">
        <ele>175</ele>
        <time>2018-03-29T01:17:32Z</time>
      </trkpt>
      <trkpt lat="49.20573" lon="3.92035">
        <ele>174</ele>
        <time>2018-03-29T01:18:32Z</time>
      </trkpt>
      <trkpt lat="49.20569" lon="3.92037">
        <ele>174</ele>
        <time>2018-03-29T01:19:32Z</time>
      </trkpt>
      <trkpt lat="49.20564" lon="3.92039">
        <ele>173</ele>
        <time>2018-03-29T01:20:32Z</time>
      </trkpt>
      <trkpt lat="49.20563" lon="3.9204">
        <ele>173</ele>
        <time>2018-03-29T01:21:32Z</time>
      </trkpt>
      <trkpt lat="49.20556" lon="3.92041">
        <ele>173</ele>
        <time>2018-03-29T01:22:32Z</time>
      </trkpt>
      <trkpt lat="49.20551" lon="3.92041">
        <ele>173</ele>
        <time>2018-03-29T01:23:32Z</time>
      </trkpt>
      <trkpt lat="49.20546" lon="3.92039">
        <ele>172</ele>
        <time>2018-03-29T01:24:32Z</time>
      </trkpt>
      <trkpt lat="49.20543" lon="3.92038">
        <ele>172</ele>
        <time>2018-03-29T01:25:32Z</time>
      </trkpt>
      <trkpt lat="49.2054" lon="3.92035">
        <ele>172</ele>
        <time>2018-03-29T01:26:32Z</time>
      </trkpt>
      <trkpt lat="49.20538" lon="3.92033">
        <ele>171</ele>
        <time>2018-03-29T01:27:32Z</time>
      </trkpt>
      <trkpt lat="49.20535" lon="3.9203">
        <ele>171</ele>
        <time>2018-03-29T01:28:32Z</time>
      </trkpt>
      <trkpt lat="49.20534" lon="3.92028">
        <ele>171</ele>
        <time>2018-03-29T01:29:32Z</time>
      </trkpt>
      <trkpt lat="49.20532" lon="3.92025">
        <ele>171</ele>
        <time>2018-03-29T01:30:32Z</time>
      </trkpt>
      <trkpt lat="49.20526" lon="3.92011">
        <ele>169</ele>
        <time>2018-03-29T01:31:32Z</time>
      </trkpt>
      <trkpt lat="49.20523" lon="3.91997">
        <ele>169</ele>
        <time>2018-03-29T01:32:32Z</time>
      </trkpt>
      <trkpt lat="49.20523" lon="3.91986">
        <ele>168</ele>
        <time>2018-03-29T01:33:32Z</time>
      </trkpt>
      <trkpt lat="49.20523" lon="3.91976">
        <ele>168</ele>
        <time>2018-03-29T01:34:32Z</time>
      </trkpt>
      <trkpt lat="49.20536" lon="3.91881">
        <ele>165</ele>
        <time>2018-03-29T01:35:32Z</time>
      </trkpt>
      <trkpt lat="49.20568" lon="3.91654">
        <ele>157</ele>
        <time>2018-03-29T01:36:32Z</time>
      </trkpt>
      <trkpt lat="49.20599" lon="3.91429">
        <ele>157</ele>
        <time>2018-03-29T01:37:32Z</time>
      </trkpt>
      <trkpt lat="49.20609" lon="3.9136">
        <ele>158</ele>
        <time>2018-03-29T01:38:32Z</time>
      </trkpt>
      <trkpt lat="49.20613" lon="3.91337">
        <ele>158</ele>
        <time>2018-03-29T01:39:32Z</time>
      </trkpt>
      <trkpt lat="49.20624" lon="3.9128">
        <ele>157</ele>
        <time>2018-03-29T01:40:32Z</time>
      </trkpt>
      <trkpt lat="49.20639" lon="3.91205">
        <ele>156</ele>
        <time>2018-03-29T01:41:32Z</time>
      </trkpt>
      <trkpt lat="49.20641" lon="3.91179">
        <ele>155</ele>
        <time>2018-03-29T01:42:32Z</time>
      </trkpt>
      <trkpt lat="49.20643" lon="3.91161">
        <ele>155</ele>
        <time>2018-03-29T01:43:32Z</time>
      </trkpt>
      <trkpt lat="49.20644" lon="3.91142">
        <ele>154</ele>
        <time>2018-03-29T01:44:32Z</time>
      </trkpt>
      <trkpt lat="49.20644" lon="3.91127">
        <ele>154</ele>
        <time>2018-03-29T01:45:32Z</time>
      </trkpt>
      <trkpt lat="49.20644" lon="3.91114">
        <ele>154</ele>
        <time>2018-03-29T01:46:32Z</time>
      </trkpt>
      <trkpt lat="49.20643" lon="3.91098">
        <ele>153</ele>
        <time>2018-03-29T01:47:32Z</time>
      </trkpt>
      <trkpt lat="49.20642" lon="3.91079">
        <ele>153</ele>
        <time>2018-03-29T01:48:32Z</time>
      </trkpt>
      <trkpt lat="49.2064" lon="3.91063">
        <ele>152</ele>
        <time>2018-03-29T01:49:32Z</time>
      </trkpt>
      <trkpt lat="49.20633" lon="3.91017">
        <ele>149</ele>
        <time>2018-03-29T01:50:32Z</time>
      </trkpt>
      <trkpt lat="49.20622" lon="3.90936">
        <ele>145</ele>
        <time>2018-03-29T01:51:32Z</time>
      </trkpt>
      <trkpt lat="49.20615" lon="3.90882">
        <ele>144</ele>
        <time>2018-03-29T01:52:32Z</time>
      </trkpt>
      <trkpt lat="49.20611" lon="3.90855">
        <ele>143</ele>
        <time>2018-03-29T01:53:32Z</time>
      </trkpt>
      <trkpt lat="49.20599" lon="3.9077">
        <ele>141</ele>
        <time>2018-03-29T01:54:32Z</time>
      </trkpt>
      <trkpt lat="49.20597" lon="3.90748">
        <ele>141</ele>
        <time>2018-03-29T01:55:32Z</time>
      </trkpt>
      <trkpt lat="49.20594" lon="3.9073">
        <ele>140</ele>
        <time>2018-03-29T01:56:32Z</time>
      </trkpt>
      <trkpt lat="49.20589" lon="3.90709">
        <ele>139</ele>
        <time>2018-03-29T01:57:32Z</time>
      </trkpt>
      <trkpt lat="49.20583" lon="3.90687">
        <ele>138</ele>
        <time>2018-03-29T01:58:32Z</time>
      </trkpt>
      <trkpt lat="49.20577" lon="3.90665">
        <ele>138</ele>
        <time>2018-03-29T01:59:32Z</time>
      </trkpt>
      <trkpt lat="49.20568" lon="3.90642">
        <ele>137</ele>
        <time>2018-03-29T02:00:32Z</time>
      </trkpt>
      <trkpt lat="49.20558" lon="3.90616">
        <ele>136</ele>
        <time>2018-03-29T02:01:32Z</time>
      </trkpt>
      <trkpt lat="49.20547" lon="3.90588">
        <ele>136</ele>
        <time>2018-03-29T02:02:32Z</time>
      </trkpt>
      <trkpt lat="49.20515" lon="3.90507">
        <ele>135</ele>
        <time>2018-03-29T02:03:32Z</time>
      </trkpt>
      <trkpt lat="49.2051" lon="3.90491">
        <ele>135</ele>
        <time>2018-03-29T02:04:32Z</time>
      </trkpt>
      <trkpt lat="49.20502" lon="3.90464">
        <ele>135</ele>
        <time>2018-03-29T02:05:32Z</time>
      </trkpt>
      <trkpt lat="49.20499" lon="3.90454">
        <ele>136</ele>
        <time>2018-03-29T02:06:32Z</time>
      </trkpt>
      <trkpt lat="49.20496" lon="3.90438">
        <ele>136</ele>
        <time>2018-03-29T02:07:32Z</time>
      </trkpt>
      <trkpt lat="49.20494" lon="3.90423">
        <ele>136</ele>
        <time>2018-03-29T02:08:32Z</time>
      </trkpt>
      <trkpt lat="49.20492" lon="3.90406">
        <ele>136</ele>
        <time>2018-03-29T02:09:32Z</time>
      </trkpt>
      <trkpt lat="49.2049" lon="3.90381">
        <ele>135</ele>
        <time>2018-03-29T02:10:32Z</time>
      </trkpt>
      <trkpt lat="49.2049" lon="3.90349">
        <ele>135</ele>
        <time>2018-03-29T02:11:32Z</time>
      </trkpt>
      <trkpt lat="49.20491" lon="3.90229">
        <ele>133</ele>
        <time>2018-03-29T02:12:32Z</time>
      </trkpt>
      <trkpt lat="49.20492" lon="3.90192">
        <ele>132</ele>
        <time>2018-03-29T02:13:32Z</time>
      </trkpt>
      <trkpt lat="49.20493" lon="3.90156">
        <ele>131</ele>
        <time>2018-03-29T02:14:32Z</time>
      </trkpt>
      <trkpt lat="49.20495" lon="3.90129">
        <ele>131</ele>
        <time>2018-03-29T02:15:32Z</time>
      </trkpt>
      <trkpt lat="49.20496" lon="3.90103">
        <ele>130</ele>
        <time>2018-03-29T02:16:32Z</time>
      </trkpt>
      <trkpt lat="49.20499" lon="3.90069">
        <ele>130</ele>
        <time>2018-03-29T02:17:32Z</time>
      </trkpt>
      <trkpt lat="49.20502" lon="3.90047">
        <ele>130</ele>
        <time>2018-03-29T02:18:32Z</time>
      </trkpt>
      <trkpt lat="49.20506" lon="3.90012">
        <ele>130</ele>
        <time>2018-03-29T02:19:32Z</time>
      </trkpt>
      <trkpt lat="49.20517" lon="3.89924">
        <ele>129</ele>
        <time>2018-03-29T02:20:32Z</time>
      </trkpt>
      <trkpt lat="49.20526" lon="3.89856">
        <ele>129</ele>
        <time>2018-03-29T02:21:32Z</time>
      </trkpt>
      <trkpt lat="49.2053" lon="3.89823">
        <ele>129</ele>
        <time>2018-03-29T02:22:32Z</time>
      </trkpt>
      <trkpt lat="49.20532" lon="3.89793">
        <ele>129</ele>
        <time>2018-03-29T02:23:32Z</time>
      </trkpt>
      <trkpt lat="49.20532" lon="3.89776">
        <ele>129</ele>
        <time>2018-03-29T02:24:32Z</time>
      </trkpt>
      <trkpt lat="49.20532" lon="3.89763">
        <ele>129</ele>
        <time>2018-03-29T02:25:32Z</time>
      </trkpt>
      <trkpt lat="49.20531" lon="3.89752">
        <ele>129</ele>
        <time>2018-03-29T02:26:32Z</time>
      </trkpt>
      <trkpt lat="49.2053" lon="3.89737">
        <ele>129</ele>
        <time>2018-03-29T02:27:32Z</time>
      </trkpt>
      <trkpt lat="49.20527" lon="3.8972">
        <ele>129</ele>
        <time>2018-03-29T02:28:32Z</time>
      </trkpt>
      <trkpt lat="49.20524" lon="3.89699">
        <ele>129</ele>
        <time>2018-03-29T02:29:32Z</time>
      </trkpt>
      <trkpt lat="49.20507" lon="3.89618">
        <ele>131</ele>
        <time>2018-03-29T02:30:32Z</time>
      </trkpt>
      <trkpt lat="49.20483" lon="3.89503">
        <ele>136</ele>
        <time>2018-03-29T02:31:32Z</time>
      </trkpt>
      <trkpt lat="49.20477" lon="3.89473">
        <ele>139</ele>
        <time>2018-03-29T02:32:32Z</time>
      </trkpt>
      <trkpt lat="49.20395" lon="3.89088">
        <ele>148</ele>
        <time>2018-03-29T02:33:32Z</time>
      </trkpt>
      <trkpt lat="49.20383" lon="3.89035">
        <ele>147</ele>
        <time>2018-03-29T02:34:32Z</time>
      </trkpt>
      <trkpt lat="49.2036" lon="3.88937">
        <ele>147</ele>
        <time>2018-03-29T02:35:32Z</time>
      </trkpt>
      <trkpt lat="49.20339" lon="3.88833">
        <ele>148</ele>
        <time>2018-03-29T02:36:32Z</time>
      </trkpt>
      <trkpt lat="49.20268" lon="3.88495">
        <ele>160</ele>
        <time>2018-03-29T02:37:32Z</time>
      </trkpt>
      <trkpt lat="49.20253" lon="3.88421">
        <ele>161</ele>
        <time>2018-03-29T02:38:32Z</time>
      </trkpt>
      <trkpt lat="49.2022" lon="3.88257">
        <ele>165</ele>
        <time>2018-03-29T02:39:32Z</time>
      </trkpt>
      <trkpt lat="49.20186" lon="3.88094">
        <ele>169</ele>
        <time>2018-03-29T02:40:32Z</time>
      </trkpt>
      <trkpt lat="49.20175" lon="3.8804">
        <ele>170</ele>
        <time>2018-03-29T02:41:32Z</time>
      </trkpt>
      <trkpt lat="49.20164" lon="3.87991">
        <ele>171</ele>
        <time>2018-03-29T02:42:32Z</time>
      </trkpt>
      <trkpt lat="49.20158" lon="3.87961">
        <ele>173</ele>
        <time>2018-03-29T02:43:32Z</time>
      </trkpt>
      <trkpt lat="49.20152" lon="3.87929">
        <ele>174</ele>
        <time>2018-03-29T02:44:32Z</time>
      </trkpt>
      <trkpt lat="49.20149" lon="3.87907">
        <ele>174</ele>
        <time>2018-03-29T02:45:32Z</time>
      </trkpt>
      <trkpt lat="49.20148" lon="3.87883">
        <ele>176</ele>
        <time>2018-03-29T02:46:32Z</time>
      </trkpt>
      <trkpt lat="49.20148" lon="3.87865">
        <ele>176</ele>
        <time>2018-03-29T02:47:32Z</time>
      </trkpt>
      <trkpt lat="49.20148" lon="3.87845">
        <ele>177</ele>
        <time>2018-03-29T02:48:32Z</time>
      </trkpt>
      <trkpt lat="49.20151" lon="3.87819">
        <ele>178</ele>
        <time>2018-03-29T02:49:32Z</time>
      </trkpt>
      <trkpt lat="49.20154" lon="3.87793">
        <ele>179</ele>
        <time>2018-03-29T02:50:32Z</time>
      </trkpt>
      <trkpt lat="49.20162" lon="3.87726">
        <ele>181</ele>
        <time>2018-03-29T02:51:32Z</time>
      </trkpt>
      <trkpt lat="49.20171" lon="3.8765">
        <ele>182</ele>
        <time>2018-03-29T02:52:32Z</time>
      </trkpt>
      <trkpt lat="49.2018" lon="3.87576">
        <ele>183</ele>
        <time>2018-03-29T02:53:32Z</time>
      </trkpt>
      <trkpt lat="49.2022" lon="3.87231">
        <ele>181</ele>
        <time>2018-03-29T02:54:32Z</time>
      </trkpt>
      <trkpt lat="49.20234" lon="3.87109">
        <ele>180</ele>
        <time>2018-03-29T02:55:32Z</time>
      </trkpt>
      <trkpt lat="49.20236" lon="3.87095">
        <ele>179</ele>
        <time>2018-03-29T02:56:32Z</time>
      </trkpt>
      <trkpt lat="49.20238" lon="3.87073">
        <ele>179</ele>
        <time>2018-03-29T02:57:32Z</time>
      </trkpt>
      <trkpt lat="49.20239" lon="3.87045">
        <ele>179</ele>
        <time>2018-03-29T02:58:32Z</time>
      </trkpt>
      <trkpt lat="49.2024" lon="3.87027">
        <ele>179</ele>
        <time>2018-03-29T02:59:32Z</time>
      </trkpt>
      <trkpt lat="49.2024" lon="3.87014">
        <ele>179</ele>
        <time>2018-03-29T03:00:32Z</time>
      </trkpt>
      <trkpt lat="49.2024" lon="3.87005">
        <ele>179</ele>
        <time>2018-03-29T03:01:32Z</time>
      </trkpt>
      <trkpt lat="49.2024" lon="3.86997">
        <ele>179</ele>
        <time>2018-03-29T03:02:32Z</time>
      </trkpt>
      <trkpt lat="49.20239" lon="3.86982">
        <ele>179</ele>
        <time>2018-03-29T03:03:32Z</time>
      </trkpt>
      <trkpt lat="49.20236" lon="3.86956">
        <ele>179</ele>
        <time>2018-03-29T03:04:32Z</time>
      </trkpt>
      <trkpt lat="49.20232" lon="3.86929">
        <ele>179</ele>
        <time>2018-03-29T03:05:32Z</time>
      </trkpt>
      <trkpt lat="49.20219" lon="3.8683">
        <ele>180</ele>
        <time>2018-03-29T03:06:32Z</time>
      </trkpt>
      <trkpt lat="49.20214" lon="3.86799">
        <ele>180</ele>
        <time>2018-03-29T03:07:32Z</time>
      </trkpt>
      <trkpt lat="49.20209" lon="3.86774">
        <ele>180</ele>
        <time>2018-03-29T03:08:32Z</time>
      </trkpt>
      <trkpt lat="49.20205" lon="3.86763">
        <ele>180</ele>
        <time>2018-03-29T03:09:32Z</time>
      </trkpt>
      <trkpt lat="49.20202" lon="3.86755">
        <ele>180</ele>
        <time>2018-03-29T03:10:32Z</time>
      </trkpt>
      <trkpt lat="49.20199" lon="3.86748">
        <ele>180</ele>
        <time>2018-03-29T03:11:32Z</time>
      </trkpt>
      <trkpt lat="49.20195" lon="3.86739">
        <ele>179</ele>
        <time>2018-03-29T03:12:32Z</time>
      </trkpt>
      <trkpt lat="49.20191" lon="3.86732">
        <ele>179</ele>
        <time>2018-03-29T03:13:32Z</time>
      </trkpt>
      <trkpt lat="49.20188" lon="3.86726">
        <ele>179</ele>
        <time>2018-03-29T03:14:32Z</time>
      </trkpt>
      <trkpt lat="49.20183" lon="3.86719">
        <ele>179</ele>
        <time>2018-03-29T03:15:32Z</time>
      </trkpt>
      <trkpt lat="49.20179" lon="3.86714">
        <ele>179</ele>
        <time>2018-03-29T03:16:32Z</time>
      </trkpt>
      <trkpt lat="49.20176" lon="3.86709">
        <ele>179</ele>
        <time>2018-03-29T03:17:32Z</time>
      </trkpt>
      <trkpt lat="49.20172" lon="3.86705">
        <ele>179</ele>
        <time>2018-03-29T03:18:32Z</time>
      </trkpt>
      <trkpt lat="49.20169" lon="3.86701">
        <ele>179</ele>
        <time>2018-03-29T03:19:32Z</time>
      </trkpt>
      <trkpt lat="49.20165" lon="3.86697">
        <ele>179</ele>
        <time>2018-03-29T03:20:32Z</time>
      </trkpt>
      <trkpt lat="49.20161" lon="3.86693">
        <ele>178</ele>
        <time>2018-03-29T03:21:32Z</time>
      </trkpt>
      <trkpt lat="49.20154" lon="3.86688">
        <ele>178</ele>
        <time>2018-03-29T03:22:32Z</time>
      </trkpt>
      <trkpt lat="49.20147" lon="3.86682">
        <ele>178</ele>
        <time>2018-03-29T03:23:32Z</time>
      </trkpt>
      <trkpt lat="49.20136" lon="3.86675">
        <ele>177</ele>
        <time>2018-03-29T03:24:32Z</time>
      </trkpt>
      <trkpt lat="49.20098" lon="3.86654">
        <ele>174</ele>
        <time>2018-03-29T03:25:32Z</time>
      </trkpt>
      <trkpt lat="49.20042" lon="3.86623">
        <ele>170</ele>
        <time>2018-03-29T03:26:32Z</time>
      </trkpt>
      <trkpt lat="49.19598" lon="3.86375">
        <ele>149</ele>
        <time>2018-03-29T03:27:32Z</time>
      </trkpt>
      <trkpt lat="49.19431" lon="3.86283">
        <ele>146</ele>
        <time>2018-03-29T03:28:32Z</time>
      </trkpt>
      <trkpt lat="49.19403" lon="3.86268">
        <ele>146</ele>
        <time>2018-03-29T03:29:32Z</time>
      </trkpt>
      <trkpt lat="49.19383" lon="3.86256">
        <ele>147</ele>
        <time>2018-03-29T03:30:32Z</time>
      </trkpt>
      <trkpt lat="49.19359" lon="3.8624">
        <ele>146</ele>
        <time>2018-03-29T03:31:32Z</time>
      </trkpt>
      <trkpt lat="49.19348" lon="3.86232">
        <ele>146</ele>
        <time>2018-03-29T03:32:32Z</time>
      </trkpt>
      <trkpt lat="49.19327" lon="3.86212">
        <ele>146</ele>
        <time>2018-03-29T03:33:32Z</time>
      </trkpt>
      <trkpt lat="49.19266" lon="3.86157">
        <ele>144</ele>
        <time>2018-03-29T03:34:32Z</time>
      </trkpt>
      <trkpt lat="49.19211" lon="3.86107">
        <ele>143</ele>
        <time>2018-03-29T03:35:32Z</time>
      </trkpt>
      <trkpt lat="49.19108" lon="3.86015">
        <ele>142</ele>
        <time>2018-03-29T03:36:32Z</time>
      </trkpt>
      <trkpt lat="49.18999" lon="3.85917">
        <ele>139</ele>
        <time>2018-03-29T03:37:32Z</time>
      </trkpt>
      <trkpt lat="49.18922" lon="3.85848">
        <ele>135</ele>
        <time>2018-03-29T03:38:32Z</time>
      </trkpt>
      <trkpt lat="49.18723" lon="3.85668">
        <ele>122</ele>
        <time>2018-03-29T03:39:32Z</time>
      </trkpt>
      <trkpt lat="49.18569" lon="3.8553">
        <ele>116</ele>
        <time>2018-03-29T03:40:32Z</time>
      </trkpt>
      <trkpt lat="49.18553" lon="3.85514">
        <ele>116</ele>
        <time>2018-03-29T03:41:32Z</time>
      </trkpt>
      <trkpt lat="49.18537" lon="3.85497">
        <ele>117</ele>
        <time>2018-03-29T03:42:32Z</time>
      </trkpt>
      <trkpt lat="49.18522" lon="3.85481">
        <ele>117</ele>
        <time>2018-03-29T03:43:32Z</time>
      </trkpt>
      <trkpt lat="49.18508" lon="3.85464">
        <ele>118</ele>
        <time>2018-03-29T03:44:32Z</time>
      </trkpt>
      <trkpt lat="49.18497" lon="3.8545">
        <ele>118</ele>
        <time>2018-03-29T03:45:32Z</time>
      </trkpt>
      <trkpt lat="49.18486" lon="3.85434">
        <ele>119</ele>
        <time>2018-03-29T03:46:32Z</time>
      </trkpt>
      <trkpt lat="49.18468" lon="3.85408">
        <ele>121</ele>
        <time>2018-03-29T03:47:32Z</time>
      </trkpt>
      <trkpt lat="49.18457" lon="3.8539">
        <ele>122</ele>
        <time>2018-03-29T03:48:32Z</time>
      </trkpt>
      <trkpt lat="49.1845" lon="3.85378">
        <ele>123</ele>
        <time>2018-03-29T03:49:32Z</time>
      </trkpt>
      <trkpt lat="49.18445" lon="3.8537">
        <ele>123</ele>
        <time>2018-03-29T03:50:32Z</time>
      </trkpt>
      <trkpt lat="49.18436" lon="3.85353">
        <ele>124</ele>
        <time>2018-03-29T03:51:32Z</time>
      </trkpt>
      <trkpt lat="49.18429" lon="3.8534">
        <ele>125</ele>
        <time>2018-03-29T03:52:32Z</time>
      </trkpt>
      <trkpt lat="49.18423" lon="3.85328">
        <ele>126</ele>
        <time>2018-03-29T03:53:32Z</time>
      </trkpt>
      <trkpt lat="49.18415" lon="3.85308">
        <ele>126</ele>
        <time>2018-03-29T03:54:32Z</time>
      </trkpt>
      <trkpt lat="49.18405" lon="3.85285">
        <ele>127</ele>
        <time>2018-03-29T03:55:32Z</time>
      </trkpt>
      <trkpt lat="49.18396" lon="3.85262">
        <ele>128</ele>
        <time>2018-03-29T03:56:32Z</time>
      </trkpt>
      <trkpt lat="49.18394" lon="3.85241">
        <ele>129</ele>
        <time>2018-03-29T03:57:32Z</time>
      </trkpt>
      <trkpt lat="49.18393" lon="3.85228">
        <ele>130</ele>
        <time>2018-03-29T03:58:32Z</time>
      </trkpt>
      <trkpt lat="49.18393" lon="3.85216">
        <ele>130</ele>
        <time>2018-03-29T03:59:32Z</time>
      </trkpt>
      <trkpt lat="49.18393" lon="3.85186">
        <ele>131</ele>
        <time>2018-03-29T04:00:32Z</time>
      </trkpt>
      <trkpt lat="49.18393" lon="3.85186">
        <ele>131</ele>
        <time>2018-03-29T04:01:32Z</time>
      </trkpt>
      <trkpt lat="49.18393" lon="3.85185">
        <ele>131</ele>
        <time>2018-03-29T04:02:32Z</time>
      </trkpt>
      <trkpt lat="49.18394" lon="3.85184">
        <ele>131</ele>
        <time>2018-03-29T04:03:32Z</time>
      </trkpt>
      <trkpt lat="49.18394" lon="3.85182">
        <ele>131</ele>
        <time>2018-03-29T04:04:32Z</time>
      </trkpt>
      <trkpt lat="49.18395" lon="3.85181">
        <ele>131</ele>
        <time>2018-03-29T04:05:32Z</time>
      </trkpt>
      <trkpt lat="49.18395" lon="3.8518">
        <ele>131</ele>
        <time>2018-03-29T04:06:32Z</time>
      </trkpt>
      <trkpt lat="49.18395" lon="3.85178">
        <ele>132</ele>
        <time>2018-03-29T04:07:32Z</time>
      </trkpt>
      <trkpt lat="49.18396" lon="3.85177">
        <ele>132</ele>
        <time>2018-03-29T04:08:32Z</time>
      </trkpt>
      <trkpt lat="49.18396" lon="3.85176">
        <ele>132</ele>
        <time>2018-03-29T04:09:32Z</time>
      </trkpt>
      <trkpt lat="49.18397" lon="3.85171">
        <ele>132</ele>
        <time>2018-03-29T04:10:32Z</time>
      </trkpt>
      <trkpt lat="49.18397" lon="3.85168">
        <ele>132</ele>
        <time>2018-03-29T04:11:32Z</time>
      </trkpt>
      <trkpt lat="49.18397" lon="3.85165">
        <ele>132</ele>
        <time>2018-03-29T04:12:32Z</time>
      </trkpt>
      <trkpt lat="49.18396" lon="3.85163">
        <ele>132</ele>
        <time>2018-03-29T04:13:32Z</time>
      </trkpt>
      <trkpt lat="49.18396" lon="3.8516">
        <ele>132</ele>
        <time>2018-03-29T04:14:32Z</time>
      </trkpt>
      <trkpt lat="49.18395" lon="3.85158">
        <ele>132</ele>
        <time>2018-03-29T04:15:32Z</time>
      </trkpt>
      <trkpt lat="49.18394" lon="3.85155">
        <ele>132</ele>
        <time>2018-03-29T04:16:32Z</time>
      </trkpt>
      <trkpt lat="49.18393" lon="3.85153">
        <ele>132</ele>
        <time>2018-03-29T04:17:32Z</time>
      </trkpt>
      <trkpt lat="49.18392" lon="3.8515">
        <ele>132</ele>
        <time>2018-03-29T04:18:32Z</time>
      </trkpt>
      <trkpt lat="49.18391" lon="3.85148">
        <ele>132</ele>
        <time>2018-03-29T04:19:32Z</time>
      </trkpt>
      <trkpt lat="49.1839" lon="3.85146">
        <ele>132</ele>
        <time>2018-03-29T04:20:32Z</time>
      </trkpt>
      <trkpt lat="49.18388" lon="3.85145">
        <ele>132</ele>
        <time>2018-03-29T04:21:32Z</time>
      </trkpt>
      <trkpt lat="49.18387" lon="3.85143">
        <ele>133</ele>
        <time>2018-03-29T04:22:32Z</time>
      </trkpt>
      <trkpt lat="49.18385" lon="3.85142">
        <ele>133</ele>
        <time>2018-03-29T04:23:32Z</time>
      </trkpt>
      <trkpt lat="49.18381" lon="3.8514">
        <ele>133</ele>
        <time>2018-03-29T04:24:32Z</time>
      </trkpt>
      <trkpt lat="49.1838" lon="3.85139">
        <ele>133</ele>
        <time>2018-03-29T04:25:32Z</time>
      </trkpt>
      <trkpt lat="49.18378" lon="3.85139">
        <ele>133</ele>
        <time>2018-03-29T04:26:32Z</time>
      </trkpt>
      <trkpt lat="49.18377" lon="3.85139">
        <ele>133</ele>
        <time>2018-03-29T04:27:32Z</time>
      </trkpt>
      <trkpt lat="49.18375" lon="3.85139">
        <ele>133</ele>
        <time>2018-03-29T04:28:32Z</time>
      </trkpt>
      <trkpt lat="49.18373" lon="3.85139">
        <ele>133</ele>
        <time>2018-03-29T04:29:32Z</time>
      </trkpt>
      <trkpt lat="49.18372" lon="3.85139">
        <ele>133</ele>
        <time>2018-03-29T04:30:32Z</time>
      </trkpt>
      <trkpt lat="49.1837" lon="3.85139">
        <ele>133</ele>
        <time>2018-03-29T04:31:32Z</time>
      </trkpt>
      <trkpt lat="49.18369" lon="3.8514">
        <ele>133</ele>
        <time>2018-03-29T04:32:32Z</time>
      </trkpt>
      <trkpt lat="49.18368" lon="3.85141">
        <ele>134</ele>
        <time>2018-03-29T04:33:32Z</time>
      </trkpt>
      <trkpt lat="49.18366" lon="3.85142">
        <ele>134</ele>
        <time>2018-03-29T04:34:32Z</time>
      </trkpt>
      <trkpt lat="49.18365" lon="3.85143">
        <ele>134</ele>
        <time>2018-03-29T04:35:32Z</time>
      </trkpt>
      <trkpt lat="49.18364" lon="3.85144">
        <ele>134</ele>
        <time>2018-03-29T04:36:32Z</time>
      </trkpt>
      <trkpt lat="49.18361" lon="3.85149">
        <ele>134</ele>
        <time>2018-03-29T04:37:32Z</time>
      </trkpt>
      <trkpt lat="49.18357" lon="3.85165">
        <ele>134</ele>
        <time>2018-03-29T04:38:32Z</time>
      </trkpt>
      <trkpt lat="49.18356" lon="3.85166">
        <ele>134</ele>
        <time>2018-03-29T04:39:32Z</time>
      </trkpt>
      <trkpt lat="49.18354" lon="3.85168">
        <ele>134</ele>
        <time>2018-03-29T04:40:32Z</time>
      </trkpt>
      <trkpt lat="49.18353" lon="3.85169">
        <ele>134</ele>
        <time>2018-03-29T04:41:32Z</time>
      </trkpt>
      <trkpt lat="49.1835" lon="3.85173">
        <ele>134</ele>
        <time>2018-03-29T04:42:32Z</time>
      </trkpt>
      <trkpt lat="49.18341" lon="3.85192">
        <ele>134</ele>
        <time>2018-03-29T04:43:32Z</time>
      </trkpt>
      <trkpt lat="49.18336" lon="3.85201">
        <ele>134</ele>
        <time>2018-03-29T04:44:32Z</time>
      </trkpt>
      <trkpt lat="49.18332" lon="3.85206">
        <ele>134</ele>
        <time>2018-03-29T04:45:32Z</time>
      </trkpt>
      <trkpt lat="49.18329" lon="3.85209">
        <ele>134</ele>
        <time>2018-03-29T04:46:32Z</time>
      </trkpt>
      <trkpt lat="49.18324" lon="3.85219">
        <ele>134</ele>
        <time>2018-03-29T04:47:32Z</time>
      </trkpt>
      <trkpt lat="49.18218" lon="3.85345">
        <ele>132</ele>
        <time>2018-03-29T04:48:32Z</time>
      </trkpt>
      <trkpt lat="49.18098" lon="3.85494">
        <ele>136</ele>
        <time>2018-03-29T04:49:32Z</time>
      </trkpt>
      <trkpt lat="49.17916" lon="3.85719">
        <ele>142</ele>
        <time>2018-03-29T04:50:32Z</time>
      </trkpt>
      <trkpt lat="49.17868" lon="3.85778">
        <ele>141</ele>
        <time>2018-03-29T04:51:32Z</time>
      </trkpt>
      <trkpt lat="49.17763" lon="3.85902">
        <ele>133</ele>
        <time>2018-03-29T04:52:32Z</time>
      </trkpt>
      <trkpt lat="49.17736" lon="3.85944">
        <ele>131</ele>
        <time>2018-03-29T04:53:32Z</time>
      </trkpt>
      <trkpt lat="49.17699" lon="3.8601">
        <ele>131</ele>
        <time>2018-03-29T04:54:32Z</time>
      </trkpt>
      <trkpt lat="49.17669" lon="3.86062">
        <ele>132</ele>
        <time>2018-03-29T04:55:32Z</time>
      </trkpt>
      <trkpt lat="49.17634" lon="3.86124">
        <ele>133</ele>
        <time>2018-03-29T04:56:32Z</time>
      </trkpt>
      <trkpt lat="49.17622" lon="3.86149">
        <ele>133</ele>
        <time>2018-03-29T04:57:32Z</time>
      </trkpt>
      <trkpt lat="49.17608" lon="3.86178">
        <ele>133</ele>
        <time>2018-03-29T04:58:32Z</time>
      </trkpt>
      <trkpt lat="49.17581" lon="3.86252">
        <ele>133</ele>
        <time>2018-03-29T04:59:32Z</time>
      </trkpt>
      <trkpt lat="49.17579" lon="3.86259">
        <ele>133</ele>
        <time>2018-03-29T05:00:32Z</time>
      </trkpt>
      <trkpt lat="49.17576" lon="3.86265">
        <ele>134</ele>
        <time>2018-03-29T05:01:32Z</time>
      </trkpt>
      <trkpt lat="49.17574" lon="3.86272">
        <ele>134</ele>
        <time>2018-03-29T05:02:32Z</time>
      </trkpt>
      <trkpt lat="49.17571" lon="3.86279">
        <ele>134</ele>
        <time>2018-03-29T05:03:32Z</time>
      </trkpt>
      <trkpt lat="49.17568" lon="3.86285">
        <ele>134</ele>
        <time>2018-03-29T05:04:32Z</time>
      </trkpt>
      <trkpt lat="49.17565" lon="3.86291">
        <ele>134</ele>
        <time>2018-03-29T05:05:32Z</time>
      </trkpt>
      <trkpt lat="49.17562" lon="3.86298">
        <ele>135</ele>
        <time>2018-03-29T05:06:32Z</time>
      </trkpt>
      <trkpt lat="49.17559" lon="3.86304">
        <ele>135</ele>
        <time>2018-03-29T05:07:32Z</time>
      </trkpt>
      <trkpt lat="49.17555" lon="3.86309">
        <ele>135</ele>
        <time>2018-03-29T05:08:32Z</time>
      </trkpt>
      <trkpt lat="49.17551" lon="3.86316">
        <ele>135</ele>
        <time>2018-03-29T05:09:32Z</time>
      </trkpt>
      <trkpt lat="49.17547" lon="3.86322">
        <ele>136</ele>
        <time>2018-03-29T05:10:32Z</time>
      </trkpt>
      <trkpt lat="49.17526" lon="3.86352">
        <ele>137</ele>
        <time>2018-03-29T05:11:32Z</time>
      </trkpt>
      <trkpt lat="49.17522" lon="3.86363">
        <ele>137</ele>
        <time>2018-03-29T05:12:32Z</time>
      </trkpt>
      <trkpt lat="49.17517" lon="3.86373">
        <ele>137</ele>
        <time>2018-03-29T05:13:32Z</time>
      </trkpt>
      <trkpt lat="49.17514" lon="3.86382">
        <ele>137</ele>
        <time>2018-03-29T05:14:32Z</time>
      </trkpt>
      <trkpt lat="49.1751" lon="3.86393">
        <ele>138</ele>
        <time>2018-03-29T05:15:32Z</time>
      </trkpt>
      <trkpt lat="49.1751" lon="3.86393">
        <ele>138</ele>
        <time>2018-03-29T05:16:32Z</time>
      </trkpt>
      <trkpt lat="49.175" lon="3.86381">
        <ele>138</ele>
        <time>2018-03-29T05:17:32Z</time>
      </trkpt>
      <trkpt lat="49.17472" lon="3.86351">
        <ele>141</ele>
        <time>2018-03-29T05:18:32Z</time>
      </trkpt>
      <trkpt lat="49.17442" lon="3.86322">
        <ele>143</ele>
        <time>2018-03-29T05:19:32Z</time>
      </trkpt>
      <trkpt lat="49.17434" lon="3.86314">
        <ele>144</ele>
        <time>2018-03-29T05:20:32Z</time>
      </trkpt>
      <trkpt lat="49.17417" lon="3.86298">
        <ele>146</ele>
        <time>2018-03-29T05:21:32Z</time>
      </trkpt>
      <trkpt lat="49.17407" lon="3.86294">
        <ele>146</ele>
        <time>2018-03-29T05:22:32Z</time>
      </trkpt>
      <trkpt lat="49.17398" lon="3.86293">
        <ele>147</ele>
        <time>2018-03-29T05:23:32Z</time>
      </trkpt>
      <trkpt lat="49.17388" lon="3.86296">
        <ele>147</ele>
        <time>2018-03-29T05:24:32Z</time>
      </trkpt>
      <trkpt lat="49.17351" lon="3.86322">
        <ele>148</ele>
        <time>2018-03-29T05:25:32Z</time>
      </trkpt>
      <trkpt lat="49.17338" lon="3.86328">
        <ele>148</ele>
        <time>2018-03-29T05:26:32Z</time>
      </trkpt>
      <trkpt lat="49.17327" lon="3.86331">
        <ele>148</ele>
        <time>2018-03-29T05:27:32Z</time>
      </trkpt>
      <trkpt lat="49.17317" lon="3.8633">
        <ele>148</ele>
        <time>2018-03-29T05:28:32Z</time>
      </trkpt>
      <trkpt lat="49.17311" lon="3.86329">
        <ele>148</ele>
        <time>2018-03-29T05:29:32Z</time>
      </trkpt>
      <trkpt lat="49.17308" lon="3.86326">
        <ele>148</ele>
        <time>2018-03-29T05:30:32Z</time>
      </trkpt>
      <trkpt lat="49.17304" lon="3.86323">
        <ele>148</ele>
        <time>2018-03-29T05:31:32Z</time>
      </trkpt>
      <trkpt lat="49.17261" lon="3.86269">
        <ele>152</ele>
        <time>2018-03-29T05:32:32Z</time>
      </trkpt>
      <trkpt lat="49.17227" lon="3.86222">
        <ele>153</ele>
        <time>2018-03-29T05:33:32Z</time>
      </trkpt>
      <trkpt lat="49.17226" lon="3.86221">
        <ele>153</ele>
        <time>2018-03-29T05:34:32Z</time>
      </trkpt>
      <trkpt lat="49.17215" lon="3.86205">
        <ele>154</ele>
        <time>2018-03-29T05:35:32Z</time>
      </trkpt>
      <trkpt lat="49.17194" lon="3.86166">
        <ele>155</ele>
        <time>2018-03-29T05:36:32Z</time>
      </trkpt>
      <trkpt lat="49.17174" lon="3.86125">
        <ele>156</ele>
        <time>2018-03-29T05:37:32Z</time>
      </trkpt>
      <trkpt lat="49.17172" lon="3.8612">
        <ele>157</ele>
        <time>2018-03-29T05:38:32Z</time>
      </trkpt>
      <trkpt lat="49.17117" lon="3.85994">
        <ele>160</ele>
        <time>2018-03-29T05:39:32Z</time>
      </trkpt>
      <trkpt lat="49.17076" lon="3.85902">
        <ele>165</ele>
        <time>2018-03-29T05:40:32Z</time>
      </trkpt>
      <trkpt lat="49.17055" lon="3.85859">
        <ele>169</ele>
        <time>2018-03-29T05:41:32Z</time>
      </trkpt>
      <trkpt lat="49.17035" lon="3.85824">
        <ele>172</ele>
        <time>2018-03-29T05:42:32Z</time>
      </trkpt>
      <trkpt lat="49.17019" lon="3.858">
        <ele>174</ele>
        <time>2018-03-29T05:43:32Z</time>
      </trkpt>
      <trkpt lat="49.17003" lon="3.85781">
        <ele>175</ele>
        <time>2018-03-29T05:44:32Z</time>
      </trkpt>
      <trkpt lat="49.16912" lon="3.857">
        <ele>180</ele>
        <time>2018-03-29T05:45:32Z</time>
      </trkpt>
      <trkpt lat="49.16849" lon="3.85647">
        <ele>183</ele>
        <time>2018-03-29T05:46:32Z</time>
      </trkpt>
      <trkpt lat="49.16834" lon="3.85638">
        <ele>183</ele>
        <time>2018-03-29T05:47:32Z</time>
      </trkpt>
      <trkpt lat="49.16814" lon="3.85627">
        <ele>185</ele>
        <time>2018-03-29T05:48:32Z</time>
      </trkpt>
      <trkpt lat="49.16795" lon="3.85621">
        <ele>187</ele>
        <time>2018-03-29T05:49:32Z</time>
      </trkpt>
      <trkpt lat="49.16773" lon="3.85618">
        <ele>188</ele>
        <time>2018-03-29T05:50:32Z</time>
      </trkpt>
      <trkpt lat="49.16618" lon="3.85619">
        <ele>199</ele>
        <time>2018-03-29T05:51:32Z</time>
      </trkpt>
      <trkpt lat="49.16601" lon="3.85621">
        <ele>200</ele>
        <time>2018-03-29T05:52:32Z</time>
      </trkpt>
      <trkpt lat="49.16568" lon="3.85632">
        <ele>201</ele>
        <time>2018-03-29T05:53:32Z</time>
      </trkpt>
      <trkpt lat="49.16548" lon="3.85639">
        <ele>203</ele>
        <time>2018-03-29T05:54:32Z</time>
      </trkpt>
      <trkpt lat="49.16517" lon="3.85658">
        <ele>206</ele>
        <time>2018-03-29T05:55:32Z</time>
      </trkpt>
      <trkpt lat="49.16449" lon="3.85721">
        <ele>210</ele>
        <time>2018-03-29T05:56:32Z</time>
      </trkpt>
      <trkpt lat="49.16438" lon="3.85729">
        <ele>211</ele>
        <time>2018-03-29T05:57:32Z</time>
      </trkpt>
      <trkpt lat="49.16415" lon="3.85741">
        <ele>213</ele>
        <time>2018-03-29T05:58:32Z</time>
      </trkpt>
      <trkpt lat="49.16401" lon="3.85746">
        <ele>213</ele>
        <time>2018-03-29T05:59:32Z</time>
      </trkpt>
      <trkpt lat="49.16382" lon="3.85751">
        <ele>214</ele>
        <time>2018-03-29T06:00:32Z</time>
      </trkpt>
      <trkpt lat="49.16353" lon="3.85758">
        <ele>215</ele>
        <time>2018-03-29T06:01:32Z</time>
      </trkpt>
      <trkpt lat="49.16329" lon="3.85763">
        <ele>217</ele>
        <time>2018-03-29T06:02:32Z</time>
      </trkpt>
      <trkpt lat="49.16311" lon="3.85766">
        <ele>218</ele>
        <time>2018-03-29T06:03:32Z</time>
      </trkpt>
      <trkpt lat="49.16299" lon="3.85767">
        <ele>219</ele>
        <time>2018-03-29T06:04:32Z</time>
      </trkpt>
      <trkpt lat="49.16287" lon="3.85766">
        <ele>220</ele>
        <time>2018-03-29T06:05:32Z</time>
      </trkpt>
      <trkpt lat="49.16279" lon="3.85765">
        <ele>220</ele>
        <time>2018-03-29T06:06:32Z</time>
      </trkpt>
      <trkpt lat="49.16267" lon="3.85762">
        <ele>221</ele>
        <time>2018-03-29T06:07:32Z</time>
      </trkpt>
      <trkpt lat="49.16255" lon="3.85757">
        <ele>222</ele>
        <time>2018-03-29T06:08:32Z</time>
      </trkpt>
      <trkpt lat="49.16247" lon="3.85751">
        <ele>223</ele>
        <time>2018-03-29T06:09:32Z</time>
      </trkpt>
      <trkpt lat="49.1624" lon="3.85746">
        <ele>224</ele>
        <time>2018-03-29T06:10:32Z</time>
      </trkpt>
      <trkpt lat="49.16232" lon="3.85738">
        <ele>224</ele>
        <time>2018-03-29T06:11:32Z</time>
      </trkpt>
      <trkpt lat="49.16225" lon="3.85731">
        <ele>225</ele>
        <time>2018-03-29T06:12:32Z</time>
      </trkpt>
      <trkpt lat="49.16218" lon="3.85723">
        <ele>225</ele>
        <time>2018-03-29T06:13:32Z</time>
      </trkpt>
      <trkpt lat="49.16212" lon="3.85712">
        <ele>226</ele>
        <time>2018-03-29T06:14:32Z</time>
      </trkpt>
      <trkpt lat="49.16204" lon="3.857">
        <ele>227</ele>
        <time>2018-03-29T06:15:32Z</time>
      </trkpt>
      <trkpt lat="49.16194" lon="3.85681">
        <ele>229</ele>
        <time>2018-03-29T06:16:32Z</time>
      </trkpt>
      <trkpt lat="49.16182" lon="3.85658">
        <ele>230</ele>
        <time>2018-03-29T06:17:32Z</time>
      </trkpt>
      <trkpt lat="49.16125" lon="3.85544">
        <ele>232</ele>
        <time>2018-03-29T06:18:32Z</time>
      </trkpt>
      <trkpt lat="49.16105" lon="3.85503">
        <ele>231</ele>
        <time>2018-03-29T06:19:32Z</time>
      </trkpt>
      <trkpt lat="49.15967" lon="3.85227">
        <ele>230</ele>
        <time>2018-03-29T06:20:32Z</time>
      </trkpt>
      <trkpt lat="49.15931" lon="3.85156">
        <ele>230</ele>
        <time>2018-03-29T06:21:32Z</time>
      </trkpt>
      <trkpt lat="49.15914" lon="3.85123">
        <ele>230</ele>
        <time>2018-03-29T06:22:32Z</time>
      </trkpt>
      <trkpt lat="49.15802" lon="3.84907">
        <ele>225</ele>
        <time>2018-03-29T06:23:32Z</time>
      </trkpt>
      <trkpt lat="49.15757" lon="3.8482">
        <ele>225</ele>
        <time>2018-03-29T06:24:32Z</time>
      </trkpt>
      <trkpt lat="49.15744" lon="3.84796">
        <ele>225</ele>
        <time>2018-03-29T06:25:32Z</time>
      </trkpt>
      <trkpt lat="49.1573" lon="3.84775">
        <ele>226</ele>
        <time>2018-03-29T06:26:32Z</time>
      </trkpt>
      <trkpt lat="49.15724" lon="3.84769">
        <ele>226</ele>
        <time>2018-03-29T06:27:32Z</time>
      </trkpt>
      <trkpt lat="49.15716" lon="3.84762">
        <ele>227</ele>
        <time>2018-03-29T06:28:32Z</time>
      </trkpt>
      <trkpt lat="49.15709" lon="3.84757">
        <ele>228</ele>
        <time>2018-03-29T06:29:32Z</time>
      </trkpt>
      <trkpt lat="49.15702" lon="3.84752">
        <ele>228</ele>
        <time>2018-03-29T06:30:32Z</time>
      </trkpt>
      <trkpt lat="49.15696" lon="3.84748">
        <ele>229</ele>
        <time>2018-03-29T06:31:32Z</time>
      </trkpt>
      <trkpt lat="49.1569" lon="3.84746">
        <ele>229</ele>
        <time>2018-03-29T06:32:32Z</time>
      </trkpt>
      <trkpt lat="49.15393" lon="3.8466">
        <ele>231</ele>
        <time>2018-03-29T06:33:32Z</time>
      </trkpt>
      <trkpt lat="49.15276" lon="3.84627">
        <ele>235</ele>
        <time>2018-03-29T06:34:32Z</time>
      </trkpt>
      <trkpt lat="49.15136" lon="3.84588">
        <ele>241</ele>
        <time>2018-03-29T06:35:32Z</time>
      </trkpt>
      <trkpt lat="49.14996" lon="3.84549">
        <ele>250</ele>
        <time>2018-03-29T06:36:32Z</time>
      </trkpt>
      <trkpt lat="49.14856" lon="3.8451">
        <ele>250</ele>
        <time>2018-03-29T06:37:32Z</time>
      </trkpt>
      <trkpt lat="49.14838" lon="3.84505">
        <ele>249</ele>
        <time>2018-03-29T06:38:32Z</time>
      </trkpt>
      <trkpt lat="49.14793" lon="3.84492">
        <ele>248</ele>
        <time>2018-03-29T06:39:32Z</time>
      </trkpt>
      <trkpt lat="49.14728" lon="3.84472">
        <ele>248</ele>
        <time>2018-03-29T06:40:32Z</time>
      </trkpt>
      <trkpt lat="49.14704" lon="3.84459">
        <ele>248</ele>
        <time>2018-03-29T06:41:32Z</time>
      </trkpt>
      <trkpt lat="49.14695" lon="3.84452">
        <ele>248</ele>
        <time>2018-03-29T06:42:32Z</time>
      </trkpt>
      <trkpt lat="49.14679" lon="3.84435">
        <ele>248</ele>
        <time>2018-03-29T06:43:32Z</time>
      </trkpt>
      <trkpt lat="49.14671" lon="3.84422">
        <ele>247</ele>
        <time>2018-03-29T06:44:32Z</time>
      </trkpt>
      <trkpt lat="49.14657" lon="3.84396">
        <ele>246</ele>
        <time>2018-03-29T06:45:32Z</time>
      </trkpt>
      <trkpt lat="49.14627" lon="3.84332">
        <ele>243</ele>
        <time>2018-03-29T06:46:32Z</time>
      </trkpt>
      <trkpt lat="49.14593" lon="3.84261">
        <ele>242</ele>
        <time>2018-03-29T06:47:32Z</time>
      </trkpt>
      <trkpt lat="49.14554" lon="3.84174">
        <ele>244</ele>
        <time>2018-03-29T06:48:32Z</time>
      </trkpt>
      <trkpt lat="49.14551" lon="3.84167">
        <ele>244</ele>
        <time>2018-03-29T06:49:32Z</time>
      </trkpt>
      <trkpt lat="49.14548" lon="3.84162">
        <ele>244</ele>
        <time>2018-03-29T06:50:32Z</time>
      </trkpt>
      <trkpt lat="49.14543" lon="3.84157">
        <ele>244</ele>
        <time>2018-03-29T06:51:32Z</time>
      </trkpt>
      <trkpt lat="49.14538" lon="3.84152">
        <ele>244</ele>
        <time>2018-03-29T06:52:32Z</time>
      </trkpt>
      <trkpt lat="49.14536" lon="3.8415">
        <ele>244</ele>
        <time>2018-03-29T06:53:32Z</time>
      </trkpt>
      <trkpt lat="49.14531" lon="3.84146">
        <ele>245</ele>
        <time>2018-03-29T06:54:32Z</time>
      </trkpt>
      <trkpt lat="49.14525" lon="3.84142">
        <ele>245</ele>
        <time>2018-03-29T06:55:32Z</time>
      </trkpt>
      <trkpt lat="49.14521" lon="3.8414">
        <ele>245</ele>
        <time>2018-03-29T06:56:32Z</time>
      </trkpt>
      <trkpt lat="49.14516" lon="3.84138">
        <ele>245</ele>
        <time>2018-03-29T06:57:32Z</time>
      </trkpt>
      <trkpt lat="49.14486" lon="3.84137">
        <ele>245</ele>
        <time>2018-03-29T06:58:32Z</time>
      </trkpt>
      <trkpt lat="49.14426" lon="3.84144">
        <ele>247</ele>
        <time>2018-03-29T06:59:32Z</time>
      </trkpt>
      <trkpt lat="49.14302" lon="3.84147">
        <ele>245</ele>
        <time>2018-03-29T07:00:32Z</time>
      </trkpt>
      <trkpt lat="49.14277" lon="3.84145">
        <ele>245</ele>
        <time>2018-03-29T07:01:32Z</time>
      </trkpt>
      <trkpt lat="49.14257" lon="3.84143">
        <ele>244</ele>
        <time>2018-03-29T07:02:32Z</time>
      </trkpt>
      <trkpt lat="49.14247" lon="3.84142">
        <ele>244</ele>
        <time>2018-03-29T07:03:32Z</time>
      </trkpt>
      <trkpt lat="49.14171" lon="3.84135">
        <ele>241</ele>
        <time>2018-03-29T07:04:32Z</time>
      </trkpt>
      <trkpt lat="49.14075" lon="3.84121">
        <ele>238</ele>
        <time>2018-03-29T07:05:32Z</time>
      </trkpt>
      <trkpt lat="49.13994" lon="3.84108">
        <ele>235</ele>
        <time>2018-03-29T07:06:32Z</time>
      </trkpt>
      <trkpt lat="49.13984" lon="3.84106">
        <ele>234</ele>
        <time>2018-03-29T07:07:32Z</time>
      </trkpt>
      <trkpt lat="49.13965" lon="3.84102">
        <ele>233</ele>
        <time>2018-03-29T07:08:32Z</time>
      </trkpt>
      <trkpt lat="49.13951" lon="3.84095">
        <ele>232</ele>
        <time>2018-03-29T07:09:32Z</time>
      </trkpt>
      <trkpt lat="49.1394" lon="3.84086">
        <ele>231</ele>
        <time>2018-03-29T07:10:32Z</time>
      </trkpt>
      <trkpt lat="49.13933" lon="3.84076">
        <ele>230</ele>
        <time>2018-03-29T07:11:32Z</time>
      </trkpt>
      <trkpt lat="49.13927" lon="3.84067">
        <ele>229</ele>
        <time>2018-03-29T07:12:32Z</time>
      </trkpt>
      <trkpt lat="49.13924" lon="3.84063">
        <ele>229</ele>
        <time>2018-03-29T07:13:32Z</time>
      </trkpt>
      <trkpt lat="49.1392" lon="3.84055">
        <ele>229</ele>
        <time>2018-03-29T07:14:32Z</time>
      </trkpt>
      <trkpt lat="49.13916" lon="3.84047">
        <ele>228</ele>
        <time>2018-03-29T07:15:32Z</time>
      </trkpt>
      <trkpt lat="49.13913" lon="3.84035">
        <ele>227</ele>
        <time>2018-03-29T07:16:32Z</time>
      </trkpt>
      <trkpt lat="49.13906" lon="3.84014">
        <ele>226</ele>
        <time>2018-03-29T07:17:32Z</time>
      </trkpt>
      <trkpt lat="49.13904" lon="3.83995">
        <ele>225</ele>
        <time>2018-03-29T07:18:32Z</time>
      </trkpt>
      <trkpt lat="49.13901" lon="3.83967">
        <ele>224</ele>
        <time>2018-03-29T07:19:32Z</time>
      </trkpt>
      <trkpt lat="49.139" lon="3.83966">
        <ele>224</ele>
        <time>2018-03-29T07:20:32Z</time>
      </trkpt>
      <trkpt lat="49.13899" lon="3.83954">
        <ele>223</ele>
        <time>2018-03-29T07:21:32Z</time>
      </trkpt>
      <trkpt lat="49.13897" lon="3.83935">
        <ele>222</ele>
        <time>2018-03-29T07:22:32Z</time>
      </trkpt>
      <trkpt lat="49.13895" lon="3.83912">
        <ele>221</ele>
        <time>2018-03-29T07:23:32Z</time>
      </trkpt>
      <trkpt lat="49.13894" lon="3.83895">
        <ele>220</ele>
        <time>2018-03-29T07:24:32Z</time>
      </trkpt>
      <trkpt lat="49.13894" lon="3.83877">
        <ele>220</ele>
        <time>2018-03-29T07:25:32Z</time>
      </trkpt>
      <trkpt lat="49.13895" lon="3.83876">
        <ele>220</ele>
        <time>2018-03-29T07:26:32Z</time>
      </trkpt>
      <trkpt lat="49.13896" lon="3.83858">
        <ele>219</ele>
        <time>2018-03-29T07:27:32Z</time>
      </trkpt>
      <trkpt lat="49.13898" lon="3.83842">
        <ele>219</ele>
        <time>2018-03-29T07:28:32Z</time>
      </trkpt>
      <trkpt lat="49.13902" lon="3.83823">
        <ele>218</ele>
        <time>2018-03-29T07:29:32Z</time>
      </trkpt>
      <trkpt lat="49.13909" lon="3.83786">
        <ele>217</ele>
        <time>2018-03-29T07:30:32Z</time>
      </trkpt>
      <trkpt lat="49.1391" lon="3.83778">
        <ele>217</ele>
        <time>2018-03-29T07:31:32Z</time>
      </trkpt>
      <trkpt lat="49.13912" lon="3.8377">
        <ele>217</ele>
        <time>2018-03-29T07:32:32Z</time>
      </trkpt>
      <trkpt lat="49.13917" lon="3.83744">
        <ele>215</ele>
        <time>2018-03-29T07:33:32Z</time>
      </trkpt>
      <trkpt lat="49.13922" lon="3.83718">
        <ele>214</ele>
        <time>2018-03-29T07:34:32Z</time>
      </trkpt>
      <trkpt lat="49.13923" lon="3.83714">
        <ele>213</ele>
        <time>2018-03-29T07:35:32Z</time>
      </trkpt>
      <trkpt lat="49.13932" lon="3.83682">
        <ele>212</ele>
        <time>2018-03-29T07:36:32Z</time>
      </trkpt>
      <trkpt lat="49.13934" lon="3.83675">
        <ele>211</ele>
        <time>2018-03-29T07:37:32Z</time>
      </trkpt>
      <trkpt lat="49.1394" lon="3.83656">
        <ele>210</ele>
        <time>2018-03-29T07:38:32Z</time>
      </trkpt>
      <trkpt lat="49.1395" lon="3.83626">
        <ele>209</ele>
        <time>2018-03-29T07:39:32Z</time>
      </trkpt>
      <trkpt lat="49.13965" lon="3.83584">
        <ele>206</ele>
        <time>2018-03-29T07:40:32Z</time>
      </trkpt>
      <trkpt lat="49.13994" lon="3.83506">
        <ele>203</ele>
        <time>2018-03-29T07:41:32Z</time>
      </trkpt>
      <trkpt lat="49.14032" lon="3.83403">
        <ele>199</ele>
        <time>2018-03-29T07:42:32Z</time>
      </trkpt>
      <trkpt lat="49.14097" lon="3.83233">
        <ele>191</ele>
        <time>2018-03-29T07:43:32Z</time>
      </trkpt>
      <trkpt lat="49.14114" lon="3.83188">
        <ele>190</ele>
        <time>2018-03-29T07:44:32Z</time>
      </trkpt>
      <trkpt lat="49.14115" lon="3.83184">
        <ele>190</ele>
        <time>2018-03-29T07:45:32Z</time>
      </trkpt>
      <trkpt lat="49.14116" lon="3.8318">
        <ele>189</ele>
        <time>2018-03-29T07:46:32Z</time>
      </trkpt>
      <trkpt lat="49.14118" lon="3.8317">
        <ele>189</ele>
        <time>2018-03-29T07:47:32Z</time>
      </trkpt>
      <trkpt lat="49.14119" lon="3.83165">
        <ele>189</ele>
        <time>2018-03-29T07:48:32Z</time>
      </trkpt>
      <trkpt lat="49.14123" lon="3.83143">
        <ele>188</ele>
        <time>2018-03-29T07:49:32Z</time>
      </trkpt>
      <trkpt lat="49.14127" lon="3.83117">
        <ele>187</ele>
        <time>2018-03-29T07:50:32Z</time>
      </trkpt>
      <trkpt lat="49.14133" lon="3.83066">
        <ele>185</ele>
        <time>2018-03-29T07:51:32Z</time>
      </trkpt>
      <trkpt lat="49.14135" lon="3.83047">
        <ele>185</ele>
        <time>2018-03-29T07:52:32Z</time>
      </trkpt>
      <trkpt lat="49.14136" lon="3.83028">
        <ele>184</ele>
        <time>2018-03-29T07:53:32Z</time>
      </trkpt>
      <trkpt lat="49.14137" lon="3.83014">
        <ele>184</ele>
        <time>2018-03-29T07:54:32Z</time>
      </trkpt>
      <trkpt lat="49.14136" lon="3.82983">
        <ele>183</ele>
        <time>2018-03-29T07:55:32Z</time>
      </trkpt>
      <trkpt lat="49.14134" lon="3.82969">
        <ele>183</ele>
        <time>2018-03-29T07:56:32Z</time>
      </trkpt>
      <trkpt lat="49.14127" lon="3.82946">
        <ele>182</ele>
        <time>2018-03-29T07:57:32Z</time>
      </trkpt>
      <trkpt lat="49.14111" lon="3.82904">
        <ele>180</ele>
        <time>2018-03-29T07:58:32Z</time>
      </trkpt>
      <trkpt lat="49.14088" lon="3.82852">
        <ele>177</ele>
        <time>2018-03-29T07:59:32Z</time>
      </trkpt>
      <trkpt lat="49.14079" lon="3.82836">
        <ele>176</ele>
        <time>2018-03-29T08:00:32Z</time>
      </trkpt>
      <trkpt lat="49.14059" lon="3.8281">
        <ele>174</ele>
        <time>2018-03-29T08:01:32Z</time>
      </trkpt>
      <trkpt lat="49.14048" lon="3.828">
        <ele>173</ele>
        <time>2018-03-29T08:02:32Z</time>
      </trkpt>
      <trkpt lat="49.14019" lon="3.8278">
        <ele>170</ele>
        <time>2018-03-29T08:03:32Z</time>
      </trkpt>
      <trkpt lat="49.13994" lon="3.82766">
        <ele>168</ele>
        <time>2018-03-29T08:04:32Z</time>
      </trkpt>
      <trkpt lat="49.13957" lon="3.82752">
        <ele>165</ele>
        <time>2018-03-29T08:05:32Z</time>
      </trkpt>
      <trkpt lat="49.13894" lon="3.82726">
        <ele>161</ele>
        <time>2018-03-29T08:06:32Z</time>
      </trkpt>
      <trkpt lat="49.13879" lon="3.8272">
        <ele>160</ele>
        <time>2018-03-29T08:07:32Z</time>
      </trkpt>
      <trkpt lat="49.1387" lon="3.82716">
        <ele>159</ele>
        <time>2018-03-29T08:08:32Z</time>
      </trkpt>
      <trkpt lat="49.13861" lon="3.82712">
        <ele>158</ele>
        <time>2018-03-29T08:09:32Z</time>
      </trkpt>
      <trkpt lat="49.13846" lon="3.82704">
        <ele>156</ele>
        <time>2018-03-29T08:10:32Z</time>
      </trkpt>
      <trkpt lat="49.13836" lon="3.82697">
        <ele>156</ele>
        <time>2018-03-29T08:11:32Z</time>
      </trkpt>
      <trkpt lat="49.13826" lon="3.8269">
        <ele>155</ele>
        <time>2018-03-29T08:12:32Z</time>
      </trkpt>
      <trkpt lat="49.13821" lon="3.82685">
        <ele>155</ele>
        <time>2018-03-29T08:13:32Z</time>
      </trkpt>
      <trkpt lat="49.13818" lon="3.82682">
        <ele>154</ele>
        <time>2018-03-29T08:14:32Z</time>
      </trkpt>
      <trkpt lat="49.13808" lon="3.82674">
        <ele>154</ele>
        <time>2018-03-29T08:15:32Z</time>
      </trkpt>
      <trkpt lat="49.138" lon="3.82665">
        <ele>153</ele>
        <time>2018-03-29T08:16:32Z</time>
      </trkpt>
      <trkpt lat="49.13791" lon="3.82654">
        <ele>152</ele>
        <time>2018-03-29T08:17:32Z</time>
      </trkpt>
      <trkpt lat="49.13783" lon="3.82644">
        <ele>152</ele>
        <time>2018-03-29T08:18:32Z</time>
      </trkpt>
      <trkpt lat="49.13777" lon="3.82634">
        <ele>151</ele>
        <time>2018-03-29T08:19:32Z</time>
      </trkpt>
      <trkpt lat="49.13765" lon="3.82615">
        <ele>150</ele>
        <time>2018-03-29T08:20:32Z</time>
      </trkpt>
      <trkpt lat="49.13757" lon="3.82598">
        <ele>149</ele>
        <time>2018-03-29T08:21:32Z</time>
      </trkpt>
      <trkpt lat="49.13746" lon="3.82577">
        <ele>147</ele>
        <time>2018-03-29T08:22:32Z</time>
      </trkpt>
      <trkpt lat="49.13733" lon="3.8255">
        <ele>146</ele>
        <time>2018-03-29T08:23:32Z</time>
      </trkpt>
      <trkpt lat="49.13726" lon="3.82533">
        <ele>145</ele>
        <time>2018-03-29T08:24:32Z</time>
      </trkpt>
      <trkpt lat="49.13719" lon="3.82522">
        <ele>145</ele>
        <time>2018-03-29T08:25:32Z</time>
      </trkpt>
      <trkpt lat="49.13714" lon="3.82513">
        <ele>144</ele>
        <time>2018-03-29T08:26:32Z</time>
      </trkpt>
      <trkpt lat="49.13707" lon="3.82506">
        <ele>144</ele>
        <time>2018-03-29T08:27:32Z</time>
      </trkpt>
      <trkpt lat="49.13699" lon="3.82499">
        <ele>143</ele>
        <time>2018-03-29T08:28:32Z</time>
      </trkpt>
      <trkpt lat="49.13689" lon="3.82491">
        <ele>142</ele>
        <time>2018-03-29T08:29:32Z</time>
      </trkpt>
      <trkpt lat="49.13679" lon="3.82486">
        <ele>142</ele>
        <time>2018-03-29T08:30:32Z</time>
      </trkpt>
      <trkpt lat="49.13662" lon="3.82479">
        <ele>140</ele>
        <time>2018-03-29T08:31:32Z</time>
      </trkpt>
      <trkpt lat="49.13654" lon="3.82476">
        <ele>140</ele>
        <time>2018-03-29T08:32:32Z</time>
      </trkpt>
      <trkpt lat="49.13644" lon="3.82472">
        <ele>139</ele>
        <time>2018-03-29T08:33:32Z</time>
      </trkpt>
      <trkpt lat="49.13634" lon="3.8247">
        <ele>138</ele>
        <time>2018-03-29T08:34:32Z</time>
      </trkpt>
      <trkpt lat="49.13625" lon="3.82468">
        <ele>137</ele>
        <time>2018-03-29T08:35:32Z</time>
      </trkpt>
      <trkpt lat="49.13617" lon="3.82467">
        <ele>137</ele>
        <time>2018-03-29T08:36:32Z</time>
      </trkpt>
      <trkpt lat="49.13608" lon="3.82466">
        <ele>136</ele>
        <time>2018-03-29T08:37:32Z</time>
      </trkpt>
      <trkpt lat="49.13598" lon="3.82466">
        <ele>135</ele>
        <time>2018-03-29T08:38:32Z</time>
      </trkpt>
      <trkpt lat="49.13586" lon="3.82465">
        <ele>134</ele>
        <time>2018-03-29T08:39:32Z</time>
      </trkpt>
      <trkpt lat="49.13508" lon="3.82464">
        <ele>128</ele>
        <time>2018-03-29T08:40:32Z</time>
      </trkpt>
      <trkpt lat="49.13486" lon="3.82464">
        <ele>127</ele>
        <time>2018-03-29T08:41:32Z</time>
      </trkpt>
      <trkpt lat="49.13411" lon="3.82464">
        <ele>123</ele>
        <time>2018-03-29T08:42:32Z</time>
      </trkpt>
      <trkpt lat="49.13381" lon="3.82465">
        <ele>122</ele>
        <time>2018-03-29T08:43:32Z</time>
      </trkpt>
      <trkpt lat="49.13361" lon="3.82465">
        <ele>120</ele>
        <time>2018-03-29T08:44:32Z</time>
      </trkpt>
      <trkpt lat="49.13351" lon="3.82465">
        <ele>120</ele>
        <time>2018-03-29T08:45:32Z</time>
      </trkpt>
      <trkpt lat="49.13329" lon="3.82466">
        <ele>119</ele>
        <time>2018-03-29T08:46:32Z</time>
      </trkpt>
      <trkpt lat="49.1331" lon="3.82467">
        <ele>120</ele>
        <time>2018-03-29T08:47:32Z</time>
      </trkpt>
      <trkpt lat="49.13291" lon="3.82466">
        <ele>120</ele>
        <time>2018-03-29T08:48:32Z</time>
      </trkpt>
      <trkpt lat="49.13288" lon="3.82465">
        <ele>120</ele>
        <time>2018-03-29T08:49:32Z</time>
      </trkpt>
      <trkpt lat="49.13267" lon="3.82463">
        <ele>121</ele>
        <time>2018-03-29T08:50:32Z</time>
      </trkpt>
      <trkpt lat="49.13259" lon="3.82462">
        <ele>121</ele>
        <time>2018-03-29T08:51:32Z</time>
      </trkpt>
      <trkpt lat="49.13239" lon="3.82458">
        <ele>122</ele>
        <time>2018-03-29T08:52:32Z</time>
      </trkpt>
      <trkpt lat="49.13218" lon="3.82453">
        <ele>124</ele>
        <time>2018-03-29T08:53:32Z</time>
      </trkpt>
      <trkpt lat="49.13204" lon="3.8245">
        <ele>125</ele>
        <time>2018-03-29T08:54:32Z</time>
      </trkpt>
      <trkpt lat="49.13189" lon="3.82449">
        <ele>127</ele>
        <time>2018-03-29T08:55:32Z</time>
      </trkpt>
      <trkpt lat="49.13161" lon="3.8245">
        <ele>130</ele>
        <time>2018-03-29T08:56:32Z</time>
      </trkpt>
      <trkpt lat="49.13142" lon="3.82452">
        <ele>131</ele>
        <time>2018-03-29T08:57:32Z</time>
      </trkpt>
      <trkpt lat="49.13137" lon="3.82451">
        <ele>132</ele>
        <time>2018-03-29T08:58:32Z</time>
      </trkpt>
      <trkpt lat="49.13133" lon="3.82448">
        <ele>132</ele>
        <time>2018-03-29T08:59:32Z</time>
      </trkpt>
      <trkpt lat="49.13128" lon="3.8244">
        <ele>132</ele>
        <time>2018-03-29T09:00:32Z</time>
      </trkpt>
      <trkpt lat="49.13104" lon="3.82402">
        <ele>133</ele>
        <time>2018-03-29T09:01:32Z</time>
      </trkpt>
      <trkpt lat="49.13098" lon="3.82396">
        <ele>133</ele>
        <time>2018-03-29T09:02:32Z</time>
      </trkpt>
      <trkpt lat="49.13091" lon="3.82391">
        <ele>133</ele>
        <time>2018-03-29T09:03:32Z</time>
      </trkpt>
      <trkpt lat="49.13093" lon="3.82382">
        <ele>133</ele>
        <time>2018-03-29T09:04:32Z</time>
      </trkpt>
      <trkpt lat="49.13093" lon="3.82376">
        <ele>133</ele>
        <time>2018-03-29T09:05:32Z</time>
      </trkpt>
      <trkpt lat="49.13093" lon="3.82363">
        <ele>132</ele>
        <time>2018-03-29T09:06:32Z</time>
      </trkpt>
      <trkpt lat="49.13093" lon="3.8235">
        <ele>132</ele>
        <time>2018-03-29T09:07:32Z</time>
      </trkpt>
      <trkpt lat="49.13091" lon="3.82325">
        <ele>131</ele>
        <time>2018-03-29T09:08:32Z</time>
      </trkpt>
      <trkpt lat="49.13091" lon="3.82307">
        <ele>129</ele>
        <time>2018-03-29T09:09:32Z</time>
      </trkpt>
      <trkpt lat="49.13091" lon="3.82285">
        <ele>128</ele>
        <time>2018-03-29T09:10:32Z</time>
      </trkpt>
      <trkpt lat="49.13089" lon="3.82273">
        <ele>127</ele>
        <time>2018-03-29T09:11:32Z</time>
      </trkpt>
      <trkpt lat="49.13088" lon="3.82254">
        <ele>126</ele>
        <time>2018-03-29T09:12:32Z</time>
      </trkpt>
      <trkpt lat="49.13085" lon="3.82231">
        <ele>125</ele>
        <time>2018-03-29T09:13:32Z</time>
      </trkpt>
      <trkpt lat="49.13081" lon="3.82209">
        <ele>124</ele>
        <time>2018-03-29T09:14:32Z</time>
      </trkpt>
      <trkpt lat="49.13078" lon="3.8219">
        <ele>122</ele>
        <time>2018-03-29T09:15:32Z</time>
      </trkpt>
      <trkpt lat="49.13074" lon="3.82172">
        <ele>121</ele>
        <time>2018-03-29T09:16:32Z</time>
      </trkpt>
      <trkpt lat="49.13068" lon="3.8215">
        <ele>120</ele>
        <time>2018-03-29T09:17:32Z</time>
      </trkpt>
      <trkpt lat="49.13063" lon="3.82133">
        <ele>119</ele>
        <time>2018-03-29T09:18:32Z</time>
      </trkpt>
      <trkpt lat="49.13057" lon="3.82111">
        <ele>118</ele>
        <time>2018-03-29T09:19:32Z</time>
      </trkpt>
      <trkpt lat="49.13049" lon="3.82085">
        <ele>116</ele>
        <time>2018-03-29T09:20:32Z</time>
      </trkpt>
      <trkpt lat="49.13033" lon="3.82035">
        <ele>116</ele>
        <time>2018-03-29T09:21:32Z</time>
      </trkpt>
      <trkpt lat="49.13031" lon="3.82031">
        <ele>116</ele>
        <time>2018-03-29T09:22:32Z</time>
      </trkpt>
      <trkpt lat="49.13029" lon="3.82026">
        <ele>116</ele>
        <time>2018-03-29T09:23:32Z</time>
      </trkpt>
      <trkpt lat="49.13027" lon="3.8202">
        <ele>116</ele>
        <time>2018-03-29T09:24:32Z</time>
      </trkpt>
      <trkpt lat="49.13025" lon="3.82014">
        <ele>116</ele>
        <time>2018-03-29T09:25:32Z</time>
      </trkpt>
      <trkpt lat="49.12919" lon="3.81648">
        <ele>117</ele>
        <time>2018-03-29T09:26:32Z</time>
      </trkpt>
      <trkpt lat="49.12838" lon="3.81388">
        <ele>117</ele>
        <time>2018-03-29T09:27:32Z</time>
      </trkpt>
      <trkpt lat="49.12837" lon="3.81383">
        <ele>117</ele>
        <time>2018-03-29T09:28:32Z</time>
      </trkpt>
      <trkpt lat="49.12827" lon="3.81348">
        <ele>118</ele>
        <time>2018-03-29T09:29:32Z</time>
      </trkpt>
      <trkpt lat="49.12809" lon="3.81286">
        <ele>117</ele>
        <time>2018-03-29T09:30:32Z</time>
      </trkpt>
      <trkpt lat="49.12791" lon="3.81222">
        <ele>117</ele>
        <time>2018-03-29T09:31:32Z</time>
      </trkpt>
      <trkpt lat="49.12787" lon="3.81209">
        <ele>117</ele>
        <time>2018-03-29T09:32:32Z</time>
      </trkpt>
      <trkpt lat="49.12787" lon="3.81206">
        <ele>117</ele>
        <time>2018-03-29T09:33:32Z</time>
      </trkpt>
      <trkpt lat="49.12784" lon="3.81197">
        <ele>117</ele>
        <time>2018-03-29T09:34:32Z</time>
      </trkpt>
      <trkpt lat="49.12772" lon="3.81154">
        <ele>117</ele>
        <time>2018-03-29T09:35:32Z</time>
      </trkpt>
      <trkpt lat="49.12754" lon="3.81094">
        <ele>119</ele>
        <time>2018-03-29T09:36:32Z</time>
      </trkpt>
      <trkpt lat="49.12736" lon="3.81035">
        <ele>121</ele>
        <time>2018-03-29T09:37:32Z</time>
      </trkpt>
      <trkpt lat="49.1273" lon="3.81013">
        <ele>122</ele>
        <time>2018-03-29T09:38:32Z</time>
      </trkpt>
      <trkpt lat="49.12719" lon="3.80975">
        <ele>123</ele>
        <time>2018-03-29T09:39:32Z</time>
      </trkpt>
      <trkpt lat="49.12702" lon="3.80919">
        <ele>124</ele>
        <time>2018-03-29T09:40:32Z</time>
      </trkpt>
      <trkpt lat="49.12686" lon="3.80863">
        <ele>123</ele>
        <time>2018-03-29T09:41:32Z</time>
      </trkpt>
      <trkpt lat="49.12677" lon="3.80834">
        <ele>123</ele>
        <time>2018-03-29T09:42:32Z</time>
      </trkpt>
      <trkpt lat="49.12672" lon="3.80815">
        <ele>123</ele>
        <time>2018-03-29T09:43:32Z</time>
      </trkpt>
      <trkpt lat="49.12654" lon="3.80756">
        <ele>123</ele>
        <time>2018-03-29T09:44:32Z</time>
      </trkpt>
      <trkpt lat="49.12638" lon="3.80701">
        <ele>122</ele>
        <time>2018-03-29T09:45:32Z</time>
      </trkpt>
      <trkpt lat="49.12627" lon="3.80661">
        <ele>121</ele>
        <time>2018-03-29T09:46:32Z</time>
      </trkpt>
      <trkpt lat="49.12614" lon="3.80619">
        <ele>121</ele>
        <time>2018-03-29T09:47:32Z</time>
      </trkpt>
      <trkpt lat="49.12602" lon="3.80578">
        <ele>120</ele>
        <time>2018-03-29T09:48:32Z</time>
      </trkpt>
      <trkpt lat="49.1259" lon="3.80537">
        <ele>120</ele>
        <time>2018-03-29T09:49:32Z</time>
      </trkpt>
      <trkpt lat="49.12586" lon="3.80524">
        <ele>120</ele>
        <time>2018-03-29T09:50:32Z</time>
      </trkpt>
      <trkpt lat="49.12577" lon="3.80496">
        <ele>119</ele>
        <time>2018-03-29T09:51:32Z</time>
      </trkpt>
      <trkpt lat="49.12564" lon="3.80451">
        <ele>116</ele>
        <time>2018-03-29T09:52:32Z</time>
      </trkpt>
      <trkpt lat="49.12551" lon="3.80411">
        <ele>115</ele>
        <time>2018-03-29T09:53:32Z</time>
      </trkpt>
      <trkpt lat="49.12548" lon="3.804">
        <ele>114</ele>
        <time>2018-03-29T09:54:32Z</time>
      </trkpt>
      <trkpt lat="49.12507" lon="3.80269">
        <ele>116</ele>
        <time>2018-03-29T09:55:32Z</time>
      </trkpt>
      <trkpt lat="49.125" lon="3.80251">
        <ele>116</ele>
        <time>2018-03-29T09:56:32Z</time>
      </trkpt>
      <trkpt lat="49.1248" lon="3.80198">
        <ele>117</ele>
        <time>2018-03-29T09:57:32Z</time>
      </trkpt>
      <trkpt lat="49.12455" lon="3.80138">
        <ele>117</ele>
        <time>2018-03-29T09:58:32Z</time>
      </trkpt>
      <trkpt lat="49.12436" lon="3.80095">
        <ele>117</ele>
        <time>2018-03-29T09:59:32Z</time>
      </trkpt>
      <trkpt lat="49.12416" lon="3.8005">
        <ele>116</ele>
        <time>2018-03-29T10:00:32Z</time>
      </trkpt>
      <trkpt lat="49.12392" lon="3.80007">
        <ele>116</ele>
        <time>2018-03-29T10:01:32Z</time>
      </trkpt>
      <trkpt lat="49.12376" lon="3.79981">
        <ele>116</ele>
        <time>2018-03-29T10:02:32Z</time>
      </trkpt>
      <trkpt lat="49.12363" lon="3.79963">
        <ele>116</ele>
        <time>2018-03-29T10:03:32Z</time>
      </trkpt>
      <trkpt lat="49.1235" lon="3.79947">
        <ele>117</ele>
        <time>2018-03-29T10:04:32Z</time>
      </trkpt>
      <trkpt lat="49.12337" lon="3.79933">
        <ele>117</ele>
        <time>2018-03-29T10:05:32Z</time>
      </trkpt>
      <trkpt lat="49.12323" lon="3.7992">
        <ele>117</ele>
        <time>2018-03-29T10:06:32Z</time>
      </trkpt>
      <trkpt lat="49.1231" lon="3.79908">
        <ele>117</ele>
        <time>2018-03-29T10:07:32Z</time>
      </trkpt>
      <trkpt lat="49.12291" lon="3.79888">
        <ele>115</ele>
        <time>2018-03-29T10:08:32Z</time>
      </trkpt>
      <trkpt lat="49.12278" lon="3.79872">
        <ele>115</ele>
        <time>2018-03-29T10:09:32Z</time>
      </trkpt>
      <trkpt lat="49.12269" lon="3.7986">
        <ele>114</ele>
        <time>2018-03-29T10:10:32Z</time>
      </trkpt>
      <trkpt lat="49.12259" lon="3.79848">
        <ele>113</ele>
        <time>2018-03-29T10:11:32Z</time>
      </trkpt>
      <trkpt lat="49.12255" lon="3.79841">
        <ele>113</ele>
        <time>2018-03-29T10:12:32Z</time>
      </trkpt>
      <trkpt lat="49.1224" lon="3.79819">
        <ele>112</ele>
        <time>2018-03-29T10:13:32Z</time>
      </trkpt>
      <trkpt lat="49.12219" lon="3.79785">
        <ele>112</ele>
        <time>2018-03-29T10:14:32Z</time>
      </trkpt>
      <trkpt lat="49.12181" lon="3.79719">
        <ele>113</ele>
        <time>2018-03-29T10:15:32Z</time>
      </trkpt>
      <trkpt lat="49.12172" lon="3.79703">
        <ele>114</ele>
        <time>2018-03-29T10:16:32Z</time>
      </trkpt>
      <trkpt lat="49.12168" lon="3.79693">
        <ele>114</ele>
        <time>2018-03-29T10:17:32Z</time>
      </trkpt>
      <trkpt lat="49.12164" lon="3.79682">
        <ele>114</ele>
        <time>2018-03-29T10:18:32Z</time>
      </trkpt>
      <trkpt lat="49.12169" lon="3.79657">
        <ele>114</ele>
        <time>2018-03-29T10:19:32Z</time>
      </trkpt>
      <trkpt lat="49.12176" lon="3.79616">
        <ele>113</ele>
        <time>2018-03-29T10:20:32Z</time>
      </trkpt>
      <trkpt lat="49.12187" lon="3.79552">
        <ele>110</ele>
        <time>2018-03-29T10:21:32Z</time>
      </trkpt>
      <trkpt lat="49.12198" lon="3.79493">
        <ele>108</ele>
        <time>2018-03-29T10:22:32Z</time>
      </trkpt>
      <trkpt lat="49.12205" lon="3.79458">
        <ele>106</ele>
        <time>2018-03-29T10:23:32Z</time>
      </trkpt>
      <trkpt lat="49.12207" lon="3.79442">
        <ele>106</ele>
        <time>2018-03-29T10:24:32Z</time>
      </trkpt>
      <trkpt lat="49.12215" lon="3.79397">
        <ele>104</ele>
        <time>2018-03-29T10:25:32Z</time>
      </trkpt>
      <trkpt lat="49.1222" lon="3.79362">
        <ele>103</ele>
        <time>2018-03-29T10:26:32Z</time>
      </trkpt>
      <trkpt lat="49.12221" lon="3.79356">
        <ele>102</ele>
        <time>2018-03-29T10:27:32Z</time>
      </trkpt>
      <trkpt lat="49.12224" lon="3.79328">
        <ele>101</ele>
        <time>2018-03-29T10:28:32Z</time>
      </trkpt>
      <trkpt lat="49.12225" lon="3.79297">
        <ele>100</ele>
        <time>2018-03-29T10:29:32Z</time>
      </trkpt>
      <trkpt lat="49.12225" lon="3.79283">
        <ele>100</ele>
        <time>2018-03-29T10:30:32Z</time>
      </trkpt>
      <trkpt lat="49.12225" lon="3.79279">
        <ele>100</ele>
        <time>2018-03-29T10:31:32Z</time>
      </trkpt>
      <trkpt lat="49.12225" lon="3.79253">
        <ele>99</ele>
        <time>2018-03-29T10:32:32Z</time>
      </trkpt>
      <trkpt lat="49.12223" lon="3.79239">
        <ele>98</ele>
        <time>2018-03-29T10:33:32Z</time>
      </trkpt>
      <trkpt lat="49.1222" lon="3.79225">
        <ele>98</ele>
        <time>2018-03-29T10:34:32Z</time>
      </trkpt>
      <trkpt lat="49.12217" lon="3.79214">
        <ele>98</ele>
        <time>2018-03-29T10:35:32Z</time>
      </trkpt>
      <trkpt lat="49.12213" lon="3.79203">
        <ele>98</ele>
        <time>2018-03-29T10:36:32Z</time>
      </trkpt>
      <trkpt lat="49.12206" lon="3.79185">
        <ele>98</ele>
        <time>2018-03-29T10:37:32Z</time>
      </trkpt>
      <trkpt lat="49.12196" lon="3.79168">
        <ele>98</ele>
        <time>2018-03-29T10:38:32Z</time>
      </trkpt>
      <trkpt lat="49.12185" lon="3.7915">
        <ele>98</ele>
        <time>2018-03-29T10:39:32Z</time>
      </trkpt>
      <trkpt lat="49.12178" lon="3.79136">
        <ele>98</ele>
        <time>2018-03-29T10:40:32Z</time>
      </trkpt>
      <trkpt lat="49.12176" lon="3.79131">
        <ele>98</ele>
        <time>2018-03-29T10:41:32Z</time>
      </trkpt>
      <trkpt lat="49.12169" lon="3.79115">
        <ele>98</ele>
        <time>2018-03-29T10:42:32Z</time>
      </trkpt>
      <trkpt lat="49.12163" lon="3.79099">
        <ele>97</ele>
        <time>2018-03-29T10:43:32Z</time>
      </trkpt>
      <trkpt lat="49.12158" lon="3.79082">
        <ele>97</ele>
        <time>2018-03-29T10:44:32Z</time>
      </trkpt>
      <trkpt lat="49.12152" lon="3.79054">
        <ele>97</ele>
        <time>2018-03-29T10:45:32Z</time>
      </trkpt>
      <trkpt lat="49.12149" lon="3.79037">
        <ele>96</ele>
        <time>2018-03-29T10:46:32Z</time>
      </trkpt>
      <trkpt lat="49.12144" lon="3.79008">
        <ele>96</ele>
        <time>2018-03-29T10:47:32Z</time>
      </trkpt>
      <trkpt lat="49.12138" lon="3.78964">
        <ele>96</ele>
        <time>2018-03-29T10:48:32Z</time>
      </trkpt>
      <trkpt lat="49.12131" lon="3.78911">
        <ele>96</ele>
        <time>2018-03-29T10:49:32Z</time>
      </trkpt>
      <trkpt lat="49.12123" lon="3.78865">
        <ele>95</ele>
        <time>2018-03-29T10:50:32Z</time>
      </trkpt>
      <trkpt lat="49.12118" lon="3.78829">
        <ele>95</ele>
        <time>2018-03-29T10:51:32Z</time>
      </trkpt>
      <trkpt lat="49.12113" lon="3.78804">
        <ele>95</ele>
        <time>2018-03-29T10:52:32Z</time>
      </trkpt>
      <trkpt lat="49.12108" lon="3.78784">
        <ele>95</ele>
        <time>2018-03-29T10:53:32Z</time>
      </trkpt>
      <trkpt lat="49.12105" lon="3.78776">
        <ele>95</ele>
        <time>2018-03-29T10:54:32Z</time>
      </trkpt>
      <trkpt lat="49.12104" lon="3.78771">
        <ele>95</ele>
        <time>2018-03-29T10:55:32Z</time>
      </trkpt>
      <trkpt lat="49.12103" lon="3.78769">
        <ele>94</ele>
        <time>2018-03-29T10:56:32Z</time>
      </trkpt>
      <trkpt lat="49.12098" lon="3.78755">
        <ele>94</ele>
        <time>2018-03-29T10:57:32Z</time>
      </trkpt>
      <trkpt lat="49.12092" lon="3.78739">
        <ele>94</ele>
        <time>2018-03-29T10:58:32Z</time>
      </trkpt>
      <trkpt lat="49.12088" lon="3.78731">
        <ele>94</ele>
        <time>2018-03-29T10:59:32Z</time>
      </trkpt>
      <trkpt lat="49.12081" lon="3.78716">
        <ele>94</ele>
        <time>2018-03-29T11:00:32Z</time>
      </trkpt>
      <trkpt lat="49.12075" lon="3.78704">
        <ele>94</ele>
        <time>2018-03-29T11:01:32Z</time>
      </trkpt>
      <trkpt lat="49.12073" lon="3.78699">
        <ele>94</ele>
        <time>2018-03-29T11:02:32Z</time>
      </trkpt>
      <trkpt lat="49.12063" lon="3.7868">
        <ele>94</ele>
        <time>2018-03-29T11:03:32Z</time>
      </trkpt>
      <trkpt lat="49.12059" lon="3.78672">
        <ele>94</ele>
        <time>2018-03-29T11:04:32Z</time>
      </trkpt>
      <trkpt lat="49.12056" lon="3.78665">
        <ele>94</ele>
        <time>2018-03-29T11:05:32Z</time>
      </trkpt>
      <trkpt lat="49.12044" lon="3.78642">
        <ele>94</ele>
        <time>2018-03-29T11:06:32Z</time>
      </trkpt>
      <trkpt lat="49.12028" lon="3.78613">
        <ele>94</ele>
        <time>2018-03-29T11:07:32Z</time>
      </trkpt>
      <trkpt lat="49.12027" lon="3.78611">
        <ele>94</ele>
        <time>2018-03-29T11:08:32Z</time>
      </trkpt>
      <trkpt lat="49.12016" lon="3.78589">
        <ele>94</ele>
        <time>2018-03-29T11:09:32Z</time>
      </trkpt>
      <trkpt lat="49.12012" lon="3.78581">
        <ele>94</ele>
        <time>2018-03-29T11:10:32Z</time>
      </trkpt>
      <trkpt lat="49.11996" lon="3.78551">
        <ele>93</ele>
        <time>2018-03-29T11:11:32Z</time>
      </trkpt>
      <trkpt lat="49.11987" lon="3.78532">
        <ele>93</ele>
        <time>2018-03-29T11:12:32Z</time>
      </trkpt>
      <trkpt lat="49.11985" lon="3.78527">
        <ele>93</ele>
        <time>2018-03-29T11:13:32Z</time>
      </trkpt>
      <trkpt lat="49.11983" lon="3.78522">
        <ele>93</ele>
        <time>2018-03-29T11:14:32Z</time>
      </trkpt>
      <trkpt lat="49.1198" lon="3.78518">
        <ele>93</ele>
        <time>2018-03-29T11:15:32Z</time>
      </trkpt>
      <trkpt lat="49.11973" lon="3.78502">
        <ele>92</ele>
        <time>2018-03-29T11:16:32Z</time>
      </trkpt>
      <trkpt lat="49.11964" lon="3.78479">
        <ele>92</ele>
        <time>2018-03-29T11:17:32Z</time>
      </trkpt>
      <trkpt lat="49.11943" lon="3.78426">
        <ele>91</ele>
        <time>2018-03-29T11:18:32Z</time>
      </trkpt>
      <trkpt lat="49.11923" lon="3.78376">
        <ele>91</ele>
        <time>2018-03-29T11:19:32Z</time>
      </trkpt>
      <trkpt lat="49.11903" lon="3.78327">
        <ele>92</ele>
        <time>2018-03-29T11:20:32Z</time>
      </trkpt>
      <trkpt lat="49.11891" lon="3.78296">
        <ele>92</ele>
        <time>2018-03-29T11:21:32Z</time>
      </trkpt>
      <trkpt lat="49.11884" lon="3.78279">
        <ele>93</ele>
        <time>2018-03-29T11:22:32Z</time>
      </trkpt>
      <trkpt lat="49.11865" lon="3.78231">
        <ele>92</ele>
        <time>2018-03-29T11:23:32Z</time>
      </trkpt>
      <trkpt lat="49.11848" lon="3.78189">
        <ele>92</ele>
        <time>2018-03-29T11:24:32Z</time>
      </trkpt>
      <trkpt lat="49.11833" lon="3.78151">
        <ele>91</ele>
        <time>2018-03-29T11:25:32Z</time>
      </trkpt>
      <trkpt lat="49.11821" lon="3.78123">
        <ele>93</ele>
        <time>2018-03-29T11:26:32Z</time>
      </trkpt>
      <trkpt lat="49.11812" lon="3.78099">
        <ele>93</ele>
        <time>2018-03-29T11:27:32Z</time>
      </trkpt>
      <trkpt lat="49.11808" lon="3.78091">
        <ele>94</ele>
        <time>2018-03-29T11:28:32Z</time>
      </trkpt>
      <trkpt lat="49.118" lon="3.78074">
        <ele>94</ele>
        <time>2018-03-29T11:29:32Z</time>
      </trkpt>
      <trkpt lat="49.11791" lon="3.78057">
        <ele>94</ele>
        <time>2018-03-29T11:30:32Z</time>
      </trkpt>
      <trkpt lat="49.11781" lon="3.78041">
        <ele>94</ele>
        <time>2018-03-29T11:31:32Z</time>
      </trkpt>
      <trkpt lat="49.11773" lon="3.78027">
        <ele>94</ele>
        <time>2018-03-29T11:32:32Z</time>
      </trkpt>
      <trkpt lat="49.11766" lon="3.78015">
        <ele>93</ele>
        <time>2018-03-29T11:33:32Z</time>
      </trkpt>
      <trkpt lat="49.11758" lon="3.78005">
        <ele>93</ele>
        <time>2018-03-29T11:34:32Z</time>
      </trkpt>
      <trkpt lat="49.11751" lon="3.77996">
        <ele>93</ele>
        <time>2018-03-29T11:35:32Z</time>
      </trkpt>
      <trkpt lat="49.11742" lon="3.77988">
        <ele>93</ele>
        <time>2018-03-29T11:36:32Z</time>
      </trkpt>
      <trkpt lat="49.11732" lon="3.77979">
        <ele>94</ele>
        <time>2018-03-29T11:37:32Z</time>
      </trkpt>
      <trkpt lat="49.11724" lon="3.77973">
        <ele>94</ele>
        <time>2018-03-29T11:38:32Z</time>
      </trkpt>
      <trkpt lat="49.11714" lon="3.77967">
        <ele>95</ele>
        <time>2018-03-29T11:39:32Z</time>
      </trkpt>
      <trkpt lat="49.11702" lon="3.77962">
        <ele>96</ele>
        <time>2018-03-29T11:40:32Z</time>
      </trkpt>
      <trkpt lat="49.11691" lon="3.77957">
        <ele>96</ele>
        <time>2018-03-29T11:41:32Z</time>
      </trkpt>
      <trkpt lat="49.11679" lon="3.77952">
        <ele>97</ele>
        <time>2018-03-29T11:42:32Z</time>
      </trkpt>
      <trkpt lat="49.11665" lon="3.77946">
        <ele>98</ele>
        <time>2018-03-29T11:43:32Z</time>
      </trkpt>
      <trkpt lat="49.11653" lon="3.7794">
        <ele>99</ele>
        <time>2018-03-29T11:44:32Z</time>
      </trkpt>
      <trkpt lat="49.11651" lon="3.77939">
        <ele>99</ele>
        <time>2018-03-29T11:45:32Z</time>
      </trkpt>
      <trkpt lat="49.11643" lon="3.77934">
        <ele>100</ele>
        <time>2018-03-29T11:46:32Z</time>
      </trkpt>
      <trkpt lat="49.11636" lon="3.77929">
        <ele>100</ele>
        <time>2018-03-29T11:47:32Z</time>
      </trkpt>
      <trkpt lat="49.11629" lon="3.77922">
        <ele>101</ele>
        <time>2018-03-29T11:48:32Z</time>
      </trkpt>
      <trkpt lat="49.11622" lon="3.77913">
        <ele>101</ele>
        <time>2018-03-29T11:49:32Z</time>
      </trkpt>
      <trkpt lat="49.11614" lon="3.77903">
        <ele>102</ele>
        <time>2018-03-29T11:50:32Z</time>
      </trkpt>
      <trkpt lat="49.11607" lon="3.77891">
        <ele>102</ele>
        <time>2018-03-29T11:51:32Z</time>
      </trkpt>
      <trkpt lat="49.11599" lon="3.77877">
        <ele>103</ele>
        <time>2018-03-29T11:52:32Z</time>
      </trkpt>
      <trkpt lat="49.11591" lon="3.77861">
        <ele>103</ele>
        <time>2018-03-29T11:53:32Z</time>
      </trkpt>
      <trkpt lat="49.11584" lon="3.77848">
        <ele>103</ele>
        <time>2018-03-29T11:54:32Z</time>
      </trkpt>
      <trkpt lat="49.11578" lon="3.77838">
        <ele>103</ele>
        <time>2018-03-29T11:55:32Z</time>
      </trkpt>
      <trkpt lat="49.11571" lon="3.77828">
        <ele>103</ele>
        <time>2018-03-29T11:56:32Z</time>
      </trkpt>
      <trkpt lat="49.11565" lon="3.77819">
        <ele>103</ele>
        <time>2018-03-29T11:57:32Z</time>
      </trkpt>
      <trkpt lat="49.11558" lon="3.77811">
        <ele>103</ele>
        <time>2018-03-29T11:58:32Z</time>
      </trkpt>
      <trkpt lat="49.11551" lon="3.77803">
        <ele>103</ele>
        <time>2018-03-29T11:59:32Z</time>
      </trkpt>
      <trkpt lat="49.11546" lon="3.77796">
        <ele>103</ele>
        <time>2018-03-29T12:00:32Z</time>
      </trkpt>
      <trkpt lat="49.11539" lon="3.7779">
        <ele>104</ele>
        <time>2018-03-29T12:01:32Z</time>
      </trkpt>
      <trkpt lat="49.11532" lon="3.77784">
        <ele>104</ele>
        <time>2018-03-29T12:02:32Z</time>
      </trkpt>
      <trkpt lat="49.11519" lon="3.77775">
        <ele>104</ele>
        <time>2018-03-29T12:03:32Z</time>
      </trkpt>
      <trkpt lat="49.1151" lon="3.77769">
        <ele>105</ele>
        <time>2018-03-29T12:04:32Z</time>
      </trkpt>
      <trkpt lat="49.115" lon="3.77763">
        <ele>105</ele>
        <time>2018-03-29T12:05:32Z</time>
      </trkpt>
      <trkpt lat="49.11493" lon="3.77759">
        <ele>106</ele>
        <time>2018-03-29T12:06:32Z</time>
      </trkpt>
      <trkpt lat="49.1149" lon="3.77758">
        <ele>106</ele>
        <time>2018-03-29T12:07:32Z</time>
      </trkpt>
      <trkpt lat="49.11479" lon="3.77752">
        <ele>106</ele>
        <time>2018-03-29T12:08:32Z</time>
      </trkpt>
      <trkpt lat="49.11471" lon="3.77749">
        <ele>107</ele>
        <time>2018-03-29T12:09:32Z</time>
      </trkpt>
      <trkpt lat="49.11463" lon="3.77746">
        <ele>107</ele>
        <time>2018-03-29T12:10:32Z</time>
      </trkpt>
      <trkpt lat="49.11461" lon="3.77746">
        <ele>107</ele>
        <time>2018-03-29T12:11:32Z</time>
      </trkpt>
      <trkpt lat="49.11453" lon="3.77743">
        <ele>108</ele>
        <time>2018-03-29T12:12:32Z</time>
      </trkpt>
      <trkpt lat="49.11442" lon="3.7774">
        <ele>108</ele>
        <time>2018-03-29T12:13:32Z</time>
      </trkpt>
      <trkpt lat="49.11425" lon="3.77738">
        <ele>109</ele>
        <time>2018-03-29T12:14:32Z</time>
      </trkpt>
      <trkpt lat="49.11395" lon="3.77732">
        <ele>111</ele>
        <time>2018-03-29T12:15:32Z</time>
      </trkpt>
      <trkpt lat="49.11363" lon="3.77727">
        <ele>113</ele>
        <time>2018-03-29T12:16:32Z</time>
      </trkpt>
      <trkpt lat="49.11333" lon="3.77721">
        <ele>115</ele>
        <time>2018-03-29T12:17:32Z</time>
      </trkpt>
      <trkpt lat="49.11324" lon="3.7772">
        <ele>115</ele>
        <time>2018-03-29T12:18:32Z</time>
      </trkpt>
      <trkpt lat="49.11307" lon="3.77717">
        <ele>116</ele>
        <time>2018-03-29T12:19:32Z</time>
      </trkpt>
      <trkpt lat="49.11273" lon="3.7771">
        <ele>117</ele>
        <time>2018-03-29T12:20:32Z</time>
      </trkpt>
      <trkpt lat="49.11237" lon="3.77703">
        <ele>117</ele>
        <time>2018-03-29T12:21:32Z</time>
      </trkpt>
      <trkpt lat="49.11215" lon="3.777">
        <ele>117</ele>
        <time>2018-03-29T12:22:32Z</time>
      </trkpt>
      <trkpt lat="49.11004" lon="3.77661">
        <ele>112</ele>
        <time>2018-03-29T12:23:32Z</time>
      </trkpt>
      <trkpt lat="49.10986" lon="3.77657">
        <ele>113</ele>
        <time>2018-03-29T12:24:32Z</time>
      </trkpt>
      <trkpt lat="49.10977" lon="3.77655">
        <ele>114</ele>
        <time>2018-03-29T12:25:32Z</time>
      </trkpt>
      <trkpt lat="49.10967" lon="3.7765">
        <ele>114</ele>
        <time>2018-03-29T12:26:32Z</time>
      </trkpt>
      <trkpt lat="49.10965" lon="3.77649">
        <ele>114</ele>
        <time>2018-03-29T12:27:32Z</time>
      </trkpt>
      <trkpt lat="49.10955" lon="3.77642">
        <ele>115</ele>
        <time>2018-03-29T12:28:32Z</time>
      </trkpt>
      <trkpt lat="49.10947" lon="3.77635">
        <ele>115</ele>
        <time>2018-03-29T12:29:32Z</time>
      </trkpt>
      <trkpt lat="49.10939" lon="3.77625">
        <ele>115</ele>
        <time>2018-03-29T12:30:32Z</time>
      </trkpt>
      <trkpt lat="49.10931" lon="3.77612">
        <ele>115</ele>
        <time>2018-03-29T12:31:32Z</time>
      </trkpt>
      <trkpt lat="49.10923" lon="3.77598">
        <ele>115</ele>
        <time>2018-03-29T12:32:32Z</time>
      </trkpt>
      <trkpt lat="49.10915" lon="3.77583">
        <ele>115</ele>
        <time>2018-03-29T12:33:32Z</time>
      </trkpt>
      <trkpt lat="49.10908" lon="3.77565">
        <ele>115</ele>
        <time>2018-03-29T12:34:32Z</time>
      </trkpt>
      <trkpt lat="49.109" lon="3.7755">
        <ele>115</ele>
        <time>2018-03-29T12:35:32Z</time>
      </trkpt>
      <trkpt lat="49.10893" lon="3.77535">
        <ele>115</ele>
        <time>2018-03-29T12:36:32Z</time>
      </trkpt>
      <trkpt lat="49.10884" lon="3.77518">
        <ele>115</ele>
        <time>2018-03-29T12:37:32Z</time>
      </trkpt>
      <trkpt lat="49.10876" lon="3.77502">
        <ele>115</ele>
        <time>2018-03-29T12:38:32Z</time>
      </trkpt>
      <trkpt lat="49.10869" lon="3.7749">
        <ele>115</ele>
        <time>2018-03-29T12:39:32Z</time>
      </trkpt>
      <trkpt lat="49.10859" lon="3.77475">
        <ele>115</ele>
        <time>2018-03-29T12:40:32Z</time>
      </trkpt>
      <trkpt lat="49.10852" lon="3.77464">
        <ele>115</ele>
        <time>2018-03-29T12:41:32Z</time>
      </trkpt>
      <trkpt lat="49.10846" lon="3.77456">
        <ele>115</ele>
        <time>2018-03-29T12:42:32Z</time>
      </trkpt>
      <trkpt lat="49.10842" lon="3.7745">
        <ele>115</ele>
        <time>2018-03-29T12:43:32Z</time>
      </trkpt>
      <trkpt lat="49.10836" lon="3.77443">
        <ele>115</ele>
        <time>2018-03-29T12:44:32Z</time>
      </trkpt>
      <trkpt lat="49.1083" lon="3.77436">
        <ele>115</ele>
        <time>2018-03-29T12:45:32Z</time>
      </trkpt>
      <trkpt lat="49.10824" lon="3.77429">
        <ele>114</ele>
        <time>2018-03-29T12:46:32Z</time>
      </trkpt>
      <trkpt lat="49.10817" lon="3.77423">
        <ele>114</ele>
        <time>2018-03-29T12:47:32Z</time>
      </trkpt>
      <trkpt lat="49.10809" lon="3.77415">
        <ele>114</ele>
        <time>2018-03-29T12:48:32Z</time>
      </trkpt>
      <trkpt lat="49.10794" lon="3.77402">
        <ele>114</ele>
        <time>2018-03-29T12:49:32Z</time>
      </trkpt>
      <trkpt lat="49.10778" lon="3.77387">
        <ele>114</ele>
        <time>2018-03-29T12:50:32Z</time>
      </trkpt>
      <trkpt lat="49.10754" lon="3.77366">
        <ele>113</ele>
        <time>2018-03-29T12:51:32Z</time>
      </trkpt>
      <trkpt lat="49.1073" lon="3.77345">
        <ele>112</ele>
        <time>2018-03-29T12:52:32Z</time>
      </trkpt>
      <trkpt lat="49.10714" lon="3.77331">
        <ele>111</ele>
        <time>2018-03-29T12:53:32Z</time>
      </trkpt>
      <trkpt lat="49.10701" lon="3.7732">
        <ele>111</ele>
        <time>2018-03-29T12:54:32Z</time>
      </trkpt>
      <trkpt lat="49.10688" lon="3.77309">
        <ele>111</ele>
        <time>2018-03-29T12:55:32Z</time>
      </trkpt>
      <trkpt lat="49.10662" lon="3.77287">
        <ele>110</ele>
        <time>2018-03-29T12:56:32Z</time>
      </trkpt>
      <trkpt lat="49.10631" lon="3.7726">
        <ele>110</ele>
        <time>2018-03-29T12:57:32Z</time>
      </trkpt>
      <trkpt lat="49.10618" lon="3.77249">
        <ele>109</ele>
        <time>2018-03-29T12:58:32Z</time>
      </trkpt>
      <trkpt lat="49.10604" lon="3.77236">
        <ele>108</ele>
        <time>2018-03-29T12:59:32Z</time>
      </trkpt>
      <trkpt lat="49.10581" lon="3.77216">
        <ele>107</ele>
        <time>2018-03-29T13:00:32Z</time>
      </trkpt>
      <trkpt lat="49.10561" lon="3.77198">
        <ele>106</ele>
        <time>2018-03-29T13:01:32Z</time>
      </trkpt>
      <trkpt lat="49.10545" lon="3.77184">
        <ele>105</ele>
        <time>2018-03-29T13:02:32Z</time>
      </trkpt>
      <trkpt lat="49.10532" lon="3.77173">
        <ele>104</ele>
        <time>2018-03-29T13:03:32Z</time>
      </trkpt>
      <trkpt lat="49.10519" lon="3.77163">
        <ele>103</ele>
        <time>2018-03-29T13:04:32Z</time>
      </trkpt>
      <trkpt lat="49.10506" lon="3.77152">
        <ele>102</ele>
        <time>2018-03-29T13:05:32Z</time>
      </trkpt>
      <trkpt lat="49.10488" lon="3.77139">
        <ele>101</ele>
        <time>2018-03-29T13:06:32Z</time>
      </trkpt>
      <trkpt lat="49.10485" lon="3.77137">
        <ele>101</ele>
        <time>2018-03-29T13:07:32Z</time>
      </trkpt>
      <trkpt lat="49.10478" lon="3.77132">
        <ele>101</ele>
        <time>2018-03-29T13:08:32Z</time>
      </trkpt>
      <trkpt lat="49.10466" lon="3.77123">
        <ele>100</ele>
        <time>2018-03-29T13:09:32Z</time>
      </trkpt>
      <trkpt lat="49.10455" lon="3.77116">
        <ele>100</ele>
        <time>2018-03-29T13:10:32Z</time>
      </trkpt>
      <trkpt lat="49.1044" lon="3.77106">
        <ele>99</ele>
        <time>2018-03-29T13:11:32Z</time>
      </trkpt>
      <trkpt lat="49.10429" lon="3.77099">
        <ele>99</ele>
        <time>2018-03-29T13:12:32Z</time>
      </trkpt>
      <trkpt lat="49.10421" lon="3.77094">
        <ele>98</ele>
        <time>2018-03-29T13:13:32Z</time>
      </trkpt>
      <trkpt lat="49.10414" lon="3.77091">
        <ele>98</ele>
        <time>2018-03-29T13:14:32Z</time>
      </trkpt>
      <trkpt lat="49.10408" lon="3.77088">
        <ele>97</ele>
        <time>2018-03-29T13:15:32Z</time>
      </trkpt>
      <trkpt lat="49.10401" lon="3.77086">
        <ele>96</ele>
        <time>2018-03-29T13:16:32Z</time>
      </trkpt>
      <trkpt lat="49.10393" lon="3.77084">
        <ele>95</ele>
        <time>2018-03-29T13:17:32Z</time>
      </trkpt>
      <trkpt lat="49.10387" lon="3.77083">
        <ele>94</ele>
        <time>2018-03-29T13:18:32Z</time>
      </trkpt>
      <trkpt lat="49.10385" lon="3.77083">
        <ele>94</ele>
        <time>2018-03-29T13:19:32Z</time>
      </trkpt>
      <trkpt lat="49.1038" lon="3.77083">
        <ele>94</ele>
        <time>2018-03-29T13:20:32Z</time>
      </trkpt>
      <trkpt lat="49.10372" lon="3.77083">
        <ele>93</ele>
        <time>2018-03-29T13:21:32Z</time>
      </trkpt>
      <trkpt lat="49.10364" lon="3.77084">
        <ele>93</ele>
        <time>2018-03-29T13:22:32Z</time>
      </trkpt>
      <trkpt lat="49.10358" lon="3.77086">
        <ele>92</ele>
        <time>2018-03-29T13:23:32Z</time>
      </trkpt>
      <trkpt lat="49.10347" lon="3.77088">
        <ele>92</ele>
        <time>2018-03-29T13:24:32Z</time>
      </trkpt>
      <trkpt lat="49.10337" lon="3.77092">
        <ele>91</ele>
        <time>2018-03-29T13:25:32Z</time>
      </trkpt>
      <trkpt lat="49.10327" lon="3.77097">
        <ele>91</ele>
        <time>2018-03-29T13:26:32Z</time>
      </trkpt>
      <trkpt lat="49.10314" lon="3.77103">
        <ele>91</ele>
        <time>2018-03-29T13:27:32Z</time>
      </trkpt>
      <trkpt lat="49.10307" lon="3.77106">
        <ele>91</ele>
        <time>2018-03-29T13:28:32Z</time>
      </trkpt>
      <trkpt lat="49.10302" lon="3.77109">
        <ele>91</ele>
        <time>2018-03-29T13:29:32Z</time>
      </trkpt>
      <trkpt lat="49.10282" lon="3.77118">
        <ele>90</ele>
        <time>2018-03-29T13:30:32Z</time>
      </trkpt>
      <trkpt lat="49.10265" lon="3.77126">
        <ele>89</ele>
        <time>2018-03-29T13:31:32Z</time>
      </trkpt>
      <trkpt lat="49.10247" lon="3.77135">
        <ele>89</ele>
        <time>2018-03-29T13:32:32Z</time>
      </trkpt>
      <trkpt lat="49.10243" lon="3.77137">
        <ele>89</ele>
        <time>2018-03-29T13:33:32Z</time>
      </trkpt>
      <trkpt lat="49.10229" lon="3.77144">
        <ele>88</ele>
        <time>2018-03-29T13:34:32Z</time>
      </trkpt>
      <trkpt lat="49.10211" lon="3.77146">
        <ele>87</ele>
        <time>2018-03-29T13:35:32Z</time>
      </trkpt>
      <trkpt lat="49.102" lon="3.77147">
        <ele>86</ele>
        <time>2018-03-29T13:36:32Z</time>
      </trkpt>
      <trkpt lat="49.1019" lon="3.77145">
        <ele>85</ele>
        <time>2018-03-29T13:37:32Z</time>
      </trkpt>
      <trkpt lat="49.10177" lon="3.77142">
        <ele>84</ele>
        <time>2018-03-29T13:38:32Z</time>
      </trkpt>
      <trkpt lat="49.10177" lon="3.77142">
        <ele>84</ele>
        <time>2018-03-29T13:39:32Z</time>
      </trkpt>
      <trkpt lat="49.10176" lon="3.77139">
        <ele>83</ele>
        <time>2018-03-29T13:40:32Z</time>
      </trkpt>
      <trkpt lat="49.10174" lon="3.77138">
        <ele>83</ele>
        <time>2018-03-29T13:41:32Z</time>
      </trkpt>
      <trkpt lat="49.10171" lon="3.77126">
        <ele>82</ele>
        <time>2018-03-29T13:42:32Z</time>
      </trkpt>
      <trkpt lat="49.1016" lon="3.77083">
        <ele>80</ele>
        <time>2018-03-29T13:43:32Z</time>
      </trkpt>
      <trkpt lat="49.10155" lon="3.77069">
        <ele>79</ele>
        <time>2018-03-29T13:44:32Z</time>
      </trkpt>
      <trkpt lat="49.10139" lon="3.76992">
        <ele>78</ele>
        <time>2018-03-29T13:45:32Z</time>
      </trkpt>
      <trkpt lat="49.10136" lon="3.76976">
        <ele>78</ele>
        <time>2018-03-29T13:46:32Z</time>
      </trkpt>
      <trkpt lat="49.10134" lon="3.76967">
        <ele>78</ele>
        <time>2018-03-29T13:47:32Z</time>
      </trkpt>
      <trkpt lat="49.10133" lon="3.76961">
        <ele>78</ele>
        <time>2018-03-29T13:48:32Z</time>
      </trkpt>
      <trkpt lat="49.1013" lon="3.76956">
        <ele>78</ele>
        <time>2018-03-29T13:49:32Z</time>
      </trkpt>
      <trkpt lat="49.10127" lon="3.76951">
        <ele>78</ele>
        <time>2018-03-29T13:50:32Z</time>
      </trkpt>
      <trkpt lat="49.10124" lon="3.76947">
        <ele>78</ele>
        <time>2018-03-29T13:51:32Z</time>
      </trkpt>
      <trkpt lat="49.10121" lon="3.76944">
        <ele>78</ele>
        <time>2018-03-29T13:52:32Z</time>
      </trkpt>
      <trkpt lat="49.10116" lon="3.7694">
        <ele>78</ele>
        <time>2018-03-29T13:53:32Z</time>
      </trkpt>
      <trkpt lat="49.10111" lon="3.76938">
        <ele>78</ele>
        <time>2018-03-29T13:54:32Z</time>
      </trkpt>
      <trkpt lat="49.10106" lon="3.76937">
        <ele>78</ele>
        <time>2018-03-29T13:55:32Z</time>
      </trkpt>
      <trkpt lat="49.10102" lon="3.76937">
        <ele>78</ele>
        <time>2018-03-29T13:56:32Z</time>
      </trkpt>
      <trkpt lat="49.101" lon="3.76937">
        <ele>78</ele>
        <time>2018-03-29T13:57:32Z</time>
      </trkpt>
      <trkpt lat="49.10084" lon="3.76938">
        <ele>78</ele>
        <time>2018-03-29T13:58:32Z</time>
      </trkpt>
      <trkpt lat="49.10051" lon="3.76939">
        <ele>78</ele>
        <time>2018-03-29T13:59:32Z</time>
      </trkpt>
      <trkpt lat="49.09997" lon="3.76941">
        <ele>78</ele>
        <time>2018-03-29T14:00:32Z</time>
      </trkpt>
      <trkpt lat="49.09955" lon="3.76943">
        <ele>78</ele>
        <time>2018-03-29T14:01:32Z</time>
      </trkpt>
      <trkpt lat="49.09935" lon="3.76944">
        <ele>78</ele>
        <time>2018-03-29T14:02:32Z</time>
      </trkpt>
      <trkpt lat="49.09879" lon="3.76947">
        <ele>81</ele>
        <time>2018-03-29T14:03:32Z</time>
      </trkpt>
      <trkpt lat="49.09877" lon="3.76947">
        <ele>81</ele>
        <time>2018-03-29T14:04:32Z</time>
      </trkpt>
      <trkpt lat="49.09874" lon="3.76947">
        <ele>81</ele>
        <time>2018-03-29T14:05:32Z</time>
      </trkpt>
      <trkpt lat="49.09833" lon="3.76947">
        <ele>83</ele>
        <time>2018-03-29T14:06:32Z</time>
      </trkpt>
      <trkpt lat="49.09822" lon="3.76947">
        <ele>84</ele>
        <time>2018-03-29T14:07:32Z</time>
      </trkpt>
      <trkpt lat="49.09811" lon="3.76945">
        <ele>85</ele>
        <time>2018-03-29T14:08:32Z</time>
      </trkpt>
      <trkpt lat="49.09798" lon="3.76943">
        <ele>85</ele>
        <time>2018-03-29T14:09:32Z</time>
      </trkpt>
      <trkpt lat="49.09787" lon="3.76941">
        <ele>86</ele>
        <time>2018-03-29T14:10:32Z</time>
      </trkpt>
      <trkpt lat="49.0978" lon="3.76939">
        <ele>86</ele>
        <time>2018-03-29T14:11:32Z</time>
      </trkpt>
      <trkpt lat="49.09773" lon="3.76936">
        <ele>87</ele>
        <time>2018-03-29T14:12:32Z</time>
      </trkpt>
      <trkpt lat="49.09761" lon="3.76931">
        <ele>88</ele>
        <time>2018-03-29T14:13:32Z</time>
      </trkpt>
      <trkpt lat="49.09741" lon="3.76922">
        <ele>89</ele>
        <time>2018-03-29T14:14:32Z</time>
      </trkpt>
      <trkpt lat="49.09726" lon="3.76913">
        <ele>89</ele>
        <time>2018-03-29T14:15:32Z</time>
      </trkpt>
      <trkpt lat="49.09714" lon="3.76906">
        <ele>90</ele>
        <time>2018-03-29T14:16:32Z</time>
      </trkpt>
      <trkpt lat="49.09646" lon="3.76857">
        <ele>89</ele>
        <time>2018-03-29T14:17:32Z</time>
      </trkpt>
      <trkpt lat="49.09521" lon="3.76759">
        <ele>87</ele>
        <time>2018-03-29T14:18:32Z</time>
      </trkpt>
      <trkpt lat="49.09519" lon="3.76753">
        <ele>87</ele>
        <time>2018-03-29T14:19:32Z</time>
      </trkpt>
      <trkpt lat="49.09515" lon="3.76745">
        <ele>87</ele>
        <time>2018-03-29T14:20:32Z</time>
      </trkpt>
      <trkpt lat="49.09512" lon="3.76738">
        <ele>86</ele>
        <time>2018-03-29T14:21:32Z</time>
      </trkpt>
      <trkpt lat="49.09512" lon="3.76735">
        <ele>86</ele>
        <time>2018-03-29T14:22:32Z</time>
      </trkpt>
      <trkpt lat="49.09511" lon="3.76731">
        <ele>86</ele>
        <time>2018-03-29T14:23:32Z</time>
      </trkpt>
      <trkpt lat="49.09511" lon="3.7672">
        <ele>86</ele>
        <time>2018-03-29T14:24:32Z</time>
      </trkpt>
      <trkpt lat="49.09511" lon="3.76705">
        <ele>85</ele>
        <time>2018-03-29T14:25:32Z</time>
      </trkpt>
      <trkpt lat="49.09511" lon="3.76705">
        <ele>85</ele>
        <time>2018-03-29T14:26:32Z</time>
      </trkpt>
      <trkpt lat="49.09497" lon="3.76704">
        <ele>85</ele>
        <time>2018-03-29T14:27:32Z</time>
      </trkpt>
      <trkpt lat="49.0949" lon="3.76704">
        <ele>86</ele>
        <time>2018-03-29T14:28:32Z</time>
      </trkpt>
      <trkpt lat="49.09476" lon="3.76703">
        <ele>86</ele>
        <time>2018-03-29T14:29:32Z</time>
      </trkpt>
      <trkpt lat="49.09466" lon="3.76701">
        <ele>86</ele>
        <time>2018-03-29T14:30:32Z</time>
      </trkpt>
      <trkpt lat="49.09459" lon="3.767">
        <ele>86</ele>
        <time>2018-03-29T14:31:32Z</time>
      </trkpt>
      <trkpt lat="49.09453" lon="3.76698">
        <ele>86</ele>
        <time>2018-03-29T14:32:32Z</time>
      </trkpt>
      <trkpt lat="49.09446" lon="3.76696">
        <ele>86</ele>
        <time>2018-03-29T14:33:32Z</time>
      </trkpt>
      <trkpt lat="49.09444" lon="3.76695">
        <ele>86</ele>
        <time>2018-03-29T14:34:32Z</time>
      </trkpt>
      <trkpt lat="49.0944" lon="3.76693">
        <ele>86</ele>
        <time>2018-03-29T14:35:32Z</time>
      </trkpt>
      <trkpt lat="49.09435" lon="3.7669">
        <ele>86</ele>
        <time>2018-03-29T14:36:32Z</time>
      </trkpt>
      <trkpt lat="49.09428" lon="3.76687">
        <ele>86</ele>
        <time>2018-03-29T14:37:32Z</time>
      </trkpt>
      <trkpt lat="49.0942" lon="3.76682">
        <ele>86</ele>
        <time>2018-03-29T14:38:32Z</time>
      </trkpt>
      <trkpt lat="49.09415" lon="3.76678">
        <ele>86</ele>
        <time>2018-03-29T14:39:32Z</time>
      </trkpt>
      <trkpt lat="49.09408" lon="3.76673">
        <ele>86</ele>
        <time>2018-03-29T14:40:32Z</time>
      </trkpt>
      <trkpt lat="49.09396" lon="3.76664">
        <ele>86</ele>
        <time>2018-03-29T14:41:32Z</time>
      </trkpt>
      <trkpt lat="49.09376" lon="3.76649">
        <ele>86</ele>
        <time>2018-03-29T14:42:32Z</time>
      </trkpt>
      <trkpt lat="49.09361" lon="3.76637">
        <ele>86</ele>
        <time>2018-03-29T14:43:32Z</time>
      </trkpt>
      <trkpt lat="49.09337" lon="3.76619">
        <ele>84</ele>
        <time>2018-03-29T14:44:32Z</time>
      </trkpt>
      <trkpt lat="49.09317" lon="3.76604">
        <ele>84</ele>
        <time>2018-03-29T14:45:32Z</time>
      </trkpt>
      <trkpt lat="49.093" lon="3.76591">
        <ele>83</ele>
        <time>2018-03-29T14:46:32Z</time>
      </trkpt>
      <trkpt lat="49.09278" lon="3.76574">
        <ele>82</ele>
        <time>2018-03-29T14:47:32Z</time>
      </trkpt>
      <trkpt lat="49.09267" lon="3.76566">
        <ele>82</ele>
        <time>2018-03-29T14:48:32Z</time>
      </trkpt>
      <trkpt lat="49.09259" lon="3.7656">
        <ele>82</ele>
        <time>2018-03-29T14:49:32Z</time>
      </trkpt>
      <trkpt lat="49.09208" lon="3.76521">
        <ele>79</ele>
        <time>2018-03-29T14:50:32Z</time>
      </trkpt>
      <trkpt lat="49.09189" lon="3.76507">
        <ele>78</ele>
        <time>2018-03-29T14:51:32Z</time>
      </trkpt>
      <trkpt lat="49.09174" lon="3.76495">
        <ele>78</ele>
        <time>2018-03-29T14:52:32Z</time>
      </trkpt>
      <trkpt lat="49.0916" lon="3.76485">
        <ele>77</ele>
        <time>2018-03-29T14:53:32Z</time>
      </trkpt>
      <trkpt lat="49.09135" lon="3.76468">
        <ele>77</ele>
        <time>2018-03-29T14:54:32Z</time>
      </trkpt>
      <trkpt lat="49.09131" lon="3.76462">
        <ele>76</ele>
        <time>2018-03-29T14:55:32Z</time>
      </trkpt>
      <trkpt lat="49.09127" lon="3.76455">
        <ele>76</ele>
        <time>2018-03-29T14:56:32Z</time>
      </trkpt>
      <trkpt lat="49.0912" lon="3.76441">
        <ele>75</ele>
        <time>2018-03-29T14:57:32Z</time>
      </trkpt>
      <trkpt lat="49.0912" lon="3.76441">
        <ele>75</ele>
        <time>2018-03-29T14:58:32Z</time>
      </trkpt>
      <trkpt lat="49.0912" lon="3.7644">
        <ele>75</ele>
        <time>2018-03-29T14:59:32Z</time>
      </trkpt>
      <trkpt lat="49.0912" lon="3.76439">
        <ele>75</ele>
        <time>2018-03-29T15:00:32Z</time>
      </trkpt>
      <trkpt lat="49.0912" lon="3.76438">
        <ele>75</ele>
        <time>2018-03-29T15:01:32Z</time>
      </trkpt>
      <trkpt lat="49.0912" lon="3.76437">
        <ele>75</ele>
        <time>2018-03-29T15:02:32Z</time>
      </trkpt>
      <trkpt lat="49.0912" lon="3.76436">
        <ele>75</ele>
        <time>2018-03-29T15:03:32Z</time>
      </trkpt>
      <trkpt lat="49.0912" lon="3.76435">
        <ele>75</ele>
        <time>2018-03-29T15:04:32Z</time>
      </trkpt>
      <trkpt lat="49.0912" lon="3.76434">
        <ele>75</ele>
        <time>2018-03-29T15:05:32Z</time>
      </trkpt>
      <trkpt lat="49.09119" lon="3.76433">
        <ele>75</ele>
        <time>2018-03-29T15:06:32Z</time>
      </trkpt>
      <trkpt lat="49.09119" lon="3.76432">
        <ele>74</ele>
        <time>2018-03-29T15:07:32Z</time>
      </trkpt>
      <trkpt lat="49.09119" lon="3.76431">
        <ele>74</ele>
        <time>2018-03-29T15:08:32Z</time>
      </trkpt>
      <trkpt lat="49.09118" lon="3.7643">
        <ele>74</ele>
        <time>2018-03-29T15:09:32Z</time>
      </trkpt>
      <trkpt lat="49.09118" lon="3.76429">
        <ele>74</ele>
        <time>2018-03-29T15:10:32Z</time>
      </trkpt>
      <trkpt lat="49.09117" lon="3.76428">
        <ele>74</ele>
        <time>2018-03-29T15:11:32Z</time>
      </trkpt>
      <trkpt lat="49.09117" lon="3.76427">
        <ele>74</ele>
        <time>2018-03-29T15:12:32Z</time>
      </trkpt>
      <trkpt lat="49.09116" lon="3.76427">
        <ele>74</ele>
        <time>2018-03-29T15:13:32Z</time>
      </trkpt>
      <trkpt lat="49.09116" lon="3.76426">
        <ele>74</ele>
        <time>2018-03-29T15:14:32Z</time>
      </trkpt>
      <trkpt lat="49.09115" lon="3.76426">
        <ele>74</ele>
        <time>2018-03-29T15:15:32Z</time>
      </trkpt>
      <trkpt lat="49.09115" lon="3.76425">
        <ele>74</ele>
        <time>2018-03-29T15:16:32Z</time>
      </trkpt>
      <trkpt lat="49.09114" lon="3.76425">
        <ele>74</ele>
        <time>2018-03-29T15:17:32Z</time>
      </trkpt>
      <trkpt lat="49.09113" lon="3.76425">
        <ele>74</ele>
        <time>2018-03-29T15:18:32Z</time>
      </trkpt>
      <trkpt lat="49.09113" lon="3.76424">
        <ele>74</ele>
        <time>2018-03-29T15:19:32Z</time>
      </trkpt>
      <trkpt lat="49.09112" lon="3.76424">
        <ele>74</ele>
        <time>2018-03-29T15:20:32Z</time>
      </trkpt>
      <trkpt lat="49.09111" lon="3.76424">
        <ele>74</ele>
        <time>2018-03-29T15:21:32Z</time>
      </trkpt>
      <trkpt lat="49.0911" lon="3.76424">
        <ele>74</ele>
        <time>2018-03-29T15:22:32Z</time>
      </trkpt>
      <trkpt lat="49.09109" lon="3.76424">
        <ele>74</ele>
        <time>2018-03-29T15:23:32Z</time>
      </trkpt>
      <trkpt lat="49.09109" lon="3.76425">
        <ele>74</ele>
        <time>2018-03-29T15:24:32Z</time>
      </trkpt>
      <trkpt lat="49.09108" lon="3.76425">
        <ele>74</ele>
        <time>2018-03-29T15:25:32Z</time>
      </trkpt>
      <trkpt lat="49.09107" lon="3.76425">
        <ele>74</ele>
        <time>2018-03-29T15:26:32Z</time>
      </trkpt>
      <trkpt lat="49.09107" lon="3.76426">
        <ele>74</ele>
        <time>2018-03-29T15:27:32Z</time>
      </trkpt>
      <trkpt lat="49.09106" lon="3.76426">
        <ele>74</ele>
        <time>2018-03-29T15:28:32Z</time>
      </trkpt>
      <trkpt lat="49.09105" lon="3.76427">
        <ele>74</ele>
        <time>2018-03-29T15:29:32Z</time>
      </trkpt>
      <trkpt lat="49.09072" lon="3.76415">
        <ele>73</ele>
        <time>2018-03-29T15:30:32Z</time>
      </trkpt>
      <trkpt lat="49.09065" lon="3.76413">
        <ele>72</ele>
        <time>2018-03-29T15:31:32Z</time>
      </trkpt>
      <trkpt lat="49.09062" lon="3.76411">
        <ele>72</ele>
        <time>2018-03-29T15:32:32Z</time>
      </trkpt>
      <trkpt lat="49.08775" lon="3.76193">
        <ele>66</ele>
        <time>2018-03-29T15:33:32Z</time>
      </trkpt>
      <trkpt lat="49.08767" lon="3.76188">
        <ele>66</ele>
        <time>2018-03-29T15:34:32Z</time>
      </trkpt>
      <trkpt lat="49.0874" lon="3.76171">
        <ele>66</ele>
        <time>2018-03-29T15:35:32Z</time>
      </trkpt>
      <trkpt lat="49.08681" lon="3.76137">
        <ele>65</ele>
        <time>2018-03-29T15:36:32Z</time>
      </trkpt>
      <trkpt lat="49.0863" lon="3.76109">
        <ele>63</ele>
        <time>2018-03-29T15:37:32Z</time>
      </trkpt>
      <trkpt lat="49.08619" lon="3.76104">
        <ele>63</ele>
        <time>2018-03-29T15:38:32Z</time>
      </trkpt>
      <trkpt lat="49.08609" lon="3.76101">
        <ele>63</ele>
        <time>2018-03-29T15:39:32Z</time>
      </trkpt>
      <trkpt lat="49.08601" lon="3.76098">
        <ele>63</ele>
        <time>2018-03-29T15:40:32Z</time>
      </trkpt>
      <trkpt lat="49.0859" lon="3.76097">
        <ele>62</ele>
        <time>2018-03-29T15:41:32Z</time>
      </trkpt>
      <trkpt lat="49.08579" lon="3.76096">
        <ele>62</ele>
        <time>2018-03-29T15:42:32Z</time>
      </trkpt>
      <trkpt lat="49.08566" lon="3.76096">
        <ele>62</ele>
        <time>2018-03-29T15:43:32Z</time>
      </trkpt>
      <trkpt lat="49.08554" lon="3.76097">
        <ele>63</ele>
        <time>2018-03-29T15:44:32Z</time>
      </trkpt>
      <trkpt lat="49.08531" lon="3.761">
        <ele>63</ele>
        <time>2018-03-29T15:45:32Z</time>
      </trkpt>
      <trkpt lat="49.08502" lon="3.761">
        <ele>64</ele>
        <time>2018-03-29T15:46:32Z</time>
      </trkpt>
      <trkpt lat="49.08485" lon="3.76099">
        <ele>64</ele>
        <time>2018-03-29T15:47:32Z</time>
      </trkpt>
      <trkpt lat="49.08467" lon="3.76094">
        <ele>64</ele>
        <time>2018-03-29T15:48:32Z</time>
      </trkpt>
      <trkpt lat="49.08451" lon="3.76087">
        <ele>64</ele>
        <time>2018-03-29T15:49:32Z</time>
      </trkpt>
      <trkpt lat="49.08434" lon="3.76078">
        <ele>64</ele>
        <time>2018-03-29T15:50:32Z</time>
      </trkpt>
      <trkpt lat="49.08417" lon="3.7607">
        <ele>64</ele>
        <time>2018-03-29T15:51:32Z</time>
      </trkpt>
      <trkpt lat="49.08407" lon="3.76065">
        <ele>64</ele>
        <time>2018-03-29T15:52:32Z</time>
      </trkpt>
      <trkpt lat="49.08335" lon="3.76028">
        <ele>63</ele>
        <time>2018-03-29T15:53:32Z</time>
      </trkpt>
      <trkpt lat="49.08329" lon="3.76025">
        <ele>64</ele>
        <time>2018-03-29T15:54:32Z</time>
      </trkpt>
      <trkpt lat="49.08324" lon="3.76022">
        <ele>64</ele>
        <time>2018-03-29T15:55:32Z</time>
      </trkpt>
      <trkpt lat="49.08319" lon="3.7602">
        <ele>64</ele>
        <time>2018-03-29T15:56:32Z</time>
      </trkpt>
      <trkpt lat="49.08294" lon="3.76006">
        <ele>65</ele>
        <time>2018-03-29T15:57:32Z</time>
      </trkpt>
      <trkpt lat="49.08257" lon="3.75986">
        <ele>68</ele>
        <time>2018-03-29T15:58:32Z</time>
      </trkpt>
      <trkpt lat="49.08257" lon="3.75986">
        <ele>68</ele>
        <time>2018-03-29T15:59:32Z</time>
      </trkpt>
      <trkpt lat="49.08257" lon="3.75983">
        <ele>68</ele>
        <time>2018-03-29T16:00:32Z</time>
      </trkpt>
      <trkpt lat="49.08257" lon="3.7598">
        <ele>68</ele>
        <time>2018-03-29T16:01:32Z</time>
      </trkpt>
      <trkpt lat="49.08256" lon="3.75972">
        <ele>68</ele>
        <time>2018-03-29T16:02:32Z</time>
      </trkpt>
      <trkpt lat="49.08255" lon="3.75965">
        <ele>68</ele>
        <time>2018-03-29T16:03:32Z</time>
      </trkpt>
      <trkpt lat="49.08255" lon="3.75959">
        <ele>68</ele>
        <time>2018-03-29T16:04:32Z</time>
      </trkpt>
      <trkpt lat="49.08265" lon="3.75909">
        <ele>67</ele>
        <time>2018-03-29T16:05:32Z</time>
      </trkpt>
      <trkpt lat="49.08272" lon="3.75872">
        <ele>67</ele>
        <time>2018-03-29T16:06:32Z</time>
      </trkpt>
      <trkpt lat="49.08273" lon="3.75857">
        <ele>66</ele>
        <time>2018-03-29T16:07:32Z</time>
      </trkpt>
      <trkpt lat="49.08273" lon="3.75843">
        <ele>66</ele>
        <time>2018-03-29T16:08:32Z</time>
      </trkpt>
      <trkpt lat="49.08272" lon="3.75831">
        <ele>66</ele>
        <time>2018-03-29T16:09:32Z</time>
      </trkpt>
      <trkpt lat="49.08271" lon="3.75819">
        <ele>66</ele>
        <time>2018-03-29T16:10:32Z</time>
      </trkpt>
      <trkpt lat="49.08263" lon="3.75752">
        <ele>66</ele>
        <time>2018-03-29T16:11:32Z</time>
      </trkpt>
      <trkpt lat="49.08249" lon="3.75499">
        <ele>68</ele>
        <time>2018-03-29T16:12:32Z</time>
      </trkpt>
      <trkpt lat="49.08244" lon="3.75401">
        <ele>69</ele>
        <time>2018-03-29T16:13:32Z</time>
      </trkpt>
      <trkpt lat="49.08243" lon="3.75388">
        <ele>69</ele>
        <time>2018-03-29T16:14:32Z</time>
      </trkpt>
      <trkpt lat="49.08242" lon="3.75376">
        <ele>69</ele>
        <time>2018-03-29T16:15:32Z</time>
      </trkpt>
      <trkpt lat="49.08241" lon="3.75368">
        <ele>69</ele>
        <time>2018-03-29T16:16:32Z</time>
      </trkpt>
      <trkpt lat="49.0824" lon="3.75358">
        <ele>69</ele>
        <time>2018-03-29T16:17:32Z</time>
      </trkpt>
      <trkpt lat="49.08238" lon="3.75347">
        <ele>70</ele>
        <time>2018-03-29T16:18:32Z</time>
      </trkpt>
      <trkpt lat="49.08235" lon="3.75333">
        <ele>70</ele>
        <time>2018-03-29T16:19:32Z</time>
      </trkpt>
      <trkpt lat="49.08232" lon="3.75321">
        <ele>70</ele>
        <time>2018-03-29T16:20:32Z</time>
      </trkpt>
      <trkpt lat="49.08229" lon="3.75311">
        <ele>70</ele>
        <time>2018-03-29T16:21:32Z</time>
      </trkpt>
      <trkpt lat="49.08226" lon="3.75301">
        <ele>70</ele>
        <time>2018-03-29T16:22:32Z</time>
      </trkpt>
      <trkpt lat="49.08222" lon="3.75292">
        <ele>71</ele>
        <time>2018-03-29T16:23:32Z</time>
      </trkpt>
      <trkpt lat="49.08217" lon="3.75279">
        <ele>71</ele>
        <time>2018-03-29T16:24:32Z</time>
      </trkpt>
      <trkpt lat="49.08195" lon="3.75225">
        <ele>73</ele>
        <time>2018-03-29T16:25:32Z</time>
      </trkpt>
      <trkpt lat="49.08181" lon="3.75189">
        <ele>73</ele>
        <time>2018-03-29T16:26:32Z</time>
      </trkpt>
      <trkpt lat="49.0818" lon="3.75186">
        <ele>73</ele>
        <time>2018-03-29T16:27:32Z</time>
      </trkpt>
      <trkpt lat="49.08179" lon="3.75183">
        <ele>73</ele>
        <time>2018-03-29T16:28:32Z</time>
      </trkpt>
      <trkpt lat="49.08178" lon="3.75181">
        <ele>73</ele>
        <time>2018-03-29T16:29:32Z</time>
      </trkpt>
      <trkpt lat="49.08176" lon="3.75179">
        <ele>74</ele>
        <time>2018-03-29T16:30:32Z</time>
      </trkpt>
      <trkpt lat="49.08175" lon="3.75177">
        <ele>74</ele>
        <time>2018-03-29T16:31:32Z</time>
      </trkpt>
      <trkpt lat="49.08173" lon="3.75176">
        <ele>74</ele>
        <time>2018-03-29T16:32:32Z</time>
      </trkpt>
      <trkpt lat="49.08171" lon="3.75175">
        <ele>74</ele>
        <time>2018-03-29T16:33:32Z</time>
      </trkpt>
      <trkpt lat="49.08168" lon="3.75174">
        <ele>74</ele>
        <time>2018-03-29T16:34:32Z</time>
      </trkpt>
      <trkpt lat="49.08168" lon="3.75174">
        <ele>74</ele>
        <time>2018-03-29T16:35:32Z</time>
      </trkpt>
      <trkpt lat="49.08162" lon="3.75173">
        <ele>75</ele>
        <time>2018-03-29T16:36:32Z</time>
      </trkpt>
      <trkpt lat="49.08159" lon="3.75236">
        <ele>78</ele>
        <time>2018-03-29T16:37:32Z</time>
      </trkpt>
      <trkpt lat="49.08159" lon="3.75238">
        <ele>78</ele>
        <time>2018-03-29T16:38:32Z</time>
      </trkpt>
      <trkpt lat="49.08161" lon="3.75248">
        <ele>78</ele>
        <time>2018-03-29T16:39:32Z</time>
      </trkpt>
      <trkpt lat="49.0815" lon="3.75439">
        <ele>80</ele>
        <time>2018-03-29T16:40:32Z</time>
      </trkpt>
      <trkpt lat="49.08142" lon="3.7558">
        <ele>83</ele>
        <time>2018-03-29T16:41:32Z</time>
      </trkpt>
      <trkpt lat="49.0814" lon="3.75586">
        <ele>83</ele>
        <time>2018-03-29T16:42:32Z</time>
      </trkpt>
      <trkpt lat="49.0814" lon="3.75588">
        <ele>83</ele>
        <time>2018-03-29T16:43:32Z</time>
      </trkpt>
      <trkpt lat="49.08138" lon="3.75634">
        <ele>84</ele>
        <time>2018-03-29T16:44:32Z</time>
      </trkpt>
      <trkpt lat="49.08134" lon="3.75692">
        <ele>84</ele>
        <time>2018-03-29T16:45:32Z</time>
      </trkpt>
      <trkpt lat="49.08134" lon="3.75692">
        <ele>84</ele>
        <time>2018-03-29T16:46:32Z</time>
      </trkpt>
      <trkpt lat="49.08127" lon="3.75686">
        <ele>85</ele>
        <time>2018-03-29T16:47:32Z</time>
      </trkpt>
      <trkpt lat="49.08123" lon="3.75678">
        <ele>86</ele>
        <time>2018-03-29T16:48:32Z</time>
      </trkpt>
      <trkpt lat="49.0812" lon="3.75671">
        <ele>86</ele>
        <time>2018-03-29T16:49:32Z</time>
      </trkpt>
      <trkpt lat="49.08107" lon="3.75631">
        <ele>88</ele>
        <time>2018-03-29T16:50:32Z</time>
      </trkpt>
      <trkpt lat="49.08087" lon="3.75578">
        <ele>90</ele>
        <time>2018-03-29T16:51:32Z</time>
      </trkpt>
      <trkpt lat="49.08069" lon="3.75525">
        <ele>93</ele>
        <time>2018-03-29T16:52:32Z</time>
      </trkpt>
      <trkpt lat="49.08053" lon="3.75478">
        <ele>95</ele>
        <time>2018-03-29T16:53:32Z</time>
      </trkpt>
      <trkpt lat="49.08036" lon="3.75429">
        <ele>97</ele>
        <time>2018-03-29T16:54:32Z</time>
      </trkpt>
      <trkpt lat="49.08033" lon="3.75421">
        <ele>97</ele>
        <time>2018-03-29T16:55:32Z</time>
      </trkpt>
      <trkpt lat="49.08016" lon="3.7537">
        <ele>100</ele>
        <time>2018-03-29T16:56:32Z</time>
      </trkpt>
      <trkpt lat="49.07994" lon="3.75308">
        <ele>103</ele>
        <time>2018-03-29T16:57:32Z</time>
      </trkpt>
      <trkpt lat="49.07981" lon="3.75275">
        <ele>106</ele>
        <time>2018-03-29T16:58:32Z</time>
      </trkpt>
      <trkpt lat="49.07971" lon="3.75243">
        <ele>107</ele>
        <time>2018-03-29T16:59:32Z</time>
      </trkpt>
      <trkpt lat="49.0796" lon="3.75212">
        <ele>109</ele>
        <time>2018-03-29T17:00:32Z</time>
      </trkpt>
      <trkpt lat="49.07947" lon="3.7518">
        <ele>111</ele>
        <time>2018-03-29T17:01:32Z</time>
      </trkpt>
      <trkpt lat="49.07943" lon="3.75171">
        <ele>112</ele>
        <time>2018-03-29T17:02:32Z</time>
      </trkpt>
      <trkpt lat="49.07932" lon="3.75147">
        <ele>113</ele>
        <time>2018-03-29T17:03:32Z</time>
      </trkpt>
      <trkpt lat="49.07919" lon="3.75124">
        <ele>115</ele>
        <time>2018-03-29T17:04:32Z</time>
      </trkpt>
      <trkpt lat="49.07912" lon="3.75114">
        <ele>115</ele>
        <time>2018-03-29T17:05:32Z</time>
      </trkpt>
      <trkpt lat="49.07905" lon="3.75103">
        <ele>116</ele>
        <time>2018-03-29T17:06:32Z</time>
      </trkpt>
      <trkpt lat="49.07889" lon="3.75084">
        <ele>117</ele>
        <time>2018-03-29T17:07:32Z</time>
      </trkpt>
      <trkpt lat="49.07869" lon="3.75062">
        <ele>118</ele>
        <time>2018-03-29T17:08:32Z</time>
      </trkpt>
      <trkpt lat="49.07852" lon="3.75044">
        <ele>119</ele>
        <time>2018-03-29T17:09:32Z</time>
      </trkpt>
      <trkpt lat="49.07851" lon="3.75042">
        <ele>119</ele>
        <time>2018-03-29T17:10:32Z</time>
      </trkpt>
      <trkpt lat="49.0784" lon="3.75031">
        <ele>120</ele>
        <time>2018-03-29T17:11:32Z</time>
      </trkpt>
      <trkpt lat="49.0782" lon="3.75009">
        <ele>121</ele>
        <time>2018-03-29T17:12:32Z</time>
      </trkpt>
      <trkpt lat="49.0779" lon="3.74978">
        <ele>123</ele>
        <time>2018-03-29T17:13:32Z</time>
      </trkpt>
      <trkpt lat="49.07766" lon="3.74953">
        <ele>125</ele>
        <time>2018-03-29T17:14:32Z</time>
      </trkpt>
      <trkpt lat="49.07762" lon="3.7495">
        <ele>126</ele>
        <time>2018-03-29T17:15:32Z</time>
      </trkpt>
      <trkpt lat="49.07742" lon="3.74929">
        <ele>127</ele>
        <time>2018-03-29T17:16:32Z</time>
      </trkpt>
      <trkpt lat="49.07725" lon="3.74915">
        <ele>129</ele>
        <time>2018-03-29T17:17:32Z</time>
      </trkpt>
      <trkpt lat="49.07714" lon="3.74908">
        <ele>131</ele>
        <time>2018-03-29T17:18:32Z</time>
      </trkpt>
      <trkpt lat="49.07711" lon="3.74907">
        <ele>131</ele>
        <time>2018-03-29T17:19:32Z</time>
      </trkpt>
      <trkpt lat="49.07706" lon="3.74904">
        <ele>132</ele>
        <time>2018-03-29T17:20:32Z</time>
      </trkpt>
      <trkpt lat="49.07696" lon="3.74902">
        <ele>133</ele>
        <time>2018-03-29T17:21:32Z</time>
      </trkpt>
      <trkpt lat="49.07685" lon="3.749">
        <ele>134</ele>
        <time>2018-03-29T17:22:32Z</time>
      </trkpt>
      <trkpt lat="49.07671" lon="3.74899">
        <ele>136</ele>
        <time>2018-03-29T17:23:32Z</time>
      </trkpt>
      <trkpt lat="49.07663" lon="3.749">
        <ele>137</ele>
        <time>2018-03-29T17:24:32Z</time>
      </trkpt>
      <trkpt lat="49.07655" lon="3.74901">
        <ele>137</ele>
        <time>2018-03-29T17:25:32Z</time>
      </trkpt>
      <trkpt lat="49.07643" lon="3.74905">
        <ele>138</ele>
        <time>2018-03-29T17:26:32Z</time>
      </trkpt>
      <trkpt lat="49.07628" lon="3.74911">
        <ele>138</ele>
        <time>2018-03-29T17:27:32Z</time>
      </trkpt>
      <trkpt lat="49.07614" lon="3.7492">
        <ele>139</ele>
        <time>2018-03-29T17:28:32Z</time>
      </trkpt>
      <trkpt lat="49.07606" lon="3.74928">
        <ele>139</ele>
        <time>2018-03-29T17:29:32Z</time>
      </trkpt>
      <trkpt lat="49.076" lon="3.74935">
        <ele>140</ele>
        <time>2018-03-29T17:30:32Z</time>
      </trkpt>
      <trkpt lat="49.07587" lon="3.74952">
        <ele>140</ele>
        <time>2018-03-29T17:31:32Z</time>
      </trkpt>
      <trkpt lat="49.07564" lon="3.74981">
        <ele>141</ele>
        <time>2018-03-29T17:32:32Z</time>
      </trkpt>
      <trkpt lat="49.0756" lon="3.74988">
        <ele>141</ele>
        <time>2018-03-29T17:33:32Z</time>
      </trkpt>
      <trkpt lat="49.07542" lon="3.75014">
        <ele>141</ele>
        <time>2018-03-29T17:34:32Z</time>
      </trkpt>
      <trkpt lat="49.07537" lon="3.7502">
        <ele>142</ele>
        <time>2018-03-29T17:35:32Z</time>
      </trkpt>
      <trkpt lat="49.07503" lon="3.75069">
        <ele>143</ele>
        <time>2018-03-29T17:36:32Z</time>
      </trkpt>
      <trkpt lat="49.07454" lon="3.75137">
        <ele>143</ele>
        <time>2018-03-29T17:37:32Z</time>
      </trkpt>
      <trkpt lat="49.0741" lon="3.752">
        <ele>143</ele>
        <time>2018-03-29T17:38:32Z</time>
      </trkpt>
      <trkpt lat="49.07367" lon="3.75261">
        <ele>144</ele>
        <time>2018-03-29T17:39:32Z</time>
      </trkpt>
      <trkpt lat="49.07304" lon="3.7535">
        <ele>145</ele>
        <time>2018-03-29T17:40:32Z</time>
      </trkpt>
      <trkpt lat="49.07297" lon="3.75361">
        <ele>145</ele>
        <time>2018-03-29T17:41:32Z</time>
      </trkpt>
      <trkpt lat="49.07295" lon="3.75363">
        <ele>145</ele>
        <time>2018-03-29T17:42:32Z</time>
      </trkpt>
      <trkpt lat="49.07276" lon="3.75388">
        <ele>145</ele>
        <time>2018-03-29T17:43:32Z</time>
      </trkpt>
      <trkpt lat="49.0727" lon="3.75396">
        <ele>145</ele>
        <time>2018-03-29T17:44:32Z</time>
      </trkpt>
      <trkpt lat="49.07266" lon="3.75402">
        <ele>145</ele>
        <time>2018-03-29T17:45:32Z</time>
      </trkpt>
      <trkpt lat="49.07253" lon="3.7542">
        <ele>145</ele>
        <time>2018-03-29T17:46:32Z</time>
      </trkpt>
      <trkpt lat="49.0723" lon="3.75453">
        <ele>146</ele>
        <time>2018-03-29T17:47:32Z</time>
      </trkpt>
      <trkpt lat="49.07214" lon="3.75475">
        <ele>147</ele>
        <time>2018-03-29T17:48:32Z</time>
      </trkpt>
      <trkpt lat="49.0719" lon="3.75509">
        <ele>147</ele>
        <time>2018-03-29T17:49:32Z</time>
      </trkpt>
      <trkpt lat="49.07164" lon="3.75546">
        <ele>145</ele>
        <time>2018-03-29T17:50:32Z</time>
      </trkpt>
      <trkpt lat="49.07159" lon="3.75553">
        <ele>145</ele>
        <time>2018-03-29T17:51:32Z</time>
      </trkpt>
      <trkpt lat="49.0713" lon="3.75595">
        <ele>143</ele>
        <time>2018-03-29T17:52:32Z</time>
      </trkpt>
      <trkpt lat="49.07118" lon="3.75614">
        <ele>143</ele>
        <time>2018-03-29T17:53:32Z</time>
      </trkpt>
      <trkpt lat="49.07107" lon="3.75633">
        <ele>142</ele>
        <time>2018-03-29T17:54:32Z</time>
      </trkpt>
      <trkpt lat="49.07069" lon="3.75705">
        <ele>140</ele>
        <time>2018-03-29T17:55:32Z</time>
      </trkpt>
      <trkpt lat="49.07022" lon="3.75803">
        <ele>137</ele>
        <time>2018-03-29T17:56:32Z</time>
      </trkpt>
      <trkpt lat="49.07012" lon="3.7582">
        <ele>136</ele>
        <time>2018-03-29T17:57:32Z</time>
      </trkpt>
      <trkpt lat="49.07003" lon="3.75834">
        <ele>135</ele>
        <time>2018-03-29T17:58:32Z</time>
      </trkpt>
      <trkpt lat="49.06994" lon="3.75846">
        <ele>135</ele>
        <time>2018-03-29T17:59:32Z</time>
      </trkpt>
      <trkpt lat="49.06984" lon="3.75856">
        <ele>135</ele>
        <time>2018-03-29T18:00:32Z</time>
      </trkpt>
      <trkpt lat="49.06977" lon="3.75862">
        <ele>135</ele>
        <time>2018-03-29T18:01:32Z</time>
      </trkpt>
      <trkpt lat="49.06971" lon="3.75866">
        <ele>135</ele>
        <time>2018-03-29T18:02:32Z</time>
      </trkpt>
      <trkpt lat="49.06964" lon="3.75869">
        <ele>135</ele>
        <time>2018-03-29T18:03:32Z</time>
      </trkpt>
      <trkpt lat="49.06956" lon="3.75869">
        <ele>134</ele>
        <time>2018-03-29T18:04:32Z</time>
      </trkpt>
      <trkpt lat="49.0695" lon="3.75868">
        <ele>134</ele>
        <time>2018-03-29T18:05:32Z</time>
      </trkpt>
      <trkpt lat="49.06944" lon="3.75866">
        <ele>133</ele>
        <time>2018-03-29T18:06:32Z</time>
      </trkpt>
      <trkpt lat="49.06937" lon="3.75861">
        <ele>133</ele>
        <time>2018-03-29T18:07:32Z</time>
      </trkpt>
      <trkpt lat="49.0693" lon="3.75855">
        <ele>132</ele>
        <time>2018-03-29T18:08:32Z</time>
      </trkpt>
      <trkpt lat="49.06918" lon="3.75845">
        <ele>130</ele>
        <time>2018-03-29T18:09:32Z</time>
      </trkpt>
      <trkpt lat="49.06899" lon="3.75816">
        <ele>129</ele>
        <time>2018-03-29T18:10:32Z</time>
      </trkpt>
      <trkpt lat="49.06868" lon="3.75768">
        <ele>127</ele>
        <time>2018-03-29T18:11:32Z</time>
      </trkpt>
      <trkpt lat="49.06866" lon="3.75765">
        <ele>127</ele>
        <time>2018-03-29T18:12:32Z</time>
      </trkpt>
      <trkpt lat="49.06862" lon="3.75752">
        <ele>126</ele>
        <time>2018-03-29T18:13:32Z</time>
      </trkpt>
      <trkpt lat="49.06859" lon="3.75729">
        <ele>124</ele>
        <time>2018-03-29T18:14:32Z</time>
      </trkpt>
      <trkpt lat="49.06857" lon="3.75708">
        <ele>123</ele>
        <time>2018-03-29T18:15:32Z</time>
      </trkpt>
      <trkpt lat="49.06855" lon="3.75689">
        <ele>121</ele>
        <time>2018-03-29T18:16:32Z</time>
      </trkpt>
      <trkpt lat="49.06853" lon="3.75682">
        <ele>121</ele>
        <time>2018-03-29T18:17:32Z</time>
      </trkpt>
      <trkpt lat="49.0685" lon="3.75676">
        <ele>121</ele>
        <time>2018-03-29T18:18:32Z</time>
      </trkpt>
      <trkpt lat="49.06846" lon="3.7567">
        <ele>120</ele>
        <time>2018-03-29T18:19:32Z</time>
      </trkpt>
      <trkpt lat="49.06842" lon="3.75668">
        <ele>120</ele>
        <time>2018-03-29T18:20:32Z</time>
      </trkpt>
      <trkpt lat="49.06833" lon="3.75668">
        <ele>120</ele>
        <time>2018-03-29T18:21:32Z</time>
      </trkpt>
      <trkpt lat="49.06817" lon="3.75669">
        <ele>120</ele>
        <time>2018-03-29T18:22:32Z</time>
      </trkpt>
      <trkpt lat="49.06808" lon="3.75667">
        <ele>120</ele>
        <time>2018-03-29T18:23:32Z</time>
      </trkpt>
      <trkpt lat="49.06805" lon="3.75666">
        <ele>120</ele>
        <time>2018-03-29T18:24:32Z</time>
      </trkpt>
      <trkpt lat="49.06775" lon="3.75663">
        <ele>120</ele>
        <time>2018-03-29T18:25:32Z</time>
      </trkpt>
      <trkpt lat="49.06773" lon="3.75662">
        <ele>120</ele>
        <time>2018-03-29T18:26:32Z</time>
      </trkpt>
      <trkpt lat="49.0676" lon="3.75661">
        <ele>120</ele>
        <time>2018-03-29T18:27:32Z</time>
      </trkpt>
      <trkpt lat="49.06738" lon="3.75657">
        <ele>120</ele>
        <time>2018-03-29T18:28:32Z</time>
      </trkpt>
      <trkpt lat="49.06709" lon="3.75653">
        <ele>121</ele>
        <time>2018-03-29T18:29:32Z</time>
      </trkpt>
      <trkpt lat="49.06702" lon="3.75652">
        <ele>121</ele>
        <time>2018-03-29T18:30:32Z</time>
      </trkpt>
      <trkpt lat="49.06636" lon="3.75644">
        <ele>123</ele>
        <time>2018-03-29T18:31:32Z</time>
      </trkpt>
      <trkpt lat="49.06557" lon="3.75635">
        <ele>124</ele>
        <time>2018-03-29T18:32:32Z</time>
      </trkpt>
      <trkpt lat="49.06346" lon="3.75603">
        <ele>118</ele>
        <time>2018-03-29T18:33:32Z</time>
      </trkpt>
      <trkpt lat="49.06067" lon="3.75563">
        <ele>102</ele>
        <time>2018-03-29T18:34:32Z</time>
      </trkpt>
      <trkpt lat="49.06046" lon="3.7556">
        <ele>100</ele>
        <time>2018-03-29T18:35:32Z</time>
      </trkpt>
      <trkpt lat="49.06002" lon="3.75556">
        <ele>97</ele>
        <time>2018-03-29T18:36:32Z</time>
      </trkpt>
      <trkpt lat="49.05979" lon="3.75553">
        <ele>96</ele>
        <time>2018-03-29T18:37:32Z</time>
      </trkpt>
      <trkpt lat="49.05963" lon="3.7555">
        <ele>95</ele>
        <time>2018-03-29T18:38:32Z</time>
      </trkpt>
      <trkpt lat="49.05944" lon="3.75542">
        <ele>94</ele>
        <time>2018-03-29T18:39:32Z</time>
      </trkpt>
      <trkpt lat="49.05942" lon="3.7554">
        <ele>94</ele>
        <time>2018-03-29T18:40:32Z</time>
      </trkpt>
      <trkpt lat="49.05935" lon="3.75537">
        <ele>93</ele>
        <time>2018-03-29T18:41:32Z</time>
      </trkpt>
      <trkpt lat="49.05923" lon="3.75529">
        <ele>93</ele>
        <time>2018-03-29T18:42:32Z</time>
      </trkpt>
      <trkpt lat="49.05893" lon="3.75499">
        <ele>91</ele>
        <time>2018-03-29T18:43:32Z</time>
      </trkpt>
      <trkpt lat="49.05888" lon="3.75494">
        <ele>91</ele>
        <time>2018-03-29T18:44:32Z</time>
      </trkpt>
      <trkpt lat="49.05861" lon="3.7546">
        <ele>90</ele>
        <time>2018-03-29T18:45:32Z</time>
      </trkpt>
      <trkpt lat="49.05856" lon="3.75454">
        <ele>90</ele>
        <time>2018-03-29T18:46:32Z</time>
      </trkpt>
      <trkpt lat="49.05841" lon="3.75436">
        <ele>90</ele>
        <time>2018-03-29T18:47:32Z</time>
      </trkpt>
      <trkpt lat="49.05837" lon="3.7543">
        <ele>90</ele>
        <time>2018-03-29T18:48:32Z</time>
      </trkpt>
      <trkpt lat="49.05832" lon="3.75423">
        <ele>90</ele>
        <time>2018-03-29T18:49:32Z</time>
      </trkpt>
      <trkpt lat="49.05829" lon="3.7542">
        <ele>90</ele>
        <time>2018-03-29T18:50:32Z</time>
      </trkpt>
      <trkpt lat="49.05812" lon="3.75399">
        <ele>90</ele>
        <time>2018-03-29T18:51:32Z</time>
      </trkpt>
      <trkpt lat="49.05768" lon="3.75345">
        <ele>87</ele>
        <time>2018-03-29T18:52:32Z</time>
      </trkpt>
      <trkpt lat="49.05726" lon="3.75292">
        <ele>89</ele>
        <time>2018-03-29T18:53:32Z</time>
      </trkpt>
      <trkpt lat="49.05706" lon="3.75266">
        <ele>90</ele>
        <time>2018-03-29T18:54:32Z</time>
      </trkpt>
      <trkpt lat="49.05679" lon="3.75234">
        <ele>92</ele>
        <time>2018-03-29T18:55:32Z</time>
      </trkpt>
      <trkpt lat="49.05657" lon="3.75207">
        <ele>94</ele>
        <time>2018-03-29T18:56:32Z</time>
      </trkpt>
      <trkpt lat="49.05642" lon="3.75189">
        <ele>94</ele>
        <time>2018-03-29T18:57:32Z</time>
      </trkpt>
      <trkpt lat="49.05625" lon="3.75169">
        <ele>95</ele>
        <time>2018-03-29T18:58:32Z</time>
      </trkpt>
      <trkpt lat="49.05608" lon="3.75147">
        <ele>95</ele>
        <time>2018-03-29T18:59:32Z</time>
      </trkpt>
      <trkpt lat="49.05599" lon="3.75136">
        <ele>95</ele>
        <time>2018-03-29T19:00:32Z</time>
      </trkpt>
      <trkpt lat="49.05592" lon="3.75128">
        <ele>95</ele>
        <time>2018-03-29T19:01:32Z</time>
      </trkpt>
      <trkpt lat="49.05577" lon="3.75109">
        <ele>96</ele>
        <time>2018-03-29T19:02:32Z</time>
      </trkpt>
      <trkpt lat="49.05575" lon="3.75107">
        <ele>96</ele>
        <time>2018-03-29T19:03:32Z</time>
      </trkpt>
      <trkpt lat="49.05545" lon="3.7507">
        <ele>96</ele>
        <time>2018-03-29T19:04:32Z</time>
      </trkpt>
      <trkpt lat="49.05525" lon="3.75044">
        <ele>97</ele>
        <time>2018-03-29T19:05:32Z</time>
      </trkpt>
      <trkpt lat="49.05503" lon="3.75013">
        <ele>98</ele>
        <time>2018-03-29T19:06:32Z</time>
      </trkpt>
      <trkpt lat="49.05496" lon="3.75003">
        <ele>98</ele>
        <time>2018-03-29T19:07:32Z</time>
      </trkpt>
      <trkpt lat="49.05486" lon="3.74989">
        <ele>98</ele>
        <time>2018-03-29T19:08:32Z</time>
      </trkpt>
      <trkpt lat="49.05471" lon="3.74967">
        <ele>98</ele>
        <time>2018-03-29T19:09:32Z</time>
      </trkpt>
      <trkpt lat="49.05456" lon="3.74942">
        <ele>98</ele>
        <time>2018-03-29T19:10:32Z</time>
      </trkpt>
      <trkpt lat="49.05442" lon="3.7492">
        <ele>99</ele>
        <time>2018-03-29T19:11:32Z</time>
      </trkpt>
      <trkpt lat="49.05431" lon="3.74902">
        <ele>99</ele>
        <time>2018-03-29T19:12:32Z</time>
      </trkpt>
      <trkpt lat="49.0542" lon="3.74885">
        <ele>99</ele>
        <time>2018-03-29T19:13:32Z</time>
      </trkpt>
      <trkpt lat="49.05409" lon="3.74866">
        <ele>100</ele>
        <time>2018-03-29T19:14:32Z</time>
      </trkpt>
      <trkpt lat="49.05406" lon="3.74862">
        <ele>100</ele>
        <time>2018-03-29T19:15:32Z</time>
      </trkpt>
      <trkpt lat="49.05394" lon="3.7484">
        <ele>101</ele>
        <time>2018-03-29T19:16:32Z</time>
      </trkpt>
      <trkpt lat="49.05382" lon="3.7482">
        <ele>101</ele>
        <time>2018-03-29T19:17:32Z</time>
      </trkpt>
      <trkpt lat="49.0537" lon="3.74799">
        <ele>102</ele>
        <time>2018-03-29T19:18:32Z</time>
      </trkpt>
      <trkpt lat="49.05352" lon="3.74767">
        <ele>102</ele>
        <time>2018-03-29T19:19:32Z</time>
      </trkpt>
      <trkpt lat="49.05349" lon="3.7476">
        <ele>102</ele>
        <time>2018-03-29T19:20:32Z</time>
      </trkpt>
      <trkpt lat="49.0534" lon="3.74745">
        <ele>102</ele>
        <time>2018-03-29T19:21:32Z</time>
      </trkpt>
      <trkpt lat="49.0533" lon="3.74726">
        <ele>102</ele>
        <time>2018-03-29T19:22:32Z</time>
      </trkpt>
      <trkpt lat="49.05315" lon="3.74699">
        <ele>103</ele>
        <time>2018-03-29T19:23:32Z</time>
      </trkpt>
      <trkpt lat="49.053" lon="3.7467">
        <ele>103</ele>
        <time>2018-03-29T19:24:32Z</time>
      </trkpt>
      <trkpt lat="49.05287" lon="3.7465">
        <ele>104</ele>
        <time>2018-03-29T19:25:32Z</time>
      </trkpt>
      <trkpt lat="49.05274" lon="3.74627">
        <ele>104</ele>
        <time>2018-03-29T19:26:32Z</time>
      </trkpt>
      <trkpt lat="49.05272" lon="3.74624">
        <ele>104</ele>
        <time>2018-03-29T19:27:32Z</time>
      </trkpt>
      <trkpt lat="49.05264" lon="3.74609">
        <ele>104</ele>
        <time>2018-03-29T19:28:32Z</time>
      </trkpt>
      <trkpt lat="49.05254" lon="3.74589">
        <ele>103</ele>
        <time>2018-03-29T19:29:32Z</time>
      </trkpt>
      <trkpt lat="49.0525" lon="3.74579">
        <ele>103</ele>
        <time>2018-03-29T19:30:32Z</time>
      </trkpt>
      <trkpt lat="49.05245" lon="3.74568">
        <ele>104</ele>
        <time>2018-03-29T19:31:32Z</time>
      </trkpt>
      <trkpt lat="49.0524" lon="3.74554">
        <ele>104</ele>
        <time>2018-03-29T19:32:32Z</time>
      </trkpt>
      <trkpt lat="49.05238" lon="3.74548">
        <ele>105</ele>
        <time>2018-03-29T19:33:32Z</time>
      </trkpt>
      <trkpt lat="49.05229" lon="3.74524">
        <ele>106</ele>
        <time>2018-03-29T19:34:32Z</time>
      </trkpt>
      <trkpt lat="49.05219" lon="3.745">
        <ele>106</ele>
        <time>2018-03-29T19:35:32Z</time>
      </trkpt>
      <trkpt lat="49.05212" lon="3.74483">
        <ele>107</ele>
        <time>2018-03-29T19:36:32Z</time>
      </trkpt>
      <trkpt lat="49.05202" lon="3.74468">
        <ele>107</ele>
        <time>2018-03-29T19:37:32Z</time>
      </trkpt>
      <trkpt lat="49.05188" lon="3.74449">
        <ele>108</ele>
        <time>2018-03-29T19:38:32Z</time>
      </trkpt>
      <trkpt lat="49.0517" lon="3.74424">
        <ele>108</ele>
        <time>2018-03-29T19:39:32Z</time>
      </trkpt>
      <trkpt lat="49.05163" lon="3.74413">
        <ele>108</ele>
        <time>2018-03-29T19:40:32Z</time>
      </trkpt>
      <trkpt lat="49.05142" lon="3.74383">
        <ele>108</ele>
        <time>2018-03-29T19:41:32Z</time>
      </trkpt>
      <trkpt lat="49.05133" lon="3.74369">
        <ele>108</ele>
        <time>2018-03-29T19:42:32Z</time>
      </trkpt>
      <trkpt lat="49.05129" lon="3.74359">
        <ele>108</ele>
        <time>2018-03-29T19:43:32Z</time>
      </trkpt>
      <trkpt lat="49.05124" lon="3.74344">
        <ele>108</ele>
        <time>2018-03-29T19:44:32Z</time>
      </trkpt>
      <trkpt lat="49.05123" lon="3.74338">
        <ele>108</ele>
        <time>2018-03-29T19:45:32Z</time>
      </trkpt>
      <trkpt lat="49.05114" lon="3.74304">
        <ele>108</ele>
        <time>2018-03-29T19:46:32Z</time>
      </trkpt>
      <trkpt lat="49.05107" lon="3.74274">
        <ele>107</ele>
        <time>2018-03-29T19:47:32Z</time>
      </trkpt>
      <trkpt lat="49.05092" lon="3.74215">
        <ele>106</ele>
        <time>2018-03-29T19:48:32Z</time>
      </trkpt>
      <trkpt lat="49.05079" lon="3.74161">
        <ele>105</ele>
        <time>2018-03-29T19:49:32Z</time>
      </trkpt>
      <trkpt lat="49.05069" lon="3.74126">
        <ele>106</ele>
        <time>2018-03-29T19:50:32Z</time>
      </trkpt>
      <trkpt lat="49.05068" lon="3.74121">
        <ele>106</ele>
        <time>2018-03-29T19:51:32Z</time>
      </trkpt>
      <trkpt lat="49.05056" lon="3.74076">
        <ele>107</ele>
        <time>2018-03-29T19:52:32Z</time>
      </trkpt>
      <trkpt lat="49.05042" lon="3.74015">
        <ele>107</ele>
        <time>2018-03-29T19:53:32Z</time>
      </trkpt>
      <trkpt lat="49.05028" lon="3.73957">
        <ele>107</ele>
        <time>2018-03-29T19:54:32Z</time>
      </trkpt>
      <trkpt lat="49.05011" lon="3.73888">
        <ele>107</ele>
        <time>2018-03-29T19:55:32Z</time>
      </trkpt>
      <trkpt lat="49.04999" lon="3.73849">
        <ele>106</ele>
        <time>2018-03-29T19:56:32Z</time>
      </trkpt>
      <trkpt lat="49.04993" lon="3.7383">
        <ele>106</ele>
        <time>2018-03-29T19:57:32Z</time>
      </trkpt>
      <trkpt lat="49.04986" lon="3.73817">
        <ele>106</ele>
        <time>2018-03-29T19:58:32Z</time>
      </trkpt>
      <trkpt lat="49.04978" lon="3.73802">
        <ele>106</ele>
        <time>2018-03-29T19:59:32Z</time>
      </trkpt>
      <trkpt lat="49.04969" lon="3.73791">
        <ele>106</ele>
        <time>2018-03-29T20:00:32Z</time>
      </trkpt>
      <trkpt lat="49.04968" lon="3.73791">
        <ele>106</ele>
        <time>2018-03-29T20:01:32Z</time>
      </trkpt>
      <trkpt lat="49.04964" lon="3.73786">
        <ele>106</ele>
        <time>2018-03-29T20:02:32Z</time>
      </trkpt>
      <trkpt lat="49.0496" lon="3.73782">
        <ele>106</ele>
        <time>2018-03-29T20:03:32Z</time>
      </trkpt>
      <trkpt lat="49.04959" lon="3.7378">
        <ele>106</ele>
        <time>2018-03-29T20:04:32Z</time>
      </trkpt>
      <trkpt lat="49.04927" lon="3.73747">
        <ele>105</ele>
        <time>2018-03-29T20:05:32Z</time>
      </trkpt>
      <trkpt lat="49.04858" lon="3.73676">
        <ele>108</ele>
        <time>2018-03-29T20:06:32Z</time>
      </trkpt>
      <trkpt lat="49.04843" lon="3.7366">
        <ele>108</ele>
        <time>2018-03-29T20:07:32Z</time>
      </trkpt>
      <trkpt lat="49.04815" lon="3.7363">
        <ele>111</ele>
        <time>2018-03-29T20:08:32Z</time>
      </trkpt>
      <trkpt lat="49.04791" lon="3.73606">
        <ele>114</ele>
        <time>2018-03-29T20:09:32Z</time>
      </trkpt>
      <trkpt lat="49.04769" lon="3.73583">
        <ele>116</ele>
        <time>2018-03-29T20:10:32Z</time>
      </trkpt>
      <trkpt lat="49.04753" lon="3.73562">
        <ele>117</ele>
        <time>2018-03-29T20:11:32Z</time>
      </trkpt>
      <trkpt lat="49.04743" lon="3.73549">
        <ele>118</ele>
        <time>2018-03-29T20:12:32Z</time>
      </trkpt>
      <trkpt lat="49.04736" lon="3.73537">
        <ele>119</ele>
        <time>2018-03-29T20:13:32Z</time>
      </trkpt>
      <trkpt lat="49.04728" lon="3.73525">
        <ele>120</ele>
        <time>2018-03-29T20:14:32Z</time>
      </trkpt>
      <trkpt lat="49.0472" lon="3.7351">
        <ele>121</ele>
        <time>2018-03-29T20:15:32Z</time>
      </trkpt>
      <trkpt lat="49.04712" lon="3.73495">
        <ele>121</ele>
        <time>2018-03-29T20:16:32Z</time>
      </trkpt>
      <trkpt lat="49.04698" lon="3.73467">
        <ele>123</ele>
        <time>2018-03-29T20:17:32Z</time>
      </trkpt>
      <trkpt lat="49.04678" lon="3.73422">
        <ele>126</ele>
        <time>2018-03-29T20:18:32Z</time>
      </trkpt>
      <trkpt lat="49.04671" lon="3.73407">
        <ele>126</ele>
        <time>2018-03-29T20:19:32Z</time>
      </trkpt>
      <trkpt lat="49.04662" lon="3.73388">
        <ele>127</ele>
        <time>2018-03-29T20:20:32Z</time>
      </trkpt>
      <trkpt lat="49.04651" lon="3.73366">
        <ele>128</ele>
        <time>2018-03-29T20:21:32Z</time>
      </trkpt>
      <trkpt lat="49.04646" lon="3.73353">
        <ele>128</ele>
        <time>2018-03-29T20:22:32Z</time>
      </trkpt>
      <trkpt lat="49.04643" lon="3.73347">
        <ele>129</ele>
        <time>2018-03-29T20:23:32Z</time>
      </trkpt>
      <trkpt lat="49.04635" lon="3.73332">
        <ele>129</ele>
        <time>2018-03-29T20:24:32Z</time>
      </trkpt>
      <trkpt lat="49.04626" lon="3.73316">
        <ele>130</ele>
        <time>2018-03-29T20:25:32Z</time>
      </trkpt>
      <trkpt lat="49.04618" lon="3.73306">
        <ele>130</ele>
        <time>2018-03-29T20:26:32Z</time>
      </trkpt>
      <trkpt lat="49.04607" lon="3.73294">
        <ele>131</ele>
        <time>2018-03-29T20:27:32Z</time>
      </trkpt>
      <trkpt lat="49.04596" lon="3.73284">
        <ele>132</ele>
        <time>2018-03-29T20:28:32Z</time>
      </trkpt>
      <trkpt lat="49.04585" lon="3.73276">
        <ele>132</ele>
        <time>2018-03-29T20:29:32Z</time>
      </trkpt>
      <trkpt lat="49.04562" lon="3.73262">
        <ele>134</ele>
        <time>2018-03-29T20:30:32Z</time>
      </trkpt>
      <trkpt lat="49.04554" lon="3.73257">
        <ele>134</ele>
        <time>2018-03-29T20:31:32Z</time>
      </trkpt>
      <trkpt lat="49.04547" lon="3.73253">
        <ele>134</ele>
        <time>2018-03-29T20:32:32Z</time>
      </trkpt>
      <trkpt lat="49.04518" lon="3.73233">
        <ele>136</ele>
        <time>2018-03-29T20:33:32Z</time>
      </trkpt>
      <trkpt lat="49.04495" lon="3.73218">
        <ele>137</ele>
        <time>2018-03-29T20:34:32Z</time>
      </trkpt>
      <trkpt lat="49.04476" lon="3.73206">
        <ele>138</ele>
        <time>2018-03-29T20:35:32Z</time>
      </trkpt>
      <trkpt lat="49.04433" lon="3.73177">
        <ele>142</ele>
        <time>2018-03-29T20:36:32Z</time>
      </trkpt>
      <trkpt lat="49.04414" lon="3.73165">
        <ele>143</ele>
        <time>2018-03-29T20:37:32Z</time>
      </trkpt>
      <trkpt lat="49.04406" lon="3.7316">
        <ele>144</ele>
        <time>2018-03-29T20:38:32Z</time>
      </trkpt>
      <trkpt lat="49.04392" lon="3.7315">
        <ele>145</ele>
        <time>2018-03-29T20:39:32Z</time>
      </trkpt>
      <trkpt lat="49.04372" lon="3.73138">
        <ele>146</ele>
        <time>2018-03-29T20:40:32Z</time>
      </trkpt>
      <trkpt lat="49.04354" lon="3.73126">
        <ele>147</ele>
        <time>2018-03-29T20:41:32Z</time>
      </trkpt>
      <trkpt lat="49.04332" lon="3.73111">
        <ele>148</ele>
        <time>2018-03-29T20:42:32Z</time>
      </trkpt>
      <trkpt lat="49.04329" lon="3.73109">
        <ele>148</ele>
        <time>2018-03-29T20:43:32Z</time>
      </trkpt>
      <trkpt lat="49.04294" lon="3.73089">
        <ele>149</ele>
        <time>2018-03-29T20:44:32Z</time>
      </trkpt>
      <trkpt lat="49.04287" lon="3.73085">
        <ele>149</ele>
        <time>2018-03-29T20:45:32Z</time>
      </trkpt>
      <trkpt lat="49.04259" lon="3.73071">
        <ele>152</ele>
        <time>2018-03-29T20:46:32Z</time>
      </trkpt>
      <trkpt lat="49.04254" lon="3.73068">
        <ele>152</ele>
        <time>2018-03-29T20:47:32Z</time>
      </trkpt>
      <trkpt lat="49.04227" lon="3.73056">
        <ele>154</ele>
        <time>2018-03-29T20:48:32Z</time>
      </trkpt>
      <trkpt lat="49.04179" lon="3.73032">
        <ele>158</ele>
        <time>2018-03-29T20:49:32Z</time>
      </trkpt>
      <trkpt lat="49.04131" lon="3.7301">
        <ele>161</ele>
        <time>2018-03-29T20:50:32Z</time>
      </trkpt>
      <trkpt lat="49.04124" lon="3.73007">
        <ele>161</ele>
        <time>2018-03-29T20:51:32Z</time>
      </trkpt>
      <trkpt lat="49.04106" lon="3.72999">
        <ele>162</ele>
        <time>2018-03-29T20:52:32Z</time>
      </trkpt>
      <trkpt lat="49.04095" lon="3.72995">
        <ele>163</ele>
        <time>2018-03-29T20:53:32Z</time>
      </trkpt>
      <trkpt lat="49.04084" lon="3.72991">
        <ele>164</ele>
        <time>2018-03-29T20:54:32Z</time>
      </trkpt>
      <trkpt lat="49.04073" lon="3.7299">
        <ele>165</ele>
        <time>2018-03-29T20:55:32Z</time>
      </trkpt>
      <trkpt lat="49.04063" lon="3.72989">
        <ele>166</ele>
        <time>2018-03-29T20:56:32Z</time>
      </trkpt>
      <trkpt lat="49.0404" lon="3.72989">
        <ele>167</ele>
        <time>2018-03-29T20:57:32Z</time>
      </trkpt>
      <trkpt lat="49.04034" lon="3.72989">
        <ele>167</ele>
        <time>2018-03-29T20:58:32Z</time>
      </trkpt>
      <trkpt lat="49.03998" lon="3.72989">
        <ele>170</ele>
        <time>2018-03-29T20:59:32Z</time>
      </trkpt>
      <trkpt lat="49.03978" lon="3.72989">
        <ele>170</ele>
        <time>2018-03-29T21:00:32Z</time>
      </trkpt>
      <trkpt lat="49.03963" lon="3.72988">
        <ele>170</ele>
        <time>2018-03-29T21:01:32Z</time>
      </trkpt>
      <trkpt lat="49.03949" lon="3.72986">
        <ele>170</ele>
        <time>2018-03-29T21:02:32Z</time>
      </trkpt>
      <trkpt lat="49.03936" lon="3.72982">
        <ele>171</ele>
        <time>2018-03-29T21:03:32Z</time>
      </trkpt>
      <trkpt lat="49.03923" lon="3.72976">
        <ele>172</ele>
        <time>2018-03-29T21:04:32Z</time>
      </trkpt>
      <trkpt lat="49.03909" lon="3.72967">
        <ele>173</ele>
        <time>2018-03-29T21:05:32Z</time>
      </trkpt>
      <trkpt lat="49.03895" lon="3.72957">
        <ele>174</ele>
        <time>2018-03-29T21:06:32Z</time>
      </trkpt>
      <trkpt lat="49.03879" lon="3.72943">
        <ele>176</ele>
        <time>2018-03-29T21:07:32Z</time>
      </trkpt>
      <trkpt lat="49.03865" lon="3.72929">
        <ele>177</ele>
        <time>2018-03-29T21:08:32Z</time>
      </trkpt>
      <trkpt lat="49.03853" lon="3.72917">
        <ele>178</ele>
        <time>2018-03-29T21:09:32Z</time>
      </trkpt>
      <trkpt lat="49.03847" lon="3.7291">
        <ele>178</ele>
        <time>2018-03-29T21:10:32Z</time>
      </trkpt>
      <trkpt lat="49.03841" lon="3.72903">
        <ele>179</ele>
        <time>2018-03-29T21:11:32Z</time>
      </trkpt>
      <trkpt lat="49.03829" lon="3.72888">
        <ele>180</ele>
        <time>2018-03-29T21:12:32Z</time>
      </trkpt>
      <trkpt lat="49.03811" lon="3.72863">
        <ele>182</ele>
        <time>2018-03-29T21:13:32Z</time>
      </trkpt>
      <trkpt lat="49.03746" lon="3.72773">
        <ele>189</ele>
        <time>2018-03-29T21:14:32Z</time>
      </trkpt>
      <trkpt lat="49.03706" lon="3.72716">
        <ele>195</ele>
        <time>2018-03-29T21:15:32Z</time>
      </trkpt>
      <trkpt lat="49.03703" lon="3.72712">
        <ele>195</ele>
        <time>2018-03-29T21:16:32Z</time>
      </trkpt>
      <trkpt lat="49.03684" lon="3.72685">
        <ele>198</ele>
        <time>2018-03-29T21:17:32Z</time>
      </trkpt>
      <trkpt lat="49.03665" lon="3.72659">
        <ele>200</ele>
        <time>2018-03-29T21:18:32Z</time>
      </trkpt>
      <trkpt lat="49.03658" lon="3.72648">
        <ele>202</ele>
        <time>2018-03-29T21:19:32Z</time>
      </trkpt>
      <trkpt lat="49.03605" lon="3.72573">
        <ele>212</ele>
        <time>2018-03-29T21:20:32Z</time>
      </trkpt>
      <trkpt lat="49.03595" lon="3.72559">
        <ele>214</ele>
        <time>2018-03-29T21:21:32Z</time>
      </trkpt>
      <trkpt lat="49.03542" lon="3.72484">
        <ele>219</ele>
        <time>2018-03-29T21:22:32Z</time>
      </trkpt>
      <trkpt lat="49.03512" lon="3.72441">
        <ele>221</ele>
        <time>2018-03-29T21:23:32Z</time>
      </trkpt>
      <trkpt lat="49.03509" lon="3.72437">
        <ele>221</ele>
        <time>2018-03-29T21:24:32Z</time>
      </trkpt>
      <trkpt lat="49.03504" lon="3.72429">
        <ele>221</ele>
        <time>2018-03-29T21:25:32Z</time>
      </trkpt>
      <trkpt lat="49.03458" lon="3.72368">
        <ele>223</ele>
        <time>2018-03-29T21:26:32Z</time>
      </trkpt>
      <trkpt lat="49.03437" lon="3.72339">
        <ele>224</ele>
        <time>2018-03-29T21:27:32Z</time>
      </trkpt>
      <trkpt lat="49.03423" lon="3.72321">
        <ele>224</ele>
        <time>2018-03-29T21:28:32Z</time>
      </trkpt>
      <trkpt lat="49.03408" lon="3.72302">
        <ele>224</ele>
        <time>2018-03-29T21:29:32Z</time>
      </trkpt>
      <trkpt lat="49.03397" lon="3.72289">
        <ele>224</ele>
        <time>2018-03-29T21:30:32Z</time>
      </trkpt>
      <trkpt lat="49.03387" lon="3.72278">
        <ele>224</ele>
        <time>2018-03-29T21:31:32Z</time>
      </trkpt>
      <trkpt lat="49.03385" lon="3.72277">
        <ele>224</ele>
        <time>2018-03-29T21:32:32Z</time>
      </trkpt>
      <trkpt lat="49.03382" lon="3.72275">
        <ele>224</ele>
        <time>2018-03-29T21:33:32Z</time>
      </trkpt>
      <trkpt lat="49.03378" lon="3.72272">
        <ele>224</ele>
        <time>2018-03-29T21:34:32Z</time>
      </trkpt>
      <trkpt lat="49.03294" lon="3.72204">
        <ele>225</ele>
        <time>2018-03-29T21:35:32Z</time>
      </trkpt>
      <trkpt lat="49.03225" lon="3.7215">
        <ele>226</ele>
        <time>2018-03-29T21:36:32Z</time>
      </trkpt>
      <trkpt lat="49.03221" lon="3.72147">
        <ele>226</ele>
        <time>2018-03-29T21:37:32Z</time>
      </trkpt>
      <trkpt lat="49.03207" lon="3.72136">
        <ele>227</ele>
        <time>2018-03-29T21:38:32Z</time>
      </trkpt>
      <trkpt lat="49.03165" lon="3.72103">
        <ele>229</ele>
        <time>2018-03-29T21:39:32Z</time>
      </trkpt>
      <trkpt lat="49.0311" lon="3.72059">
        <ele>230</ele>
        <time>2018-03-29T21:40:32Z</time>
      </trkpt>
      <trkpt lat="49.03098" lon="3.72049">
        <ele>230</ele>
        <time>2018-03-29T21:41:32Z</time>
      </trkpt>
      <trkpt lat="49.03072" lon="3.72029">
        <ele>231</ele>
        <time>2018-03-29T21:42:32Z</time>
      </trkpt>
      <trkpt lat="49.03049" lon="3.7201">
        <ele>231</ele>
        <time>2018-03-29T21:43:32Z</time>
      </trkpt>
      <trkpt lat="49.03034" lon="3.71998">
        <ele>232</ele>
        <time>2018-03-29T21:44:32Z</time>
      </trkpt>
      <trkpt lat="49.03023" lon="3.71989">
        <ele>232</ele>
        <time>2018-03-29T21:45:32Z</time>
      </trkpt>
      <trkpt lat="49.03012" lon="3.71981">
        <ele>232</ele>
        <time>2018-03-29T21:46:32Z</time>
      </trkpt>
      <trkpt lat="49.03001" lon="3.71974">
        <ele>232</ele>
        <time>2018-03-29T21:47:32Z</time>
      </trkpt>
      <trkpt lat="49.0299" lon="3.71968">
        <ele>232</ele>
        <time>2018-03-29T21:48:32Z</time>
      </trkpt>
      <trkpt lat="49.02978" lon="3.71962">
        <ele>231</ele>
        <time>2018-03-29T21:49:32Z</time>
      </trkpt>
      <trkpt lat="49.02964" lon="3.71954">
        <ele>231</ele>
        <time>2018-03-29T21:50:32Z</time>
      </trkpt>
      <trkpt lat="49.0291" lon="3.71929">
        <ele>231</ele>
        <time>2018-03-29T21:51:32Z</time>
      </trkpt>
      <trkpt lat="49.02859" lon="3.71904">
        <ele>230</ele>
        <time>2018-03-29T21:52:32Z</time>
      </trkpt>
      <trkpt lat="49.02808" lon="3.7188">
        <ele>230</ele>
        <time>2018-03-29T21:53:32Z</time>
      </trkpt>
      <trkpt lat="49.02761" lon="3.71859">
        <ele>229</ele>
        <time>2018-03-29T21:54:32Z</time>
      </trkpt>
      <trkpt lat="49.02753" lon="3.71855">
        <ele>229</ele>
        <time>2018-03-29T21:55:32Z</time>
      </trkpt>
      <trkpt lat="49.02687" lon="3.71825">
        <ele>228</ele>
        <time>2018-03-29T21:56:32Z</time>
      </trkpt>
      <trkpt lat="49.02682" lon="3.71822">
        <ele>228</ele>
        <time>2018-03-29T21:57:32Z</time>
      </trkpt>
      <trkpt lat="49.0268" lon="3.71821">
        <ele>228</ele>
        <time>2018-03-29T21:58:32Z</time>
      </trkpt>
      <trkpt lat="49.02634" lon="3.71799">
        <ele>228</ele>
        <time>2018-03-29T21:59:32Z</time>
      </trkpt>
      <trkpt lat="49.02575" lon="3.71771">
        <ele>228</ele>
        <time>2018-03-29T22:00:32Z</time>
      </trkpt>
      <trkpt lat="49.02551" lon="3.7176">
        <ele>227</ele>
        <time>2018-03-29T22:01:32Z</time>
      </trkpt>
      <trkpt lat="49.02515" lon="3.71743">
        <ele>227</ele>
        <time>2018-03-29T22:02:32Z</time>
      </trkpt>
      <trkpt lat="49.02512" lon="3.71741">
        <ele>227</ele>
        <time>2018-03-29T22:03:32Z</time>
      </trkpt>
      <trkpt lat="49.02463" lon="3.71718">
        <ele>226</ele>
        <time>2018-03-29T22:04:32Z</time>
      </trkpt>
      <trkpt lat="49.02392" lon="3.71685">
        <ele>227</ele>
        <time>2018-03-29T22:05:32Z</time>
      </trkpt>
      <trkpt lat="49.02333" lon="3.71657">
        <ele>227</ele>
        <time>2018-03-29T22:06:32Z</time>
      </trkpt>
      <trkpt lat="49.02309" lon="3.71646">
        <ele>225</ele>
        <time>2018-03-29T22:07:32Z</time>
      </trkpt>
      <trkpt lat="49.02289" lon="3.71637">
        <ele>225</ele>
        <time>2018-03-29T22:08:32Z</time>
      </trkpt>
      <trkpt lat="49.02282" lon="3.71634">
        <ele>224</ele>
        <time>2018-03-29T22:09:32Z</time>
      </trkpt>
      <trkpt lat="49.02226" lon="3.71609">
        <ele>222</ele>
        <time>2018-03-29T22:10:32Z</time>
      </trkpt>
      <trkpt lat="49.02201" lon="3.71598">
        <ele>221</ele>
        <time>2018-03-29T22:11:32Z</time>
      </trkpt>
      <trkpt lat="49.02193" lon="3.71594">
        <ele>220</ele>
        <time>2018-03-29T22:12:32Z</time>
      </trkpt>
      <trkpt lat="49.02186" lon="3.71591">
        <ele>220</ele>
        <time>2018-03-29T22:13:32Z</time>
      </trkpt>
      <trkpt lat="49.02147" lon="3.71573">
        <ele>218</ele>
        <time>2018-03-29T22:14:32Z</time>
      </trkpt>
      <trkpt lat="49.02116" lon="3.71558">
        <ele>217</ele>
        <time>2018-03-29T22:15:32Z</time>
      </trkpt>
      <trkpt lat="49.02022" lon="3.71527">
        <ele>215</ele>
        <time>2018-03-29T22:16:32Z</time>
      </trkpt>
      <trkpt lat="49.02009" lon="3.71522">
        <ele>215</ele>
        <time>2018-03-29T22:17:32Z</time>
      </trkpt>
      <trkpt lat="49.02003" lon="3.71521">
        <ele>215</ele>
        <time>2018-03-29T22:18:32Z</time>
      </trkpt>
      <trkpt lat="49.01999" lon="3.7152">
        <ele>215</ele>
        <time>2018-03-29T22:19:32Z</time>
      </trkpt>
      <trkpt lat="49.01987" lon="3.7152">
        <ele>215</ele>
        <time>2018-03-29T22:20:32Z</time>
      </trkpt>
      <trkpt lat="49.01978" lon="3.71521">
        <ele>215</ele>
        <time>2018-03-29T22:21:32Z</time>
      </trkpt>
      <trkpt lat="49.01959" lon="3.71523">
        <ele>215</ele>
        <time>2018-03-29T22:22:32Z</time>
      </trkpt>
      <trkpt lat="49.01952" lon="3.71521">
        <ele>215</ele>
        <time>2018-03-29T22:23:32Z</time>
      </trkpt>
      <trkpt lat="49.01945" lon="3.71518">
        <ele>215</ele>
        <time>2018-03-29T22:24:32Z</time>
      </trkpt>
      <trkpt lat="49.01938" lon="3.71515">
        <ele>215</ele>
        <time>2018-03-29T22:25:32Z</time>
      </trkpt>
      <trkpt lat="49.01936" lon="3.71515">
        <ele>215</ele>
        <time>2018-03-29T22:26:32Z</time>
      </trkpt>
      <trkpt lat="49.01918" lon="3.71506">
        <ele>215</ele>
        <time>2018-03-29T22:27:32Z</time>
      </trkpt>
      <trkpt lat="49.01902" lon="3.71497">
        <ele>215</ele>
        <time>2018-03-29T22:28:32Z</time>
      </trkpt>
      <trkpt lat="49.01896" lon="3.71492">
        <ele>215</ele>
        <time>2018-03-29T22:29:32Z</time>
      </trkpt>
      <trkpt lat="49.01894" lon="3.7149">
        <ele>215</ele>
        <time>2018-03-29T22:30:32Z</time>
      </trkpt>
      <trkpt lat="49.01891" lon="3.71487">
        <ele>215</ele>
        <time>2018-03-29T22:31:32Z</time>
      </trkpt>
      <trkpt lat="49.01889" lon="3.71484">
        <ele>215</ele>
        <time>2018-03-29T22:32:32Z</time>
      </trkpt>
      <trkpt lat="49.01889" lon="3.71481">
        <ele>215</ele>
        <time>2018-03-29T22:33:32Z</time>
      </trkpt>
      <trkpt lat="49.01887" lon="3.71471">
        <ele>214</ele>
        <time>2018-03-29T22:34:32Z</time>
      </trkpt>
      <trkpt lat="49.01883" lon="3.71451">
        <ele>213</ele>
        <time>2018-03-29T22:35:32Z</time>
      </trkpt>
      <trkpt lat="49.01881" lon="3.71436">
        <ele>213</ele>
        <time>2018-03-29T22:36:32Z</time>
      </trkpt>
      <trkpt lat="49.0188" lon="3.71432">
        <ele>213</ele>
        <time>2018-03-29T22:37:32Z</time>
      </trkpt>
      <trkpt lat="49.01879" lon="3.71428">
        <ele>212</ele>
        <time>2018-03-29T22:38:32Z</time>
      </trkpt>
      <trkpt lat="49.01877" lon="3.71422">
        <ele>212</ele>
        <time>2018-03-29T22:39:32Z</time>
      </trkpt>
      <trkpt lat="49.01874" lon="3.71416">
        <ele>212</ele>
        <time>2018-03-29T22:40:32Z</time>
      </trkpt>
      <trkpt lat="49.01871" lon="3.71406">
        <ele>212</ele>
        <time>2018-03-29T22:41:32Z</time>
      </trkpt>
      <trkpt lat="49.01849" lon="3.71353">
        <ele>212</ele>
        <time>2018-03-29T22:42:32Z</time>
      </trkpt>
      <trkpt lat="49.01847" lon="3.71348">
        <ele>212</ele>
        <time>2018-03-29T22:43:32Z</time>
      </trkpt>
      <trkpt lat="49.01809" lon="3.71272">
        <ele>214</ele>
        <time>2018-03-29T22:44:32Z</time>
      </trkpt>
      <trkpt lat="49.01771" lon="3.71184">
        <ele>215</ele>
        <time>2018-03-29T22:45:32Z</time>
      </trkpt>
      <trkpt lat="49.01771" lon="3.71184">
        <ele>215</ele>
        <time>2018-03-29T22:46:32Z</time>
      </trkpt>
      <trkpt lat="49.01768" lon="3.71174">
        <ele>215</ele>
        <time>2018-03-29T22:47:32Z</time>
      </trkpt>
      <trkpt lat="49.0176" lon="3.71181">
        <ele>216</ele>
        <time>2018-03-29T22:48:32Z</time>
      </trkpt>
      <trkpt lat="49.01751" lon="3.71186">
        <ele>216</ele>
        <time>2018-03-29T22:49:32Z</time>
      </trkpt>
      <trkpt lat="49.01737" lon="3.71194">
        <ele>217</ele>
        <time>2018-03-29T22:50:32Z</time>
      </trkpt>
      <trkpt lat="49.01719" lon="3.71203">
        <ele>218</ele>
        <time>2018-03-29T22:51:32Z</time>
      </trkpt>
      <trkpt lat="49.01708" lon="3.71208">
        <ele>219</ele>
        <time>2018-03-29T22:52:32Z</time>
      </trkpt>
      <trkpt lat="49.01708" lon="3.71208">
        <ele>219</ele>
        <time>2018-03-29T22:53:32Z</time>
      </trkpt>
      <trkpt lat="49.01707" lon="3.71204">
        <ele>219</ele>
        <time>2018-03-29T22:54:32Z</time>
      </trkpt>
      <trkpt lat="49.01705" lon="3.71201">
        <ele>219</ele>
        <time>2018-03-29T22:55:32Z</time>
      </trkpt>
      <trkpt lat="49.01701" lon="3.71194">
        <ele>219</ele>
        <time>2018-03-29T22:56:32Z</time>
      </trkpt>
      <trkpt lat="49.01642" lon="3.71099">
        <ele>221</ele>
        <time>2018-03-29T22:57:32Z</time>
      </trkpt>
      <trkpt lat="49.01626" lon="3.71073">
        <ele>222</ele>
        <time>2018-03-29T22:58:32Z</time>
      </trkpt>
      <trkpt lat="49.016" lon="3.71028">
        <ele>223</ele>
        <time>2018-03-29T22:59:32Z</time>
      </trkpt>
      <trkpt lat="49.01586" lon="3.71005">
        <ele>224</ele>
        <time>2018-03-29T23:00:32Z</time>
      </trkpt>
      <trkpt lat="49.0158" lon="3.70995">
        <ele>224</ele>
        <time>2018-03-29T23:01:32Z</time>
      </trkpt>
      <trkpt lat="49.01562" lon="3.70965">
        <ele>225</ele>
        <time>2018-03-29T23:02:32Z</time>
      </trkpt>
      <trkpt lat="49.01551" lon="3.70946">
        <ele>226</ele>
        <time>2018-03-29T23:03:32Z</time>
      </trkpt>
      <trkpt lat="49.01538" lon="3.70926">
        <ele>227</ele>
        <time>2018-03-29T23:04:32Z</time>
      </trkpt>
      <trkpt lat="49.01528" lon="3.7091">
        <ele>228</ele>
        <time>2018-03-29T23:05:32Z</time>
      </trkpt>
      <trkpt lat="49.01513" lon="3.70886">
        <ele>229</ele>
        <time>2018-03-29T23:06:32Z</time>
      </trkpt>
      <trkpt lat="49.01505" lon="3.70874">
        <ele>229</ele>
        <time>2018-03-29T23:07:32Z</time>
      </trkpt>
      <trkpt lat="49.01492" lon="3.70855">
        <ele>230</ele>
        <time>2018-03-29T23:08:32Z</time>
      </trkpt>
      <trkpt lat="49.01478" lon="3.70836">
        <ele>230</ele>
        <time>2018-03-29T23:09:32Z</time>
      </trkpt>
      <trkpt lat="49.01465" lon="3.70818">
        <ele>231</ele>
        <time>2018-03-29T23:10:32Z</time>
      </trkpt>
      <trkpt lat="49.01453" lon="3.70802">
        <ele>231</ele>
        <time>2018-03-29T23:11:32Z</time>
      </trkpt>
      <trkpt lat="49.0144" lon="3.70784">
        <ele>232</ele>
        <time>2018-03-29T23:12:32Z</time>
      </trkpt>
      <trkpt lat="49.01428" lon="3.70768">
        <ele>233</ele>
        <time>2018-03-29T23:13:32Z</time>
      </trkpt>
      <trkpt lat="49.01415" lon="3.7075">
        <ele>234</ele>
        <time>2018-03-29T23:14:32Z</time>
      </trkpt>
      <trkpt lat="49.01405" lon="3.70737">
        <ele>234</ele>
        <time>2018-03-29T23:15:32Z</time>
      </trkpt>
      <trkpt lat="49.01378" lon="3.70705">
        <ele>236</ele>
        <time>2018-03-29T23:16:32Z</time>
      </trkpt>
      <trkpt lat="49.01362" lon="3.70686">
        <ele>237</ele>
        <time>2018-03-29T23:17:32Z</time>
      </trkpt>
      <trkpt lat="49.01349" lon="3.70671">
        <ele>237</ele>
        <time>2018-03-29T23:18:32Z</time>
      </trkpt>
      <trkpt lat="49.0134" lon="3.7066">
        <ele>238</ele>
        <time>2018-03-29T23:19:32Z</time>
      </trkpt>
      <trkpt lat="49.01335" lon="3.70653">
        <ele>238</ele>
        <time>2018-03-29T23:20:32Z</time>
      </trkpt>
      <trkpt lat="49.01314" lon="3.70623">
        <ele>239</ele>
        <time>2018-03-29T23:21:32Z</time>
      </trkpt>
      <trkpt lat="49.01305" lon="3.70609">
        <ele>239</ele>
        <time>2018-03-29T23:22:32Z</time>
      </trkpt>
      <trkpt lat="49.01299" lon="3.70599">
        <ele>239</ele>
        <time>2018-03-29T23:23:32Z</time>
      </trkpt>
      <trkpt lat="49.01294" lon="3.7059">
        <ele>239</ele>
        <time>2018-03-29T23:24:32Z</time>
      </trkpt>
      <trkpt lat="49.01289" lon="3.70581">
        <ele>240</ele>
        <time>2018-03-29T23:25:32Z</time>
      </trkpt>
      <trkpt lat="49.01282" lon="3.70569">
        <ele>240</ele>
        <time>2018-03-29T23:26:32Z</time>
      </trkpt>
      <trkpt lat="49.01275" lon="3.70553">
        <ele>240</ele>
        <time>2018-03-29T23:27:32Z</time>
      </trkpt>
      <trkpt lat="49.01268" lon="3.70537">
        <ele>240</ele>
        <time>2018-03-29T23:28:32Z</time>
      </trkpt>
      <trkpt lat="49.01252" lon="3.705">
        <ele>241</ele>
        <time>2018-03-29T23:29:32Z</time>
      </trkpt>
      <trkpt lat="49.01247" lon="3.70489">
        <ele>241</ele>
        <time>2018-03-29T23:30:32Z</time>
      </trkpt>
      <trkpt lat="49.01232" lon="3.70455">
        <ele>240</ele>
        <time>2018-03-29T23:31:32Z</time>
      </trkpt>
      <trkpt lat="49.01207" lon="3.70397">
        <ele>240</ele>
        <time>2018-03-29T23:32:32Z</time>
      </trkpt>
      <trkpt lat="49.01089" lon="3.70127">
        <ele>236</ele>
        <time>2018-03-29T23:33:32Z</time>
      </trkpt>
      <trkpt lat="49.01044" lon="3.70021">
        <ele>236</ele>
        <time>2018-03-29T23:34:32Z</time>
      </trkpt>
      <trkpt lat="49.01021" lon="3.69968">
        <ele>237</ele>
        <time>2018-03-29T23:35:32Z</time>
      </trkpt>
      <trkpt lat="49.00967" lon="3.69847">
        <ele>236</ele>
        <time>2018-03-29T23:36:32Z</time>
      </trkpt>
      <trkpt lat="49.00938" lon="3.69778">
        <ele>235</ele>
        <time>2018-03-29T23:37:32Z</time>
      </trkpt>
      <trkpt lat="49.00876" lon="3.69636">
        <ele>234</ele>
        <time>2018-03-29T23:38:32Z</time>
      </trkpt>
      <trkpt lat="49.00808" lon="3.69482">
        <ele>236</ele>
        <time>2018-03-29T23:39:32Z</time>
      </trkpt>
      <trkpt lat="49.00792" lon="3.69445">
        <ele>236</ele>
        <time>2018-03-29T23:40:32Z</time>
      </trkpt>
      <trkpt lat="49.00781" lon="3.69418">
        <ele>236</ele>
        <time>2018-03-29T23:41:32Z</time>
      </trkpt>
      <trkpt lat="49.00773" lon="3.69398">
        <ele>236</ele>
        <time>2018-03-29T23:42:32Z</time>
      </trkpt>
      <trkpt lat="49.00764" lon="3.69373">
        <ele>236</ele>
        <time>2018-03-29T23:43:32Z</time>
      </trkpt>
      <trkpt lat="49.00747" lon="3.69324">
        <ele>236</ele>
        <time>2018-03-29T23:44:32Z</time>
      </trkpt>
      <trkpt lat="49.0073" lon="3.69272">
        <ele>236</ele>
        <time>2018-03-29T23:45:32Z</time>
      </trkpt>
      <trkpt lat="49.00674" lon="3.69103">
        <ele>234</ele>
        <time>2018-03-29T23:46:32Z</time>
      </trkpt>
      <trkpt lat="49.00643" lon="3.69013">
        <ele>232</ele>
        <time>2018-03-29T23:47:32Z</time>
      </trkpt>
      <trkpt lat="49.0063" lon="3.68975">
        <ele>232</ele>
        <time>2018-03-29T23:48:32Z</time>
      </trkpt>
      <trkpt lat="49.00622" lon="3.6895">
        <ele>232</ele>
        <time>2018-03-29T23:49:32Z</time>
      </trkpt>
      <trkpt lat="49.00614" lon="3.68925">
        <ele>232</ele>
        <time>2018-03-29T23:50:32Z</time>
      </trkpt>
      <trkpt lat="49.00602" lon="3.68891">
        <ele>231</ele>
        <time>2018-03-29T23:51:32Z</time>
      </trkpt>
      <trkpt lat="49.00597" lon="3.68876">
        <ele>231</ele>
        <time>2018-03-29T23:52:32Z</time>
      </trkpt>
      <trkpt lat="49.00593" lon="3.68865">
        <ele>231</ele>
        <time>2018-03-29T23:53:32Z</time>
      </trkpt>
      <trkpt lat="49.00588" lon="3.68853">
        <ele>230</ele>
        <time>2018-03-29T23:54:32Z</time>
      </trkpt>
      <trkpt lat="49.00583" lon="3.68842">
        <ele>230</ele>
        <time>2018-03-29T23:55:32Z</time>
      </trkpt>
      <trkpt lat="49.00577" lon="3.6883">
        <ele>230</ele>
        <time>2018-03-29T23:56:32Z</time>
      </trkpt>
      <trkpt lat="49.00572" lon="3.68822">
        <ele>230</ele>
        <time>2018-03-29T23:57:32Z</time>
      </trkpt>
      <trkpt lat="49.00566" lon="3.68812">
        <ele>230</ele>
        <time>2018-03-29T23:58:32Z</time>
      </trkpt>
      <trkpt lat="49.0056" lon="3.68803">
        <ele>230</ele>
        <time>2018-03-29T23:59:32Z</time>
      </trkpt>
      <trkpt lat="49.00553" lon="3.68794">
        <ele>230</ele>
        <time>2018-03-30T00:00:32Z</time>
      </trkpt>
      <trkpt lat="49.00547" lon="3.68786">
        <ele>230</ele>
        <time>2018-03-30T00:01:32Z</time>
      </trkpt>
      <trkpt lat="49.00533" lon="3.68771">
        <ele>230</ele>
        <time>2018-03-30T00:02:32Z</time>
      </trkpt>
      <trkpt lat="49.0051" lon="3.68752">
        <ele>230</ele>
        <time>2018-03-30T00:03:32Z</time>
      </trkpt>
      <trkpt lat="49.00477" lon="3.68726">
        <ele>231</ele>
        <time>2018-03-30T00:04:32Z</time>
      </trkpt>
      <trkpt lat="49.00401" lon="3.68664">
        <ele>233</ele>
        <time>2018-03-30T00:05:32Z</time>
      </trkpt>
      <trkpt lat="49.00384" lon="3.68651">
        <ele>234</ele>
        <time>2018-03-30T00:06:32Z</time>
      </trkpt>
      <trkpt lat="49.00325" lon="3.68604">
        <ele>237</ele>
        <time>2018-03-30T00:07:32Z</time>
      </trkpt>
      <trkpt lat="49.00198" lon="3.68501">
        <ele>244</ele>
        <time>2018-03-30T00:08:32Z</time>
      </trkpt>
      <trkpt lat="49.00178" lon="3.68485">
        <ele>245</ele>
        <time>2018-03-30T00:09:32Z</time>
      </trkpt>
      <trkpt lat="49.00171" lon="3.6848">
        <ele>245</ele>
        <time>2018-03-30T00:10:32Z</time>
      </trkpt>
      <trkpt lat="49.00164" lon="3.68474">
        <ele>245</ele>
        <time>2018-03-30T00:11:32Z</time>
      </trkpt>
      <trkpt lat="49.00158" lon="3.68468">
        <ele>246</ele>
        <time>2018-03-30T00:12:32Z</time>
      </trkpt>
      <trkpt lat="49.00153" lon="3.68462">
        <ele>246</ele>
        <time>2018-03-30T00:13:32Z</time>
      </trkpt>
      <trkpt lat="49.00149" lon="3.68456">
        <ele>246</ele>
        <time>2018-03-30T00:14:32Z</time>
      </trkpt>
      <trkpt lat="49.00143" lon="3.68448">
        <ele>246</ele>
        <time>2018-03-30T00:15:32Z</time>
      </trkpt>
      <trkpt lat="49.00137" lon="3.68439">
        <ele>247</ele>
        <time>2018-03-30T00:16:32Z</time>
      </trkpt>
      <trkpt lat="49.00129" lon="3.68428">
        <ele>247</ele>
        <time>2018-03-30T00:17:32Z</time>
      </trkpt>
      <trkpt lat="49.0012" lon="3.68413">
        <ele>248</ele>
        <time>2018-03-30T00:18:32Z</time>
      </trkpt>
      <trkpt lat="49.0011" lon="3.68396">
        <ele>248</ele>
        <time>2018-03-30T00:19:32Z</time>
      </trkpt>
      <trkpt lat="49.00084" lon="3.68349">
        <ele>249</ele>
        <time>2018-03-30T00:20:32Z</time>
      </trkpt>
      <trkpt lat="49.00057" lon="3.68299">
        <ele>249</ele>
        <time>2018-03-30T00:21:32Z</time>
      </trkpt>
      <trkpt lat="48.99991" lon="3.6818">
        <ele>246</ele>
        <time>2018-03-30T00:22:32Z</time>
      </trkpt>
      <trkpt lat="48.99896" lon="3.68003">
        <ele>248</ele>
        <time>2018-03-30T00:23:32Z</time>
      </trkpt>
      <trkpt lat="48.99886" lon="3.67986">
        <ele>248</ele>
        <time>2018-03-30T00:24:32Z</time>
      </trkpt>
      <trkpt lat="48.99884" lon="3.6798">
        <ele>248</ele>
        <time>2018-03-30T00:25:32Z</time>
      </trkpt>
      <trkpt lat="48.99748" lon="3.67731">
        <ele>246</ele>
        <time>2018-03-30T00:26:32Z</time>
      </trkpt>
      <trkpt lat="48.99718" lon="3.67674">
        <ele>248</ele>
        <time>2018-03-30T00:27:32Z</time>
      </trkpt>
      <trkpt lat="48.99707" lon="3.67654">
        <ele>248</ele>
        <time>2018-03-30T00:28:32Z</time>
      </trkpt>
      <trkpt lat="48.99686" lon="3.67614">
        <ele>250</ele>
        <time>2018-03-30T00:29:32Z</time>
      </trkpt>
      <trkpt lat="48.99673" lon="3.6759">
        <ele>251</ele>
        <time>2018-03-30T00:30:32Z</time>
      </trkpt>
      <trkpt lat="48.99665" lon="3.67576">
        <ele>251</ele>
        <time>2018-03-30T00:31:32Z</time>
      </trkpt>
      <trkpt lat="48.99606" lon="3.67465">
        <ele>250</ele>
        <time>2018-03-30T00:32:32Z</time>
      </trkpt>
      <trkpt lat="48.99552" lon="3.67367">
        <ele>249</ele>
        <time>2018-03-30T00:33:32Z</time>
      </trkpt>
      <trkpt lat="48.99527" lon="3.67321">
        <ele>249</ele>
        <time>2018-03-30T00:34:32Z</time>
      </trkpt>
      <trkpt lat="48.99515" lon="3.67296">
        <ele>249</ele>
        <time>2018-03-30T00:35:32Z</time>
      </trkpt>
      <trkpt lat="48.99504" lon="3.67276">
        <ele>249</ele>
        <time>2018-03-30T00:36:32Z</time>
      </trkpt>
      <trkpt lat="48.99502" lon="3.67272">
        <ele>249</ele>
        <time>2018-03-30T00:37:32Z</time>
      </trkpt>
      <trkpt lat="48.99484" lon="3.67237">
        <ele>250</ele>
        <time>2018-03-30T00:38:32Z</time>
      </trkpt>
      <trkpt lat="48.99472" lon="3.67216">
        <ele>250</ele>
        <time>2018-03-30T00:39:32Z</time>
      </trkpt>
      <trkpt lat="48.99444" lon="3.67164">
        <ele>250</ele>
        <time>2018-03-30T00:40:32Z</time>
      </trkpt>
      <trkpt lat="48.99425" lon="3.67127">
        <ele>249</ele>
        <time>2018-03-30T00:41:32Z</time>
      </trkpt>
      <trkpt lat="48.9936" lon="3.67008">
        <ele>246</ele>
        <time>2018-03-30T00:42:32Z</time>
      </trkpt>
      <trkpt lat="48.99346" lon="3.66982">
        <ele>245</ele>
        <time>2018-03-30T00:43:32Z</time>
      </trkpt>
      <trkpt lat="48.99334" lon="3.6696">
        <ele>245</ele>
        <time>2018-03-30T00:44:32Z</time>
      </trkpt>
      <trkpt lat="48.9932" lon="3.66939">
        <ele>244</ele>
        <time>2018-03-30T00:45:32Z</time>
      </trkpt>
      <trkpt lat="48.99296" lon="3.66907">
        <ele>243</ele>
        <time>2018-03-30T00:46:32Z</time>
      </trkpt>
      <trkpt lat="48.99286" lon="3.66896">
        <ele>243</ele>
        <time>2018-03-30T00:47:32Z</time>
      </trkpt>
      <trkpt lat="48.99239" lon="3.66844">
        <ele>240</ele>
        <time>2018-03-30T00:48:32Z</time>
      </trkpt>
      <trkpt lat="48.99185" lon="3.66787">
        <ele>236</ele>
        <time>2018-03-30T00:49:32Z</time>
      </trkpt>
      <trkpt lat="48.99133" lon="3.66735">
        <ele>232</ele>
        <time>2018-03-30T00:50:32Z</time>
      </trkpt>
      <trkpt lat="48.99082" lon="3.66682">
        <ele>228</ele>
        <time>2018-03-30T00:51:32Z</time>
      </trkpt>
      <trkpt lat="48.99074" lon="3.66674">
        <ele>228</ele>
        <time>2018-03-30T00:52:32Z</time>
      </trkpt>
      <trkpt lat="48.99067" lon="3.66665">
        <ele>227</ele>
        <time>2018-03-30T00:53:32Z</time>
      </trkpt>
      <trkpt lat="48.9906" lon="3.66655">
        <ele>227</ele>
        <time>2018-03-30T00:54:32Z</time>
      </trkpt>
      <trkpt lat="48.99054" lon="3.66645">
        <ele>226</ele>
        <time>2018-03-30T00:55:32Z</time>
      </trkpt>
      <trkpt lat="48.99049" lon="3.66634">
        <ele>225</ele>
        <time>2018-03-30T00:56:32Z</time>
      </trkpt>
      <trkpt lat="48.99044" lon="3.66622">
        <ele>225</ele>
        <time>2018-03-30T00:57:32Z</time>
      </trkpt>
      <trkpt lat="48.99039" lon="3.6661">
        <ele>224</ele>
        <time>2018-03-30T00:58:32Z</time>
      </trkpt>
      <trkpt lat="48.99036" lon="3.666">
        <ele>224</ele>
        <time>2018-03-30T00:59:32Z</time>
      </trkpt>
      <trkpt lat="48.99032" lon="3.66585">
        <ele>223</ele>
        <time>2018-03-30T01:00:32Z</time>
      </trkpt>
      <trkpt lat="48.99025" lon="3.66557">
        <ele>222</ele>
        <time>2018-03-30T01:01:32Z</time>
      </trkpt>
      <trkpt lat="48.99013" lon="3.66496">
        <ele>219</ele>
        <time>2018-03-30T01:02:32Z</time>
      </trkpt>
      <trkpt lat="48.99" lon="3.66433">
        <ele>216</ele>
        <time>2018-03-30T01:03:32Z</time>
      </trkpt>
      <trkpt lat="48.98992" lon="3.66397">
        <ele>215</ele>
        <time>2018-03-30T01:04:32Z</time>
      </trkpt>
      <trkpt lat="48.98988" lon="3.66385">
        <ele>214</ele>
        <time>2018-03-30T01:05:32Z</time>
      </trkpt>
      <trkpt lat="48.98984" lon="3.66373">
        <ele>214</ele>
        <time>2018-03-30T01:06:32Z</time>
      </trkpt>
      <trkpt lat="48.98977" lon="3.66356">
        <ele>214</ele>
        <time>2018-03-30T01:07:32Z</time>
      </trkpt>
      <trkpt lat="48.9897" lon="3.66345">
        <ele>213</ele>
        <time>2018-03-30T01:08:32Z</time>
      </trkpt>
      <trkpt lat="48.98964" lon="3.66336">
        <ele>213</ele>
        <time>2018-03-30T01:09:32Z</time>
      </trkpt>
      <trkpt lat="48.98951" lon="3.6632">
        <ele>212</ele>
        <time>2018-03-30T01:10:32Z</time>
      </trkpt>
      <trkpt lat="48.9894" lon="3.66307">
        <ele>212</ele>
        <time>2018-03-30T01:11:32Z</time>
      </trkpt>
      <trkpt lat="48.98924" lon="3.66291">
        <ele>211</ele>
        <time>2018-03-30T01:12:32Z</time>
      </trkpt>
      <trkpt lat="48.98917" lon="3.66284">
        <ele>210</ele>
        <time>2018-03-30T01:13:32Z</time>
      </trkpt>
      <trkpt lat="48.98908" lon="3.66275">
        <ele>210</ele>
        <time>2018-03-30T01:14:32Z</time>
      </trkpt>
      <trkpt lat="48.98865" lon="3.66232">
        <ele>209</ele>
        <time>2018-03-30T01:15:32Z</time>
      </trkpt>
      <trkpt lat="48.9885" lon="3.66218">
        <ele>208</ele>
        <time>2018-03-30T01:16:32Z</time>
      </trkpt>
      <trkpt lat="48.98842" lon="3.6621">
        <ele>207</ele>
        <time>2018-03-30T01:17:32Z</time>
      </trkpt>
      <trkpt lat="48.98834" lon="3.66201">
        <ele>207</ele>
        <time>2018-03-30T01:18:32Z</time>
      </trkpt>
      <trkpt lat="48.98827" lon="3.66193">
        <ele>206</ele>
        <time>2018-03-30T01:19:32Z</time>
      </trkpt>
      <trkpt lat="48.98815" lon="3.66177">
        <ele>204</ele>
        <time>2018-03-30T01:20:32Z</time>
      </trkpt>
      <trkpt lat="48.98801" lon="3.66154">
        <ele>202</ele>
        <time>2018-03-30T01:21:32Z</time>
      </trkpt>
      <trkpt lat="48.98795" lon="3.66143">
        <ele>201</ele>
        <time>2018-03-30T01:22:32Z</time>
      </trkpt>
      <trkpt lat="48.9879" lon="3.66132">
        <ele>200</ele>
        <time>2018-03-30T01:23:32Z</time>
      </trkpt>
      <trkpt lat="48.98784" lon="3.66119">
        <ele>199</ele>
        <time>2018-03-30T01:24:32Z</time>
      </trkpt>
      <trkpt lat="48.98777" lon="3.66101">
        <ele>198</ele>
        <time>2018-03-30T01:25:32Z</time>
      </trkpt>
      <trkpt lat="48.98756" lon="3.66038">
        <ele>194</ele>
        <time>2018-03-30T01:26:32Z</time>
      </trkpt>
      <trkpt lat="48.98734" lon="3.65972">
        <ele>192</ele>
        <time>2018-03-30T01:27:32Z</time>
      </trkpt>
      <trkpt lat="48.98693" lon="3.65849">
        <ele>185</ele>
        <time>2018-03-30T01:28:32Z</time>
      </trkpt>
      <trkpt lat="48.98657" lon="3.65742">
        <ele>182</ele>
        <time>2018-03-30T01:29:32Z</time>
      </trkpt>
      <trkpt lat="48.98656" lon="3.65736">
        <ele>181</ele>
        <time>2018-03-30T01:30:32Z</time>
      </trkpt>
      <trkpt lat="48.98654" lon="3.65731">
        <ele>181</ele>
        <time>2018-03-30T01:31:32Z</time>
      </trkpt>
      <trkpt lat="48.98622" lon="3.65634">
        <ele>176</ele>
        <time>2018-03-30T01:32:32Z</time>
      </trkpt>
      <trkpt lat="48.98605" lon="3.65586">
        <ele>172</ele>
        <time>2018-03-30T01:33:32Z</time>
      </trkpt>
      <trkpt lat="48.98597" lon="3.65565">
        <ele>171</ele>
        <time>2018-03-30T01:34:32Z</time>
      </trkpt>
      <trkpt lat="48.98591" lon="3.65553">
        <ele>170</ele>
        <time>2018-03-30T01:35:32Z</time>
      </trkpt>
      <trkpt lat="48.98585" lon="3.65538">
        <ele>169</ele>
        <time>2018-03-30T01:36:32Z</time>
      </trkpt>
      <trkpt lat="48.98577" lon="3.65527">
        <ele>168</ele>
        <time>2018-03-30T01:37:32Z</time>
      </trkpt>
      <trkpt lat="48.98566" lon="3.65511">
        <ele>167</ele>
        <time>2018-03-30T01:38:32Z</time>
      </trkpt>
      <trkpt lat="48.9855" lon="3.65492">
        <ele>166</ele>
        <time>2018-03-30T01:39:32Z</time>
      </trkpt>
      <trkpt lat="48.98535" lon="3.65478">
        <ele>165</ele>
        <time>2018-03-30T01:40:32Z</time>
      </trkpt>
      <trkpt lat="48.9851" lon="3.65458">
        <ele>163</ele>
        <time>2018-03-30T01:41:32Z</time>
      </trkpt>
      <trkpt lat="48.98491" lon="3.65447">
        <ele>162</ele>
        <time>2018-03-30T01:42:32Z</time>
      </trkpt>
      <trkpt lat="48.98452" lon="3.65417">
        <ele>158</ele>
        <time>2018-03-30T01:43:32Z</time>
      </trkpt>
      <trkpt lat="48.98411" lon="3.65386">
        <ele>155</ele>
        <time>2018-03-30T01:44:32Z</time>
      </trkpt>
      <trkpt lat="48.98396" lon="3.65373">
        <ele>154</ele>
        <time>2018-03-30T01:45:32Z</time>
      </trkpt>
      <trkpt lat="48.98376" lon="3.65354">
        <ele>152</ele>
        <time>2018-03-30T01:46:32Z</time>
      </trkpt>
      <trkpt lat="48.9836" lon="3.65339">
        <ele>150</ele>
        <time>2018-03-30T01:47:32Z</time>
      </trkpt>
      <trkpt lat="48.98356" lon="3.65334">
        <ele>150</ele>
        <time>2018-03-30T01:48:32Z</time>
      </trkpt>
      <trkpt lat="48.98348" lon="3.65325">
        <ele>149</ele>
        <time>2018-03-30T01:49:32Z</time>
      </trkpt>
      <trkpt lat="48.98304" lon="3.65276">
        <ele>146</ele>
        <time>2018-03-30T01:50:32Z</time>
      </trkpt>
      <trkpt lat="48.98302" lon="3.65274">
        <ele>146</ele>
        <time>2018-03-30T01:51:32Z</time>
      </trkpt>
      <trkpt lat="48.98286" lon="3.65256">
        <ele>144</ele>
        <time>2018-03-30T01:52:32Z</time>
      </trkpt>
      <trkpt lat="48.98276" lon="3.65244">
        <ele>143</ele>
        <time>2018-03-30T01:53:32Z</time>
      </trkpt>
      <trkpt lat="48.98269" lon="3.65235">
        <ele>142</ele>
        <time>2018-03-30T01:54:32Z</time>
      </trkpt>
      <trkpt lat="48.98262" lon="3.65226">
        <ele>141</ele>
        <time>2018-03-30T01:55:32Z</time>
      </trkpt>
      <trkpt lat="48.9824" lon="3.65192">
        <ele>139</ele>
        <time>2018-03-30T01:56:32Z</time>
      </trkpt>
      <trkpt lat="48.98231" lon="3.65179">
        <ele>138</ele>
        <time>2018-03-30T01:57:32Z</time>
      </trkpt>
      <trkpt lat="48.98212" lon="3.65152">
        <ele>136</ele>
        <time>2018-03-30T01:58:32Z</time>
      </trkpt>
      <trkpt lat="48.9821" lon="3.65149">
        <ele>136</ele>
        <time>2018-03-30T01:59:32Z</time>
      </trkpt>
      <trkpt lat="48.98185" lon="3.65113">
        <ele>133</ele>
        <time>2018-03-30T02:00:32Z</time>
      </trkpt>
      <trkpt lat="48.98184" lon="3.65111">
        <ele>133</ele>
        <time>2018-03-30T02:01:32Z</time>
      </trkpt>
      <trkpt lat="48.98165" lon="3.65084">
        <ele>131</ele>
        <time>2018-03-30T02:02:32Z</time>
      </trkpt>
      <trkpt lat="48.98129" lon="3.65031">
        <ele>128</ele>
        <time>2018-03-30T02:03:32Z</time>
      </trkpt>
      <trkpt lat="48.98109" lon="3.65002">
        <ele>125</ele>
        <time>2018-03-30T02:04:32Z</time>
      </trkpt>
      <trkpt lat="48.98108" lon="3.65">
        <ele>125</ele>
        <time>2018-03-30T02:05:32Z</time>
      </trkpt>
      <trkpt lat="48.98088" lon="3.64972">
        <ele>124</ele>
        <time>2018-03-30T02:06:32Z</time>
      </trkpt>
      <trkpt lat="48.98081" lon="3.64961">
        <ele>123</ele>
        <time>2018-03-30T02:07:32Z</time>
      </trkpt>
      <trkpt lat="48.9808" lon="3.64959">
        <ele>123</ele>
        <time>2018-03-30T02:08:32Z</time>
      </trkpt>
      <trkpt lat="48.98051" lon="3.64917">
        <ele>121</ele>
        <time>2018-03-30T02:09:32Z</time>
      </trkpt>
      <trkpt lat="48.98008" lon="3.64855">
        <ele>118</ele>
        <time>2018-03-30T02:10:32Z</time>
      </trkpt>
      <trkpt lat="48.97991" lon="3.64832">
        <ele>116</ele>
        <time>2018-03-30T02:11:32Z</time>
      </trkpt>
      <trkpt lat="48.97982" lon="3.64822">
        <ele>116</ele>
        <time>2018-03-30T02:12:32Z</time>
      </trkpt>
      <trkpt lat="48.97974" lon="3.64815">
        <ele>116</ele>
        <time>2018-03-30T02:13:32Z</time>
      </trkpt>
      <trkpt lat="48.97973" lon="3.64814">
        <ele>116</ele>
        <time>2018-03-30T02:14:32Z</time>
      </trkpt>
      <trkpt lat="48.97966" lon="3.64809">
        <ele>115</ele>
        <time>2018-03-30T02:15:32Z</time>
      </trkpt>
      <trkpt lat="48.97955" lon="3.64804">
        <ele>115</ele>
        <time>2018-03-30T02:16:32Z</time>
      </trkpt>
      <trkpt lat="48.97941" lon="3.64799">
        <ele>114</ele>
        <time>2018-03-30T02:17:32Z</time>
      </trkpt>
      <trkpt lat="48.97934" lon="3.64798">
        <ele>113</ele>
        <time>2018-03-30T02:18:32Z</time>
      </trkpt>
      <trkpt lat="48.97929" lon="3.64798">
        <ele>113</ele>
        <time>2018-03-30T02:19:32Z</time>
      </trkpt>
      <trkpt lat="48.97926" lon="3.64797">
        <ele>113</ele>
        <time>2018-03-30T02:20:32Z</time>
      </trkpt>
      <trkpt lat="48.9792" lon="3.64799">
        <ele>112</ele>
        <time>2018-03-30T02:21:32Z</time>
      </trkpt>
      <trkpt lat="48.97917" lon="3.64799">
        <ele>112</ele>
        <time>2018-03-30T02:22:32Z</time>
      </trkpt>
      <trkpt lat="48.97917" lon="3.64799">
        <ele>112</ele>
        <time>2018-03-30T02:23:32Z</time>
      </trkpt>
      <trkpt lat="48.97912" lon="3.64801">
        <ele>112</ele>
        <time>2018-03-30T02:24:32Z</time>
      </trkpt>
      <trkpt lat="48.97886" lon="3.64814">
        <ele>110</ele>
        <time>2018-03-30T02:25:32Z</time>
      </trkpt>
      <trkpt lat="48.97875" lon="3.64819">
        <ele>109</ele>
        <time>2018-03-30T02:26:32Z</time>
      </trkpt>
      <trkpt lat="48.97832" lon="3.64841">
        <ele>107</ele>
        <time>2018-03-30T02:27:32Z</time>
      </trkpt>
      <trkpt lat="48.97803" lon="3.64854">
        <ele>106</ele>
        <time>2018-03-30T02:28:32Z</time>
      </trkpt>
      <trkpt lat="48.97791" lon="3.64857">
        <ele>106</ele>
        <time>2018-03-30T02:29:32Z</time>
      </trkpt>
      <trkpt lat="48.97759" lon="3.64859">
        <ele>105</ele>
        <time>2018-03-30T02:30:32Z</time>
      </trkpt>
      <trkpt lat="48.97751" lon="3.64857">
        <ele>105</ele>
        <time>2018-03-30T02:31:32Z</time>
      </trkpt>
      <trkpt lat="48.97749" lon="3.64856">
        <ele>105</ele>
        <time>2018-03-30T02:32:32Z</time>
      </trkpt>
      <trkpt lat="48.97744" lon="3.64853">
        <ele>105</ele>
        <time>2018-03-30T02:33:32Z</time>
      </trkpt>
      <trkpt lat="48.97742" lon="3.64852">
        <ele>105</ele>
        <time>2018-03-30T02:34:32Z</time>
      </trkpt>
      <trkpt lat="48.97738" lon="3.64849">
        <ele>105</ele>
        <time>2018-03-30T02:35:32Z</time>
      </trkpt>
      <trkpt lat="48.97731" lon="3.64842">
        <ele>105</ele>
        <time>2018-03-30T02:36:32Z</time>
      </trkpt>
      <trkpt lat="48.97723" lon="3.64833">
        <ele>105</ele>
        <time>2018-03-30T02:37:32Z</time>
      </trkpt>
      <trkpt lat="48.97715" lon="3.64826">
        <ele>105</ele>
        <time>2018-03-30T02:38:32Z</time>
      </trkpt>
      <trkpt lat="48.97712" lon="3.64823">
        <ele>105</ele>
        <time>2018-03-30T02:39:32Z</time>
      </trkpt>
      <trkpt lat="48.97708" lon="3.64819">
        <ele>105</ele>
        <time>2018-03-30T02:40:32Z</time>
      </trkpt>
      <trkpt lat="48.97705" lon="3.64815">
        <ele>105</ele>
        <time>2018-03-30T02:41:32Z</time>
      </trkpt>
      <trkpt lat="48.977" lon="3.64812">
        <ele>105</ele>
        <time>2018-03-30T02:42:32Z</time>
      </trkpt>
      <trkpt lat="48.97696" lon="3.64808">
        <ele>104</ele>
        <time>2018-03-30T02:43:32Z</time>
      </trkpt>
      <trkpt lat="48.9769" lon="3.64805">
        <ele>104</ele>
        <time>2018-03-30T02:44:32Z</time>
      </trkpt>
      <trkpt lat="48.97687" lon="3.64803">
        <ele>104</ele>
        <time>2018-03-30T02:45:32Z</time>
      </trkpt>
      <trkpt lat="48.97669" lon="3.64791">
        <ele>104</ele>
        <time>2018-03-30T02:46:32Z</time>
      </trkpt>
      <trkpt lat="48.97654" lon="3.64784">
        <ele>105</ele>
        <time>2018-03-30T02:47:32Z</time>
      </trkpt>
      <trkpt lat="48.97645" lon="3.64778">
        <ele>105</ele>
        <time>2018-03-30T02:48:32Z</time>
      </trkpt>
      <trkpt lat="48.97636" lon="3.64772">
        <ele>105</ele>
        <time>2018-03-30T02:49:32Z</time>
      </trkpt>
      <trkpt lat="48.97631" lon="3.64768">
        <ele>105</ele>
        <time>2018-03-30T02:50:32Z</time>
      </trkpt>
      <trkpt lat="48.9762" lon="3.6476">
        <ele>106</ele>
        <time>2018-03-30T02:51:32Z</time>
      </trkpt>
      <trkpt lat="48.97611" lon="3.64752">
        <ele>106</ele>
        <time>2018-03-30T02:52:32Z</time>
      </trkpt>
      <trkpt lat="48.97607" lon="3.64749">
        <ele>106</ele>
        <time>2018-03-30T02:53:32Z</time>
      </trkpt>
      <trkpt lat="48.97599" lon="3.64743">
        <ele>106</ele>
        <time>2018-03-30T02:54:32Z</time>
      </trkpt>
      <trkpt lat="48.97588" lon="3.64733">
        <ele>107</ele>
        <time>2018-03-30T02:55:32Z</time>
      </trkpt>
      <trkpt lat="48.97582" lon="3.64725">
        <ele>107</ele>
        <time>2018-03-30T02:56:32Z</time>
      </trkpt>
      <trkpt lat="48.97545" lon="3.64682">
        <ele>110</ele>
        <time>2018-03-30T02:57:32Z</time>
      </trkpt>
      <trkpt lat="48.97533" lon="3.64668">
        <ele>112</ele>
        <time>2018-03-30T02:58:32Z</time>
      </trkpt>
      <trkpt lat="48.97527" lon="3.64659">
        <ele>112</ele>
        <time>2018-03-30T02:59:32Z</time>
      </trkpt>
      <trkpt lat="48.97522" lon="3.64653">
        <ele>113</ele>
        <time>2018-03-30T03:00:32Z</time>
      </trkpt>
      <trkpt lat="48.97517" lon="3.64643">
        <ele>114</ele>
        <time>2018-03-30T03:01:32Z</time>
      </trkpt>
      <trkpt lat="48.97505" lon="3.64623">
        <ele>116</ele>
        <time>2018-03-30T03:02:32Z</time>
      </trkpt>
      <trkpt lat="48.97496" lon="3.64607">
        <ele>118</ele>
        <time>2018-03-30T03:03:32Z</time>
      </trkpt>
      <trkpt lat="48.97487" lon="3.64593">
        <ele>119</ele>
        <time>2018-03-30T03:04:32Z</time>
      </trkpt>
      <trkpt lat="48.97484" lon="3.64587">
        <ele>119</ele>
        <time>2018-03-30T03:05:32Z</time>
      </trkpt>
      <trkpt lat="48.97481" lon="3.64583">
        <ele>119</ele>
        <time>2018-03-30T03:06:32Z</time>
      </trkpt>
      <trkpt lat="48.97466" lon="3.64565">
        <ele>120</ele>
        <time>2018-03-30T03:07:32Z</time>
      </trkpt>
      <trkpt lat="48.97452" lon="3.64545">
        <ele>121</ele>
        <time>2018-03-30T03:08:32Z</time>
      </trkpt>
      <trkpt lat="48.97442" lon="3.64531">
        <ele>121</ele>
        <time>2018-03-30T03:09:32Z</time>
      </trkpt>
      <trkpt lat="48.97442" lon="3.64531">
        <ele>121</ele>
        <time>2018-03-30T03:10:32Z</time>
      </trkpt>
      <trkpt lat="48.97443" lon="3.64523">
        <ele>121</ele>
        <time>2018-03-30T03:11:32Z</time>
      </trkpt>
      <trkpt lat="48.97446" lon="3.64501">
        <ele>122</ele>
        <time>2018-03-30T03:12:32Z</time>
      </trkpt>
      <trkpt lat="48.9745" lon="3.64471">
        <ele>122</ele>
        <time>2018-03-30T03:13:32Z</time>
      </trkpt>
      <trkpt lat="48.97453" lon="3.64452">
        <ele>122</ele>
        <time>2018-03-30T03:14:32Z</time>
      </trkpt>
      <trkpt lat="48.97456" lon="3.64438">
        <ele>122</ele>
        <time>2018-03-30T03:15:32Z</time>
      </trkpt>
      <trkpt lat="48.9746" lon="3.64424">
        <ele>122</ele>
        <time>2018-03-30T03:16:32Z</time>
      </trkpt>
      <trkpt lat="48.9746" lon="3.64424">
        <ele>122</ele>
        <time>2018-03-30T03:17:32Z</time>
      </trkpt>
      <trkpt lat="48.97467" lon="3.6441">
        <ele>122</ele>
        <time>2018-03-30T03:18:32Z</time>
      </trkpt>
      <trkpt lat="48.97459" lon="3.64394">
        <ele>123</ele>
        <time>2018-03-30T03:19:32Z</time>
      </trkpt>
      <trkpt lat="48.97459" lon="3.64386">
        <ele>123</ele>
        <time>2018-03-30T03:20:32Z</time>
      </trkpt>
      <trkpt lat="48.97457" lon="3.64363">
        <ele>123</ele>
        <time>2018-03-30T03:21:32Z</time>
      </trkpt>
      <trkpt lat="48.97456" lon="3.6433">
        <ele>124</ele>
        <time>2018-03-30T03:22:32Z</time>
      </trkpt>
      <trkpt lat="48.97455" lon="3.64319">
        <ele>124</ele>
        <time>2018-03-30T03:23:32Z</time>
      </trkpt>
      <trkpt lat="48.97454" lon="3.64293">
        <ele>125</ele>
        <time>2018-03-30T03:24:32Z</time>
      </trkpt>
      <trkpt lat="48.97452" lon="3.64256">
        <ele>126</ele>
        <time>2018-03-30T03:25:32Z</time>
      </trkpt>
      <trkpt lat="48.9745" lon="3.64213">
        <ele>127</ele>
        <time>2018-03-30T03:26:32Z</time>
      </trkpt>
      <trkpt lat="48.9745" lon="3.64208">
        <ele>128</ele>
        <time>2018-03-30T03:27:32Z</time>
      </trkpt>
      <trkpt lat="48.97448" lon="3.64172">
        <ele>129</ele>
        <time>2018-03-30T03:28:32Z</time>
      </trkpt>
      <trkpt lat="48.97447" lon="3.64147">
        <ele>130</ele>
        <time>2018-03-30T03:29:32Z</time>
      </trkpt>
      <trkpt lat="48.97446" lon="3.64134">
        <ele>131</ele>
        <time>2018-03-30T03:30:32Z</time>
      </trkpt>
      <trkpt lat="48.97444" lon="3.64091">
        <ele>133</ele>
        <time>2018-03-30T03:31:32Z</time>
      </trkpt>
      <trkpt lat="48.97442" lon="3.64052">
        <ele>136</ele>
        <time>2018-03-30T03:32:32Z</time>
      </trkpt>
      <trkpt lat="48.97441" lon="3.64016">
        <ele>138</ele>
        <time>2018-03-30T03:33:32Z</time>
      </trkpt>
      <trkpt lat="48.9744" lon="3.64005">
        <ele>139</ele>
        <time>2018-03-30T03:34:32Z</time>
      </trkpt>
      <trkpt lat="48.97439" lon="3.63982">
        <ele>140</ele>
        <time>2018-03-30T03:35:32Z</time>
      </trkpt>
      <trkpt lat="48.97439" lon="3.63973">
        <ele>140</ele>
        <time>2018-03-30T03:36:32Z</time>
      </trkpt>
      <trkpt lat="48.97438" lon="3.63956">
        <ele>141</ele>
        <time>2018-03-30T03:37:32Z</time>
      </trkpt>
      <trkpt lat="48.97437" lon="3.63943">
        <ele>141</ele>
        <time>2018-03-30T03:38:32Z</time>
      </trkpt>
      <trkpt lat="48.97436" lon="3.63931">
        <ele>142</ele>
        <time>2018-03-30T03:39:32Z</time>
      </trkpt>
      <trkpt lat="48.97435" lon="3.63922">
        <ele>142</ele>
        <time>2018-03-30T03:40:32Z</time>
      </trkpt>
      <trkpt lat="48.97433" lon="3.63912">
        <ele>143</ele>
        <time>2018-03-30T03:41:32Z</time>
      </trkpt>
      <trkpt lat="48.97429" lon="3.63901">
        <ele>144</ele>
        <time>2018-03-30T03:42:32Z</time>
      </trkpt>
      <trkpt lat="48.97424" lon="3.63892">
        <ele>144</ele>
        <time>2018-03-30T03:43:32Z</time>
      </trkpt>
      <trkpt lat="48.97419" lon="3.63885">
        <ele>145</ele>
        <time>2018-03-30T03:44:32Z</time>
      </trkpt>
      <trkpt lat="48.97413" lon="3.6388">
        <ele>146</ele>
        <time>2018-03-30T03:45:32Z</time>
      </trkpt>
      <trkpt lat="48.97408" lon="3.63876">
        <ele>147</ele>
        <time>2018-03-30T03:46:32Z</time>
      </trkpt>
      <trkpt lat="48.97401" lon="3.63873">
        <ele>149</ele>
        <time>2018-03-30T03:47:32Z</time>
      </trkpt>
      <trkpt lat="48.97395" lon="3.63872">
        <ele>150</ele>
        <time>2018-03-30T03:48:32Z</time>
      </trkpt>
      <trkpt lat="48.97389" lon="3.63872">
        <ele>151</ele>
        <time>2018-03-30T03:49:32Z</time>
      </trkpt>
      <trkpt lat="48.97386" lon="3.63872">
        <ele>151</ele>
        <time>2018-03-30T03:50:32Z</time>
      </trkpt>
      <trkpt lat="48.97382" lon="3.63873">
        <ele>152</ele>
        <time>2018-03-30T03:51:32Z</time>
      </trkpt>
      <trkpt lat="48.97376" lon="3.63876">
        <ele>152</ele>
        <time>2018-03-30T03:52:32Z</time>
      </trkpt>
      <trkpt lat="48.97373" lon="3.63878">
        <ele>153</ele>
        <time>2018-03-30T03:53:32Z</time>
      </trkpt>
      <trkpt lat="48.97368" lon="3.63881">
        <ele>153</ele>
        <time>2018-03-30T03:54:32Z</time>
      </trkpt>
      <trkpt lat="48.97355" lon="3.63892">
        <ele>153</ele>
        <time>2018-03-30T03:55:32Z</time>
      </trkpt>
      <trkpt lat="48.97336" lon="3.63909">
        <ele>152</ele>
        <time>2018-03-30T03:56:32Z</time>
      </trkpt>
      <trkpt lat="48.97317" lon="3.63927">
        <ele>155</ele>
        <time>2018-03-30T03:57:32Z</time>
      </trkpt>
      <trkpt lat="48.97298" lon="3.63944">
        <ele>158</ele>
        <time>2018-03-30T03:58:32Z</time>
      </trkpt>
      <trkpt lat="48.97277" lon="3.63964">
        <ele>161</ele>
        <time>2018-03-30T03:59:32Z</time>
      </trkpt>
      <trkpt lat="48.97256" lon="3.63983">
        <ele>163</ele>
        <time>2018-03-30T04:00:32Z</time>
      </trkpt>
      <trkpt lat="48.97236" lon="3.64001">
        <ele>165</ele>
        <time>2018-03-30T04:01:32Z</time>
      </trkpt>
      <trkpt lat="48.97225" lon="3.64012">
        <ele>167</ele>
        <time>2018-03-30T04:02:32Z</time>
      </trkpt>
      <trkpt lat="48.97212" lon="3.64023">
        <ele>169</ele>
        <time>2018-03-30T04:03:32Z</time>
      </trkpt>
      <trkpt lat="48.97205" lon="3.6403">
        <ele>169</ele>
        <time>2018-03-30T04:04:32Z</time>
      </trkpt>
      <trkpt lat="48.97188" lon="3.64046">
        <ele>171</ele>
        <time>2018-03-30T04:05:32Z</time>
      </trkpt>
      <trkpt lat="48.97177" lon="3.64057">
        <ele>172</ele>
        <time>2018-03-30T04:06:32Z</time>
      </trkpt>
      <trkpt lat="48.97166" lon="3.64068">
        <ele>173</ele>
        <time>2018-03-30T04:07:32Z</time>
      </trkpt>
      <trkpt lat="48.97143" lon="3.64089">
        <ele>173</ele>
        <time>2018-03-30T04:08:32Z</time>
      </trkpt>
      <trkpt lat="48.9712" lon="3.64111">
        <ele>173</ele>
        <time>2018-03-30T04:09:32Z</time>
      </trkpt>
      <trkpt lat="48.97116" lon="3.64114">
        <ele>174</ele>
        <time>2018-03-30T04:10:32Z</time>
      </trkpt>
      <trkpt lat="48.97101" lon="3.64127">
        <ele>174</ele>
        <time>2018-03-30T04:11:32Z</time>
      </trkpt>
      <trkpt lat="48.97088" lon="3.64139">
        <ele>175</ele>
        <time>2018-03-30T04:12:32Z</time>
      </trkpt>
      <trkpt lat="48.97062" lon="3.64162">
        <ele>176</ele>
        <time>2018-03-30T04:13:32Z</time>
      </trkpt>
      <trkpt lat="48.97041" lon="3.64182">
        <ele>177</ele>
        <time>2018-03-30T04:14:32Z</time>
      </trkpt>
      <trkpt lat="48.97037" lon="3.64185">
        <ele>178</ele>
        <time>2018-03-30T04:15:32Z</time>
      </trkpt>
      <trkpt lat="48.97023" lon="3.64198">
        <ele>179</ele>
        <time>2018-03-30T04:16:32Z</time>
      </trkpt>
      <trkpt lat="48.97017" lon="3.64202">
        <ele>179</ele>
        <time>2018-03-30T04:17:32Z</time>
      </trkpt>
      <trkpt lat="48.97011" lon="3.64205">
        <ele>180</ele>
        <time>2018-03-30T04:18:32Z</time>
      </trkpt>
      <trkpt lat="48.97005" lon="3.64209">
        <ele>181</ele>
        <time>2018-03-30T04:19:32Z</time>
      </trkpt>
      <trkpt lat="48.97001" lon="3.64211">
        <ele>181</ele>
        <time>2018-03-30T04:20:32Z</time>
      </trkpt>
      <trkpt lat="48.96999" lon="3.64212">
        <ele>181</ele>
        <time>2018-03-30T04:21:32Z</time>
      </trkpt>
      <trkpt lat="48.96993" lon="3.64215">
        <ele>181</ele>
        <time>2018-03-30T04:22:32Z</time>
      </trkpt>
      <trkpt lat="48.96986" lon="3.64217">
        <ele>182</ele>
        <time>2018-03-30T04:23:32Z</time>
      </trkpt>
      <trkpt lat="48.96979" lon="3.64219">
        <ele>182</ele>
        <time>2018-03-30T04:24:32Z</time>
      </trkpt>
      <trkpt lat="48.96973" lon="3.6422">
        <ele>182</ele>
        <time>2018-03-30T04:25:32Z</time>
      </trkpt>
      <trkpt lat="48.96965" lon="3.6422">
        <ele>183</ele>
        <time>2018-03-30T04:26:32Z</time>
      </trkpt>
      <trkpt lat="48.96957" lon="3.6422">
        <ele>184</ele>
        <time>2018-03-30T04:27:32Z</time>
      </trkpt>
      <trkpt lat="48.9695" lon="3.64219">
        <ele>184</ele>
        <time>2018-03-30T04:28:32Z</time>
      </trkpt>
      <trkpt lat="48.96936" lon="3.64216">
        <ele>186</ele>
        <time>2018-03-30T04:29:32Z</time>
      </trkpt>
      <trkpt lat="48.96922" lon="3.6421">
        <ele>187</ele>
        <time>2018-03-30T04:30:32Z</time>
      </trkpt>
      <trkpt lat="48.96895" lon="3.64198">
        <ele>189</ele>
        <time>2018-03-30T04:31:32Z</time>
      </trkpt>
      <trkpt lat="48.96879" lon="3.64191">
        <ele>190</ele>
        <time>2018-03-30T04:32:32Z</time>
      </trkpt>
      <trkpt lat="48.96859" lon="3.64183">
        <ele>190</ele>
        <time>2018-03-30T04:33:32Z</time>
      </trkpt>
      <trkpt lat="48.96846" lon="3.64177">
        <ele>191</ele>
        <time>2018-03-30T04:34:32Z</time>
      </trkpt>
      <trkpt lat="48.96825" lon="3.64169">
        <ele>192</ele>
        <time>2018-03-30T04:35:32Z</time>
      </trkpt>
      <trkpt lat="48.96821" lon="3.64167">
        <ele>192</ele>
        <time>2018-03-30T04:36:32Z</time>
      </trkpt>
      <trkpt lat="48.96803" lon="3.6416">
        <ele>192</ele>
        <time>2018-03-30T04:37:32Z</time>
      </trkpt>
      <trkpt lat="48.96802" lon="3.6416">
        <ele>192</ele>
        <time>2018-03-30T04:38:32Z</time>
      </trkpt>
      <trkpt lat="48.96781" lon="3.64151">
        <ele>192</ele>
        <time>2018-03-30T04:39:32Z</time>
      </trkpt>
      <trkpt lat="48.96759" lon="3.64142">
        <ele>191</ele>
        <time>2018-03-30T04:40:32Z</time>
      </trkpt>
      <trkpt lat="48.96738" lon="3.64132">
        <ele>192</ele>
        <time>2018-03-30T04:41:32Z</time>
      </trkpt>
      <trkpt lat="48.96716" lon="3.64123">
        <ele>193</ele>
        <time>2018-03-30T04:42:32Z</time>
      </trkpt>
      <trkpt lat="48.96695" lon="3.64114">
        <ele>193</ele>
        <time>2018-03-30T04:43:32Z</time>
      </trkpt>
      <trkpt lat="48.96674" lon="3.64105">
        <ele>194</ele>
        <time>2018-03-30T04:44:32Z</time>
      </trkpt>
      <trkpt lat="48.96652" lon="3.64096">
        <ele>195</ele>
        <time>2018-03-30T04:45:32Z</time>
      </trkpt>
      <trkpt lat="48.96629" lon="3.64086">
        <ele>197</ele>
        <time>2018-03-30T04:46:32Z</time>
      </trkpt>
      <trkpt lat="48.96609" lon="3.64078">
        <ele>198</ele>
        <time>2018-03-30T04:47:32Z</time>
      </trkpt>
      <trkpt lat="48.96586" lon="3.64068">
        <ele>199</ele>
        <time>2018-03-30T04:48:32Z</time>
      </trkpt>
      <trkpt lat="48.96559" lon="3.64058">
        <ele>201</ele>
        <time>2018-03-30T04:49:32Z</time>
      </trkpt>
      <trkpt lat="48.96533" lon="3.64046">
        <ele>202</ele>
        <time>2018-03-30T04:50:32Z</time>
      </trkpt>
      <trkpt lat="48.96508" lon="3.64036">
        <ele>203</ele>
        <time>2018-03-30T04:51:32Z</time>
      </trkpt>
      <trkpt lat="48.96499" lon="3.64032">
        <ele>204</ele>
        <time>2018-03-30T04:52:32Z</time>
      </trkpt>
      <trkpt lat="48.96486" lon="3.64026">
        <ele>204</ele>
        <time>2018-03-30T04:53:32Z</time>
      </trkpt>
      <trkpt lat="48.9647" lon="3.64019">
        <ele>205</ele>
        <time>2018-03-30T04:54:32Z</time>
      </trkpt>
      <trkpt lat="48.96447" lon="3.64009">
        <ele>206</ele>
        <time>2018-03-30T04:55:32Z</time>
      </trkpt>
      <trkpt lat="48.96424" lon="3.63999">
        <ele>207</ele>
        <time>2018-03-30T04:56:32Z</time>
      </trkpt>
      <trkpt lat="48.96403" lon="3.6399">
        <ele>209</ele>
        <time>2018-03-30T04:57:32Z</time>
      </trkpt>
      <trkpt lat="48.96385" lon="3.63982">
        <ele>212</ele>
        <time>2018-03-30T04:58:32Z</time>
      </trkpt>
      <trkpt lat="48.9637" lon="3.63974">
        <ele>215</ele>
        <time>2018-03-30T04:59:32Z</time>
      </trkpt>
      <trkpt lat="48.9636" lon="3.63969">
        <ele>216</ele>
        <time>2018-03-30T05:00:32Z</time>
      </trkpt>
      <trkpt lat="48.96352" lon="3.63965">
        <ele>217</ele>
        <time>2018-03-30T05:01:32Z</time>
      </trkpt>
      <trkpt lat="48.96344" lon="3.63959">
        <ele>218</ele>
        <time>2018-03-30T05:02:32Z</time>
      </trkpt>
      <trkpt lat="48.96338" lon="3.63954">
        <ele>219</ele>
        <time>2018-03-30T05:03:32Z</time>
      </trkpt>
      <trkpt lat="48.96335" lon="3.63951">
        <ele>219</ele>
        <time>2018-03-30T05:04:32Z</time>
      </trkpt>
      <trkpt lat="48.96329" lon="3.63946">
        <ele>220</ele>
        <time>2018-03-30T05:05:32Z</time>
      </trkpt>
      <trkpt lat="48.96317" lon="3.63935">
        <ele>221</ele>
        <time>2018-03-30T05:06:32Z</time>
      </trkpt>
      <trkpt lat="48.96308" lon="3.63924">
        <ele>222</ele>
        <time>2018-03-30T05:07:32Z</time>
      </trkpt>
      <trkpt lat="48.96292" lon="3.63905">
        <ele>224</ele>
        <time>2018-03-30T05:08:32Z</time>
      </trkpt>
      <trkpt lat="48.9629" lon="3.63903">
        <ele>225</ele>
        <time>2018-03-30T05:09:32Z</time>
      </trkpt>
      <trkpt lat="48.96184" lon="3.63771">
        <ele>235</ele>
        <time>2018-03-30T05:10:32Z</time>
      </trkpt>
      <trkpt lat="48.95993" lon="3.63531">
        <ele>230</ele>
        <time>2018-03-30T05:11:32Z</time>
      </trkpt>
      <trkpt lat="48.95875" lon="3.63385">
        <ele>224</ele>
        <time>2018-03-30T05:12:32Z</time>
      </trkpt>
      <trkpt lat="48.95873" lon="3.63382">
        <ele>224</ele>
        <time>2018-03-30T05:13:32Z</time>
      </trkpt>
      <trkpt lat="48.95847" lon="3.63349">
        <ele>221</ele>
        <time>2018-03-30T05:14:32Z</time>
      </trkpt>
      <trkpt lat="48.9583" lon="3.63326">
        <ele>220</ele>
        <time>2018-03-30T05:15:32Z</time>
      </trkpt>
      <trkpt lat="48.95822" lon="3.63315">
        <ele>219</ele>
        <time>2018-03-30T05:16:32Z</time>
      </trkpt>
      <trkpt lat="48.958" lon="3.63289">
        <ele>217</ele>
        <time>2018-03-30T05:17:32Z</time>
      </trkpt>
      <trkpt lat="48.95766" lon="3.63246">
        <ele>214</ele>
        <time>2018-03-30T05:18:32Z</time>
      </trkpt>
      <trkpt lat="48.95739" lon="3.63212">
        <ele>211</ele>
        <time>2018-03-30T05:19:32Z</time>
      </trkpt>
      <trkpt lat="48.95723" lon="3.6319">
        <ele>209</ele>
        <time>2018-03-30T05:20:32Z</time>
      </trkpt>
      <trkpt lat="48.95715" lon="3.6318">
        <ele>208</ele>
        <time>2018-03-30T05:21:32Z</time>
      </trkpt>
      <trkpt lat="48.95695" lon="3.63155">
        <ele>206</ele>
        <time>2018-03-30T05:22:32Z</time>
      </trkpt>
      <trkpt lat="48.95658" lon="3.63108">
        <ele>203</ele>
        <time>2018-03-30T05:23:32Z</time>
      </trkpt>
      <trkpt lat="48.95617" lon="3.63057">
        <ele>200</ele>
        <time>2018-03-30T05:24:32Z</time>
      </trkpt>
      <trkpt lat="48.95584" lon="3.63015">
        <ele>199</ele>
        <time>2018-03-30T05:25:32Z</time>
      </trkpt>
      <trkpt lat="48.95574" lon="3.63002">
        <ele>199</ele>
        <time>2018-03-30T05:26:32Z</time>
      </trkpt>
      <trkpt lat="48.95555" lon="3.6298">
        <ele>198</ele>
        <time>2018-03-30T05:27:32Z</time>
      </trkpt>
      <trkpt lat="48.9552" lon="3.62934">
        <ele>197</ele>
        <time>2018-03-30T05:28:32Z</time>
      </trkpt>
      <trkpt lat="48.95488" lon="3.62896">
        <ele>196</ele>
        <time>2018-03-30T05:29:32Z</time>
      </trkpt>
      <trkpt lat="48.95452" lon="3.62849">
        <ele>194</ele>
        <time>2018-03-30T05:30:32Z</time>
      </trkpt>
      <trkpt lat="48.95417" lon="3.62805">
        <ele>193</ele>
        <time>2018-03-30T05:31:32Z</time>
      </trkpt>
      <trkpt lat="48.95387" lon="3.62768">
        <ele>193</ele>
        <time>2018-03-30T05:32:32Z</time>
      </trkpt>
      <trkpt lat="48.95351" lon="3.62722">
        <ele>192</ele>
        <time>2018-03-30T05:33:32Z</time>
      </trkpt>
      <trkpt lat="48.95318" lon="3.62681">
        <ele>191</ele>
        <time>2018-03-30T05:34:32Z</time>
      </trkpt>
      <trkpt lat="48.95285" lon="3.6264">
        <ele>189</ele>
        <time>2018-03-30T05:35:32Z</time>
      </trkpt>
      <trkpt lat="48.95254" lon="3.626">
        <ele>187</ele>
        <time>2018-03-30T05:36:32Z</time>
      </trkpt>
      <trkpt lat="48.95239" lon="3.62582">
        <ele>187</ele>
        <time>2018-03-30T05:37:32Z</time>
      </trkpt>
      <trkpt lat="48.95225" lon="3.62564">
        <ele>186</ele>
        <time>2018-03-30T05:38:32Z</time>
      </trkpt>
      <trkpt lat="48.95194" lon="3.62526">
        <ele>185</ele>
        <time>2018-03-30T05:39:32Z</time>
      </trkpt>
      <trkpt lat="48.9517" lon="3.62494">
        <ele>184</ele>
        <time>2018-03-30T05:40:32Z</time>
      </trkpt>
      <trkpt lat="48.95154" lon="3.62473">
        <ele>182</ele>
        <time>2018-03-30T05:41:32Z</time>
      </trkpt>
      <trkpt lat="48.95152" lon="3.62469">
        <ele>182</ele>
        <time>2018-03-30T05:42:32Z</time>
      </trkpt>
      <trkpt lat="48.95145" lon="3.62461">
        <ele>181</ele>
        <time>2018-03-30T05:43:32Z</time>
      </trkpt>
      <trkpt lat="48.95125" lon="3.62436">
        <ele>179</ele>
        <time>2018-03-30T05:44:32Z</time>
      </trkpt>
      <trkpt lat="48.95095" lon="3.62398">
        <ele>176</ele>
        <time>2018-03-30T05:45:32Z</time>
      </trkpt>
      <trkpt lat="48.95071" lon="3.62366">
        <ele>173</ele>
        <time>2018-03-30T05:46:32Z</time>
      </trkpt>
      <trkpt lat="48.95044" lon="3.62333">
        <ele>172</ele>
        <time>2018-03-30T05:47:32Z</time>
      </trkpt>
      <trkpt lat="48.95025" lon="3.62308">
        <ele>172</ele>
        <time>2018-03-30T05:48:32Z</time>
      </trkpt>
      <trkpt lat="48.9501" lon="3.62288">
        <ele>172</ele>
        <time>2018-03-30T05:49:32Z</time>
      </trkpt>
      <trkpt lat="48.94994" lon="3.62268">
        <ele>171</ele>
        <time>2018-03-30T05:50:32Z</time>
      </trkpt>
      <trkpt lat="48.9498" lon="3.62251">
        <ele>171</ele>
        <time>2018-03-30T05:51:32Z</time>
      </trkpt>
      <trkpt lat="48.9497" lon="3.62241">
        <ele>171</ele>
        <time>2018-03-30T05:52:32Z</time>
      </trkpt>
      <trkpt lat="48.94963" lon="3.62235">
        <ele>171</ele>
        <time>2018-03-30T05:53:32Z</time>
      </trkpt>
      <trkpt lat="48.94951" lon="3.62228">
        <ele>171</ele>
        <time>2018-03-30T05:54:32Z</time>
      </trkpt>
      <trkpt lat="48.94936" lon="3.62221">
        <ele>170</ele>
        <time>2018-03-30T05:55:32Z</time>
      </trkpt>
      <trkpt lat="48.94913" lon="3.62213">
        <ele>170</ele>
        <time>2018-03-30T05:56:32Z</time>
      </trkpt>
      <trkpt lat="48.94893" lon="3.62205">
        <ele>171</ele>
        <time>2018-03-30T05:57:32Z</time>
      </trkpt>
      <trkpt lat="48.94878" lon="3.622">
        <ele>171</ele>
        <time>2018-03-30T05:58:32Z</time>
      </trkpt>
      <trkpt lat="48.94873" lon="3.62199">
        <ele>171</ele>
        <time>2018-03-30T05:59:32Z</time>
      </trkpt>
      <trkpt lat="48.9487" lon="3.62197">
        <ele>171</ele>
        <time>2018-03-30T06:00:32Z</time>
      </trkpt>
      <trkpt lat="48.94867" lon="3.62195">
        <ele>171</ele>
        <time>2018-03-30T06:01:32Z</time>
      </trkpt>
      <trkpt lat="48.94864" lon="3.62192">
        <ele>171</ele>
        <time>2018-03-30T06:02:32Z</time>
      </trkpt>
      <trkpt lat="48.9486" lon="3.62187">
        <ele>171</ele>
        <time>2018-03-30T06:03:32Z</time>
      </trkpt>
      <trkpt lat="48.94857" lon="3.62182">
        <ele>170</ele>
        <time>2018-03-30T06:04:32Z</time>
      </trkpt>
      <trkpt lat="48.94852" lon="3.62174">
        <ele>170</ele>
        <time>2018-03-30T06:05:32Z</time>
      </trkpt>
      <trkpt lat="48.94849" lon="3.62165">
        <ele>170</ele>
        <time>2018-03-30T06:06:32Z</time>
      </trkpt>
      <trkpt lat="48.94847" lon="3.62157">
        <ele>170</ele>
        <time>2018-03-30T06:07:32Z</time>
      </trkpt>
      <trkpt lat="48.94846" lon="3.62153">
        <ele>170</ele>
        <time>2018-03-30T06:08:32Z</time>
      </trkpt>
      <trkpt lat="48.94845" lon="3.62143">
        <ele>170</ele>
        <time>2018-03-30T06:09:32Z</time>
      </trkpt>
      <trkpt lat="48.94846" lon="3.62128">
        <ele>170</ele>
        <time>2018-03-30T06:10:32Z</time>
      </trkpt>
      <trkpt lat="48.94848" lon="3.62114">
        <ele>170</ele>
        <time>2018-03-30T06:11:32Z</time>
      </trkpt>
      <trkpt lat="48.9485" lon="3.621">
        <ele>170</ele>
        <time>2018-03-30T06:12:32Z</time>
      </trkpt>
      <trkpt lat="48.94852" lon="3.62091">
        <ele>170</ele>
        <time>2018-03-30T06:13:32Z</time>
      </trkpt>
      <trkpt lat="48.94853" lon="3.62082">
        <ele>170</ele>
        <time>2018-03-30T06:14:32Z</time>
      </trkpt>
      <trkpt lat="48.94856" lon="3.62065">
        <ele>171</ele>
        <time>2018-03-30T06:15:32Z</time>
      </trkpt>
      <trkpt lat="48.94861" lon="3.62032">
        <ele>172</ele>
        <time>2018-03-30T06:16:32Z</time>
      </trkpt>
      <trkpt lat="48.94869" lon="3.61989">
        <ele>175</ele>
        <time>2018-03-30T06:17:32Z</time>
      </trkpt>
      <trkpt lat="48.94844" lon="3.61981">
        <ele>175</ele>
        <time>2018-03-30T06:18:32Z</time>
      </trkpt>
      <trkpt lat="48.94819" lon="3.61973">
        <ele>175</ele>
        <time>2018-03-30T06:19:32Z</time>
      </trkpt>
      <trkpt lat="48.9479" lon="3.61965">
        <ele>174</ele>
        <time>2018-03-30T06:20:32Z</time>
      </trkpt>
      <trkpt lat="48.94775" lon="3.6196">
        <ele>174</ele>
        <time>2018-03-30T06:21:32Z</time>
      </trkpt>
      <trkpt lat="48.94763" lon="3.61953">
        <ele>175</ele>
        <time>2018-03-30T06:22:32Z</time>
      </trkpt>
      <trkpt lat="48.94737" lon="3.61938">
        <ele>176</ele>
        <time>2018-03-30T06:23:32Z</time>
      </trkpt>
      <trkpt lat="48.94713" lon="3.61926">
        <ele>177</ele>
        <time>2018-03-30T06:24:32Z</time>
      </trkpt>
      <trkpt lat="48.94701" lon="3.61921">
        <ele>178</ele>
        <time>2018-03-30T06:25:32Z</time>
      </trkpt>
      <trkpt lat="48.94688" lon="3.61919">
        <ele>178</ele>
        <time>2018-03-30T06:26:32Z</time>
      </trkpt>
      <trkpt lat="48.94668" lon="3.6192">
        <ele>179</ele>
        <time>2018-03-30T06:27:32Z</time>
      </trkpt>
      <trkpt lat="48.94634" lon="3.61924">
        <ele>180</ele>
        <time>2018-03-30T06:28:32Z</time>
      </trkpt>
      <trkpt lat="48.94588" lon="3.61932">
        <ele>181</ele>
        <time>2018-03-30T06:29:32Z</time>
      </trkpt>
      <trkpt lat="48.94557" lon="3.61938">
        <ele>182</ele>
        <time>2018-03-30T06:30:32Z</time>
      </trkpt>
      <trkpt lat="48.94526" lon="3.61942">
        <ele>184</ele>
        <time>2018-03-30T06:31:32Z</time>
      </trkpt>
      <trkpt lat="48.94496" lon="3.61946">
        <ele>186</ele>
        <time>2018-03-30T06:32:32Z</time>
      </trkpt>
      <trkpt lat="48.94476" lon="3.61944">
        <ele>186</ele>
        <time>2018-03-30T06:33:32Z</time>
      </trkpt>
      <trkpt lat="48.94462" lon="3.6194">
        <ele>187</ele>
        <time>2018-03-30T06:34:32Z</time>
      </trkpt>
      <trkpt lat="48.94434" lon="3.61927">
        <ele>188</ele>
        <time>2018-03-30T06:35:32Z</time>
      </trkpt>
      <trkpt lat="48.94411" lon="3.61914">
        <ele>189</ele>
        <time>2018-03-30T06:36:32Z</time>
      </trkpt>
      <trkpt lat="48.94388" lon="3.61902">
        <ele>190</ele>
        <time>2018-03-30T06:37:32Z</time>
      </trkpt>
      <trkpt lat="48.94339" lon="3.61874">
        <ele>192</ele>
        <time>2018-03-30T06:38:32Z</time>
      </trkpt>
      <trkpt lat="48.94298" lon="3.61852">
        <ele>193</ele>
        <time>2018-03-30T06:39:32Z</time>
      </trkpt>
      <trkpt lat="48.94259" lon="3.6183">
        <ele>195</ele>
        <time>2018-03-30T06:40:32Z</time>
      </trkpt>
      <trkpt lat="48.94225" lon="3.61811">
        <ele>196</ele>
        <time>2018-03-30T06:41:32Z</time>
      </trkpt>
      <trkpt lat="48.94197" lon="3.61795">
        <ele>197</ele>
        <time>2018-03-30T06:42:32Z</time>
      </trkpt>
      <trkpt lat="48.94183" lon="3.61786">
        <ele>197</ele>
        <time>2018-03-30T06:43:32Z</time>
      </trkpt>
      <trkpt lat="48.94167" lon="3.61778">
        <ele>198</ele>
        <time>2018-03-30T06:44:32Z</time>
      </trkpt>
      <trkpt lat="48.94142" lon="3.61764">
        <ele>197</ele>
        <time>2018-03-30T06:45:32Z</time>
      </trkpt>
      <trkpt lat="48.94094" lon="3.61737">
        <ele>197</ele>
        <time>2018-03-30T06:46:32Z</time>
      </trkpt>
      <trkpt lat="48.94047" lon="3.61711">
        <ele>196</ele>
        <time>2018-03-30T06:47:32Z</time>
      </trkpt>
      <trkpt lat="48.94013" lon="3.61692">
        <ele>195</ele>
        <time>2018-03-30T06:48:32Z</time>
      </trkpt>
      <trkpt lat="48.93962" lon="3.61664">
        <ele>197</ele>
        <time>2018-03-30T06:49:32Z</time>
      </trkpt>
      <trkpt lat="48.93927" lon="3.61644">
        <ele>200</ele>
        <time>2018-03-30T06:50:32Z</time>
      </trkpt>
      <trkpt lat="48.93888" lon="3.61621">
        <ele>201</ele>
        <time>2018-03-30T06:51:32Z</time>
      </trkpt>
      <trkpt lat="48.93884" lon="3.61619">
        <ele>201</ele>
        <time>2018-03-30T06:52:32Z</time>
      </trkpt>
      <trkpt lat="48.93842" lon="3.61596">
        <ele>203</ele>
        <time>2018-03-30T06:53:32Z</time>
      </trkpt>
      <trkpt lat="48.93806" lon="3.61575">
        <ele>203</ele>
        <time>2018-03-30T06:54:32Z</time>
      </trkpt>
      <trkpt lat="48.93787" lon="3.61564">
        <ele>203</ele>
        <time>2018-03-30T06:55:32Z</time>
      </trkpt>
      <trkpt lat="48.93777" lon="3.61556">
        <ele>203</ele>
        <time>2018-03-30T06:56:32Z</time>
      </trkpt>
      <trkpt lat="48.93766" lon="3.61547">
        <ele>203</ele>
        <time>2018-03-30T06:57:32Z</time>
      </trkpt>
      <trkpt lat="48.93729" lon="3.61518">
        <ele>203</ele>
        <time>2018-03-30T06:58:32Z</time>
      </trkpt>
      <trkpt lat="48.93697" lon="3.61489">
        <ele>202</ele>
        <time>2018-03-30T06:59:32Z</time>
      </trkpt>
      <trkpt lat="48.93685" lon="3.61478">
        <ele>202</ele>
        <time>2018-03-30T07:00:32Z</time>
      </trkpt>
      <trkpt lat="48.93661" lon="3.61459">
        <ele>202</ele>
        <time>2018-03-30T07:01:32Z</time>
      </trkpt>
      <trkpt lat="48.93628" lon="3.61434">
        <ele>202</ele>
        <time>2018-03-30T07:02:32Z</time>
      </trkpt>
      <trkpt lat="48.93627" lon="3.61433">
        <ele>202</ele>
        <time>2018-03-30T07:03:32Z</time>
      </trkpt>
      <trkpt lat="48.93587" lon="3.61403">
        <ele>201</ele>
        <time>2018-03-30T07:04:32Z</time>
      </trkpt>
      <trkpt lat="48.93566" lon="3.61389">
        <ele>201</ele>
        <time>2018-03-30T07:05:32Z</time>
      </trkpt>
      <trkpt lat="48.93556" lon="3.61384">
        <ele>201</ele>
        <time>2018-03-30T07:06:32Z</time>
      </trkpt>
      <trkpt lat="48.93536" lon="3.61373">
        <ele>201</ele>
        <time>2018-03-30T07:07:32Z</time>
      </trkpt>
      <trkpt lat="48.9352" lon="3.61366">
        <ele>200</ele>
        <time>2018-03-30T07:08:32Z</time>
      </trkpt>
      <trkpt lat="48.93509" lon="3.61362">
        <ele>200</ele>
        <time>2018-03-30T07:09:32Z</time>
      </trkpt>
      <trkpt lat="48.93344" lon="3.613">
        <ele>209</ele>
        <time>2018-03-30T07:10:32Z</time>
      </trkpt>
      <trkpt lat="48.93334" lon="3.61294">
        <ele>210</ele>
        <time>2018-03-30T07:11:32Z</time>
      </trkpt>
      <trkpt lat="48.93316" lon="3.61284">
        <ele>212</ele>
        <time>2018-03-30T07:12:32Z</time>
      </trkpt>
      <trkpt lat="48.93309" lon="3.61279">
        <ele>212</ele>
        <time>2018-03-30T07:13:32Z</time>
      </trkpt>
      <trkpt lat="48.93296" lon="3.6127">
        <ele>213</ele>
        <time>2018-03-30T07:14:32Z</time>
      </trkpt>
      <trkpt lat="48.93287" lon="3.61262">
        <ele>214</ele>
        <time>2018-03-30T07:15:32Z</time>
      </trkpt>
      <trkpt lat="48.93267" lon="3.61243">
        <ele>216</ele>
        <time>2018-03-30T07:16:32Z</time>
      </trkpt>
      <trkpt lat="48.93245" lon="3.61222">
        <ele>217</ele>
        <time>2018-03-30T07:17:32Z</time>
      </trkpt>
      <trkpt lat="48.93239" lon="3.61215">
        <ele>217</ele>
        <time>2018-03-30T07:18:32Z</time>
      </trkpt>
      <trkpt lat="48.9321" lon="3.61183">
        <ele>217</ele>
        <time>2018-03-30T07:19:32Z</time>
      </trkpt>
      <trkpt lat="48.93175" lon="3.61147">
        <ele>218</ele>
        <time>2018-03-30T07:20:32Z</time>
      </trkpt>
      <trkpt lat="48.93141" lon="3.61112">
        <ele>219</ele>
        <time>2018-03-30T07:21:32Z</time>
      </trkpt>
      <trkpt lat="48.93111" lon="3.6108">
        <ele>219</ele>
        <time>2018-03-30T07:22:32Z</time>
      </trkpt>
      <trkpt lat="48.93093" lon="3.61061">
        <ele>219</ele>
        <time>2018-03-30T07:23:32Z</time>
      </trkpt>
      <trkpt lat="48.93087" lon="3.61055">
        <ele>219</ele>
        <time>2018-03-30T07:24:32Z</time>
      </trkpt>
      <trkpt lat="48.93081" lon="3.61049">
        <ele>219</ele>
        <time>2018-03-30T07:25:32Z</time>
      </trkpt>
      <trkpt lat="48.9307" lon="3.6104">
        <ele>218</ele>
        <time>2018-03-30T07:26:32Z</time>
      </trkpt>
      <trkpt lat="48.93061" lon="3.61033">
        <ele>218</ele>
        <time>2018-03-30T07:27:32Z</time>
      </trkpt>
      <trkpt lat="48.93044" lon="3.61022">
        <ele>217</ele>
        <time>2018-03-30T07:28:32Z</time>
      </trkpt>
      <trkpt lat="48.93028" lon="3.61013">
        <ele>216</ele>
        <time>2018-03-30T07:29:32Z</time>
      </trkpt>
      <trkpt lat="48.9301" lon="3.61005">
        <ele>215</ele>
        <time>2018-03-30T07:30:32Z</time>
      </trkpt>
      <trkpt lat="48.92991" lon="3.60999">
        <ele>215</ele>
        <time>2018-03-30T07:31:32Z</time>
      </trkpt>
      <trkpt lat="48.92978" lon="3.60995">
        <ele>215</ele>
        <time>2018-03-30T07:32:32Z</time>
      </trkpt>
      <trkpt lat="48.92964" lon="3.6099">
        <ele>215</ele>
        <time>2018-03-30T07:33:32Z</time>
      </trkpt>
      <trkpt lat="48.92928" lon="3.60979">
        <ele>215</ele>
        <time>2018-03-30T07:34:32Z</time>
      </trkpt>
      <trkpt lat="48.929" lon="3.60969">
        <ele>215</ele>
        <time>2018-03-30T07:35:32Z</time>
      </trkpt>
      <trkpt lat="48.92892" lon="3.60966">
        <ele>215</ele>
        <time>2018-03-30T07:36:32Z</time>
      </trkpt>
      <trkpt lat="48.92832" lon="3.60945">
        <ele>216</ele>
        <time>2018-03-30T07:37:32Z</time>
      </trkpt>
      <trkpt lat="48.92787" lon="3.60929">
        <ele>217</ele>
        <time>2018-03-30T07:38:32Z</time>
      </trkpt>
      <trkpt lat="48.92774" lon="3.60925">
        <ele>217</ele>
        <time>2018-03-30T07:39:32Z</time>
      </trkpt>
      <trkpt lat="48.92742" lon="3.60912">
        <ele>217</ele>
        <time>2018-03-30T07:40:32Z</time>
      </trkpt>
      <trkpt lat="48.92714" lon="3.60896">
        <ele>217</ele>
        <time>2018-03-30T07:41:32Z</time>
      </trkpt>
      <trkpt lat="48.92675" lon="3.60873">
        <ele>217</ele>
        <time>2018-03-30T07:42:32Z</time>
      </trkpt>
      <trkpt lat="48.92573" lon="3.60814">
        <ele>209</ele>
        <time>2018-03-30T07:43:32Z</time>
      </trkpt>
      <trkpt lat="48.92537" lon="3.60793">
        <ele>206</ele>
        <time>2018-03-30T07:44:32Z</time>
      </trkpt>
      <trkpt lat="48.92534" lon="3.60791">
        <ele>206</ele>
        <time>2018-03-30T07:45:32Z</time>
      </trkpt>
      <trkpt lat="48.92505" lon="3.60773">
        <ele>203</ele>
        <time>2018-03-30T07:46:32Z</time>
      </trkpt>
      <trkpt lat="48.92459" lon="3.60746">
        <ele>201</ele>
        <time>2018-03-30T07:47:32Z</time>
      </trkpt>
      <trkpt lat="48.92416" lon="3.60721">
        <ele>199</ele>
        <time>2018-03-30T07:48:32Z</time>
      </trkpt>
      <trkpt lat="48.9237" lon="3.60692">
        <ele>197</ele>
        <time>2018-03-30T07:49:32Z</time>
      </trkpt>
      <trkpt lat="48.92336" lon="3.60671">
        <ele>196</ele>
        <time>2018-03-30T07:50:32Z</time>
      </trkpt>
      <trkpt lat="48.92314" lon="3.6066">
        <ele>196</ele>
        <time>2018-03-30T07:51:32Z</time>
      </trkpt>
      <trkpt lat="48.92308" lon="3.60656">
        <ele>196</ele>
        <time>2018-03-30T07:52:32Z</time>
      </trkpt>
      <trkpt lat="48.92299" lon="3.60653">
        <ele>196</ele>
        <time>2018-03-30T07:53:32Z</time>
      </trkpt>
      <trkpt lat="48.92285" lon="3.6065">
        <ele>196</ele>
        <time>2018-03-30T07:54:32Z</time>
      </trkpt>
      <trkpt lat="48.92269" lon="3.60648">
        <ele>196</ele>
        <time>2018-03-30T07:55:32Z</time>
      </trkpt>
      <trkpt lat="48.92245" lon="3.6065">
        <ele>196</ele>
        <time>2018-03-30T07:56:32Z</time>
      </trkpt>
      <trkpt lat="48.922" lon="3.60655">
        <ele>195</ele>
        <time>2018-03-30T07:57:32Z</time>
      </trkpt>
      <trkpt lat="48.92153" lon="3.60658">
        <ele>195</ele>
        <time>2018-03-30T07:58:32Z</time>
      </trkpt>
      <trkpt lat="48.92105" lon="3.60665">
        <ele>194</ele>
        <time>2018-03-30T07:59:32Z</time>
      </trkpt>
      <trkpt lat="48.92076" lon="3.60665">
        <ele>194</ele>
        <time>2018-03-30T08:00:32Z</time>
      </trkpt>
      <trkpt lat="48.92066" lon="3.60665">
        <ele>194</ele>
        <time>2018-03-30T08:01:32Z</time>
      </trkpt>
      <trkpt lat="48.92053" lon="3.60664">
        <ele>194</ele>
        <time>2018-03-30T08:02:32Z</time>
      </trkpt>
      <trkpt lat="48.92036" lon="3.60661">
        <ele>194</ele>
        <time>2018-03-30T08:03:32Z</time>
      </trkpt>
      <trkpt lat="48.92031" lon="3.6066">
        <ele>194</ele>
        <time>2018-03-30T08:04:32Z</time>
      </trkpt>
      <trkpt lat="48.92026" lon="3.60659">
        <ele>194</ele>
        <time>2018-03-30T08:05:32Z</time>
      </trkpt>
      <trkpt lat="48.92012" lon="3.60654">
        <ele>194</ele>
        <time>2018-03-30T08:06:32Z</time>
      </trkpt>
      <trkpt lat="48.91986" lon="3.60646">
        <ele>194</ele>
        <time>2018-03-30T08:07:32Z</time>
      </trkpt>
      <trkpt lat="48.91968" lon="3.60639">
        <ele>194</ele>
        <time>2018-03-30T08:08:32Z</time>
      </trkpt>
      <trkpt lat="48.91937" lon="3.60626">
        <ele>194</ele>
        <time>2018-03-30T08:09:32Z</time>
      </trkpt>
      <trkpt lat="48.91877" lon="3.60602">
        <ele>193</ele>
        <time>2018-03-30T08:10:32Z</time>
      </trkpt>
      <trkpt lat="48.91815" lon="3.60576">
        <ele>192</ele>
        <time>2018-03-30T08:11:32Z</time>
      </trkpt>
      <trkpt lat="48.91795" lon="3.60569">
        <ele>192</ele>
        <time>2018-03-30T08:12:32Z</time>
      </trkpt>
      <trkpt lat="48.91761" lon="3.60557">
        <ele>192</ele>
        <time>2018-03-30T08:13:32Z</time>
      </trkpt>
      <trkpt lat="48.91716" lon="3.60539">
        <ele>193</ele>
        <time>2018-03-30T08:14:32Z</time>
      </trkpt>
      <trkpt lat="48.9168" lon="3.60524">
        <ele>193</ele>
        <time>2018-03-30T08:15:32Z</time>
      </trkpt>
      <trkpt lat="48.91651" lon="3.60513">
        <ele>194</ele>
        <time>2018-03-30T08:16:32Z</time>
      </trkpt>
      <trkpt lat="48.91646" lon="3.60512">
        <ele>194</ele>
        <time>2018-03-30T08:17:32Z</time>
      </trkpt>
      <trkpt lat="48.91627" lon="3.60506">
        <ele>194</ele>
        <time>2018-03-30T08:18:32Z</time>
      </trkpt>
      <trkpt lat="48.91613" lon="3.60504">
        <ele>194</ele>
        <time>2018-03-30T08:19:32Z</time>
      </trkpt>
      <trkpt lat="48.91602" lon="3.60504">
        <ele>194</ele>
        <time>2018-03-30T08:20:32Z</time>
      </trkpt>
      <trkpt lat="48.91583" lon="3.60506">
        <ele>194</ele>
        <time>2018-03-30T08:21:32Z</time>
      </trkpt>
      <trkpt lat="48.91562" lon="3.60511">
        <ele>195</ele>
        <time>2018-03-30T08:22:32Z</time>
      </trkpt>
      <trkpt lat="48.91547" lon="3.60515">
        <ele>196</ele>
        <time>2018-03-30T08:23:32Z</time>
      </trkpt>
      <trkpt lat="48.91542" lon="3.60514">
        <ele>196</ele>
        <time>2018-03-30T08:24:32Z</time>
      </trkpt>
      <trkpt lat="48.91519" lon="3.60528">
        <ele>197</ele>
        <time>2018-03-30T08:25:32Z</time>
      </trkpt>
      <trkpt lat="48.91519" lon="3.60528">
        <ele>197</ele>
        <time>2018-03-30T08:26:32Z</time>
      </trkpt>
      <trkpt lat="48.91519" lon="3.60527">
        <ele>197</ele>
        <time>2018-03-30T08:27:32Z</time>
      </trkpt>
      <trkpt lat="48.91518" lon="3.60527">
        <ele>197</ele>
        <time>2018-03-30T08:28:32Z</time>
      </trkpt>
      <trkpt lat="48.91518" lon="3.60526">
        <ele>197</ele>
        <time>2018-03-30T08:29:32Z</time>
      </trkpt>
      <trkpt lat="48.91517" lon="3.60526">
        <ele>197</ele>
        <time>2018-03-30T08:30:32Z</time>
      </trkpt>
      <trkpt lat="48.91516" lon="3.60525">
        <ele>197</ele>
        <time>2018-03-30T08:31:32Z</time>
      </trkpt>
      <trkpt lat="48.91515" lon="3.60525">
        <ele>197</ele>
        <time>2018-03-30T08:32:32Z</time>
      </trkpt>
      <trkpt lat="48.91514" lon="3.60525">
        <ele>197</ele>
        <time>2018-03-30T08:33:32Z</time>
      </trkpt>
      <trkpt lat="48.91513" lon="3.60525">
        <ele>197</ele>
        <time>2018-03-30T08:34:32Z</time>
      </trkpt>
      <trkpt lat="48.91512" lon="3.60525">
        <ele>197</ele>
        <time>2018-03-30T08:35:32Z</time>
      </trkpt>
      <trkpt lat="48.91507" lon="3.60516">
        <ele>197</ele>
        <time>2018-03-30T08:36:32Z</time>
      </trkpt>
      <trkpt lat="48.91501" lon="3.60512">
        <ele>197</ele>
        <time>2018-03-30T08:37:32Z</time>
      </trkpt>
      <trkpt lat="48.91494" lon="3.60503">
        <ele>197</ele>
        <time>2018-03-30T08:38:32Z</time>
      </trkpt>
      <trkpt lat="48.9148" lon="3.6048">
        <ele>197</ele>
        <time>2018-03-30T08:39:32Z</time>
      </trkpt>
      <trkpt lat="48.91463" lon="3.60451">
        <ele>197</ele>
        <time>2018-03-30T08:40:32Z</time>
      </trkpt>
      <trkpt lat="48.91448" lon="3.60424">
        <ele>198</ele>
        <time>2018-03-30T08:41:32Z</time>
      </trkpt>
      <trkpt lat="48.91437" lon="3.604">
        <ele>198</ele>
        <time>2018-03-30T08:42:32Z</time>
      </trkpt>
      <trkpt lat="48.91432" lon="3.60388">
        <ele>198</ele>
        <time>2018-03-30T08:43:32Z</time>
      </trkpt>
      <trkpt lat="48.91432" lon="3.60384">
        <ele>198</ele>
        <time>2018-03-30T08:44:32Z</time>
      </trkpt>
      <trkpt lat="48.91431" lon="3.60378">
        <ele>198</ele>
        <time>2018-03-30T08:45:32Z</time>
      </trkpt>
      <trkpt lat="48.91428" lon="3.6036">
        <ele>198</ele>
        <time>2018-03-30T08:46:32Z</time>
      </trkpt>
      <trkpt lat="48.91425" lon="3.60331">
        <ele>199</ele>
        <time>2018-03-30T08:47:32Z</time>
      </trkpt>
      <trkpt lat="48.9142" lon="3.603">
        <ele>198</ele>
        <time>2018-03-30T08:48:32Z</time>
      </trkpt>
      <trkpt lat="48.91414" lon="3.60251">
        <ele>197</ele>
        <time>2018-03-30T08:49:32Z</time>
      </trkpt>
      <trkpt lat="48.91409" lon="3.60204">
        <ele>197</ele>
        <time>2018-03-30T08:50:32Z</time>
      </trkpt>
      <trkpt lat="48.91406" lon="3.60185">
        <ele>197</ele>
        <time>2018-03-30T08:51:32Z</time>
      </trkpt>
      <trkpt lat="48.91402" lon="3.60168">
        <ele>196</ele>
        <time>2018-03-30T08:52:32Z</time>
      </trkpt>
      <trkpt lat="48.91395" lon="3.60147">
        <ele>196</ele>
        <time>2018-03-30T08:53:32Z</time>
      </trkpt>
      <trkpt lat="48.9139" lon="3.60137">
        <ele>195</ele>
        <time>2018-03-30T08:54:32Z</time>
      </trkpt>
      <trkpt lat="48.91387" lon="3.60132">
        <ele>195</ele>
        <time>2018-03-30T08:55:32Z</time>
      </trkpt>
      <trkpt lat="48.91382" lon="3.60124">
        <ele>195</ele>
        <time>2018-03-30T08:56:32Z</time>
      </trkpt>
      <trkpt lat="48.91377" lon="3.60117">
        <ele>195</ele>
        <time>2018-03-30T08:57:32Z</time>
      </trkpt>
      <trkpt lat="48.91371" lon="3.60111">
        <ele>195</ele>
        <time>2018-03-30T08:58:32Z</time>
      </trkpt>
      <trkpt lat="48.91352" lon="3.60093">
        <ele>194</ele>
        <time>2018-03-30T08:59:32Z</time>
      </trkpt>
      <trkpt lat="48.91329" lon="3.60072">
        <ele>194</ele>
        <time>2018-03-30T09:00:32Z</time>
      </trkpt>
      <trkpt lat="48.91299" lon="3.60046">
        <ele>193</ele>
        <time>2018-03-30T09:01:32Z</time>
      </trkpt>
      <trkpt lat="48.91268" lon="3.60019">
        <ele>193</ele>
        <time>2018-03-30T09:02:32Z</time>
      </trkpt>
      <trkpt lat="48.91238" lon="3.59992">
        <ele>194</ele>
        <time>2018-03-30T09:03:32Z</time>
      </trkpt>
      <trkpt lat="48.91208" lon="3.59963">
        <ele>196</ele>
        <time>2018-03-30T09:04:32Z</time>
      </trkpt>
      <trkpt lat="48.91178" lon="3.59938">
        <ele>197</ele>
        <time>2018-03-30T09:05:32Z</time>
      </trkpt>
      <trkpt lat="48.91146" lon="3.5991">
        <ele>198</ele>
        <time>2018-03-30T09:06:32Z</time>
      </trkpt>
      <trkpt lat="48.91131" lon="3.59896">
        <ele>198</ele>
        <time>2018-03-30T09:07:32Z</time>
      </trkpt>
      <trkpt lat="48.91122" lon="3.59888">
        <ele>197</ele>
        <time>2018-03-30T09:08:32Z</time>
      </trkpt>
      <trkpt lat="48.91114" lon="3.59881">
        <ele>197</ele>
        <time>2018-03-30T09:09:32Z</time>
      </trkpt>
      <trkpt lat="48.91081" lon="3.5985">
        <ele>195</ele>
        <time>2018-03-30T09:10:32Z</time>
      </trkpt>
      <trkpt lat="48.91037" lon="3.59812">
        <ele>192</ele>
        <time>2018-03-30T09:11:32Z</time>
      </trkpt>
      <trkpt lat="48.90999" lon="3.59778">
        <ele>190</ele>
        <time>2018-03-30T09:12:32Z</time>
      </trkpt>
      <trkpt lat="48.90969" lon="3.59752">
        <ele>189</ele>
        <time>2018-03-30T09:13:32Z</time>
      </trkpt>
      <trkpt lat="48.90966" lon="3.59748">
        <ele>189</ele>
        <time>2018-03-30T09:14:32Z</time>
      </trkpt>
      <trkpt lat="48.90962" lon="3.59745">
        <ele>189</ele>
        <time>2018-03-30T09:15:32Z</time>
      </trkpt>
      <trkpt lat="48.90955" lon="3.59739">
        <ele>189</ele>
        <time>2018-03-30T09:16:32Z</time>
      </trkpt>
      <trkpt lat="48.90915" lon="3.59704">
        <ele>189</ele>
        <time>2018-03-30T09:17:32Z</time>
      </trkpt>
      <trkpt lat="48.90867" lon="3.5966">
        <ele>190</ele>
        <time>2018-03-30T09:18:32Z</time>
      </trkpt>
      <trkpt lat="48.90866" lon="3.59659">
        <ele>190</ele>
        <time>2018-03-30T09:19:32Z</time>
      </trkpt>
      <trkpt lat="48.90843" lon="3.5964">
        <ele>191</ele>
        <time>2018-03-30T09:20:32Z</time>
      </trkpt>
      <trkpt lat="48.90823" lon="3.59621">
        <ele>192</ele>
        <time>2018-03-30T09:21:32Z</time>
      </trkpt>
      <trkpt lat="48.90779" lon="3.59583">
        <ele>193</ele>
        <time>2018-03-30T09:22:32Z</time>
      </trkpt>
      <trkpt lat="48.90736" lon="3.59545">
        <ele>194</ele>
        <time>2018-03-30T09:23:32Z</time>
      </trkpt>
      <trkpt lat="48.90699" lon="3.59511">
        <ele>196</ele>
        <time>2018-03-30T09:24:32Z</time>
      </trkpt>
      <trkpt lat="48.90667" lon="3.59482">
        <ele>197</ele>
        <time>2018-03-30T09:25:32Z</time>
      </trkpt>
      <trkpt lat="48.90623" lon="3.59441">
        <ele>200</ele>
        <time>2018-03-30T09:26:32Z</time>
      </trkpt>
      <trkpt lat="48.9059" lon="3.59408">
        <ele>202</ele>
        <time>2018-03-30T09:27:32Z</time>
      </trkpt>
      <trkpt lat="48.90557" lon="3.59369">
        <ele>206</ele>
        <time>2018-03-30T09:28:32Z</time>
      </trkpt>
      <trkpt lat="48.90529" lon="3.59338">
        <ele>209</ele>
        <time>2018-03-30T09:29:32Z</time>
      </trkpt>
      <trkpt lat="48.90513" lon="3.59319">
        <ele>211</ele>
        <time>2018-03-30T09:30:32Z</time>
      </trkpt>
      <trkpt lat="48.90483" lon="3.59284">
        <ele>214</ele>
        <time>2018-03-30T09:31:32Z</time>
      </trkpt>
      <trkpt lat="48.90472" lon="3.59271">
        <ele>214</ele>
        <time>2018-03-30T09:32:32Z</time>
      </trkpt>
      <trkpt lat="48.90432" lon="3.59225">
        <ele>214</ele>
        <time>2018-03-30T09:33:32Z</time>
      </trkpt>
      <trkpt lat="48.90391" lon="3.59178">
        <ele>215</ele>
        <time>2018-03-30T09:34:32Z</time>
      </trkpt>
      <trkpt lat="48.90358" lon="3.59139">
        <ele>214</ele>
        <time>2018-03-30T09:35:32Z</time>
      </trkpt>
      <trkpt lat="48.90355" lon="3.59136">
        <ele>214</ele>
        <time>2018-03-30T09:36:32Z</time>
      </trkpt>
      <trkpt lat="48.90326" lon="3.59103">
        <ele>212</ele>
        <time>2018-03-30T09:37:32Z</time>
      </trkpt>
      <trkpt lat="48.90283" lon="3.59054">
        <ele>212</ele>
        <time>2018-03-30T09:38:32Z</time>
      </trkpt>
      <trkpt lat="48.9024" lon="3.59005">
        <ele>212</ele>
        <time>2018-03-30T09:39:32Z</time>
      </trkpt>
      <trkpt lat="48.90187" lon="3.58946">
        <ele>213</ele>
        <time>2018-03-30T09:40:32Z</time>
      </trkpt>
      <trkpt lat="48.90153" lon="3.58907">
        <ele>213</ele>
        <time>2018-03-30T09:41:32Z</time>
      </trkpt>
      <trkpt lat="48.90135" lon="3.58888">
        <ele>213</ele>
        <time>2018-03-30T09:42:32Z</time>
      </trkpt>
      <trkpt lat="48.90115" lon="3.58865">
        <ele>214</ele>
        <time>2018-03-30T09:43:32Z</time>
      </trkpt>
      <trkpt lat="48.90094" lon="3.58842">
        <ele>214</ele>
        <time>2018-03-30T09:44:32Z</time>
      </trkpt>
      <trkpt lat="48.90072" lon="3.58818">
        <ele>214</ele>
        <time>2018-03-30T09:45:32Z</time>
      </trkpt>
      <trkpt lat="48.90057" lon="3.588">
        <ele>213</ele>
        <time>2018-03-30T09:46:32Z</time>
      </trkpt>
      <trkpt lat="48.90038" lon="3.58779">
        <ele>212</ele>
        <time>2018-03-30T09:47:32Z</time>
      </trkpt>
      <trkpt lat="48.90027" lon="3.58767">
        <ele>212</ele>
        <time>2018-03-30T09:48:32Z</time>
      </trkpt>
      <trkpt lat="48.90009" lon="3.58747">
        <ele>210</ele>
        <time>2018-03-30T09:49:32Z</time>
      </trkpt>
      <trkpt lat="48.89994" lon="3.5873">
        <ele>209</ele>
        <time>2018-03-30T09:50:32Z</time>
      </trkpt>
      <trkpt lat="48.89982" lon="3.58716">
        <ele>209</ele>
        <time>2018-03-30T09:51:32Z</time>
      </trkpt>
      <trkpt lat="48.89968" lon="3.587">
        <ele>208</ele>
        <time>2018-03-30T09:52:32Z</time>
      </trkpt>
      <trkpt lat="48.89954" lon="3.58687">
        <ele>207</ele>
        <time>2018-03-30T09:53:32Z</time>
      </trkpt>
      <trkpt lat="48.89948" lon="3.58682">
        <ele>206</ele>
        <time>2018-03-30T09:54:32Z</time>
      </trkpt>
      <trkpt lat="48.8994" lon="3.58676">
        <ele>206</ele>
        <time>2018-03-30T09:55:32Z</time>
      </trkpt>
      <trkpt lat="48.89933" lon="3.58671">
        <ele>205</ele>
        <time>2018-03-30T09:56:32Z</time>
      </trkpt>
      <trkpt lat="48.89927" lon="3.58667">
        <ele>204</ele>
        <time>2018-03-30T09:57:32Z</time>
      </trkpt>
      <trkpt lat="48.89918" lon="3.58663">
        <ele>203</ele>
        <time>2018-03-30T09:58:32Z</time>
      </trkpt>
      <trkpt lat="48.89911" lon="3.58661">
        <ele>203</ele>
        <time>2018-03-30T09:59:32Z</time>
      </trkpt>
      <trkpt lat="48.89902" lon="3.58659">
        <ele>203</ele>
        <time>2018-03-30T10:00:32Z</time>
      </trkpt>
      <trkpt lat="48.899" lon="3.58659">
        <ele>202</ele>
        <time>2018-03-30T10:01:32Z</time>
      </trkpt>
      <trkpt lat="48.89895" lon="3.58658">
        <ele>202</ele>
        <time>2018-03-30T10:02:32Z</time>
      </trkpt>
      <trkpt lat="48.89886" lon="3.58657">
        <ele>202</ele>
        <time>2018-03-30T10:03:32Z</time>
      </trkpt>
      <trkpt lat="48.89875" lon="3.58657">
        <ele>201</ele>
        <time>2018-03-30T10:04:32Z</time>
      </trkpt>
      <trkpt lat="48.89862" lon="3.58657">
        <ele>200</ele>
        <time>2018-03-30T10:05:32Z</time>
      </trkpt>
      <trkpt lat="48.89834" lon="3.58658">
        <ele>198</ele>
        <time>2018-03-30T10:06:32Z</time>
      </trkpt>
      <trkpt lat="48.89822" lon="3.58659">
        <ele>198</ele>
        <time>2018-03-30T10:07:32Z</time>
      </trkpt>
      <trkpt lat="48.89769" lon="3.5866">
        <ele>198</ele>
        <time>2018-03-30T10:08:32Z</time>
      </trkpt>
      <trkpt lat="48.89732" lon="3.58661">
        <ele>198</ele>
        <time>2018-03-30T10:09:32Z</time>
      </trkpt>
      <trkpt lat="48.89707" lon="3.58662">
        <ele>197</ele>
        <time>2018-03-30T10:10:32Z</time>
      </trkpt>
      <trkpt lat="48.89689" lon="3.58663">
        <ele>197</ele>
        <time>2018-03-30T10:11:32Z</time>
      </trkpt>
      <trkpt lat="48.89674" lon="3.58662">
        <ele>196</ele>
        <time>2018-03-30T10:12:32Z</time>
      </trkpt>
      <trkpt lat="48.89663" lon="3.5866">
        <ele>196</ele>
        <time>2018-03-30T10:13:32Z</time>
      </trkpt>
      <trkpt lat="48.89659" lon="3.58659">
        <ele>196</ele>
        <time>2018-03-30T10:14:32Z</time>
      </trkpt>
      <trkpt lat="48.89652" lon="3.58655">
        <ele>196</ele>
        <time>2018-03-30T10:15:32Z</time>
      </trkpt>
      <trkpt lat="48.89648" lon="3.58653">
        <ele>196</ele>
        <time>2018-03-30T10:16:32Z</time>
      </trkpt>
      <trkpt lat="48.89646" lon="3.58651">
        <ele>196</ele>
        <time>2018-03-30T10:17:32Z</time>
      </trkpt>
      <trkpt lat="48.89643" lon="3.58649">
        <ele>196</ele>
        <time>2018-03-30T10:18:32Z</time>
      </trkpt>
      <trkpt lat="48.89634" lon="3.58639">
        <ele>196</ele>
        <time>2018-03-30T10:19:32Z</time>
      </trkpt>
      <trkpt lat="48.89627" lon="3.58628">
        <ele>196</ele>
        <time>2018-03-30T10:20:32Z</time>
      </trkpt>
      <trkpt lat="48.89625" lon="3.58625">
        <ele>196</ele>
        <time>2018-03-30T10:21:32Z</time>
      </trkpt>
      <trkpt lat="48.89622" lon="3.58618">
        <ele>196</ele>
        <time>2018-03-30T10:22:32Z</time>
      </trkpt>
      <trkpt lat="48.89618" lon="3.58608">
        <ele>196</ele>
        <time>2018-03-30T10:23:32Z</time>
      </trkpt>
      <trkpt lat="48.89614" lon="3.58596">
        <ele>196</ele>
        <time>2018-03-30T10:24:32Z</time>
      </trkpt>
      <trkpt lat="48.89609" lon="3.58578">
        <ele>196</ele>
        <time>2018-03-30T10:25:32Z</time>
      </trkpt>
      <trkpt lat="48.89595" lon="3.58523">
        <ele>195</ele>
        <time>2018-03-30T10:26:32Z</time>
      </trkpt>
      <trkpt lat="48.89586" lon="3.58484">
        <ele>194</ele>
        <time>2018-03-30T10:27:32Z</time>
      </trkpt>
      <trkpt lat="48.89579" lon="3.58452">
        <ele>193</ele>
        <time>2018-03-30T10:28:32Z</time>
      </trkpt>
      <trkpt lat="48.89577" lon="3.58444">
        <ele>193</ele>
        <time>2018-03-30T10:29:32Z</time>
      </trkpt>
      <trkpt lat="48.89575" lon="3.58433">
        <ele>193</ele>
        <time>2018-03-30T10:30:32Z</time>
      </trkpt>
      <trkpt lat="48.89571" lon="3.58418">
        <ele>193</ele>
        <time>2018-03-30T10:31:32Z</time>
      </trkpt>
      <trkpt lat="48.89567" lon="3.58403">
        <ele>193</ele>
        <time>2018-03-30T10:32:32Z</time>
      </trkpt>
      <trkpt lat="48.89564" lon="3.58392">
        <ele>193</ele>
        <time>2018-03-30T10:33:32Z</time>
      </trkpt>
      <trkpt lat="48.89561" lon="3.58379">
        <ele>193</ele>
        <time>2018-03-30T10:34:32Z</time>
      </trkpt>
      <trkpt lat="48.89559" lon="3.58374">
        <ele>193</ele>
        <time>2018-03-30T10:35:32Z</time>
      </trkpt>
      <trkpt lat="48.89556" lon="3.58365">
        <ele>193</ele>
        <time>2018-03-30T10:36:32Z</time>
      </trkpt>
      <trkpt lat="48.89553" lon="3.58356">
        <ele>193</ele>
        <time>2018-03-30T10:37:32Z</time>
      </trkpt>
      <trkpt lat="48.89546" lon="3.5834">
        <ele>193</ele>
        <time>2018-03-30T10:38:32Z</time>
      </trkpt>
      <trkpt lat="48.8954" lon="3.58325">
        <ele>192</ele>
        <time>2018-03-30T10:39:32Z</time>
      </trkpt>
      <trkpt lat="48.89535" lon="3.58317">
        <ele>192</ele>
        <time>2018-03-30T10:40:32Z</time>
      </trkpt>
      <trkpt lat="48.89532" lon="3.58312">
        <ele>192</ele>
        <time>2018-03-30T10:41:32Z</time>
      </trkpt>
      <trkpt lat="48.89529" lon="3.58306">
        <ele>192</ele>
        <time>2018-03-30T10:42:32Z</time>
      </trkpt>
      <trkpt lat="48.89524" lon="3.58298">
        <ele>192</ele>
        <time>2018-03-30T10:43:32Z</time>
      </trkpt>
      <trkpt lat="48.89518" lon="3.58289">
        <ele>192</ele>
        <time>2018-03-30T10:44:32Z</time>
      </trkpt>
      <trkpt lat="48.8951" lon="3.58278">
        <ele>191</ele>
        <time>2018-03-30T10:45:32Z</time>
      </trkpt>
      <trkpt lat="48.89503" lon="3.58268">
        <ele>191</ele>
        <time>2018-03-30T10:46:32Z</time>
      </trkpt>
      <trkpt lat="48.89488" lon="3.58246">
        <ele>191</ele>
        <time>2018-03-30T10:47:32Z</time>
      </trkpt>
      <trkpt lat="48.8947" lon="3.5822">
        <ele>192</ele>
        <time>2018-03-30T10:48:32Z</time>
      </trkpt>
      <trkpt lat="48.89448" lon="3.58189">
        <ele>193</ele>
        <time>2018-03-30T10:49:32Z</time>
      </trkpt>
      <trkpt lat="48.89425" lon="3.58155">
        <ele>194</ele>
        <time>2018-03-30T10:50:32Z</time>
      </trkpt>
      <trkpt lat="48.89407" lon="3.58129">
        <ele>195</ele>
        <time>2018-03-30T10:51:32Z</time>
      </trkpt>
      <trkpt lat="48.89391" lon="3.58105">
        <ele>196</ele>
        <time>2018-03-30T10:52:32Z</time>
      </trkpt>
      <trkpt lat="48.89372" lon="3.58078">
        <ele>198</ele>
        <time>2018-03-30T10:53:32Z</time>
      </trkpt>
      <trkpt lat="48.89355" lon="3.58053">
        <ele>198</ele>
        <time>2018-03-30T10:54:32Z</time>
      </trkpt>
      <trkpt lat="48.89341" lon="3.58033">
        <ele>199</ele>
        <time>2018-03-30T10:55:32Z</time>
      </trkpt>
      <trkpt lat="48.89327" lon="3.58013">
        <ele>199</ele>
        <time>2018-03-30T10:56:32Z</time>
      </trkpt>
      <trkpt lat="48.89315" lon="3.57994">
        <ele>199</ele>
        <time>2018-03-30T10:57:32Z</time>
      </trkpt>
      <trkpt lat="48.89304" lon="3.57977">
        <ele>200</ele>
        <time>2018-03-30T10:58:32Z</time>
      </trkpt>
      <trkpt lat="48.89297" lon="3.57967">
        <ele>200</ele>
        <time>2018-03-30T10:59:32Z</time>
      </trkpt>
      <trkpt lat="48.89289" lon="3.57953">
        <ele>199</ele>
        <time>2018-03-30T11:00:32Z</time>
      </trkpt>
      <trkpt lat="48.89283" lon="3.57944">
        <ele>199</ele>
        <time>2018-03-30T11:01:32Z</time>
      </trkpt>
      <trkpt lat="48.89276" lon="3.57929">
        <ele>199</ele>
        <time>2018-03-30T11:02:32Z</time>
      </trkpt>
      <trkpt lat="48.89266" lon="3.57909">
        <ele>199</ele>
        <time>2018-03-30T11:03:32Z</time>
      </trkpt>
      <trkpt lat="48.89257" lon="3.57885">
        <ele>198</ele>
        <time>2018-03-30T11:04:32Z</time>
      </trkpt>
      <trkpt lat="48.89239" lon="3.57836">
        <ele>197</ele>
        <time>2018-03-30T11:05:32Z</time>
      </trkpt>
      <trkpt lat="48.89228" lon="3.57804">
        <ele>196</ele>
        <time>2018-03-30T11:06:32Z</time>
      </trkpt>
      <trkpt lat="48.89221" lon="3.57784">
        <ele>196</ele>
        <time>2018-03-30T11:07:32Z</time>
      </trkpt>
      <trkpt lat="48.89209" lon="3.57752">
        <ele>195</ele>
        <time>2018-03-30T11:08:32Z</time>
      </trkpt>
      <trkpt lat="48.89192" lon="3.57704">
        <ele>194</ele>
        <time>2018-03-30T11:09:32Z</time>
      </trkpt>
      <trkpt lat="48.89184" lon="3.57682">
        <ele>193</ele>
        <time>2018-03-30T11:10:32Z</time>
      </trkpt>
      <trkpt lat="48.89178" lon="3.57668">
        <ele>192</ele>
        <time>2018-03-30T11:11:32Z</time>
      </trkpt>
      <trkpt lat="48.89169" lon="3.57648">
        <ele>192</ele>
        <time>2018-03-30T11:12:32Z</time>
      </trkpt>
      <trkpt lat="48.89163" lon="3.57635">
        <ele>192</ele>
        <time>2018-03-30T11:13:32Z</time>
      </trkpt>
      <trkpt lat="48.89156" lon="3.57622">
        <ele>192</ele>
        <time>2018-03-30T11:14:32Z</time>
      </trkpt>
      <trkpt lat="48.89144" lon="3.576">
        <ele>192</ele>
        <time>2018-03-30T11:15:32Z</time>
      </trkpt>
      <trkpt lat="48.89133" lon="3.57581">
        <ele>192</ele>
        <time>2018-03-30T11:16:32Z</time>
      </trkpt>
      <trkpt lat="48.89122" lon="3.57561">
        <ele>192</ele>
        <time>2018-03-30T11:17:32Z</time>
      </trkpt>
      <trkpt lat="48.89113" lon="3.57543">
        <ele>191</ele>
        <time>2018-03-30T11:18:32Z</time>
      </trkpt>
      <trkpt lat="48.8911" lon="3.57538">
        <ele>191</ele>
        <time>2018-03-30T11:19:32Z</time>
      </trkpt>
      <trkpt lat="48.891" lon="3.57516">
        <ele>191</ele>
        <time>2018-03-30T11:20:32Z</time>
      </trkpt>
      <trkpt lat="48.89099" lon="3.57511">
        <ele>191</ele>
        <time>2018-03-30T11:21:32Z</time>
      </trkpt>
      <trkpt lat="48.89094" lon="3.57499">
        <ele>191</ele>
        <time>2018-03-30T11:22:32Z</time>
      </trkpt>
      <trkpt lat="48.89089" lon="3.57483">
        <ele>191</ele>
        <time>2018-03-30T11:23:32Z</time>
      </trkpt>
      <trkpt lat="48.89086" lon="3.57471">
        <ele>191</ele>
        <time>2018-03-30T11:24:32Z</time>
      </trkpt>
      <trkpt lat="48.89083" lon="3.57457">
        <ele>191</ele>
        <time>2018-03-30T11:25:32Z</time>
      </trkpt>
      <trkpt lat="48.89079" lon="3.57437">
        <ele>191</ele>
        <time>2018-03-30T11:26:32Z</time>
      </trkpt>
      <trkpt lat="48.89077" lon="3.57428">
        <ele>191</ele>
        <time>2018-03-30T11:27:32Z</time>
      </trkpt>
      <trkpt lat="48.89071" lon="3.57398">
        <ele>191</ele>
        <time>2018-03-30T11:28:32Z</time>
      </trkpt>
      <trkpt lat="48.89051" lon="3.57288">
        <ele>191</ele>
        <time>2018-03-30T11:29:32Z</time>
      </trkpt>
      <trkpt lat="48.89049" lon="3.57279">
        <ele>191</ele>
        <time>2018-03-30T11:30:32Z</time>
      </trkpt>
      <trkpt lat="48.89044" lon="3.57252">
        <ele>191</ele>
        <time>2018-03-30T11:31:32Z</time>
      </trkpt>
      <trkpt lat="48.89041" lon="3.57237">
        <ele>191</ele>
        <time>2018-03-30T11:32:32Z</time>
      </trkpt>
      <trkpt lat="48.89036" lon="3.57219">
        <ele>192</ele>
        <time>2018-03-30T11:33:32Z</time>
      </trkpt>
      <trkpt lat="48.89032" lon="3.57204">
        <ele>193</ele>
        <time>2018-03-30T11:34:32Z</time>
      </trkpt>
      <trkpt lat="48.89026" lon="3.57187">
        <ele>194</ele>
        <time>2018-03-30T11:35:32Z</time>
      </trkpt>
      <trkpt lat="48.89018" lon="3.5716">
        <ele>195</ele>
        <time>2018-03-30T11:36:32Z</time>
      </trkpt>
      <trkpt lat="48.89009" lon="3.57133">
        <ele>196</ele>
        <time>2018-03-30T11:37:32Z</time>
      </trkpt>
      <trkpt lat="48.89002" lon="3.57112">
        <ele>197</ele>
        <time>2018-03-30T11:38:32Z</time>
      </trkpt>
      <trkpt lat="48.89" lon="3.57106">
        <ele>197</ele>
        <time>2018-03-30T11:39:32Z</time>
      </trkpt>
      <trkpt lat="48.88998" lon="3.57097">
        <ele>197</ele>
        <time>2018-03-30T11:40:32Z</time>
      </trkpt>
      <trkpt lat="48.88996" lon="3.57087">
        <ele>198</ele>
        <time>2018-03-30T11:41:32Z</time>
      </trkpt>
      <trkpt lat="48.88993" lon="3.57071">
        <ele>198</ele>
        <time>2018-03-30T11:42:32Z</time>
      </trkpt>
      <trkpt lat="48.8899" lon="3.57051">
        <ele>198</ele>
        <time>2018-03-30T11:43:32Z</time>
      </trkpt>
      <trkpt lat="48.88987" lon="3.57029">
        <ele>198</ele>
        <time>2018-03-30T11:44:32Z</time>
      </trkpt>
      <trkpt lat="48.88982" lon="3.57002">
        <ele>199</ele>
        <time>2018-03-30T11:45:32Z</time>
      </trkpt>
      <trkpt lat="48.88981" lon="3.56994">
        <ele>199</ele>
        <time>2018-03-30T11:46:32Z</time>
      </trkpt>
      <trkpt lat="48.88981" lon="3.56992">
        <ele>199</ele>
        <time>2018-03-30T11:47:32Z</time>
      </trkpt>
      <trkpt lat="48.88979" lon="3.56979">
        <ele>198</ele>
        <time>2018-03-30T11:48:32Z</time>
      </trkpt>
      <trkpt lat="48.88979" lon="3.56969">
        <ele>198</ele>
        <time>2018-03-30T11:49:32Z</time>
      </trkpt>
      <trkpt lat="48.88977" lon="3.5696">
        <ele>198</ele>
        <time>2018-03-30T11:50:32Z</time>
      </trkpt>
      <trkpt lat="48.88975" lon="3.56952">
        <ele>198</ele>
        <time>2018-03-30T11:51:32Z</time>
      </trkpt>
      <trkpt lat="48.88973" lon="3.56947">
        <ele>198</ele>
        <time>2018-03-30T11:52:32Z</time>
      </trkpt>
      <trkpt lat="48.88971" lon="3.56939">
        <ele>198</ele>
        <time>2018-03-30T11:53:32Z</time>
      </trkpt>
      <trkpt lat="48.88967" lon="3.5693">
        <ele>198</ele>
        <time>2018-03-30T11:54:32Z</time>
      </trkpt>
      <trkpt lat="48.88954" lon="3.56904">
        <ele>197</ele>
        <time>2018-03-30T11:55:32Z</time>
      </trkpt>
      <trkpt lat="48.88921" lon="3.56834">
        <ele>195</ele>
        <time>2018-03-30T11:56:32Z</time>
      </trkpt>
      <trkpt lat="48.88901" lon="3.56794">
        <ele>193</ele>
        <time>2018-03-30T11:57:32Z</time>
      </trkpt>
      <trkpt lat="48.88883" lon="3.5676">
        <ele>192</ele>
        <time>2018-03-30T11:58:32Z</time>
      </trkpt>
      <trkpt lat="48.88868" lon="3.56731">
        <ele>191</ele>
        <time>2018-03-30T11:59:32Z</time>
      </trkpt>
      <trkpt lat="48.88867" lon="3.5673">
        <ele>191</ele>
        <time>2018-03-30T12:00:32Z</time>
      </trkpt>
      <trkpt lat="48.88849" lon="3.56688">
        <ele>191</ele>
        <time>2018-03-30T12:01:32Z</time>
      </trkpt>
      <trkpt lat="48.8882" lon="3.56628">
        <ele>190</ele>
        <time>2018-03-30T12:02:32Z</time>
      </trkpt>
      <trkpt lat="48.88815" lon="3.56616">
        <ele>190</ele>
        <time>2018-03-30T12:03:32Z</time>
      </trkpt>
      <trkpt lat="48.88813" lon="3.56613">
        <ele>190</ele>
        <time>2018-03-30T12:04:32Z</time>
      </trkpt>
      <trkpt lat="48.88786" lon="3.56557">
        <ele>190</ele>
        <time>2018-03-30T12:05:32Z</time>
      </trkpt>
      <trkpt lat="48.88776" lon="3.56539">
        <ele>190</ele>
        <time>2018-03-30T12:06:32Z</time>
      </trkpt>
      <trkpt lat="48.88764" lon="3.56518">
        <ele>190</ele>
        <time>2018-03-30T12:07:32Z</time>
      </trkpt>
      <trkpt lat="48.88743" lon="3.56485">
        <ele>190</ele>
        <time>2018-03-30T12:08:32Z</time>
      </trkpt>
      <trkpt lat="48.88691" lon="3.56407">
        <ele>191</ele>
        <time>2018-03-30T12:09:32Z</time>
      </trkpt>
      <trkpt lat="48.88669" lon="3.56373">
        <ele>191</ele>
        <time>2018-03-30T12:10:32Z</time>
      </trkpt>
      <trkpt lat="48.88623" lon="3.56305">
        <ele>193</ele>
        <time>2018-03-30T12:11:32Z</time>
      </trkpt>
      <trkpt lat="48.88592" lon="3.56257">
        <ele>193</ele>
        <time>2018-03-30T12:12:32Z</time>
      </trkpt>
      <trkpt lat="48.88562" lon="3.56212">
        <ele>194</ele>
        <time>2018-03-30T12:13:32Z</time>
      </trkpt>
      <trkpt lat="48.8849" lon="3.56103">
        <ele>194</ele>
        <time>2018-03-30T12:14:32Z</time>
      </trkpt>
      <trkpt lat="48.88486" lon="3.56096">
        <ele>194</ele>
        <time>2018-03-30T12:15:32Z</time>
      </trkpt>
      <trkpt lat="48.8848" lon="3.56088">
        <ele>194</ele>
        <time>2018-03-30T12:16:32Z</time>
      </trkpt>
      <trkpt lat="48.88466" lon="3.56068">
        <ele>194</ele>
        <time>2018-03-30T12:17:32Z</time>
      </trkpt>
      <trkpt lat="48.88463" lon="3.56063">
        <ele>194</ele>
        <time>2018-03-30T12:18:32Z</time>
      </trkpt>
      <trkpt lat="48.88435" lon="3.56022">
        <ele>194</ele>
        <time>2018-03-30T12:19:32Z</time>
      </trkpt>
      <trkpt lat="48.8842" lon="3.55998">
        <ele>194</ele>
        <time>2018-03-30T12:20:32Z</time>
      </trkpt>
      <trkpt lat="48.88385" lon="3.55947">
        <ele>195</ele>
        <time>2018-03-30T12:21:32Z</time>
      </trkpt>
      <trkpt lat="48.88369" lon="3.55923">
        <ele>195</ele>
        <time>2018-03-30T12:22:32Z</time>
      </trkpt>
      <trkpt lat="48.88335" lon="3.55872">
        <ele>197</ele>
        <time>2018-03-30T12:23:32Z</time>
      </trkpt>
      <trkpt lat="48.88311" lon="3.55836">
        <ele>198</ele>
        <time>2018-03-30T12:24:32Z</time>
      </trkpt>
      <trkpt lat="48.88268" lon="3.5577">
        <ele>199</ele>
        <time>2018-03-30T12:25:32Z</time>
      </trkpt>
      <trkpt lat="48.88255" lon="3.55751">
        <ele>199</ele>
        <time>2018-03-30T12:26:32Z</time>
      </trkpt>
      <trkpt lat="48.88206" lon="3.55677">
        <ele>200</ele>
        <time>2018-03-30T12:27:32Z</time>
      </trkpt>
      <trkpt lat="48.88183" lon="3.55643">
        <ele>201</ele>
        <time>2018-03-30T12:28:32Z</time>
      </trkpt>
      <trkpt lat="48.88153" lon="3.55597">
        <ele>203</ele>
        <time>2018-03-30T12:29:32Z</time>
      </trkpt>
      <trkpt lat="48.88105" lon="3.55525">
        <ele>205</ele>
        <time>2018-03-30T12:30:32Z</time>
      </trkpt>
      <trkpt lat="48.88061" lon="3.55458">
        <ele>205</ele>
        <time>2018-03-30T12:31:32Z</time>
      </trkpt>
      <trkpt lat="48.88032" lon="3.55417">
        <ele>204</ele>
        <time>2018-03-30T12:32:32Z</time>
      </trkpt>
      <trkpt lat="48.87973" lon="3.55327">
        <ele>204</ele>
        <time>2018-03-30T12:33:32Z</time>
      </trkpt>
      <trkpt lat="48.87922" lon="3.5525">
        <ele>202</ele>
        <time>2018-03-30T12:34:32Z</time>
      </trkpt>
      <trkpt lat="48.87863" lon="3.55162">
        <ele>200</ele>
        <time>2018-03-30T12:35:32Z</time>
      </trkpt>
      <trkpt lat="48.87789" lon="3.55049">
        <ele>199</ele>
        <time>2018-03-30T12:36:32Z</time>
      </trkpt>
      <trkpt lat="48.87786" lon="3.55045">
        <ele>199</ele>
        <time>2018-03-30T12:37:32Z</time>
      </trkpt>
      <trkpt lat="48.87706" lon="3.54925">
        <ele>200</ele>
        <time>2018-03-30T12:38:32Z</time>
      </trkpt>
      <trkpt lat="48.87637" lon="3.54819">
        <ele>202</ele>
        <time>2018-03-30T12:39:32Z</time>
      </trkpt>
      <trkpt lat="48.87623" lon="3.54799">
        <ele>202</ele>
        <time>2018-03-30T12:40:32Z</time>
      </trkpt>
      <trkpt lat="48.87573" lon="3.54726">
        <ele>201</ele>
        <time>2018-03-30T12:41:32Z</time>
      </trkpt>
      <trkpt lat="48.87553" lon="3.54694">
        <ele>202</ele>
        <time>2018-03-30T12:42:32Z</time>
      </trkpt>
      <trkpt lat="48.87523" lon="3.54648">
        <ele>203</ele>
        <time>2018-03-30T12:43:32Z</time>
      </trkpt>
      <trkpt lat="48.87478" lon="3.54582">
        <ele>204</ele>
        <time>2018-03-30T12:44:32Z</time>
      </trkpt>
      <trkpt lat="48.87472" lon="3.54575">
        <ele>204</ele>
        <time>2018-03-30T12:45:32Z</time>
      </trkpt>
      <trkpt lat="48.87468" lon="3.54569">
        <ele>204</ele>
        <time>2018-03-30T12:46:32Z</time>
      </trkpt>
      <trkpt lat="48.87443" lon="3.54531">
        <ele>203</ele>
        <time>2018-03-30T12:47:32Z</time>
      </trkpt>
      <trkpt lat="48.87426" lon="3.54505">
        <ele>203</ele>
        <time>2018-03-30T12:48:32Z</time>
      </trkpt>
      <trkpt lat="48.87422" lon="3.54498">
        <ele>203</ele>
        <time>2018-03-30T12:49:32Z</time>
      </trkpt>
      <trkpt lat="48.87414" lon="3.54481">
        <ele>203</ele>
        <time>2018-03-30T12:50:32Z</time>
      </trkpt>
      <trkpt lat="48.87408" lon="3.54465">
        <ele>203</ele>
        <time>2018-03-30T12:51:32Z</time>
      </trkpt>
      <trkpt lat="48.87406" lon="3.5445">
        <ele>202</ele>
        <time>2018-03-30T12:52:32Z</time>
      </trkpt>
      <trkpt lat="48.87404" lon="3.54426">
        <ele>202</ele>
        <time>2018-03-30T12:53:32Z</time>
      </trkpt>
      <trkpt lat="48.87404" lon="3.54423">
        <ele>202</ele>
        <time>2018-03-30T12:54:32Z</time>
      </trkpt>
      <trkpt lat="48.87403" lon="3.54371">
        <ele>201</ele>
        <time>2018-03-30T12:55:32Z</time>
      </trkpt>
      <trkpt lat="48.87401" lon="3.54306">
        <ele>199</ele>
        <time>2018-03-30T12:56:32Z</time>
      </trkpt>
      <trkpt lat="48.87399" lon="3.54258">
        <ele>197</ele>
        <time>2018-03-30T12:57:32Z</time>
      </trkpt>
      <trkpt lat="48.87398" lon="3.54226">
        <ele>196</ele>
        <time>2018-03-30T12:58:32Z</time>
      </trkpt>
      <trkpt lat="48.87397" lon="3.54203">
        <ele>196</ele>
        <time>2018-03-30T12:59:32Z</time>
      </trkpt>
      <trkpt lat="48.87394" lon="3.54179">
        <ele>196</ele>
        <time>2018-03-30T13:00:32Z</time>
      </trkpt>
      <trkpt lat="48.87391" lon="3.5416">
        <ele>196</ele>
        <time>2018-03-30T13:01:32Z</time>
      </trkpt>
      <trkpt lat="48.87389" lon="3.54143">
        <ele>196</ele>
        <time>2018-03-30T13:02:32Z</time>
      </trkpt>
      <trkpt lat="48.87388" lon="3.54135">
        <ele>196</ele>
        <time>2018-03-30T13:03:32Z</time>
      </trkpt>
      <trkpt lat="48.87388" lon="3.54128">
        <ele>196</ele>
        <time>2018-03-30T13:04:32Z</time>
      </trkpt>
      <trkpt lat="48.87388" lon="3.54124">
        <ele>195</ele>
        <time>2018-03-30T13:05:32Z</time>
      </trkpt>
      <trkpt lat="48.87388" lon="3.54124">
        <ele>195</ele>
        <time>2018-03-30T13:06:32Z</time>
      </trkpt>
      <trkpt lat="48.87388" lon="3.54123">
        <ele>195</ele>
        <time>2018-03-30T13:07:32Z</time>
      </trkpt>
      <trkpt lat="48.87389" lon="3.54122">
        <ele>195</ele>
        <time>2018-03-30T13:08:32Z</time>
      </trkpt>
      <trkpt lat="48.87389" lon="3.54121">
        <ele>195</ele>
        <time>2018-03-30T13:09:32Z</time>
      </trkpt>
      <trkpt lat="48.8739" lon="3.54119">
        <ele>195</ele>
        <time>2018-03-30T13:10:32Z</time>
      </trkpt>
      <trkpt lat="48.8739" lon="3.54118">
        <ele>195</ele>
        <time>2018-03-30T13:11:32Z</time>
      </trkpt>
      <trkpt lat="48.8739" lon="3.54116">
        <ele>195</ele>
        <time>2018-03-30T13:12:32Z</time>
      </trkpt>
      <trkpt lat="48.8739" lon="3.54115">
        <ele>195</ele>
        <time>2018-03-30T13:13:32Z</time>
      </trkpt>
      <trkpt lat="48.87389" lon="3.54114">
        <ele>195</ele>
        <time>2018-03-30T13:14:32Z</time>
      </trkpt>
      <trkpt lat="48.87389" lon="3.54113">
        <ele>195</ele>
        <time>2018-03-30T13:15:32Z</time>
      </trkpt>
      <trkpt lat="48.87388" lon="3.54112">
        <ele>195</ele>
        <time>2018-03-30T13:16:32Z</time>
      </trkpt>
      <trkpt lat="48.87387" lon="3.54111">
        <ele>195</ele>
        <time>2018-03-30T13:17:32Z</time>
      </trkpt>
      <trkpt lat="48.87386" lon="3.5411">
        <ele>195</ele>
        <time>2018-03-30T13:18:32Z</time>
      </trkpt>
      <trkpt lat="48.87382" lon="3.54105">
        <ele>195</ele>
        <time>2018-03-30T13:19:32Z</time>
      </trkpt>
      <trkpt lat="48.87379" lon="3.54102">
        <ele>195</ele>
        <time>2018-03-30T13:20:32Z</time>
      </trkpt>
      <trkpt lat="48.87374" lon="3.54098">
        <ele>195</ele>
        <time>2018-03-30T13:21:32Z</time>
      </trkpt>
      <trkpt lat="48.87372" lon="3.54094">
        <ele>195</ele>
        <time>2018-03-30T13:22:32Z</time>
      </trkpt>
      <trkpt lat="48.87369" lon="3.54091">
        <ele>195</ele>
        <time>2018-03-30T13:23:32Z</time>
      </trkpt>
      <trkpt lat="48.87366" lon="3.54088">
        <ele>195</ele>
        <time>2018-03-30T13:24:32Z</time>
      </trkpt>
      <trkpt lat="48.87363" lon="3.54084">
        <ele>195</ele>
        <time>2018-03-30T13:25:32Z</time>
      </trkpt>
      <trkpt lat="48.87358" lon="3.54078">
        <ele>195</ele>
        <time>2018-03-30T13:26:32Z</time>
      </trkpt>
      <trkpt lat="48.87337" lon="3.54066">
        <ele>195</ele>
        <time>2018-03-30T13:27:32Z</time>
      </trkpt>
      <trkpt lat="48.87316" lon="3.54053">
        <ele>195</ele>
        <time>2018-03-30T13:28:32Z</time>
      </trkpt>
      <trkpt lat="48.87298" lon="3.5404">
        <ele>195</ele>
        <time>2018-03-30T13:29:32Z</time>
      </trkpt>
      <trkpt lat="48.87275" lon="3.54022">
        <ele>195</ele>
        <time>2018-03-30T13:30:32Z</time>
      </trkpt>
      <trkpt lat="48.87252" lon="3.54004">
        <ele>195</ele>
        <time>2018-03-30T13:31:32Z</time>
      </trkpt>
      <trkpt lat="48.87232" lon="3.53989">
        <ele>195</ele>
        <time>2018-03-30T13:32:32Z</time>
      </trkpt>
      <trkpt lat="48.87217" lon="3.5398">
        <ele>195</ele>
        <time>2018-03-30T13:33:32Z</time>
      </trkpt>
      <trkpt lat="48.87217" lon="3.5398">
        <ele>195</ele>
        <time>2018-03-30T13:34:32Z</time>
      </trkpt>
      <trkpt lat="48.87221" lon="3.53953">
        <ele>194</ele>
        <time>2018-03-30T13:35:32Z</time>
      </trkpt>
      <trkpt lat="48.87224" lon="3.53942">
        <ele>194</ele>
        <time>2018-03-30T13:36:32Z</time>
      </trkpt>
      <trkpt lat="48.87227" lon="3.53933">
        <ele>193</ele>
        <time>2018-03-30T13:37:32Z</time>
      </trkpt>
      <trkpt lat="48.87233" lon="3.53915">
        <ele>193</ele>
        <time>2018-03-30T13:38:32Z</time>
      </trkpt>
      <trkpt lat="48.87244" lon="3.53886">
        <ele>192</ele>
        <time>2018-03-30T13:39:32Z</time>
      </trkpt>
      <trkpt lat="48.87249" lon="3.53873">
        <ele>191</ele>
        <time>2018-03-30T13:40:32Z</time>
      </trkpt>
      <trkpt lat="48.87253" lon="3.53866">
        <ele>191</ele>
        <time>2018-03-30T13:41:32Z</time>
      </trkpt>
      <trkpt lat="48.87258" lon="3.5386">
        <ele>191</ele>
        <time>2018-03-30T13:42:32Z</time>
      </trkpt>
      <trkpt lat="48.87268" lon="3.5385">
        <ele>191</ele>
        <time>2018-03-30T13:43:32Z</time>
      </trkpt>
      <trkpt lat="48.87278" lon="3.53844">
        <ele>191</ele>
        <time>2018-03-30T13:44:32Z</time>
      </trkpt>
      <trkpt lat="48.87289" lon="3.53837">
        <ele>191</ele>
        <time>2018-03-30T13:45:32Z</time>
      </trkpt>
      <trkpt lat="48.87309" lon="3.53824">
        <ele>191</ele>
        <time>2018-03-30T13:46:32Z</time>
      </trkpt>
      <trkpt lat="48.87317" lon="3.53821">
        <ele>191</ele>
        <time>2018-03-30T13:47:32Z</time>
      </trkpt>
      <trkpt lat="48.87326" lon="3.53818">
        <ele>191</ele>
        <time>2018-03-30T13:48:32Z</time>
      </trkpt>
      <trkpt lat="48.87336" lon="3.53817">
        <ele>191</ele>
        <time>2018-03-30T13:49:32Z</time>
      </trkpt>
      <trkpt lat="48.87343" lon="3.53817">
        <ele>191</ele>
        <time>2018-03-30T13:50:32Z</time>
      </trkpt>
      <trkpt lat="48.87383" lon="3.53817">
        <ele>189</ele>
        <time>2018-03-30T13:51:32Z</time>
      </trkpt>
      <trkpt lat="48.87394" lon="3.53816">
        <ele>189</ele>
        <time>2018-03-30T13:52:32Z</time>
      </trkpt>
      <trkpt lat="48.87405" lon="3.53814">
        <ele>188</ele>
        <time>2018-03-30T13:53:32Z</time>
      </trkpt>
      <trkpt lat="48.87411" lon="3.53813">
        <ele>188</ele>
        <time>2018-03-30T13:54:32Z</time>
      </trkpt>
      <trkpt lat="48.87421" lon="3.53812">
        <ele>188</ele>
        <time>2018-03-30T13:55:32Z</time>
      </trkpt>
      <trkpt lat="48.87443" lon="3.53806">
        <ele>187</ele>
        <time>2018-03-30T13:56:32Z</time>
      </trkpt>
      <trkpt lat="48.87499" lon="3.53794">
        <ele>185</ele>
        <time>2018-03-30T13:57:32Z</time>
      </trkpt>
      <trkpt lat="48.8756" lon="3.53786">
        <ele>182</ele>
        <time>2018-03-30T13:58:32Z</time>
      </trkpt>
      <trkpt lat="48.87586" lon="3.53781">
        <ele>180</ele>
        <time>2018-03-30T13:59:32Z</time>
      </trkpt>
      <trkpt lat="48.87586" lon="3.53781">
        <ele>180</ele>
        <time>2018-03-30T14:00:32Z</time>
      </trkpt>
      <trkpt lat="48.87586" lon="3.53782">
        <ele>180</ele>
        <time>2018-03-30T14:01:32Z</time>
      </trkpt>
      <trkpt lat="48.87586" lon="3.53783">
        <ele>181</ele>
        <time>2018-03-30T14:02:32Z</time>
      </trkpt>
      <trkpt lat="48.87586" lon="3.53784">
        <ele>181</ele>
        <time>2018-03-30T14:03:32Z</time>
      </trkpt>
      <trkpt lat="48.87587" lon="3.53784">
        <ele>181</ele>
        <time>2018-03-30T14:04:32Z</time>
      </trkpt>
      <trkpt lat="48.87587" lon="3.53785">
        <ele>181</ele>
        <time>2018-03-30T14:05:32Z</time>
      </trkpt>
      <trkpt lat="48.87587" lon="3.53786">
        <ele>181</ele>
        <time>2018-03-30T14:06:32Z</time>
      </trkpt>
      <trkpt lat="48.87588" lon="3.53787">
        <ele>181</ele>
        <time>2018-03-30T14:07:32Z</time>
      </trkpt>
      <trkpt lat="48.87588" lon="3.53788">
        <ele>181</ele>
        <time>2018-03-30T14:08:32Z</time>
      </trkpt>
      <trkpt lat="48.87589" lon="3.53788">
        <ele>181</ele>
        <time>2018-03-30T14:09:32Z</time>
      </trkpt>
      <trkpt lat="48.87589" lon="3.53789">
        <ele>181</ele>
        <time>2018-03-30T14:10:32Z</time>
      </trkpt>
      <trkpt lat="48.8759" lon="3.53789">
        <ele>181</ele>
        <time>2018-03-30T14:11:32Z</time>
      </trkpt>
      <trkpt lat="48.87591" lon="3.5379">
        <ele>181</ele>
        <time>2018-03-30T14:12:32Z</time>
      </trkpt>
      <trkpt lat="48.87592" lon="3.5379">
        <ele>181</ele>
        <time>2018-03-30T14:13:32Z</time>
      </trkpt>
      <trkpt lat="48.87593" lon="3.5379">
        <ele>181</ele>
        <time>2018-03-30T14:14:32Z</time>
      </trkpt>
      <trkpt lat="48.87594" lon="3.5379">
        <ele>181</ele>
        <time>2018-03-30T14:15:32Z</time>
      </trkpt>
      <trkpt lat="48.8757" lon="3.53836">
        <ele>184</ele>
        <time>2018-03-30T14:16:32Z</time>
      </trkpt>
      <trkpt lat="48.87554" lon="3.53858">
        <ele>185</ele>
        <time>2018-03-30T14:17:32Z</time>
      </trkpt>
      <trkpt lat="48.87532" lon="3.53895">
        <ele>186</ele>
        <time>2018-03-30T14:18:32Z</time>
      </trkpt>
      <trkpt lat="48.87505" lon="3.5394">
        <ele>188</ele>
        <time>2018-03-30T14:19:32Z</time>
      </trkpt>
      <trkpt lat="48.87484" lon="3.53976">
        <ele>190</ele>
        <time>2018-03-30T14:20:32Z</time>
      </trkpt>
      <trkpt lat="48.87465" lon="3.54006">
        <ele>191</ele>
        <time>2018-03-30T14:21:32Z</time>
      </trkpt>
      <trkpt lat="48.87457" lon="3.54021">
        <ele>192</ele>
        <time>2018-03-30T14:22:32Z</time>
      </trkpt>
      <trkpt lat="48.87454" lon="3.54031">
        <ele>192</ele>
        <time>2018-03-30T14:23:32Z</time>
      </trkpt>
      <trkpt lat="48.87453" lon="3.5404">
        <ele>192</ele>
        <time>2018-03-30T14:24:32Z</time>
      </trkpt>
      <trkpt lat="48.87454" lon="3.54051">
        <ele>193</ele>
        <time>2018-03-30T14:25:32Z</time>
      </trkpt>
      <trkpt lat="48.87457" lon="3.54071">
        <ele>193</ele>
        <time>2018-03-30T14:26:32Z</time>
      </trkpt>
      <trkpt lat="48.87463" lon="3.54095">
        <ele>193</ele>
        <time>2018-03-30T14:27:32Z</time>
      </trkpt>
      <trkpt lat="48.87468" lon="3.54114">
        <ele>194</ele>
        <time>2018-03-30T14:28:32Z</time>
      </trkpt>
      <trkpt lat="48.8747" lon="3.54132">
        <ele>194</ele>
        <time>2018-03-30T14:29:32Z</time>
      </trkpt>
      <trkpt lat="48.87471" lon="3.54146">
        <ele>194</ele>
        <time>2018-03-30T14:30:32Z</time>
      </trkpt>
      <trkpt lat="48.87472" lon="3.54161">
        <ele>194</ele>
        <time>2018-03-30T14:31:32Z</time>
      </trkpt>
      <trkpt lat="48.87472" lon="3.54161">
        <ele>194</ele>
        <time>2018-03-30T14:32:32Z</time>
      </trkpt>
      <trkpt lat="48.87476" lon="3.54166">
        <ele>194</ele>
        <time>2018-03-30T14:33:32Z</time>
      </trkpt>
      <trkpt lat="48.87492" lon="3.54181">
        <ele>194</ele>
        <time>2018-03-30T14:34:32Z</time>
      </trkpt>
      <trkpt lat="48.87507" lon="3.54198">
        <ele>194</ele>
        <time>2018-03-30T14:35:32Z</time>
      </trkpt>
      <trkpt lat="48.8752" lon="3.54215">
        <ele>194</ele>
        <time>2018-03-30T14:36:32Z</time>
      </trkpt>
      <trkpt lat="48.87532" lon="3.5423">
        <ele>194</ele>
        <time>2018-03-30T14:37:32Z</time>
      </trkpt>
      <trkpt lat="48.87568" lon="3.54285">
        <ele>196</ele>
        <time>2018-03-30T14:38:32Z</time>
      </trkpt>
      <trkpt lat="48.8758" lon="3.54302">
        <ele>196</ele>
        <time>2018-03-30T14:39:32Z</time>
      </trkpt>
      <trkpt lat="48.87588" lon="3.54314">
        <ele>196</ele>
        <time>2018-03-30T14:40:32Z</time>
      </trkpt>
      <trkpt lat="48.876" lon="3.5433">
        <ele>197</ele>
        <time>2018-03-30T14:41:32Z</time>
      </trkpt>
      <trkpt lat="48.87611" lon="3.54342">
        <ele>196</ele>
        <time>2018-03-30T14:42:32Z</time>
      </trkpt>
      <trkpt lat="48.87612" lon="3.54343">
        <ele>196</ele>
        <time>2018-03-30T14:43:32Z</time>
      </trkpt>
      <trkpt lat="48.87623" lon="3.54354">
        <ele>196</ele>
        <time>2018-03-30T14:44:32Z</time>
      </trkpt>
      <trkpt lat="48.87635" lon="3.54365">
        <ele>196</ele>
        <time>2018-03-30T14:45:32Z</time>
      </trkpt>
      <trkpt lat="48.87648" lon="3.54373">
        <ele>196</ele>
        <time>2018-03-30T14:46:32Z</time>
      </trkpt>
      <trkpt lat="48.87661" lon="3.54382">
        <ele>196</ele>
        <time>2018-03-30T14:47:32Z</time>
      </trkpt>
      <trkpt lat="48.87673" lon="3.54389">
        <ele>196</ele>
        <time>2018-03-30T14:48:32Z</time>
      </trkpt>
      <trkpt lat="48.87686" lon="3.54396">
        <ele>196</ele>
        <time>2018-03-30T14:49:32Z</time>
      </trkpt>
      <trkpt lat="48.87703" lon="3.54402">
        <ele>196</ele>
        <time>2018-03-30T14:50:32Z</time>
      </trkpt>
      <trkpt lat="48.87724" lon="3.54409">
        <ele>196</ele>
        <time>2018-03-30T14:51:32Z</time>
      </trkpt>
      <trkpt lat="48.87742" lon="3.54414">
        <ele>195</ele>
        <time>2018-03-30T14:52:32Z</time>
      </trkpt>
      <trkpt lat="48.87758" lon="3.54419">
        <ele>195</ele>
        <time>2018-03-30T14:53:32Z</time>
      </trkpt>
      <trkpt lat="48.87764" lon="3.54421">
        <ele>195</ele>
        <time>2018-03-30T14:54:32Z</time>
      </trkpt>
      <trkpt lat="48.8777" lon="3.54422">
        <ele>195</ele>
        <time>2018-03-30T14:55:32Z</time>
      </trkpt>
      <trkpt lat="48.8778" lon="3.54426">
        <ele>195</ele>
        <time>2018-03-30T14:56:32Z</time>
      </trkpt>
      <trkpt lat="48.87794" lon="3.54432">
        <ele>195</ele>
        <time>2018-03-30T14:57:32Z</time>
      </trkpt>
      <trkpt lat="48.87808" lon="3.54439">
        <ele>195</ele>
        <time>2018-03-30T14:58:32Z</time>
      </trkpt>
      <trkpt lat="48.87833" lon="3.54453">
        <ele>195</ele>
        <time>2018-03-30T14:59:32Z</time>
      </trkpt>
      <trkpt lat="48.87849" lon="3.54461">
        <ele>196</ele>
        <time>2018-03-30T15:00:32Z</time>
      </trkpt>
      <trkpt lat="48.8786" lon="3.54465">
        <ele>196</ele>
        <time>2018-03-30T15:01:32Z</time>
      </trkpt>
      <trkpt lat="48.87872" lon="3.54469">
        <ele>197</ele>
        <time>2018-03-30T15:02:32Z</time>
      </trkpt>
      <trkpt lat="48.87883" lon="3.54471">
        <ele>197</ele>
        <time>2018-03-30T15:03:32Z</time>
      </trkpt>
      <trkpt lat="48.87896" lon="3.54472">
        <ele>197</ele>
        <time>2018-03-30T15:04:32Z</time>
      </trkpt>
      <trkpt lat="48.8791" lon="3.54473">
        <ele>198</ele>
        <time>2018-03-30T15:05:32Z</time>
      </trkpt>
      <trkpt lat="48.87922" lon="3.54474">
        <ele>198</ele>
        <time>2018-03-30T15:06:32Z</time>
      </trkpt>
      <trkpt lat="48.87934" lon="3.54475">
        <ele>198</ele>
        <time>2018-03-30T15:07:32Z</time>
      </trkpt>
      <trkpt lat="48.87945" lon="3.54475">
        <ele>197</ele>
        <time>2018-03-30T15:08:32Z</time>
      </trkpt>
      <trkpt lat="48.87956" lon="3.54477">
        <ele>197</ele>
        <time>2018-03-30T15:09:32Z</time>
      </trkpt>
      <trkpt lat="48.87968" lon="3.5448">
        <ele>197</ele>
        <time>2018-03-30T15:10:32Z</time>
      </trkpt>
      <trkpt lat="48.87979" lon="3.54484">
        <ele>198</ele>
        <time>2018-03-30T15:11:32Z</time>
      </trkpt>
      <trkpt lat="48.87988" lon="3.54488">
        <ele>198</ele>
        <time>2018-03-30T15:12:32Z</time>
      </trkpt>
      <trkpt lat="48.88013" lon="3.54504">
        <ele>198</ele>
        <time>2018-03-30T15:13:32Z</time>
      </trkpt>
      <trkpt lat="48.88019" lon="3.54509">
        <ele>198</ele>
        <time>2018-03-30T15:14:32Z</time>
      </trkpt>
      <trkpt lat="48.88029" lon="3.54518">
        <ele>198</ele>
        <time>2018-03-30T15:15:32Z</time>
      </trkpt>
      <trkpt lat="48.8804" lon="3.5453">
        <ele>198</ele>
        <time>2018-03-30T15:16:32Z</time>
      </trkpt>
      <trkpt lat="48.88055" lon="3.54548">
        <ele>198</ele>
        <time>2018-03-30T15:17:32Z</time>
      </trkpt>
      <trkpt lat="48.88074" lon="3.54573">
        <ele>197</ele>
        <time>2018-03-30T15:18:32Z</time>
      </trkpt>
      <trkpt lat="48.88091" lon="3.54593">
        <ele>197</ele>
        <time>2018-03-30T15:19:32Z</time>
      </trkpt>
      <trkpt lat="48.88105" lon="3.54608">
        <ele>196</ele>
        <time>2018-03-30T15:20:32Z</time>
      </trkpt>
      <trkpt lat="48.8812" lon="3.54622">
        <ele>196</ele>
        <time>2018-03-30T15:21:32Z</time>
      </trkpt>
      <trkpt lat="48.88135" lon="3.54634">
        <ele>196</ele>
        <time>2018-03-30T15:22:32Z</time>
      </trkpt>
      <trkpt lat="48.88153" lon="3.54645">
        <ele>195</ele>
        <time>2018-03-30T15:23:32Z</time>
      </trkpt>
      <trkpt lat="48.8817" lon="3.54653">
        <ele>195</ele>
        <time>2018-03-30T15:24:32Z</time>
      </trkpt>
      <trkpt lat="48.88186" lon="3.5466">
        <ele>194</ele>
        <time>2018-03-30T15:25:32Z</time>
      </trkpt>
      <trkpt lat="48.88201" lon="3.54669">
        <ele>193</ele>
        <time>2018-03-30T15:26:32Z</time>
      </trkpt>
      <trkpt lat="48.88215" lon="3.54679">
        <ele>193</ele>
        <time>2018-03-30T15:27:32Z</time>
      </trkpt>
      <trkpt lat="48.88229" lon="3.54691">
        <ele>192</ele>
        <time>2018-03-30T15:28:32Z</time>
      </trkpt>
      <trkpt lat="48.88243" lon="3.54704">
        <ele>191</ele>
        <time>2018-03-30T15:29:32Z</time>
      </trkpt>
      <trkpt lat="48.88258" lon="3.54718">
        <ele>191</ele>
        <time>2018-03-30T15:30:32Z</time>
      </trkpt>
      <trkpt lat="48.88271" lon="3.54734">
        <ele>190</ele>
        <time>2018-03-30T15:31:32Z</time>
      </trkpt>
      <trkpt lat="48.88286" lon="3.54753">
        <ele>189</ele>
        <time>2018-03-30T15:32:32Z</time>
      </trkpt>
      <trkpt lat="48.88301" lon="3.54774">
        <ele>189</ele>
        <time>2018-03-30T15:33:32Z</time>
      </trkpt>
      <trkpt lat="48.88317" lon="3.54798">
        <ele>188</ele>
        <time>2018-03-30T15:34:32Z</time>
      </trkpt>
      <trkpt lat="48.88334" lon="3.54821">
        <ele>188</ele>
        <time>2018-03-30T15:35:32Z</time>
      </trkpt>
      <trkpt lat="48.88351" lon="3.54842">
        <ele>188</ele>
        <time>2018-03-30T15:36:32Z</time>
      </trkpt>
      <trkpt lat="48.88367" lon="3.5486">
        <ele>188</ele>
        <time>2018-03-30T15:37:32Z</time>
      </trkpt>
      <trkpt lat="48.8838" lon="3.54871">
        <ele>189</ele>
        <time>2018-03-30T15:38:32Z</time>
      </trkpt>
      <trkpt lat="48.88384" lon="3.54875">
        <ele>189</ele>
        <time>2018-03-30T15:39:32Z</time>
      </trkpt>
      <trkpt lat="48.88394" lon="3.54882">
        <ele>189</ele>
        <time>2018-03-30T15:40:32Z</time>
      </trkpt>
      <trkpt lat="48.88411" lon="3.54893">
        <ele>189</ele>
        <time>2018-03-30T15:41:32Z</time>
      </trkpt>
      <trkpt lat="48.88464" lon="3.54921">
        <ele>188</ele>
        <time>2018-03-30T15:42:32Z</time>
      </trkpt>
      <trkpt lat="48.88503" lon="3.54942">
        <ele>188</ele>
        <time>2018-03-30T15:43:32Z</time>
      </trkpt>
      <trkpt lat="48.88532" lon="3.54955">
        <ele>187</ele>
        <time>2018-03-30T15:44:32Z</time>
      </trkpt>
      <trkpt lat="48.88554" lon="3.54963">
        <ele>187</ele>
        <time>2018-03-30T15:45:32Z</time>
      </trkpt>
      <trkpt lat="48.88594" lon="3.54973">
        <ele>187</ele>
        <time>2018-03-30T15:46:32Z</time>
      </trkpt>
      <trkpt lat="48.88674" lon="3.54993">
        <ele>187</ele>
        <time>2018-03-30T15:47:32Z</time>
      </trkpt>
      <trkpt lat="48.88733" lon="3.55008">
        <ele>186</ele>
        <time>2018-03-30T15:48:32Z</time>
      </trkpt>
      <trkpt lat="48.8875" lon="3.55012">
        <ele>186</ele>
        <time>2018-03-30T15:49:32Z</time>
      </trkpt>
      <trkpt lat="48.88759" lon="3.55016">
        <ele>187</ele>
        <time>2018-03-30T15:50:32Z</time>
      </trkpt>
      <trkpt lat="48.88766" lon="3.55019">
        <ele>187</ele>
        <time>2018-03-30T15:51:32Z</time>
      </trkpt>
      <trkpt lat="48.88773" lon="3.55023">
        <ele>187</ele>
        <time>2018-03-30T15:52:32Z</time>
      </trkpt>
      <trkpt lat="48.88782" lon="3.55029">
        <ele>187</ele>
        <time>2018-03-30T15:53:32Z</time>
      </trkpt>
      <trkpt lat="48.8879" lon="3.55035">
        <ele>188</ele>
        <time>2018-03-30T15:54:32Z</time>
      </trkpt>
      <trkpt lat="48.88798" lon="3.55041">
        <ele>188</ele>
        <time>2018-03-30T15:55:32Z</time>
      </trkpt>
      <trkpt lat="48.88803" lon="3.55046">
        <ele>188</ele>
        <time>2018-03-30T15:56:32Z</time>
      </trkpt>
      <trkpt lat="48.88805" lon="3.55049">
        <ele>188</ele>
        <time>2018-03-30T15:57:32Z</time>
      </trkpt>
      <trkpt lat="48.88815" lon="3.55061">
        <ele>188</ele>
        <time>2018-03-30T15:58:32Z</time>
      </trkpt>
      <trkpt lat="48.88835" lon="3.55087">
        <ele>188</ele>
        <time>2018-03-30T15:59:32Z</time>
      </trkpt>
      <trkpt lat="48.88883" lon="3.55146">
        <ele>188</ele>
        <time>2018-03-30T16:00:32Z</time>
      </trkpt>
      <trkpt lat="48.88927" lon="3.552">
        <ele>188</ele>
        <time>2018-03-30T16:01:32Z</time>
      </trkpt>
      <trkpt lat="48.88976" lon="3.5526">
        <ele>188</ele>
        <time>2018-03-30T16:02:32Z</time>
      </trkpt>
      <trkpt lat="48.8902" lon="3.55312">
        <ele>189</ele>
        <time>2018-03-30T16:03:32Z</time>
      </trkpt>
      <trkpt lat="48.8906" lon="3.5536">
        <ele>189</ele>
        <time>2018-03-30T16:04:32Z</time>
      </trkpt>
      <trkpt lat="48.89091" lon="3.554">
        <ele>190</ele>
        <time>2018-03-30T16:05:32Z</time>
      </trkpt>
      <trkpt lat="48.89128" lon="3.55445">
        <ele>189</ele>
        <time>2018-03-30T16:06:32Z</time>
      </trkpt>
      <trkpt lat="48.89171" lon="3.55497">
        <ele>188</ele>
        <time>2018-03-30T16:07:32Z</time>
      </trkpt>
      <trkpt lat="48.89209" lon="3.55547">
        <ele>189</ele>
        <time>2018-03-30T16:08:32Z</time>
      </trkpt>
      <trkpt lat="48.89225" lon="3.55565">
        <ele>189</ele>
        <time>2018-03-30T16:09:32Z</time>
      </trkpt>
      <trkpt lat="48.89237" lon="3.55581">
        <ele>189</ele>
        <time>2018-03-30T16:10:32Z</time>
      </trkpt>
      <trkpt lat="48.89251" lon="3.55598">
        <ele>189</ele>
        <time>2018-03-30T16:11:32Z</time>
      </trkpt>
      <trkpt lat="48.89261" lon="3.55609">
        <ele>189</ele>
        <time>2018-03-30T16:12:32Z</time>
      </trkpt>
      <trkpt lat="48.89306" lon="3.55664">
        <ele>189</ele>
        <time>2018-03-30T16:13:32Z</time>
      </trkpt>
      <trkpt lat="48.89341" lon="3.55706">
        <ele>190</ele>
        <time>2018-03-30T16:14:32Z</time>
      </trkpt>
      <trkpt lat="48.89366" lon="3.55738">
        <ele>191</ele>
        <time>2018-03-30T16:15:32Z</time>
      </trkpt>
      <trkpt lat="48.89378" lon="3.55753">
        <ele>192</ele>
        <time>2018-03-30T16:16:32Z</time>
      </trkpt>
      <trkpt lat="48.89388" lon="3.55764">
        <ele>192</ele>
        <time>2018-03-30T16:17:32Z</time>
      </trkpt>
      <trkpt lat="48.89399" lon="3.55776">
        <ele>192</ele>
        <time>2018-03-30T16:18:32Z</time>
      </trkpt>
      <trkpt lat="48.89412" lon="3.55787">
        <ele>193</ele>
        <time>2018-03-30T16:19:32Z</time>
      </trkpt>
      <trkpt lat="48.89423" lon="3.55795">
        <ele>193</ele>
        <time>2018-03-30T16:20:32Z</time>
      </trkpt>
      <trkpt lat="48.89433" lon="3.55801">
        <ele>193</ele>
        <time>2018-03-30T16:21:32Z</time>
      </trkpt>
      <trkpt lat="48.89444" lon="3.55806">
        <ele>193</ele>
        <time>2018-03-30T16:22:32Z</time>
      </trkpt>
      <trkpt lat="48.89455" lon="3.55809">
        <ele>193</ele>
        <time>2018-03-30T16:23:32Z</time>
      </trkpt>
      <trkpt lat="48.89461" lon="3.5581">
        <ele>193</ele>
        <time>2018-03-30T16:24:32Z</time>
      </trkpt>
      <trkpt lat="48.8947" lon="3.5581">
        <ele>193</ele>
        <time>2018-03-30T16:25:32Z</time>
      </trkpt>
      <trkpt lat="48.89484" lon="3.55811">
        <ele>193</ele>
        <time>2018-03-30T16:26:32Z</time>
      </trkpt>
      <trkpt lat="48.89508" lon="3.55811">
        <ele>193</ele>
        <time>2018-03-30T16:27:32Z</time>
      </trkpt>
      <trkpt lat="48.89534" lon="3.55811">
        <ele>193</ele>
        <time>2018-03-30T16:28:32Z</time>
      </trkpt>
      <trkpt lat="48.89563" lon="3.5581">
        <ele>193</ele>
        <time>2018-03-30T16:29:32Z</time>
      </trkpt>
      <trkpt lat="48.89596" lon="3.5581">
        <ele>194</ele>
        <time>2018-03-30T16:30:32Z</time>
      </trkpt>
      <trkpt lat="48.89641" lon="3.5581">
        <ele>193</ele>
        <time>2018-03-30T16:31:32Z</time>
      </trkpt>
      <trkpt lat="48.89697" lon="3.5581">
        <ele>193</ele>
        <time>2018-03-30T16:32:32Z</time>
      </trkpt>
      <trkpt lat="48.89751" lon="3.55809">
        <ele>193</ele>
        <time>2018-03-30T16:33:32Z</time>
      </trkpt>
      <trkpt lat="48.89799" lon="3.55809">
        <ele>196</ele>
        <time>2018-03-30T16:34:32Z</time>
      </trkpt>
      <trkpt lat="48.89844" lon="3.55809">
        <ele>198</ele>
        <time>2018-03-30T16:35:32Z</time>
      </trkpt>
      <trkpt lat="48.89893" lon="3.55809">
        <ele>202</ele>
        <time>2018-03-30T16:36:32Z</time>
      </trkpt>
      <trkpt lat="48.8996" lon="3.55809">
        <ele>205</ele>
        <time>2018-03-30T16:37:32Z</time>
      </trkpt>
      <trkpt lat="48.90025" lon="3.55808">
        <ele>207</ele>
        <time>2018-03-30T16:38:32Z</time>
      </trkpt>
      <trkpt lat="48.90087" lon="3.55809">
        <ele>209</ele>
        <time>2018-03-30T16:39:32Z</time>
      </trkpt>
      <trkpt lat="48.90159" lon="3.55809">
        <ele>208</ele>
        <time>2018-03-30T16:40:32Z</time>
      </trkpt>
      <trkpt lat="48.90203" lon="3.55809">
        <ele>208</ele>
        <time>2018-03-30T16:41:32Z</time>
      </trkpt>
      <trkpt lat="48.90222" lon="3.55809">
        <ele>208</ele>
        <time>2018-03-30T16:42:32Z</time>
      </trkpt>
      <trkpt lat="48.90236" lon="3.55808">
        <ele>208</ele>
        <time>2018-03-30T16:43:32Z</time>
      </trkpt>
      <trkpt lat="48.90247" lon="3.55807">
        <ele>208</ele>
        <time>2018-03-30T16:44:32Z</time>
      </trkpt>
      <trkpt lat="48.90259" lon="3.55805">
        <ele>208</ele>
        <time>2018-03-30T16:45:32Z</time>
      </trkpt>
      <trkpt lat="48.9027" lon="3.55803">
        <ele>208</ele>
        <time>2018-03-30T16:46:32Z</time>
      </trkpt>
      <trkpt lat="48.90285" lon="3.55799">
        <ele>208</ele>
        <time>2018-03-30T16:47:32Z</time>
      </trkpt>
      <trkpt lat="48.90313" lon="3.5579">
        <ele>208</ele>
        <time>2018-03-30T16:48:32Z</time>
      </trkpt>
      <trkpt lat="48.90339" lon="3.55782">
        <ele>208</ele>
        <time>2018-03-30T16:49:32Z</time>
      </trkpt>
      <trkpt lat="48.9036" lon="3.55775">
        <ele>209</ele>
        <time>2018-03-30T16:50:32Z</time>
      </trkpt>
      <trkpt lat="48.9038" lon="3.55769">
        <ele>210</ele>
        <time>2018-03-30T16:51:32Z</time>
      </trkpt>
      <trkpt lat="48.90396" lon="3.55763">
        <ele>210</ele>
        <time>2018-03-30T16:52:32Z</time>
      </trkpt>
      <trkpt lat="48.90421" lon="3.55754">
        <ele>210</ele>
        <time>2018-03-30T16:53:32Z</time>
      </trkpt>
      <trkpt lat="48.90438" lon="3.55747">
        <ele>211</ele>
        <time>2018-03-30T16:54:32Z</time>
      </trkpt>
      <trkpt lat="48.90453" lon="3.55741">
        <ele>211</ele>
        <time>2018-03-30T16:55:32Z</time>
      </trkpt>
      <trkpt lat="48.90463" lon="3.55736">
        <ele>212</ele>
        <time>2018-03-30T16:56:32Z</time>
      </trkpt>
      <trkpt lat="48.90476" lon="3.5573">
        <ele>212</ele>
        <time>2018-03-30T16:57:32Z</time>
      </trkpt>
      <trkpt lat="48.90493" lon="3.55723">
        <ele>213</ele>
        <time>2018-03-30T16:58:32Z</time>
      </trkpt>
      <trkpt lat="48.90571" lon="3.55683">
        <ele>211</ele>
        <time>2018-03-30T16:59:32Z</time>
      </trkpt>
      <trkpt lat="48.90581" lon="3.55678">
        <ele>210</ele>
        <time>2018-03-30T17:00:32Z</time>
      </trkpt>
      <trkpt lat="48.90639" lon="3.5565">
        <ele>209</ele>
        <time>2018-03-30T17:01:32Z</time>
      </trkpt>
      <trkpt lat="48.90641" lon="3.5565">
        <ele>209</ele>
        <time>2018-03-30T17:02:32Z</time>
      </trkpt>
      <trkpt lat="48.90664" lon="3.55641">
        <ele>209</ele>
        <time>2018-03-30T17:03:32Z</time>
      </trkpt>
      <trkpt lat="48.90665" lon="3.55641">
        <ele>209</ele>
        <time>2018-03-30T17:04:32Z</time>
      </trkpt>
      <trkpt lat="48.90684" lon="3.55636">
        <ele>209</ele>
        <time>2018-03-30T17:05:32Z</time>
      </trkpt>
      <trkpt lat="48.90706" lon="3.55633">
        <ele>209</ele>
        <time>2018-03-30T17:06:32Z</time>
      </trkpt>
      <trkpt lat="48.90722" lon="3.55631">
        <ele>209</ele>
        <time>2018-03-30T17:07:32Z</time>
      </trkpt>
      <trkpt lat="48.90732" lon="3.5563">
        <ele>209</ele>
        <time>2018-03-30T17:08:32Z</time>
      </trkpt>
      <trkpt lat="48.90742" lon="3.5563">
        <ele>209</ele>
        <time>2018-03-30T17:09:32Z</time>
      </trkpt>
      <trkpt lat="48.90771" lon="3.55629">
        <ele>209</ele>
        <time>2018-03-30T17:10:32Z</time>
      </trkpt>
      <trkpt lat="48.90801" lon="3.55628">
        <ele>208</ele>
        <time>2018-03-30T17:11:32Z</time>
      </trkpt>
      <trkpt lat="48.90805" lon="3.55627">
        <ele>208</ele>
        <time>2018-03-30T17:12:32Z</time>
      </trkpt>
      <trkpt lat="48.9085" lon="3.55628">
        <ele>207</ele>
        <time>2018-03-30T17:13:32Z</time>
      </trkpt>
      <trkpt lat="48.90855" lon="3.55628">
        <ele>207</ele>
        <time>2018-03-30T17:14:32Z</time>
      </trkpt>
      <trkpt lat="48.90871" lon="3.55627">
        <ele>207</ele>
        <time>2018-03-30T17:15:32Z</time>
      </trkpt>
      <trkpt lat="48.90884" lon="3.55627">
        <ele>206</ele>
        <time>2018-03-30T17:16:32Z</time>
      </trkpt>
      <trkpt lat="48.90888" lon="3.55628">
        <ele>206</ele>
        <time>2018-03-30T17:17:32Z</time>
      </trkpt>
      <trkpt lat="48.90891" lon="3.55629">
        <ele>206</ele>
        <time>2018-03-30T17:18:32Z</time>
      </trkpt>
      <trkpt lat="48.90893" lon="3.55629">
        <ele>206</ele>
        <time>2018-03-30T17:19:32Z</time>
      </trkpt>
      <trkpt lat="48.90894" lon="3.5563">
        <ele>206</ele>
        <time>2018-03-30T17:20:32Z</time>
      </trkpt>
      <trkpt lat="48.90895" lon="3.5563">
        <ele>206</ele>
        <time>2018-03-30T17:21:32Z</time>
      </trkpt>
      <trkpt lat="48.90896" lon="3.5563">
        <ele>206</ele>
        <time>2018-03-30T17:22:32Z</time>
      </trkpt>
      <trkpt lat="48.90898" lon="3.5563">
        <ele>206</ele>
        <time>2018-03-30T17:23:32Z</time>
      </trkpt>
      <trkpt lat="48.90902" lon="3.55629">
        <ele>206</ele>
        <time>2018-03-30T17:24:32Z</time>
      </trkpt>
      <trkpt lat="48.90907" lon="3.55629">
        <ele>206</ele>
        <time>2018-03-30T17:25:32Z</time>
      </trkpt>
      <trkpt lat="48.90918" lon="3.55628">
        <ele>206</ele>
        <time>2018-03-30T17:26:32Z</time>
      </trkpt>
      <trkpt lat="48.90928" lon="3.55627">
        <ele>206</ele>
        <time>2018-03-30T17:27:32Z</time>
      </trkpt>
      <trkpt lat="48.90942" lon="3.55623">
        <ele>206</ele>
        <time>2018-03-30T17:28:32Z</time>
      </trkpt>
      <trkpt lat="48.90948" lon="3.55621">
        <ele>205</ele>
        <time>2018-03-30T17:29:32Z</time>
      </trkpt>
      <trkpt lat="48.90958" lon="3.55616">
        <ele>205</ele>
        <time>2018-03-30T17:30:32Z</time>
      </trkpt>
      <trkpt lat="48.90966" lon="3.55612">
        <ele>205</ele>
        <time>2018-03-30T17:31:32Z</time>
      </trkpt>
      <trkpt lat="48.90975" lon="3.55605">
        <ele>205</ele>
        <time>2018-03-30T17:32:32Z</time>
      </trkpt>
      <trkpt lat="48.90983" lon="3.55599">
        <ele>206</ele>
        <time>2018-03-30T17:33:32Z</time>
      </trkpt>
      <trkpt lat="48.90991" lon="3.55593">
        <ele>206</ele>
        <time>2018-03-30T17:34:32Z</time>
      </trkpt>
      <trkpt lat="48.90999" lon="3.55586">
        <ele>206</ele>
        <time>2018-03-30T17:35:32Z</time>
      </trkpt>
      <trkpt lat="48.91007" lon="3.55578">
        <ele>206</ele>
        <time>2018-03-30T17:36:32Z</time>
      </trkpt>
      <trkpt lat="48.91019" lon="3.55568">
        <ele>205</ele>
        <time>2018-03-30T17:37:32Z</time>
      </trkpt>
      <trkpt lat="48.91026" lon="3.55562">
        <ele>205</ele>
        <time>2018-03-30T17:38:32Z</time>
      </trkpt>
      <trkpt lat="48.91063" lon="3.5553">
        <ele>204</ele>
        <time>2018-03-30T17:39:32Z</time>
      </trkpt>
      <trkpt lat="48.91093" lon="3.55503">
        <ele>203</ele>
        <time>2018-03-30T17:40:32Z</time>
      </trkpt>
      <trkpt lat="48.911" lon="3.55498">
        <ele>203</ele>
        <time>2018-03-30T17:41:32Z</time>
      </trkpt>
      <trkpt lat="48.91103" lon="3.55494">
        <ele>203</ele>
        <time>2018-03-30T17:42:32Z</time>
      </trkpt>
      <trkpt lat="48.91113" lon="3.55486">
        <ele>202</ele>
        <time>2018-03-30T17:43:32Z</time>
      </trkpt>
      <trkpt lat="48.91148" lon="3.55456">
        <ele>201</ele>
        <time>2018-03-30T17:44:32Z</time>
      </trkpt>
      <trkpt lat="48.91195" lon="3.55413">
        <ele>201</ele>
        <time>2018-03-30T17:45:32Z</time>
      </trkpt>
      <trkpt lat="48.9121" lon="3.55401">
        <ele>201</ele>
        <time>2018-03-30T17:46:32Z</time>
      </trkpt>
      <trkpt lat="48.91234" lon="3.55379">
        <ele>200</ele>
        <time>2018-03-30T17:47:32Z</time>
      </trkpt>
      <trkpt lat="48.91244" lon="3.55371">
        <ele>200</ele>
        <time>2018-03-30T17:48:32Z</time>
      </trkpt>
      <trkpt lat="48.91286" lon="3.55334">
        <ele>198</ele>
        <time>2018-03-30T17:49:32Z</time>
      </trkpt>
      <trkpt lat="48.91332" lon="3.55293">
        <ele>195</ele>
        <time>2018-03-30T17:50:32Z</time>
      </trkpt>
      <trkpt lat="48.91341" lon="3.55285">
        <ele>194</ele>
        <time>2018-03-30T17:51:32Z</time>
      </trkpt>
      <trkpt lat="48.91345" lon="3.55282">
        <ele>194</ele>
        <time>2018-03-30T17:52:32Z</time>
      </trkpt>
      <trkpt lat="48.9135" lon="3.55277">
        <ele>193</ele>
        <time>2018-03-30T17:53:32Z</time>
      </trkpt>
      <trkpt lat="48.91378" lon="3.55253">
        <ele>190</ele>
        <time>2018-03-30T17:54:32Z</time>
      </trkpt>
      <trkpt lat="48.91383" lon="3.55249">
        <ele>190</ele>
        <time>2018-03-30T17:55:32Z</time>
      </trkpt>
      <trkpt lat="48.91387" lon="3.55246">
        <ele>190</ele>
        <time>2018-03-30T17:56:32Z</time>
      </trkpt>
      <trkpt lat="48.91398" lon="3.55238">
        <ele>189</ele>
        <time>2018-03-30T17:57:32Z</time>
      </trkpt>
      <trkpt lat="48.91398" lon="3.55238">
        <ele>189</ele>
        <time>2018-03-30T17:58:32Z</time>
      </trkpt>
      <trkpt lat="48.91408" lon="3.55231">
        <ele>189</ele>
        <time>2018-03-30T17:59:32Z</time>
      </trkpt>
      <trkpt lat="48.91415" lon="3.55226">
        <ele>188</ele>
        <time>2018-03-30T18:00:32Z</time>
      </trkpt>
      <trkpt lat="48.91421" lon="3.55222">
        <ele>188</ele>
        <time>2018-03-30T18:01:32Z</time>
      </trkpt>
      <trkpt lat="48.91428" lon="3.55217">
        <ele>187</ele>
        <time>2018-03-30T18:02:32Z</time>
      </trkpt>
      <trkpt lat="48.9144" lon="3.5521">
        <ele>187</ele>
        <time>2018-03-30T18:03:32Z</time>
      </trkpt>
      <trkpt lat="48.91453" lon="3.55202">
        <ele>186</ele>
        <time>2018-03-30T18:04:32Z</time>
      </trkpt>
      <trkpt lat="48.91466" lon="3.55194">
        <ele>186</ele>
        <time>2018-03-30T18:05:32Z</time>
      </trkpt>
      <trkpt lat="48.91483" lon="3.55183">
        <ele>185</ele>
        <time>2018-03-30T18:06:32Z</time>
      </trkpt>
      <trkpt lat="48.91521" lon="3.55159">
        <ele>184</ele>
        <time>2018-03-30T18:07:32Z</time>
      </trkpt>
      <trkpt lat="48.91554" lon="3.55138">
        <ele>185</ele>
        <time>2018-03-30T18:08:32Z</time>
      </trkpt>
      <trkpt lat="48.91558" lon="3.55137">
        <ele>185</ele>
        <time>2018-03-30T18:09:32Z</time>
      </trkpt>
      <trkpt lat="48.91564" lon="3.55133">
        <ele>185</ele>
        <time>2018-03-30T18:10:32Z</time>
      </trkpt>
      <trkpt lat="48.9157" lon="3.55131">
        <ele>185</ele>
        <time>2018-03-30T18:11:32Z</time>
      </trkpt>
      <trkpt lat="48.91573" lon="3.55129">
        <ele>185</ele>
        <time>2018-03-30T18:12:32Z</time>
      </trkpt>
      <trkpt lat="48.91581" lon="3.55126">
        <ele>185</ele>
        <time>2018-03-30T18:13:32Z</time>
      </trkpt>
      <trkpt lat="48.91588" lon="3.55124">
        <ele>186</ele>
        <time>2018-03-30T18:14:32Z</time>
      </trkpt>
      <trkpt lat="48.91594" lon="3.55122">
        <ele>186</ele>
        <time>2018-03-30T18:15:32Z</time>
      </trkpt>
      <trkpt lat="48.91606" lon="3.5512">
        <ele>187</ele>
        <time>2018-03-30T18:16:32Z</time>
      </trkpt>
      <trkpt lat="48.91616" lon="3.55118">
        <ele>187</ele>
        <time>2018-03-30T18:17:32Z</time>
      </trkpt>
      <trkpt lat="48.91623" lon="3.55118">
        <ele>188</ele>
        <time>2018-03-30T18:18:32Z</time>
      </trkpt>
      <trkpt lat="48.91645" lon="3.55116">
        <ele>189</ele>
        <time>2018-03-30T18:19:32Z</time>
      </trkpt>
      <trkpt lat="48.91673" lon="3.55115">
        <ele>191</ele>
        <time>2018-03-30T18:20:32Z</time>
      </trkpt>
      <trkpt lat="48.9168" lon="3.55114">
        <ele>191</ele>
        <time>2018-03-30T18:21:32Z</time>
      </trkpt>
      <trkpt lat="48.91694" lon="3.55113">
        <ele>191</ele>
        <time>2018-03-30T18:22:32Z</time>
      </trkpt>
      <trkpt lat="48.91708" lon="3.55112">
        <ele>192</ele>
        <time>2018-03-30T18:23:32Z</time>
      </trkpt>
      <trkpt lat="48.91728" lon="3.5511">
        <ele>192</ele>
        <time>2018-03-30T18:24:32Z</time>
      </trkpt>
      <trkpt lat="48.91773" lon="3.55106">
        <ele>192</ele>
        <time>2018-03-30T18:25:32Z</time>
      </trkpt>
      <trkpt lat="48.9179" lon="3.55105">
        <ele>191</ele>
        <time>2018-03-30T18:26:32Z</time>
      </trkpt>
      <trkpt lat="48.91805" lon="3.55104">
        <ele>191</ele>
        <time>2018-03-30T18:27:32Z</time>
      </trkpt>
      <trkpt lat="48.91836" lon="3.55103">
        <ele>190</ele>
        <time>2018-03-30T18:28:32Z</time>
      </trkpt>
      <trkpt lat="48.91844" lon="3.55102">
        <ele>189</ele>
        <time>2018-03-30T18:29:32Z</time>
      </trkpt>
      <trkpt lat="48.91863" lon="3.55101">
        <ele>188</ele>
        <time>2018-03-30T18:30:32Z</time>
      </trkpt>
      <trkpt lat="48.91871" lon="3.551">
        <ele>188</ele>
        <time>2018-03-30T18:31:32Z</time>
      </trkpt>
      <trkpt lat="48.91881" lon="3.55098">
        <ele>188</ele>
        <time>2018-03-30T18:32:32Z</time>
      </trkpt>
      <trkpt lat="48.9189" lon="3.55095">
        <ele>187</ele>
        <time>2018-03-30T18:33:32Z</time>
      </trkpt>
      <trkpt lat="48.919" lon="3.55091">
        <ele>187</ele>
        <time>2018-03-30T18:34:32Z</time>
      </trkpt>
      <trkpt lat="48.9191" lon="3.55085">
        <ele>186</ele>
        <time>2018-03-30T18:35:32Z</time>
      </trkpt>
      <trkpt lat="48.91918" lon="3.55079">
        <ele>186</ele>
        <time>2018-03-30T18:36:32Z</time>
      </trkpt>
      <trkpt lat="48.91925" lon="3.55073">
        <ele>186</ele>
        <time>2018-03-30T18:37:32Z</time>
      </trkpt>
      <trkpt lat="48.9193" lon="3.55069">
        <ele>185</ele>
        <time>2018-03-30T18:38:32Z</time>
      </trkpt>
      <trkpt lat="48.91937" lon="3.5506">
        <ele>185</ele>
        <time>2018-03-30T18:39:32Z</time>
      </trkpt>
      <trkpt lat="48.9195" lon="3.55046">
        <ele>184</ele>
        <time>2018-03-30T18:40:32Z</time>
      </trkpt>
      <trkpt lat="48.91954" lon="3.55041">
        <ele>184</ele>
        <time>2018-03-30T18:41:32Z</time>
      </trkpt>
      <trkpt lat="48.91965" lon="3.55027">
        <ele>183</ele>
        <time>2018-03-30T18:42:32Z</time>
      </trkpt>
      <trkpt lat="48.9198" lon="3.55009">
        <ele>182</ele>
        <time>2018-03-30T18:43:32Z</time>
      </trkpt>
      <trkpt lat="48.91987" lon="3.55001">
        <ele>182</ele>
        <time>2018-03-30T18:44:32Z</time>
      </trkpt>
      <trkpt lat="48.92002" lon="3.54986">
        <ele>181</ele>
        <time>2018-03-30T18:45:32Z</time>
      </trkpt>
      <trkpt lat="48.92012" lon="3.54977">
        <ele>180</ele>
        <time>2018-03-30T18:46:32Z</time>
      </trkpt>
      <trkpt lat="48.92017" lon="3.54973">
        <ele>180</ele>
        <time>2018-03-30T18:47:32Z</time>
      </trkpt>
      <trkpt lat="48.92024" lon="3.54967">
        <ele>179</ele>
        <time>2018-03-30T18:48:32Z</time>
      </trkpt>
      <trkpt lat="48.92037" lon="3.54958">
        <ele>179</ele>
        <time>2018-03-30T18:49:32Z</time>
      </trkpt>
      <trkpt lat="48.92046" lon="3.54953">
        <ele>178</ele>
        <time>2018-03-30T18:50:32Z</time>
      </trkpt>
      <trkpt lat="48.92048" lon="3.54951">
        <ele>178</ele>
        <time>2018-03-30T18:51:32Z</time>
      </trkpt>
      <trkpt lat="48.92055" lon="3.54947">
        <ele>178</ele>
        <time>2018-03-30T18:52:32Z</time>
      </trkpt>
      <trkpt lat="48.92065" lon="3.54942">
        <ele>178</ele>
        <time>2018-03-30T18:53:32Z</time>
      </trkpt>
      <trkpt lat="48.92077" lon="3.54935">
        <ele>177</ele>
        <time>2018-03-30T18:54:32Z</time>
      </trkpt>
      <trkpt lat="48.92082" lon="3.54932">
        <ele>177</ele>
        <time>2018-03-30T18:55:32Z</time>
      </trkpt>
      <trkpt lat="48.92097" lon="3.54924">
        <ele>177</ele>
        <time>2018-03-30T18:56:32Z</time>
      </trkpt>
      <trkpt lat="48.92111" lon="3.54917">
        <ele>177</ele>
        <time>2018-03-30T18:57:32Z</time>
      </trkpt>
      <trkpt lat="48.92132" lon="3.54909">
        <ele>176</ele>
        <time>2018-03-30T18:58:32Z</time>
      </trkpt>
      <trkpt lat="48.92143" lon="3.54906">
        <ele>176</ele>
        <time>2018-03-30T18:59:32Z</time>
      </trkpt>
      <trkpt lat="48.9215" lon="3.54905">
        <ele>176</ele>
        <time>2018-03-30T19:00:32Z</time>
      </trkpt>
      <trkpt lat="48.92154" lon="3.54905">
        <ele>175</ele>
        <time>2018-03-30T19:01:32Z</time>
      </trkpt>
      <trkpt lat="48.92164" lon="3.54905">
        <ele>175</ele>
        <time>2018-03-30T19:02:32Z</time>
      </trkpt>
      <trkpt lat="48.92168" lon="3.54905">
        <ele>175</ele>
        <time>2018-03-30T19:03:32Z</time>
      </trkpt>
      <trkpt lat="48.92176" lon="3.54906">
        <ele>175</ele>
        <time>2018-03-30T19:04:32Z</time>
      </trkpt>
      <trkpt lat="48.92193" lon="3.54909">
        <ele>175</ele>
        <time>2018-03-30T19:05:32Z</time>
      </trkpt>
      <trkpt lat="48.92196" lon="3.5491">
        <ele>175</ele>
        <time>2018-03-30T19:06:32Z</time>
      </trkpt>
      <trkpt lat="48.92201" lon="3.54911">
        <ele>175</ele>
        <time>2018-03-30T19:07:32Z</time>
      </trkpt>
      <trkpt lat="48.92211" lon="3.54913">
        <ele>175</ele>
        <time>2018-03-30T19:08:32Z</time>
      </trkpt>
      <trkpt lat="48.92222" lon="3.54915">
        <ele>175</ele>
        <time>2018-03-30T19:09:32Z</time>
      </trkpt>
      <trkpt lat="48.92239" lon="3.54919">
        <ele>176</ele>
        <time>2018-03-30T19:10:32Z</time>
      </trkpt>
      <trkpt lat="48.92257" lon="3.54922">
        <ele>176</ele>
        <time>2018-03-30T19:11:32Z</time>
      </trkpt>
      <trkpt lat="48.92281" lon="3.54927">
        <ele>176</ele>
        <time>2018-03-30T19:12:32Z</time>
      </trkpt>
      <trkpt lat="48.92296" lon="3.5493">
        <ele>177</ele>
        <time>2018-03-30T19:13:32Z</time>
      </trkpt>
      <trkpt lat="48.92315" lon="3.54933">
        <ele>177</ele>
        <time>2018-03-30T19:14:32Z</time>
      </trkpt>
      <trkpt lat="48.92328" lon="3.54935">
        <ele>177</ele>
        <time>2018-03-30T19:15:32Z</time>
      </trkpt>
      <trkpt lat="48.92348" lon="3.54938">
        <ele>178</ele>
        <time>2018-03-30T19:16:32Z</time>
      </trkpt>
      <trkpt lat="48.92367" lon="3.54942">
        <ele>179</ele>
        <time>2018-03-30T19:17:32Z</time>
      </trkpt>
      <trkpt lat="48.92368" lon="3.54942">
        <ele>179</ele>
        <time>2018-03-30T19:18:32Z</time>
      </trkpt>
      <trkpt lat="48.92371" lon="3.54942">
        <ele>179</ele>
        <time>2018-03-30T19:19:32Z</time>
      </trkpt>
      <trkpt lat="48.92373" lon="3.54942">
        <ele>179</ele>
        <time>2018-03-30T19:20:32Z</time>
      </trkpt>
      <trkpt lat="48.92375" lon="3.54942">
        <ele>179</ele>
        <time>2018-03-30T19:21:32Z</time>
      </trkpt>
      <trkpt lat="48.92376" lon="3.54942">
        <ele>179</ele>
        <time>2018-03-30T19:22:32Z</time>
      </trkpt>
      <trkpt lat="48.92378" lon="3.54941">
        <ele>179</ele>
        <time>2018-03-30T19:23:32Z</time>
      </trkpt>
      <trkpt lat="48.92379" lon="3.54939">
        <ele>179</ele>
        <time>2018-03-30T19:24:32Z</time>
      </trkpt>
      <trkpt lat="48.9238" lon="3.54938">
        <ele>179</ele>
        <time>2018-03-30T19:25:32Z</time>
      </trkpt>
      <trkpt lat="48.92381" lon="3.54936">
        <ele>179</ele>
        <time>2018-03-30T19:26:32Z</time>
      </trkpt>
      <trkpt lat="48.92381" lon="3.54936">
        <ele>179</ele>
        <time>2018-03-30T19:27:32Z</time>
      </trkpt>
      <trkpt lat="48.92385" lon="3.54939">
        <ele>179</ele>
        <time>2018-03-30T19:28:32Z</time>
      </trkpt>
      <trkpt lat="48.92389" lon="3.54941">
        <ele>180</ele>
        <time>2018-03-30T19:29:32Z</time>
      </trkpt>
      <trkpt lat="48.92395" lon="3.54944">
        <ele>180</ele>
        <time>2018-03-30T19:30:32Z</time>
      </trkpt>
      <trkpt lat="48.92397" lon="3.54946">
        <ele>180</ele>
        <time>2018-03-30T19:31:32Z</time>
      </trkpt>
      <trkpt lat="48.92405" lon="3.54951">
        <ele>180</ele>
        <time>2018-03-30T19:32:32Z</time>
      </trkpt>
      <trkpt lat="48.92422" lon="3.54961">
        <ele>180</ele>
        <time>2018-03-30T19:33:32Z</time>
      </trkpt>
      <trkpt lat="48.92431" lon="3.54968">
        <ele>180</ele>
        <time>2018-03-30T19:34:32Z</time>
      </trkpt>
      <trkpt lat="48.92447" lon="3.54979">
        <ele>180</ele>
        <time>2018-03-30T19:35:32Z</time>
      </trkpt>
      <trkpt lat="48.92454" lon="3.54984">
        <ele>180</ele>
        <time>2018-03-30T19:36:32Z</time>
      </trkpt>
      <trkpt lat="48.92478" lon="3.55001">
        <ele>180</ele>
        <time>2018-03-30T19:37:32Z</time>
      </trkpt>
      <trkpt lat="48.9252" lon="3.5503">
        <ele>178</ele>
        <time>2018-03-30T19:38:32Z</time>
      </trkpt>
      <trkpt lat="48.9253" lon="3.55038">
        <ele>177</ele>
        <time>2018-03-30T19:39:32Z</time>
      </trkpt>
      <trkpt lat="48.92543" lon="3.55049">
        <ele>176</ele>
        <time>2018-03-30T19:40:32Z</time>
      </trkpt>
      <trkpt lat="48.92551" lon="3.55056">
        <ele>175</ele>
        <time>2018-03-30T19:41:32Z</time>
      </trkpt>
      <trkpt lat="48.92572" lon="3.55076">
        <ele>173</ele>
        <time>2018-03-30T19:42:32Z</time>
      </trkpt>
      <trkpt lat="48.92584" lon="3.55088">
        <ele>172</ele>
        <time>2018-03-30T19:43:32Z</time>
      </trkpt>
      <trkpt lat="48.92602" lon="3.55109">
        <ele>170</ele>
        <time>2018-03-30T19:44:32Z</time>
      </trkpt>
      <trkpt lat="48.92604" lon="3.5511">
        <ele>170</ele>
        <time>2018-03-30T19:45:32Z</time>
      </trkpt>
      <trkpt lat="48.92622" lon="3.55133">
        <ele>168</ele>
        <time>2018-03-30T19:46:32Z</time>
      </trkpt>
      <trkpt lat="48.92648" lon="3.55168">
        <ele>166</ele>
        <time>2018-03-30T19:47:32Z</time>
      </trkpt>
      <trkpt lat="48.92668" lon="3.55196">
        <ele>164</ele>
        <time>2018-03-30T19:48:32Z</time>
      </trkpt>
      <trkpt lat="48.9268" lon="3.55212">
        <ele>164</ele>
        <time>2018-03-30T19:49:32Z</time>
      </trkpt>
      <trkpt lat="48.92698" lon="3.55238">
        <ele>164</ele>
        <time>2018-03-30T19:50:32Z</time>
      </trkpt>
      <trkpt lat="48.92702" lon="3.55244">
        <ele>165</ele>
        <time>2018-03-30T19:51:32Z</time>
      </trkpt>
      <trkpt lat="48.9271" lon="3.55254">
        <ele>165</ele>
        <time>2018-03-30T19:52:32Z</time>
      </trkpt>
      <trkpt lat="48.92731" lon="3.55284">
        <ele>165</ele>
        <time>2018-03-30T19:53:32Z</time>
      </trkpt>
      <trkpt lat="48.92738" lon="3.55293">
        <ele>165</ele>
        <time>2018-03-30T19:54:32Z</time>
      </trkpt>
      <trkpt lat="48.92745" lon="3.55303">
        <ele>165</ele>
        <time>2018-03-30T19:55:32Z</time>
      </trkpt>
      <trkpt lat="48.92752" lon="3.5531">
        <ele>165</ele>
        <time>2018-03-30T19:56:32Z</time>
      </trkpt>
      <trkpt lat="48.92757" lon="3.55314">
        <ele>166</ele>
        <time>2018-03-30T19:57:32Z</time>
      </trkpt>
      <trkpt lat="48.92769" lon="3.55325">
        <ele>166</ele>
        <time>2018-03-30T19:58:32Z</time>
      </trkpt>
      <trkpt lat="48.92773" lon="3.55328">
        <ele>166</ele>
        <time>2018-03-30T19:59:32Z</time>
      </trkpt>
      <trkpt lat="48.9278" lon="3.55332">
        <ele>166</ele>
        <time>2018-03-30T20:00:32Z</time>
      </trkpt>
      <trkpt lat="48.92786" lon="3.55334">
        <ele>166</ele>
        <time>2018-03-30T20:01:32Z</time>
      </trkpt>
      <trkpt lat="48.92792" lon="3.55336">
        <ele>166</ele>
        <time>2018-03-30T20:02:32Z</time>
      </trkpt>
      <trkpt lat="48.92801" lon="3.55338">
        <ele>167</ele>
        <time>2018-03-30T20:03:32Z</time>
      </trkpt>
      <trkpt lat="48.92812" lon="3.55339">
        <ele>167</ele>
        <time>2018-03-30T20:04:32Z</time>
      </trkpt>
      <trkpt lat="48.92822" lon="3.5534">
        <ele>167</ele>
        <time>2018-03-30T20:05:32Z</time>
      </trkpt>
      <trkpt lat="48.92825" lon="3.5534">
        <ele>167</ele>
        <time>2018-03-30T20:06:32Z</time>
      </trkpt>
      <trkpt lat="48.92844" lon="3.5534">
        <ele>167</ele>
        <time>2018-03-30T20:07:32Z</time>
      </trkpt>
      <trkpt lat="48.92859" lon="3.55338">
        <ele>168</ele>
        <time>2018-03-30T20:08:32Z</time>
      </trkpt>
      <trkpt lat="48.92875" lon="3.55338">
        <ele>168</ele>
        <time>2018-03-30T20:09:32Z</time>
      </trkpt>
      <trkpt lat="48.92894" lon="3.55337">
        <ele>168</ele>
        <time>2018-03-30T20:10:32Z</time>
      </trkpt>
      <trkpt lat="48.92898" lon="3.55337">
        <ele>169</ele>
        <time>2018-03-30T20:11:32Z</time>
      </trkpt>
      <trkpt lat="48.92913" lon="3.55337">
        <ele>169</ele>
        <time>2018-03-30T20:12:32Z</time>
      </trkpt>
      <trkpt lat="48.92923" lon="3.55338">
        <ele>169</ele>
        <time>2018-03-30T20:13:32Z</time>
      </trkpt>
      <trkpt lat="48.92931" lon="3.55339">
        <ele>168</ele>
        <time>2018-03-30T20:14:32Z</time>
      </trkpt>
      <trkpt lat="48.92945" lon="3.55342">
        <ele>168</ele>
        <time>2018-03-30T20:15:32Z</time>
      </trkpt>
      <trkpt lat="48.92975" lon="3.55346">
        <ele>166</ele>
        <time>2018-03-30T20:16:32Z</time>
      </trkpt>
      <trkpt lat="48.9301" lon="3.55351">
        <ele>165</ele>
        <time>2018-03-30T20:17:32Z</time>
      </trkpt>
      <trkpt lat="48.9305" lon="3.55357">
        <ele>163</ele>
        <time>2018-03-30T20:18:32Z</time>
      </trkpt>
      <trkpt lat="48.93083" lon="3.55361">
        <ele>162</ele>
        <time>2018-03-30T20:19:32Z</time>
      </trkpt>
      <trkpt lat="48.93136" lon="3.55369">
        <ele>161</ele>
        <time>2018-03-30T20:20:32Z</time>
      </trkpt>
      <trkpt lat="48.93144" lon="3.5537">
        <ele>161</ele>
        <time>2018-03-30T20:21:32Z</time>
      </trkpt>
      <trkpt lat="48.93151" lon="3.55371">
        <ele>161</ele>
        <time>2018-03-30T20:22:32Z</time>
      </trkpt>
      <trkpt lat="48.93156" lon="3.55372">
        <ele>161</ele>
        <time>2018-03-30T20:23:32Z</time>
      </trkpt>
      <trkpt lat="48.93165" lon="3.55374">
        <ele>161</ele>
        <time>2018-03-30T20:24:32Z</time>
      </trkpt>
      <trkpt lat="48.9317" lon="3.55376">
        <ele>161</ele>
        <time>2018-03-30T20:25:32Z</time>
      </trkpt>
      <trkpt lat="48.93175" lon="3.55376">
        <ele>161</ele>
        <time>2018-03-30T20:26:32Z</time>
      </trkpt>
      <trkpt lat="48.93181" lon="3.55378">
        <ele>161</ele>
        <time>2018-03-30T20:27:32Z</time>
      </trkpt>
      <trkpt lat="48.93192" lon="3.5538">
        <ele>161</ele>
        <time>2018-03-30T20:28:32Z</time>
      </trkpt>
      <trkpt lat="48.93203" lon="3.55381">
        <ele>161</ele>
        <time>2018-03-30T20:29:32Z</time>
      </trkpt>
      <trkpt lat="48.93214" lon="3.55382">
        <ele>162</ele>
        <time>2018-03-30T20:30:32Z</time>
      </trkpt>
      <trkpt lat="48.93228" lon="3.55385">
        <ele>162</ele>
        <time>2018-03-30T20:31:32Z</time>
      </trkpt>
      <trkpt lat="48.93242" lon="3.55386">
        <ele>162</ele>
        <time>2018-03-30T20:32:32Z</time>
      </trkpt>
      <trkpt lat="48.93252" lon="3.55387">
        <ele>162</ele>
        <time>2018-03-30T20:33:32Z</time>
      </trkpt>
      <trkpt lat="48.93261" lon="3.55389">
        <ele>163</ele>
        <time>2018-03-30T20:34:32Z</time>
      </trkpt>
      <trkpt lat="48.93268" lon="3.5539">
        <ele>163</ele>
        <time>2018-03-30T20:35:32Z</time>
      </trkpt>
      <trkpt lat="48.93292" lon="3.55394">
        <ele>164</ele>
        <time>2018-03-30T20:36:32Z</time>
      </trkpt>
      <trkpt lat="48.93301" lon="3.55395">
        <ele>165</ele>
        <time>2018-03-30T20:37:32Z</time>
      </trkpt>
      <trkpt lat="48.93306" lon="3.55396">
        <ele>165</ele>
        <time>2018-03-30T20:38:32Z</time>
      </trkpt>
      <trkpt lat="48.93315" lon="3.55398">
        <ele>165</ele>
        <time>2018-03-30T20:39:32Z</time>
      </trkpt>
      <trkpt lat="48.93322" lon="3.554">
        <ele>165</ele>
        <time>2018-03-30T20:40:32Z</time>
      </trkpt>
      <trkpt lat="48.93327" lon="3.55402">
        <ele>165</ele>
        <time>2018-03-30T20:41:32Z</time>
      </trkpt>
      <trkpt lat="48.93338" lon="3.55406">
        <ele>166</ele>
        <time>2018-03-30T20:42:32Z</time>
      </trkpt>
      <trkpt lat="48.93342" lon="3.55408">
        <ele>166</ele>
        <time>2018-03-30T20:43:32Z</time>
      </trkpt>
      <trkpt lat="48.93344" lon="3.55409">
        <ele>166</ele>
        <time>2018-03-30T20:44:32Z</time>
      </trkpt>
      <trkpt lat="48.93352" lon="3.55413">
        <ele>166</ele>
        <time>2018-03-30T20:45:32Z</time>
      </trkpt>
      <trkpt lat="48.93358" lon="3.55418">
        <ele>166</ele>
        <time>2018-03-30T20:46:32Z</time>
      </trkpt>
      <trkpt lat="48.93365" lon="3.55423">
        <ele>166</ele>
        <time>2018-03-30T20:47:32Z</time>
      </trkpt>
      <trkpt lat="48.93372" lon="3.55429">
        <ele>166</ele>
        <time>2018-03-30T20:48:32Z</time>
      </trkpt>
      <trkpt lat="48.93385" lon="3.55442">
        <ele>166</ele>
        <time>2018-03-30T20:49:32Z</time>
      </trkpt>
      <trkpt lat="48.93399" lon="3.55455">
        <ele>166</ele>
        <time>2018-03-30T20:50:32Z</time>
      </trkpt>
      <trkpt lat="48.93411" lon="3.55466">
        <ele>166</ele>
        <time>2018-03-30T20:51:32Z</time>
      </trkpt>
      <trkpt lat="48.93412" lon="3.55468">
        <ele>166</ele>
        <time>2018-03-30T20:52:32Z</time>
      </trkpt>
      <trkpt lat="48.93418" lon="3.55473">
        <ele>166</ele>
        <time>2018-03-30T20:53:32Z</time>
      </trkpt>
      <trkpt lat="48.93432" lon="3.55482">
        <ele>166</ele>
        <time>2018-03-30T20:54:32Z</time>
      </trkpt>
      <trkpt lat="48.9344" lon="3.55487">
        <ele>167</ele>
        <time>2018-03-30T20:55:32Z</time>
      </trkpt>
      <trkpt lat="48.93451" lon="3.55492">
        <ele>167</ele>
        <time>2018-03-30T20:56:32Z</time>
      </trkpt>
      <trkpt lat="48.93484" lon="3.55505">
        <ele>167</ele>
        <time>2018-03-30T20:57:32Z</time>
      </trkpt>
      <trkpt lat="48.93501" lon="3.55513">
        <ele>168</ele>
        <time>2018-03-30T20:58:32Z</time>
      </trkpt>
      <trkpt lat="48.93516" lon="3.55519">
        <ele>169</ele>
        <time>2018-03-30T20:59:32Z</time>
      </trkpt>
      <trkpt lat="48.93534" lon="3.55526">
        <ele>169</ele>
        <time>2018-03-30T21:00:32Z</time>
      </trkpt>
      <trkpt lat="48.93551" lon="3.55533">
        <ele>169</ele>
        <time>2018-03-30T21:01:32Z</time>
      </trkpt>
      <trkpt lat="48.93568" lon="3.55541">
        <ele>169</ele>
        <time>2018-03-30T21:02:32Z</time>
      </trkpt>
      <trkpt lat="48.93595" lon="3.55552">
        <ele>169</ele>
        <time>2018-03-30T21:03:32Z</time>
      </trkpt>
      <trkpt lat="48.93608" lon="3.55557">
        <ele>169</ele>
        <time>2018-03-30T21:04:32Z</time>
      </trkpt>
      <trkpt lat="48.93622" lon="3.55563">
        <ele>169</ele>
        <time>2018-03-30T21:05:32Z</time>
      </trkpt>
      <trkpt lat="48.9364" lon="3.5557">
        <ele>169</ele>
        <time>2018-03-30T21:06:32Z</time>
      </trkpt>
      <trkpt lat="48.93649" lon="3.55575">
        <ele>170</ele>
        <time>2018-03-30T21:07:32Z</time>
      </trkpt>
      <trkpt lat="48.93667" lon="3.55582">
        <ele>170</ele>
        <time>2018-03-30T21:08:32Z</time>
      </trkpt>
      <trkpt lat="48.93677" lon="3.55587">
        <ele>170</ele>
        <time>2018-03-30T21:09:32Z</time>
      </trkpt>
      <trkpt lat="48.937" lon="3.55596">
        <ele>171</ele>
        <time>2018-03-30T21:10:32Z</time>
      </trkpt>
      <trkpt lat="48.93719" lon="3.55605">
        <ele>171</ele>
        <time>2018-03-30T21:11:32Z</time>
      </trkpt>
      <trkpt lat="48.93734" lon="3.55611">
        <ele>171</ele>
        <time>2018-03-30T21:12:32Z</time>
      </trkpt>
      <trkpt lat="48.93779" lon="3.5563">
        <ele>170</ele>
        <time>2018-03-30T21:13:32Z</time>
      </trkpt>
      <trkpt lat="48.93823" lon="3.55649">
        <ele>169</ele>
        <time>2018-03-30T21:14:32Z</time>
      </trkpt>
      <trkpt lat="48.93828" lon="3.55651">
        <ele>169</ele>
        <time>2018-03-30T21:15:32Z</time>
      </trkpt>
      <trkpt lat="48.93847" lon="3.55658">
        <ele>169</ele>
        <time>2018-03-30T21:16:32Z</time>
      </trkpt>
      <trkpt lat="48.93872" lon="3.55669">
        <ele>169</ele>
        <time>2018-03-30T21:17:32Z</time>
      </trkpt>
      <trkpt lat="48.93889" lon="3.55676">
        <ele>168</ele>
        <time>2018-03-30T21:18:32Z</time>
      </trkpt>
      <trkpt lat="48.93907" lon="3.55683">
        <ele>168</ele>
        <time>2018-03-30T21:19:32Z</time>
      </trkpt>
      <trkpt lat="48.93924" lon="3.5569">
        <ele>168</ele>
        <time>2018-03-30T21:20:32Z</time>
      </trkpt>
      <trkpt lat="48.93927" lon="3.55691">
        <ele>168</ele>
        <time>2018-03-30T21:21:32Z</time>
      </trkpt>
      <trkpt lat="48.93959" lon="3.55704">
        <ele>168</ele>
        <time>2018-03-30T21:22:32Z</time>
      </trkpt>
      <trkpt lat="48.93979" lon="3.55713">
        <ele>168</ele>
        <time>2018-03-30T21:23:32Z</time>
      </trkpt>
      <trkpt lat="48.93992" lon="3.55719">
        <ele>168</ele>
        <time>2018-03-30T21:24:32Z</time>
      </trkpt>
      <trkpt lat="48.94015" lon="3.55728">
        <ele>168</ele>
        <time>2018-03-30T21:25:32Z</time>
      </trkpt>
      <trkpt lat="48.94026" lon="3.55733">
        <ele>167</ele>
        <time>2018-03-30T21:26:32Z</time>
      </trkpt>
      <trkpt lat="48.94065" lon="3.55749">
        <ele>165</ele>
        <time>2018-03-30T21:27:32Z</time>
      </trkpt>
      <trkpt lat="48.9412" lon="3.55772">
        <ele>163</ele>
        <time>2018-03-30T21:28:32Z</time>
      </trkpt>
      <trkpt lat="48.94127" lon="3.55774">
        <ele>163</ele>
        <time>2018-03-30T21:29:32Z</time>
      </trkpt>
      <trkpt lat="48.94148" lon="3.55784">
        <ele>163</ele>
        <time>2018-03-30T21:30:32Z</time>
      </trkpt>
      <trkpt lat="48.94169" lon="3.55793">
        <ele>162</ele>
        <time>2018-03-30T21:31:32Z</time>
      </trkpt>
      <trkpt lat="48.94184" lon="3.55799">
        <ele>162</ele>
        <time>2018-03-30T21:32:32Z</time>
      </trkpt>
      <trkpt lat="48.94215" lon="3.55812">
        <ele>162</ele>
        <time>2018-03-30T21:33:32Z</time>
      </trkpt>
      <trkpt lat="48.94232" lon="3.55819">
        <ele>162</ele>
        <time>2018-03-30T21:34:32Z</time>
      </trkpt>
      <trkpt lat="48.9425" lon="3.55827">
        <ele>162</ele>
        <time>2018-03-30T21:35:32Z</time>
      </trkpt>
      <trkpt lat="48.94262" lon="3.55832">
        <ele>162</ele>
        <time>2018-03-30T21:36:32Z</time>
      </trkpt>
      <trkpt lat="48.94284" lon="3.55842">
        <ele>162</ele>
        <time>2018-03-30T21:37:32Z</time>
      </trkpt>
      <trkpt lat="48.94285" lon="3.55842">
        <ele>162</ele>
        <time>2018-03-30T21:38:32Z</time>
      </trkpt>
      <trkpt lat="48.94302" lon="3.55849">
        <ele>162</ele>
        <time>2018-03-30T21:39:32Z</time>
      </trkpt>
      <trkpt lat="48.94305" lon="3.55849">
        <ele>162</ele>
        <time>2018-03-30T21:40:32Z</time>
      </trkpt>
      <trkpt lat="48.94321" lon="3.55855">
        <ele>162</ele>
        <time>2018-03-30T21:41:32Z</time>
      </trkpt>
      <trkpt lat="48.94332" lon="3.55857">
        <ele>162</ele>
        <time>2018-03-30T21:42:32Z</time>
      </trkpt>
      <trkpt lat="48.94345" lon="3.5586">
        <ele>162</ele>
        <time>2018-03-30T21:43:32Z</time>
      </trkpt>
      <trkpt lat="48.94367" lon="3.55864">
        <ele>162</ele>
        <time>2018-03-30T21:44:32Z</time>
      </trkpt>
      <trkpt lat="48.9438" lon="3.55866">
        <ele>162</ele>
        <time>2018-03-30T21:45:32Z</time>
      </trkpt>
      <trkpt lat="48.94391" lon="3.55867">
        <ele>162</ele>
        <time>2018-03-30T21:46:32Z</time>
      </trkpt>
      <trkpt lat="48.9442" lon="3.5587">
        <ele>162</ele>
        <time>2018-03-30T21:47:32Z</time>
      </trkpt>
      <trkpt lat="48.94463" lon="3.55875">
        <ele>162</ele>
        <time>2018-03-30T21:48:32Z</time>
      </trkpt>
      <trkpt lat="48.94494" lon="3.55878">
        <ele>161</ele>
        <time>2018-03-30T21:49:32Z</time>
      </trkpt>
      <trkpt lat="48.94498" lon="3.55878">
        <ele>161</ele>
        <time>2018-03-30T21:50:32Z</time>
      </trkpt>
      <trkpt lat="48.94516" lon="3.5588">
        <ele>160</ele>
        <time>2018-03-30T21:51:32Z</time>
      </trkpt>
      <trkpt lat="48.94526" lon="3.55881">
        <ele>160</ele>
        <time>2018-03-30T21:52:32Z</time>
      </trkpt>
      <trkpt lat="48.94538" lon="3.55881">
        <ele>159</ele>
        <time>2018-03-30T21:53:32Z</time>
      </trkpt>
      <trkpt lat="48.94554" lon="3.55882">
        <ele>158</ele>
        <time>2018-03-30T21:54:32Z</time>
      </trkpt>
      <trkpt lat="48.94557" lon="3.55882">
        <ele>158</ele>
        <time>2018-03-30T21:55:32Z</time>
      </trkpt>
      <trkpt lat="48.94574" lon="3.55881">
        <ele>157</ele>
        <time>2018-03-30T21:56:32Z</time>
      </trkpt>
      <trkpt lat="48.94577" lon="3.55881">
        <ele>157</ele>
        <time>2018-03-30T21:57:32Z</time>
      </trkpt>
      <trkpt lat="48.94594" lon="3.55878">
        <ele>156</ele>
        <time>2018-03-30T21:58:32Z</time>
      </trkpt>
      <trkpt lat="48.94608" lon="3.55876">
        <ele>155</ele>
        <time>2018-03-30T21:59:32Z</time>
      </trkpt>
      <trkpt lat="48.94628" lon="3.5587">
        <ele>153</ele>
        <time>2018-03-30T22:00:32Z</time>
      </trkpt>
      <trkpt lat="48.94639" lon="3.55866">
        <ele>153</ele>
        <time>2018-03-30T22:01:32Z</time>
      </trkpt>
      <trkpt lat="48.94647" lon="3.55863">
        <ele>152</ele>
        <time>2018-03-30T22:02:32Z</time>
      </trkpt>
      <trkpt lat="48.94659" lon="3.55858">
        <ele>152</ele>
        <time>2018-03-30T22:03:32Z</time>
      </trkpt>
      <trkpt lat="48.94673" lon="3.55852">
        <ele>151</ele>
        <time>2018-03-30T22:04:32Z</time>
      </trkpt>
      <trkpt lat="48.94676" lon="3.5585">
        <ele>151</ele>
        <time>2018-03-30T22:05:32Z</time>
      </trkpt>
      <trkpt lat="48.94696" lon="3.55839">
        <ele>150</ele>
        <time>2018-03-30T22:06:32Z</time>
      </trkpt>
      <trkpt lat="48.94707" lon="3.55832">
        <ele>149</ele>
        <time>2018-03-30T22:07:32Z</time>
      </trkpt>
      <trkpt lat="48.94723" lon="3.5582">
        <ele>148</ele>
        <time>2018-03-30T22:08:32Z</time>
      </trkpt>
      <trkpt lat="48.94737" lon="3.55808">
        <ele>148</ele>
        <time>2018-03-30T22:09:32Z</time>
      </trkpt>
      <trkpt lat="48.94746" lon="3.55798">
        <ele>147</ele>
        <time>2018-03-30T22:10:32Z</time>
      </trkpt>
      <trkpt lat="48.94771" lon="3.55772">
        <ele>146</ele>
        <time>2018-03-30T22:11:32Z</time>
      </trkpt>
      <trkpt lat="48.94794" lon="3.5574">
        <ele>144</ele>
        <time>2018-03-30T22:12:32Z</time>
      </trkpt>
      <trkpt lat="48.94804" lon="3.55727">
        <ele>143</ele>
        <time>2018-03-30T22:13:32Z</time>
      </trkpt>
      <trkpt lat="48.94826" lon="3.55693">
        <ele>141</ele>
        <time>2018-03-30T22:14:32Z</time>
      </trkpt>
      <trkpt lat="48.94846" lon="3.55663">
        <ele>139</ele>
        <time>2018-03-30T22:15:32Z</time>
      </trkpt>
      <trkpt lat="48.94855" lon="3.55649">
        <ele>139</ele>
        <time>2018-03-30T22:16:32Z</time>
      </trkpt>
      <trkpt lat="48.94877" lon="3.55615">
        <ele>138</ele>
        <time>2018-03-30T22:17:32Z</time>
      </trkpt>
      <trkpt lat="48.94884" lon="3.55604">
        <ele>137</ele>
        <time>2018-03-30T22:18:32Z</time>
      </trkpt>
      <trkpt lat="48.94901" lon="3.55579">
        <ele>136</ele>
        <time>2018-03-30T22:19:32Z</time>
      </trkpt>
      <trkpt lat="48.94906" lon="3.55571">
        <ele>136</ele>
        <time>2018-03-30T22:20:32Z</time>
      </trkpt>
      <trkpt lat="48.94925" lon="3.5554">
        <ele>134</ele>
        <time>2018-03-30T22:21:32Z</time>
      </trkpt>
      <trkpt lat="48.94935" lon="3.55526">
        <ele>134</ele>
        <time>2018-03-30T22:22:32Z</time>
      </trkpt>
      <trkpt lat="48.94944" lon="3.55511">
        <ele>134</ele>
        <time>2018-03-30T22:23:32Z</time>
      </trkpt>
      <trkpt lat="48.94967" lon="3.55475">
        <ele>132</ele>
        <time>2018-03-30T22:24:32Z</time>
      </trkpt>
      <trkpt lat="48.94969" lon="3.55473">
        <ele>132</ele>
        <time>2018-03-30T22:25:32Z</time>
      </trkpt>
      <trkpt lat="48.94995" lon="3.55434">
        <ele>129</ele>
        <time>2018-03-30T22:26:32Z</time>
      </trkpt>
      <trkpt lat="48.95021" lon="3.55392">
        <ele>129</ele>
        <time>2018-03-30T22:27:32Z</time>
      </trkpt>
      <trkpt lat="48.95031" lon="3.55377">
        <ele>128</ele>
        <time>2018-03-30T22:28:32Z</time>
      </trkpt>
      <trkpt lat="48.95035" lon="3.55371">
        <ele>128</ele>
        <time>2018-03-30T22:29:32Z</time>
      </trkpt>
      <trkpt lat="48.95036" lon="3.55368">
        <ele>128</ele>
        <time>2018-03-30T22:30:32Z</time>
      </trkpt>
      <trkpt lat="48.95043" lon="3.55357">
        <ele>128</ele>
        <time>2018-03-30T22:31:32Z</time>
      </trkpt>
      <trkpt lat="48.95048" lon="3.5535">
        <ele>127</ele>
        <time>2018-03-30T22:32:32Z</time>
      </trkpt>
      <trkpt lat="48.95074" lon="3.5531">
        <ele>125</ele>
        <time>2018-03-30T22:33:32Z</time>
      </trkpt>
      <trkpt lat="48.95099" lon="3.55271">
        <ele>124</ele>
        <time>2018-03-30T22:34:32Z</time>
      </trkpt>
      <trkpt lat="48.95106" lon="3.5526">
        <ele>124</ele>
        <time>2018-03-30T22:35:32Z</time>
      </trkpt>
      <trkpt lat="48.95119" lon="3.55239">
        <ele>124</ele>
        <time>2018-03-30T22:36:32Z</time>
      </trkpt>
      <trkpt lat="48.95123" lon="3.55233">
        <ele>124</ele>
        <time>2018-03-30T22:37:32Z</time>
      </trkpt>
      <trkpt lat="48.95151" lon="3.55191">
        <ele>123</ele>
        <time>2018-03-30T22:38:32Z</time>
      </trkpt>
      <trkpt lat="48.95161" lon="3.55177">
        <ele>123</ele>
        <time>2018-03-30T22:39:32Z</time>
      </trkpt>
      <trkpt lat="48.95164" lon="3.55172">
        <ele>123</ele>
        <time>2018-03-30T22:40:32Z</time>
      </trkpt>
      <trkpt lat="48.95167" lon="3.55167">
        <ele>123</ele>
        <time>2018-03-30T22:41:32Z</time>
      </trkpt>
      <trkpt lat="48.95171" lon="3.55161">
        <ele>123</ele>
        <time>2018-03-30T22:42:32Z</time>
      </trkpt>
      <trkpt lat="48.95187" lon="3.55137">
        <ele>124</ele>
        <time>2018-03-30T22:43:32Z</time>
      </trkpt>
      <trkpt lat="48.9521" lon="3.551">
        <ele>124</ele>
        <time>2018-03-30T22:44:32Z</time>
      </trkpt>
      <trkpt lat="48.95221" lon="3.55083">
        <ele>124</ele>
        <time>2018-03-30T22:45:32Z</time>
      </trkpt>
      <trkpt lat="48.95227" lon="3.55073">
        <ele>124</ele>
        <time>2018-03-30T22:46:32Z</time>
      </trkpt>
      <trkpt lat="48.95233" lon="3.55064">
        <ele>125</ele>
        <time>2018-03-30T22:47:32Z</time>
      </trkpt>
      <trkpt lat="48.95238" lon="3.55055">
        <ele>125</ele>
        <time>2018-03-30T22:48:32Z</time>
      </trkpt>
      <trkpt lat="48.95245" lon="3.55046">
        <ele>125</ele>
        <time>2018-03-30T22:49:32Z</time>
      </trkpt>
      <trkpt lat="48.95253" lon="3.55034">
        <ele>125</ele>
        <time>2018-03-30T22:50:32Z</time>
      </trkpt>
      <trkpt lat="48.95261" lon="3.55022">
        <ele>125</ele>
        <time>2018-03-30T22:51:32Z</time>
      </trkpt>
      <trkpt lat="48.95267" lon="3.55014">
        <ele>125</ele>
        <time>2018-03-30T22:52:32Z</time>
      </trkpt>
      <trkpt lat="48.95274" lon="3.55006">
        <ele>125</ele>
        <time>2018-03-30T22:53:32Z</time>
      </trkpt>
      <trkpt lat="48.9528" lon="3.55">
        <ele>125</ele>
        <time>2018-03-30T22:54:32Z</time>
      </trkpt>
      <trkpt lat="48.95286" lon="3.54992">
        <ele>125</ele>
        <time>2018-03-30T22:55:32Z</time>
      </trkpt>
      <trkpt lat="48.95295" lon="3.54985">
        <ele>125</ele>
        <time>2018-03-30T22:56:32Z</time>
      </trkpt>
      <trkpt lat="48.95306" lon="3.54976">
        <ele>124</ele>
        <time>2018-03-30T22:57:32Z</time>
      </trkpt>
      <trkpt lat="48.95313" lon="3.54971">
        <ele>124</ele>
        <time>2018-03-30T22:58:32Z</time>
      </trkpt>
      <trkpt lat="48.95319" lon="3.54967">
        <ele>124</ele>
        <time>2018-03-30T22:59:32Z</time>
      </trkpt>
      <trkpt lat="48.95329" lon="3.54962">
        <ele>123</ele>
        <time>2018-03-30T23:00:32Z</time>
      </trkpt>
      <trkpt lat="48.9534" lon="3.54957">
        <ele>123</ele>
        <time>2018-03-30T23:01:32Z</time>
      </trkpt>
      <trkpt lat="48.95356" lon="3.54953">
        <ele>123</ele>
        <time>2018-03-30T23:02:32Z</time>
      </trkpt>
      <trkpt lat="48.95372" lon="3.54949">
        <ele>122</ele>
        <time>2018-03-30T23:03:32Z</time>
      </trkpt>
      <trkpt lat="48.95387" lon="3.54945">
        <ele>122</ele>
        <time>2018-03-30T23:04:32Z</time>
      </trkpt>
      <trkpt lat="48.95398" lon="3.54942">
        <ele>122</ele>
        <time>2018-03-30T23:05:32Z</time>
      </trkpt>
      <trkpt lat="48.95409" lon="3.54939">
        <ele>122</ele>
        <time>2018-03-30T23:06:32Z</time>
      </trkpt>
      <trkpt lat="48.95424" lon="3.54935">
        <ele>121</ele>
        <time>2018-03-30T23:07:32Z</time>
      </trkpt>
      <trkpt lat="48.95445" lon="3.54929">
        <ele>121</ele>
        <time>2018-03-30T23:08:32Z</time>
      </trkpt>
      <trkpt lat="48.95457" lon="3.54927">
        <ele>121</ele>
        <time>2018-03-30T23:09:32Z</time>
      </trkpt>
      <trkpt lat="48.95477" lon="3.54921">
        <ele>121</ele>
        <time>2018-03-30T23:10:32Z</time>
      </trkpt>
      <trkpt lat="48.95503" lon="3.54914">
        <ele>120</ele>
        <time>2018-03-30T23:11:32Z</time>
      </trkpt>
      <trkpt lat="48.9552" lon="3.5491">
        <ele>120</ele>
        <time>2018-03-30T23:12:32Z</time>
      </trkpt>
      <trkpt lat="48.9556" lon="3.549">
        <ele>120</ele>
        <time>2018-03-30T23:13:32Z</time>
      </trkpt>
      <trkpt lat="48.95564" lon="3.549">
        <ele>120</ele>
        <time>2018-03-30T23:14:32Z</time>
      </trkpt>
      <trkpt lat="48.95595" lon="3.54892">
        <ele>120</ele>
        <time>2018-03-30T23:15:32Z</time>
      </trkpt>
      <trkpt lat="48.95601" lon="3.5489">
        <ele>120</ele>
        <time>2018-03-30T23:16:32Z</time>
      </trkpt>
      <trkpt lat="48.95619" lon="3.54885">
        <ele>121</ele>
        <time>2018-03-30T23:17:32Z</time>
      </trkpt>
      <trkpt lat="48.95628" lon="3.54882">
        <ele>121</ele>
        <time>2018-03-30T23:18:32Z</time>
      </trkpt>
      <trkpt lat="48.95662" lon="3.54873">
        <ele>122</ele>
        <time>2018-03-30T23:19:32Z</time>
      </trkpt>
      <trkpt lat="48.95674" lon="3.54869">
        <ele>122</ele>
        <time>2018-03-30T23:20:32Z</time>
      </trkpt>
      <trkpt lat="48.95697" lon="3.54863">
        <ele>122</ele>
        <time>2018-03-30T23:21:32Z</time>
      </trkpt>
      <trkpt lat="48.95714" lon="3.54859">
        <ele>122</ele>
        <time>2018-03-30T23:22:32Z</time>
      </trkpt>
      <trkpt lat="48.95737" lon="3.54853">
        <ele>122</ele>
        <time>2018-03-30T23:23:32Z</time>
      </trkpt>
      <trkpt lat="48.9575" lon="3.5485">
        <ele>122</ele>
        <time>2018-03-30T23:24:32Z</time>
      </trkpt>
      <trkpt lat="48.95775" lon="3.54844">
        <ele>123</ele>
        <time>2018-03-30T23:25:32Z</time>
      </trkpt>
      <trkpt lat="48.95796" lon="3.54838">
        <ele>124</ele>
        <time>2018-03-30T23:26:32Z</time>
      </trkpt>
      <trkpt lat="48.95808" lon="3.54836">
        <ele>124</ele>
        <time>2018-03-30T23:27:32Z</time>
      </trkpt>
      <trkpt lat="48.95818" lon="3.54833">
        <ele>124</ele>
        <time>2018-03-30T23:28:32Z</time>
      </trkpt>
      <trkpt lat="48.95838" lon="3.54828">
        <ele>124</ele>
        <time>2018-03-30T23:29:32Z</time>
      </trkpt>
      <trkpt lat="48.95846" lon="3.54826">
        <ele>124</ele>
        <time>2018-03-30T23:30:32Z</time>
      </trkpt>
      <trkpt lat="48.95881" lon="3.54817">
        <ele>122</ele>
        <time>2018-03-30T23:31:32Z</time>
      </trkpt>
      <trkpt lat="48.95898" lon="3.54812">
        <ele>121</ele>
        <time>2018-03-30T23:32:32Z</time>
      </trkpt>
      <trkpt lat="48.95909" lon="3.54809">
        <ele>120</ele>
        <time>2018-03-30T23:33:32Z</time>
      </trkpt>
      <trkpt lat="48.95924" lon="3.54805">
        <ele>120</ele>
        <time>2018-03-30T23:34:32Z</time>
      </trkpt>
      <trkpt lat="48.95951" lon="3.54799">
        <ele>119</ele>
        <time>2018-03-30T23:35:32Z</time>
      </trkpt>
      <trkpt lat="48.95959" lon="3.54796">
        <ele>118</ele>
        <time>2018-03-30T23:36:32Z</time>
      </trkpt>
      <trkpt lat="48.95986" lon="3.54789">
        <ele>117</ele>
        <time>2018-03-30T23:37:32Z</time>
      </trkpt>
      <trkpt lat="48.95994" lon="3.54786">
        <ele>117</ele>
        <time>2018-03-30T23:38:32Z</time>
      </trkpt>
      <trkpt lat="48.96005" lon="3.54784">
        <ele>117</ele>
        <time>2018-03-30T23:39:32Z</time>
      </trkpt>
      <trkpt lat="48.9603" lon="3.54777">
        <ele>117</ele>
        <time>2018-03-30T23:40:32Z</time>
      </trkpt>
      <trkpt lat="48.96046" lon="3.54774">
        <ele>116</ele>
        <time>2018-03-30T23:41:32Z</time>
      </trkpt>
      <trkpt lat="48.96072" lon="3.54767">
        <ele>116</ele>
        <time>2018-03-30T23:42:32Z</time>
      </trkpt>
      <trkpt lat="48.96094" lon="3.54759">
        <ele>115</ele>
        <time>2018-03-30T23:43:32Z</time>
      </trkpt>
      <trkpt lat="48.96102" lon="3.54755">
        <ele>115</ele>
        <time>2018-03-30T23:44:32Z</time>
      </trkpt>
      <trkpt lat="48.96116" lon="3.54749">
        <ele>114</ele>
        <time>2018-03-30T23:45:32Z</time>
      </trkpt>
      <trkpt lat="48.96141" lon="3.54734">
        <ele>114</ele>
        <time>2018-03-30T23:46:32Z</time>
      </trkpt>
      <trkpt lat="48.96149" lon="3.54729">
        <ele>114</ele>
        <time>2018-03-30T23:47:32Z</time>
      </trkpt>
      <trkpt lat="48.96165" lon="3.54718">
        <ele>113</ele>
        <time>2018-03-30T23:48:32Z</time>
      </trkpt>
      <trkpt lat="48.96176" lon="3.54711">
        <ele>113</ele>
        <time>2018-03-30T23:49:32Z</time>
      </trkpt>
      <trkpt lat="48.96192" lon="3.54699">
        <ele>113</ele>
        <time>2018-03-30T23:50:32Z</time>
      </trkpt>
      <trkpt lat="48.96205" lon="3.54691">
        <ele>112</ele>
        <time>2018-03-30T23:51:32Z</time>
      </trkpt>
      <trkpt lat="48.96226" lon="3.54677">
        <ele>111</ele>
        <time>2018-03-30T23:52:32Z</time>
      </trkpt>
      <trkpt lat="48.96236" lon="3.5467">
        <ele>111</ele>
        <time>2018-03-30T23:53:32Z</time>
      </trkpt>
      <trkpt lat="48.96244" lon="3.54665">
        <ele>110</ele>
        <time>2018-03-30T23:54:32Z</time>
      </trkpt>
      <trkpt lat="48.96268" lon="3.54648">
        <ele>111</ele>
        <time>2018-03-30T23:55:32Z</time>
      </trkpt>
      <trkpt lat="48.9627" lon="3.54646">
        <ele>111</ele>
        <time>2018-03-30T23:56:32Z</time>
      </trkpt>
      <trkpt lat="48.96298" lon="3.54626">
        <ele>111</ele>
        <time>2018-03-30T23:57:32Z</time>
      </trkpt>
      <trkpt lat="48.96306" lon="3.5462">
        <ele>111</ele>
        <time>2018-03-30T23:58:32Z</time>
      </trkpt>
      <trkpt lat="48.96312" lon="3.54616">
        <ele>111</ele>
        <time>2018-03-30T23:59:32Z</time>
      </trkpt>
      <trkpt lat="48.96322" lon="3.54609">
        <ele>111</ele>
        <time>2018-03-31T00:00:32Z</time>
      </trkpt>
      <trkpt lat="48.9634" lon="3.54596">
        <ele>111</ele>
        <time>2018-03-31T00:01:32Z</time>
      </trkpt>
      <trkpt lat="48.96356" lon="3.54585">
        <ele>111</ele>
        <time>2018-03-31T00:02:32Z</time>
      </trkpt>
      <trkpt lat="48.96376" lon="3.5457">
        <ele>111</ele>
        <time>2018-03-31T00:03:32Z</time>
      </trkpt>
      <trkpt lat="48.96387" lon="3.54562">
        <ele>111</ele>
        <time>2018-03-31T00:04:32Z</time>
      </trkpt>
      <trkpt lat="48.96397" lon="3.54555">
        <ele>111</ele>
        <time>2018-03-31T00:05:32Z</time>
      </trkpt>
      <trkpt lat="48.96408" lon="3.54548">
        <ele>111</ele>
        <time>2018-03-31T00:06:32Z</time>
      </trkpt>
      <trkpt lat="48.96422" lon="3.54538">
        <ele>111</ele>
        <time>2018-03-31T00:07:32Z</time>
      </trkpt>
      <trkpt lat="48.9643" lon="3.54532">
        <ele>111</ele>
        <time>2018-03-31T00:08:32Z</time>
      </trkpt>
      <trkpt lat="48.96437" lon="3.54528">
        <ele>111</ele>
        <time>2018-03-31T00:09:32Z</time>
      </trkpt>
      <trkpt lat="48.96446" lon="3.54522">
        <ele>112</ele>
        <time>2018-03-31T00:10:32Z</time>
      </trkpt>
      <trkpt lat="48.96464" lon="3.54512">
        <ele>112</ele>
        <time>2018-03-31T00:11:32Z</time>
      </trkpt>
      <trkpt lat="48.96481" lon="3.54506">
        <ele>112</ele>
        <time>2018-03-31T00:12:32Z</time>
      </trkpt>
      <trkpt lat="48.96491" lon="3.54503">
        <ele>112</ele>
        <time>2018-03-31T00:13:32Z</time>
      </trkpt>
      <trkpt lat="48.96504" lon="3.545">
        <ele>112</ele>
        <time>2018-03-31T00:14:32Z</time>
      </trkpt>
      <trkpt lat="48.96518" lon="3.54499">
        <ele>111</ele>
        <time>2018-03-31T00:15:32Z</time>
      </trkpt>
      <trkpt lat="48.96526" lon="3.54499">
        <ele>111</ele>
        <time>2018-03-31T00:16:32Z</time>
      </trkpt>
      <trkpt lat="48.96533" lon="3.54498">
        <ele>111</ele>
        <time>2018-03-31T00:17:32Z</time>
      </trkpt>
      <trkpt lat="48.96554" lon="3.54498">
        <ele>110</ele>
        <time>2018-03-31T00:18:32Z</time>
      </trkpt>
      <trkpt lat="48.96563" lon="3.54498">
        <ele>110</ele>
        <time>2018-03-31T00:19:32Z</time>
      </trkpt>
      <trkpt lat="48.96583" lon="3.54498">
        <ele>109</ele>
        <time>2018-03-31T00:20:32Z</time>
      </trkpt>
      <trkpt lat="48.96609" lon="3.54497">
        <ele>109</ele>
        <time>2018-03-31T00:21:32Z</time>
      </trkpt>
      <trkpt lat="48.96627" lon="3.54496">
        <ele>109</ele>
        <time>2018-03-31T00:22:32Z</time>
      </trkpt>
      <trkpt lat="48.96641" lon="3.54495">
        <ele>109</ele>
        <time>2018-03-31T00:23:32Z</time>
      </trkpt>
      <trkpt lat="48.96649" lon="3.54493">
        <ele>109</ele>
        <time>2018-03-31T00:24:32Z</time>
      </trkpt>
      <trkpt lat="48.96657" lon="3.54491">
        <ele>109</ele>
        <time>2018-03-31T00:25:32Z</time>
      </trkpt>
      <trkpt lat="48.96666" lon="3.54488">
        <ele>109</ele>
        <time>2018-03-31T00:26:32Z</time>
      </trkpt>
      <trkpt lat="48.96673" lon="3.54484">
        <ele>109</ele>
        <time>2018-03-31T00:27:32Z</time>
      </trkpt>
      <trkpt lat="48.96681" lon="3.5448">
        <ele>109</ele>
        <time>2018-03-31T00:28:32Z</time>
      </trkpt>
      <trkpt lat="48.96687" lon="3.54477">
        <ele>109</ele>
        <time>2018-03-31T00:29:32Z</time>
      </trkpt>
      <trkpt lat="48.96694" lon="3.54471">
        <ele>109</ele>
        <time>2018-03-31T00:30:32Z</time>
      </trkpt>
      <trkpt lat="48.96705" lon="3.54462">
        <ele>110</ele>
        <time>2018-03-31T00:31:32Z</time>
      </trkpt>
      <trkpt lat="48.96718" lon="3.54451">
        <ele>110</ele>
        <time>2018-03-31T00:32:32Z</time>
      </trkpt>
      <trkpt lat="48.96743" lon="3.54426">
        <ele>110</ele>
        <time>2018-03-31T00:33:32Z</time>
      </trkpt>
      <trkpt lat="48.9675" lon="3.5442">
        <ele>110</ele>
        <time>2018-03-31T00:34:32Z</time>
      </trkpt>
      <trkpt lat="48.96778" lon="3.54391">
        <ele>111</ele>
        <time>2018-03-31T00:35:32Z</time>
      </trkpt>
      <trkpt lat="48.96779" lon="3.54389">
        <ele>112</ele>
        <time>2018-03-31T00:36:32Z</time>
      </trkpt>
      <trkpt lat="48.96803" lon="3.54366">
        <ele>113</ele>
        <time>2018-03-31T00:37:32Z</time>
      </trkpt>
      <trkpt lat="48.96812" lon="3.54358">
        <ele>113</ele>
        <time>2018-03-31T00:38:32Z</time>
      </trkpt>
      <trkpt lat="48.96821" lon="3.54352">
        <ele>114</ele>
        <time>2018-03-31T00:39:32Z</time>
      </trkpt>
      <trkpt lat="48.96829" lon="3.54347">
        <ele>114</ele>
        <time>2018-03-31T00:40:32Z</time>
      </trkpt>
      <trkpt lat="48.96838" lon="3.54344">
        <ele>114</ele>
        <time>2018-03-31T00:41:32Z</time>
      </trkpt>
      <trkpt lat="48.96847" lon="3.54342">
        <ele>113</ele>
        <time>2018-03-31T00:42:32Z</time>
      </trkpt>
      <trkpt lat="48.96855" lon="3.54342">
        <ele>113</ele>
        <time>2018-03-31T00:43:32Z</time>
      </trkpt>
      <trkpt lat="48.96863" lon="3.54343">
        <ele>112</ele>
        <time>2018-03-31T00:44:32Z</time>
      </trkpt>
      <trkpt lat="48.9687" lon="3.54344">
        <ele>112</ele>
        <time>2018-03-31T00:45:32Z</time>
      </trkpt>
      <trkpt lat="48.96875" lon="3.54345">
        <ele>112</ele>
        <time>2018-03-31T00:46:32Z</time>
      </trkpt>
      <trkpt lat="48.96881" lon="3.54347">
        <ele>111</ele>
        <time>2018-03-31T00:47:32Z</time>
      </trkpt>
      <trkpt lat="48.96887" lon="3.5435">
        <ele>111</ele>
        <time>2018-03-31T00:48:32Z</time>
      </trkpt>
      <trkpt lat="48.96895" lon="3.54353">
        <ele>110</ele>
        <time>2018-03-31T00:49:32Z</time>
      </trkpt>
      <trkpt lat="48.96904" lon="3.54359">
        <ele>109</ele>
        <time>2018-03-31T00:50:32Z</time>
      </trkpt>
      <trkpt lat="48.96925" lon="3.54369">
        <ele>108</ele>
        <time>2018-03-31T00:51:32Z</time>
      </trkpt>
      <trkpt lat="48.9694" lon="3.54374">
        <ele>108</ele>
        <time>2018-03-31T00:52:32Z</time>
      </trkpt>
      <trkpt lat="48.96948" lon="3.54377">
        <ele>108</ele>
        <time>2018-03-31T00:53:32Z</time>
      </trkpt>
      <trkpt lat="48.9696" lon="3.54378">
        <ele>107</ele>
        <time>2018-03-31T00:54:32Z</time>
      </trkpt>
      <trkpt lat="48.96975" lon="3.54378">
        <ele>107</ele>
        <time>2018-03-31T00:55:32Z</time>
      </trkpt>
      <trkpt lat="48.96988" lon="3.54376">
        <ele>107</ele>
        <time>2018-03-31T00:56:32Z</time>
      </trkpt>
      <trkpt lat="48.96996" lon="3.54375">
        <ele>107</ele>
        <time>2018-03-31T00:57:32Z</time>
      </trkpt>
      <trkpt lat="48.97001" lon="3.54373">
        <ele>107</ele>
        <time>2018-03-31T00:58:32Z</time>
      </trkpt>
      <trkpt lat="48.97005" lon="3.54372">
        <ele>107</ele>
        <time>2018-03-31T00:59:32Z</time>
      </trkpt>
      <trkpt lat="48.97013" lon="3.54369">
        <ele>106</ele>
        <time>2018-03-31T01:00:32Z</time>
      </trkpt>
      <trkpt lat="48.97023" lon="3.54365">
        <ele>106</ele>
        <time>2018-03-31T01:01:32Z</time>
      </trkpt>
      <trkpt lat="48.97036" lon="3.54358">
        <ele>105</ele>
        <time>2018-03-31T01:02:32Z</time>
      </trkpt>
      <trkpt lat="48.97041" lon="3.54356">
        <ele>105</ele>
        <time>2018-03-31T01:03:32Z</time>
      </trkpt>
      <trkpt lat="48.97061" lon="3.54345">
        <ele>104</ele>
        <time>2018-03-31T01:04:32Z</time>
      </trkpt>
      <trkpt lat="48.97069" lon="3.5434">
        <ele>104</ele>
        <time>2018-03-31T01:05:32Z</time>
      </trkpt>
      <trkpt lat="48.97078" lon="3.54335">
        <ele>103</ele>
        <time>2018-03-31T01:06:32Z</time>
      </trkpt>
      <trkpt lat="48.97102" lon="3.54323">
        <ele>104</ele>
        <time>2018-03-31T01:07:32Z</time>
      </trkpt>
      <trkpt lat="48.97105" lon="3.54322">
        <ele>104</ele>
        <time>2018-03-31T01:08:32Z</time>
      </trkpt>
      <trkpt lat="48.9713" lon="3.54308">
        <ele>104</ele>
        <time>2018-03-31T01:09:32Z</time>
      </trkpt>
      <trkpt lat="48.97147" lon="3.54299">
        <ele>104</ele>
        <time>2018-03-31T01:10:32Z</time>
      </trkpt>
      <trkpt lat="48.97164" lon="3.54289">
        <ele>104</ele>
        <time>2018-03-31T01:11:32Z</time>
      </trkpt>
      <trkpt lat="48.97181" lon="3.5428">
        <ele>104</ele>
        <time>2018-03-31T01:12:32Z</time>
      </trkpt>
      <trkpt lat="48.97185" lon="3.54278">
        <ele>104</ele>
        <time>2018-03-31T01:13:32Z</time>
      </trkpt>
      <trkpt lat="48.97186" lon="3.54278">
        <ele>104</ele>
        <time>2018-03-31T01:14:32Z</time>
      </trkpt>
      <trkpt lat="48.97187" lon="3.54278">
        <ele>104</ele>
        <time>2018-03-31T01:15:32Z</time>
      </trkpt>
      <trkpt lat="48.97194" lon="3.54274">
        <ele>104</ele>
        <time>2018-03-31T01:16:32Z</time>
      </trkpt>
      <trkpt lat="48.97203" lon="3.5427">
        <ele>104</ele>
        <time>2018-03-31T01:17:32Z</time>
      </trkpt>
      <trkpt lat="48.97211" lon="3.54267">
        <ele>104</ele>
        <time>2018-03-31T01:18:32Z</time>
      </trkpt>
      <trkpt lat="48.97239" lon="3.54258">
        <ele>104</ele>
        <time>2018-03-31T01:19:32Z</time>
      </trkpt>
      <trkpt lat="48.97265" lon="3.5425">
        <ele>104</ele>
        <time>2018-03-31T01:20:32Z</time>
      </trkpt>
      <trkpt lat="48.9728" lon="3.54246">
        <ele>104</ele>
        <time>2018-03-31T01:21:32Z</time>
      </trkpt>
      <trkpt lat="48.973" lon="3.54239">
        <ele>105</ele>
        <time>2018-03-31T01:22:32Z</time>
      </trkpt>
      <trkpt lat="48.97309" lon="3.54236">
        <ele>106</ele>
        <time>2018-03-31T01:23:32Z</time>
      </trkpt>
      <trkpt lat="48.97327" lon="3.5423">
        <ele>106</ele>
        <time>2018-03-31T01:24:32Z</time>
      </trkpt>
      <trkpt lat="48.97335" lon="3.54226">
        <ele>107</ele>
        <time>2018-03-31T01:25:32Z</time>
      </trkpt>
      <trkpt lat="48.97352" lon="3.54219">
        <ele>107</ele>
        <time>2018-03-31T01:26:32Z</time>
      </trkpt>
      <trkpt lat="48.97361" lon="3.54214">
        <ele>107</ele>
        <time>2018-03-31T01:27:32Z</time>
      </trkpt>
      <trkpt lat="48.97378" lon="3.54206">
        <ele>107</ele>
        <time>2018-03-31T01:28:32Z</time>
      </trkpt>
      <trkpt lat="48.97395" lon="3.54197">
        <ele>107</ele>
        <time>2018-03-31T01:29:32Z</time>
      </trkpt>
      <trkpt lat="48.97413" lon="3.54188">
        <ele>107</ele>
        <time>2018-03-31T01:30:32Z</time>
      </trkpt>
      <trkpt lat="48.9743" lon="3.5418">
        <ele>106</ele>
        <time>2018-03-31T01:31:32Z</time>
      </trkpt>
      <trkpt lat="48.97441" lon="3.54174">
        <ele>106</ele>
        <time>2018-03-31T01:32:32Z</time>
      </trkpt>
      <trkpt lat="48.97482" lon="3.54154">
        <ele>105</ele>
        <time>2018-03-31T01:33:32Z</time>
      </trkpt>
      <trkpt lat="48.97507" lon="3.54141">
        <ele>104</ele>
        <time>2018-03-31T01:34:32Z</time>
      </trkpt>
      <trkpt lat="48.97526" lon="3.54131">
        <ele>104</ele>
        <time>2018-03-31T01:35:32Z</time>
      </trkpt>
      <trkpt lat="48.97548" lon="3.5412">
        <ele>103</ele>
        <time>2018-03-31T01:36:32Z</time>
      </trkpt>
      <trkpt lat="48.97574" lon="3.54109">
        <ele>102</ele>
        <time>2018-03-31T01:37:32Z</time>
      </trkpt>
      <trkpt lat="48.97591" lon="3.54103">
        <ele>102</ele>
        <time>2018-03-31T01:38:32Z</time>
      </trkpt>
      <trkpt lat="48.97598" lon="3.541">
        <ele>102</ele>
        <time>2018-03-31T01:39:32Z</time>
      </trkpt>
      <trkpt lat="48.97608" lon="3.54098">
        <ele>102</ele>
        <time>2018-03-31T01:40:32Z</time>
      </trkpt>
      <trkpt lat="48.97616" lon="3.54097">
        <ele>102</ele>
        <time>2018-03-31T01:41:32Z</time>
      </trkpt>
      <trkpt lat="48.97618" lon="3.54096">
        <ele>102</ele>
        <time>2018-03-31T01:42:32Z</time>
      </trkpt>
      <trkpt lat="48.97628" lon="3.54097">
        <ele>102</ele>
        <time>2018-03-31T01:43:32Z</time>
      </trkpt>
      <trkpt lat="48.97634" lon="3.54098">
        <ele>102</ele>
        <time>2018-03-31T01:44:32Z</time>
      </trkpt>
      <trkpt lat="48.97641" lon="3.541">
        <ele>102</ele>
        <time>2018-03-31T01:45:32Z</time>
      </trkpt>
      <trkpt lat="48.97653" lon="3.54104">
        <ele>102</ele>
        <time>2018-03-31T01:46:32Z</time>
      </trkpt>
      <trkpt lat="48.97664" lon="3.5411">
        <ele>102</ele>
        <time>2018-03-31T01:47:32Z</time>
      </trkpt>
      <trkpt lat="48.97669" lon="3.54114">
        <ele>102</ele>
        <time>2018-03-31T01:48:32Z</time>
      </trkpt>
      <trkpt lat="48.97676" lon="3.54118">
        <ele>103</ele>
        <time>2018-03-31T01:49:32Z</time>
      </trkpt>
      <trkpt lat="48.97682" lon="3.54125">
        <ele>103</ele>
        <time>2018-03-31T01:50:32Z</time>
      </trkpt>
      <trkpt lat="48.97691" lon="3.54135">
        <ele>104</ele>
        <time>2018-03-31T01:51:32Z</time>
      </trkpt>
      <trkpt lat="48.97696" lon="3.54142">
        <ele>104</ele>
        <time>2018-03-31T01:52:32Z</time>
      </trkpt>
      <trkpt lat="48.97699" lon="3.54148">
        <ele>104</ele>
        <time>2018-03-31T01:53:32Z</time>
      </trkpt>
      <trkpt lat="48.9771" lon="3.54165">
        <ele>105</ele>
        <time>2018-03-31T01:54:32Z</time>
      </trkpt>
      <trkpt lat="48.97715" lon="3.54176">
        <ele>105</ele>
        <time>2018-03-31T01:55:32Z</time>
      </trkpt>
      <trkpt lat="48.97719" lon="3.54184">
        <ele>105</ele>
        <time>2018-03-31T01:56:32Z</time>
      </trkpt>
      <trkpt lat="48.97729" lon="3.54203">
        <ele>104</ele>
        <time>2018-03-31T01:57:32Z</time>
      </trkpt>
      <trkpt lat="48.97738" lon="3.54217">
        <ele>104</ele>
        <time>2018-03-31T01:58:32Z</time>
      </trkpt>
      <trkpt lat="48.97746" lon="3.54228">
        <ele>104</ele>
        <time>2018-03-31T01:59:32Z</time>
      </trkpt>
      <trkpt lat="48.97756" lon="3.54241">
        <ele>104</ele>
        <time>2018-03-31T02:00:32Z</time>
      </trkpt>
      <trkpt lat="48.97764" lon="3.54249">
        <ele>104</ele>
        <time>2018-03-31T02:01:32Z</time>
      </trkpt>
      <trkpt lat="48.97772" lon="3.54256">
        <ele>105</ele>
        <time>2018-03-31T02:02:32Z</time>
      </trkpt>
      <trkpt lat="48.97784" lon="3.54266">
        <ele>105</ele>
        <time>2018-03-31T02:03:32Z</time>
      </trkpt>
      <trkpt lat="48.97797" lon="3.54276">
        <ele>105</ele>
        <time>2018-03-31T02:04:32Z</time>
      </trkpt>
      <trkpt lat="48.97814" lon="3.54288">
        <ele>106</ele>
        <time>2018-03-31T02:05:32Z</time>
      </trkpt>
      <trkpt lat="48.97839" lon="3.54306">
        <ele>106</ele>
        <time>2018-03-31T02:06:32Z</time>
      </trkpt>
      <trkpt lat="48.9786" lon="3.54322">
        <ele>106</ele>
        <time>2018-03-31T02:07:32Z</time>
      </trkpt>
      <trkpt lat="48.97873" lon="3.54331">
        <ele>106</ele>
        <time>2018-03-31T02:08:32Z</time>
      </trkpt>
      <trkpt lat="48.97892" lon="3.54344">
        <ele>106</ele>
        <time>2018-03-31T02:09:32Z</time>
      </trkpt>
      <trkpt lat="48.97909" lon="3.54356">
        <ele>106</ele>
        <time>2018-03-31T02:10:32Z</time>
      </trkpt>
      <trkpt lat="48.9792" lon="3.54364">
        <ele>106</ele>
        <time>2018-03-31T02:11:32Z</time>
      </trkpt>
      <trkpt lat="48.97935" lon="3.54375">
        <ele>106</ele>
        <time>2018-03-31T02:12:32Z</time>
      </trkpt>
      <trkpt lat="48.97955" lon="3.54391">
        <ele>106</ele>
        <time>2018-03-31T02:13:32Z</time>
      </trkpt>
      <trkpt lat="48.97988" lon="3.54414">
        <ele>106</ele>
        <time>2018-03-31T02:14:32Z</time>
      </trkpt>
      <trkpt lat="48.98005" lon="3.54425">
        <ele>106</ele>
        <time>2018-03-31T02:15:32Z</time>
      </trkpt>
      <trkpt lat="48.98031" lon="3.5444">
        <ele>105</ele>
        <time>2018-03-31T02:16:32Z</time>
      </trkpt>
      <trkpt lat="48.98049" lon="3.54448">
        <ele>104</ele>
        <time>2018-03-31T02:17:32Z</time>
      </trkpt>
      <trkpt lat="48.98067" lon="3.54457">
        <ele>103</ele>
        <time>2018-03-31T02:18:32Z</time>
      </trkpt>
      <trkpt lat="48.98085" lon="3.54466">
        <ele>102</ele>
        <time>2018-03-31T02:19:32Z</time>
      </trkpt>
      <trkpt lat="48.98103" lon="3.54475">
        <ele>102</ele>
        <time>2018-03-31T02:20:32Z</time>
      </trkpt>
      <trkpt lat="48.98114" lon="3.54479">
        <ele>101</ele>
        <time>2018-03-31T02:21:32Z</time>
      </trkpt>
      <trkpt lat="48.98137" lon="3.54491">
        <ele>100</ele>
        <time>2018-03-31T02:22:32Z</time>
      </trkpt>
      <trkpt lat="48.98149" lon="3.54496">
        <ele>99</ele>
        <time>2018-03-31T02:23:32Z</time>
      </trkpt>
      <trkpt lat="48.98166" lon="3.54505">
        <ele>99</ele>
        <time>2018-03-31T02:24:32Z</time>
      </trkpt>
      <trkpt lat="48.98184" lon="3.54514">
        <ele>99</ele>
        <time>2018-03-31T02:25:32Z</time>
      </trkpt>
      <trkpt lat="48.98209" lon="3.5453">
        <ele>99</ele>
        <time>2018-03-31T02:26:32Z</time>
      </trkpt>
      <trkpt lat="48.98218" lon="3.54538">
        <ele>99</ele>
        <time>2018-03-31T02:27:32Z</time>
      </trkpt>
      <trkpt lat="48.98227" lon="3.54546">
        <ele>98</ele>
        <time>2018-03-31T02:28:32Z</time>
      </trkpt>
      <trkpt lat="48.98243" lon="3.54564">
        <ele>97</ele>
        <time>2018-03-31T02:29:32Z</time>
      </trkpt>
      <trkpt lat="48.98252" lon="3.54576">
        <ele>97</ele>
        <time>2018-03-31T02:30:32Z</time>
      </trkpt>
      <trkpt lat="48.98265" lon="3.54594">
        <ele>96</ele>
        <time>2018-03-31T02:31:32Z</time>
      </trkpt>
      <trkpt lat="48.98289" lon="3.54625">
        <ele>96</ele>
        <time>2018-03-31T02:32:32Z</time>
      </trkpt>
      <trkpt lat="48.98297" lon="3.54636">
        <ele>96</ele>
        <time>2018-03-31T02:33:32Z</time>
      </trkpt>
      <trkpt lat="48.98302" lon="3.54642">
        <ele>96</ele>
        <time>2018-03-31T02:34:32Z</time>
      </trkpt>
      <trkpt lat="48.98306" lon="3.54648">
        <ele>96</ele>
        <time>2018-03-31T02:35:32Z</time>
      </trkpt>
      <trkpt lat="48.9831" lon="3.54653">
        <ele>96</ele>
        <time>2018-03-31T02:36:32Z</time>
      </trkpt>
      <trkpt lat="48.98319" lon="3.54665">
        <ele>96</ele>
        <time>2018-03-31T02:37:32Z</time>
      </trkpt>
      <trkpt lat="48.98327" lon="3.54675">
        <ele>96</ele>
        <time>2018-03-31T02:38:32Z</time>
      </trkpt>
      <trkpt lat="48.98336" lon="3.54688">
        <ele>96</ele>
        <time>2018-03-31T02:39:32Z</time>
      </trkpt>
      <trkpt lat="48.98343" lon="3.54696">
        <ele>96</ele>
        <time>2018-03-31T02:40:32Z</time>
      </trkpt>
      <trkpt lat="48.98344" lon="3.54698">
        <ele>96</ele>
        <time>2018-03-31T02:41:32Z</time>
      </trkpt>
      <trkpt lat="48.9835" lon="3.54705">
        <ele>96</ele>
        <time>2018-03-31T02:42:32Z</time>
      </trkpt>
      <trkpt lat="48.98364" lon="3.54723">
        <ele>97</ele>
        <time>2018-03-31T02:43:32Z</time>
      </trkpt>
      <trkpt lat="48.98377" lon="3.54737">
        <ele>97</ele>
        <time>2018-03-31T02:44:32Z</time>
      </trkpt>
      <trkpt lat="48.98392" lon="3.5475">
        <ele>97</ele>
        <time>2018-03-31T02:45:32Z</time>
      </trkpt>
      <trkpt lat="48.98404" lon="3.54758">
        <ele>97</ele>
        <time>2018-03-31T02:46:32Z</time>
      </trkpt>
      <trkpt lat="48.98419" lon="3.54764">
        <ele>98</ele>
        <time>2018-03-31T02:47:32Z</time>
      </trkpt>
      <trkpt lat="48.98429" lon="3.54766">
        <ele>98</ele>
        <time>2018-03-31T02:48:32Z</time>
      </trkpt>
      <trkpt lat="48.9844" lon="3.54768">
        <ele>98</ele>
        <time>2018-03-31T02:49:32Z</time>
      </trkpt>
      <trkpt lat="48.98452" lon="3.54769">
        <ele>99</ele>
        <time>2018-03-31T02:50:32Z</time>
      </trkpt>
      <trkpt lat="48.98457" lon="3.54769">
        <ele>99</ele>
        <time>2018-03-31T02:51:32Z</time>
      </trkpt>
      <trkpt lat="48.98466" lon="3.54769">
        <ele>99</ele>
        <time>2018-03-31T02:52:32Z</time>
      </trkpt>
      <trkpt lat="48.98504" lon="3.54768">
        <ele>101</ele>
        <time>2018-03-31T02:53:32Z</time>
      </trkpt>
      <trkpt lat="48.98541" lon="3.54767">
        <ele>101</ele>
        <time>2018-03-31T02:54:32Z</time>
      </trkpt>
      <trkpt lat="48.98569" lon="3.54766">
        <ele>102</ele>
        <time>2018-03-31T02:55:32Z</time>
      </trkpt>
      <trkpt lat="48.986" lon="3.54764">
        <ele>102</ele>
        <time>2018-03-31T02:56:32Z</time>
      </trkpt>
      <trkpt lat="48.98632" lon="3.54764">
        <ele>101</ele>
        <time>2018-03-31T02:57:32Z</time>
      </trkpt>
      <trkpt lat="48.98664" lon="3.54763">
        <ele>100</ele>
        <time>2018-03-31T02:58:32Z</time>
      </trkpt>
      <trkpt lat="48.987" lon="3.54761">
        <ele>101</ele>
        <time>2018-03-31T02:59:32Z</time>
      </trkpt>
      <trkpt lat="48.98819" lon="3.54754">
        <ele>102</ele>
        <time>2018-03-31T03:00:32Z</time>
      </trkpt>
      <trkpt lat="48.98843" lon="3.54753">
        <ele>102</ele>
        <time>2018-03-31T03:01:32Z</time>
      </trkpt>
      <trkpt lat="48.98853" lon="3.54752">
        <ele>103</ele>
        <time>2018-03-31T03:02:32Z</time>
      </trkpt>
      <trkpt lat="48.98878" lon="3.54751">
        <ele>105</ele>
        <time>2018-03-31T03:03:32Z</time>
      </trkpt>
      <trkpt lat="48.98896" lon="3.54751">
        <ele>106</ele>
        <time>2018-03-31T03:04:32Z</time>
      </trkpt>
      <trkpt lat="48.98918" lon="3.54753">
        <ele>107</ele>
        <time>2018-03-31T03:05:32Z</time>
      </trkpt>
      <trkpt lat="48.99062" lon="3.54777">
        <ele>109</ele>
        <time>2018-03-31T03:06:32Z</time>
      </trkpt>
      <trkpt lat="48.99171" lon="3.54796">
        <ele>113</ele>
        <time>2018-03-31T03:07:32Z</time>
      </trkpt>
      <trkpt lat="48.99199" lon="3.54803">
        <ele>114</ele>
        <time>2018-03-31T03:08:32Z</time>
      </trkpt>
      <trkpt lat="48.99216" lon="3.54807">
        <ele>114</ele>
        <time>2018-03-31T03:09:32Z</time>
      </trkpt>
      <trkpt lat="48.99228" lon="3.54811">
        <ele>114</ele>
        <time>2018-03-31T03:10:32Z</time>
      </trkpt>
      <trkpt lat="48.99233" lon="3.54814">
        <ele>114</ele>
        <time>2018-03-31T03:11:32Z</time>
      </trkpt>
      <trkpt lat="48.99245" lon="3.54822">
        <ele>113</ele>
        <time>2018-03-31T03:12:32Z</time>
      </trkpt>
      <trkpt lat="48.99257" lon="3.54833">
        <ele>112</ele>
        <time>2018-03-31T03:13:32Z</time>
      </trkpt>
      <trkpt lat="48.99271" lon="3.54847">
        <ele>112</ele>
        <time>2018-03-31T03:14:32Z</time>
      </trkpt>
      <trkpt lat="48.99288" lon="3.54869">
        <ele>111</ele>
        <time>2018-03-31T03:15:32Z</time>
      </trkpt>
      <trkpt lat="48.993" lon="3.54885">
        <ele>110</ele>
        <time>2018-03-31T03:16:32Z</time>
      </trkpt>
      <trkpt lat="48.99318" lon="3.5491">
        <ele>109</ele>
        <time>2018-03-31T03:17:32Z</time>
      </trkpt>
      <trkpt lat="48.99503" lon="3.55157">
        <ele>112</ele>
        <time>2018-03-31T03:18:32Z</time>
      </trkpt>
      <trkpt lat="48.99526" lon="3.55189">
        <ele>114</ele>
        <time>2018-03-31T03:19:32Z</time>
      </trkpt>
      <trkpt lat="48.99548" lon="3.55217">
        <ele>115</ele>
        <time>2018-03-31T03:20:32Z</time>
      </trkpt>
      <trkpt lat="48.99558" lon="3.5523">
        <ele>115</ele>
        <time>2018-03-31T03:21:32Z</time>
      </trkpt>
      <trkpt lat="48.99569" lon="3.55245">
        <ele>115</ele>
        <time>2018-03-31T03:22:32Z</time>
      </trkpt>
      <trkpt lat="48.99581" lon="3.5526">
        <ele>115</ele>
        <time>2018-03-31T03:23:32Z</time>
      </trkpt>
      <trkpt lat="48.996" lon="3.55281">
        <ele>116</ele>
        <time>2018-03-31T03:24:32Z</time>
      </trkpt>
      <trkpt lat="48.99613" lon="3.55296">
        <ele>116</ele>
        <time>2018-03-31T03:25:32Z</time>
      </trkpt>
      <trkpt lat="48.99624" lon="3.55306">
        <ele>117</ele>
        <time>2018-03-31T03:26:32Z</time>
      </trkpt>
      <trkpt lat="48.99646" lon="3.55325">
        <ele>116</ele>
        <time>2018-03-31T03:27:32Z</time>
      </trkpt>
      <trkpt lat="48.99674" lon="3.55347">
        <ele>116</ele>
        <time>2018-03-31T03:28:32Z</time>
      </trkpt>
      <trkpt lat="48.99699" lon="3.55364">
        <ele>117</ele>
        <time>2018-03-31T03:29:32Z</time>
      </trkpt>
      <trkpt lat="48.99714" lon="3.55373">
        <ele>117</ele>
        <time>2018-03-31T03:30:32Z</time>
      </trkpt>
      <trkpt lat="48.99739" lon="3.55389">
        <ele>116</ele>
        <time>2018-03-31T03:31:32Z</time>
      </trkpt>
      <trkpt lat="48.99762" lon="3.55403">
        <ele>114</ele>
        <time>2018-03-31T03:32:32Z</time>
      </trkpt>
      <trkpt lat="48.99786" lon="3.55416">
        <ele>111</ele>
        <time>2018-03-31T03:33:32Z</time>
      </trkpt>
      <trkpt lat="48.99812" lon="3.55429">
        <ele>111</ele>
        <time>2018-03-31T03:34:32Z</time>
      </trkpt>
      <trkpt lat="48.99824" lon="3.55434">
        <ele>111</ele>
        <time>2018-03-31T03:35:32Z</time>
      </trkpt>
      <trkpt lat="48.99828" lon="3.55435">
        <ele>112</ele>
        <time>2018-03-31T03:36:32Z</time>
      </trkpt>
      <trkpt lat="48.99834" lon="3.55437">
        <ele>112</ele>
        <time>2018-03-31T03:37:32Z</time>
      </trkpt>
      <trkpt lat="48.99845" lon="3.55439">
        <ele>111</ele>
        <time>2018-03-31T03:38:32Z</time>
      </trkpt>
      <trkpt lat="48.99848" lon="3.5544">
        <ele>111</ele>
        <time>2018-03-31T03:39:32Z</time>
      </trkpt>
      <trkpt lat="48.99862" lon="3.55441">
        <ele>110</ele>
        <time>2018-03-31T03:40:32Z</time>
      </trkpt>
      <trkpt lat="48.99886" lon="3.55442">
        <ele>109</ele>
        <time>2018-03-31T03:41:32Z</time>
      </trkpt>
      <trkpt lat="48.99959" lon="3.55435">
        <ele>105</ele>
        <time>2018-03-31T03:42:32Z</time>
      </trkpt>
      <trkpt lat="48.99985" lon="3.55432">
        <ele>104</ele>
        <time>2018-03-31T03:43:32Z</time>
      </trkpt>
      <trkpt lat="48.99988" lon="3.55432">
        <ele>104</ele>
        <time>2018-03-31T03:44:32Z</time>
      </trkpt>
      <trkpt lat="49.00013" lon="3.5543">
        <ele>102</ele>
        <time>2018-03-31T03:45:32Z</time>
      </trkpt>
      <trkpt lat="49.00039" lon="3.55427">
        <ele>102</ele>
        <time>2018-03-31T03:46:32Z</time>
      </trkpt>
      <trkpt lat="49.00063" lon="3.55425">
        <ele>101</ele>
        <time>2018-03-31T03:47:32Z</time>
      </trkpt>
      <trkpt lat="49.00075" lon="3.55425">
        <ele>100</ele>
        <time>2018-03-31T03:48:32Z</time>
      </trkpt>
      <trkpt lat="49.00087" lon="3.55425">
        <ele>100</ele>
        <time>2018-03-31T03:49:32Z</time>
      </trkpt>
      <trkpt lat="49.00097" lon="3.55427">
        <ele>99</ele>
        <time>2018-03-31T03:50:32Z</time>
      </trkpt>
      <trkpt lat="49.00106" lon="3.5543">
        <ele>99</ele>
        <time>2018-03-31T03:51:32Z</time>
      </trkpt>
      <trkpt lat="49.00114" lon="3.55433">
        <ele>99</ele>
        <time>2018-03-31T03:52:32Z</time>
      </trkpt>
      <trkpt lat="49.00125" lon="3.55439">
        <ele>98</ele>
        <time>2018-03-31T03:53:32Z</time>
      </trkpt>
      <trkpt lat="49.00129" lon="3.55442">
        <ele>98</ele>
        <time>2018-03-31T03:54:32Z</time>
      </trkpt>
      <trkpt lat="49.00137" lon="3.5545">
        <ele>98</ele>
        <time>2018-03-31T03:55:32Z</time>
      </trkpt>
      <trkpt lat="49.00153" lon="3.55468">
        <ele>97</ele>
        <time>2018-03-31T03:56:32Z</time>
      </trkpt>
      <trkpt lat="49.00165" lon="3.55481">
        <ele>96</ele>
        <time>2018-03-31T03:57:32Z</time>
      </trkpt>
      <trkpt lat="49.00175" lon="3.5549">
        <ele>96</ele>
        <time>2018-03-31T03:58:32Z</time>
      </trkpt>
      <trkpt lat="49.00183" lon="3.55497">
        <ele>95</ele>
        <time>2018-03-31T03:59:32Z</time>
      </trkpt>
      <trkpt lat="49.00192" lon="3.55504">
        <ele>95</ele>
        <time>2018-03-31T04:00:32Z</time>
      </trkpt>
      <trkpt lat="49.00201" lon="3.55508">
        <ele>95</ele>
        <time>2018-03-31T04:01:32Z</time>
      </trkpt>
      <trkpt lat="49.00209" lon="3.55513">
        <ele>94</ele>
        <time>2018-03-31T04:02:32Z</time>
      </trkpt>
      <trkpt lat="49.00219" lon="3.55516">
        <ele>94</ele>
        <time>2018-03-31T04:03:32Z</time>
      </trkpt>
      <trkpt lat="49.00231" lon="3.5552">
        <ele>93</ele>
        <time>2018-03-31T04:04:32Z</time>
      </trkpt>
      <trkpt lat="49.00258" lon="3.55528">
        <ele>92</ele>
        <time>2018-03-31T04:05:32Z</time>
      </trkpt>
      <trkpt lat="49.00282" lon="3.55537">
        <ele>91</ele>
        <time>2018-03-31T04:06:32Z</time>
      </trkpt>
      <trkpt lat="49.00352" lon="3.55559">
        <ele>89</ele>
        <time>2018-03-31T04:07:32Z</time>
      </trkpt>
      <trkpt lat="49.00367" lon="3.55564">
        <ele>88</ele>
        <time>2018-03-31T04:08:32Z</time>
      </trkpt>
      <trkpt lat="49.00386" lon="3.55571">
        <ele>88</ele>
        <time>2018-03-31T04:09:32Z</time>
      </trkpt>
      <trkpt lat="49.0039" lon="3.55573">
        <ele>88</ele>
        <time>2018-03-31T04:10:32Z</time>
      </trkpt>
      <trkpt lat="49.00406" lon="3.55579">
        <ele>87</ele>
        <time>2018-03-31T04:11:32Z</time>
      </trkpt>
      <trkpt lat="49.00416" lon="3.55582">
        <ele>87</ele>
        <time>2018-03-31T04:12:32Z</time>
      </trkpt>
      <trkpt lat="49.00422" lon="3.55586">
        <ele>87</ele>
        <time>2018-03-31T04:13:32Z</time>
      </trkpt>
      <trkpt lat="49.00429" lon="3.55589">
        <ele>86</ele>
        <time>2018-03-31T04:14:32Z</time>
      </trkpt>
      <trkpt lat="49.0044" lon="3.55598">
        <ele>86</ele>
        <time>2018-03-31T04:15:32Z</time>
      </trkpt>
      <trkpt lat="49.00442" lon="3.556">
        <ele>85</ele>
        <time>2018-03-31T04:16:32Z</time>
      </trkpt>
      <trkpt lat="49.00449" lon="3.5561">
        <ele>85</ele>
        <time>2018-03-31T04:17:32Z</time>
      </trkpt>
      <trkpt lat="49.00449" lon="3.5561">
        <ele>85</ele>
        <time>2018-03-31T04:18:32Z</time>
      </trkpt>
      <trkpt lat="49.00449" lon="3.55614">
        <ele>85</ele>
        <time>2018-03-31T04:19:32Z</time>
      </trkpt>
      <trkpt lat="49.0045" lon="3.55616">
        <ele>85</ele>
        <time>2018-03-31T04:20:32Z</time>
      </trkpt>
      <trkpt lat="49.0045" lon="3.55618">
        <ele>85</ele>
        <time>2018-03-31T04:21:32Z</time>
      </trkpt>
      <trkpt lat="49.00451" lon="3.55619">
        <ele>85</ele>
        <time>2018-03-31T04:22:32Z</time>
      </trkpt>
      <trkpt lat="49.00451" lon="3.5562">
        <ele>85</ele>
        <time>2018-03-31T04:23:32Z</time>
      </trkpt>
      <trkpt lat="49.00451" lon="3.55621">
        <ele>85</ele>
        <time>2018-03-31T04:24:32Z</time>
      </trkpt>
      <trkpt lat="49.00452" lon="3.55621">
        <ele>84</ele>
        <time>2018-03-31T04:25:32Z</time>
      </trkpt>
      <trkpt lat="49.00452" lon="3.55622">
        <ele>84</ele>
        <time>2018-03-31T04:26:32Z</time>
      </trkpt>
      <trkpt lat="49.00453" lon="3.55623">
        <ele>84</ele>
        <time>2018-03-31T04:27:32Z</time>
      </trkpt>
      <trkpt lat="49.00453" lon="3.55624">
        <ele>84</ele>
        <time>2018-03-31T04:28:32Z</time>
      </trkpt>
      <trkpt lat="49.00454" lon="3.55624">
        <ele>84</ele>
        <time>2018-03-31T04:29:32Z</time>
      </trkpt>
      <trkpt lat="49.00454" lon="3.55625">
        <ele>84</ele>
        <time>2018-03-31T04:30:32Z</time>
      </trkpt>
      <trkpt lat="49.00455" lon="3.55625">
        <ele>84</ele>
        <time>2018-03-31T04:31:32Z</time>
      </trkpt>
      <trkpt lat="49.00456" lon="3.55625">
        <ele>84</ele>
        <time>2018-03-31T04:32:32Z</time>
      </trkpt>
      <trkpt lat="49.00456" lon="3.55626">
        <ele>84</ele>
        <time>2018-03-31T04:33:32Z</time>
      </trkpt>
      <trkpt lat="49.00457" lon="3.55626">
        <ele>84</ele>
        <time>2018-03-31T04:34:32Z</time>
      </trkpt>
      <trkpt lat="49.00458" lon="3.55626">
        <ele>84</ele>
        <time>2018-03-31T04:35:32Z</time>
      </trkpt>
      <trkpt lat="49.00459" lon="3.55626">
        <ele>84</ele>
        <time>2018-03-31T04:36:32Z</time>
      </trkpt>
      <trkpt lat="49.0046" lon="3.55626">
        <ele>84</ele>
        <time>2018-03-31T04:37:32Z</time>
      </trkpt>
      <trkpt lat="49.00461" lon="3.55626">
        <ele>84</ele>
        <time>2018-03-31T04:38:32Z</time>
      </trkpt>
      <trkpt lat="49.00462" lon="3.55625">
        <ele>84</ele>
        <time>2018-03-31T04:39:32Z</time>
      </trkpt>
      <trkpt lat="49.00463" lon="3.55625">
        <ele>84</ele>
        <time>2018-03-31T04:40:32Z</time>
      </trkpt>
      <trkpt lat="49.00464" lon="3.55624">
        <ele>84</ele>
        <time>2018-03-31T04:41:32Z</time>
      </trkpt>
      <trkpt lat="49.00464" lon="3.55623">
        <ele>84</ele>
        <time>2018-03-31T04:42:32Z</time>
      </trkpt>
      <trkpt lat="49.00465" lon="3.55623">
        <ele>84</ele>
        <time>2018-03-31T04:43:32Z</time>
      </trkpt>
      <trkpt lat="49.00465" lon="3.55622">
        <ele>84</ele>
        <time>2018-03-31T04:44:32Z</time>
      </trkpt>
      <trkpt lat="49.00466" lon="3.55622">
        <ele>84</ele>
        <time>2018-03-31T04:45:32Z</time>
      </trkpt>
      <trkpt lat="49.00466" lon="3.55621">
        <ele>84</ele>
        <time>2018-03-31T04:46:32Z</time>
      </trkpt>
      <trkpt lat="49.00466" lon="3.5562">
        <ele>84</ele>
        <time>2018-03-31T04:47:32Z</time>
      </trkpt>
      <trkpt lat="49.00467" lon="3.5562">
        <ele>84</ele>
        <time>2018-03-31T04:48:32Z</time>
      </trkpt>
      <trkpt lat="49.00467" lon="3.55619">
        <ele>84</ele>
        <time>2018-03-31T04:49:32Z</time>
      </trkpt>
      <trkpt lat="49.00467" lon="3.55618">
        <ele>84</ele>
        <time>2018-03-31T04:50:32Z</time>
      </trkpt>
      <trkpt lat="49.00468" lon="3.55618">
        <ele>84</ele>
        <time>2018-03-31T04:51:32Z</time>
      </trkpt>
      <trkpt lat="49.00468" lon="3.55617">
        <ele>84</ele>
        <time>2018-03-31T04:52:32Z</time>
      </trkpt>
      <trkpt lat="49.00468" lon="3.55616">
        <ele>84</ele>
        <time>2018-03-31T04:53:32Z</time>
      </trkpt>
      <trkpt lat="49.00468" lon="3.55615">
        <ele>84</ele>
        <time>2018-03-31T04:54:32Z</time>
      </trkpt>
      <trkpt lat="49.00468" lon="3.55614">
        <ele>84</ele>
        <time>2018-03-31T04:55:32Z</time>
      </trkpt>
      <trkpt lat="49.00469" lon="3.55614">
        <ele>84</ele>
        <time>2018-03-31T04:56:32Z</time>
      </trkpt>
      <trkpt lat="49.00469" lon="3.55613">
        <ele>84</ele>
        <time>2018-03-31T04:57:32Z</time>
      </trkpt>
      <trkpt lat="49.00469" lon="3.55612">
        <ele>84</ele>
        <time>2018-03-31T04:58:32Z</time>
      </trkpt>
      <trkpt lat="49.00469" lon="3.55611">
        <ele>84</ele>
        <time>2018-03-31T04:59:32Z</time>
      </trkpt>
      <trkpt lat="49.00469" lon="3.5561">
        <ele>84</ele>
        <time>2018-03-31T05:00:32Z</time>
      </trkpt>
      <trkpt lat="49.00469" lon="3.55609">
        <ele>84</ele>
        <time>2018-03-31T05:01:32Z</time>
      </trkpt>
      <trkpt lat="49.00469" lon="3.55608">
        <ele>84</ele>
        <time>2018-03-31T05:02:32Z</time>
      </trkpt>
      <trkpt lat="49.00468" lon="3.55608">
        <ele>85</ele>
        <time>2018-03-31T05:03:32Z</time>
      </trkpt>
      <trkpt lat="49.00468" lon="3.55607">
        <ele>85</ele>
        <time>2018-03-31T05:04:32Z</time>
      </trkpt>
      <trkpt lat="49.00468" lon="3.55606">
        <ele>85</ele>
        <time>2018-03-31T05:05:32Z</time>
      </trkpt>
      <trkpt lat="49.00468" lon="3.55605">
        <ele>85</ele>
        <time>2018-03-31T05:06:32Z</time>
      </trkpt>
      <trkpt lat="49.00468" lon="3.55604">
        <ele>85</ele>
        <time>2018-03-31T05:07:32Z</time>
      </trkpt>
      <trkpt lat="49.00467" lon="3.55603">
        <ele>85</ele>
        <time>2018-03-31T05:08:32Z</time>
      </trkpt>
      <trkpt lat="49.00467" lon="3.55602">
        <ele>85</ele>
        <time>2018-03-31T05:09:32Z</time>
      </trkpt>
      <trkpt lat="49.00485" lon="3.55562">
        <ele>85</ele>
        <time>2018-03-31T05:10:32Z</time>
      </trkpt>
      <trkpt lat="49.00486" lon="3.55559">
        <ele>85</ele>
        <time>2018-03-31T05:11:32Z</time>
      </trkpt>
      <trkpt lat="49.005" lon="3.55536">
        <ele>85</ele>
        <time>2018-03-31T05:12:32Z</time>
      </trkpt>
      <trkpt lat="49.00514" lon="3.55515">
        <ele>85</ele>
        <time>2018-03-31T05:13:32Z</time>
      </trkpt>
      <trkpt lat="49.00524" lon="3.55501">
        <ele>85</ele>
        <time>2018-03-31T05:14:32Z</time>
      </trkpt>
      <trkpt lat="49.00569" lon="3.55443">
        <ele>85</ele>
        <time>2018-03-31T05:15:32Z</time>
      </trkpt>
      <trkpt lat="49.00577" lon="3.55432">
        <ele>85</ele>
        <time>2018-03-31T05:16:32Z</time>
      </trkpt>
      <trkpt lat="49.00583" lon="3.55424">
        <ele>85</ele>
        <time>2018-03-31T05:17:32Z</time>
      </trkpt>
      <trkpt lat="49.00625" lon="3.55365">
        <ele>85</ele>
        <time>2018-03-31T05:18:32Z</time>
      </trkpt>
      <trkpt lat="49.00643" lon="3.55342">
        <ele>86</ele>
        <time>2018-03-31T05:19:32Z</time>
      </trkpt>
      <trkpt lat="49.0065" lon="3.55332">
        <ele>86</ele>
        <time>2018-03-31T05:20:32Z</time>
      </trkpt>
      <trkpt lat="49.00658" lon="3.55324">
        <ele>86</ele>
        <time>2018-03-31T05:21:32Z</time>
      </trkpt>
      <trkpt lat="49.00663" lon="3.5532">
        <ele>87</ele>
        <time>2018-03-31T05:22:32Z</time>
      </trkpt>
      <trkpt lat="49.0067" lon="3.55315">
        <ele>87</ele>
        <time>2018-03-31T05:23:32Z</time>
      </trkpt>
      <trkpt lat="49.00678" lon="3.55313">
        <ele>87</ele>
        <time>2018-03-31T05:24:32Z</time>
      </trkpt>
      <trkpt lat="49.00686" lon="3.55312">
        <ele>87</ele>
        <time>2018-03-31T05:25:32Z</time>
      </trkpt>
      <trkpt lat="49.00696" lon="3.55311">
        <ele>87</ele>
        <time>2018-03-31T05:26:32Z</time>
      </trkpt>
      <trkpt lat="49.00714" lon="3.5531">
        <ele>86</ele>
        <time>2018-03-31T05:27:32Z</time>
      </trkpt>
      <trkpt lat="49.00742" lon="3.55311">
        <ele>86</ele>
        <time>2018-03-31T05:28:32Z</time>
      </trkpt>
      <trkpt lat="49.00775" lon="3.5531">
        <ele>86</ele>
        <time>2018-03-31T05:29:32Z</time>
      </trkpt>
      <trkpt lat="49.00803" lon="3.55305">
        <ele>85</ele>
        <time>2018-03-31T05:30:32Z</time>
      </trkpt>
      <trkpt lat="49.00825" lon="3.55299">
        <ele>85</ele>
        <time>2018-03-31T05:31:32Z</time>
      </trkpt>
      <trkpt lat="49.00849" lon="3.5529">
        <ele>85</ele>
        <time>2018-03-31T05:32:32Z</time>
      </trkpt>
      <trkpt lat="49.00863" lon="3.55284">
        <ele>84</ele>
        <time>2018-03-31T05:33:32Z</time>
      </trkpt>
      <trkpt lat="49.00886" lon="3.5527">
        <ele>84</ele>
        <time>2018-03-31T05:34:32Z</time>
      </trkpt>
      <trkpt lat="49.00911" lon="3.55253">
        <ele>83</ele>
        <time>2018-03-31T05:35:32Z</time>
      </trkpt>
      <trkpt lat="49.00929" lon="3.55239">
        <ele>84</ele>
        <time>2018-03-31T05:36:32Z</time>
      </trkpt>
      <trkpt lat="49.00943" lon="3.55226">
        <ele>84</ele>
        <time>2018-03-31T05:37:32Z</time>
      </trkpt>
      <trkpt lat="49.00952" lon="3.55214">
        <ele>85</ele>
        <time>2018-03-31T05:38:32Z</time>
      </trkpt>
      <trkpt lat="49.00965" lon="3.55198">
        <ele>86</ele>
        <time>2018-03-31T05:39:32Z</time>
      </trkpt>
      <trkpt lat="49.00974" lon="3.55186">
        <ele>86</ele>
        <time>2018-03-31T05:40:32Z</time>
      </trkpt>
      <trkpt lat="49.00996" lon="3.55153">
        <ele>86</ele>
        <time>2018-03-31T05:41:32Z</time>
      </trkpt>
      <trkpt lat="49.01021" lon="3.55116">
        <ele>85</ele>
        <time>2018-03-31T05:42:32Z</time>
      </trkpt>
      <trkpt lat="49.01024" lon="3.5511">
        <ele>85</ele>
        <time>2018-03-31T05:43:32Z</time>
      </trkpt>
      <trkpt lat="49.01054" lon="3.55064">
        <ele>85</ele>
        <time>2018-03-31T05:44:32Z</time>
      </trkpt>
      <trkpt lat="49.01075" lon="3.55033">
        <ele>85</ele>
        <time>2018-03-31T05:45:32Z</time>
      </trkpt>
      <trkpt lat="49.01081" lon="3.55024">
        <ele>85</ele>
        <time>2018-03-31T05:46:32Z</time>
      </trkpt>
      <trkpt lat="49.01105" lon="3.54987">
        <ele>85</ele>
        <time>2018-03-31T05:47:32Z</time>
      </trkpt>
      <trkpt lat="49.01111" lon="3.54978">
        <ele>85</ele>
        <time>2018-03-31T05:48:32Z</time>
      </trkpt>
      <trkpt lat="49.01118" lon="3.54967">
        <ele>86</ele>
        <time>2018-03-31T05:49:32Z</time>
      </trkpt>
      <trkpt lat="49.01133" lon="3.54942">
        <ele>86</ele>
        <time>2018-03-31T05:50:32Z</time>
      </trkpt>
      <trkpt lat="49.01148" lon="3.54912">
        <ele>86</ele>
        <time>2018-03-31T05:51:32Z</time>
      </trkpt>
      <trkpt lat="49.01155" lon="3.54894">
        <ele>86</ele>
        <time>2018-03-31T05:52:32Z</time>
      </trkpt>
      <trkpt lat="49.01165" lon="3.54867">
        <ele>87</ele>
        <time>2018-03-31T05:53:32Z</time>
      </trkpt>
      <trkpt lat="49.01168" lon="3.54856">
        <ele>87</ele>
        <time>2018-03-31T05:54:32Z</time>
      </trkpt>
      <trkpt lat="49.0117" lon="3.5485">
        <ele>88</ele>
        <time>2018-03-31T05:55:32Z</time>
      </trkpt>
      <trkpt lat="49.01173" lon="3.54833">
        <ele>88</ele>
        <time>2018-03-31T05:56:32Z</time>
      </trkpt>
      <trkpt lat="49.01175" lon="3.54816">
        <ele>89</ele>
        <time>2018-03-31T05:57:32Z</time>
      </trkpt>
      <trkpt lat="49.01178" lon="3.54796">
        <ele>89</ele>
        <time>2018-03-31T05:58:32Z</time>
      </trkpt>
      <trkpt lat="49.0118" lon="3.54759">
        <ele>90</ele>
        <time>2018-03-31T05:59:32Z</time>
      </trkpt>
      <trkpt lat="49.01181" lon="3.54735">
        <ele>90</ele>
        <time>2018-03-31T06:00:32Z</time>
      </trkpt>
      <trkpt lat="49.01183" lon="3.54718">
        <ele>90</ele>
        <time>2018-03-31T06:01:32Z</time>
      </trkpt>
      <trkpt lat="49.01183" lon="3.54706">
        <ele>90</ele>
        <time>2018-03-31T06:02:32Z</time>
      </trkpt>
      <trkpt lat="49.01187" lon="3.54677">
        <ele>89</ele>
        <time>2018-03-31T06:03:32Z</time>
      </trkpt>
      <trkpt lat="49.01191" lon="3.5465">
        <ele>89</ele>
        <time>2018-03-31T06:04:32Z</time>
      </trkpt>
      <trkpt lat="49.01197" lon="3.5462">
        <ele>88</ele>
        <time>2018-03-31T06:05:32Z</time>
      </trkpt>
      <trkpt lat="49.01202" lon="3.54601">
        <ele>88</ele>
        <time>2018-03-31T06:06:32Z</time>
      </trkpt>
      <trkpt lat="49.01206" lon="3.54588">
        <ele>87</ele>
        <time>2018-03-31T06:07:32Z</time>
      </trkpt>
      <trkpt lat="49.01212" lon="3.54574">
        <ele>87</ele>
        <time>2018-03-31T06:08:32Z</time>
      </trkpt>
      <trkpt lat="49.01216" lon="3.54564">
        <ele>87</ele>
        <time>2018-03-31T06:09:32Z</time>
      </trkpt>
      <trkpt lat="49.01223" lon="3.54552">
        <ele>87</ele>
        <time>2018-03-31T06:10:32Z</time>
      </trkpt>
      <trkpt lat="49.0123" lon="3.5454">
        <ele>87</ele>
        <time>2018-03-31T06:11:32Z</time>
      </trkpt>
      <trkpt lat="49.01237" lon="3.54531">
        <ele>87</ele>
        <time>2018-03-31T06:12:32Z</time>
      </trkpt>
      <trkpt lat="49.01246" lon="3.54518">
        <ele>88</ele>
        <time>2018-03-31T06:13:32Z</time>
      </trkpt>
      <trkpt lat="49.0125" lon="3.54512">
        <ele>88</ele>
        <time>2018-03-31T06:14:32Z</time>
      </trkpt>
      <trkpt lat="49.01251" lon="3.54511">
        <ele>88</ele>
        <time>2018-03-31T06:15:32Z</time>
      </trkpt>
      <trkpt lat="49.01272" lon="3.54483">
        <ele>88</ele>
        <time>2018-03-31T06:16:32Z</time>
      </trkpt>
      <trkpt lat="49.0131" lon="3.54433">
        <ele>87</ele>
        <time>2018-03-31T06:17:32Z</time>
      </trkpt>
      <trkpt lat="49.01342" lon="3.5439">
        <ele>88</ele>
        <time>2018-03-31T06:18:32Z</time>
      </trkpt>
      <trkpt lat="49.01364" lon="3.54361">
        <ele>88</ele>
        <time>2018-03-31T06:19:32Z</time>
      </trkpt>
      <trkpt lat="49.01476" lon="3.54215">
        <ele>85</ele>
        <time>2018-03-31T06:20:32Z</time>
      </trkpt>
      <trkpt lat="49.01496" lon="3.54189">
        <ele>85</ele>
        <time>2018-03-31T06:21:32Z</time>
      </trkpt>
      <trkpt lat="49.01524" lon="3.54153">
        <ele>85</ele>
        <time>2018-03-31T06:22:32Z</time>
      </trkpt>
      <trkpt lat="49.01563" lon="3.54102">
        <ele>84</ele>
        <time>2018-03-31T06:23:32Z</time>
      </trkpt>
      <trkpt lat="49.01595" lon="3.54061">
        <ele>84</ele>
        <time>2018-03-31T06:24:32Z</time>
      </trkpt>
      <trkpt lat="49.01624" lon="3.54024">
        <ele>84</ele>
        <time>2018-03-31T06:25:32Z</time>
      </trkpt>
      <trkpt lat="49.01654" lon="3.53984">
        <ele>84</ele>
        <time>2018-03-31T06:26:32Z</time>
      </trkpt>
      <trkpt lat="49.0169" lon="3.53935">
        <ele>83</ele>
        <time>2018-03-31T06:27:32Z</time>
      </trkpt>
      <trkpt lat="49.01718" lon="3.53896">
        <ele>80</ele>
        <time>2018-03-31T06:28:32Z</time>
      </trkpt>
      <trkpt lat="49.01752" lon="3.53851">
        <ele>76</ele>
        <time>2018-03-31T06:29:32Z</time>
      </trkpt>
      <trkpt lat="49.01778" lon="3.53815">
        <ele>75</ele>
        <time>2018-03-31T06:30:32Z</time>
      </trkpt>
      <trkpt lat="49.018" lon="3.53786">
        <ele>75</ele>
        <time>2018-03-31T06:31:32Z</time>
      </trkpt>
      <trkpt lat="49.01814" lon="3.53767">
        <ele>75</ele>
        <time>2018-03-31T06:32:32Z</time>
      </trkpt>
      <trkpt lat="49.01851" lon="3.53717">
        <ele>76</ele>
        <time>2018-03-31T06:33:32Z</time>
      </trkpt>
      <trkpt lat="49.0189" lon="3.53663">
        <ele>78</ele>
        <time>2018-03-31T06:34:32Z</time>
      </trkpt>
      <trkpt lat="49.01944" lon="3.53591">
        <ele>80</ele>
        <time>2018-03-31T06:35:32Z</time>
      </trkpt>
      <trkpt lat="49.01982" lon="3.5354">
        <ele>79</ele>
        <time>2018-03-31T06:36:32Z</time>
      </trkpt>
      <trkpt lat="49.02016" lon="3.53494">
        <ele>78</ele>
        <time>2018-03-31T06:37:32Z</time>
      </trkpt>
      <trkpt lat="49.02031" lon="3.53473">
        <ele>78</ele>
        <time>2018-03-31T06:38:32Z</time>
      </trkpt>
      <trkpt lat="49.02041" lon="3.53454">
        <ele>78</ele>
        <time>2018-03-31T06:39:32Z</time>
      </trkpt>
      <trkpt lat="49.02048" lon="3.53441">
        <ele>78</ele>
        <time>2018-03-31T06:40:32Z</time>
      </trkpt>
      <trkpt lat="49.02062" lon="3.53414">
        <ele>77</ele>
        <time>2018-03-31T06:41:32Z</time>
      </trkpt>
      <trkpt lat="49.02085" lon="3.53372">
        <ele>76</ele>
        <time>2018-03-31T06:42:32Z</time>
      </trkpt>
      <trkpt lat="49.02112" lon="3.5332">
        <ele>75</ele>
        <time>2018-03-31T06:43:32Z</time>
      </trkpt>
      <trkpt lat="49.02126" lon="3.53296">
        <ele>75</ele>
        <time>2018-03-31T06:44:32Z</time>
      </trkpt>
      <trkpt lat="49.02132" lon="3.53285">
        <ele>75</ele>
        <time>2018-03-31T06:45:32Z</time>
      </trkpt>
      <trkpt lat="49.02136" lon="3.5328">
        <ele>75</ele>
        <time>2018-03-31T06:46:32Z</time>
      </trkpt>
      <trkpt lat="49.0214" lon="3.53275">
        <ele>75</ele>
        <time>2018-03-31T06:47:32Z</time>
      </trkpt>
      <trkpt lat="49.02146" lon="3.53268">
        <ele>74</ele>
        <time>2018-03-31T06:48:32Z</time>
      </trkpt>
      <trkpt lat="49.02151" lon="3.53263">
        <ele>74</ele>
        <time>2018-03-31T06:49:32Z</time>
      </trkpt>
      <trkpt lat="49.02156" lon="3.53259">
        <ele>74</ele>
        <time>2018-03-31T06:50:32Z</time>
      </trkpt>
      <trkpt lat="49.02163" lon="3.53253">
        <ele>73</ele>
        <time>2018-03-31T06:51:32Z</time>
      </trkpt>
      <trkpt lat="49.0218" lon="3.53241">
        <ele>73</ele>
        <time>2018-03-31T06:52:32Z</time>
      </trkpt>
      <trkpt lat="49.02213" lon="3.5322">
        <ele>73</ele>
        <time>2018-03-31T06:53:32Z</time>
      </trkpt>
      <trkpt lat="49.02249" lon="3.53199">
        <ele>73</ele>
        <time>2018-03-31T06:54:32Z</time>
      </trkpt>
      <trkpt lat="49.0226" lon="3.53192">
        <ele>73</ele>
        <time>2018-03-31T06:55:32Z</time>
      </trkpt>
      <trkpt lat="49.02268" lon="3.53186">
        <ele>73</ele>
        <time>2018-03-31T06:56:32Z</time>
      </trkpt>
      <trkpt lat="49.02276" lon="3.53178">
        <ele>73</ele>
        <time>2018-03-31T06:57:32Z</time>
      </trkpt>
      <trkpt lat="49.02289" lon="3.53164">
        <ele>73</ele>
        <time>2018-03-31T06:58:32Z</time>
      </trkpt>
      <trkpt lat="49.02294" lon="3.53157">
        <ele>73</ele>
        <time>2018-03-31T06:59:32Z</time>
      </trkpt>
      <trkpt lat="49.0232" lon="3.53125">
        <ele>74</ele>
        <time>2018-03-31T07:00:32Z</time>
      </trkpt>
      <trkpt lat="49.02326" lon="3.53119">
        <ele>74</ele>
        <time>2018-03-31T07:01:32Z</time>
      </trkpt>
      <trkpt lat="49.02331" lon="3.53112">
        <ele>74</ele>
        <time>2018-03-31T07:02:32Z</time>
      </trkpt>
      <trkpt lat="49.02335" lon="3.53106">
        <ele>74</ele>
        <time>2018-03-31T07:03:32Z</time>
      </trkpt>
      <trkpt lat="49.0234" lon="3.53101">
        <ele>74</ele>
        <time>2018-03-31T07:04:32Z</time>
      </trkpt>
      <trkpt lat="49.02344" lon="3.53096">
        <ele>74</ele>
        <time>2018-03-31T07:05:32Z</time>
      </trkpt>
      <trkpt lat="49.0235" lon="3.53089">
        <ele>74</ele>
        <time>2018-03-31T07:06:32Z</time>
      </trkpt>
      <trkpt lat="49.02357" lon="3.53079">
        <ele>74</ele>
        <time>2018-03-31T07:07:32Z</time>
      </trkpt>
      <trkpt lat="49.02361" lon="3.53071">
        <ele>74</ele>
        <time>2018-03-31T07:08:32Z</time>
      </trkpt>
      <trkpt lat="49.02364" lon="3.53065">
        <ele>74</ele>
        <time>2018-03-31T07:09:32Z</time>
      </trkpt>
      <trkpt lat="49.0237" lon="3.53049">
        <ele>73</ele>
        <time>2018-03-31T07:10:32Z</time>
      </trkpt>
      <trkpt lat="49.02375" lon="3.53037">
        <ele>73</ele>
        <time>2018-03-31T07:11:32Z</time>
      </trkpt>
      <trkpt lat="49.02381" lon="3.53023">
        <ele>72</ele>
        <time>2018-03-31T07:12:32Z</time>
      </trkpt>
      <trkpt lat="49.02391" lon="3.52996">
        <ele>71</ele>
        <time>2018-03-31T07:13:32Z</time>
      </trkpt>
      <trkpt lat="49.02401" lon="3.52967">
        <ele>71</ele>
        <time>2018-03-31T07:14:32Z</time>
      </trkpt>
      <trkpt lat="49.02405" lon="3.52956">
        <ele>71</ele>
        <time>2018-03-31T07:15:32Z</time>
      </trkpt>
      <trkpt lat="49.02416" lon="3.52925">
        <ele>71</ele>
        <time>2018-03-31T07:16:32Z</time>
      </trkpt>
      <trkpt lat="49.02429" lon="3.52893">
        <ele>72</ele>
        <time>2018-03-31T07:17:32Z</time>
      </trkpt>
      <trkpt lat="49.02435" lon="3.5288">
        <ele>72</ele>
        <time>2018-03-31T07:18:32Z</time>
      </trkpt>
      <trkpt lat="49.02442" lon="3.52869">
        <ele>72</ele>
        <time>2018-03-31T07:19:32Z</time>
      </trkpt>
      <trkpt lat="49.02453" lon="3.52856">
        <ele>72</ele>
        <time>2018-03-31T07:20:32Z</time>
      </trkpt>
      <trkpt lat="49.02466" lon="3.52846">
        <ele>72</ele>
        <time>2018-03-31T07:21:32Z</time>
      </trkpt>
      <trkpt lat="49.02482" lon="3.52838">
        <ele>72</ele>
        <time>2018-03-31T07:22:32Z</time>
      </trkpt>
      <trkpt lat="49.02505" lon="3.52831">
        <ele>72</ele>
        <time>2018-03-31T07:23:32Z</time>
      </trkpt>
      <trkpt lat="49.02539" lon="3.52826">
        <ele>72</ele>
        <time>2018-03-31T07:24:32Z</time>
      </trkpt>
      <trkpt lat="49.02574" lon="3.52817">
        <ele>72</ele>
        <time>2018-03-31T07:25:32Z</time>
      </trkpt>
      <trkpt lat="49.02614" lon="3.52806">
        <ele>72</ele>
        <time>2018-03-31T07:26:32Z</time>
      </trkpt>
      <trkpt lat="49.02646" lon="3.52797">
        <ele>73</ele>
        <time>2018-03-31T07:27:32Z</time>
      </trkpt>
      <trkpt lat="49.02685" lon="3.52785">
        <ele>73</ele>
        <time>2018-03-31T07:28:32Z</time>
      </trkpt>
      <trkpt lat="49.02699" lon="3.5278">
        <ele>74</ele>
        <time>2018-03-31T07:29:32Z</time>
      </trkpt>
      <trkpt lat="49.02732" lon="3.5277">
        <ele>74</ele>
        <time>2018-03-31T07:30:32Z</time>
      </trkpt>
      <trkpt lat="49.02798" lon="3.52746">
        <ele>77</ele>
        <time>2018-03-31T07:31:32Z</time>
      </trkpt>
      <trkpt lat="49.02798" lon="3.52746">
        <ele>77</ele>
        <time>2018-03-31T07:32:32Z</time>
      </trkpt>
      <trkpt lat="49.02831" lon="3.52736">
        <ele>79</ele>
        <time>2018-03-31T07:33:32Z</time>
      </trkpt>
      <trkpt lat="49.02856" lon="3.52728">
        <ele>80</ele>
        <time>2018-03-31T07:34:32Z</time>
      </trkpt>
      <trkpt lat="49.02899" lon="3.52709">
        <ele>81</ele>
        <time>2018-03-31T07:35:32Z</time>
      </trkpt>
      <trkpt lat="49.02938" lon="3.52688">
        <ele>81</ele>
        <time>2018-03-31T07:36:32Z</time>
      </trkpt>
      <trkpt lat="49.02966" lon="3.52671">
        <ele>79</ele>
        <time>2018-03-31T07:37:32Z</time>
      </trkpt>
      <trkpt lat="49.02985" lon="3.5266">
        <ele>78</ele>
        <time>2018-03-31T07:38:32Z</time>
      </trkpt>
      <trkpt lat="49.03078" lon="3.52599">
        <ele>76</ele>
        <time>2018-03-31T07:39:32Z</time>
      </trkpt>
      <trkpt lat="49.0309" lon="3.5259">
        <ele>76</ele>
        <time>2018-03-31T07:40:32Z</time>
      </trkpt>
      <trkpt lat="49.03102" lon="3.52578">
        <ele>76</ele>
        <time>2018-03-31T07:41:32Z</time>
      </trkpt>
      <trkpt lat="49.03118" lon="3.52564">
        <ele>75</ele>
        <time>2018-03-31T07:42:32Z</time>
      </trkpt>
      <trkpt lat="49.03127" lon="3.52555">
        <ele>75</ele>
        <time>2018-03-31T07:43:32Z</time>
      </trkpt>
      <trkpt lat="49.03136" lon="3.52543">
        <ele>74</ele>
        <time>2018-03-31T07:44:32Z</time>
      </trkpt>
      <trkpt lat="49.03143" lon="3.52532">
        <ele>74</ele>
        <time>2018-03-31T07:45:32Z</time>
      </trkpt>
      <trkpt lat="49.03157" lon="3.52508">
        <ele>73</ele>
        <time>2018-03-31T07:46:32Z</time>
      </trkpt>
      <trkpt lat="49.03166" lon="3.52489">
        <ele>73</ele>
        <time>2018-03-31T07:47:32Z</time>
      </trkpt>
      <trkpt lat="49.03176" lon="3.52465">
        <ele>73</ele>
        <time>2018-03-31T07:48:32Z</time>
      </trkpt>
      <trkpt lat="49.03181" lon="3.52447">
        <ele>73</ele>
        <time>2018-03-31T07:49:32Z</time>
      </trkpt>
      <trkpt lat="49.03187" lon="3.52423">
        <ele>73</ele>
        <time>2018-03-31T07:50:32Z</time>
      </trkpt>
      <trkpt lat="49.03193" lon="3.52388">
        <ele>75</ele>
        <time>2018-03-31T07:51:32Z</time>
      </trkpt>
      <trkpt lat="49.03199" lon="3.52348">
        <ele>76</ele>
        <time>2018-03-31T07:52:32Z</time>
      </trkpt>
      <trkpt lat="49.03202" lon="3.52327">
        <ele>76</ele>
        <time>2018-03-31T07:53:32Z</time>
      </trkpt>
      <trkpt lat="49.03219" lon="3.52195">
        <ele>81</ele>
        <time>2018-03-31T07:54:32Z</time>
      </trkpt>
      <trkpt lat="49.03223" lon="3.52176">
        <ele>82</ele>
        <time>2018-03-31T07:55:32Z</time>
      </trkpt>
      <trkpt lat="49.03229" lon="3.52154">
        <ele>83</ele>
        <time>2018-03-31T07:56:32Z</time>
      </trkpt>
      <trkpt lat="49.03236" lon="3.52131">
        <ele>84</ele>
        <time>2018-03-31T07:57:32Z</time>
      </trkpt>
      <trkpt lat="49.03273" lon="3.52058">
        <ele>87</ele>
        <time>2018-03-31T07:58:32Z</time>
      </trkpt>
      <trkpt lat="49.03301" lon="3.52011">
        <ele>91</ele>
        <time>2018-03-31T07:59:32Z</time>
      </trkpt>
      <trkpt lat="49.03384" lon="3.51896">
        <ele>94</ele>
        <time>2018-03-31T08:00:32Z</time>
      </trkpt>
      <trkpt lat="49.03399" lon="3.51879">
        <ele>93</ele>
        <time>2018-03-31T08:01:32Z</time>
      </trkpt>
      <trkpt lat="49.0341" lon="3.51867">
        <ele>93</ele>
        <time>2018-03-31T08:02:32Z</time>
      </trkpt>
      <trkpt lat="49.03422" lon="3.51857">
        <ele>92</ele>
        <time>2018-03-31T08:03:32Z</time>
      </trkpt>
      <trkpt lat="49.03433" lon="3.51849">
        <ele>92</ele>
        <time>2018-03-31T08:04:32Z</time>
      </trkpt>
      <trkpt lat="49.03452" lon="3.51835">
        <ele>92</ele>
        <time>2018-03-31T08:05:32Z</time>
      </trkpt>
      <trkpt lat="49.03455" lon="3.51834">
        <ele>92</ele>
        <time>2018-03-31T08:06:32Z</time>
      </trkpt>
      <trkpt lat="49.0348" lon="3.51821">
        <ele>91</ele>
        <time>2018-03-31T08:07:32Z</time>
      </trkpt>
      <trkpt lat="49.03505" lon="3.5181">
        <ele>90</ele>
        <time>2018-03-31T08:08:32Z</time>
      </trkpt>
      <trkpt lat="49.03531" lon="3.51797">
        <ele>90</ele>
        <time>2018-03-31T08:09:32Z</time>
      </trkpt>
      <trkpt lat="49.0355" lon="3.51786">
        <ele>90</ele>
        <time>2018-03-31T08:10:32Z</time>
      </trkpt>
      <trkpt lat="49.0358" lon="3.51765">
        <ele>91</ele>
        <time>2018-03-31T08:11:32Z</time>
      </trkpt>
      <trkpt lat="49.03627" lon="3.51731">
        <ele>92</ele>
        <time>2018-03-31T08:12:32Z</time>
      </trkpt>
      <trkpt lat="49.0366" lon="3.51708">
        <ele>93</ele>
        <time>2018-03-31T08:13:32Z</time>
      </trkpt>
      <trkpt lat="49.03693" lon="3.51687">
        <ele>94</ele>
        <time>2018-03-31T08:14:32Z</time>
      </trkpt>
      <trkpt lat="49.03794" lon="3.51637">
        <ele>95</ele>
        <time>2018-03-31T08:15:32Z</time>
      </trkpt>
      <trkpt lat="49.03881" lon="3.51594">
        <ele>93</ele>
        <time>2018-03-31T08:16:32Z</time>
      </trkpt>
      <trkpt lat="49.03942" lon="3.51561">
        <ele>91</ele>
        <time>2018-03-31T08:17:32Z</time>
      </trkpt>
      <trkpt lat="49.0399" lon="3.51533">
        <ele>91</ele>
        <time>2018-03-31T08:18:32Z</time>
      </trkpt>
      <trkpt lat="49.04033" lon="3.51506">
        <ele>92</ele>
        <time>2018-03-31T08:19:32Z</time>
      </trkpt>
      <trkpt lat="49.04057" lon="3.51491">
        <ele>93</ele>
        <time>2018-03-31T08:20:32Z</time>
      </trkpt>
      <trkpt lat="49.04086" lon="3.51476">
        <ele>93</ele>
        <time>2018-03-31T08:21:32Z</time>
      </trkpt>
      <trkpt lat="49.04121" lon="3.51462">
        <ele>93</ele>
        <time>2018-03-31T08:22:32Z</time>
      </trkpt>
      <trkpt lat="49.04154" lon="3.51448">
        <ele>92</ele>
        <time>2018-03-31T08:23:32Z</time>
      </trkpt>
      <trkpt lat="49.04171" lon="3.5144">
        <ele>92</ele>
        <time>2018-03-31T08:24:32Z</time>
      </trkpt>
      <trkpt lat="49.04204" lon="3.51417">
        <ele>91</ele>
        <time>2018-03-31T08:25:32Z</time>
      </trkpt>
      <trkpt lat="49.0424" lon="3.51388">
        <ele>93</ele>
        <time>2018-03-31T08:26:32Z</time>
      </trkpt>
      <trkpt lat="49.04278" lon="3.51355">
        <ele>94</ele>
        <time>2018-03-31T08:27:32Z</time>
      </trkpt>
      <trkpt lat="49.04296" lon="3.51337">
        <ele>94</ele>
        <time>2018-03-31T08:28:32Z</time>
      </trkpt>
      <trkpt lat="49.04335" lon="3.51293">
        <ele>95</ele>
        <time>2018-03-31T08:29:32Z</time>
      </trkpt>
      <trkpt lat="49.04347" lon="3.5128">
        <ele>96</ele>
        <time>2018-03-31T08:30:32Z</time>
      </trkpt>
      <trkpt lat="49.04363" lon="3.51267">
        <ele>96</ele>
        <time>2018-03-31T08:31:32Z</time>
      </trkpt>
      <trkpt lat="49.0438" lon="3.51258">
        <ele>95</ele>
        <time>2018-03-31T08:32:32Z</time>
      </trkpt>
      <trkpt lat="49.04406" lon="3.51245">
        <ele>94</ele>
        <time>2018-03-31T08:33:32Z</time>
      </trkpt>
      <trkpt lat="49.04422" lon="3.51237">
        <ele>93</ele>
        <time>2018-03-31T08:34:32Z</time>
      </trkpt>
      <trkpt lat="49.04431" lon="3.5123">
        <ele>93</ele>
        <time>2018-03-31T08:35:32Z</time>
      </trkpt>
      <trkpt lat="49.04474" lon="3.51191">
        <ele>93</ele>
        <time>2018-03-31T08:36:32Z</time>
      </trkpt>
      <trkpt lat="49.04478" lon="3.51188">
        <ele>93</ele>
        <time>2018-03-31T08:37:32Z</time>
      </trkpt>
      <trkpt lat="49.04529" lon="3.51157">
        <ele>91</ele>
        <time>2018-03-31T08:38:32Z</time>
      </trkpt>
      <trkpt lat="49.04558" lon="3.51132">
        <ele>91</ele>
        <time>2018-03-31T08:39:32Z</time>
      </trkpt>
      <trkpt lat="49.04599" lon="3.51093">
        <ele>90</ele>
        <time>2018-03-31T08:40:32Z</time>
      </trkpt>
      <trkpt lat="49.04612" lon="3.51082">
        <ele>90</ele>
        <time>2018-03-31T08:41:32Z</time>
      </trkpt>
      <trkpt lat="49.04621" lon="3.51074">
        <ele>90</ele>
        <time>2018-03-31T08:42:32Z</time>
      </trkpt>
      <trkpt lat="49.04631" lon="3.51068">
        <ele>89</ele>
        <time>2018-03-31T08:43:32Z</time>
      </trkpt>
      <trkpt lat="49.04644" lon="3.51064">
        <ele>88</ele>
        <time>2018-03-31T08:44:32Z</time>
      </trkpt>
      <trkpt lat="49.04658" lon="3.51062">
        <ele>87</ele>
        <time>2018-03-31T08:45:32Z</time>
      </trkpt>
      <trkpt lat="49.04673" lon="3.51061">
        <ele>86</ele>
        <time>2018-03-31T08:46:32Z</time>
      </trkpt>
      <trkpt lat="49.04703" lon="3.51056">
        <ele>85</ele>
        <time>2018-03-31T08:47:32Z</time>
      </trkpt>
      <trkpt lat="49.0471" lon="3.51054">
        <ele>84</ele>
        <time>2018-03-31T08:48:32Z</time>
      </trkpt>
      <trkpt lat="49.04718" lon="3.51051">
        <ele>84</ele>
        <time>2018-03-31T08:49:32Z</time>
      </trkpt>
      <trkpt lat="49.04723" lon="3.51048">
        <ele>84</ele>
        <time>2018-03-31T08:50:32Z</time>
      </trkpt>
      <trkpt lat="49.04728" lon="3.51044">
        <ele>84</ele>
        <time>2018-03-31T08:51:32Z</time>
      </trkpt>
      <trkpt lat="49.04741" lon="3.51028">
        <ele>84</ele>
        <time>2018-03-31T08:52:32Z</time>
      </trkpt>
      <trkpt lat="49.0475" lon="3.51019">
        <ele>84</ele>
        <time>2018-03-31T08:53:32Z</time>
      </trkpt>
      <trkpt lat="49.04756" lon="3.51014">
        <ele>84</ele>
        <time>2018-03-31T08:54:32Z</time>
      </trkpt>
      <trkpt lat="49.04765" lon="3.51012">
        <ele>84</ele>
        <time>2018-03-31T08:55:32Z</time>
      </trkpt>
      <trkpt lat="49.04778" lon="3.51011">
        <ele>83</ele>
        <time>2018-03-31T08:56:32Z</time>
      </trkpt>
      <trkpt lat="49.04817" lon="3.51005">
        <ele>82</ele>
        <time>2018-03-31T08:57:32Z</time>
      </trkpt>
      <trkpt lat="49.04851" lon="3.50998">
        <ele>81</ele>
        <time>2018-03-31T08:58:32Z</time>
      </trkpt>
      <trkpt lat="49.04867" lon="3.50995">
        <ele>81</ele>
        <time>2018-03-31T08:59:32Z</time>
      </trkpt>
      <trkpt lat="49.04888" lon="3.50988">
        <ele>81</ele>
        <time>2018-03-31T09:00:32Z</time>
      </trkpt>
      <trkpt lat="49.04922" lon="3.50974">
        <ele>80</ele>
        <time>2018-03-31T09:01:32Z</time>
      </trkpt>
      <trkpt lat="49.04931" lon="3.5097">
        <ele>81</ele>
        <time>2018-03-31T09:02:32Z</time>
      </trkpt>
      <trkpt lat="49.04948" lon="3.5096">
        <ele>81</ele>
        <time>2018-03-31T09:03:32Z</time>
      </trkpt>
      <trkpt lat="49.04948" lon="3.5096">
        <ele>81</ele>
        <time>2018-03-31T09:04:32Z</time>
      </trkpt>
      <trkpt lat="49.04951" lon="3.50976">
        <ele>81</ele>
        <time>2018-03-31T09:05:32Z</time>
      </trkpt>
      <trkpt lat="49.04953" lon="3.50984">
        <ele>81</ele>
        <time>2018-03-31T09:06:32Z</time>
      </trkpt>
      <trkpt lat="49.04956" lon="3.50991">
        <ele>80</ele>
        <time>2018-03-31T09:07:32Z</time>
      </trkpt>
      <trkpt lat="49.04961" lon="3.51001">
        <ele>80</ele>
        <time>2018-03-31T09:08:32Z</time>
      </trkpt>
      <trkpt lat="49.04969" lon="3.51018">
        <ele>80</ele>
        <time>2018-03-31T09:09:32Z</time>
      </trkpt>
      <trkpt lat="49.04976" lon="3.51034">
        <ele>79</ele>
        <time>2018-03-31T09:10:32Z</time>
      </trkpt>
      <trkpt lat="49.04979" lon="3.51042">
        <ele>79</ele>
        <time>2018-03-31T09:11:32Z</time>
      </trkpt>
      <trkpt lat="49.04982" lon="3.5105">
        <ele>79</ele>
        <time>2018-03-31T09:12:32Z</time>
      </trkpt>
      <trkpt lat="49.04985" lon="3.5106">
        <ele>79</ele>
        <time>2018-03-31T09:13:32Z</time>
      </trkpt>
      <trkpt lat="49.0499" lon="3.51074">
        <ele>79</ele>
        <time>2018-03-31T09:14:32Z</time>
      </trkpt>
      <trkpt lat="49.04992" lon="3.51089">
        <ele>79</ele>
        <time>2018-03-31T09:15:32Z</time>
      </trkpt>
      <trkpt lat="49.04992" lon="3.51093">
        <ele>79</ele>
        <time>2018-03-31T09:16:32Z</time>
      </trkpt>
      <trkpt lat="49.04992" lon="3.51098">
        <ele>79</ele>
        <time>2018-03-31T09:17:32Z</time>
      </trkpt>
      <trkpt lat="49.04992" lon="3.51108">
        <ele>78</ele>
        <time>2018-03-31T09:18:32Z</time>
      </trkpt>
      <trkpt lat="49.04992" lon="3.51133">
        <ele>78</ele>
        <time>2018-03-31T09:19:32Z</time>
      </trkpt>
      <trkpt lat="49.04991" lon="3.5116">
        <ele>77</ele>
        <time>2018-03-31T09:20:32Z</time>
      </trkpt>
      <trkpt lat="49.04988" lon="3.51258">
        <ele>72</ele>
        <time>2018-03-31T09:21:32Z</time>
      </trkpt>
      <trkpt lat="49.04986" lon="3.51369">
        <ele>68</ele>
        <time>2018-03-31T09:22:32Z</time>
      </trkpt>
      <trkpt lat="49.04985" lon="3.5141">
        <ele>67</ele>
        <time>2018-03-31T09:23:32Z</time>
      </trkpt>
      <trkpt lat="49.04984" lon="3.51437">
        <ele>66</ele>
        <time>2018-03-31T09:24:32Z</time>
      </trkpt>
      <trkpt lat="49.04981" lon="3.5155">
        <ele>66</ele>
        <time>2018-03-31T09:25:32Z</time>
      </trkpt>
      <trkpt lat="49.04979" lon="3.51629">
        <ele>65</ele>
        <time>2018-03-31T09:26:32Z</time>
      </trkpt>
      <trkpt lat="49.04975" lon="3.51858">
        <ele>65</ele>
        <time>2018-03-31T09:27:32Z</time>
      </trkpt>
      <trkpt lat="49.04975" lon="3.51879">
        <ele>65</ele>
        <time>2018-03-31T09:28:32Z</time>
      </trkpt>
      <trkpt lat="49.04974" lon="3.51901">
        <ele>65</ele>
        <time>2018-03-31T09:29:32Z</time>
      </trkpt>
      <trkpt lat="49.04974" lon="3.51923">
        <ele>65</ele>
        <time>2018-03-31T09:30:32Z</time>
      </trkpt>
      <trkpt lat="49.04973" lon="3.51999">
        <ele>65</ele>
        <time>2018-03-31T09:31:32Z</time>
      </trkpt>
      <trkpt lat="49.04973" lon="3.52008">
        <ele>65</ele>
        <time>2018-03-31T09:32:32Z</time>
      </trkpt>
      <trkpt lat="49.04973" lon="3.5202">
        <ele>65</ele>
        <time>2018-03-31T09:33:32Z</time>
      </trkpt>
      <trkpt lat="49.04973" lon="3.52029">
        <ele>65</ele>
        <time>2018-03-31T09:34:32Z</time>
      </trkpt>
      <trkpt lat="49.04974" lon="3.52037">
        <ele>65</ele>
        <time>2018-03-31T09:35:32Z</time>
      </trkpt>
      <trkpt lat="49.04975" lon="3.52044">
        <ele>65</ele>
        <time>2018-03-31T09:36:32Z</time>
      </trkpt>
      <trkpt lat="49.04975" lon="3.52049">
        <ele>66</ele>
        <time>2018-03-31T09:37:32Z</time>
      </trkpt>
      <trkpt lat="49.04977" lon="3.52055">
        <ele>66</ele>
        <time>2018-03-31T09:38:32Z</time>
      </trkpt>
      <trkpt lat="49.04979" lon="3.52062">
        <ele>66</ele>
        <time>2018-03-31T09:39:32Z</time>
      </trkpt>
      <trkpt lat="49.04981" lon="3.52069">
        <ele>66</ele>
        <time>2018-03-31T09:40:32Z</time>
      </trkpt>
      <trkpt lat="49.04984" lon="3.52076">
        <ele>66</ele>
        <time>2018-03-31T09:41:32Z</time>
      </trkpt>
      <trkpt lat="49.04986" lon="3.52082">
        <ele>66</ele>
        <time>2018-03-31T09:42:32Z</time>
      </trkpt>
      <trkpt lat="49.04992" lon="3.52094">
        <ele>67</ele>
        <time>2018-03-31T09:43:32Z</time>
      </trkpt>
      <trkpt lat="49.05003" lon="3.52107">
        <ele>67</ele>
        <time>2018-03-31T09:44:32Z</time>
      </trkpt>
      <trkpt lat="49.05013" lon="3.52117">
        <ele>68</ele>
        <time>2018-03-31T09:45:32Z</time>
      </trkpt>
      <trkpt lat="49.05018" lon="3.52121">
        <ele>68</ele>
        <time>2018-03-31T09:46:32Z</time>
      </trkpt>
      <trkpt lat="49.05024" lon="3.52125">
        <ele>68</ele>
        <time>2018-03-31T09:47:32Z</time>
      </trkpt>
      <trkpt lat="49.0503" lon="3.52128">
        <ele>68</ele>
        <time>2018-03-31T09:48:32Z</time>
      </trkpt>
      <trkpt lat="49.05039" lon="3.5213">
        <ele>68</ele>
        <time>2018-03-31T09:49:32Z</time>
      </trkpt>
      <trkpt lat="49.05046" lon="3.52131">
        <ele>68</ele>
        <time>2018-03-31T09:50:32Z</time>
      </trkpt>
      <trkpt lat="49.05055" lon="3.52132">
        <ele>68</ele>
        <time>2018-03-31T09:51:32Z</time>
      </trkpt>
      <trkpt lat="49.05063" lon="3.52132">
        <ele>68</ele>
        <time>2018-03-31T09:52:32Z</time>
      </trkpt>
      <trkpt lat="49.0507" lon="3.52131">
        <ele>68</ele>
        <time>2018-03-31T09:53:32Z</time>
      </trkpt>
      <trkpt lat="49.05081" lon="3.5213">
        <ele>68</ele>
        <time>2018-03-31T09:54:32Z</time>
      </trkpt>
      <trkpt lat="49.05104" lon="3.52126">
        <ele>68</ele>
        <time>2018-03-31T09:55:32Z</time>
      </trkpt>
      <trkpt lat="49.05105" lon="3.52126">
        <ele>68</ele>
        <time>2018-03-31T09:56:32Z</time>
      </trkpt>
      <trkpt lat="49.05124" lon="3.52124">
        <ele>68</ele>
        <time>2018-03-31T09:57:32Z</time>
      </trkpt>
      <trkpt lat="49.05139" lon="3.52122">
        <ele>67</ele>
        <time>2018-03-31T09:58:32Z</time>
      </trkpt>
      <trkpt lat="49.05178" lon="3.52117">
        <ele>67</ele>
        <time>2018-03-31T09:59:32Z</time>
      </trkpt>
      <trkpt lat="49.05217" lon="3.52112">
        <ele>68</ele>
        <time>2018-03-31T10:00:32Z</time>
      </trkpt>
      <trkpt lat="49.05247" lon="3.52108">
        <ele>69</ele>
        <time>2018-03-31T10:01:32Z</time>
      </trkpt>
      <trkpt lat="49.05267" lon="3.52105">
        <ele>70</ele>
        <time>2018-03-31T10:02:32Z</time>
      </trkpt>
      <trkpt lat="49.05311" lon="3.52099">
        <ele>71</ele>
        <time>2018-03-31T10:03:32Z</time>
      </trkpt>
      <trkpt lat="49.05412" lon="3.52086">
        <ele>74</ele>
        <time>2018-03-31T10:04:32Z</time>
      </trkpt>
      <trkpt lat="49.05482" lon="3.52077">
        <ele>77</ele>
        <time>2018-03-31T10:05:32Z</time>
      </trkpt>
      <trkpt lat="49.05492" lon="3.52076">
        <ele>77</ele>
        <time>2018-03-31T10:06:32Z</time>
      </trkpt>
      <trkpt lat="49.05504" lon="3.52075">
        <ele>78</ele>
        <time>2018-03-31T10:07:32Z</time>
      </trkpt>
      <trkpt lat="49.05524" lon="3.52075">
        <ele>78</ele>
        <time>2018-03-31T10:08:32Z</time>
      </trkpt>
      <trkpt lat="49.0555" lon="3.52077">
        <ele>79</ele>
        <time>2018-03-31T10:09:32Z</time>
      </trkpt>
      <trkpt lat="49.05573" lon="3.52079">
        <ele>79</ele>
        <time>2018-03-31T10:10:32Z</time>
      </trkpt>
      <trkpt lat="49.05589" lon="3.52079">
        <ele>80</ele>
        <time>2018-03-31T10:11:32Z</time>
      </trkpt>
      <trkpt lat="49.05614" lon="3.52081">
        <ele>79</ele>
        <time>2018-03-31T10:12:32Z</time>
      </trkpt>
      <trkpt lat="49.05657" lon="3.52084">
        <ele>77</ele>
        <time>2018-03-31T10:13:32Z</time>
      </trkpt>
      <trkpt lat="49.05698" lon="3.52086">
        <ele>76</ele>
        <time>2018-03-31T10:14:32Z</time>
      </trkpt>
      <trkpt lat="49.05727" lon="3.52088">
        <ele>75</ele>
        <time>2018-03-31T10:15:32Z</time>
      </trkpt>
      <trkpt lat="49.0578" lon="3.52092">
        <ele>75</ele>
        <time>2018-03-31T10:16:32Z</time>
      </trkpt>
      <trkpt lat="49.05809" lon="3.52094">
        <ele>76</ele>
        <time>2018-03-31T10:17:32Z</time>
      </trkpt>
      <trkpt lat="49.05844" lon="3.52096">
        <ele>76</ele>
        <time>2018-03-31T10:18:32Z</time>
      </trkpt>
      <trkpt lat="49.05874" lon="3.52097">
        <ele>78</ele>
        <time>2018-03-31T10:19:32Z</time>
      </trkpt>
      <trkpt lat="49.05897" lon="3.52099">
        <ele>79</ele>
        <time>2018-03-31T10:20:32Z</time>
      </trkpt>
      <trkpt lat="49.05919" lon="3.52099">
        <ele>80</ele>
        <time>2018-03-31T10:21:32Z</time>
      </trkpt>
      <trkpt lat="49.05933" lon="3.521">
        <ele>80</ele>
        <time>2018-03-31T10:22:32Z</time>
      </trkpt>
      <trkpt lat="49.05946" lon="3.52101">
        <ele>80</ele>
        <time>2018-03-31T10:23:32Z</time>
      </trkpt>
      <trkpt lat="49.05992" lon="3.52104">
        <ele>81</ele>
        <time>2018-03-31T10:24:32Z</time>
      </trkpt>
      <trkpt lat="49.06004" lon="3.52106">
        <ele>81</ele>
        <time>2018-03-31T10:25:32Z</time>
      </trkpt>
      <trkpt lat="49.06022" lon="3.52111">
        <ele>81</ele>
        <time>2018-03-31T10:26:32Z</time>
      </trkpt>
      <trkpt lat="49.06036" lon="3.52119">
        <ele>81</ele>
        <time>2018-03-31T10:27:32Z</time>
      </trkpt>
      <trkpt lat="49.06064" lon="3.52134">
        <ele>81</ele>
        <time>2018-03-31T10:28:32Z</time>
      </trkpt>
      <trkpt lat="49.0608" lon="3.52143">
        <ele>81</ele>
        <time>2018-03-31T10:29:32Z</time>
      </trkpt>
      <trkpt lat="49.06091" lon="3.52149">
        <ele>81</ele>
        <time>2018-03-31T10:30:32Z</time>
      </trkpt>
      <trkpt lat="49.06115" lon="3.52163">
        <ele>81</ele>
        <time>2018-03-31T10:31:32Z</time>
      </trkpt>
      <trkpt lat="49.06194" lon="3.52207">
        <ele>83</ele>
        <time>2018-03-31T10:32:32Z</time>
      </trkpt>
      <trkpt lat="49.06274" lon="3.52252">
        <ele>85</ele>
        <time>2018-03-31T10:33:32Z</time>
      </trkpt>
      <trkpt lat="49.06297" lon="3.52265">
        <ele>86</ele>
        <time>2018-03-31T10:34:32Z</time>
      </trkpt>
      <trkpt lat="49.06344" lon="3.52292">
        <ele>87</ele>
        <time>2018-03-31T10:35:32Z</time>
      </trkpt>
      <trkpt lat="49.06429" lon="3.5234">
        <ele>88</ele>
        <time>2018-03-31T10:36:32Z</time>
      </trkpt>
      <trkpt lat="49.0645" lon="3.52353">
        <ele>87</ele>
        <time>2018-03-31T10:37:32Z</time>
      </trkpt>
      <trkpt lat="49.06461" lon="3.52361">
        <ele>87</ele>
        <time>2018-03-31T10:38:32Z</time>
      </trkpt>
      <trkpt lat="49.06469" lon="3.52367">
        <ele>87</ele>
        <time>2018-03-31T10:39:32Z</time>
      </trkpt>
      <trkpt lat="49.06475" lon="3.52373">
        <ele>87</ele>
        <time>2018-03-31T10:40:32Z</time>
      </trkpt>
      <trkpt lat="49.06482" lon="3.52379">
        <ele>87</ele>
        <time>2018-03-31T10:41:32Z</time>
      </trkpt>
      <trkpt lat="49.06491" lon="3.52388">
        <ele>87</ele>
        <time>2018-03-31T10:42:32Z</time>
      </trkpt>
      <trkpt lat="49.065" lon="3.52398">
        <ele>87</ele>
        <time>2018-03-31T10:43:32Z</time>
      </trkpt>
      <trkpt lat="49.0651" lon="3.5241">
        <ele>86</ele>
        <time>2018-03-31T10:44:32Z</time>
      </trkpt>
      <trkpt lat="49.06524" lon="3.52426">
        <ele>86</ele>
        <time>2018-03-31T10:45:32Z</time>
      </trkpt>
      <trkpt lat="49.06544" lon="3.52452">
        <ele>85</ele>
        <time>2018-03-31T10:46:32Z</time>
      </trkpt>
      <trkpt lat="49.0657" lon="3.52484">
        <ele>84</ele>
        <time>2018-03-31T10:47:32Z</time>
      </trkpt>
      <trkpt lat="49.066" lon="3.5252">
        <ele>83</ele>
        <time>2018-03-31T10:48:32Z</time>
      </trkpt>
      <trkpt lat="49.06631" lon="3.52558">
        <ele>83</ele>
        <time>2018-03-31T10:49:32Z</time>
      </trkpt>
      <trkpt lat="49.06652" lon="3.52585">
        <ele>82</ele>
        <time>2018-03-31T10:50:32Z</time>
      </trkpt>
      <trkpt lat="49.06679" lon="3.5262">
        <ele>82</ele>
        <time>2018-03-31T10:51:32Z</time>
      </trkpt>
      <trkpt lat="49.06764" lon="3.52723">
        <ele>86</ele>
        <time>2018-03-31T10:52:32Z</time>
      </trkpt>
      <trkpt lat="49.06817" lon="3.52788">
        <ele>86</ele>
        <time>2018-03-31T10:53:32Z</time>
      </trkpt>
      <trkpt lat="49.06822" lon="3.52795">
        <ele>86</ele>
        <time>2018-03-31T10:54:32Z</time>
      </trkpt>
      <trkpt lat="49.0683" lon="3.52805">
        <ele>86</ele>
        <time>2018-03-31T10:55:32Z</time>
      </trkpt>
      <trkpt lat="49.06838" lon="3.52817">
        <ele>87</ele>
        <time>2018-03-31T10:56:32Z</time>
      </trkpt>
      <trkpt lat="49.06843" lon="3.52824">
        <ele>87</ele>
        <time>2018-03-31T10:57:32Z</time>
      </trkpt>
      <trkpt lat="49.06854" lon="3.52846">
        <ele>87</ele>
        <time>2018-03-31T10:58:32Z</time>
      </trkpt>
      <trkpt lat="49.06865" lon="3.52873">
        <ele>88</ele>
        <time>2018-03-31T10:59:32Z</time>
      </trkpt>
      <trkpt lat="49.06898" lon="3.52965">
        <ele>90</ele>
        <time>2018-03-31T11:00:32Z</time>
      </trkpt>
      <trkpt lat="49.06934" lon="3.53067">
        <ele>90</ele>
        <time>2018-03-31T11:01:32Z</time>
      </trkpt>
      <trkpt lat="49.06975" lon="3.53184">
        <ele>87</ele>
        <time>2018-03-31T11:02:32Z</time>
      </trkpt>
      <trkpt lat="49.07013" lon="3.53287">
        <ele>85</ele>
        <time>2018-03-31T11:03:32Z</time>
      </trkpt>
      <trkpt lat="49.0705" lon="3.5339">
        <ele>83</ele>
        <time>2018-03-31T11:04:32Z</time>
      </trkpt>
      <trkpt lat="49.07096" lon="3.53519">
        <ele>82</ele>
        <time>2018-03-31T11:05:32Z</time>
      </trkpt>
      <trkpt lat="49.07126" lon="3.53601">
        <ele>82</ele>
        <time>2018-03-31T11:06:32Z</time>
      </trkpt>
      <trkpt lat="49.07138" lon="3.53633">
        <ele>83</ele>
        <time>2018-03-31T11:07:32Z</time>
      </trkpt>
      <trkpt lat="49.07139" lon="3.53643">
        <ele>83</ele>
        <time>2018-03-31T11:08:32Z</time>
      </trkpt>
      <trkpt lat="49.07155" lon="3.53687">
        <ele>84</ele>
        <time>2018-03-31T11:09:32Z</time>
      </trkpt>
      <trkpt lat="49.07181" lon="3.53759">
        <ele>84</ele>
        <time>2018-03-31T11:10:32Z</time>
      </trkpt>
      <trkpt lat="49.07186" lon="3.53773">
        <ele>85</ele>
        <time>2018-03-31T11:11:32Z</time>
      </trkpt>
      <trkpt lat="49.07199" lon="3.53808">
        <ele>85</ele>
        <time>2018-03-31T11:12:32Z</time>
      </trkpt>
      <trkpt lat="49.07199" lon="3.53809">
        <ele>85</ele>
        <time>2018-03-31T11:13:32Z</time>
      </trkpt>
      <trkpt lat="49.07206" lon="3.53829">
        <ele>85</ele>
        <time>2018-03-31T11:14:32Z</time>
      </trkpt>
      <trkpt lat="49.0721" lon="3.53843">
        <ele>85</ele>
        <time>2018-03-31T11:15:32Z</time>
      </trkpt>
      <trkpt lat="49.07215" lon="3.53861">
        <ele>85</ele>
        <time>2018-03-31T11:16:32Z</time>
      </trkpt>
      <trkpt lat="49.0722" lon="3.53881">
        <ele>85</ele>
        <time>2018-03-31T11:17:32Z</time>
      </trkpt>
      <trkpt lat="49.0722" lon="3.53881">
        <ele>85</ele>
        <time>2018-03-31T11:18:32Z</time>
      </trkpt>
      <trkpt lat="49.07224" lon="3.53879">
        <ele>84</ele>
        <time>2018-03-31T11:19:32Z</time>
      </trkpt>
      <trkpt lat="49.07231" lon="3.53877">
        <ele>84</ele>
        <time>2018-03-31T11:20:32Z</time>
      </trkpt>
      <trkpt lat="49.07238" lon="3.53877">
        <ele>83</ele>
        <time>2018-03-31T11:21:32Z</time>
      </trkpt>
      <trkpt lat="49.07249" lon="3.53882">
        <ele>82</ele>
        <time>2018-03-31T11:22:32Z</time>
      </trkpt>
      <trkpt lat="49.07268" lon="3.53893">
        <ele>81</ele>
        <time>2018-03-31T11:23:32Z</time>
      </trkpt>
      <trkpt lat="49.07288" lon="3.53902">
        <ele>80</ele>
        <time>2018-03-31T11:24:32Z</time>
      </trkpt>
      <trkpt lat="49.07364" lon="3.53938">
        <ele>77</ele>
        <time>2018-03-31T11:25:32Z</time>
      </trkpt>
      <trkpt lat="49.07386" lon="3.53949">
        <ele>76</ele>
        <time>2018-03-31T11:26:32Z</time>
      </trkpt>
      <trkpt lat="49.07407" lon="3.53957">
        <ele>75</ele>
        <time>2018-03-31T11:27:32Z</time>
      </trkpt>
      <trkpt lat="49.07434" lon="3.53971">
        <ele>74</ele>
        <time>2018-03-31T11:28:32Z</time>
      </trkpt>
      <trkpt lat="49.07464" lon="3.53984">
        <ele>73</ele>
        <time>2018-03-31T11:29:32Z</time>
      </trkpt>
      <trkpt lat="49.0748" lon="3.5399">
        <ele>73</ele>
        <time>2018-03-31T11:30:32Z</time>
      </trkpt>
      <trkpt lat="49.07494" lon="3.53993">
        <ele>72</ele>
        <time>2018-03-31T11:31:32Z</time>
      </trkpt>
      <trkpt lat="49.07506" lon="3.53994">
        <ele>72</ele>
        <time>2018-03-31T11:32:32Z</time>
      </trkpt>
      <trkpt lat="49.07519" lon="3.53994">
        <ele>71</ele>
        <time>2018-03-31T11:33:32Z</time>
      </trkpt>
      <trkpt lat="49.07526" lon="3.53993">
        <ele>71</ele>
        <time>2018-03-31T11:34:32Z</time>
      </trkpt>
      <trkpt lat="49.07539" lon="3.5399">
        <ele>71</ele>
        <time>2018-03-31T11:35:32Z</time>
      </trkpt>
      <trkpt lat="49.07544" lon="3.53988">
        <ele>70</ele>
        <time>2018-03-31T11:36:32Z</time>
      </trkpt>
      <trkpt lat="49.07548" lon="3.53986">
        <ele>70</ele>
        <time>2018-03-31T11:37:32Z</time>
      </trkpt>
      <trkpt lat="49.07558" lon="3.5398">
        <ele>70</ele>
        <time>2018-03-31T11:38:32Z</time>
      </trkpt>
      <trkpt lat="49.07569" lon="3.53972">
        <ele>69</ele>
        <time>2018-03-31T11:39:32Z</time>
      </trkpt>
      <trkpt lat="49.07582" lon="3.5396">
        <ele>69</ele>
        <time>2018-03-31T11:40:32Z</time>
      </trkpt>
      <trkpt lat="49.07616" lon="3.5393">
        <ele>69</ele>
        <time>2018-03-31T11:41:32Z</time>
      </trkpt>
      <trkpt lat="49.07681" lon="3.5387">
        <ele>67</ele>
        <time>2018-03-31T11:42:32Z</time>
      </trkpt>
      <trkpt lat="49.07759" lon="3.53797">
        <ele>64</ele>
        <time>2018-03-31T11:43:32Z</time>
      </trkpt>
      <trkpt lat="49.07792" lon="3.53765">
        <ele>65</ele>
        <time>2018-03-31T11:44:32Z</time>
      </trkpt>
      <trkpt lat="49.07813" lon="3.53746">
        <ele>65</ele>
        <time>2018-03-31T11:45:32Z</time>
      </trkpt>
      <trkpt lat="49.07817" lon="3.53742">
        <ele>66</ele>
        <time>2018-03-31T11:46:32Z</time>
      </trkpt>
      <trkpt lat="49.07927" lon="3.53638">
        <ele>66</ele>
        <time>2018-03-31T11:47:32Z</time>
      </trkpt>
      <trkpt lat="49.07935" lon="3.5363">
        <ele>66</ele>
        <time>2018-03-31T11:48:32Z</time>
      </trkpt>
      <trkpt lat="49.07943" lon="3.53622">
        <ele>66</ele>
        <time>2018-03-31T11:49:32Z</time>
      </trkpt>
      <trkpt lat="49.08077" lon="3.535">
        <ele>60</ele>
        <time>2018-03-31T11:50:32Z</time>
      </trkpt>
      <trkpt lat="49.08274" lon="3.53315">
        <ele>60</ele>
        <time>2018-03-31T11:51:32Z</time>
      </trkpt>
      <trkpt lat="49.08291" lon="3.53299">
        <ele>60</ele>
        <time>2018-03-31T11:52:32Z</time>
      </trkpt>
      <trkpt lat="49.08311" lon="3.53279">
        <ele>61</ele>
        <time>2018-03-31T11:53:32Z</time>
      </trkpt>
      <trkpt lat="49.08325" lon="3.53267">
        <ele>62</ele>
        <time>2018-03-31T11:54:32Z</time>
      </trkpt>
      <trkpt lat="49.08328" lon="3.53264">
        <ele>62</ele>
        <time>2018-03-31T11:55:32Z</time>
      </trkpt>
      <trkpt lat="49.08341" lon="3.53253">
        <ele>62</ele>
        <time>2018-03-31T11:56:32Z</time>
      </trkpt>
      <trkpt lat="49.0836" lon="3.53234">
        <ele>62</ele>
        <time>2018-03-31T11:57:32Z</time>
      </trkpt>
      <trkpt lat="49.0837" lon="3.53224">
        <ele>62</ele>
        <time>2018-03-31T11:58:32Z</time>
      </trkpt>
      <trkpt lat="49.08371" lon="3.53224">
        <ele>62</ele>
        <time>2018-03-31T11:59:32Z</time>
      </trkpt>
      <trkpt lat="49.08387" lon="3.53209">
        <ele>61</ele>
        <time>2018-03-31T12:00:32Z</time>
      </trkpt>
      <trkpt lat="49.08402" lon="3.53194">
        <ele>61</ele>
        <time>2018-03-31T12:01:32Z</time>
      </trkpt>
      <trkpt lat="49.0842" lon="3.53178">
        <ele>61</ele>
        <time>2018-03-31T12:02:32Z</time>
      </trkpt>
      <trkpt lat="49.08428" lon="3.53171">
        <ele>62</ele>
        <time>2018-03-31T12:03:32Z</time>
      </trkpt>
      <trkpt lat="49.08429" lon="3.53169">
        <ele>62</ele>
        <time>2018-03-31T12:04:32Z</time>
      </trkpt>
      <trkpt lat="49.08432" lon="3.53167">
        <ele>62</ele>
        <time>2018-03-31T12:05:32Z</time>
      </trkpt>
      <trkpt lat="49.08435" lon="3.53164">
        <ele>62</ele>
        <time>2018-03-31T12:06:32Z</time>
      </trkpt>
      <trkpt lat="49.08445" lon="3.53155">
        <ele>63</ele>
        <time>2018-03-31T12:07:32Z</time>
      </trkpt>
      <trkpt lat="49.08452" lon="3.53149">
        <ele>64</ele>
        <time>2018-03-31T12:08:32Z</time>
      </trkpt>
      <trkpt lat="49.08454" lon="3.53144">
        <ele>64</ele>
        <time>2018-03-31T12:09:32Z</time>
      </trkpt>
      <trkpt lat="49.08454" lon="3.53144">
        <ele>64</ele>
        <time>2018-03-31T12:10:32Z</time>
      </trkpt>
      <trkpt lat="49.08465" lon="3.53145">
        <ele>65</ele>
        <time>2018-03-31T12:11:32Z</time>
      </trkpt>
      <trkpt lat="49.08468" lon="3.53144">
        <ele>65</ele>
        <time>2018-03-31T12:12:32Z</time>
      </trkpt>
      <trkpt lat="49.08474" lon="3.53142">
        <ele>65</ele>
        <time>2018-03-31T12:13:32Z</time>
      </trkpt>
      <trkpt lat="49.08479" lon="3.5314">
        <ele>66</ele>
        <time>2018-03-31T12:14:32Z</time>
      </trkpt>
      <trkpt lat="49.08483" lon="3.53137">
        <ele>66</ele>
        <time>2018-03-31T12:15:32Z</time>
      </trkpt>
      <trkpt lat="49.08485" lon="3.53139">
        <ele>66</ele>
        <time>2018-03-31T12:16:32Z</time>
      </trkpt>
      <trkpt lat="49.08517" lon="3.53157">
        <ele>67</ele>
        <time>2018-03-31T12:17:32Z</time>
      </trkpt>
      <trkpt lat="49.08518" lon="3.53158">
        <ele>67</ele>
        <time>2018-03-31T12:18:32Z</time>
      </trkpt>
      <trkpt lat="49.08528" lon="3.53163">
        <ele>68</ele>
        <time>2018-03-31T12:19:32Z</time>
      </trkpt>
      <trkpt lat="49.08552" lon="3.53176">
        <ele>69</ele>
        <time>2018-03-31T12:20:32Z</time>
      </trkpt>
      <trkpt lat="49.08573" lon="3.53186">
        <ele>70</ele>
        <time>2018-03-31T12:21:32Z</time>
      </trkpt>
      <trkpt lat="49.08589" lon="3.53193">
        <ele>70</ele>
        <time>2018-03-31T12:22:32Z</time>
      </trkpt>
      <trkpt lat="49.08606" lon="3.532">
        <ele>71</ele>
        <time>2018-03-31T12:23:32Z</time>
      </trkpt>
      <trkpt lat="49.08616" lon="3.53201">
        <ele>71</ele>
        <time>2018-03-31T12:24:32Z</time>
      </trkpt>
      <trkpt lat="49.08622" lon="3.53202">
        <ele>71</ele>
        <time>2018-03-31T12:25:32Z</time>
      </trkpt>
      <trkpt lat="49.08652" lon="3.53206">
        <ele>73</ele>
        <time>2018-03-31T12:26:32Z</time>
      </trkpt>
      <trkpt lat="49.0869" lon="3.53208">
        <ele>75</ele>
        <time>2018-03-31T12:27:32Z</time>
      </trkpt>
      <trkpt lat="49.0872" lon="3.5321">
        <ele>77</ele>
        <time>2018-03-31T12:28:32Z</time>
      </trkpt>
      <trkpt lat="49.08755" lon="3.53212">
        <ele>79</ele>
        <time>2018-03-31T12:29:32Z</time>
      </trkpt>
      <trkpt lat="49.08781" lon="3.53214">
        <ele>79</ele>
        <time>2018-03-31T12:30:32Z</time>
      </trkpt>
      <trkpt lat="49.08785" lon="3.53214">
        <ele>79</ele>
        <time>2018-03-31T12:31:32Z</time>
      </trkpt>
      <trkpt lat="49.08788" lon="3.53213">
        <ele>79</ele>
        <time>2018-03-31T12:32:32Z</time>
      </trkpt>
      <trkpt lat="49.08793" lon="3.53211">
        <ele>79</ele>
        <time>2018-03-31T12:33:32Z</time>
      </trkpt>
      <trkpt lat="49.08797" lon="3.53207">
        <ele>79</ele>
        <time>2018-03-31T12:34:32Z</time>
      </trkpt>
      <trkpt lat="49.08797" lon="3.53207">
        <ele>79</ele>
        <time>2018-03-31T12:35:32Z</time>
      </trkpt>
      <trkpt lat="49.08809" lon="3.53228">
        <ele>79</ele>
        <time>2018-03-31T12:36:32Z</time>
      </trkpt>
      <trkpt lat="49.08817" lon="3.53244">
        <ele>79</ele>
        <time>2018-03-31T12:37:32Z</time>
      </trkpt>
      <trkpt lat="49.08827" lon="3.53264">
        <ele>78</ele>
        <time>2018-03-31T12:38:32Z</time>
      </trkpt>
      <trkpt lat="49.08828" lon="3.53265">
        <ele>78</ele>
        <time>2018-03-31T12:39:32Z</time>
      </trkpt>
      <trkpt lat="49.08829" lon="3.53267">
        <ele>78</ele>
        <time>2018-03-31T12:40:32Z</time>
      </trkpt>
      <trkpt lat="49.08841" lon="3.53292">
        <ele>78</ele>
        <time>2018-03-31T12:41:32Z</time>
      </trkpt>
      <trkpt lat="49.08856" lon="3.5332">
        <ele>77</ele>
        <time>2018-03-31T12:42:32Z</time>
      </trkpt>
      <trkpt lat="49.08869" lon="3.53343">
        <ele>77</ele>
        <time>2018-03-31T12:43:32Z</time>
      </trkpt>
      <trkpt lat="49.08875" lon="3.53351">
        <ele>76</ele>
        <time>2018-03-31T12:44:32Z</time>
      </trkpt>
      <trkpt lat="49.08895" lon="3.53375">
        <ele>76</ele>
        <time>2018-03-31T12:45:32Z</time>
      </trkpt>
      <trkpt lat="49.08907" lon="3.53389">
        <ele>75</ele>
        <time>2018-03-31T12:46:32Z</time>
      </trkpt>
      <trkpt lat="49.08914" lon="3.53396">
        <ele>75</ele>
        <time>2018-03-31T12:47:32Z</time>
      </trkpt>
      <trkpt lat="49.08918" lon="3.53402">
        <ele>75</ele>
        <time>2018-03-31T12:48:32Z</time>
      </trkpt>
      <trkpt lat="49.08925" lon="3.53412">
        <ele>75</ele>
        <time>2018-03-31T12:49:32Z</time>
      </trkpt>
      <trkpt lat="49.08933" lon="3.53424">
        <ele>75</ele>
        <time>2018-03-31T12:50:32Z</time>
      </trkpt>
      <trkpt lat="49.08943" lon="3.53441">
        <ele>75</ele>
        <time>2018-03-31T12:51:32Z</time>
      </trkpt>
      <trkpt lat="49.08958" lon="3.53476">
        <ele>75</ele>
        <time>2018-03-31T12:52:32Z</time>
      </trkpt>
      <trkpt lat="49.08966" lon="3.53489">
        <ele>75</ele>
        <time>2018-03-31T12:53:32Z</time>
      </trkpt>
      <trkpt lat="49.08981" lon="3.53507">
        <ele>75</ele>
        <time>2018-03-31T12:54:32Z</time>
      </trkpt>
      <trkpt lat="49.08998" lon="3.53525">
        <ele>75</ele>
        <time>2018-03-31T12:55:32Z</time>
      </trkpt>
      <trkpt lat="49.0901" lon="3.53537">
        <ele>75</ele>
        <time>2018-03-31T12:56:32Z</time>
      </trkpt>
      <trkpt lat="49.0902" lon="3.53547">
        <ele>75</ele>
        <time>2018-03-31T12:57:32Z</time>
      </trkpt>
      <trkpt lat="49.09025" lon="3.53554">
        <ele>75</ele>
        <time>2018-03-31T12:58:32Z</time>
      </trkpt>
      <trkpt lat="49.09037" lon="3.53567">
        <ele>75</ele>
        <time>2018-03-31T12:59:32Z</time>
      </trkpt>
      <trkpt lat="49.09102" lon="3.53651">
        <ele>75</ele>
        <time>2018-03-31T13:00:32Z</time>
      </trkpt>
      <trkpt lat="49.09115" lon="3.53668">
        <ele>75</ele>
        <time>2018-03-31T13:01:32Z</time>
      </trkpt>
      <trkpt lat="49.09126" lon="3.53679">
        <ele>76</ele>
        <time>2018-03-31T13:02:32Z</time>
      </trkpt>
      <trkpt lat="49.09145" lon="3.53696">
        <ele>77</ele>
        <time>2018-03-31T13:03:32Z</time>
      </trkpt>
      <trkpt lat="49.09178" lon="3.53723">
        <ele>79</ele>
        <time>2018-03-31T13:04:32Z</time>
      </trkpt>
      <trkpt lat="49.09206" lon="3.53745">
        <ele>80</ele>
        <time>2018-03-31T13:05:32Z</time>
      </trkpt>
      <trkpt lat="49.09362" lon="3.53859">
        <ele>90</ele>
        <time>2018-03-31T13:06:32Z</time>
      </trkpt>
      <trkpt lat="49.09394" lon="3.5388">
        <ele>91</ele>
        <time>2018-03-31T13:07:32Z</time>
      </trkpt>
      <trkpt lat="49.09429" lon="3.53903">
        <ele>94</ele>
        <time>2018-03-31T13:08:32Z</time>
      </trkpt>
      <trkpt lat="49.09467" lon="3.5393">
        <ele>100</ele>
        <time>2018-03-31T13:09:32Z</time>
      </trkpt>
      <trkpt lat="49.09492" lon="3.53947">
        <ele>103</ele>
        <time>2018-03-31T13:10:32Z</time>
      </trkpt>
      <trkpt lat="49.09506" lon="3.53957">
        <ele>105</ele>
        <time>2018-03-31T13:11:32Z</time>
      </trkpt>
      <trkpt lat="49.09519" lon="3.53969">
        <ele>107</ele>
        <time>2018-03-31T13:12:32Z</time>
      </trkpt>
      <trkpt lat="49.09532" lon="3.53983">
        <ele>108</ele>
        <time>2018-03-31T13:13:32Z</time>
      </trkpt>
      <trkpt lat="49.09539" lon="3.53991">
        <ele>108</ele>
        <time>2018-03-31T13:14:32Z</time>
      </trkpt>
      <trkpt lat="49.09549" lon="3.54004">
        <ele>109</ele>
        <time>2018-03-31T13:15:32Z</time>
      </trkpt>
      <trkpt lat="49.09558" lon="3.54018">
        <ele>109</ele>
        <time>2018-03-31T13:16:32Z</time>
      </trkpt>
      <trkpt lat="49.09566" lon="3.54034">
        <ele>109</ele>
        <time>2018-03-31T13:17:32Z</time>
      </trkpt>
      <trkpt lat="49.0962" lon="3.54146">
        <ele>109</ele>
        <time>2018-03-31T13:18:32Z</time>
      </trkpt>
      <trkpt lat="49.09634" lon="3.54177">
        <ele>109</ele>
        <time>2018-03-31T13:19:32Z</time>
      </trkpt>
      <trkpt lat="49.09646" lon="3.54208">
        <ele>110</ele>
        <time>2018-03-31T13:20:32Z</time>
      </trkpt>
      <trkpt lat="49.0966" lon="3.54248">
        <ele>110</ele>
        <time>2018-03-31T13:21:32Z</time>
      </trkpt>
      <trkpt lat="49.09669" lon="3.54266">
        <ele>111</ele>
        <time>2018-03-31T13:22:32Z</time>
      </trkpt>
      <trkpt lat="49.09677" lon="3.54277">
        <ele>111</ele>
        <time>2018-03-31T13:23:32Z</time>
      </trkpt>
      <trkpt lat="49.09677" lon="3.54278">
        <ele>111</ele>
        <time>2018-03-31T13:24:32Z</time>
      </trkpt>
      <trkpt lat="49.0969" lon="3.54287">
        <ele>112</ele>
        <time>2018-03-31T13:25:32Z</time>
      </trkpt>
      <trkpt lat="49.09707" lon="3.54294">
        <ele>115</ele>
        <time>2018-03-31T13:26:32Z</time>
      </trkpt>
      <trkpt lat="49.09735" lon="3.54299">
        <ele>120</ele>
        <time>2018-03-31T13:27:32Z</time>
      </trkpt>
      <trkpt lat="49.09755" lon="3.54303">
        <ele>123</ele>
        <time>2018-03-31T13:28:32Z</time>
      </trkpt>
      <trkpt lat="49.09768" lon="3.54305">
        <ele>125</ele>
        <time>2018-03-31T13:29:32Z</time>
      </trkpt>
      <trkpt lat="49.09792" lon="3.5431">
        <ele>127</ele>
        <time>2018-03-31T13:30:32Z</time>
      </trkpt>
      <trkpt lat="49.09814" lon="3.54314">
        <ele>130</ele>
        <time>2018-03-31T13:31:32Z</time>
      </trkpt>
      <trkpt lat="49.09858" lon="3.54326">
        <ele>134</ele>
        <time>2018-03-31T13:32:32Z</time>
      </trkpt>
      <trkpt lat="49.09866" lon="3.54329">
        <ele>134</ele>
        <time>2018-03-31T13:33:32Z</time>
      </trkpt>
      <trkpt lat="49.09869" lon="3.54332">
        <ele>134</ele>
        <time>2018-03-31T13:34:32Z</time>
      </trkpt>
      <trkpt lat="49.09877" lon="3.54341">
        <ele>134</ele>
        <time>2018-03-31T13:35:32Z</time>
      </trkpt>
      <trkpt lat="49.0988" lon="3.54348">
        <ele>134</ele>
        <time>2018-03-31T13:36:32Z</time>
      </trkpt>
      <trkpt lat="49.09881" lon="3.54353">
        <ele>134</ele>
        <time>2018-03-31T13:37:32Z</time>
      </trkpt>
      <trkpt lat="49.09884" lon="3.54372">
        <ele>133</ele>
        <time>2018-03-31T13:38:32Z</time>
      </trkpt>
      <trkpt lat="49.09884" lon="3.54407">
        <ele>132</ele>
        <time>2018-03-31T13:39:32Z</time>
      </trkpt>
      <trkpt lat="49.09884" lon="3.54415">
        <ele>131</ele>
        <time>2018-03-31T13:40:32Z</time>
      </trkpt>
      <trkpt lat="49.09886" lon="3.54454">
        <ele>129</ele>
        <time>2018-03-31T13:41:32Z</time>
      </trkpt>
      <trkpt lat="49.09889" lon="3.54473">
        <ele>129</ele>
        <time>2018-03-31T13:42:32Z</time>
      </trkpt>
      <trkpt lat="49.09893" lon="3.54485">
        <ele>128</ele>
        <time>2018-03-31T13:43:32Z</time>
      </trkpt>
      <trkpt lat="49.09895" lon="3.5449">
        <ele>128</ele>
        <time>2018-03-31T13:44:32Z</time>
      </trkpt>
      <trkpt lat="49.099" lon="3.54496">
        <ele>129</ele>
        <time>2018-03-31T13:45:32Z</time>
      </trkpt>
      <trkpt lat="49.09908" lon="3.54505">
        <ele>129</ele>
        <time>2018-03-31T13:46:32Z</time>
      </trkpt>
      <trkpt lat="49.09917" lon="3.54509">
        <ele>129</ele>
        <time>2018-03-31T13:47:32Z</time>
      </trkpt>
      <trkpt lat="49.09926" lon="3.54513">
        <ele>130</ele>
        <time>2018-03-31T13:48:32Z</time>
      </trkpt>
      <trkpt lat="49.09938" lon="3.54515">
        <ele>130</ele>
        <time>2018-03-31T13:49:32Z</time>
      </trkpt>
      <trkpt lat="49.09961" lon="3.54515">
        <ele>132</ele>
        <time>2018-03-31T13:50:32Z</time>
      </trkpt>
      <trkpt lat="49.09987" lon="3.54516">
        <ele>134</ele>
        <time>2018-03-31T13:51:32Z</time>
      </trkpt>
      <trkpt lat="49.10009" lon="3.54518">
        <ele>136</ele>
        <time>2018-03-31T13:52:32Z</time>
      </trkpt>
      <trkpt lat="49.10061" lon="3.5452">
        <ele>140</ele>
        <time>2018-03-31T13:53:32Z</time>
      </trkpt>
      <trkpt lat="49.10087" lon="3.5452">
        <ele>142</ele>
        <time>2018-03-31T13:54:32Z</time>
      </trkpt>
      <trkpt lat="49.10125" lon="3.54518">
        <ele>145</ele>
        <time>2018-03-31T13:55:32Z</time>
      </trkpt>
      <trkpt lat="49.10153" lon="3.54513">
        <ele>148</ele>
        <time>2018-03-31T13:56:32Z</time>
      </trkpt>
      <trkpt lat="49.10173" lon="3.54505">
        <ele>150</ele>
        <time>2018-03-31T13:57:32Z</time>
      </trkpt>
      <trkpt lat="49.1021" lon="3.5449">
        <ele>151</ele>
        <time>2018-03-31T13:58:32Z</time>
      </trkpt>
      <trkpt lat="49.10249" lon="3.54477">
        <ele>151</ele>
        <time>2018-03-31T13:59:32Z</time>
      </trkpt>
      <trkpt lat="49.10284" lon="3.54473">
        <ele>152</ele>
        <time>2018-03-31T14:00:32Z</time>
      </trkpt>
      <trkpt lat="49.10299" lon="3.54476">
        <ele>152</ele>
        <time>2018-03-31T14:01:32Z</time>
      </trkpt>
      <trkpt lat="49.10305" lon="3.54478">
        <ele>151</ele>
        <time>2018-03-31T14:02:32Z</time>
      </trkpt>
      <trkpt lat="49.10315" lon="3.54488">
        <ele>150</ele>
        <time>2018-03-31T14:03:32Z</time>
      </trkpt>
      <trkpt lat="49.10324" lon="3.54497">
        <ele>149</ele>
        <time>2018-03-31T14:04:32Z</time>
      </trkpt>
      <trkpt lat="49.1033" lon="3.54508">
        <ele>148</ele>
        <time>2018-03-31T14:05:32Z</time>
      </trkpt>
      <trkpt lat="49.10335" lon="3.54518">
        <ele>148</ele>
        <time>2018-03-31T14:06:32Z</time>
      </trkpt>
      <trkpt lat="49.10346" lon="3.5454">
        <ele>148</ele>
        <time>2018-03-31T14:07:32Z</time>
      </trkpt>
      <trkpt lat="49.10358" lon="3.54561">
        <ele>148</ele>
        <time>2018-03-31T14:08:32Z</time>
      </trkpt>
      <trkpt lat="49.10373" lon="3.5458">
        <ele>148</ele>
        <time>2018-03-31T14:09:32Z</time>
      </trkpt>
      <trkpt lat="49.10381" lon="3.54588">
        <ele>148</ele>
        <time>2018-03-31T14:10:32Z</time>
      </trkpt>
      <trkpt lat="49.1041" lon="3.54607">
        <ele>149</ele>
        <time>2018-03-31T14:11:32Z</time>
      </trkpt>
      <trkpt lat="49.10432" lon="3.54619">
        <ele>150</ele>
        <time>2018-03-31T14:12:32Z</time>
      </trkpt>
      <trkpt lat="49.1045" lon="3.5463">
        <ele>151</ele>
        <time>2018-03-31T14:13:32Z</time>
      </trkpt>
      <trkpt lat="49.10478" lon="3.54646">
        <ele>152</ele>
        <time>2018-03-31T14:14:32Z</time>
      </trkpt>
      <trkpt lat="49.10498" lon="3.5466">
        <ele>153</ele>
        <time>2018-03-31T14:15:32Z</time>
      </trkpt>
      <trkpt lat="49.10519" lon="3.54679">
        <ele>155</ele>
        <time>2018-03-31T14:16:32Z</time>
      </trkpt>
      <trkpt lat="49.10551" lon="3.54709">
        <ele>157</ele>
        <time>2018-03-31T14:17:32Z</time>
      </trkpt>
      <trkpt lat="49.10572" lon="3.54731">
        <ele>159</ele>
        <time>2018-03-31T14:18:32Z</time>
      </trkpt>
      <trkpt lat="49.10611" lon="3.54772">
        <ele>161</ele>
        <time>2018-03-31T14:19:32Z</time>
      </trkpt>
      <trkpt lat="49.10645" lon="3.54815">
        <ele>163</ele>
        <time>2018-03-31T14:20:32Z</time>
      </trkpt>
      <trkpt lat="49.10667" lon="3.54845">
        <ele>165</ele>
        <time>2018-03-31T14:21:32Z</time>
      </trkpt>
      <trkpt lat="49.10679" lon="3.54859">
        <ele>165</ele>
        <time>2018-03-31T14:22:32Z</time>
      </trkpt>
      <trkpt lat="49.10696" lon="3.54874">
        <ele>166</ele>
        <time>2018-03-31T14:23:32Z</time>
      </trkpt>
      <trkpt lat="49.10729" lon="3.54901">
        <ele>168</ele>
        <time>2018-03-31T14:24:32Z</time>
      </trkpt>
      <trkpt lat="49.10765" lon="3.54929">
        <ele>171</ele>
        <time>2018-03-31T14:25:32Z</time>
      </trkpt>
      <trkpt lat="49.10783" lon="3.5494">
        <ele>171</ele>
        <time>2018-03-31T14:26:32Z</time>
      </trkpt>
      <trkpt lat="49.10791" lon="3.54942">
        <ele>172</ele>
        <time>2018-03-31T14:27:32Z</time>
      </trkpt>
      <trkpt lat="49.10807" lon="3.54947">
        <ele>173</ele>
        <time>2018-03-31T14:28:32Z</time>
      </trkpt>
      <trkpt lat="49.10824" lon="3.54952">
        <ele>175</ele>
        <time>2018-03-31T14:29:32Z</time>
      </trkpt>
      <trkpt lat="49.10846" lon="3.54956">
        <ele>176</ele>
        <time>2018-03-31T14:30:32Z</time>
      </trkpt>
      <trkpt lat="49.10893" lon="3.54966">
        <ele>178</ele>
        <time>2018-03-31T14:31:32Z</time>
      </trkpt>
      <trkpt lat="49.1093" lon="3.54974">
        <ele>179</ele>
        <time>2018-03-31T14:32:32Z</time>
      </trkpt>
      <trkpt lat="49.10947" lon="3.54978">
        <ele>180</ele>
        <time>2018-03-31T14:33:32Z</time>
      </trkpt>
      <trkpt lat="49.10951" lon="3.54979">
        <ele>180</ele>
        <time>2018-03-31T14:34:32Z</time>
      </trkpt>
      <trkpt lat="49.10957" lon="3.5498">
        <ele>181</ele>
        <time>2018-03-31T14:35:32Z</time>
      </trkpt>
      <trkpt lat="49.10962" lon="3.5498">
        <ele>181</ele>
        <time>2018-03-31T14:36:32Z</time>
      </trkpt>
      <trkpt lat="49.10965" lon="3.5498">
        <ele>181</ele>
        <time>2018-03-31T14:37:32Z</time>
      </trkpt>
      <trkpt lat="49.10969" lon="3.5498">
        <ele>181</ele>
        <time>2018-03-31T14:38:32Z</time>
      </trkpt>
      <trkpt lat="49.10973" lon="3.54979">
        <ele>182</ele>
        <time>2018-03-31T14:39:32Z</time>
      </trkpt>
      <trkpt lat="49.10981" lon="3.54976">
        <ele>182</ele>
        <time>2018-03-31T14:40:32Z</time>
      </trkpt>
      <trkpt lat="49.10991" lon="3.54971">
        <ele>183</ele>
        <time>2018-03-31T14:41:32Z</time>
      </trkpt>
      <trkpt lat="49.10998" lon="3.54967">
        <ele>184</ele>
        <time>2018-03-31T14:42:32Z</time>
      </trkpt>
      <trkpt lat="49.11007" lon="3.54961">
        <ele>184</ele>
        <time>2018-03-31T14:43:32Z</time>
      </trkpt>
      <trkpt lat="49.11016" lon="3.54955">
        <ele>184</ele>
        <time>2018-03-31T14:44:32Z</time>
      </trkpt>
      <trkpt lat="49.1102" lon="3.54952">
        <ele>184</ele>
        <time>2018-03-31T14:45:32Z</time>
      </trkpt>
      <trkpt lat="49.11023" lon="3.54949">
        <ele>184</ele>
        <time>2018-03-31T14:46:32Z</time>
      </trkpt>
      <trkpt lat="49.11026" lon="3.54946">
        <ele>184</ele>
        <time>2018-03-31T14:47:32Z</time>
      </trkpt>
      <trkpt lat="49.11031" lon="3.54941">
        <ele>184</ele>
        <time>2018-03-31T14:48:32Z</time>
      </trkpt>
      <trkpt lat="49.11033" lon="3.54939">
        <ele>184</ele>
        <time>2018-03-31T14:49:32Z</time>
      </trkpt>
      <trkpt lat="49.11036" lon="3.54935">
        <ele>184</ele>
        <time>2018-03-31T14:50:32Z</time>
      </trkpt>
      <trkpt lat="49.11039" lon="3.5493">
        <ele>184</ele>
        <time>2018-03-31T14:51:32Z</time>
      </trkpt>
      <trkpt lat="49.11043" lon="3.54924">
        <ele>185</ele>
        <time>2018-03-31T14:52:32Z</time>
      </trkpt>
      <trkpt lat="49.11046" lon="3.54918">
        <ele>185</ele>
        <time>2018-03-31T14:53:32Z</time>
      </trkpt>
      <trkpt lat="49.11049" lon="3.54912">
        <ele>185</ele>
        <time>2018-03-31T14:54:32Z</time>
      </trkpt>
      <trkpt lat="49.11052" lon="3.54906">
        <ele>185</ele>
        <time>2018-03-31T14:55:32Z</time>
      </trkpt>
      <trkpt lat="49.11054" lon="3.54899">
        <ele>185</ele>
        <time>2018-03-31T14:56:32Z</time>
      </trkpt>
      <trkpt lat="49.11056" lon="3.54895">
        <ele>185</ele>
        <time>2018-03-31T14:57:32Z</time>
      </trkpt>
      <trkpt lat="49.11057" lon="3.54893">
        <ele>185</ele>
        <time>2018-03-31T14:58:32Z</time>
      </trkpt>
      <trkpt lat="49.11062" lon="3.54875">
        <ele>186</ele>
        <time>2018-03-31T14:59:32Z</time>
      </trkpt>
      <trkpt lat="49.1107" lon="3.54846">
        <ele>187</ele>
        <time>2018-03-31T15:00:32Z</time>
      </trkpt>
      <trkpt lat="49.11078" lon="3.54814">
        <ele>188</ele>
        <time>2018-03-31T15:01:32Z</time>
      </trkpt>
      <trkpt lat="49.11083" lon="3.5479">
        <ele>189</ele>
        <time>2018-03-31T15:02:32Z</time>
      </trkpt>
      <trkpt lat="49.11087" lon="3.54774">
        <ele>190</ele>
        <time>2018-03-31T15:03:32Z</time>
      </trkpt>
      <trkpt lat="49.11098" lon="3.54728">
        <ele>191</ele>
        <time>2018-03-31T15:04:32Z</time>
      </trkpt>
      <trkpt lat="49.11112" lon="3.5467">
        <ele>193</ele>
        <time>2018-03-31T15:05:32Z</time>
      </trkpt>
      <trkpt lat="49.11117" lon="3.54644">
        <ele>194</ele>
        <time>2018-03-31T15:06:32Z</time>
      </trkpt>
      <trkpt lat="49.11154" lon="3.54483">
        <ele>201</ele>
        <time>2018-03-31T15:07:32Z</time>
      </trkpt>
      <trkpt lat="49.1118" lon="3.54369">
        <ele>203</ele>
        <time>2018-03-31T15:08:32Z</time>
      </trkpt>
      <trkpt lat="49.11183" lon="3.54359">
        <ele>204</ele>
        <time>2018-03-31T15:09:32Z</time>
      </trkpt>
      <trkpt lat="49.11184" lon="3.54352">
        <ele>204</ele>
        <time>2018-03-31T15:10:32Z</time>
      </trkpt>
      <trkpt lat="49.11189" lon="3.54336">
        <ele>204</ele>
        <time>2018-03-31T15:11:32Z</time>
      </trkpt>
      <trkpt lat="49.11194" lon="3.5432">
        <ele>204</ele>
        <time>2018-03-31T15:12:32Z</time>
      </trkpt>
      <trkpt lat="49.11196" lon="3.54314">
        <ele>204</ele>
        <time>2018-03-31T15:13:32Z</time>
      </trkpt>
      <trkpt lat="49.112" lon="3.54301">
        <ele>204</ele>
        <time>2018-03-31T15:14:32Z</time>
      </trkpt>
      <trkpt lat="49.11206" lon="3.54287">
        <ele>203</ele>
        <time>2018-03-31T15:15:32Z</time>
      </trkpt>
      <trkpt lat="49.11219" lon="3.54258">
        <ele>203</ele>
        <time>2018-03-31T15:16:32Z</time>
      </trkpt>
      <trkpt lat="49.11233" lon="3.54231">
        <ele>204</ele>
        <time>2018-03-31T15:17:32Z</time>
      </trkpt>
      <trkpt lat="49.11244" lon="3.54212">
        <ele>204</ele>
        <time>2018-03-31T15:18:32Z</time>
      </trkpt>
      <trkpt lat="49.11259" lon="3.54184">
        <ele>205</ele>
        <time>2018-03-31T15:19:32Z</time>
      </trkpt>
      <trkpt lat="49.11272" lon="3.54161">
        <ele>205</ele>
        <time>2018-03-31T15:20:32Z</time>
      </trkpt>
      <trkpt lat="49.11301" lon="3.54106">
        <ele>204</ele>
        <time>2018-03-31T15:21:32Z</time>
      </trkpt>
      <trkpt lat="49.11329" lon="3.54055">
        <ele>203</ele>
        <time>2018-03-31T15:22:32Z</time>
      </trkpt>
      <trkpt lat="49.11356" lon="3.54006">
        <ele>205</ele>
        <time>2018-03-31T15:23:32Z</time>
      </trkpt>
      <trkpt lat="49.11367" lon="3.53986">
        <ele>206</ele>
        <time>2018-03-31T15:24:32Z</time>
      </trkpt>
      <trkpt lat="49.1141" lon="3.53908">
        <ele>210</ele>
        <time>2018-03-31T15:25:32Z</time>
      </trkpt>
      <trkpt lat="49.11423" lon="3.53885">
        <ele>210</ele>
        <time>2018-03-31T15:26:32Z</time>
      </trkpt>
      <trkpt lat="49.11428" lon="3.53874">
        <ele>210</ele>
        <time>2018-03-31T15:27:32Z</time>
      </trkpt>
      <trkpt lat="49.11434" lon="3.53862">
        <ele>211</ele>
        <time>2018-03-31T15:28:32Z</time>
      </trkpt>
      <trkpt lat="49.1144" lon="3.5385">
        <ele>211</ele>
        <time>2018-03-31T15:29:32Z</time>
      </trkpt>
      <trkpt lat="49.11445" lon="3.53838">
        <ele>211</ele>
        <time>2018-03-31T15:30:32Z</time>
      </trkpt>
      <trkpt lat="49.1145" lon="3.53826">
        <ele>211</ele>
        <time>2018-03-31T15:31:32Z</time>
      </trkpt>
      <trkpt lat="49.11455" lon="3.53814">
        <ele>212</ele>
        <time>2018-03-31T15:32:32Z</time>
      </trkpt>
      <trkpt lat="49.1146" lon="3.538">
        <ele>212</ele>
        <time>2018-03-31T15:33:32Z</time>
      </trkpt>
      <trkpt lat="49.11468" lon="3.53775">
        <ele>212</ele>
        <time>2018-03-31T15:34:32Z</time>
      </trkpt>
      <trkpt lat="49.11477" lon="3.5375">
        <ele>212</ele>
        <time>2018-03-31T15:35:32Z</time>
      </trkpt>
      <trkpt lat="49.11484" lon="3.5373">
        <ele>213</ele>
        <time>2018-03-31T15:36:32Z</time>
      </trkpt>
      <trkpt lat="49.11494" lon="3.537">
        <ele>213</ele>
        <time>2018-03-31T15:37:32Z</time>
      </trkpt>
      <trkpt lat="49.11512" lon="3.53646">
        <ele>215</ele>
        <time>2018-03-31T15:38:32Z</time>
      </trkpt>
      <trkpt lat="49.1153" lon="3.53594">
        <ele>216</ele>
        <time>2018-03-31T15:39:32Z</time>
      </trkpt>
      <trkpt lat="49.11536" lon="3.53578">
        <ele>217</ele>
        <time>2018-03-31T15:40:32Z</time>
      </trkpt>
      <trkpt lat="49.11543" lon="3.53563">
        <ele>217</ele>
        <time>2018-03-31T15:41:32Z</time>
      </trkpt>
      <trkpt lat="49.11552" lon="3.53547">
        <ele>218</ele>
        <time>2018-03-31T15:42:32Z</time>
      </trkpt>
      <trkpt lat="49.11563" lon="3.5353">
        <ele>219</ele>
        <time>2018-03-31T15:43:32Z</time>
      </trkpt>
      <trkpt lat="49.11569" lon="3.53522">
        <ele>219</ele>
        <time>2018-03-31T15:44:32Z</time>
      </trkpt>
      <trkpt lat="49.11581" lon="3.5351">
        <ele>221</ele>
        <time>2018-03-31T15:45:32Z</time>
      </trkpt>
      <trkpt lat="49.1159" lon="3.53502">
        <ele>221</ele>
        <time>2018-03-31T15:46:32Z</time>
      </trkpt>
      <trkpt lat="49.11599" lon="3.53494">
        <ele>222</ele>
        <time>2018-03-31T15:47:32Z</time>
      </trkpt>
      <trkpt lat="49.11627" lon="3.53475">
        <ele>224</ele>
        <time>2018-03-31T15:48:32Z</time>
      </trkpt>
      <trkpt lat="49.11665" lon="3.53447">
        <ele>227</ele>
        <time>2018-03-31T15:49:32Z</time>
      </trkpt>
      <trkpt lat="49.1169" lon="3.53429">
        <ele>228</ele>
        <time>2018-03-31T15:50:32Z</time>
      </trkpt>
      <trkpt lat="49.11703" lon="3.5342">
        <ele>228</ele>
        <time>2018-03-31T15:51:32Z</time>
      </trkpt>
      <trkpt lat="49.1173" lon="3.534">
        <ele>229</ele>
        <time>2018-03-31T15:52:32Z</time>
      </trkpt>
      <trkpt lat="49.11758" lon="3.53379">
        <ele>229</ele>
        <time>2018-03-31T15:53:32Z</time>
      </trkpt>
      <trkpt lat="49.11791" lon="3.53355">
        <ele>228</ele>
        <time>2018-03-31T15:54:32Z</time>
      </trkpt>
      <trkpt lat="49.11821" lon="3.53333">
        <ele>226</ele>
        <time>2018-03-31T15:55:32Z</time>
      </trkpt>
      <trkpt lat="49.1184" lon="3.53319">
        <ele>225</ele>
        <time>2018-03-31T15:56:32Z</time>
      </trkpt>
      <trkpt lat="49.11893" lon="3.5328">
        <ele>223</ele>
        <time>2018-03-31T15:57:32Z</time>
      </trkpt>
      <trkpt lat="49.11913" lon="3.53265">
        <ele>222</ele>
        <time>2018-03-31T15:58:32Z</time>
      </trkpt>
      <trkpt lat="49.11931" lon="3.53252">
        <ele>223</ele>
        <time>2018-03-31T15:59:32Z</time>
      </trkpt>
      <trkpt lat="49.11996" lon="3.53203">
        <ele>227</ele>
        <time>2018-03-31T16:00:32Z</time>
      </trkpt>
      <trkpt lat="49.12042" lon="3.53169">
        <ele>229</ele>
        <time>2018-03-31T16:01:32Z</time>
      </trkpt>
      <trkpt lat="49.12059" lon="3.53157">
        <ele>229</ele>
        <time>2018-03-31T16:02:32Z</time>
      </trkpt>
      <trkpt lat="49.12076" lon="3.53144">
        <ele>229</ele>
        <time>2018-03-31T16:03:32Z</time>
      </trkpt>
      <trkpt lat="49.12088" lon="3.53135">
        <ele>229</ele>
        <time>2018-03-31T16:04:32Z</time>
      </trkpt>
      <trkpt lat="49.12189" lon="3.53064">
        <ele>229</ele>
        <time>2018-03-31T16:05:32Z</time>
      </trkpt>
      <trkpt lat="49.12258" lon="3.53023">
        <ele>228</ele>
        <time>2018-03-31T16:06:32Z</time>
      </trkpt>
      <trkpt lat="49.12297" lon="3.52999">
        <ele>227</ele>
        <time>2018-03-31T16:07:32Z</time>
      </trkpt>
      <trkpt lat="49.1232" lon="3.52985">
        <ele>227</ele>
        <time>2018-03-31T16:08:32Z</time>
      </trkpt>
      <trkpt lat="49.12342" lon="3.52973">
        <ele>228</ele>
        <time>2018-03-31T16:09:32Z</time>
      </trkpt>
      <trkpt lat="49.12375" lon="3.52954">
        <ele>227</ele>
        <time>2018-03-31T16:10:32Z</time>
      </trkpt>
      <trkpt lat="49.12414" lon="3.52932">
        <ele>225</ele>
        <time>2018-03-31T16:11:32Z</time>
      </trkpt>
      <trkpt lat="49.12447" lon="3.52913">
        <ele>225</ele>
        <time>2018-03-31T16:12:32Z</time>
      </trkpt>
      <trkpt lat="49.12461" lon="3.52904">
        <ele>224</ele>
        <time>2018-03-31T16:13:32Z</time>
      </trkpt>
      <trkpt lat="49.1247" lon="3.52899">
        <ele>224</ele>
        <time>2018-03-31T16:14:32Z</time>
      </trkpt>
      <trkpt lat="49.12477" lon="3.52895">
        <ele>224</ele>
        <time>2018-03-31T16:15:32Z</time>
      </trkpt>
      <trkpt lat="49.12492" lon="3.52886">
        <ele>224</ele>
        <time>2018-03-31T16:16:32Z</time>
      </trkpt>
      <trkpt lat="49.1251" lon="3.52877">
        <ele>224</ele>
        <time>2018-03-31T16:17:32Z</time>
      </trkpt>
      <trkpt lat="49.12536" lon="3.52864">
        <ele>224</ele>
        <time>2018-03-31T16:18:32Z</time>
      </trkpt>
      <trkpt lat="49.12567" lon="3.52855">
        <ele>224</ele>
        <time>2018-03-31T16:19:32Z</time>
      </trkpt>
      <trkpt lat="49.1259" lon="3.52849">
        <ele>224</ele>
        <time>2018-03-31T16:20:32Z</time>
      </trkpt>
      <trkpt lat="49.12609" lon="3.52845">
        <ele>222</ele>
        <time>2018-03-31T16:21:32Z</time>
      </trkpt>
      <trkpt lat="49.12623" lon="3.52842">
        <ele>220</ele>
        <time>2018-03-31T16:22:32Z</time>
      </trkpt>
      <trkpt lat="49.12648" lon="3.52832">
        <ele>218</ele>
        <time>2018-03-31T16:23:32Z</time>
      </trkpt>
      <trkpt lat="49.12663" lon="3.52824">
        <ele>216</ele>
        <time>2018-03-31T16:24:32Z</time>
      </trkpt>
      <trkpt lat="49.1268" lon="3.52812">
        <ele>215</ele>
        <time>2018-03-31T16:25:32Z</time>
      </trkpt>
      <trkpt lat="49.12691" lon="3.52802">
        <ele>214</ele>
        <time>2018-03-31T16:26:32Z</time>
      </trkpt>
      <trkpt lat="49.12701" lon="3.52793">
        <ele>214</ele>
        <time>2018-03-31T16:27:32Z</time>
      </trkpt>
      <trkpt lat="49.12726" lon="3.52766">
        <ele>212</ele>
        <time>2018-03-31T16:28:32Z</time>
      </trkpt>
      <trkpt lat="49.12737" lon="3.52751">
        <ele>211</ele>
        <time>2018-03-31T16:29:32Z</time>
      </trkpt>
      <trkpt lat="49.12741" lon="3.52746">
        <ele>211</ele>
        <time>2018-03-31T16:30:32Z</time>
      </trkpt>
      <trkpt lat="49.12747" lon="3.5274">
        <ele>210</ele>
        <time>2018-03-31T16:31:32Z</time>
      </trkpt>
      <trkpt lat="49.12772" lon="3.52708">
        <ele>210</ele>
        <time>2018-03-31T16:32:32Z</time>
      </trkpt>
      <trkpt lat="49.12796" lon="3.52676">
        <ele>210</ele>
        <time>2018-03-31T16:33:32Z</time>
      </trkpt>
      <trkpt lat="49.12819" lon="3.52646">
        <ele>210</ele>
        <time>2018-03-31T16:34:32Z</time>
      </trkpt>
      <trkpt lat="49.12849" lon="3.52606">
        <ele>210</ele>
        <time>2018-03-31T16:35:32Z</time>
      </trkpt>
      <trkpt lat="49.12873" lon="3.52574">
        <ele>210</ele>
        <time>2018-03-31T16:36:32Z</time>
      </trkpt>
      <trkpt lat="49.12885" lon="3.52559">
        <ele>210</ele>
        <time>2018-03-31T16:37:32Z</time>
      </trkpt>
      <trkpt lat="49.12902" lon="3.52535">
        <ele>210</ele>
        <time>2018-03-31T16:38:32Z</time>
      </trkpt>
      <trkpt lat="49.12923" lon="3.52508">
        <ele>210</ele>
        <time>2018-03-31T16:39:32Z</time>
      </trkpt>
      <trkpt lat="49.12945" lon="3.52479">
        <ele>210</ele>
        <time>2018-03-31T16:40:32Z</time>
      </trkpt>
      <trkpt lat="49.12978" lon="3.52435">
        <ele>210</ele>
        <time>2018-03-31T16:41:32Z</time>
      </trkpt>
      <trkpt lat="49.13002" lon="3.52404">
        <ele>210</ele>
        <time>2018-03-31T16:42:32Z</time>
      </trkpt>
      <trkpt lat="49.13027" lon="3.52372">
        <ele>210</ele>
        <time>2018-03-31T16:43:32Z</time>
      </trkpt>
      <trkpt lat="49.13047" lon="3.52345">
        <ele>210</ele>
        <time>2018-03-31T16:44:32Z</time>
      </trkpt>
      <trkpt lat="49.13138" lon="3.52229">
        <ele>207</ele>
        <time>2018-03-31T16:45:32Z</time>
      </trkpt>
      <trkpt lat="49.13155" lon="3.5221">
        <ele>207</ele>
        <time>2018-03-31T16:46:32Z</time>
      </trkpt>
      <trkpt lat="49.13168" lon="3.522">
        <ele>207</ele>
        <time>2018-03-31T16:47:32Z</time>
      </trkpt>
      <trkpt lat="49.13179" lon="3.52194">
        <ele>207</ele>
        <time>2018-03-31T16:48:32Z</time>
      </trkpt>
      <trkpt lat="49.13189" lon="3.52191">
        <ele>207</ele>
        <time>2018-03-31T16:49:32Z</time>
      </trkpt>
      <trkpt lat="49.132" lon="3.52189">
        <ele>207</ele>
        <time>2018-03-31T16:50:32Z</time>
      </trkpt>
      <trkpt lat="49.13231" lon="3.52189">
        <ele>207</ele>
        <time>2018-03-31T16:51:32Z</time>
      </trkpt>
      <trkpt lat="49.13304" lon="3.52189">
        <ele>207</ele>
        <time>2018-03-31T16:52:32Z</time>
      </trkpt>
      <trkpt lat="49.13369" lon="3.52189">
        <ele>206</ele>
        <time>2018-03-31T16:53:32Z</time>
      </trkpt>
      <trkpt lat="49.13435" lon="3.5219">
        <ele>205</ele>
        <time>2018-03-31T16:54:32Z</time>
      </trkpt>
      <trkpt lat="49.13502" lon="3.5219">
        <ele>208</ele>
        <time>2018-03-31T16:55:32Z</time>
      </trkpt>
      <trkpt lat="49.13541" lon="3.5219">
        <ele>208</ele>
        <time>2018-03-31T16:56:32Z</time>
      </trkpt>
      <trkpt lat="49.136" lon="3.5219">
        <ele>210</ele>
        <time>2018-03-31T16:57:32Z</time>
      </trkpt>
      <trkpt lat="49.13651" lon="3.52192">
        <ele>210</ele>
        <time>2018-03-31T16:58:32Z</time>
      </trkpt>
      <trkpt lat="49.13724" lon="3.52193">
        <ele>210</ele>
        <time>2018-03-31T16:59:32Z</time>
      </trkpt>
      <trkpt lat="49.13781" lon="3.52192">
        <ele>210</ele>
        <time>2018-03-31T17:00:32Z</time>
      </trkpt>
      <trkpt lat="49.13821" lon="3.52193">
        <ele>209</ele>
        <time>2018-03-31T17:01:32Z</time>
      </trkpt>
      <trkpt lat="49.1388" lon="3.52194">
        <ele>209</ele>
        <time>2018-03-31T17:02:32Z</time>
      </trkpt>
      <trkpt lat="49.13945" lon="3.52195">
        <ele>208</ele>
        <time>2018-03-31T17:03:32Z</time>
      </trkpt>
      <trkpt lat="49.13988" lon="3.52195">
        <ele>208</ele>
        <time>2018-03-31T17:04:32Z</time>
      </trkpt>
      <trkpt lat="49.14065" lon="3.52195">
        <ele>207</ele>
        <time>2018-03-31T17:05:32Z</time>
      </trkpt>
      <trkpt lat="49.14068" lon="3.52195">
        <ele>207</ele>
        <time>2018-03-31T17:06:32Z</time>
      </trkpt>
      <trkpt lat="49.14091" lon="3.52195">
        <ele>207</ele>
        <time>2018-03-31T17:07:32Z</time>
      </trkpt>
      <trkpt lat="49.14149" lon="3.52195">
        <ele>208</ele>
        <time>2018-03-31T17:08:32Z</time>
      </trkpt>
      <trkpt lat="49.14239" lon="3.52195">
        <ele>211</ele>
        <time>2018-03-31T17:09:32Z</time>
      </trkpt>
      <trkpt lat="49.14291" lon="3.52196">
        <ele>213</ele>
        <time>2018-03-31T17:10:32Z</time>
      </trkpt>
      <trkpt lat="49.14356" lon="3.52197">
        <ele>214</ele>
        <time>2018-03-31T17:11:32Z</time>
      </trkpt>
      <trkpt lat="49.14434" lon="3.52198">
        <ele>214</ele>
        <time>2018-03-31T17:12:32Z</time>
      </trkpt>
      <trkpt lat="49.14511" lon="3.52197">
        <ele>216</ele>
        <time>2018-03-31T17:13:32Z</time>
      </trkpt>
      <trkpt lat="49.14554" lon="3.52196">
        <ele>216</ele>
        <time>2018-03-31T17:14:32Z</time>
      </trkpt>
      <trkpt lat="49.14591" lon="3.52196">
        <ele>216</ele>
        <time>2018-03-31T17:15:32Z</time>
      </trkpt>
      <trkpt lat="49.14628" lon="3.52197">
        <ele>215</ele>
        <time>2018-03-31T17:16:32Z</time>
      </trkpt>
      <trkpt lat="49.1468" lon="3.52196">
        <ele>213</ele>
        <time>2018-03-31T17:17:32Z</time>
      </trkpt>
      <trkpt lat="49.14744" lon="3.52195">
        <ele>210</ele>
        <time>2018-03-31T17:18:32Z</time>
      </trkpt>
      <trkpt lat="49.14783" lon="3.52195">
        <ele>211</ele>
        <time>2018-03-31T17:19:32Z</time>
      </trkpt>
      <trkpt lat="49.14824" lon="3.52195">
        <ele>211</ele>
        <time>2018-03-31T17:20:32Z</time>
      </trkpt>
      <trkpt lat="49.14867" lon="3.52196">
        <ele>210</ele>
        <time>2018-03-31T17:21:32Z</time>
      </trkpt>
      <trkpt lat="49.14892" lon="3.52196">
        <ele>209</ele>
        <time>2018-03-31T17:22:32Z</time>
      </trkpt>
      <trkpt lat="49.14904" lon="3.52196">
        <ele>208</ele>
        <time>2018-03-31T17:23:32Z</time>
      </trkpt>
      <trkpt lat="49.14908" lon="3.52196">
        <ele>208</ele>
        <time>2018-03-31T17:24:32Z</time>
      </trkpt>
      <trkpt lat="49.14924" lon="3.52196">
        <ele>208</ele>
        <time>2018-03-31T17:25:32Z</time>
      </trkpt>
      <trkpt lat="49.14933" lon="3.52196">
        <ele>208</ele>
        <time>2018-03-31T17:26:32Z</time>
      </trkpt>
      <trkpt lat="49.14938" lon="3.52196">
        <ele>208</ele>
        <time>2018-03-31T17:27:32Z</time>
      </trkpt>
      <trkpt lat="49.1508" lon="3.52197">
        <ele>205</ele>
        <time>2018-03-31T17:28:32Z</time>
      </trkpt>
      <trkpt lat="49.15157" lon="3.52196">
        <ele>202</ele>
        <time>2018-03-31T17:29:32Z</time>
      </trkpt>
      <trkpt lat="49.15235" lon="3.52196">
        <ele>198</ele>
        <time>2018-03-31T17:30:32Z</time>
      </trkpt>
      <trkpt lat="49.15242" lon="3.52196">
        <ele>198</ele>
        <time>2018-03-31T17:31:32Z</time>
      </trkpt>
      <trkpt lat="49.15315" lon="3.52197">
        <ele>193</ele>
        <time>2018-03-31T17:32:32Z</time>
      </trkpt>
      <trkpt lat="49.15364" lon="3.52196">
        <ele>191</ele>
        <time>2018-03-31T17:33:32Z</time>
      </trkpt>
      <trkpt lat="49.15407" lon="3.52194">
        <ele>190</ele>
        <time>2018-03-31T17:34:32Z</time>
      </trkpt>
      <trkpt lat="49.1544" lon="3.52193">
        <ele>191</ele>
        <time>2018-03-31T17:35:32Z</time>
      </trkpt>
      <trkpt lat="49.15488" lon="3.52192">
        <ele>193</ele>
        <time>2018-03-31T17:36:32Z</time>
      </trkpt>
      <trkpt lat="49.15526" lon="3.52191">
        <ele>195</ele>
        <time>2018-03-31T17:37:32Z</time>
      </trkpt>
      <trkpt lat="49.1558" lon="3.52191">
        <ele>198</ele>
        <time>2018-03-31T17:38:32Z</time>
      </trkpt>
      <trkpt lat="49.15627" lon="3.5219">
        <ele>200</ele>
        <time>2018-03-31T17:39:32Z</time>
      </trkpt>
      <trkpt lat="49.15631" lon="3.5219">
        <ele>200</ele>
        <time>2018-03-31T17:40:32Z</time>
      </trkpt>
      <trkpt lat="49.15667" lon="3.5219">
        <ele>202</ele>
        <time>2018-03-31T17:41:32Z</time>
      </trkpt>
      <trkpt lat="49.15697" lon="3.52189">
        <ele>203</ele>
        <time>2018-03-31T17:42:32Z</time>
      </trkpt>
      <trkpt lat="49.15731" lon="3.52188">
        <ele>205</ele>
        <time>2018-03-31T17:43:32Z</time>
      </trkpt>
      <trkpt lat="49.15802" lon="3.52188">
        <ele>203</ele>
        <time>2018-03-31T17:44:32Z</time>
      </trkpt>
      <trkpt lat="49.15811" lon="3.52188">
        <ele>202</ele>
        <time>2018-03-31T17:45:32Z</time>
      </trkpt>
      <trkpt lat="49.15861" lon="3.52188">
        <ele>199</ele>
        <time>2018-03-31T17:46:32Z</time>
      </trkpt>
      <trkpt lat="49.15935" lon="3.52186">
        <ele>196</ele>
        <time>2018-03-31T17:47:32Z</time>
      </trkpt>
      <trkpt lat="49.15991" lon="3.52185">
        <ele>193</ele>
        <time>2018-03-31T17:48:32Z</time>
      </trkpt>
      <trkpt lat="49.15995" lon="3.52185">
        <ele>192</ele>
        <time>2018-03-31T17:49:32Z</time>
      </trkpt>
      <trkpt lat="49.16045" lon="3.52185">
        <ele>191</ele>
        <time>2018-03-31T17:50:32Z</time>
      </trkpt>
      <trkpt lat="49.16089" lon="3.52185">
        <ele>189</ele>
        <time>2018-03-31T17:51:32Z</time>
      </trkpt>
      <trkpt lat="49.1615" lon="3.52183">
        <ele>186</ele>
        <time>2018-03-31T17:52:32Z</time>
      </trkpt>
      <trkpt lat="49.16177" lon="3.52182">
        <ele>185</ele>
        <time>2018-03-31T17:53:32Z</time>
      </trkpt>
      <trkpt lat="49.16196" lon="3.52181">
        <ele>185</ele>
        <time>2018-03-31T17:54:32Z</time>
      </trkpt>
      <trkpt lat="49.16248" lon="3.52181">
        <ele>183</ele>
        <time>2018-03-31T17:55:32Z</time>
      </trkpt>
      <trkpt lat="49.16264" lon="3.5218">
        <ele>184</ele>
        <time>2018-03-31T17:56:32Z</time>
      </trkpt>
      <trkpt lat="49.16296" lon="3.52178">
        <ele>184</ele>
        <time>2018-03-31T17:57:32Z</time>
      </trkpt>
      <trkpt lat="49.16364" lon="3.52178">
        <ele>187</ele>
        <time>2018-03-31T17:58:32Z</time>
      </trkpt>
      <trkpt lat="49.16365" lon="3.52178">
        <ele>187</ele>
        <time>2018-03-31T17:59:32Z</time>
      </trkpt>
      <trkpt lat="49.16415" lon="3.52178">
        <ele>189</ele>
        <time>2018-03-31T18:00:32Z</time>
      </trkpt>
      <trkpt lat="49.16459" lon="3.52177">
        <ele>190</ele>
        <time>2018-03-31T18:01:32Z</time>
      </trkpt>
      <trkpt lat="49.16514" lon="3.52177">
        <ele>192</ele>
        <time>2018-03-31T18:02:32Z</time>
      </trkpt>
      <trkpt lat="49.16517" lon="3.52177">
        <ele>192</ele>
        <time>2018-03-31T18:03:32Z</time>
      </trkpt>
      <trkpt lat="49.16553" lon="3.52176">
        <ele>194</ele>
        <time>2018-03-31T18:04:32Z</time>
      </trkpt>
      <trkpt lat="49.16617" lon="3.52175">
        <ele>195</ele>
        <time>2018-03-31T18:05:32Z</time>
      </trkpt>
      <trkpt lat="49.16693" lon="3.52173">
        <ele>196</ele>
        <time>2018-03-31T18:06:32Z</time>
      </trkpt>
      <trkpt lat="49.16712" lon="3.52173">
        <ele>196</ele>
        <time>2018-03-31T18:07:32Z</time>
      </trkpt>
      <trkpt lat="49.16721" lon="3.52172">
        <ele>196</ele>
        <time>2018-03-31T18:08:32Z</time>
      </trkpt>
      <trkpt lat="49.16739" lon="3.52171">
        <ele>197</ele>
        <time>2018-03-31T18:09:32Z</time>
      </trkpt>
      <trkpt lat="49.16743" lon="3.5217">
        <ele>197</ele>
        <time>2018-03-31T18:10:32Z</time>
      </trkpt>
      <trkpt lat="49.16749" lon="3.52168">
        <ele>197</ele>
        <time>2018-03-31T18:11:32Z</time>
      </trkpt>
      <trkpt lat="49.16757" lon="3.52164">
        <ele>197</ele>
        <time>2018-03-31T18:12:32Z</time>
      </trkpt>
      <trkpt lat="49.1676" lon="3.52163">
        <ele>196</ele>
        <time>2018-03-31T18:13:32Z</time>
      </trkpt>
      <trkpt lat="49.16762" lon="3.52162">
        <ele>196</ele>
        <time>2018-03-31T18:14:32Z</time>
      </trkpt>
      <trkpt lat="49.16769" lon="3.52155">
        <ele>196</ele>
        <time>2018-03-31T18:15:32Z</time>
      </trkpt>
      <trkpt lat="49.16775" lon="3.52147">
        <ele>196</ele>
        <time>2018-03-31T18:16:32Z</time>
      </trkpt>
      <trkpt lat="49.16783" lon="3.52138">
        <ele>195</ele>
        <time>2018-03-31T18:17:32Z</time>
      </trkpt>
      <trkpt lat="49.16787" lon="3.52132">
        <ele>195</ele>
        <time>2018-03-31T18:18:32Z</time>
      </trkpt>
      <trkpt lat="49.16796" lon="3.52121">
        <ele>194</ele>
        <time>2018-03-31T18:19:32Z</time>
      </trkpt>
      <trkpt lat="49.16799" lon="3.52116">
        <ele>194</ele>
        <time>2018-03-31T18:20:32Z</time>
      </trkpt>
      <trkpt lat="49.16807" lon="3.52105">
        <ele>194</ele>
        <time>2018-03-31T18:21:32Z</time>
      </trkpt>
      <trkpt lat="49.16818" lon="3.5209">
        <ele>193</ele>
        <time>2018-03-31T18:22:32Z</time>
      </trkpt>
      <trkpt lat="49.16823" lon="3.52082">
        <ele>193</ele>
        <time>2018-03-31T18:23:32Z</time>
      </trkpt>
      <trkpt lat="49.1684" lon="3.52057">
        <ele>193</ele>
        <time>2018-03-31T18:24:32Z</time>
      </trkpt>
      <trkpt lat="49.16863" lon="3.52022">
        <ele>192</ele>
        <time>2018-03-31T18:25:32Z</time>
      </trkpt>
      <trkpt lat="49.16891" lon="3.51981">
        <ele>190</ele>
        <time>2018-03-31T18:26:32Z</time>
      </trkpt>
      <trkpt lat="49.16905" lon="3.51961">
        <ele>190</ele>
        <time>2018-03-31T18:27:32Z</time>
      </trkpt>
      <trkpt lat="49.16918" lon="3.51943">
        <ele>190</ele>
        <time>2018-03-31T18:28:32Z</time>
      </trkpt>
      <trkpt lat="49.16922" lon="3.51936">
        <ele>191</ele>
        <time>2018-03-31T18:29:32Z</time>
      </trkpt>
      <trkpt lat="49.16926" lon="3.5193">
        <ele>191</ele>
        <time>2018-03-31T18:30:32Z</time>
      </trkpt>
      <trkpt lat="49.16932" lon="3.51922">
        <ele>191</ele>
        <time>2018-03-31T18:31:32Z</time>
      </trkpt>
      <trkpt lat="49.16952" lon="3.51892">
        <ele>192</ele>
        <time>2018-03-31T18:32:32Z</time>
      </trkpt>
      <trkpt lat="49.16974" lon="3.5186">
        <ele>192</ele>
        <time>2018-03-31T18:33:32Z</time>
      </trkpt>
      <trkpt lat="49.17004" lon="3.51815">
        <ele>194</ele>
        <time>2018-03-31T18:34:32Z</time>
      </trkpt>
      <trkpt lat="49.17029" lon="3.51778">
        <ele>196</ele>
        <time>2018-03-31T18:35:32Z</time>
      </trkpt>
      <trkpt lat="49.17047" lon="3.51753">
        <ele>197</ele>
        <time>2018-03-31T18:36:32Z</time>
      </trkpt>
      <trkpt lat="49.17064" lon="3.51727">
        <ele>198</ele>
        <time>2018-03-31T18:37:32Z</time>
      </trkpt>
      <trkpt lat="49.17084" lon="3.51699">
        <ele>199</ele>
        <time>2018-03-31T18:38:32Z</time>
      </trkpt>
      <trkpt lat="49.171" lon="3.51674">
        <ele>201</ele>
        <time>2018-03-31T18:39:32Z</time>
      </trkpt>
      <trkpt lat="49.17121" lon="3.51643">
        <ele>203</ele>
        <time>2018-03-31T18:40:32Z</time>
      </trkpt>
      <trkpt lat="49.17139" lon="3.51617">
        <ele>204</ele>
        <time>2018-03-31T18:41:32Z</time>
      </trkpt>
      <trkpt lat="49.17156" lon="3.51592">
        <ele>205</ele>
        <time>2018-03-31T18:42:32Z</time>
      </trkpt>
      <trkpt lat="49.17177" lon="3.51562">
        <ele>206</ele>
        <time>2018-03-31T18:43:32Z</time>
      </trkpt>
      <trkpt lat="49.17193" lon="3.51539">
        <ele>207</ele>
        <time>2018-03-31T18:44:32Z</time>
      </trkpt>
      <trkpt lat="49.17197" lon="3.51533">
        <ele>207</ele>
        <time>2018-03-31T18:45:32Z</time>
      </trkpt>
      <trkpt lat="49.17214" lon="3.51509">
        <ele>207</ele>
        <time>2018-03-31T18:46:32Z</time>
      </trkpt>
      <trkpt lat="49.17226" lon="3.51488">
        <ele>208</ele>
        <time>2018-03-31T18:47:32Z</time>
      </trkpt>
      <trkpt lat="49.17237" lon="3.51473">
        <ele>208</ele>
        <time>2018-03-31T18:48:32Z</time>
      </trkpt>
      <trkpt lat="49.1725" lon="3.51454">
        <ele>208</ele>
        <time>2018-03-31T18:49:32Z</time>
      </trkpt>
      <trkpt lat="49.17264" lon="3.51433">
        <ele>208</ele>
        <time>2018-03-31T18:50:32Z</time>
      </trkpt>
      <trkpt lat="49.17275" lon="3.51416">
        <ele>208</ele>
        <time>2018-03-31T18:51:32Z</time>
      </trkpt>
      <trkpt lat="49.1729" lon="3.51394">
        <ele>207</ele>
        <time>2018-03-31T18:52:32Z</time>
      </trkpt>
      <trkpt lat="49.173" lon="3.51379">
        <ele>207</ele>
        <time>2018-03-31T18:53:32Z</time>
      </trkpt>
      <trkpt lat="49.17318" lon="3.51354">
        <ele>207</ele>
        <time>2018-03-31T18:54:32Z</time>
      </trkpt>
      <trkpt lat="49.17342" lon="3.51318">
        <ele>206</ele>
        <time>2018-03-31T18:55:32Z</time>
      </trkpt>
      <trkpt lat="49.17357" lon="3.51295">
        <ele>206</ele>
        <time>2018-03-31T18:56:32Z</time>
      </trkpt>
      <trkpt lat="49.17377" lon="3.51264">
        <ele>206</ele>
        <time>2018-03-31T18:57:32Z</time>
      </trkpt>
      <trkpt lat="49.17411" lon="3.51214">
        <ele>203</ele>
        <time>2018-03-31T18:58:32Z</time>
      </trkpt>
      <trkpt lat="49.17432" lon="3.51186">
        <ele>204</ele>
        <time>2018-03-31T18:59:32Z</time>
      </trkpt>
      <trkpt lat="49.175" lon="3.51085">
        <ele>204</ele>
        <time>2018-03-31T19:00:32Z</time>
      </trkpt>
      <trkpt lat="49.17536" lon="3.51031">
        <ele>202</ele>
        <time>2018-03-31T19:01:32Z</time>
      </trkpt>
      <trkpt lat="49.17597" lon="3.50947">
        <ele>198</ele>
        <time>2018-03-31T19:02:32Z</time>
      </trkpt>
      <trkpt lat="49.17607" lon="3.5094">
        <ele>198</ele>
        <time>2018-03-31T19:03:32Z</time>
      </trkpt>
      <trkpt lat="49.17616" lon="3.50938">
        <ele>198</ele>
        <time>2018-03-31T19:04:32Z</time>
      </trkpt>
      <trkpt lat="49.1762" lon="3.50937">
        <ele>198</ele>
        <time>2018-03-31T19:05:32Z</time>
      </trkpt>
      <trkpt lat="49.17627" lon="3.50937">
        <ele>197</ele>
        <time>2018-03-31T19:06:32Z</time>
      </trkpt>
      <trkpt lat="49.17638" lon="3.50938">
        <ele>197</ele>
        <time>2018-03-31T19:07:32Z</time>
      </trkpt>
      <trkpt lat="49.17762" lon="3.50972">
        <ele>178</ele>
        <time>2018-03-31T19:08:32Z</time>
      </trkpt>
      <trkpt lat="49.17875" lon="3.51002">
        <ele>166</ele>
        <time>2018-03-31T19:09:32Z</time>
      </trkpt>
      <trkpt lat="49.17932" lon="3.51016">
        <ele>162</ele>
        <time>2018-03-31T19:10:32Z</time>
      </trkpt>
      <trkpt lat="49.18032" lon="3.51041">
        <ele>154</ele>
        <time>2018-03-31T19:11:32Z</time>
      </trkpt>
      <trkpt lat="49.18064" lon="3.51048">
        <ele>152</ele>
        <time>2018-03-31T19:12:32Z</time>
      </trkpt>
      <trkpt lat="49.18138" lon="3.51067">
        <ele>148</ele>
        <time>2018-03-31T19:13:32Z</time>
      </trkpt>
      <trkpt lat="49.18199" lon="3.51081">
        <ele>145</ele>
        <time>2018-03-31T19:14:32Z</time>
      </trkpt>
      <trkpt lat="49.18202" lon="3.51082">
        <ele>145</ele>
        <time>2018-03-31T19:15:32Z</time>
      </trkpt>
      <trkpt lat="49.18212" lon="3.51084">
        <ele>145</ele>
        <time>2018-03-31T19:16:32Z</time>
      </trkpt>
      <trkpt lat="49.1822" lon="3.51086">
        <ele>145</ele>
        <time>2018-03-31T19:17:32Z</time>
      </trkpt>
      <trkpt lat="49.18228" lon="3.51088">
        <ele>145</ele>
        <time>2018-03-31T19:18:32Z</time>
      </trkpt>
      <trkpt lat="49.18237" lon="3.51091">
        <ele>145</ele>
        <time>2018-03-31T19:19:32Z</time>
      </trkpt>
      <trkpt lat="49.18247" lon="3.51093">
        <ele>145</ele>
        <time>2018-03-31T19:20:32Z</time>
      </trkpt>
      <trkpt lat="49.18303" lon="3.51108">
        <ele>148</ele>
        <time>2018-03-31T19:21:32Z</time>
      </trkpt>
      <trkpt lat="49.18464" lon="3.51147">
        <ele>157</ele>
        <time>2018-03-31T19:22:32Z</time>
      </trkpt>
      <trkpt lat="49.18471" lon="3.5115">
        <ele>157</ele>
        <time>2018-03-31T19:23:32Z</time>
      </trkpt>
      <trkpt lat="49.18477" lon="3.51151">
        <ele>157</ele>
        <time>2018-03-31T19:24:32Z</time>
      </trkpt>
      <trkpt lat="49.18481" lon="3.5115">
        <ele>157</ele>
        <time>2018-03-31T19:25:32Z</time>
      </trkpt>
      <trkpt lat="49.18487" lon="3.51147">
        <ele>158</ele>
        <time>2018-03-31T19:26:32Z</time>
      </trkpt>
      <trkpt lat="49.18493" lon="3.51144">
        <ele>158</ele>
        <time>2018-03-31T19:27:32Z</time>
      </trkpt>
      <trkpt lat="49.18498" lon="3.51139">
        <ele>158</ele>
        <time>2018-03-31T19:28:32Z</time>
      </trkpt>
      <trkpt lat="49.18503" lon="3.51132">
        <ele>158</ele>
        <time>2018-03-31T19:29:32Z</time>
      </trkpt>
      <trkpt lat="49.18507" lon="3.51126">
        <ele>157</ele>
        <time>2018-03-31T19:30:32Z</time>
      </trkpt>
      <trkpt lat="49.18507" lon="3.51126">
        <ele>157</ele>
        <time>2018-03-31T19:31:32Z</time>
      </trkpt>
      <trkpt lat="49.18518" lon="3.51138">
        <ele>157</ele>
        <time>2018-03-31T19:32:32Z</time>
      </trkpt>
      <trkpt lat="49.18529" lon="3.51147">
        <ele>156</ele>
        <time>2018-03-31T19:33:32Z</time>
      </trkpt>
      <trkpt lat="49.18536" lon="3.51152">
        <ele>155</ele>
        <time>2018-03-31T19:34:32Z</time>
      </trkpt>
      <trkpt lat="49.1854" lon="3.51156">
        <ele>155</ele>
        <time>2018-03-31T19:35:32Z</time>
      </trkpt>
      <trkpt lat="49.18554" lon="3.51166">
        <ele>154</ele>
        <time>2018-03-31T19:36:32Z</time>
      </trkpt>
      <trkpt lat="49.18563" lon="3.51171">
        <ele>153</ele>
        <time>2018-03-31T19:37:32Z</time>
      </trkpt>
      <trkpt lat="49.18572" lon="3.51175">
        <ele>153</ele>
        <time>2018-03-31T19:38:32Z</time>
      </trkpt>
      <trkpt lat="49.18587" lon="3.51179">
        <ele>152</ele>
        <time>2018-03-31T19:39:32Z</time>
      </trkpt>
      <trkpt lat="49.18596" lon="3.51181">
        <ele>151</ele>
        <time>2018-03-31T19:40:32Z</time>
      </trkpt>
      <trkpt lat="49.18605" lon="3.5118">
        <ele>150</ele>
        <time>2018-03-31T19:41:32Z</time>
      </trkpt>
      <trkpt lat="49.1865" lon="3.51192">
        <ele>147</ele>
        <time>2018-03-31T19:42:32Z</time>
      </trkpt>
      <trkpt lat="49.18727" lon="3.5121">
        <ele>143</ele>
        <time>2018-03-31T19:43:32Z</time>
      </trkpt>
      <trkpt lat="49.18738" lon="3.51212">
        <ele>143</ele>
        <time>2018-03-31T19:44:32Z</time>
      </trkpt>
      <trkpt lat="49.18779" lon="3.51223">
        <ele>141</ele>
        <time>2018-03-31T19:45:32Z</time>
      </trkpt>
      <trkpt lat="49.18801" lon="3.51228">
        <ele>140</ele>
        <time>2018-03-31T19:46:32Z</time>
      </trkpt>
      <trkpt lat="49.1887" lon="3.51245">
        <ele>136</ele>
        <time>2018-03-31T19:47:32Z</time>
      </trkpt>
      <trkpt lat="49.18883" lon="3.51249">
        <ele>135</ele>
        <time>2018-03-31T19:48:32Z</time>
      </trkpt>
      <trkpt lat="49.18938" lon="3.51262">
        <ele>132</ele>
        <time>2018-03-31T19:49:32Z</time>
      </trkpt>
      <trkpt lat="49.18967" lon="3.5127">
        <ele>131</ele>
        <time>2018-03-31T19:50:32Z</time>
      </trkpt>
      <trkpt lat="49.18995" lon="3.51276">
        <ele>130</ele>
        <time>2018-03-31T19:51:32Z</time>
      </trkpt>
      <trkpt lat="49.19055" lon="3.5129">
        <ele>128</ele>
        <time>2018-03-31T19:52:32Z</time>
      </trkpt>
      <trkpt lat="49.19136" lon="3.5131">
        <ele>126</ele>
        <time>2018-03-31T19:53:32Z</time>
      </trkpt>
      <trkpt lat="49.19213" lon="3.51329">
        <ele>122</ele>
        <time>2018-03-31T19:54:32Z</time>
      </trkpt>
      <trkpt lat="49.19272" lon="3.51344">
        <ele>120</ele>
        <time>2018-03-31T19:55:32Z</time>
      </trkpt>
      <trkpt lat="49.19334" lon="3.5136">
        <ele>118</ele>
        <time>2018-03-31T19:56:32Z</time>
      </trkpt>
      <trkpt lat="49.19361" lon="3.51366">
        <ele>117</ele>
        <time>2018-03-31T19:57:32Z</time>
      </trkpt>
      <trkpt lat="49.19396" lon="3.51375">
        <ele>116</ele>
        <time>2018-03-31T19:58:32Z</time>
      </trkpt>
      <trkpt lat="49.19424" lon="3.51382">
        <ele>116</ele>
        <time>2018-03-31T19:59:32Z</time>
      </trkpt>
      <trkpt lat="49.1944" lon="3.51386">
        <ele>115</ele>
        <time>2018-03-31T20:00:32Z</time>
      </trkpt>
      <trkpt lat="49.19446" lon="3.51387">
        <ele>115</ele>
        <time>2018-03-31T20:01:32Z</time>
      </trkpt>
      <trkpt lat="49.19448" lon="3.51388">
        <ele>115</ele>
        <time>2018-03-31T20:02:32Z</time>
      </trkpt>
      <trkpt lat="49.19476" lon="3.51395">
        <ele>115</ele>
        <time>2018-03-31T20:03:32Z</time>
      </trkpt>
      <trkpt lat="49.19481" lon="3.51397">
        <ele>115</ele>
        <time>2018-03-31T20:04:32Z</time>
      </trkpt>
      <trkpt lat="49.195" lon="3.51401">
        <ele>115</ele>
        <time>2018-03-31T20:05:32Z</time>
      </trkpt>
      <trkpt lat="49.19507" lon="3.51403">
        <ele>115</ele>
        <time>2018-03-31T20:06:32Z</time>
      </trkpt>
      <trkpt lat="49.1956" lon="3.51416">
        <ele>114</ele>
        <time>2018-03-31T20:07:32Z</time>
      </trkpt>
      <trkpt lat="49.19569" lon="3.51418">
        <ele>114</ele>
        <time>2018-03-31T20:08:32Z</time>
      </trkpt>
      <trkpt lat="49.19582" lon="3.51421">
        <ele>114</ele>
        <time>2018-03-31T20:09:32Z</time>
      </trkpt>
      <trkpt lat="49.19595" lon="3.51423">
        <ele>114</ele>
        <time>2018-03-31T20:10:32Z</time>
      </trkpt>
      <trkpt lat="49.19616" lon="3.51428">
        <ele>114</ele>
        <time>2018-03-31T20:11:32Z</time>
      </trkpt>
      <trkpt lat="49.19645" lon="3.51435">
        <ele>114</ele>
        <time>2018-03-31T20:12:32Z</time>
      </trkpt>
      <trkpt lat="49.19683" lon="3.51444">
        <ele>114</ele>
        <time>2018-03-31T20:13:32Z</time>
      </trkpt>
      <trkpt lat="49.19706" lon="3.51449">
        <ele>115</ele>
        <time>2018-03-31T20:14:32Z</time>
      </trkpt>
      <trkpt lat="49.1974" lon="3.51455">
        <ele>116</ele>
        <time>2018-03-31T20:15:32Z</time>
      </trkpt>
      <trkpt lat="49.19759" lon="3.51459">
        <ele>117</ele>
        <time>2018-03-31T20:16:32Z</time>
      </trkpt>
      <trkpt lat="49.19759" lon="3.51459">
        <ele>117</ele>
        <time>2018-03-31T20:17:32Z</time>
      </trkpt>
      <trkpt lat="49.19758" lon="3.51472">
        <ele>116</ele>
        <time>2018-03-31T20:18:32Z</time>
      </trkpt>
      <trkpt lat="49.19756" lon="3.5148">
        <ele>116</ele>
        <time>2018-03-31T20:19:32Z</time>
      </trkpt>
      <trkpt lat="49.1975" lon="3.51504">
        <ele>115</ele>
        <time>2018-03-31T20:20:32Z</time>
      </trkpt>
      <trkpt lat="49.19746" lon="3.51517">
        <ele>115</ele>
        <time>2018-03-31T20:21:32Z</time>
      </trkpt>
      <trkpt lat="49.19743" lon="3.51527">
        <ele>115</ele>
        <time>2018-03-31T20:22:32Z</time>
      </trkpt>
      <trkpt lat="49.1974" lon="3.51535">
        <ele>115</ele>
        <time>2018-03-31T20:23:32Z</time>
      </trkpt>
      <trkpt lat="49.19738" lon="3.5154">
        <ele>115</ele>
        <time>2018-03-31T20:24:32Z</time>
      </trkpt>
      <trkpt lat="49.19735" lon="3.51547">
        <ele>115</ele>
        <time>2018-03-31T20:25:32Z</time>
      </trkpt>
      <trkpt lat="49.19728" lon="3.51558">
        <ele>115</ele>
        <time>2018-03-31T20:26:32Z</time>
      </trkpt>
      <trkpt lat="49.19721" lon="3.51571">
        <ele>116</ele>
        <time>2018-03-31T20:27:32Z</time>
      </trkpt>
      <trkpt lat="49.19712" lon="3.51587">
        <ele>116</ele>
        <time>2018-03-31T20:28:32Z</time>
      </trkpt>
      <trkpt lat="49.19709" lon="3.51594">
        <ele>116</ele>
        <time>2018-03-31T20:29:32Z</time>
      </trkpt>
      <trkpt lat="49.19707" lon="3.51599">
        <ele>116</ele>
        <time>2018-03-31T20:30:32Z</time>
      </trkpt>
      <trkpt lat="49.19704" lon="3.51608">
        <ele>116</ele>
        <time>2018-03-31T20:31:32Z</time>
      </trkpt>
      <trkpt lat="49.19701" lon="3.51637">
        <ele>117</ele>
        <time>2018-03-31T20:32:32Z</time>
      </trkpt>
      <trkpt lat="49.19698" lon="3.51671">
        <ele>117</ele>
        <time>2018-03-31T20:33:32Z</time>
      </trkpt>
      <trkpt lat="49.19696" lon="3.51701">
        <ele>118</ele>
        <time>2018-03-31T20:34:32Z</time>
      </trkpt>
      <trkpt lat="49.19696" lon="3.51708">
        <ele>119</ele>
        <time>2018-03-31T20:35:32Z</time>
      </trkpt>
      <trkpt lat="49.19694" lon="3.51742">
        <ele>119</ele>
        <time>2018-03-31T20:36:32Z</time>
      </trkpt>
      <trkpt lat="49.19693" lon="3.51772">
        <ele>120</ele>
        <time>2018-03-31T20:37:32Z</time>
      </trkpt>
      <trkpt lat="49.19692" lon="3.51787">
        <ele>120</ele>
        <time>2018-03-31T20:38:32Z</time>
      </trkpt>
      <trkpt lat="49.19691" lon="3.51805">
        <ele>120</ele>
        <time>2018-03-31T20:39:32Z</time>
      </trkpt>
      <trkpt lat="49.1969" lon="3.51828">
        <ele>120</ele>
        <time>2018-03-31T20:40:32Z</time>
      </trkpt>
      <trkpt lat="49.19685" lon="3.51879">
        <ele>121</ele>
        <time>2018-03-31T20:41:32Z</time>
      </trkpt>
      <trkpt lat="49.19683" lon="3.51896">
        <ele>122</ele>
        <time>2018-03-31T20:42:32Z</time>
      </trkpt>
      <trkpt lat="49.19675" lon="3.5193">
        <ele>122</ele>
        <time>2018-03-31T20:43:32Z</time>
      </trkpt>
      <trkpt lat="49.19668" lon="3.51963">
        <ele>123</ele>
        <time>2018-03-31T20:44:32Z</time>
      </trkpt>
      <trkpt lat="49.19656" lon="3.52014">
        <ele>123</ele>
        <time>2018-03-31T20:45:32Z</time>
      </trkpt>
      <trkpt lat="49.19651" lon="3.52038">
        <ele>123</ele>
        <time>2018-03-31T20:46:32Z</time>
      </trkpt>
      <trkpt lat="49.1965" lon="3.52045">
        <ele>123</ele>
        <time>2018-03-31T20:47:32Z</time>
      </trkpt>
      <trkpt lat="49.19644" lon="3.52076">
        <ele>122</ele>
        <time>2018-03-31T20:48:32Z</time>
      </trkpt>
      <trkpt lat="49.19639" lon="3.52107">
        <ele>122</ele>
        <time>2018-03-31T20:49:32Z</time>
      </trkpt>
      <trkpt lat="49.19638" lon="3.52118">
        <ele>122</ele>
        <time>2018-03-31T20:50:32Z</time>
      </trkpt>
      <trkpt lat="49.19636" lon="3.52134">
        <ele>122</ele>
        <time>2018-03-31T20:51:32Z</time>
      </trkpt>
      <trkpt lat="49.19636" lon="3.52157">
        <ele>123</ele>
        <time>2018-03-31T20:52:32Z</time>
      </trkpt>
      <trkpt lat="49.19636" lon="3.52185">
        <ele>123</ele>
        <time>2018-03-31T20:53:32Z</time>
      </trkpt>
      <trkpt lat="49.19636" lon="3.52223">
        <ele>124</ele>
        <time>2018-03-31T20:54:32Z</time>
      </trkpt>
      <trkpt lat="49.19636" lon="3.52262">
        <ele>126</ele>
        <time>2018-03-31T20:55:32Z</time>
      </trkpt>
      <trkpt lat="49.19636" lon="3.52275">
        <ele>126</ele>
        <time>2018-03-31T20:56:32Z</time>
      </trkpt>
      <trkpt lat="49.19635" lon="3.52315">
        <ele>128</ele>
        <time>2018-03-31T20:57:32Z</time>
      </trkpt>
      <trkpt lat="49.19635" lon="3.52338">
        <ele>129</ele>
        <time>2018-03-31T20:58:32Z</time>
      </trkpt>
      <trkpt lat="49.19637" lon="3.52364">
        <ele>129</ele>
        <time>2018-03-31T20:59:32Z</time>
      </trkpt>
      <trkpt lat="49.19639" lon="3.52384">
        <ele>130</ele>
        <time>2018-03-31T21:00:32Z</time>
      </trkpt>
      <trkpt lat="49.1964" lon="3.52392">
        <ele>130</ele>
        <time>2018-03-31T21:01:32Z</time>
      </trkpt>
      <trkpt lat="49.19642" lon="3.52414">
        <ele>131</ele>
        <time>2018-03-31T21:02:32Z</time>
      </trkpt>
      <trkpt lat="49.19645" lon="3.52434">
        <ele>132</ele>
        <time>2018-03-31T21:03:32Z</time>
      </trkpt>
      <trkpt lat="49.1965" lon="3.52467">
        <ele>133</ele>
        <time>2018-03-31T21:04:32Z</time>
      </trkpt>
      <trkpt lat="49.19658" lon="3.52512">
        <ele>135</ele>
        <time>2018-03-31T21:05:32Z</time>
      </trkpt>
      <trkpt lat="49.19659" lon="3.52518">
        <ele>135</ele>
        <time>2018-03-31T21:06:32Z</time>
      </trkpt>
      <trkpt lat="49.19666" lon="3.52553">
        <ele>135</ele>
        <time>2018-03-31T21:07:32Z</time>
      </trkpt>
      <trkpt lat="49.19676" lon="3.52596">
        <ele>135</ele>
        <time>2018-03-31T21:08:32Z</time>
      </trkpt>
      <trkpt lat="49.19677" lon="3.52602">
        <ele>135</ele>
        <time>2018-03-31T21:09:32Z</time>
      </trkpt>
      <trkpt lat="49.19677" lon="3.52602">
        <ele>135</ele>
        <time>2018-03-31T21:10:32Z</time>
      </trkpt>
      <trkpt lat="49.19677" lon="3.52603">
        <ele>135</ele>
        <time>2018-03-31T21:11:32Z</time>
      </trkpt>
      <trkpt lat="49.19676" lon="3.52604">
        <ele>135</ele>
        <time>2018-03-31T21:12:32Z</time>
      </trkpt>
      <trkpt lat="49.19676" lon="3.52605">
        <ele>135</ele>
        <time>2018-03-31T21:13:32Z</time>
      </trkpt>
      <trkpt lat="49.19676" lon="3.52606">
        <ele>135</ele>
        <time>2018-03-31T21:14:32Z</time>
      </trkpt>
      <trkpt lat="49.19677" lon="3.52607">
        <ele>135</ele>
        <time>2018-03-31T21:15:32Z</time>
      </trkpt>
      <trkpt lat="49.19677" lon="3.52608">
        <ele>135</ele>
        <time>2018-03-31T21:16:32Z</time>
      </trkpt>
      <trkpt lat="49.19677" lon="3.52609">
        <ele>135</ele>
        <time>2018-03-31T21:17:32Z</time>
      </trkpt>
      <trkpt lat="49.19677" lon="3.5261">
        <ele>135</ele>
        <time>2018-03-31T21:18:32Z</time>
      </trkpt>
      <trkpt lat="49.19677" lon="3.52611">
        <ele>135</ele>
        <time>2018-03-31T21:19:32Z</time>
      </trkpt>
      <trkpt lat="49.19678" lon="3.52611">
        <ele>135</ele>
        <time>2018-03-31T21:20:32Z</time>
      </trkpt>
      <trkpt lat="49.19678" lon="3.52612">
        <ele>135</ele>
        <time>2018-03-31T21:21:32Z</time>
      </trkpt>
      <trkpt lat="49.19678" lon="3.52613">
        <ele>135</ele>
        <time>2018-03-31T21:22:32Z</time>
      </trkpt>
      <trkpt lat="49.19679" lon="3.52613">
        <ele>135</ele>
        <time>2018-03-31T21:23:32Z</time>
      </trkpt>
      <trkpt lat="49.19679" lon="3.52614">
        <ele>135</ele>
        <time>2018-03-31T21:24:32Z</time>
      </trkpt>
      <trkpt lat="49.1968" lon="3.52614">
        <ele>135</ele>
        <time>2018-03-31T21:25:32Z</time>
      </trkpt>
      <trkpt lat="49.1968" lon="3.52615">
        <ele>135</ele>
        <time>2018-03-31T21:26:32Z</time>
      </trkpt>
      <trkpt lat="49.19681" lon="3.52615">
        <ele>135</ele>
        <time>2018-03-31T21:27:32Z</time>
      </trkpt>
      <trkpt lat="49.19682" lon="3.52615">
        <ele>135</ele>
        <time>2018-03-31T21:28:32Z</time>
      </trkpt>
      <trkpt lat="49.19682" lon="3.52616">
        <ele>135</ele>
        <time>2018-03-31T21:29:32Z</time>
      </trkpt>
      <trkpt lat="49.19683" lon="3.52616">
        <ele>135</ele>
        <time>2018-03-31T21:30:32Z</time>
      </trkpt>
      <trkpt lat="49.19681" lon="3.5263">
        <ele>135</ele>
        <time>2018-03-31T21:31:32Z</time>
      </trkpt>
      <trkpt lat="49.19676" lon="3.52663">
        <ele>135</ele>
        <time>2018-03-31T21:32:32Z</time>
      </trkpt>
      <trkpt lat="49.19674" lon="3.52686">
        <ele>135</ele>
        <time>2018-03-31T21:33:32Z</time>
      </trkpt>
      <trkpt lat="49.19674" lon="3.52701">
        <ele>135</ele>
        <time>2018-03-31T21:34:32Z</time>
      </trkpt>
      <trkpt lat="49.19674" lon="3.52713">
        <ele>135</ele>
        <time>2018-03-31T21:35:32Z</time>
      </trkpt>
      <trkpt lat="49.19676" lon="3.52776">
        <ele>134</ele>
        <time>2018-03-31T21:36:32Z</time>
      </trkpt>
      <trkpt lat="49.19676" lon="3.52785">
        <ele>134</ele>
        <time>2018-03-31T21:37:32Z</time>
      </trkpt>
      <trkpt lat="49.1969" lon="3.52905">
        <ele>134</ele>
        <time>2018-03-31T21:38:32Z</time>
      </trkpt>
      <trkpt lat="49.19698" lon="3.52989">
        <ele>133</ele>
        <time>2018-03-31T21:39:32Z</time>
      </trkpt>
      <trkpt lat="49.19699" lon="3.52996">
        <ele>133</ele>
        <time>2018-03-31T21:40:32Z</time>
      </trkpt>
      <trkpt lat="49.19706" lon="3.53061">
        <ele>133</ele>
        <time>2018-03-31T21:41:32Z</time>
      </trkpt>
      <trkpt lat="49.19706" lon="3.5307">
        <ele>133</ele>
        <time>2018-03-31T21:42:32Z</time>
      </trkpt>
      <trkpt lat="49.19718" lon="3.5318">
        <ele>134</ele>
        <time>2018-03-31T21:43:32Z</time>
      </trkpt>
      <trkpt lat="49.19725" lon="3.5324">
        <ele>134</ele>
        <time>2018-03-31T21:44:32Z</time>
      </trkpt>
      <trkpt lat="49.19735" lon="3.53335">
        <ele>137</ele>
        <time>2018-03-31T21:45:32Z</time>
      </trkpt>
      <trkpt lat="49.19753" lon="3.5351">
        <ele>141</ele>
        <time>2018-03-31T21:46:32Z</time>
      </trkpt>
      <trkpt lat="49.19763" lon="3.53598">
        <ele>142</ele>
        <time>2018-03-31T21:47:32Z</time>
      </trkpt>
      <trkpt lat="49.19771" lon="3.53674">
        <ele>142</ele>
        <time>2018-03-31T21:48:32Z</time>
      </trkpt>
      <trkpt lat="49.19776" lon="3.53715">
        <ele>142</ele>
        <time>2018-03-31T21:49:32Z</time>
      </trkpt>
      <trkpt lat="49.19781" lon="3.5374">
        <ele>142</ele>
        <time>2018-03-31T21:50:32Z</time>
      </trkpt>
      <trkpt lat="49.19786" lon="3.53761">
        <ele>142</ele>
        <time>2018-03-31T21:51:32Z</time>
      </trkpt>
      <trkpt lat="49.19789" lon="3.53772">
        <ele>142</ele>
        <time>2018-03-31T21:52:32Z</time>
      </trkpt>
      <trkpt lat="49.19791" lon="3.53782">
        <ele>141</ele>
        <time>2018-03-31T21:53:32Z</time>
      </trkpt>
      <trkpt lat="49.19808" lon="3.53849">
        <ele>141</ele>
        <time>2018-03-31T21:54:32Z</time>
      </trkpt>
      <trkpt lat="49.19826" lon="3.5392">
        <ele>140</ele>
        <time>2018-03-31T21:55:32Z</time>
      </trkpt>
      <trkpt lat="49.19846" lon="3.53998">
        <ele>139</ele>
        <time>2018-03-31T21:56:32Z</time>
      </trkpt>
      <trkpt lat="49.19864" lon="3.54065">
        <ele>138</ele>
        <time>2018-03-31T21:57:32Z</time>
      </trkpt>
      <trkpt lat="49.1989" lon="3.54167">
        <ele>136</ele>
        <time>2018-03-31T21:58:32Z</time>
      </trkpt>
      <trkpt lat="49.19912" lon="3.54252">
        <ele>135</ele>
        <time>2018-03-31T21:59:32Z</time>
      </trkpt>
      <trkpt lat="49.19933" lon="3.54334">
        <ele>133</ele>
        <time>2018-03-31T22:00:32Z</time>
      </trkpt>
      <trkpt lat="49.19951" lon="3.54401">
        <ele>131</ele>
        <time>2018-03-31T22:01:32Z</time>
      </trkpt>
      <trkpt lat="49.19965" lon="3.54463">
        <ele>130</ele>
        <time>2018-03-31T22:02:32Z</time>
      </trkpt>
      <trkpt lat="49.20041" lon="3.54749">
        <ele>134</ele>
        <time>2018-03-31T22:03:32Z</time>
      </trkpt>
      <trkpt lat="49.20063" lon="3.54833">
        <ele>134</ele>
        <time>2018-03-31T22:04:32Z</time>
      </trkpt>
      <trkpt lat="49.20065" lon="3.54856">
        <ele>134</ele>
        <time>2018-03-31T22:05:32Z</time>
      </trkpt>
      <trkpt lat="49.20081" lon="3.54914">
        <ele>133</ele>
        <time>2018-03-31T22:06:32Z</time>
      </trkpt>
      <trkpt lat="49.20099" lon="3.54969">
        <ele>134</ele>
        <time>2018-03-31T22:07:32Z</time>
      </trkpt>
      <trkpt lat="49.20108" lon="3.54993">
        <ele>135</ele>
        <time>2018-03-31T22:08:32Z</time>
      </trkpt>
      <trkpt lat="49.2012" lon="3.5503">
        <ele>134</ele>
        <time>2018-03-31T22:09:32Z</time>
      </trkpt>
      <trkpt lat="49.20155" lon="3.5514">
        <ele>131</ele>
        <time>2018-03-31T22:10:32Z</time>
      </trkpt>
      <trkpt lat="49.20157" lon="3.55148">
        <ele>130</ele>
        <time>2018-03-31T22:11:32Z</time>
      </trkpt>
      <trkpt lat="49.20159" lon="3.55155">
        <ele>130</ele>
        <time>2018-03-31T22:12:32Z</time>
      </trkpt>
      <trkpt lat="49.20163" lon="3.55172">
        <ele>130</ele>
        <time>2018-03-31T22:13:32Z</time>
      </trkpt>
      <trkpt lat="49.20164" lon="3.55185">
        <ele>129</ele>
        <time>2018-03-31T22:14:32Z</time>
      </trkpt>
      <trkpt lat="49.20165" lon="3.552">
        <ele>129</ele>
        <time>2018-03-31T22:15:32Z</time>
      </trkpt>
      <trkpt lat="49.20165" lon="3.55217">
        <ele>129</ele>
        <time>2018-03-31T22:16:32Z</time>
      </trkpt>
      <trkpt lat="49.20165" lon="3.55228">
        <ele>128</ele>
        <time>2018-03-31T22:17:32Z</time>
      </trkpt>
      <trkpt lat="49.20164" lon="3.55239">
        <ele>128</ele>
        <time>2018-03-31T22:18:32Z</time>
      </trkpt>
      <trkpt lat="49.20161" lon="3.55254">
        <ele>128</ele>
        <time>2018-03-31T22:19:32Z</time>
      </trkpt>
      <trkpt lat="49.20158" lon="3.55271">
        <ele>127</ele>
        <time>2018-03-31T22:20:32Z</time>
      </trkpt>
      <trkpt lat="49.20152" lon="3.55291">
        <ele>127</ele>
        <time>2018-03-31T22:21:32Z</time>
      </trkpt>
      <trkpt lat="49.20145" lon="3.55312">
        <ele>127</ele>
        <time>2018-03-31T22:22:32Z</time>
      </trkpt>
      <trkpt lat="49.2014" lon="3.55331">
        <ele>127</ele>
        <time>2018-03-31T22:23:32Z</time>
      </trkpt>
      <trkpt lat="49.20135" lon="3.55348">
        <ele>127</ele>
        <time>2018-03-31T22:24:32Z</time>
      </trkpt>
      <trkpt lat="49.20132" lon="3.5536">
        <ele>127</ele>
        <time>2018-03-31T22:25:32Z</time>
      </trkpt>
      <trkpt lat="49.20129" lon="3.55378">
        <ele>127</ele>
        <time>2018-03-31T22:26:32Z</time>
      </trkpt>
      <trkpt lat="49.20129" lon="3.55393">
        <ele>128</ele>
        <time>2018-03-31T22:27:32Z</time>
      </trkpt>
      <trkpt lat="49.20129" lon="3.55408">
        <ele>128</ele>
        <time>2018-03-31T22:28:32Z</time>
      </trkpt>
      <trkpt lat="49.20129" lon="3.55425">
        <ele>128</ele>
        <time>2018-03-31T22:29:32Z</time>
      </trkpt>
      <trkpt lat="49.20131" lon="3.5544">
        <ele>129</ele>
        <time>2018-03-31T22:30:32Z</time>
      </trkpt>
      <trkpt lat="49.20134" lon="3.55454">
        <ele>129</ele>
        <time>2018-03-31T22:31:32Z</time>
      </trkpt>
      <trkpt lat="49.20138" lon="3.55471">
        <ele>130</ele>
        <time>2018-03-31T22:32:32Z</time>
      </trkpt>
      <trkpt lat="49.20144" lon="3.55487">
        <ele>131</ele>
        <time>2018-03-31T22:33:32Z</time>
      </trkpt>
      <trkpt lat="49.2015" lon="3.55502">
        <ele>131</ele>
        <time>2018-03-31T22:34:32Z</time>
      </trkpt>
      <trkpt lat="49.20157" lon="3.55517">
        <ele>131</ele>
        <time>2018-03-31T22:35:32Z</time>
      </trkpt>
      <trkpt lat="49.20167" lon="3.5554">
        <ele>132</ele>
        <time>2018-03-31T22:36:32Z</time>
      </trkpt>
      <trkpt lat="49.2018" lon="3.55569">
        <ele>132</ele>
        <time>2018-03-31T22:37:32Z</time>
      </trkpt>
      <trkpt lat="49.20189" lon="3.55588">
        <ele>132</ele>
        <time>2018-03-31T22:38:32Z</time>
      </trkpt>
      <trkpt lat="49.20193" lon="3.55598">
        <ele>131</ele>
        <time>2018-03-31T22:39:32Z</time>
      </trkpt>
      <trkpt lat="49.20196" lon="3.55608">
        <ele>131</ele>
        <time>2018-03-31T22:40:32Z</time>
      </trkpt>
      <trkpt lat="49.202" lon="3.55622">
        <ele>131</ele>
        <time>2018-03-31T22:41:32Z</time>
      </trkpt>
      <trkpt lat="49.20202" lon="3.55636">
        <ele>130</ele>
        <time>2018-03-31T22:42:32Z</time>
      </trkpt>
      <trkpt lat="49.20204" lon="3.55648">
        <ele>130</ele>
        <time>2018-03-31T22:43:32Z</time>
      </trkpt>
      <trkpt lat="49.20206" lon="3.55669">
        <ele>130</ele>
        <time>2018-03-31T22:44:32Z</time>
      </trkpt>
      <trkpt lat="49.20209" lon="3.55692">
        <ele>130</ele>
        <time>2018-03-31T22:45:32Z</time>
      </trkpt>
      <trkpt lat="49.20213" lon="3.55729">
        <ele>130</ele>
        <time>2018-03-31T22:46:32Z</time>
      </trkpt>
      <trkpt lat="49.20217" lon="3.55762">
        <ele>130</ele>
        <time>2018-03-31T22:47:32Z</time>
      </trkpt>
      <trkpt lat="49.2022" lon="3.55795">
        <ele>130</ele>
        <time>2018-03-31T22:48:32Z</time>
      </trkpt>
      <trkpt lat="49.20224" lon="3.5583">
        <ele>130</ele>
        <time>2018-03-31T22:49:32Z</time>
      </trkpt>
      <trkpt lat="49.20228" lon="3.55867">
        <ele>130</ele>
        <time>2018-03-31T22:50:32Z</time>
      </trkpt>
      <trkpt lat="49.20232" lon="3.559">
        <ele>129</ele>
        <time>2018-03-31T22:51:32Z</time>
      </trkpt>
      <trkpt lat="49.20236" lon="3.55941">
        <ele>130</ele>
        <time>2018-03-31T22:52:32Z</time>
      </trkpt>
      <trkpt lat="49.20241" lon="3.55978">
        <ele>130</ele>
        <time>2018-03-31T22:53:32Z</time>
      </trkpt>
      <trkpt lat="49.20246" lon="3.56018">
        <ele>131</ele>
        <time>2018-03-31T22:54:32Z</time>
      </trkpt>
      <trkpt lat="49.20252" lon="3.56074">
        <ele>133</ele>
        <time>2018-03-31T22:55:32Z</time>
      </trkpt>
      <trkpt lat="49.20256" lon="3.5611">
        <ele>133</ele>
        <time>2018-03-31T22:56:32Z</time>
      </trkpt>
      <trkpt lat="49.2026" lon="3.56153">
        <ele>134</ele>
        <time>2018-03-31T22:57:32Z</time>
      </trkpt>
      <trkpt lat="49.20265" lon="3.56195">
        <ele>134</ele>
        <time>2018-03-31T22:58:32Z</time>
      </trkpt>
      <trkpt lat="49.20268" lon="3.56229">
        <ele>134</ele>
        <time>2018-03-31T22:59:32Z</time>
      </trkpt>
      <trkpt lat="49.2027" lon="3.56253">
        <ele>134</ele>
        <time>2018-03-31T23:00:32Z</time>
      </trkpt>
      <trkpt lat="49.20271" lon="3.56281">
        <ele>134</ele>
        <time>2018-03-31T23:01:32Z</time>
      </trkpt>
      <trkpt lat="49.20272" lon="3.56323">
        <ele>134</ele>
        <time>2018-03-31T23:02:32Z</time>
      </trkpt>
      <trkpt lat="49.2027" lon="3.56351">
        <ele>135</ele>
        <time>2018-03-31T23:03:32Z</time>
      </trkpt>
      <trkpt lat="49.20269" lon="3.56379">
        <ele>135</ele>
        <time>2018-03-31T23:04:32Z</time>
      </trkpt>
      <trkpt lat="49.20266" lon="3.56412">
        <ele>135</ele>
        <time>2018-03-31T23:05:32Z</time>
      </trkpt>
      <trkpt lat="49.20261" lon="3.56443">
        <ele>135</ele>
        <time>2018-03-31T23:06:32Z</time>
      </trkpt>
      <trkpt lat="49.20255" lon="3.56489">
        <ele>136</ele>
        <time>2018-03-31T23:07:32Z</time>
      </trkpt>
      <trkpt lat="49.20249" lon="3.56534">
        <ele>135</ele>
        <time>2018-03-31T23:08:32Z</time>
      </trkpt>
      <trkpt lat="49.20243" lon="3.56574">
        <ele>135</ele>
        <time>2018-03-31T23:09:32Z</time>
      </trkpt>
      <trkpt lat="49.20236" lon="3.56619">
        <ele>135</ele>
        <time>2018-03-31T23:10:32Z</time>
      </trkpt>
      <trkpt lat="49.20231" lon="3.56655">
        <ele>135</ele>
        <time>2018-03-31T23:11:32Z</time>
      </trkpt>
      <trkpt lat="49.20226" lon="3.56688">
        <ele>135</ele>
        <time>2018-03-31T23:12:32Z</time>
      </trkpt>
      <trkpt lat="49.20221" lon="3.56724">
        <ele>135</ele>
        <time>2018-03-31T23:13:32Z</time>
      </trkpt>
      <trkpt lat="49.20217" lon="3.56752">
        <ele>136</ele>
        <time>2018-03-31T23:14:32Z</time>
      </trkpt>
      <trkpt lat="49.20215" lon="3.56771">
        <ele>135</ele>
        <time>2018-03-31T23:15:32Z</time>
      </trkpt>
      <trkpt lat="49.2021" lon="3.56801">
        <ele>134</ele>
        <time>2018-03-31T23:16:32Z</time>
      </trkpt>
      <trkpt lat="49.20204" lon="3.56841">
        <ele>134</ele>
        <time>2018-03-31T23:17:32Z</time>
      </trkpt>
      <trkpt lat="49.20199" lon="3.56882">
        <ele>134</ele>
        <time>2018-03-31T23:18:32Z</time>
      </trkpt>
      <trkpt lat="49.20194" lon="3.5691">
        <ele>134</ele>
        <time>2018-03-31T23:19:32Z</time>
      </trkpt>
      <trkpt lat="49.20188" lon="3.56951">
        <ele>135</ele>
        <time>2018-03-31T23:20:32Z</time>
      </trkpt>
      <trkpt lat="49.20183" lon="3.56993">
        <ele>136</ele>
        <time>2018-03-31T23:21:32Z</time>
      </trkpt>
      <trkpt lat="49.20177" lon="3.5703">
        <ele>136</ele>
        <time>2018-03-31T23:22:32Z</time>
      </trkpt>
      <trkpt lat="49.20176" lon="3.57042">
        <ele>136</ele>
        <time>2018-03-31T23:23:32Z</time>
      </trkpt>
      <trkpt lat="49.20174" lon="3.57056">
        <ele>137</ele>
        <time>2018-03-31T23:24:32Z</time>
      </trkpt>
      <trkpt lat="49.20169" lon="3.57094">
        <ele>137</ele>
        <time>2018-03-31T23:25:32Z</time>
      </trkpt>
      <trkpt lat="49.20164" lon="3.57136">
        <ele>136</ele>
        <time>2018-03-31T23:26:32Z</time>
      </trkpt>
      <trkpt lat="49.20161" lon="3.57171">
        <ele>136</ele>
        <time>2018-03-31T23:27:32Z</time>
      </trkpt>
      <trkpt lat="49.20159" lon="3.57195">
        <ele>137</ele>
        <time>2018-03-31T23:28:32Z</time>
      </trkpt>
      <trkpt lat="49.20159" lon="3.5722">
        <ele>137</ele>
        <time>2018-03-31T23:29:32Z</time>
      </trkpt>
      <trkpt lat="49.20158" lon="3.57248">
        <ele>137</ele>
        <time>2018-03-31T23:30:32Z</time>
      </trkpt>
      <trkpt lat="49.20159" lon="3.57278">
        <ele>137</ele>
        <time>2018-03-31T23:31:32Z</time>
      </trkpt>
      <trkpt lat="49.2016" lon="3.57307">
        <ele>137</ele>
        <time>2018-03-31T23:32:32Z</time>
      </trkpt>
      <trkpt lat="49.20162" lon="3.57338">
        <ele>137</ele>
        <time>2018-03-31T23:33:32Z</time>
      </trkpt>
      <trkpt lat="49.20165" lon="3.57378">
        <ele>138</ele>
        <time>2018-03-31T23:34:32Z</time>
      </trkpt>
      <trkpt lat="49.20166" lon="3.574">
        <ele>139</ele>
        <time>2018-03-31T23:35:32Z</time>
      </trkpt>
      <trkpt lat="49.20167" lon="3.57418">
        <ele>139</ele>
        <time>2018-03-31T23:36:32Z</time>
      </trkpt>
      <trkpt lat="49.20169" lon="3.57437">
        <ele>140</ele>
        <time>2018-03-31T23:37:32Z</time>
      </trkpt>
      <trkpt lat="49.2017" lon="3.5746">
        <ele>141</ele>
        <time>2018-03-31T23:38:32Z</time>
      </trkpt>
      <trkpt lat="49.20171" lon="3.57465">
        <ele>141</ele>
        <time>2018-03-31T23:39:32Z</time>
      </trkpt>
      <trkpt lat="49.20172" lon="3.5749">
        <ele>142</ele>
        <time>2018-03-31T23:40:32Z</time>
      </trkpt>
      <trkpt lat="49.20174" lon="3.57526">
        <ele>143</ele>
        <time>2018-03-31T23:41:32Z</time>
      </trkpt>
      <trkpt lat="49.20176" lon="3.57554">
        <ele>144</ele>
        <time>2018-03-31T23:42:32Z</time>
      </trkpt>
      <trkpt lat="49.20178" lon="3.57591">
        <ele>146</ele>
        <time>2018-03-31T23:43:32Z</time>
      </trkpt>
      <trkpt lat="49.2018" lon="3.5763">
        <ele>147</ele>
        <time>2018-03-31T23:44:32Z</time>
      </trkpt>
      <trkpt lat="49.20182" lon="3.57651">
        <ele>148</ele>
        <time>2018-03-31T23:45:32Z</time>
      </trkpt>
      <trkpt lat="49.20183" lon="3.57674">
        <ele>149</ele>
        <time>2018-03-31T23:46:32Z</time>
      </trkpt>
      <trkpt lat="49.20185" lon="3.57709">
        <ele>150</ele>
        <time>2018-03-31T23:47:32Z</time>
      </trkpt>
      <trkpt lat="49.20187" lon="3.57742">
        <ele>151</ele>
        <time>2018-03-31T23:48:32Z</time>
      </trkpt>
      <trkpt lat="49.2019" lon="3.57779">
        <ele>152</ele>
        <time>2018-03-31T23:49:32Z</time>
      </trkpt>
      <trkpt lat="49.2019" lon="3.57788">
        <ele>152</ele>
        <time>2018-03-31T23:50:32Z</time>
      </trkpt>
      <trkpt lat="49.20192" lon="3.57812">
        <ele>153</ele>
        <time>2018-03-31T23:51:32Z</time>
      </trkpt>
      <trkpt lat="49.20194" lon="3.57845">
        <ele>153</ele>
        <time>2018-03-31T23:52:32Z</time>
      </trkpt>
      <trkpt lat="49.20197" lon="3.57897">
        <ele>155</ele>
        <time>2018-03-31T23:53:32Z</time>
      </trkpt>
      <trkpt lat="49.202" lon="3.57938">
        <ele>155</ele>
        <time>2018-03-31T23:54:32Z</time>
      </trkpt>
      <trkpt lat="49.20202" lon="3.57979">
        <ele>156</ele>
        <time>2018-03-31T23:55:32Z</time>
      </trkpt>
      <trkpt lat="49.20203" lon="3.58012">
        <ele>157</ele>
        <time>2018-03-31T23:56:32Z</time>
      </trkpt>
      <trkpt lat="49.20203" lon="3.58046">
        <ele>157</ele>
        <time>2018-03-31T23:57:32Z</time>
      </trkpt>
      <trkpt lat="49.20202" lon="3.58088">
        <ele>157</ele>
        <time>2018-03-31T23:58:32Z</time>
      </trkpt>
      <trkpt lat="49.20201" lon="3.58117">
        <ele>158</ele>
        <time>2018-03-31T23:59:32Z</time>
      </trkpt>
      <trkpt lat="49.20198" lon="3.58149">
        <ele>158</ele>
        <time>2018-04-01T00:00:32Z</time>
      </trkpt>
      <trkpt lat="49.20196" lon="3.58173">
        <ele>159</ele>
        <time>2018-04-01T00:01:32Z</time>
      </trkpt>
      <trkpt lat="49.20194" lon="3.58191">
        <ele>159</ele>
        <time>2018-04-01T00:02:32Z</time>
      </trkpt>
      <trkpt lat="49.20192" lon="3.58211">
        <ele>159</ele>
        <time>2018-04-01T00:03:32Z</time>
      </trkpt>
      <trkpt lat="49.20191" lon="3.58224">
        <ele>160</ele>
        <time>2018-04-01T00:04:32Z</time>
      </trkpt>
      <trkpt lat="49.20189" lon="3.58242">
        <ele>160</ele>
        <time>2018-04-01T00:05:32Z</time>
      </trkpt>
      <trkpt lat="49.20184" lon="3.58278">
        <ele>160</ele>
        <time>2018-04-01T00:06:32Z</time>
      </trkpt>
      <trkpt lat="49.2018" lon="3.58311">
        <ele>161</ele>
        <time>2018-04-01T00:07:32Z</time>
      </trkpt>
      <trkpt lat="49.20178" lon="3.58324">
        <ele>161</ele>
        <time>2018-04-01T00:08:32Z</time>
      </trkpt>
      <trkpt lat="49.20177" lon="3.58333">
        <ele>161</ele>
        <time>2018-04-01T00:09:32Z</time>
      </trkpt>
      <trkpt lat="49.20174" lon="3.58365">
        <ele>161</ele>
        <time>2018-04-01T00:10:32Z</time>
      </trkpt>
      <trkpt lat="49.20171" lon="3.58392">
        <ele>162</ele>
        <time>2018-04-01T00:11:32Z</time>
      </trkpt>
      <trkpt lat="49.2017" lon="3.58403">
        <ele>162</ele>
        <time>2018-04-01T00:12:32Z</time>
      </trkpt>
      <trkpt lat="49.20165" lon="3.58443">
        <ele>162</ele>
        <time>2018-04-01T00:13:32Z</time>
      </trkpt>
      <trkpt lat="49.20163" lon="3.58465">
        <ele>163</ele>
        <time>2018-04-01T00:14:32Z</time>
      </trkpt>
      <trkpt lat="49.20159" lon="3.58497">
        <ele>164</ele>
        <time>2018-04-01T00:15:32Z</time>
      </trkpt>
      <trkpt lat="49.20154" lon="3.58536">
        <ele>163</ele>
        <time>2018-04-01T00:16:32Z</time>
      </trkpt>
      <trkpt lat="49.20151" lon="3.58562">
        <ele>162</ele>
        <time>2018-04-01T00:17:32Z</time>
      </trkpt>
      <trkpt lat="49.20149" lon="3.58585">
        <ele>162</ele>
        <time>2018-04-01T00:18:32Z</time>
      </trkpt>
      <trkpt lat="49.20144" lon="3.58626">
        <ele>161</ele>
        <time>2018-04-01T00:19:32Z</time>
      </trkpt>
      <trkpt lat="49.2014" lon="3.58659">
        <ele>161</ele>
        <time>2018-04-01T00:20:32Z</time>
      </trkpt>
      <trkpt lat="49.20136" lon="3.58693">
        <ele>161</ele>
        <time>2018-04-01T00:21:32Z</time>
      </trkpt>
      <trkpt lat="49.20131" lon="3.58734">
        <ele>162</ele>
        <time>2018-04-01T00:22:32Z</time>
      </trkpt>
      <trkpt lat="49.20127" lon="3.58776">
        <ele>162</ele>
        <time>2018-04-01T00:23:32Z</time>
      </trkpt>
      <trkpt lat="49.20123" lon="3.58804">
        <ele>162</ele>
        <time>2018-04-01T00:24:32Z</time>
      </trkpt>
      <trkpt lat="49.2012" lon="3.5883">
        <ele>163</ele>
        <time>2018-04-01T00:25:32Z</time>
      </trkpt>
      <trkpt lat="49.20116" lon="3.58864">
        <ele>163</ele>
        <time>2018-04-01T00:26:32Z</time>
      </trkpt>
      <trkpt lat="49.20113" lon="3.58895">
        <ele>163</ele>
        <time>2018-04-01T00:27:32Z</time>
      </trkpt>
      <trkpt lat="49.2011" lon="3.58921">
        <ele>163</ele>
        <time>2018-04-01T00:28:32Z</time>
      </trkpt>
      <trkpt lat="49.20106" lon="3.58955">
        <ele>163</ele>
        <time>2018-04-01T00:29:32Z</time>
      </trkpt>
      <trkpt lat="49.20102" lon="3.58985">
        <ele>162</ele>
        <time>2018-04-01T00:30:32Z</time>
      </trkpt>
      <trkpt lat="49.20098" lon="3.59017">
        <ele>162</ele>
        <time>2018-04-01T00:31:32Z</time>
      </trkpt>
      <trkpt lat="49.20094" lon="3.59051">
        <ele>163</ele>
        <time>2018-04-01T00:32:32Z</time>
      </trkpt>
      <trkpt lat="49.20089" lon="3.59101">
        <ele>164</ele>
        <time>2018-04-01T00:33:32Z</time>
      </trkpt>
      <trkpt lat="49.20085" lon="3.59129">
        <ele>164</ele>
        <time>2018-04-01T00:34:32Z</time>
      </trkpt>
      <trkpt lat="49.20082" lon="3.59157">
        <ele>164</ele>
        <time>2018-04-01T00:35:32Z</time>
      </trkpt>
      <trkpt lat="49.20078" lon="3.59192">
        <ele>165</ele>
        <time>2018-04-01T00:36:32Z</time>
      </trkpt>
      <trkpt lat="49.20074" lon="3.59232">
        <ele>165</ele>
        <time>2018-04-01T00:37:32Z</time>
      </trkpt>
      <trkpt lat="49.20068" lon="3.59279">
        <ele>166</ele>
        <time>2018-04-01T00:38:32Z</time>
      </trkpt>
      <trkpt lat="49.20064" lon="3.59313">
        <ele>167</ele>
        <time>2018-04-01T00:39:32Z</time>
      </trkpt>
      <trkpt lat="49.20058" lon="3.5937">
        <ele>168</ele>
        <time>2018-04-01T00:40:32Z</time>
      </trkpt>
      <trkpt lat="49.20055" lon="3.59391">
        <ele>169</ele>
        <time>2018-04-01T00:41:32Z</time>
      </trkpt>
      <trkpt lat="49.20053" lon="3.59402">
        <ele>169</ele>
        <time>2018-04-01T00:42:32Z</time>
      </trkpt>
      <trkpt lat="49.20051" lon="3.59429">
        <ele>169</ele>
        <time>2018-04-01T00:43:32Z</time>
      </trkpt>
      <trkpt lat="49.20045" lon="3.59474">
        <ele>169</ele>
        <time>2018-04-01T00:44:32Z</time>
      </trkpt>
      <trkpt lat="49.2004" lon="3.5952">
        <ele>169</ele>
        <time>2018-04-01T00:45:32Z</time>
      </trkpt>
      <trkpt lat="49.20037" lon="3.59543">
        <ele>169</ele>
        <time>2018-04-01T00:46:32Z</time>
      </trkpt>
      <trkpt lat="49.20034" lon="3.59574">
        <ele>168</ele>
        <time>2018-04-01T00:47:32Z</time>
      </trkpt>
      <trkpt lat="49.20029" lon="3.59619">
        <ele>167</ele>
        <time>2018-04-01T00:48:32Z</time>
      </trkpt>
      <trkpt lat="49.20024" lon="3.59657">
        <ele>167</ele>
        <time>2018-04-01T00:49:32Z</time>
      </trkpt>
      <trkpt lat="49.2002" lon="3.59695">
        <ele>166</ele>
        <time>2018-04-01T00:50:32Z</time>
      </trkpt>
      <trkpt lat="49.20017" lon="3.59719">
        <ele>165</ele>
        <time>2018-04-01T00:51:32Z</time>
      </trkpt>
      <trkpt lat="49.20016" lon="3.59725">
        <ele>165</ele>
        <time>2018-04-01T00:52:32Z</time>
      </trkpt>
      <trkpt lat="49.20015" lon="3.59736">
        <ele>165</ele>
        <time>2018-04-01T00:53:32Z</time>
      </trkpt>
      <trkpt lat="49.20014" lon="3.59746">
        <ele>165</ele>
        <time>2018-04-01T00:54:32Z</time>
      </trkpt>
      <trkpt lat="49.20008" lon="3.59795">
        <ele>165</ele>
        <time>2018-04-01T00:55:32Z</time>
      </trkpt>
      <trkpt lat="49.20005" lon="3.59829">
        <ele>166</ele>
        <time>2018-04-01T00:56:32Z</time>
      </trkpt>
      <trkpt lat="49.19999" lon="3.59879">
        <ele>167</ele>
        <time>2018-04-01T00:57:32Z</time>
      </trkpt>
      <trkpt lat="49.19995" lon="3.59913">
        <ele>167</ele>
        <time>2018-04-01T00:58:32Z</time>
      </trkpt>
      <trkpt lat="49.19992" lon="3.59936">
        <ele>168</ele>
        <time>2018-04-01T00:59:32Z</time>
      </trkpt>
      <trkpt lat="49.19989" lon="3.59963">
        <ele>169</ele>
        <time>2018-04-01T01:00:32Z</time>
      </trkpt>
      <trkpt lat="49.19986" lon="3.59992">
        <ele>169</ele>
        <time>2018-04-01T01:01:32Z</time>
      </trkpt>
      <trkpt lat="49.19983" lon="3.60017">
        <ele>170</ele>
        <time>2018-04-01T01:02:32Z</time>
      </trkpt>
      <trkpt lat="49.19978" lon="3.60057">
        <ele>172</ele>
        <time>2018-04-01T01:03:32Z</time>
      </trkpt>
      <trkpt lat="49.19976" lon="3.60086">
        <ele>172</ele>
        <time>2018-04-01T01:04:32Z</time>
      </trkpt>
      <trkpt lat="49.19971" lon="3.60123">
        <ele>173</ele>
        <time>2018-04-01T01:05:32Z</time>
      </trkpt>
      <trkpt lat="49.19968" lon="3.60156">
        <ele>174</ele>
        <time>2018-04-01T01:06:32Z</time>
      </trkpt>
      <trkpt lat="49.19964" lon="3.60192">
        <ele>175</ele>
        <time>2018-04-01T01:07:32Z</time>
      </trkpt>
      <trkpt lat="49.19959" lon="3.60237">
        <ele>176</ele>
        <time>2018-04-01T01:08:32Z</time>
      </trkpt>
      <trkpt lat="49.19955" lon="3.60266">
        <ele>177</ele>
        <time>2018-04-01T01:09:32Z</time>
      </trkpt>
      <trkpt lat="49.19952" lon="3.60293">
        <ele>177</ele>
        <time>2018-04-01T01:10:32Z</time>
      </trkpt>
      <trkpt lat="49.19949" lon="3.60313">
        <ele>178</ele>
        <time>2018-04-01T01:11:32Z</time>
      </trkpt>
      <trkpt lat="49.19948" lon="3.60328">
        <ele>178</ele>
        <time>2018-04-01T01:12:32Z</time>
      </trkpt>
      <trkpt lat="49.19945" lon="3.60353">
        <ele>179</ele>
        <time>2018-04-01T01:13:32Z</time>
      </trkpt>
      <trkpt lat="49.19944" lon="3.60369">
        <ele>180</ele>
        <time>2018-04-01T01:14:32Z</time>
      </trkpt>
      <trkpt lat="49.19943" lon="3.60383">
        <ele>180</ele>
        <time>2018-04-01T01:15:32Z</time>
      </trkpt>
      <trkpt lat="49.19942" lon="3.60398">
        <ele>181</ele>
        <time>2018-04-01T01:16:32Z</time>
      </trkpt>
      <trkpt lat="49.19942" lon="3.60413">
        <ele>182</ele>
        <time>2018-04-01T01:17:32Z</time>
      </trkpt>
      <trkpt lat="49.19942" lon="3.6043">
        <ele>182</ele>
        <time>2018-04-01T01:18:32Z</time>
      </trkpt>
      <trkpt lat="49.19943" lon="3.60444">
        <ele>183</ele>
        <time>2018-04-01T01:19:32Z</time>
      </trkpt>
      <trkpt lat="49.19943" lon="3.60459">
        <ele>183</ele>
        <time>2018-04-01T01:20:32Z</time>
      </trkpt>
      <trkpt lat="49.19945" lon="3.6048">
        <ele>184</ele>
        <time>2018-04-01T01:21:32Z</time>
      </trkpt>
      <trkpt lat="49.19947" lon="3.60496">
        <ele>184</ele>
        <time>2018-04-01T01:22:32Z</time>
      </trkpt>
      <trkpt lat="49.1995" lon="3.60513">
        <ele>185</ele>
        <time>2018-04-01T01:23:32Z</time>
      </trkpt>
      <trkpt lat="49.19952" lon="3.60529">
        <ele>185</ele>
        <time>2018-04-01T01:24:32Z</time>
      </trkpt>
      <trkpt lat="49.19954" lon="3.60545">
        <ele>185</ele>
        <time>2018-04-01T01:25:32Z</time>
      </trkpt>
      <trkpt lat="49.19957" lon="3.6056">
        <ele>186</ele>
        <time>2018-04-01T01:26:32Z</time>
      </trkpt>
      <trkpt lat="49.19961" lon="3.60579">
        <ele>186</ele>
        <time>2018-04-01T01:27:32Z</time>
      </trkpt>
      <trkpt lat="49.19964" lon="3.60595">
        <ele>186</ele>
        <time>2018-04-01T01:28:32Z</time>
      </trkpt>
      <trkpt lat="49.19968" lon="3.60612">
        <ele>186</ele>
        <time>2018-04-01T01:29:32Z</time>
      </trkpt>
      <trkpt lat="49.19974" lon="3.60641">
        <ele>187</ele>
        <time>2018-04-01T01:30:32Z</time>
      </trkpt>
      <trkpt lat="49.19979" lon="3.60666">
        <ele>187</ele>
        <time>2018-04-01T01:31:32Z</time>
      </trkpt>
      <trkpt lat="49.19985" lon="3.60696">
        <ele>188</ele>
        <time>2018-04-01T01:32:32Z</time>
      </trkpt>
      <trkpt lat="49.19992" lon="3.6073">
        <ele>189</ele>
        <time>2018-04-01T01:33:32Z</time>
      </trkpt>
      <trkpt lat="49.19998" lon="3.60762">
        <ele>189</ele>
        <time>2018-04-01T01:34:32Z</time>
      </trkpt>
      <trkpt lat="49.20005" lon="3.60793">
        <ele>190</ele>
        <time>2018-04-01T01:35:32Z</time>
      </trkpt>
      <trkpt lat="49.20012" lon="3.60827">
        <ele>191</ele>
        <time>2018-04-01T01:36:32Z</time>
      </trkpt>
      <trkpt lat="49.20016" lon="3.60849">
        <ele>191</ele>
        <time>2018-04-01T01:37:32Z</time>
      </trkpt>
      <trkpt lat="49.20019" lon="3.60864">
        <ele>191</ele>
        <time>2018-04-01T01:38:32Z</time>
      </trkpt>
      <trkpt lat="49.20024" lon="3.60889">
        <ele>191</ele>
        <time>2018-04-01T01:39:32Z</time>
      </trkpt>
      <trkpt lat="49.2003" lon="3.60914">
        <ele>191</ele>
        <time>2018-04-01T01:40:32Z</time>
      </trkpt>
      <trkpt lat="49.20036" lon="3.60946">
        <ele>191</ele>
        <time>2018-04-01T01:41:32Z</time>
      </trkpt>
      <trkpt lat="49.20042" lon="3.60975">
        <ele>190</ele>
        <time>2018-04-01T01:42:32Z</time>
      </trkpt>
      <trkpt lat="49.20048" lon="3.61005">
        <ele>190</ele>
        <time>2018-04-01T01:43:32Z</time>
      </trkpt>
      <trkpt lat="49.20055" lon="3.61039">
        <ele>189</ele>
        <time>2018-04-01T01:44:32Z</time>
      </trkpt>
      <trkpt lat="49.20063" lon="3.61075">
        <ele>188</ele>
        <time>2018-04-01T01:45:32Z</time>
      </trkpt>
      <trkpt lat="49.20072" lon="3.6112">
        <ele>188</ele>
        <time>2018-04-01T01:46:32Z</time>
      </trkpt>
      <trkpt lat="49.20079" lon="3.61157">
        <ele>187</ele>
        <time>2018-04-01T01:47:32Z</time>
      </trkpt>
      <trkpt lat="49.20086" lon="3.61193">
        <ele>187</ele>
        <time>2018-04-01T01:48:32Z</time>
      </trkpt>
      <trkpt lat="49.2009" lon="3.6121">
        <ele>187</ele>
        <time>2018-04-01T01:49:32Z</time>
      </trkpt>
      <trkpt lat="49.20093" lon="3.61224">
        <ele>187</ele>
        <time>2018-04-01T01:50:32Z</time>
      </trkpt>
      <trkpt lat="49.201" lon="3.61258">
        <ele>187</ele>
        <time>2018-04-01T01:51:32Z</time>
      </trkpt>
      <trkpt lat="49.20108" lon="3.61297">
        <ele>187</ele>
        <time>2018-04-01T01:52:32Z</time>
      </trkpt>
      <trkpt lat="49.20115" lon="3.61334">
        <ele>186</ele>
        <time>2018-04-01T01:53:32Z</time>
      </trkpt>
      <trkpt lat="49.20123" lon="3.61372">
        <ele>186</ele>
        <time>2018-04-01T01:54:32Z</time>
      </trkpt>
      <trkpt lat="49.2013" lon="3.61406">
        <ele>186</ele>
        <time>2018-04-01T01:55:32Z</time>
      </trkpt>
      <trkpt lat="49.20134" lon="3.61424">
        <ele>186</ele>
        <time>2018-04-01T01:56:32Z</time>
      </trkpt>
      <trkpt lat="49.20138" lon="3.61443">
        <ele>186</ele>
        <time>2018-04-01T01:57:32Z</time>
      </trkpt>
      <trkpt lat="49.20147" lon="3.61485">
        <ele>186</ele>
        <time>2018-04-01T01:58:32Z</time>
      </trkpt>
      <trkpt lat="49.20154" lon="3.61522">
        <ele>185</ele>
        <time>2018-04-01T01:59:32Z</time>
      </trkpt>
      <trkpt lat="49.20161" lon="3.61556">
        <ele>184</ele>
        <time>2018-04-01T02:00:32Z</time>
      </trkpt>
      <trkpt lat="49.2017" lon="3.61597">
        <ele>183</ele>
        <time>2018-04-01T02:01:32Z</time>
      </trkpt>
      <trkpt lat="49.20181" lon="3.6165">
        <ele>183</ele>
        <time>2018-04-01T02:02:32Z</time>
      </trkpt>
      <trkpt lat="49.20191" lon="3.61697">
        <ele>182</ele>
        <time>2018-04-01T02:03:32Z</time>
      </trkpt>
      <trkpt lat="49.20198" lon="3.61735">
        <ele>181</ele>
        <time>2018-04-01T02:04:32Z</time>
      </trkpt>
      <trkpt lat="49.20206" lon="3.61774">
        <ele>180</ele>
        <time>2018-04-01T02:05:32Z</time>
      </trkpt>
      <trkpt lat="49.20209" lon="3.61796">
        <ele>179</ele>
        <time>2018-04-01T02:06:32Z</time>
      </trkpt>
      <trkpt lat="49.2021" lon="3.61808">
        <ele>179</ele>
        <time>2018-04-01T02:07:32Z</time>
      </trkpt>
      <trkpt lat="49.20212" lon="3.61823">
        <ele>178</ele>
        <time>2018-04-01T02:08:32Z</time>
      </trkpt>
      <trkpt lat="49.20213" lon="3.61838">
        <ele>178</ele>
        <time>2018-04-01T02:09:32Z</time>
      </trkpt>
      <trkpt lat="49.20213" lon="3.6185">
        <ele>178</ele>
        <time>2018-04-01T02:10:32Z</time>
      </trkpt>
      <trkpt lat="49.20213" lon="3.61861">
        <ele>177</ele>
        <time>2018-04-01T02:11:32Z</time>
      </trkpt>
      <trkpt lat="49.20212" lon="3.61877">
        <ele>177</ele>
        <time>2018-04-01T02:12:32Z</time>
      </trkpt>
      <trkpt lat="49.20211" lon="3.61892">
        <ele>176</ele>
        <time>2018-04-01T02:13:32Z</time>
      </trkpt>
      <trkpt lat="49.2021" lon="3.61901">
        <ele>176</ele>
        <time>2018-04-01T02:14:32Z</time>
      </trkpt>
      <trkpt lat="49.20209" lon="3.6191">
        <ele>176</ele>
        <time>2018-04-01T02:15:32Z</time>
      </trkpt>
      <trkpt lat="49.20208" lon="3.6192">
        <ele>175</ele>
        <time>2018-04-01T02:16:32Z</time>
      </trkpt>
      <trkpt lat="49.20205" lon="3.61933">
        <ele>175</ele>
        <time>2018-04-01T02:17:32Z</time>
      </trkpt>
      <trkpt lat="49.20203" lon="3.61945">
        <ele>175</ele>
        <time>2018-04-01T02:18:32Z</time>
      </trkpt>
      <trkpt lat="49.20201" lon="3.61952">
        <ele>174</ele>
        <time>2018-04-01T02:19:32Z</time>
      </trkpt>
      <trkpt lat="49.20198" lon="3.61963">
        <ele>174</ele>
        <time>2018-04-01T02:20:32Z</time>
      </trkpt>
      <trkpt lat="49.20196" lon="3.61973">
        <ele>174</ele>
        <time>2018-04-01T02:21:32Z</time>
      </trkpt>
      <trkpt lat="49.20194" lon="3.61977">
        <ele>174</ele>
        <time>2018-04-01T02:22:32Z</time>
      </trkpt>
      <trkpt lat="49.20191" lon="3.61986">
        <ele>173</ele>
        <time>2018-04-01T02:23:32Z</time>
      </trkpt>
      <trkpt lat="49.20187" lon="3.61999">
        <ele>173</ele>
        <time>2018-04-01T02:24:32Z</time>
      </trkpt>
      <trkpt lat="49.20184" lon="3.62005">
        <ele>173</ele>
        <time>2018-04-01T02:25:32Z</time>
      </trkpt>
      <trkpt lat="49.20182" lon="3.6201">
        <ele>172</ele>
        <time>2018-04-01T02:26:32Z</time>
      </trkpt>
      <trkpt lat="49.20172" lon="3.62036">
        <ele>171</ele>
        <time>2018-04-01T02:27:32Z</time>
      </trkpt>
      <trkpt lat="49.20158" lon="3.62071">
        <ele>170</ele>
        <time>2018-04-01T02:28:32Z</time>
      </trkpt>
      <trkpt lat="49.20143" lon="3.62108">
        <ele>168</ele>
        <time>2018-04-01T02:29:32Z</time>
      </trkpt>
      <trkpt lat="49.20126" lon="3.62149">
        <ele>167</ele>
        <time>2018-04-01T02:30:32Z</time>
      </trkpt>
      <trkpt lat="49.20111" lon="3.62185">
        <ele>165</ele>
        <time>2018-04-01T02:31:32Z</time>
      </trkpt>
      <trkpt lat="49.20096" lon="3.62219">
        <ele>164</ele>
        <time>2018-04-01T02:32:32Z</time>
      </trkpt>
      <trkpt lat="49.20084" lon="3.6225">
        <ele>162</ele>
        <time>2018-04-01T02:33:32Z</time>
      </trkpt>
      <trkpt lat="49.20083" lon="3.62254">
        <ele>162</ele>
        <time>2018-04-01T02:34:32Z</time>
      </trkpt>
      <trkpt lat="49.2007" lon="3.62284">
        <ele>162</ele>
        <time>2018-04-01T02:35:32Z</time>
      </trkpt>
      <trkpt lat="49.20067" lon="3.62292">
        <ele>162</ele>
        <time>2018-04-01T02:36:32Z</time>
      </trkpt>
      <trkpt lat="49.20055" lon="3.62319">
        <ele>162</ele>
        <time>2018-04-01T02:37:32Z</time>
      </trkpt>
      <trkpt lat="49.20037" lon="3.62366">
        <ele>160</ele>
        <time>2018-04-01T02:38:32Z</time>
      </trkpt>
      <trkpt lat="49.20034" lon="3.62372">
        <ele>160</ele>
        <time>2018-04-01T02:39:32Z</time>
      </trkpt>
      <trkpt lat="49.20014" lon="3.62421">
        <ele>156</ele>
        <time>2018-04-01T02:40:32Z</time>
      </trkpt>
      <trkpt lat="49.19997" lon="3.62461">
        <ele>155</ele>
        <time>2018-04-01T02:41:32Z</time>
      </trkpt>
      <trkpt lat="49.19981" lon="3.62499">
        <ele>154</ele>
        <time>2018-04-01T02:42:32Z</time>
      </trkpt>
      <trkpt lat="49.19964" lon="3.62543">
        <ele>152</ele>
        <time>2018-04-01T02:43:32Z</time>
      </trkpt>
      <trkpt lat="49.19947" lon="3.62583">
        <ele>151</ele>
        <time>2018-04-01T02:44:32Z</time>
      </trkpt>
      <trkpt lat="49.19931" lon="3.62624">
        <ele>150</ele>
        <time>2018-04-01T02:45:32Z</time>
      </trkpt>
      <trkpt lat="49.19913" lon="3.62667">
        <ele>148</ele>
        <time>2018-04-01T02:46:32Z</time>
      </trkpt>
      <trkpt lat="49.19897" lon="3.62708">
        <ele>147</ele>
        <time>2018-04-01T02:47:32Z</time>
      </trkpt>
      <trkpt lat="49.19881" lon="3.62745">
        <ele>146</ele>
        <time>2018-04-01T02:48:32Z</time>
      </trkpt>
      <trkpt lat="49.19871" lon="3.6277">
        <ele>144</ele>
        <time>2018-04-01T02:49:32Z</time>
      </trkpt>
      <trkpt lat="49.19849" lon="3.62822">
        <ele>141</ele>
        <time>2018-04-01T02:50:32Z</time>
      </trkpt>
      <trkpt lat="49.1983" lon="3.62869">
        <ele>139</ele>
        <time>2018-04-01T02:51:32Z</time>
      </trkpt>
      <trkpt lat="49.19822" lon="3.62888">
        <ele>138</ele>
        <time>2018-04-01T02:52:32Z</time>
      </trkpt>
      <trkpt lat="49.19822" lon="3.62888">
        <ele>138</ele>
        <time>2018-04-01T02:53:32Z</time>
      </trkpt>
      <trkpt lat="49.19857" lon="3.62988">
        <ele>138</ele>
        <time>2018-04-01T02:54:32Z</time>
      </trkpt>
      <trkpt lat="49.19877" lon="3.63043">
        <ele>138</ele>
        <time>2018-04-01T02:55:32Z</time>
      </trkpt>
      <trkpt lat="49.19888" lon="3.63072">
        <ele>138</ele>
        <time>2018-04-01T02:56:32Z</time>
      </trkpt>
      <trkpt lat="49.19902" lon="3.63108">
        <ele>138</ele>
        <time>2018-04-01T02:57:32Z</time>
      </trkpt>
      <trkpt lat="49.19913" lon="3.63138">
        <ele>138</ele>
        <time>2018-04-01T02:58:32Z</time>
      </trkpt>
      <trkpt lat="49.19923" lon="3.63163">
        <ele>138</ele>
        <time>2018-04-01T02:59:32Z</time>
      </trkpt>
      <trkpt lat="49.19934" lon="3.63189">
        <ele>138</ele>
        <time>2018-04-01T03:00:32Z</time>
      </trkpt>
      <trkpt lat="49.19943" lon="3.63211">
        <ele>138</ele>
        <time>2018-04-01T03:01:32Z</time>
      </trkpt>
      <trkpt lat="49.19952" lon="3.63231">
        <ele>138</ele>
        <time>2018-04-01T03:02:32Z</time>
      </trkpt>
      <trkpt lat="49.19963" lon="3.63252">
        <ele>138</ele>
        <time>2018-04-01T03:03:32Z</time>
      </trkpt>
      <trkpt lat="49.19975" lon="3.63273">
        <ele>138</ele>
        <time>2018-04-01T03:04:32Z</time>
      </trkpt>
      <trkpt lat="49.19983" lon="3.63286">
        <ele>139</ele>
        <time>2018-04-01T03:05:32Z</time>
      </trkpt>
      <trkpt lat="49.19992" lon="3.63299">
        <ele>139</ele>
        <time>2018-04-01T03:06:32Z</time>
      </trkpt>
      <trkpt lat="49.20008" lon="3.63322">
        <ele>138</ele>
        <time>2018-04-01T03:07:32Z</time>
      </trkpt>
      <trkpt lat="49.20032" lon="3.63356">
        <ele>137</ele>
        <time>2018-04-01T03:08:32Z</time>
      </trkpt>
      <trkpt lat="49.20043" lon="3.63372">
        <ele>136</ele>
        <time>2018-04-01T03:09:32Z</time>
      </trkpt>
      <trkpt lat="49.2005" lon="3.63382">
        <ele>136</ele>
        <time>2018-04-01T03:10:32Z</time>
      </trkpt>
      <trkpt lat="49.20055" lon="3.6339">
        <ele>135</ele>
        <time>2018-04-01T03:11:32Z</time>
      </trkpt>
      <trkpt lat="49.20058" lon="3.63395">
        <ele>135</ele>
        <time>2018-04-01T03:12:32Z</time>
      </trkpt>
      <trkpt lat="49.20061" lon="3.63401">
        <ele>135</ele>
        <time>2018-04-01T03:13:32Z</time>
      </trkpt>
      <trkpt lat="49.20064" lon="3.63409">
        <ele>135</ele>
        <time>2018-04-01T03:14:32Z</time>
      </trkpt>
      <trkpt lat="49.20075" lon="3.63432">
        <ele>134</ele>
        <time>2018-04-01T03:15:32Z</time>
      </trkpt>
      <trkpt lat="49.2008" lon="3.63442">
        <ele>133</ele>
        <time>2018-04-01T03:16:32Z</time>
      </trkpt>
      <trkpt lat="49.20088" lon="3.63455">
        <ele>133</ele>
        <time>2018-04-01T03:17:32Z</time>
      </trkpt>
      <trkpt lat="49.2009" lon="3.63459">
        <ele>132</ele>
        <time>2018-04-01T03:18:32Z</time>
      </trkpt>
      <trkpt lat="49.20094" lon="3.63462">
        <ele>132</ele>
        <time>2018-04-01T03:19:32Z</time>
      </trkpt>
      <trkpt lat="49.20098" lon="3.63466">
        <ele>132</ele>
        <time>2018-04-01T03:20:32Z</time>
      </trkpt>
      <trkpt lat="49.20104" lon="3.63469">
        <ele>132</ele>
        <time>2018-04-01T03:21:32Z</time>
      </trkpt>
      <trkpt lat="49.20109" lon="3.63471">
        <ele>132</ele>
        <time>2018-04-01T03:22:32Z</time>
      </trkpt>
      <trkpt lat="49.20123" lon="3.63475">
        <ele>132</ele>
        <time>2018-04-01T03:23:32Z</time>
      </trkpt>
      <trkpt lat="49.20135" lon="3.63478">
        <ele>132</ele>
        <time>2018-04-01T03:24:32Z</time>
      </trkpt>
      <trkpt lat="49.20145" lon="3.63481">
        <ele>132</ele>
        <time>2018-04-01T03:25:32Z</time>
      </trkpt>
      <trkpt lat="49.2015" lon="3.63483">
        <ele>131</ele>
        <time>2018-04-01T03:26:32Z</time>
      </trkpt>
      <trkpt lat="49.20155" lon="3.63485">
        <ele>131</ele>
        <time>2018-04-01T03:27:32Z</time>
      </trkpt>
      <trkpt lat="49.20158" lon="3.63487">
        <ele>131</ele>
        <time>2018-04-01T03:28:32Z</time>
      </trkpt>
      <trkpt lat="49.2016" lon="3.63488">
        <ele>131</ele>
        <time>2018-04-01T03:29:32Z</time>
      </trkpt>
      <trkpt lat="49.20162" lon="3.6349">
        <ele>131</ele>
        <time>2018-04-01T03:30:32Z</time>
      </trkpt>
      <trkpt lat="49.20164" lon="3.63493">
        <ele>131</ele>
        <time>2018-04-01T03:31:32Z</time>
      </trkpt>
      <trkpt lat="49.20166" lon="3.63496">
        <ele>131</ele>
        <time>2018-04-01T03:32:32Z</time>
      </trkpt>
      <trkpt lat="49.20168" lon="3.63499">
        <ele>131</ele>
        <time>2018-04-01T03:33:32Z</time>
      </trkpt>
      <trkpt lat="49.2017" lon="3.63503">
        <ele>131</ele>
        <time>2018-04-01T03:34:32Z</time>
      </trkpt>
      <trkpt lat="49.2017" lon="3.63507">
        <ele>131</ele>
        <time>2018-04-01T03:35:32Z</time>
      </trkpt>
      <trkpt lat="49.20172" lon="3.63513">
        <ele>131</ele>
        <time>2018-04-01T03:36:32Z</time>
      </trkpt>
      <trkpt lat="49.20171" lon="3.63526">
        <ele>131</ele>
        <time>2018-04-01T03:37:32Z</time>
      </trkpt>
      <trkpt lat="49.2017" lon="3.63539">
        <ele>130</ele>
        <time>2018-04-01T03:38:32Z</time>
      </trkpt>
      <trkpt lat="49.20168" lon="3.63554">
        <ele>130</ele>
        <time>2018-04-01T03:39:32Z</time>
      </trkpt>
      <trkpt lat="49.20167" lon="3.6356">
        <ele>130</ele>
        <time>2018-04-01T03:40:32Z</time>
      </trkpt>
      <trkpt lat="49.20167" lon="3.63566">
        <ele>130</ele>
        <time>2018-04-01T03:41:32Z</time>
      </trkpt>
      <trkpt lat="49.20168" lon="3.63573">
        <ele>130</ele>
        <time>2018-04-01T03:42:32Z</time>
      </trkpt>
      <trkpt lat="49.20169" lon="3.63577">
        <ele>130</ele>
        <time>2018-04-01T03:43:32Z</time>
      </trkpt>
      <trkpt lat="49.20169" lon="3.63579">
        <ele>130</ele>
        <time>2018-04-01T03:44:32Z</time>
      </trkpt>
      <trkpt lat="49.20171" lon="3.63584">
        <ele>130</ele>
        <time>2018-04-01T03:45:32Z</time>
      </trkpt>
      <trkpt lat="49.20167" lon="3.63589">
        <ele>130</ele>
        <time>2018-04-01T03:46:32Z</time>
      </trkpt>
      <trkpt lat="49.20165" lon="3.63593">
        <ele>130</ele>
        <time>2018-04-01T03:47:32Z</time>
      </trkpt>
      <trkpt lat="49.20163" lon="3.63598">
        <ele>130</ele>
        <time>2018-04-01T03:48:32Z</time>
      </trkpt>
      <trkpt lat="49.20162" lon="3.63603">
        <ele>130</ele>
        <time>2018-04-01T03:49:32Z</time>
      </trkpt>
      <trkpt lat="49.2016" lon="3.63612">
        <ele>131</ele>
        <time>2018-04-01T03:50:32Z</time>
      </trkpt>
      <trkpt lat="49.20155" lon="3.63648">
        <ele>132</ele>
        <time>2018-04-01T03:51:32Z</time>
      </trkpt>
      <trkpt lat="49.20152" lon="3.6367">
        <ele>133</ele>
        <time>2018-04-01T03:52:32Z</time>
      </trkpt>
      <trkpt lat="49.2015" lon="3.6368">
        <ele>134</ele>
        <time>2018-04-01T03:53:32Z</time>
      </trkpt>
      <trkpt lat="49.20149" lon="3.63693">
        <ele>135</ele>
        <time>2018-04-01T03:54:32Z</time>
      </trkpt>
      <trkpt lat="49.2015" lon="3.63699">
        <ele>135</ele>
        <time>2018-04-01T03:55:32Z</time>
      </trkpt>
      <trkpt lat="49.2015" lon="3.63705">
        <ele>136</ele>
        <time>2018-04-01T03:56:32Z</time>
      </trkpt>
      <trkpt lat="49.20151" lon="3.63714">
        <ele>137</ele>
        <time>2018-04-01T03:57:32Z</time>
      </trkpt>
      <trkpt lat="49.20153" lon="3.63721">
        <ele>137</ele>
        <time>2018-04-01T03:58:32Z</time>
      </trkpt>
      <trkpt lat="49.20156" lon="3.63728">
        <ele>138</ele>
        <time>2018-04-01T03:59:32Z</time>
      </trkpt>
      <trkpt lat="49.20158" lon="3.63735">
        <ele>138</ele>
        <time>2018-04-01T04:00:32Z</time>
      </trkpt>
      <trkpt lat="49.20162" lon="3.63742">
        <ele>139</ele>
        <time>2018-04-01T04:01:32Z</time>
      </trkpt>
      <trkpt lat="49.20166" lon="3.63746">
        <ele>139</ele>
        <time>2018-04-01T04:02:32Z</time>
      </trkpt>
      <trkpt lat="49.20174" lon="3.63752">
        <ele>139</ele>
        <time>2018-04-01T04:03:32Z</time>
      </trkpt>
      <trkpt lat="49.20197" lon="3.63778">
        <ele>141</ele>
        <time>2018-04-01T04:04:32Z</time>
      </trkpt>
      <trkpt lat="49.20202" lon="3.63783">
        <ele>142</ele>
        <time>2018-04-01T04:05:32Z</time>
      </trkpt>
      <trkpt lat="49.20207" lon="3.63787">
        <ele>142</ele>
        <time>2018-04-01T04:06:32Z</time>
      </trkpt>
      <trkpt lat="49.20212" lon="3.63792">
        <ele>142</ele>
        <time>2018-04-01T04:07:32Z</time>
      </trkpt>
      <trkpt lat="49.20221" lon="3.63795">
        <ele>142</ele>
        <time>2018-04-01T04:08:32Z</time>
      </trkpt>
      <trkpt lat="49.20231" lon="3.638">
        <ele>142</ele>
        <time>2018-04-01T04:09:32Z</time>
      </trkpt>
      <trkpt lat="49.20242" lon="3.63803">
        <ele>142</ele>
        <time>2018-04-01T04:10:32Z</time>
      </trkpt>
      <trkpt lat="49.20248" lon="3.63805">
        <ele>142</ele>
        <time>2018-04-01T04:11:32Z</time>
      </trkpt>
      <trkpt lat="49.20254" lon="3.63806">
        <ele>142</ele>
        <time>2018-04-01T04:12:32Z</time>
      </trkpt>
      <trkpt lat="49.2026" lon="3.63807">
        <ele>141</ele>
        <time>2018-04-01T04:13:32Z</time>
      </trkpt>
      <trkpt lat="49.20267" lon="3.63808">
        <ele>141</ele>
        <time>2018-04-01T04:14:32Z</time>
      </trkpt>
      <trkpt lat="49.20288" lon="3.63811">
        <ele>139</ele>
        <time>2018-04-01T04:15:32Z</time>
      </trkpt>
      <trkpt lat="49.20312" lon="3.63814">
        <ele>138</ele>
        <time>2018-04-01T04:16:32Z</time>
      </trkpt>
      <trkpt lat="49.20325" lon="3.63816">
        <ele>137</ele>
        <time>2018-04-01T04:17:32Z</time>
      </trkpt>
      <trkpt lat="49.20334" lon="3.63817">
        <ele>136</ele>
        <time>2018-04-01T04:18:32Z</time>
      </trkpt>
      <trkpt lat="49.20363" lon="3.6382">
        <ele>134</ele>
        <time>2018-04-01T04:19:32Z</time>
      </trkpt>
      <trkpt lat="49.20371" lon="3.63821">
        <ele>134</ele>
        <time>2018-04-01T04:20:32Z</time>
      </trkpt>
      <trkpt lat="49.20375" lon="3.6382">
        <ele>134</ele>
        <time>2018-04-01T04:21:32Z</time>
      </trkpt>
      <trkpt lat="49.20381" lon="3.6382">
        <ele>133</ele>
        <time>2018-04-01T04:22:32Z</time>
      </trkpt>
      <trkpt lat="49.20387" lon="3.63819">
        <ele>133</ele>
        <time>2018-04-01T04:23:32Z</time>
      </trkpt>
      <trkpt lat="49.20397" lon="3.63817">
        <ele>132</ele>
        <time>2018-04-01T04:24:32Z</time>
      </trkpt>
      <trkpt lat="49.2041" lon="3.63822">
        <ele>132</ele>
        <time>2018-04-01T04:25:32Z</time>
      </trkpt>
      <trkpt lat="49.20419" lon="3.63825">
        <ele>131</ele>
        <time>2018-04-01T04:26:32Z</time>
      </trkpt>
      <trkpt lat="49.20425" lon="3.63827">
        <ele>131</ele>
        <time>2018-04-01T04:27:32Z</time>
      </trkpt>
      <trkpt lat="49.20432" lon="3.63828">
        <ele>131</ele>
        <time>2018-04-01T04:28:32Z</time>
      </trkpt>
      <trkpt lat="49.20443" lon="3.6383">
        <ele>131</ele>
        <time>2018-04-01T04:29:32Z</time>
      </trkpt>
      <trkpt lat="49.20452" lon="3.63831">
        <ele>131</ele>
        <time>2018-04-01T04:30:32Z</time>
      </trkpt>
      <trkpt lat="49.20462" lon="3.63832">
        <ele>130</ele>
        <time>2018-04-01T04:31:32Z</time>
      </trkpt>
      <trkpt lat="49.20475" lon="3.63834">
        <ele>130</ele>
        <time>2018-04-01T04:32:32Z</time>
      </trkpt>
      <trkpt lat="49.20483" lon="3.63835">
        <ele>130</ele>
        <time>2018-04-01T04:33:32Z</time>
      </trkpt>
      <trkpt lat="49.20491" lon="3.63836">
        <ele>129</ele>
        <time>2018-04-01T04:34:32Z</time>
      </trkpt>
      <trkpt lat="49.205" lon="3.63837">
        <ele>129</ele>
        <time>2018-04-01T04:35:32Z</time>
      </trkpt>
      <trkpt lat="49.20506" lon="3.63838">
        <ele>129</ele>
        <time>2018-04-01T04:36:32Z</time>
      </trkpt>
      <trkpt lat="49.20511" lon="3.6384">
        <ele>129</ele>
        <time>2018-04-01T04:37:32Z</time>
      </trkpt>
      <trkpt lat="49.2052" lon="3.63843">
        <ele>128</ele>
        <time>2018-04-01T04:38:32Z</time>
      </trkpt>
      <trkpt lat="49.20546" lon="3.63854">
        <ele>128</ele>
        <time>2018-04-01T04:39:32Z</time>
      </trkpt>
      <trkpt lat="49.20557" lon="3.63861">
        <ele>127</ele>
        <time>2018-04-01T04:40:32Z</time>
      </trkpt>
      <trkpt lat="49.20563" lon="3.63865">
        <ele>127</ele>
        <time>2018-04-01T04:41:32Z</time>
      </trkpt>
      <trkpt lat="49.20568" lon="3.63869">
        <ele>127</ele>
        <time>2018-04-01T04:42:32Z</time>
      </trkpt>
      <trkpt lat="49.20574" lon="3.63873">
        <ele>127</ele>
        <time>2018-04-01T04:43:32Z</time>
      </trkpt>
      <trkpt lat="49.2058" lon="3.63879">
        <ele>127</ele>
        <time>2018-04-01T04:44:32Z</time>
      </trkpt>
      <trkpt lat="49.20585" lon="3.63883">
        <ele>127</ele>
        <time>2018-04-01T04:45:32Z</time>
      </trkpt>
      <trkpt lat="49.2059" lon="3.63889">
        <ele>127</ele>
        <time>2018-04-01T04:46:32Z</time>
      </trkpt>
      <trkpt lat="49.20597" lon="3.63897">
        <ele>128</ele>
        <time>2018-04-01T04:47:32Z</time>
      </trkpt>
      <trkpt lat="49.20633" lon="3.6394">
        <ele>127</ele>
        <time>2018-04-01T04:48:32Z</time>
      </trkpt>
      <trkpt lat="49.20642" lon="3.63951">
        <ele>127</ele>
        <time>2018-04-01T04:49:32Z</time>
      </trkpt>
      <trkpt lat="49.20655" lon="3.63966">
        <ele>127</ele>
        <time>2018-04-01T04:50:32Z</time>
      </trkpt>
      <trkpt lat="49.20666" lon="3.6398">
        <ele>126</ele>
        <time>2018-04-01T04:51:32Z</time>
      </trkpt>
      <trkpt lat="49.20689" lon="3.64008">
        <ele>125</ele>
        <time>2018-04-01T04:52:32Z</time>
      </trkpt>
      <trkpt lat="49.20714" lon="3.64038">
        <ele>125</ele>
        <time>2018-04-01T04:53:32Z</time>
      </trkpt>
      <trkpt lat="49.20728" lon="3.64056">
        <ele>124</ele>
        <time>2018-04-01T04:54:32Z</time>
      </trkpt>
      <trkpt lat="49.20742" lon="3.6407">
        <ele>123</ele>
        <time>2018-04-01T04:55:32Z</time>
      </trkpt>
      <trkpt lat="49.20749" lon="3.64077">
        <ele>122</ele>
        <time>2018-04-01T04:56:32Z</time>
      </trkpt>
      <trkpt lat="49.20757" lon="3.64083">
        <ele>122</ele>
        <time>2018-04-01T04:57:32Z</time>
      </trkpt>
      <trkpt lat="49.20765" lon="3.64088">
        <ele>122</ele>
        <time>2018-04-01T04:58:32Z</time>
      </trkpt>
      <trkpt lat="49.20772" lon="3.64091">
        <ele>122</ele>
        <time>2018-04-01T04:59:32Z</time>
      </trkpt>
      <trkpt lat="49.20778" lon="3.64092">
        <ele>122</ele>
        <time>2018-04-01T05:00:32Z</time>
      </trkpt>
      <trkpt lat="49.20785" lon="3.64094">
        <ele>122</ele>
        <time>2018-04-01T05:01:32Z</time>
      </trkpt>
      <trkpt lat="49.20793" lon="3.64095">
        <ele>122</ele>
        <time>2018-04-01T05:02:32Z</time>
      </trkpt>
      <trkpt lat="49.20804" lon="3.64095">
        <ele>122</ele>
        <time>2018-04-01T05:03:32Z</time>
      </trkpt>
      <trkpt lat="49.2081" lon="3.64095">
        <ele>122</ele>
        <time>2018-04-01T05:04:32Z</time>
      </trkpt>
      <trkpt lat="49.2082" lon="3.64094">
        <ele>122</ele>
        <time>2018-04-01T05:05:32Z</time>
      </trkpt>
      <trkpt lat="49.20834" lon="3.64092">
        <ele>122</ele>
        <time>2018-04-01T05:06:32Z</time>
      </trkpt>
      <trkpt lat="49.20851" lon="3.64088">
        <ele>122</ele>
        <time>2018-04-01T05:07:32Z</time>
      </trkpt>
      <trkpt lat="49.2086" lon="3.64086">
        <ele>121</ele>
        <time>2018-04-01T05:08:32Z</time>
      </trkpt>
      <trkpt lat="49.20889" lon="3.6408">
        <ele>120</ele>
        <time>2018-04-01T05:09:32Z</time>
      </trkpt>
      <trkpt lat="49.20902" lon="3.64078">
        <ele>120</ele>
        <time>2018-04-01T05:10:32Z</time>
      </trkpt>
      <trkpt lat="49.20924" lon="3.64075">
        <ele>119</ele>
        <time>2018-04-01T05:11:32Z</time>
      </trkpt>
      <trkpt lat="49.20934" lon="3.64074">
        <ele>119</ele>
        <time>2018-04-01T05:12:32Z</time>
      </trkpt>
      <trkpt lat="49.20945" lon="3.64074">
        <ele>119</ele>
        <time>2018-04-01T05:13:32Z</time>
      </trkpt>
      <trkpt lat="49.20971" lon="3.64074">
        <ele>119</ele>
        <time>2018-04-01T05:14:32Z</time>
      </trkpt>
      <trkpt lat="49.21007" lon="3.64077">
        <ele>119</ele>
        <time>2018-04-01T05:15:32Z</time>
      </trkpt>
      <trkpt lat="49.2104" lon="3.6408">
        <ele>119</ele>
        <time>2018-04-01T05:16:32Z</time>
      </trkpt>
      <trkpt lat="49.21054" lon="3.64081">
        <ele>118</ele>
        <time>2018-04-01T05:17:32Z</time>
      </trkpt>
      <trkpt lat="49.21066" lon="3.64082">
        <ele>118</ele>
        <time>2018-04-01T05:18:32Z</time>
      </trkpt>
      <trkpt lat="49.21076" lon="3.64084">
        <ele>118</ele>
        <time>2018-04-01T05:19:32Z</time>
      </trkpt>
      <trkpt lat="49.21084" lon="3.64086">
        <ele>118</ele>
        <time>2018-04-01T05:20:32Z</time>
      </trkpt>
      <trkpt lat="49.21092" lon="3.64088">
        <ele>118</ele>
        <time>2018-04-01T05:21:32Z</time>
      </trkpt>
      <trkpt lat="49.21103" lon="3.64094">
        <ele>118</ele>
        <time>2018-04-01T05:22:32Z</time>
      </trkpt>
      <trkpt lat="49.21114" lon="3.64099">
        <ele>118</ele>
        <time>2018-04-01T05:23:32Z</time>
      </trkpt>
      <trkpt lat="49.21145" lon="3.64115">
        <ele>118</ele>
        <time>2018-04-01T05:24:32Z</time>
      </trkpt>
      <trkpt lat="49.21193" lon="3.64139">
        <ele>118</ele>
        <time>2018-04-01T05:25:32Z</time>
      </trkpt>
      <trkpt lat="49.21203" lon="3.64144">
        <ele>118</ele>
        <time>2018-04-01T05:26:32Z</time>
      </trkpt>
      <trkpt lat="49.21207" lon="3.64145">
        <ele>118</ele>
        <time>2018-04-01T05:27:32Z</time>
      </trkpt>
      <trkpt lat="49.21214" lon="3.64147">
        <ele>118</ele>
        <time>2018-04-01T05:28:32Z</time>
      </trkpt>
      <trkpt lat="49.2122" lon="3.64149">
        <ele>118</ele>
        <time>2018-04-01T05:29:32Z</time>
      </trkpt>
      <trkpt lat="49.21224" lon="3.64149">
        <ele>118</ele>
        <time>2018-04-01T05:30:32Z</time>
      </trkpt>
      <trkpt lat="49.21229" lon="3.64148">
        <ele>118</ele>
        <time>2018-04-01T05:31:32Z</time>
      </trkpt>
      <trkpt lat="49.21233" lon="3.64147">
        <ele>118</ele>
        <time>2018-04-01T05:32:32Z</time>
      </trkpt>
      <trkpt lat="49.2124" lon="3.64145">
        <ele>118</ele>
        <time>2018-04-01T05:33:32Z</time>
      </trkpt>
      <trkpt lat="49.2124" lon="3.64145">
        <ele>118</ele>
        <time>2018-04-01T05:34:32Z</time>
      </trkpt>
      <trkpt lat="49.21243" lon="3.64155">
        <ele>118</ele>
        <time>2018-04-01T05:35:32Z</time>
      </trkpt>
      <trkpt lat="49.21246" lon="3.64162">
        <ele>118</ele>
        <time>2018-04-01T05:36:32Z</time>
      </trkpt>
      <trkpt lat="49.21251" lon="3.64169">
        <ele>118</ele>
        <time>2018-04-01T05:37:32Z</time>
      </trkpt>
      <trkpt lat="49.2126" lon="3.64181">
        <ele>118</ele>
        <time>2018-04-01T05:38:32Z</time>
      </trkpt>
      <trkpt lat="49.21263" lon="3.64185">
        <ele>119</ele>
        <time>2018-04-01T05:39:32Z</time>
      </trkpt>
      <trkpt lat="49.21265" lon="3.64189">
        <ele>119</ele>
        <time>2018-04-01T05:40:32Z</time>
      </trkpt>
      <trkpt lat="49.21266" lon="3.64194">
        <ele>119</ele>
        <time>2018-04-01T05:41:32Z</time>
      </trkpt>
      <trkpt lat="49.2127" lon="3.64209">
        <ele>119</ele>
        <time>2018-04-01T05:42:32Z</time>
      </trkpt>
      <trkpt lat="49.2127" lon="3.6421">
        <ele>119</ele>
        <time>2018-04-01T05:43:32Z</time>
      </trkpt>
      <trkpt lat="49.21271" lon="3.64215">
        <ele>120</ele>
        <time>2018-04-01T05:44:32Z</time>
      </trkpt>
      <trkpt lat="49.21271" lon="3.6422">
        <ele>120</ele>
        <time>2018-04-01T05:45:32Z</time>
      </trkpt>
      <trkpt lat="49.21273" lon="3.64226">
        <ele>120</ele>
        <time>2018-04-01T05:46:32Z</time>
      </trkpt>
      <trkpt lat="49.21274" lon="3.6423">
        <ele>120</ele>
        <time>2018-04-01T05:47:32Z</time>
      </trkpt>
      <trkpt lat="49.21275" lon="3.64235">
        <ele>120</ele>
        <time>2018-04-01T05:48:32Z</time>
      </trkpt>
      <trkpt lat="49.21277" lon="3.6424">
        <ele>121</ele>
        <time>2018-04-01T05:49:32Z</time>
      </trkpt>
      <trkpt lat="49.21282" lon="3.64251">
        <ele>121</ele>
        <time>2018-04-01T05:50:32Z</time>
      </trkpt>
      <trkpt lat="49.21293" lon="3.6427">
        <ele>122</ele>
        <time>2018-04-01T05:51:32Z</time>
      </trkpt>
      <trkpt lat="49.2131" lon="3.64298">
        <ele>123</ele>
        <time>2018-04-01T05:52:32Z</time>
      </trkpt>
      <trkpt lat="49.21324" lon="3.64321">
        <ele>124</ele>
        <time>2018-04-01T05:53:32Z</time>
      </trkpt>
      <trkpt lat="49.21352" lon="3.64367">
        <ele>126</ele>
        <time>2018-04-01T05:54:32Z</time>
      </trkpt>
      <trkpt lat="49.2137" lon="3.64397">
        <ele>128</ele>
        <time>2018-04-01T05:55:32Z</time>
      </trkpt>
      <trkpt lat="49.21374" lon="3.64404">
        <ele>128</ele>
        <time>2018-04-01T05:56:32Z</time>
      </trkpt>
      <trkpt lat="49.21377" lon="3.6441">
        <ele>129</ele>
        <time>2018-04-01T05:57:32Z</time>
      </trkpt>
      <trkpt lat="49.21379" lon="3.64416">
        <ele>129</ele>
        <time>2018-04-01T05:58:32Z</time>
      </trkpt>
      <trkpt lat="49.21381" lon="3.64422">
        <ele>130</ele>
        <time>2018-04-01T05:59:32Z</time>
      </trkpt>
      <trkpt lat="49.21384" lon="3.64432">
        <ele>130</ele>
        <time>2018-04-01T06:00:32Z</time>
      </trkpt>
      <trkpt lat="49.21386" lon="3.64441">
        <ele>130</ele>
        <time>2018-04-01T06:01:32Z</time>
      </trkpt>
      <trkpt lat="49.21387" lon="3.64449">
        <ele>131</ele>
        <time>2018-04-01T06:02:32Z</time>
      </trkpt>
      <trkpt lat="49.21389" lon="3.6446">
        <ele>131</ele>
        <time>2018-04-01T06:03:32Z</time>
      </trkpt>
      <trkpt lat="49.2139" lon="3.64478">
        <ele>132</ele>
        <time>2018-04-01T06:04:32Z</time>
      </trkpt>
      <trkpt lat="49.2139" lon="3.64503">
        <ele>133</ele>
        <time>2018-04-01T06:05:32Z</time>
      </trkpt>
      <trkpt lat="49.21391" lon="3.64529">
        <ele>135</ele>
        <time>2018-04-01T06:06:32Z</time>
      </trkpt>
      <trkpt lat="49.21391" lon="3.64543">
        <ele>136</ele>
        <time>2018-04-01T06:07:32Z</time>
      </trkpt>
      <trkpt lat="49.21392" lon="3.64555">
        <ele>136</ele>
        <time>2018-04-01T06:08:32Z</time>
      </trkpt>
      <trkpt lat="49.21392" lon="3.64564">
        <ele>137</ele>
        <time>2018-04-01T06:09:32Z</time>
      </trkpt>
      <trkpt lat="49.21393" lon="3.64576">
        <ele>137</ele>
        <time>2018-04-01T06:10:32Z</time>
      </trkpt>
      <trkpt lat="49.21395" lon="3.64587">
        <ele>138</ele>
        <time>2018-04-01T06:11:32Z</time>
      </trkpt>
      <trkpt lat="49.21396" lon="3.64594">
        <ele>138</ele>
        <time>2018-04-01T06:12:32Z</time>
      </trkpt>
      <trkpt lat="49.21398" lon="3.64602">
        <ele>139</ele>
        <time>2018-04-01T06:13:32Z</time>
      </trkpt>
      <trkpt lat="49.21401" lon="3.64611">
        <ele>139</ele>
        <time>2018-04-01T06:14:32Z</time>
      </trkpt>
      <trkpt lat="49.21404" lon="3.64621">
        <ele>139</ele>
        <time>2018-04-01T06:15:32Z</time>
      </trkpt>
      <trkpt lat="49.21408" lon="3.64632">
        <ele>140</ele>
        <time>2018-04-01T06:16:32Z</time>
      </trkpt>
      <trkpt lat="49.21411" lon="3.6464">
        <ele>140</ele>
        <time>2018-04-01T06:17:32Z</time>
      </trkpt>
      <trkpt lat="49.21418" lon="3.64656">
        <ele>140</ele>
        <time>2018-04-01T06:18:32Z</time>
      </trkpt>
      <trkpt lat="49.21426" lon="3.64676">
        <ele>141</ele>
        <time>2018-04-01T06:19:32Z</time>
      </trkpt>
      <trkpt lat="49.21443" lon="3.64718">
        <ele>143</ele>
        <time>2018-04-01T06:20:32Z</time>
      </trkpt>
      <trkpt lat="49.21457" lon="3.64749">
        <ele>145</ele>
        <time>2018-04-01T06:21:32Z</time>
      </trkpt>
      <trkpt lat="49.21462" lon="3.64764">
        <ele>145</ele>
        <time>2018-04-01T06:22:32Z</time>
      </trkpt>
      <trkpt lat="49.21467" lon="3.64778">
        <ele>146</ele>
        <time>2018-04-01T06:23:32Z</time>
      </trkpt>
      <trkpt lat="49.21472" lon="3.64793">
        <ele>146</ele>
        <time>2018-04-01T06:24:32Z</time>
      </trkpt>
      <trkpt lat="49.21476" lon="3.64805">
        <ele>146</ele>
        <time>2018-04-01T06:25:32Z</time>
      </trkpt>
      <trkpt lat="49.21479" lon="3.64817">
        <ele>147</ele>
        <time>2018-04-01T06:26:32Z</time>
      </trkpt>
      <trkpt lat="49.21481" lon="3.64827">
        <ele>147</ele>
        <time>2018-04-01T06:27:32Z</time>
      </trkpt>
      <trkpt lat="49.21484" lon="3.64837">
        <ele>147</ele>
        <time>2018-04-01T06:28:32Z</time>
      </trkpt>
      <trkpt lat="49.21488" lon="3.64856">
        <ele>148</ele>
        <time>2018-04-01T06:29:32Z</time>
      </trkpt>
      <trkpt lat="49.21497" lon="3.64899">
        <ele>151</ele>
        <time>2018-04-01T06:30:32Z</time>
      </trkpt>
      <trkpt lat="49.21503" lon="3.64926">
        <ele>152</ele>
        <time>2018-04-01T06:31:32Z</time>
      </trkpt>
      <trkpt lat="49.21511" lon="3.64962">
        <ele>153</ele>
        <time>2018-04-01T06:32:32Z</time>
      </trkpt>
      <trkpt lat="49.21514" lon="3.64982">
        <ele>154</ele>
        <time>2018-04-01T06:33:32Z</time>
      </trkpt>
      <trkpt lat="49.21524" lon="3.65026">
        <ele>156</ele>
        <time>2018-04-01T06:34:32Z</time>
      </trkpt>
      <trkpt lat="49.21531" lon="3.6506">
        <ele>158</ele>
        <time>2018-04-01T06:35:32Z</time>
      </trkpt>
      <trkpt lat="49.2154" lon="3.65097">
        <ele>159</ele>
        <time>2018-04-01T06:36:32Z</time>
      </trkpt>
      <trkpt lat="49.21544" lon="3.65116">
        <ele>160</ele>
        <time>2018-04-01T06:37:32Z</time>
      </trkpt>
      <trkpt lat="49.2155" lon="3.65143">
        <ele>161</ele>
        <time>2018-04-01T06:38:32Z</time>
      </trkpt>
      <trkpt lat="49.21551" lon="3.65155">
        <ele>161</ele>
        <time>2018-04-01T06:39:32Z</time>
      </trkpt>
      <trkpt lat="49.21553" lon="3.65167">
        <ele>162</ele>
        <time>2018-04-01T06:40:32Z</time>
      </trkpt>
      <trkpt lat="49.21554" lon="3.65179">
        <ele>162</ele>
        <time>2018-04-01T06:41:32Z</time>
      </trkpt>
      <trkpt lat="49.21554" lon="3.65192">
        <ele>163</ele>
        <time>2018-04-01T06:42:32Z</time>
      </trkpt>
      <trkpt lat="49.21554" lon="3.65202">
        <ele>164</ele>
        <time>2018-04-01T06:43:32Z</time>
      </trkpt>
      <trkpt lat="49.21554" lon="3.65229">
        <ele>166</ele>
        <time>2018-04-01T06:44:32Z</time>
      </trkpt>
      <trkpt lat="49.21553" lon="3.65255">
        <ele>168</ele>
        <time>2018-04-01T06:45:32Z</time>
      </trkpt>
      <trkpt lat="49.21553" lon="3.65292">
        <ele>169</ele>
        <time>2018-04-01T06:46:32Z</time>
      </trkpt>
      <trkpt lat="49.21553" lon="3.65292">
        <ele>169</ele>
        <time>2018-04-01T06:47:32Z</time>
      </trkpt>
      <trkpt lat="49.21552" lon="3.6531">
        <ele>170</ele>
        <time>2018-04-01T06:48:32Z</time>
      </trkpt>
      <trkpt lat="49.21551" lon="3.65324">
        <ele>171</ele>
        <time>2018-04-01T06:49:32Z</time>
      </trkpt>
      <trkpt lat="49.2155" lon="3.65338">
        <ele>172</ele>
        <time>2018-04-01T06:50:32Z</time>
      </trkpt>
      <trkpt lat="49.21549" lon="3.65353">
        <ele>172</ele>
        <time>2018-04-01T06:51:32Z</time>
      </trkpt>
      <trkpt lat="49.21547" lon="3.65364">
        <ele>172</ele>
        <time>2018-04-01T06:52:32Z</time>
      </trkpt>
      <trkpt lat="49.21545" lon="3.65375">
        <ele>173</ele>
        <time>2018-04-01T06:53:32Z</time>
      </trkpt>
      <trkpt lat="49.21542" lon="3.65388">
        <ele>173</ele>
        <time>2018-04-01T06:54:32Z</time>
      </trkpt>
      <trkpt lat="49.21538" lon="3.65401">
        <ele>174</ele>
        <time>2018-04-01T06:55:32Z</time>
      </trkpt>
      <trkpt lat="49.21531" lon="3.65421">
        <ele>175</ele>
        <time>2018-04-01T06:56:32Z</time>
      </trkpt>
      <trkpt lat="49.21522" lon="3.65444">
        <ele>176</ele>
        <time>2018-04-01T06:57:32Z</time>
      </trkpt>
      <trkpt lat="49.21499" lon="3.65503">
        <ele>176</ele>
        <time>2018-04-01T06:58:32Z</time>
      </trkpt>
      <trkpt lat="49.21465" lon="3.65586">
        <ele>179</ele>
        <time>2018-04-01T06:59:32Z</time>
      </trkpt>
      <trkpt lat="49.21423" lon="3.65695">
        <ele>182</ele>
        <time>2018-04-01T07:00:32Z</time>
      </trkpt>
      <trkpt lat="49.21404" lon="3.65743">
        <ele>182</ele>
        <time>2018-04-01T07:01:32Z</time>
      </trkpt>
      <trkpt lat="49.21368" lon="3.65837">
        <ele>184</ele>
        <time>2018-04-01T07:02:32Z</time>
      </trkpt>
      <trkpt lat="49.21341" lon="3.6591">
        <ele>183</ele>
        <time>2018-04-01T07:03:32Z</time>
      </trkpt>
      <trkpt lat="49.21321" lon="3.6596">
        <ele>184</ele>
        <time>2018-04-01T07:04:32Z</time>
      </trkpt>
      <trkpt lat="49.21305" lon="3.66002">
        <ele>186</ele>
        <time>2018-04-01T07:05:32Z</time>
      </trkpt>
      <trkpt lat="49.21259" lon="3.6612">
        <ele>190</ele>
        <time>2018-04-01T07:06:32Z</time>
      </trkpt>
      <trkpt lat="49.21244" lon="3.66161">
        <ele>190</ele>
        <time>2018-04-01T07:07:32Z</time>
      </trkpt>
      <trkpt lat="49.21228" lon="3.66204">
        <ele>191</ele>
        <time>2018-04-01T07:08:32Z</time>
      </trkpt>
      <trkpt lat="49.21207" lon="3.66257">
        <ele>193</ele>
        <time>2018-04-01T07:09:32Z</time>
      </trkpt>
      <trkpt lat="49.21197" lon="3.66282">
        <ele>193</ele>
        <time>2018-04-01T07:10:32Z</time>
      </trkpt>
      <trkpt lat="49.21192" lon="3.66297">
        <ele>193</ele>
        <time>2018-04-01T07:11:32Z</time>
      </trkpt>
      <trkpt lat="49.21187" lon="3.66312">
        <ele>193</ele>
        <time>2018-04-01T07:12:32Z</time>
      </trkpt>
      <trkpt lat="49.21184" lon="3.66324">
        <ele>193</ele>
        <time>2018-04-01T07:13:32Z</time>
      </trkpt>
      <trkpt lat="49.21181" lon="3.66338">
        <ele>193</ele>
        <time>2018-04-01T07:14:32Z</time>
      </trkpt>
      <trkpt lat="49.21178" lon="3.66352">
        <ele>192</ele>
        <time>2018-04-01T07:15:32Z</time>
      </trkpt>
      <trkpt lat="49.21175" lon="3.66371">
        <ele>191</ele>
        <time>2018-04-01T07:16:32Z</time>
      </trkpt>
      <trkpt lat="49.2117" lon="3.66401">
        <ele>190</ele>
        <time>2018-04-01T07:17:32Z</time>
      </trkpt>
      <trkpt lat="49.21167" lon="3.66428">
        <ele>189</ele>
        <time>2018-04-01T07:18:32Z</time>
      </trkpt>
      <trkpt lat="49.21161" lon="3.66484">
        <ele>188</ele>
        <time>2018-04-01T07:19:32Z</time>
      </trkpt>
      <trkpt lat="49.21152" lon="3.66562">
        <ele>188</ele>
        <time>2018-04-01T07:20:32Z</time>
      </trkpt>
      <trkpt lat="49.21138" lon="3.66676">
        <ele>192</ele>
        <time>2018-04-01T07:21:32Z</time>
      </trkpt>
      <trkpt lat="49.21135" lon="3.66702">
        <ele>193</ele>
        <time>2018-04-01T07:22:32Z</time>
      </trkpt>
      <trkpt lat="49.21126" lon="3.66782">
        <ele>196</ele>
        <time>2018-04-01T07:23:32Z</time>
      </trkpt>
      <trkpt lat="49.2112" lon="3.6683">
        <ele>197</ele>
        <time>2018-04-01T07:24:32Z</time>
      </trkpt>
      <trkpt lat="49.21113" lon="3.66888">
        <ele>197</ele>
        <time>2018-04-01T07:25:32Z</time>
      </trkpt>
      <trkpt lat="49.21105" lon="3.66953">
        <ele>195</ele>
        <time>2018-04-01T07:26:32Z</time>
      </trkpt>
      <trkpt lat="49.211" lon="3.66993">
        <ele>194</ele>
        <time>2018-04-01T07:27:32Z</time>
      </trkpt>
      <trkpt lat="49.21095" lon="3.67032">
        <ele>193</ele>
        <time>2018-04-01T07:28:32Z</time>
      </trkpt>
      <trkpt lat="49.21093" lon="3.67049">
        <ele>192</ele>
        <time>2018-04-01T07:29:32Z</time>
      </trkpt>
      <trkpt lat="49.21089" lon="3.67077">
        <ele>191</ele>
        <time>2018-04-01T07:30:32Z</time>
      </trkpt>
      <trkpt lat="49.21083" lon="3.67135">
        <ele>190</ele>
        <time>2018-04-01T07:31:32Z</time>
      </trkpt>
      <trkpt lat="49.21078" lon="3.6717">
        <ele>188</ele>
        <time>2018-04-01T07:32:32Z</time>
      </trkpt>
      <trkpt lat="49.21074" lon="3.67203">
        <ele>186</ele>
        <time>2018-04-01T07:33:32Z</time>
      </trkpt>
      <trkpt lat="49.21071" lon="3.67228">
        <ele>185</ele>
        <time>2018-04-01T07:34:32Z</time>
      </trkpt>
      <trkpt lat="49.21065" lon="3.67279">
        <ele>183</ele>
        <time>2018-04-01T07:35:32Z</time>
      </trkpt>
      <trkpt lat="49.21061" lon="3.67315">
        <ele>182</ele>
        <time>2018-04-01T07:36:32Z</time>
      </trkpt>
      <trkpt lat="49.21054" lon="3.67368">
        <ele>181</ele>
        <time>2018-04-01T07:37:32Z</time>
      </trkpt>
      <trkpt lat="49.2105" lon="3.67408">
        <ele>181</ele>
        <time>2018-04-01T07:38:32Z</time>
      </trkpt>
      <trkpt lat="49.21037" lon="3.67505">
        <ele>179</ele>
        <time>2018-04-01T07:39:32Z</time>
      </trkpt>
      <trkpt lat="49.21034" lon="3.67528">
        <ele>178</ele>
        <time>2018-04-01T07:40:32Z</time>
      </trkpt>
      <trkpt lat="49.21031" lon="3.6755">
        <ele>178</ele>
        <time>2018-04-01T07:41:32Z</time>
      </trkpt>
      <trkpt lat="49.2103" lon="3.67565">
        <ele>177</ele>
        <time>2018-04-01T07:42:32Z</time>
      </trkpt>
      <trkpt lat="49.21029" lon="3.67577">
        <ele>177</ele>
        <time>2018-04-01T07:43:32Z</time>
      </trkpt>
      <trkpt lat="49.21026" lon="3.67596">
        <ele>177</ele>
        <time>2018-04-01T07:44:32Z</time>
      </trkpt>
      <trkpt lat="49.21024" lon="3.67609">
        <ele>177</ele>
        <time>2018-04-01T07:45:32Z</time>
      </trkpt>
      <trkpt lat="49.21022" lon="3.67621">
        <ele>177</ele>
        <time>2018-04-01T07:46:32Z</time>
      </trkpt>
      <trkpt lat="49.21021" lon="3.67633">
        <ele>176</ele>
        <time>2018-04-01T07:47:32Z</time>
      </trkpt>
      <trkpt lat="49.2102" lon="3.67644">
        <ele>176</ele>
        <time>2018-04-01T07:48:32Z</time>
      </trkpt>
      <trkpt lat="49.21019" lon="3.67656">
        <ele>176</ele>
        <time>2018-04-01T07:49:32Z</time>
      </trkpt>
      <trkpt lat="49.21019" lon="3.6767">
        <ele>176</ele>
        <time>2018-04-01T07:50:32Z</time>
      </trkpt>
      <trkpt lat="49.21019" lon="3.67686">
        <ele>175</ele>
        <time>2018-04-01T07:51:32Z</time>
      </trkpt>
      <trkpt lat="49.21019" lon="3.67705">
        <ele>175</ele>
        <time>2018-04-01T07:52:32Z</time>
      </trkpt>
      <trkpt lat="49.21019" lon="3.67722">
        <ele>174</ele>
        <time>2018-04-01T07:53:32Z</time>
      </trkpt>
      <trkpt lat="49.21019" lon="3.67741">
        <ele>174</ele>
        <time>2018-04-01T07:54:32Z</time>
      </trkpt>
      <trkpt lat="49.21019" lon="3.67803">
        <ele>174</ele>
        <time>2018-04-01T07:55:32Z</time>
      </trkpt>
      <trkpt lat="49.2102" lon="3.67886">
        <ele>173</ele>
        <time>2018-04-01T07:56:32Z</time>
      </trkpt>
      <trkpt lat="49.2102" lon="3.67969">
        <ele>172</ele>
        <time>2018-04-01T07:57:32Z</time>
      </trkpt>
      <trkpt lat="49.2102" lon="3.68001">
        <ele>172</ele>
        <time>2018-04-01T07:58:32Z</time>
      </trkpt>
      <trkpt lat="49.2102" lon="3.68029">
        <ele>173</ele>
        <time>2018-04-01T07:59:32Z</time>
      </trkpt>
      <trkpt lat="49.2102" lon="3.68056">
        <ele>173</ele>
        <time>2018-04-01T08:00:32Z</time>
      </trkpt>
      <trkpt lat="49.2102" lon="3.68083">
        <ele>174</ele>
        <time>2018-04-01T08:01:32Z</time>
      </trkpt>
      <trkpt lat="49.2102" lon="3.68111">
        <ele>175</ele>
        <time>2018-04-01T08:02:32Z</time>
      </trkpt>
      <trkpt lat="49.21021" lon="3.68129">
        <ele>176</ele>
        <time>2018-04-01T08:03:32Z</time>
      </trkpt>
      <trkpt lat="49.21022" lon="3.68153">
        <ele>177</ele>
        <time>2018-04-01T08:04:32Z</time>
      </trkpt>
      <trkpt lat="49.21023" lon="3.68177">
        <ele>178</ele>
        <time>2018-04-01T08:05:32Z</time>
      </trkpt>
      <trkpt lat="49.21024" lon="3.68199">
        <ele>179</ele>
        <time>2018-04-01T08:06:32Z</time>
      </trkpt>
      <trkpt lat="49.21026" lon="3.68235">
        <ele>180</ele>
        <time>2018-04-01T08:07:32Z</time>
      </trkpt>
      <trkpt lat="49.21028" lon="3.68262">
        <ele>181</ele>
        <time>2018-04-01T08:08:32Z</time>
      </trkpt>
      <trkpt lat="49.2103" lon="3.68283">
        <ele>181</ele>
        <time>2018-04-01T08:09:32Z</time>
      </trkpt>
      <trkpt lat="49.21031" lon="3.68306">
        <ele>182</ele>
        <time>2018-04-01T08:10:32Z</time>
      </trkpt>
      <trkpt lat="49.21032" lon="3.68329">
        <ele>183</ele>
        <time>2018-04-01T08:11:32Z</time>
      </trkpt>
      <trkpt lat="49.21033" lon="3.68351">
        <ele>184</ele>
        <time>2018-04-01T08:12:32Z</time>
      </trkpt>
      <trkpt lat="49.21034" lon="3.68372">
        <ele>184</ele>
        <time>2018-04-01T08:13:32Z</time>
      </trkpt>
      <trkpt lat="49.21037" lon="3.68385">
        <ele>185</ele>
        <time>2018-04-01T08:14:32Z</time>
      </trkpt>
      <trkpt lat="49.21046" lon="3.68389">
        <ele>185</ele>
        <time>2018-04-01T08:15:32Z</time>
      </trkpt>
      <trkpt lat="49.21052" lon="3.68387">
        <ele>186</ele>
        <time>2018-04-01T08:16:32Z</time>
      </trkpt>
      <trkpt lat="49.21056" lon="3.68387">
        <ele>186</ele>
        <time>2018-04-01T08:17:32Z</time>
      </trkpt>
      <trkpt lat="49.21061" lon="3.68386">
        <ele>186</ele>
        <time>2018-04-01T08:18:32Z</time>
      </trkpt>
      <trkpt lat="49.21064" lon="3.68384">
        <ele>186</ele>
        <time>2018-04-01T08:19:32Z</time>
      </trkpt>
      <trkpt lat="49.21066" lon="3.68383">
        <ele>186</ele>
        <time>2018-04-01T08:20:32Z</time>
      </trkpt>
      <trkpt lat="49.21069" lon="3.68381">
        <ele>186</ele>
        <time>2018-04-01T08:21:32Z</time>
      </trkpt>
      <trkpt lat="49.21071" lon="3.68379">
        <ele>187</ele>
        <time>2018-04-01T08:22:32Z</time>
      </trkpt>
      <trkpt lat="49.21074" lon="3.68376">
        <ele>187</ele>
        <time>2018-04-01T08:23:32Z</time>
      </trkpt>
      <trkpt lat="49.21076" lon="3.68374">
        <ele>187</ele>
        <time>2018-04-01T08:24:32Z</time>
      </trkpt>
      <trkpt lat="49.21078" lon="3.6837">
        <ele>186</ele>
        <time>2018-04-01T08:25:32Z</time>
      </trkpt>
      <trkpt lat="49.2108" lon="3.68367">
        <ele>186</ele>
        <time>2018-04-01T08:26:32Z</time>
      </trkpt>
      <trkpt lat="49.21082" lon="3.68363">
        <ele>186</ele>
        <time>2018-04-01T08:27:32Z</time>
      </trkpt>
      <trkpt lat="49.21084" lon="3.68358">
        <ele>186</ele>
        <time>2018-04-01T08:28:32Z</time>
      </trkpt>
      <trkpt lat="49.21086" lon="3.68353">
        <ele>186</ele>
        <time>2018-04-01T08:29:32Z</time>
      </trkpt>
      <trkpt lat="49.21089" lon="3.68347">
        <ele>186</ele>
        <time>2018-04-01T08:30:32Z</time>
      </trkpt>
      <trkpt lat="49.21092" lon="3.6834">
        <ele>187</ele>
        <time>2018-04-01T08:31:32Z</time>
      </trkpt>
      <trkpt lat="49.21094" lon="3.68337">
        <ele>187</ele>
        <time>2018-04-01T08:32:32Z</time>
      </trkpt>
      <trkpt lat="49.21096" lon="3.68333">
        <ele>187</ele>
        <time>2018-04-01T08:33:32Z</time>
      </trkpt>
      <trkpt lat="49.21098" lon="3.6833">
        <ele>187</ele>
        <time>2018-04-01T08:34:32Z</time>
      </trkpt>
      <trkpt lat="49.21101" lon="3.68327">
        <ele>187</ele>
        <time>2018-04-01T08:35:32Z</time>
      </trkpt>
      <trkpt lat="49.21104" lon="3.68324">
        <ele>188</ele>
        <time>2018-04-01T08:36:32Z</time>
      </trkpt>
      <trkpt lat="49.21106" lon="3.68322">
        <ele>188</ele>
        <time>2018-04-01T08:37:32Z</time>
      </trkpt>
      <trkpt lat="49.21109" lon="3.68321">
        <ele>188</ele>
        <time>2018-04-01T08:38:32Z</time>
      </trkpt>
      <trkpt lat="49.21111" lon="3.6832">
        <ele>188</ele>
        <time>2018-04-01T08:39:32Z</time>
      </trkpt>
      <trkpt lat="49.21113" lon="3.6832">
        <ele>189</ele>
        <time>2018-04-01T08:40:32Z</time>
      </trkpt>
      <trkpt lat="49.21115" lon="3.6832">
        <ele>189</ele>
        <time>2018-04-01T08:41:32Z</time>
      </trkpt>
      <trkpt lat="49.21117" lon="3.68321">
        <ele>189</ele>
        <time>2018-04-01T08:42:32Z</time>
      </trkpt>
      <trkpt lat="49.2112" lon="3.68322">
        <ele>190</ele>
        <time>2018-04-01T08:43:32Z</time>
      </trkpt>
      <trkpt lat="49.21122" lon="3.68324">
        <ele>190</ele>
        <time>2018-04-01T08:44:32Z</time>
      </trkpt>
      <trkpt lat="49.21124" lon="3.68327">
        <ele>191</ele>
        <time>2018-04-01T08:45:32Z</time>
      </trkpt>
      <trkpt lat="49.21126" lon="3.6833">
        <ele>191</ele>
        <time>2018-04-01T08:46:32Z</time>
      </trkpt>
      <trkpt lat="49.21128" lon="3.68333">
        <ele>191</ele>
        <time>2018-04-01T08:47:32Z</time>
      </trkpt>
      <trkpt lat="49.21129" lon="3.68337">
        <ele>192</ele>
        <time>2018-04-01T08:48:32Z</time>
      </trkpt>
      <trkpt lat="49.2113" lon="3.68341">
        <ele>192</ele>
        <time>2018-04-01T08:49:32Z</time>
      </trkpt>
      <trkpt lat="49.2113" lon="3.68346">
        <ele>192</ele>
        <time>2018-04-01T08:50:32Z</time>
      </trkpt>
      <trkpt lat="49.2113" lon="3.68351">
        <ele>192</ele>
        <time>2018-04-01T08:51:32Z</time>
      </trkpt>
      <trkpt lat="49.2113" lon="3.68356">
        <ele>192</ele>
        <time>2018-04-01T08:52:32Z</time>
      </trkpt>
      <trkpt lat="49.2113" lon="3.68361">
        <ele>192</ele>
        <time>2018-04-01T08:53:32Z</time>
      </trkpt>
      <trkpt lat="49.2113" lon="3.6837">
        <ele>193</ele>
        <time>2018-04-01T08:54:32Z</time>
      </trkpt>
      <trkpt lat="49.21126" lon="3.68404">
        <ele>193</ele>
        <time>2018-04-01T08:55:32Z</time>
      </trkpt>
      <trkpt lat="49.21123" lon="3.68428">
        <ele>194</ele>
        <time>2018-04-01T08:56:32Z</time>
      </trkpt>
      <trkpt lat="49.21121" lon="3.68445">
        <ele>194</ele>
        <time>2018-04-01T08:57:32Z</time>
      </trkpt>
      <trkpt lat="49.2112" lon="3.6846">
        <ele>194</ele>
        <time>2018-04-01T08:58:32Z</time>
      </trkpt>
      <trkpt lat="49.21119" lon="3.68473">
        <ele>195</ele>
        <time>2018-04-01T08:59:32Z</time>
      </trkpt>
      <trkpt lat="49.21118" lon="3.68489">
        <ele>195</ele>
        <time>2018-04-01T09:00:32Z</time>
      </trkpt>
      <trkpt lat="49.21118" lon="3.68501">
        <ele>195</ele>
        <time>2018-04-01T09:01:32Z</time>
      </trkpt>
      <trkpt lat="49.21118" lon="3.68512">
        <ele>196</ele>
        <time>2018-04-01T09:02:32Z</time>
      </trkpt>
      <trkpt lat="49.21118" lon="3.68522">
        <ele>196</ele>
        <time>2018-04-01T09:03:32Z</time>
      </trkpt>
      <trkpt lat="49.21118" lon="3.68535">
        <ele>196</ele>
        <time>2018-04-01T09:04:32Z</time>
      </trkpt>
      <trkpt lat="49.21119" lon="3.68546">
        <ele>197</ele>
        <time>2018-04-01T09:05:32Z</time>
      </trkpt>
      <trkpt lat="49.2112" lon="3.68557">
        <ele>197</ele>
        <time>2018-04-01T09:06:32Z</time>
      </trkpt>
      <trkpt lat="49.21121" lon="3.68569">
        <ele>198</ele>
        <time>2018-04-01T09:07:32Z</time>
      </trkpt>
      <trkpt lat="49.21123" lon="3.6858">
        <ele>198</ele>
        <time>2018-04-01T09:08:32Z</time>
      </trkpt>
      <trkpt lat="49.21126" lon="3.68592">
        <ele>198</ele>
        <time>2018-04-01T09:09:32Z</time>
      </trkpt>
      <trkpt lat="49.21129" lon="3.68605">
        <ele>199</ele>
        <time>2018-04-01T09:10:32Z</time>
      </trkpt>
      <trkpt lat="49.21132" lon="3.68618">
        <ele>199</ele>
        <time>2018-04-01T09:11:32Z</time>
      </trkpt>
      <trkpt lat="49.21137" lon="3.68634">
        <ele>199</ele>
        <time>2018-04-01T09:12:32Z</time>
      </trkpt>
      <trkpt lat="49.21142" lon="3.6865">
        <ele>199</ele>
        <time>2018-04-01T09:13:32Z</time>
      </trkpt>
      <trkpt lat="49.21147" lon="3.68668">
        <ele>199</ele>
        <time>2018-04-01T09:14:32Z</time>
      </trkpt>
      <trkpt lat="49.21152" lon="3.68684">
        <ele>199</ele>
        <time>2018-04-01T09:15:32Z</time>
      </trkpt>
      <trkpt lat="49.21156" lon="3.68697">
        <ele>199</ele>
        <time>2018-04-01T09:16:32Z</time>
      </trkpt>
      <trkpt lat="49.21175" lon="3.68754">
        <ele>199</ele>
        <time>2018-04-01T09:17:32Z</time>
      </trkpt>
      <trkpt lat="49.21187" lon="3.6879">
        <ele>201</ele>
        <time>2018-04-01T09:18:32Z</time>
      </trkpt>
      <trkpt lat="49.21196" lon="3.68815">
        <ele>202</ele>
        <time>2018-04-01T09:19:32Z</time>
      </trkpt>
      <trkpt lat="49.212" lon="3.68829">
        <ele>202</ele>
        <time>2018-04-01T09:20:32Z</time>
      </trkpt>
      <trkpt lat="49.21205" lon="3.68844">
        <ele>202</ele>
        <time>2018-04-01T09:21:32Z</time>
      </trkpt>
      <trkpt lat="49.21217" lon="3.68878">
        <ele>203</ele>
        <time>2018-04-01T09:22:32Z</time>
      </trkpt>
      <trkpt lat="49.21226" lon="3.68906">
        <ele>202</ele>
        <time>2018-04-01T09:23:32Z</time>
      </trkpt>
      <trkpt lat="49.2123" lon="3.68918">
        <ele>202</ele>
        <time>2018-04-01T09:24:32Z</time>
      </trkpt>
      <trkpt lat="49.21234" lon="3.68928">
        <ele>203</ele>
        <time>2018-04-01T09:25:32Z</time>
      </trkpt>
      <trkpt lat="49.21237" lon="3.6894">
        <ele>203</ele>
        <time>2018-04-01T09:26:32Z</time>
      </trkpt>
      <trkpt lat="49.2124" lon="3.6895">
        <ele>204</ele>
        <time>2018-04-01T09:27:32Z</time>
      </trkpt>
      <trkpt lat="49.21242" lon="3.68959">
        <ele>204</ele>
        <time>2018-04-01T09:28:32Z</time>
      </trkpt>
      <trkpt lat="49.21243" lon="3.68966">
        <ele>205</ele>
        <time>2018-04-01T09:29:32Z</time>
      </trkpt>
      <trkpt lat="49.21245" lon="3.6898">
        <ele>205</ele>
        <time>2018-04-01T09:30:32Z</time>
      </trkpt>
      <trkpt lat="49.21247" lon="3.68999">
        <ele>206</ele>
        <time>2018-04-01T09:31:32Z</time>
      </trkpt>
      <trkpt lat="49.21247" lon="3.69014">
        <ele>207</ele>
        <time>2018-04-01T09:32:32Z</time>
      </trkpt>
      <trkpt lat="49.21246" lon="3.69027">
        <ele>207</ele>
        <time>2018-04-01T09:33:32Z</time>
      </trkpt>
      <trkpt lat="49.21244" lon="3.69043">
        <ele>208</ele>
        <time>2018-04-01T09:34:32Z</time>
      </trkpt>
      <trkpt lat="49.21241" lon="3.69064">
        <ele>209</ele>
        <time>2018-04-01T09:35:32Z</time>
      </trkpt>
      <trkpt lat="49.21233" lon="3.69104">
        <ele>212</ele>
        <time>2018-04-01T09:36:32Z</time>
      </trkpt>
      <trkpt lat="49.2122" lon="3.69164">
        <ele>217</ele>
        <time>2018-04-01T09:37:32Z</time>
      </trkpt>
      <trkpt lat="49.21206" lon="3.69235">
        <ele>220</ele>
        <time>2018-04-01T09:38:32Z</time>
      </trkpt>
      <trkpt lat="49.21188" lon="3.69329">
        <ele>224</ele>
        <time>2018-04-01T09:39:32Z</time>
      </trkpt>
      <trkpt lat="49.21179" lon="3.69366">
        <ele>226</ele>
        <time>2018-04-01T09:40:32Z</time>
      </trkpt>
      <trkpt lat="49.21175" lon="3.69383">
        <ele>227</ele>
        <time>2018-04-01T09:41:32Z</time>
      </trkpt>
      <trkpt lat="49.2117" lon="3.69399">
        <ele>228</ele>
        <time>2018-04-01T09:42:32Z</time>
      </trkpt>
      <trkpt lat="49.21162" lon="3.69423">
        <ele>230</ele>
        <time>2018-04-01T09:43:32Z</time>
      </trkpt>
      <trkpt lat="49.21148" lon="3.69463">
        <ele>233</ele>
        <time>2018-04-01T09:44:32Z</time>
      </trkpt>
      <trkpt lat="49.21136" lon="3.69498">
        <ele>236</ele>
        <time>2018-04-01T09:45:32Z</time>
      </trkpt>
      <trkpt lat="49.21128" lon="3.69521">
        <ele>236</ele>
        <time>2018-04-01T09:46:32Z</time>
      </trkpt>
      <trkpt lat="49.21117" lon="3.69555">
        <ele>236</ele>
        <time>2018-04-01T09:47:32Z</time>
      </trkpt>
      <trkpt lat="49.21101" lon="3.69597">
        <ele>237</ele>
        <time>2018-04-01T09:48:32Z</time>
      </trkpt>
      <trkpt lat="49.21087" lon="3.69636">
        <ele>237</ele>
        <time>2018-04-01T09:49:32Z</time>
      </trkpt>
      <trkpt lat="49.21074" lon="3.69672">
        <ele>238</ele>
        <time>2018-04-01T09:50:32Z</time>
      </trkpt>
      <trkpt lat="49.21062" lon="3.69703">
        <ele>238</ele>
        <time>2018-04-01T09:51:32Z</time>
      </trkpt>
      <trkpt lat="49.21051" lon="3.69731">
        <ele>238</ele>
        <time>2018-04-01T09:52:32Z</time>
      </trkpt>
      <trkpt lat="49.21045" lon="3.69751">
        <ele>238</ele>
        <time>2018-04-01T09:53:32Z</time>
      </trkpt>
      <trkpt lat="49.21041" lon="3.69766">
        <ele>239</ele>
        <time>2018-04-01T09:54:32Z</time>
      </trkpt>
      <trkpt lat="49.2104" lon="3.69772">
        <ele>239</ele>
        <time>2018-04-01T09:55:32Z</time>
      </trkpt>
      <trkpt lat="49.21039" lon="3.69778">
        <ele>239</ele>
        <time>2018-04-01T09:56:32Z</time>
      </trkpt>
      <trkpt lat="49.21037" lon="3.69791">
        <ele>239</ele>
        <time>2018-04-01T09:57:32Z</time>
      </trkpt>
      <trkpt lat="49.21035" lon="3.69823">
        <ele>240</ele>
        <time>2018-04-01T09:58:32Z</time>
      </trkpt>
      <trkpt lat="49.21034" lon="3.69847">
        <ele>241</ele>
        <time>2018-04-01T09:59:32Z</time>
      </trkpt>
      <trkpt lat="49.21035" lon="3.69881">
        <ele>242</ele>
        <time>2018-04-01T10:00:32Z</time>
      </trkpt>
      <trkpt lat="49.21035" lon="3.69919">
        <ele>243</ele>
        <time>2018-04-01T10:01:32Z</time>
      </trkpt>
      <trkpt lat="49.21036" lon="3.69943">
        <ele>244</ele>
        <time>2018-04-01T10:02:32Z</time>
      </trkpt>
      <trkpt lat="49.21036" lon="3.69991">
        <ele>245</ele>
        <time>2018-04-01T10:03:32Z</time>
      </trkpt>
      <trkpt lat="49.21036" lon="3.7004">
        <ele>245</ele>
        <time>2018-04-01T10:04:32Z</time>
      </trkpt>
      <trkpt lat="49.21037" lon="3.70074">
        <ele>245</ele>
        <time>2018-04-01T10:05:32Z</time>
      </trkpt>
      <trkpt lat="49.21037" lon="3.70106">
        <ele>244</ele>
        <time>2018-04-01T10:06:32Z</time>
      </trkpt>
      <trkpt lat="49.21039" lon="3.70126">
        <ele>244</ele>
        <time>2018-04-01T10:07:32Z</time>
      </trkpt>
      <trkpt lat="49.21043" lon="3.70147">
        <ele>243</ele>
        <time>2018-04-01T10:08:32Z</time>
      </trkpt>
      <trkpt lat="49.21052" lon="3.70178">
        <ele>242</ele>
        <time>2018-04-01T10:09:32Z</time>
      </trkpt>
      <trkpt lat="49.21059" lon="3.70202">
        <ele>241</ele>
        <time>2018-04-01T10:10:32Z</time>
      </trkpt>
      <trkpt lat="49.21069" lon="3.70236">
        <ele>239</ele>
        <time>2018-04-01T10:11:32Z</time>
      </trkpt>
      <trkpt lat="49.21093" lon="3.70314">
        <ele>235</ele>
        <time>2018-04-01T10:12:32Z</time>
      </trkpt>
      <trkpt lat="49.21123" lon="3.70426">
        <ele>230</ele>
        <time>2018-04-01T10:13:32Z</time>
      </trkpt>
      <trkpt lat="49.21135" lon="3.70472">
        <ele>229</ele>
        <time>2018-04-01T10:14:32Z</time>
      </trkpt>
      <trkpt lat="49.21146" lon="3.70518">
        <ele>227</ele>
        <time>2018-04-01T10:15:32Z</time>
      </trkpt>
      <trkpt lat="49.21152" lon="3.70546">
        <ele>225</ele>
        <time>2018-04-01T10:16:32Z</time>
      </trkpt>
      <trkpt lat="49.21158" lon="3.70577">
        <ele>222</ele>
        <time>2018-04-01T10:17:32Z</time>
      </trkpt>
      <trkpt lat="49.21163" lon="3.70608">
        <ele>221</ele>
        <time>2018-04-01T10:18:32Z</time>
      </trkpt>
      <trkpt lat="49.21166" lon="3.70636">
        <ele>219</ele>
        <time>2018-04-01T10:19:32Z</time>
      </trkpt>
      <trkpt lat="49.21169" lon="3.70672">
        <ele>217</ele>
        <time>2018-04-01T10:20:32Z</time>
      </trkpt>
      <trkpt lat="49.21171" lon="3.70703">
        <ele>216</ele>
        <time>2018-04-01T10:21:32Z</time>
      </trkpt>
      <trkpt lat="49.21172" lon="3.70738">
        <ele>215</ele>
        <time>2018-04-01T10:22:32Z</time>
      </trkpt>
      <trkpt lat="49.21172" lon="3.70762">
        <ele>215</ele>
        <time>2018-04-01T10:23:32Z</time>
      </trkpt>
      <trkpt lat="49.21171" lon="3.70799">
        <ele>214</ele>
        <time>2018-04-01T10:24:32Z</time>
      </trkpt>
      <trkpt lat="49.21168" lon="3.70838">
        <ele>214</ele>
        <time>2018-04-01T10:25:32Z</time>
      </trkpt>
      <trkpt lat="49.21163" lon="3.70896">
        <ele>213</ele>
        <time>2018-04-01T10:26:32Z</time>
      </trkpt>
      <trkpt lat="49.21157" lon="3.70978">
        <ele>210</ele>
        <time>2018-04-01T10:27:32Z</time>
      </trkpt>
      <trkpt lat="49.21153" lon="3.71037">
        <ele>208</ele>
        <time>2018-04-01T10:28:32Z</time>
      </trkpt>
      <trkpt lat="49.21148" lon="3.71116">
        <ele>206</ele>
        <time>2018-04-01T10:29:32Z</time>
      </trkpt>
      <trkpt lat="49.21141" lon="3.71201">
        <ele>204</ele>
        <time>2018-04-01T10:30:32Z</time>
      </trkpt>
      <trkpt lat="49.21134" lon="3.71292">
        <ele>202</ele>
        <time>2018-04-01T10:31:32Z</time>
      </trkpt>
      <trkpt lat="49.21126" lon="3.71394">
        <ele>196</ele>
        <time>2018-04-01T10:32:32Z</time>
      </trkpt>
      <trkpt lat="49.21118" lon="3.71478">
        <ele>191</ele>
        <time>2018-04-01T10:33:32Z</time>
      </trkpt>
      <trkpt lat="49.21114" lon="3.71535">
        <ele>188</ele>
        <time>2018-04-01T10:34:32Z</time>
      </trkpt>
      <trkpt lat="49.21109" lon="3.71595">
        <ele>184</ele>
        <time>2018-04-01T10:35:32Z</time>
      </trkpt>
      <trkpt lat="49.21105" lon="3.71649">
        <ele>181</ele>
        <time>2018-04-01T10:36:32Z</time>
      </trkpt>
      <trkpt lat="49.21097" lon="3.71736">
        <ele>178</ele>
        <time>2018-04-01T10:37:32Z</time>
      </trkpt>
      <trkpt lat="49.21094" lon="3.7178">
        <ele>177</ele>
        <time>2018-04-01T10:38:32Z</time>
      </trkpt>
      <trkpt lat="49.21092" lon="3.7182">
        <ele>175</ele>
        <time>2018-04-01T10:39:32Z</time>
      </trkpt>
      <trkpt lat="49.21089" lon="3.71868">
        <ele>173</ele>
        <time>2018-04-01T10:40:32Z</time>
      </trkpt>
      <trkpt lat="49.21086" lon="3.71941">
        <ele>170</ele>
        <time>2018-04-01T10:41:32Z</time>
      </trkpt>
      <trkpt lat="49.21085" lon="3.72004">
        <ele>168</ele>
        <time>2018-04-01T10:42:32Z</time>
      </trkpt>
      <trkpt lat="49.21084" lon="3.72038">
        <ele>167</ele>
        <time>2018-04-01T10:43:32Z</time>
      </trkpt>
      <trkpt lat="49.21085" lon="3.72071">
        <ele>166</ele>
        <time>2018-04-01T10:44:32Z</time>
      </trkpt>
      <trkpt lat="49.21086" lon="3.72096">
        <ele>166</ele>
        <time>2018-04-01T10:45:32Z</time>
      </trkpt>
      <trkpt lat="49.21088" lon="3.72117">
        <ele>166</ele>
        <time>2018-04-01T10:46:32Z</time>
      </trkpt>
      <trkpt lat="49.21091" lon="3.72139">
        <ele>166</ele>
        <time>2018-04-01T10:47:32Z</time>
      </trkpt>
      <trkpt lat="49.21095" lon="3.72164">
        <ele>166</ele>
        <time>2018-04-01T10:48:32Z</time>
      </trkpt>
      <trkpt lat="49.211" lon="3.72194">
        <ele>166</ele>
        <time>2018-04-01T10:49:32Z</time>
      </trkpt>
      <trkpt lat="49.21106" lon="3.72229">
        <ele>165</ele>
        <time>2018-04-01T10:50:32Z</time>
      </trkpt>
      <trkpt lat="49.2111" lon="3.72253">
        <ele>164</ele>
        <time>2018-04-01T10:51:32Z</time>
      </trkpt>
      <trkpt lat="49.21114" lon="3.7228">
        <ele>163</ele>
        <time>2018-04-01T10:52:32Z</time>
      </trkpt>
      <trkpt lat="49.21118" lon="3.72309">
        <ele>161</ele>
        <time>2018-04-01T10:53:32Z</time>
      </trkpt>
      <trkpt lat="49.21121" lon="3.72334">
        <ele>160</ele>
        <time>2018-04-01T10:54:32Z</time>
      </trkpt>
      <trkpt lat="49.21122" lon="3.72351">
        <ele>158</ele>
        <time>2018-04-01T10:55:32Z</time>
      </trkpt>
      <trkpt lat="49.21123" lon="3.72377">
        <ele>157</ele>
        <time>2018-04-01T10:56:32Z</time>
      </trkpt>
      <trkpt lat="49.21125" lon="3.72411">
        <ele>154</ele>
        <time>2018-04-01T10:57:32Z</time>
      </trkpt>
      <trkpt lat="49.21127" lon="3.72449">
        <ele>153</ele>
        <time>2018-04-01T10:58:32Z</time>
      </trkpt>
      <trkpt lat="49.2113" lon="3.72493">
        <ele>151</ele>
        <time>2018-04-01T10:59:32Z</time>
      </trkpt>
      <trkpt lat="49.21132" lon="3.72531">
        <ele>151</ele>
        <time>2018-04-01T11:00:32Z</time>
      </trkpt>
      <trkpt lat="49.21133" lon="3.72557">
        <ele>152</ele>
        <time>2018-04-01T11:01:32Z</time>
      </trkpt>
      <trkpt lat="49.21134" lon="3.72584">
        <ele>152</ele>
        <time>2018-04-01T11:02:32Z</time>
      </trkpt>
      <trkpt lat="49.21135" lon="3.72609">
        <ele>153</ele>
        <time>2018-04-01T11:03:32Z</time>
      </trkpt>
      <trkpt lat="49.21137" lon="3.72636">
        <ele>155</ele>
        <time>2018-04-01T11:04:32Z</time>
      </trkpt>
      <trkpt lat="49.21138" lon="3.7266">
        <ele>156</ele>
        <time>2018-04-01T11:05:32Z</time>
      </trkpt>
      <trkpt lat="49.21139" lon="3.72687">
        <ele>158</ele>
        <time>2018-04-01T11:06:32Z</time>
      </trkpt>
      <trkpt lat="49.2114" lon="3.72714">
        <ele>159</ele>
        <time>2018-04-01T11:07:32Z</time>
      </trkpt>
      <trkpt lat="49.21139" lon="3.7274">
        <ele>160</ele>
        <time>2018-04-01T11:08:32Z</time>
      </trkpt>
      <trkpt lat="49.21138" lon="3.72772">
        <ele>162</ele>
        <time>2018-04-01T11:09:32Z</time>
      </trkpt>
      <trkpt lat="49.21137" lon="3.72807">
        <ele>163</ele>
        <time>2018-04-01T11:10:32Z</time>
      </trkpt>
      <trkpt lat="49.21136" lon="3.72845">
        <ele>164</ele>
        <time>2018-04-01T11:11:32Z</time>
      </trkpt>
      <trkpt lat="49.21134" lon="3.72874">
        <ele>164</ele>
        <time>2018-04-01T11:12:32Z</time>
      </trkpt>
      <trkpt lat="49.21134" lon="3.72894">
        <ele>165</ele>
        <time>2018-04-01T11:13:32Z</time>
      </trkpt>
      <trkpt lat="49.21131" lon="3.72949">
        <ele>166</ele>
        <time>2018-04-01T11:14:32Z</time>
      </trkpt>
      <trkpt lat="49.21129" lon="3.73001">
        <ele>167</ele>
        <time>2018-04-01T11:15:32Z</time>
      </trkpt>
      <trkpt lat="49.21126" lon="3.73059">
        <ele>167</ele>
        <time>2018-04-01T11:16:32Z</time>
      </trkpt>
      <trkpt lat="49.21121" lon="3.73165">
        <ele>167</ele>
        <time>2018-04-01T11:17:32Z</time>
      </trkpt>
      <trkpt lat="49.21119" lon="3.73213">
        <ele>167</ele>
        <time>2018-04-01T11:18:32Z</time>
      </trkpt>
      <trkpt lat="49.21118" lon="3.73254">
        <ele>167</ele>
        <time>2018-04-01T11:19:32Z</time>
      </trkpt>
      <trkpt lat="49.21117" lon="3.73269">
        <ele>168</ele>
        <time>2018-04-01T11:20:32Z</time>
      </trkpt>
      <trkpt lat="49.21114" lon="3.7334">
        <ele>169</ele>
        <time>2018-04-01T11:21:32Z</time>
      </trkpt>
      <trkpt lat="49.21111" lon="3.73412">
        <ele>171</ele>
        <time>2018-04-01T11:22:32Z</time>
      </trkpt>
      <trkpt lat="49.21108" lon="3.73471">
        <ele>172</ele>
        <time>2018-04-01T11:23:32Z</time>
      </trkpt>
      <trkpt lat="49.21106" lon="3.73517">
        <ele>173</ele>
        <time>2018-04-01T11:24:32Z</time>
      </trkpt>
      <trkpt lat="49.21104" lon="3.73558">
        <ele>174</ele>
        <time>2018-04-01T11:25:32Z</time>
      </trkpt>
      <trkpt lat="49.21103" lon="3.73596">
        <ele>174</ele>
        <time>2018-04-01T11:26:32Z</time>
      </trkpt>
      <trkpt lat="49.21102" lon="3.73624">
        <ele>174</ele>
        <time>2018-04-01T11:27:32Z</time>
      </trkpt>
      <trkpt lat="49.21101" lon="3.73638">
        <ele>174</ele>
        <time>2018-04-01T11:28:32Z</time>
      </trkpt>
      <trkpt lat="49.211" lon="3.73663">
        <ele>174</ele>
        <time>2018-04-01T11:29:32Z</time>
      </trkpt>
      <trkpt lat="49.211" lon="3.7368">
        <ele>173</ele>
        <time>2018-04-01T11:30:32Z</time>
      </trkpt>
      <trkpt lat="49.21101" lon="3.73699">
        <ele>173</ele>
        <time>2018-04-01T11:31:32Z</time>
      </trkpt>
      <trkpt lat="49.21103" lon="3.73728">
        <ele>172</ele>
        <time>2018-04-01T11:32:32Z</time>
      </trkpt>
      <trkpt lat="49.21107" lon="3.73782">
        <ele>171</ele>
        <time>2018-04-01T11:33:32Z</time>
      </trkpt>
      <trkpt lat="49.21112" lon="3.73838">
        <ele>169</ele>
        <time>2018-04-01T11:34:32Z</time>
      </trkpt>
      <trkpt lat="49.21117" lon="3.73892">
        <ele>167</ele>
        <time>2018-04-01T11:35:32Z</time>
      </trkpt>
      <trkpt lat="49.2112" lon="3.73942">
        <ele>166</ele>
        <time>2018-04-01T11:36:32Z</time>
      </trkpt>
      <trkpt lat="49.21123" lon="3.73979">
        <ele>165</ele>
        <time>2018-04-01T11:37:32Z</time>
      </trkpt>
      <trkpt lat="49.21125" lon="3.74">
        <ele>165</ele>
        <time>2018-04-01T11:38:32Z</time>
      </trkpt>
      <trkpt lat="49.21125" lon="3.74009">
        <ele>164</ele>
        <time>2018-04-01T11:39:32Z</time>
      </trkpt>
      <trkpt lat="49.21125" lon="3.74018">
        <ele>164</ele>
        <time>2018-04-01T11:40:32Z</time>
      </trkpt>
      <trkpt lat="49.21125" lon="3.74037">
        <ele>164</ele>
        <time>2018-04-01T11:41:32Z</time>
      </trkpt>
      <trkpt lat="49.21125" lon="3.74041">
        <ele>164</ele>
        <time>2018-04-01T11:42:32Z</time>
      </trkpt>
      <trkpt lat="49.21122" lon="3.7406">
        <ele>164</ele>
        <time>2018-04-01T11:43:32Z</time>
      </trkpt>
      <trkpt lat="49.21119" lon="3.7408">
        <ele>164</ele>
        <time>2018-04-01T11:44:32Z</time>
      </trkpt>
      <trkpt lat="49.21116" lon="3.74094">
        <ele>164</ele>
        <time>2018-04-01T11:45:32Z</time>
      </trkpt>
      <trkpt lat="49.21111" lon="3.74113">
        <ele>164</ele>
        <time>2018-04-01T11:46:32Z</time>
      </trkpt>
      <trkpt lat="49.21104" lon="3.74133">
        <ele>164</ele>
        <time>2018-04-01T11:47:32Z</time>
      </trkpt>
      <trkpt lat="49.21095" lon="3.7415">
        <ele>164</ele>
        <time>2018-04-01T11:48:32Z</time>
      </trkpt>
      <trkpt lat="49.21087" lon="3.74166">
        <ele>164</ele>
        <time>2018-04-01T11:49:32Z</time>
      </trkpt>
      <trkpt lat="49.21078" lon="3.74183">
        <ele>163</ele>
        <time>2018-04-01T11:50:32Z</time>
      </trkpt>
      <trkpt lat="49.21072" lon="3.74192">
        <ele>163</ele>
        <time>2018-04-01T11:51:32Z</time>
      </trkpt>
      <trkpt lat="49.2106" lon="3.74208">
        <ele>162</ele>
        <time>2018-04-01T11:52:32Z</time>
      </trkpt>
      <trkpt lat="49.21047" lon="3.74226">
        <ele>161</ele>
        <time>2018-04-01T11:53:32Z</time>
      </trkpt>
      <trkpt lat="49.21035" lon="3.74243">
        <ele>160</ele>
        <time>2018-04-01T11:54:32Z</time>
      </trkpt>
      <trkpt lat="49.21031" lon="3.7425">
        <ele>160</ele>
        <time>2018-04-01T11:55:32Z</time>
      </trkpt>
      <trkpt lat="49.2103" lon="3.74252">
        <ele>160</ele>
        <time>2018-04-01T11:56:32Z</time>
      </trkpt>
      <trkpt lat="49.21028" lon="3.74257">
        <ele>160</ele>
        <time>2018-04-01T11:57:32Z</time>
      </trkpt>
      <trkpt lat="49.21028" lon="3.7426">
        <ele>160</ele>
        <time>2018-04-01T11:58:32Z</time>
      </trkpt>
      <trkpt lat="49.21028" lon="3.74267">
        <ele>160</ele>
        <time>2018-04-01T11:59:32Z</time>
      </trkpt>
      <trkpt lat="49.21028" lon="3.74271">
        <ele>160</ele>
        <time>2018-04-01T12:00:32Z</time>
      </trkpt>
      <trkpt lat="49.21031" lon="3.74279">
        <ele>159</ele>
        <time>2018-04-01T12:01:32Z</time>
      </trkpt>
      <trkpt lat="49.21036" lon="3.74287">
        <ele>159</ele>
        <time>2018-04-01T12:02:32Z</time>
      </trkpt>
      <trkpt lat="49.21049" lon="3.74306">
        <ele>159</ele>
        <time>2018-04-01T12:03:32Z</time>
      </trkpt>
      <trkpt lat="49.21052" lon="3.74311">
        <ele>158</ele>
        <time>2018-04-01T12:04:32Z</time>
      </trkpt>
      <trkpt lat="49.21055" lon="3.74316">
        <ele>158</ele>
        <time>2018-04-01T12:05:32Z</time>
      </trkpt>
      <trkpt lat="49.21057" lon="3.74319">
        <ele>158</ele>
        <time>2018-04-01T12:06:32Z</time>
      </trkpt>
      <trkpt lat="49.2106" lon="3.74326">
        <ele>158</ele>
        <time>2018-04-01T12:07:32Z</time>
      </trkpt>
      <trkpt lat="49.21063" lon="3.7434">
        <ele>157</ele>
        <time>2018-04-01T12:08:32Z</time>
      </trkpt>
      <trkpt lat="49.21065" lon="3.7435">
        <ele>157</ele>
        <time>2018-04-01T12:09:32Z</time>
      </trkpt>
      <trkpt lat="49.21066" lon="3.74364">
        <ele>157</ele>
        <time>2018-04-01T12:10:32Z</time>
      </trkpt>
      <trkpt lat="49.21066" lon="3.74378">
        <ele>157</ele>
        <time>2018-04-01T12:11:32Z</time>
      </trkpt>
      <trkpt lat="49.21066" lon="3.74382">
        <ele>157</ele>
        <time>2018-04-01T12:12:32Z</time>
      </trkpt>
      <trkpt lat="49.21066" lon="3.74389">
        <ele>157</ele>
        <time>2018-04-01T12:13:32Z</time>
      </trkpt>
      <trkpt lat="49.21064" lon="3.744">
        <ele>157</ele>
        <time>2018-04-01T12:14:32Z</time>
      </trkpt>
      <trkpt lat="49.21057" lon="3.74436">
        <ele>157</ele>
        <time>2018-04-01T12:15:32Z</time>
      </trkpt>
      <trkpt lat="49.21055" lon="3.74447">
        <ele>157</ele>
        <time>2018-04-01T12:16:32Z</time>
      </trkpt>
      <trkpt lat="49.21052" lon="3.74458">
        <ele>157</ele>
        <time>2018-04-01T12:17:32Z</time>
      </trkpt>
      <trkpt lat="49.2105" lon="3.74472">
        <ele>157</ele>
        <time>2018-04-01T12:18:32Z</time>
      </trkpt>
      <trkpt lat="49.21049" lon="3.74479">
        <ele>157</ele>
        <time>2018-04-01T12:19:32Z</time>
      </trkpt>
      <trkpt lat="49.21049" lon="3.74485">
        <ele>157</ele>
        <time>2018-04-01T12:20:32Z</time>
      </trkpt>
      <trkpt lat="49.2105" lon="3.74495">
        <ele>156</ele>
        <time>2018-04-01T12:21:32Z</time>
      </trkpt>
      <trkpt lat="49.21054" lon="3.74513">
        <ele>156</ele>
        <time>2018-04-01T12:22:32Z</time>
      </trkpt>
      <trkpt lat="49.21057" lon="3.74525">
        <ele>156</ele>
        <time>2018-04-01T12:23:32Z</time>
      </trkpt>
      <trkpt lat="49.21061" lon="3.74536">
        <ele>155</ele>
        <time>2018-04-01T12:24:32Z</time>
      </trkpt>
      <trkpt lat="49.21066" lon="3.74556">
        <ele>155</ele>
        <time>2018-04-01T12:25:32Z</time>
      </trkpt>
      <trkpt lat="49.21066" lon="3.74556">
        <ele>155</ele>
        <time>2018-04-01T12:26:32Z</time>
      </trkpt>
      <trkpt lat="49.21067" lon="3.74594">
        <ele>154</ele>
        <time>2018-04-01T12:27:32Z</time>
      </trkpt>
      <trkpt lat="49.2107" lon="3.7466">
        <ele>155</ele>
        <time>2018-04-01T12:28:32Z</time>
      </trkpt>
      <trkpt lat="49.21072" lon="3.74736">
        <ele>156</ele>
        <time>2018-04-01T12:29:32Z</time>
      </trkpt>
      <trkpt lat="49.21076" lon="3.74827">
        <ele>157</ele>
        <time>2018-04-01T12:30:32Z</time>
      </trkpt>
      <trkpt lat="49.21078" lon="3.74906">
        <ele>158</ele>
        <time>2018-04-01T12:31:32Z</time>
      </trkpt>
      <trkpt lat="49.2108" lon="3.7496">
        <ele>158</ele>
        <time>2018-04-01T12:32:32Z</time>
      </trkpt>
      <trkpt lat="49.21082" lon="3.75011">
        <ele>157</ele>
        <time>2018-04-01T12:33:32Z</time>
      </trkpt>
      <trkpt lat="49.21084" lon="3.75069">
        <ele>158</ele>
        <time>2018-04-01T12:34:32Z</time>
      </trkpt>
      <trkpt lat="49.21085" lon="3.75101">
        <ele>159</ele>
        <time>2018-04-01T12:35:32Z</time>
      </trkpt>
      <trkpt lat="49.21087" lon="3.75144">
        <ele>160</ele>
        <time>2018-04-01T12:36:32Z</time>
      </trkpt>
      <trkpt lat="49.2109" lon="3.75232">
        <ele>163</ele>
        <time>2018-04-01T12:37:32Z</time>
      </trkpt>
      <trkpt lat="49.21093" lon="3.7532">
        <ele>166</ele>
        <time>2018-04-01T12:38:32Z</time>
      </trkpt>
      <trkpt lat="49.21095" lon="3.75371">
        <ele>168</ele>
        <time>2018-04-01T12:39:32Z</time>
      </trkpt>
      <trkpt lat="49.21096" lon="3.75397">
        <ele>169</ele>
        <time>2018-04-01T12:40:32Z</time>
      </trkpt>
      <trkpt lat="49.21099" lon="3.75487">
        <ele>172</ele>
        <time>2018-04-01T12:41:32Z</time>
      </trkpt>
      <trkpt lat="49.211" lon="3.75522">
        <ele>172</ele>
        <time>2018-04-01T12:42:32Z</time>
      </trkpt>
      <trkpt lat="49.21102" lon="3.75576">
        <ele>173</ele>
        <time>2018-04-01T12:43:32Z</time>
      </trkpt>
      <trkpt lat="49.21104" lon="3.75643">
        <ele>174</ele>
        <time>2018-04-01T12:44:32Z</time>
      </trkpt>
      <trkpt lat="49.21107" lon="3.75721">
        <ele>175</ele>
        <time>2018-04-01T12:45:32Z</time>
      </trkpt>
      <trkpt lat="49.2111" lon="3.75801">
        <ele>176</ele>
        <time>2018-04-01T12:46:32Z</time>
      </trkpt>
      <trkpt lat="49.21112" lon="3.75866">
        <ele>178</ele>
        <time>2018-04-01T12:47:32Z</time>
      </trkpt>
      <trkpt lat="49.21114" lon="3.75913">
        <ele>179</ele>
        <time>2018-04-01T12:48:32Z</time>
      </trkpt>
      <trkpt lat="49.21114" lon="3.75935">
        <ele>179</ele>
        <time>2018-04-01T12:49:32Z</time>
      </trkpt>
      <trkpt lat="49.21114" lon="3.75949">
        <ele>179</ele>
        <time>2018-04-01T12:50:32Z</time>
      </trkpt>
      <trkpt lat="49.21114" lon="3.75975">
        <ele>180</ele>
        <time>2018-04-01T12:51:32Z</time>
      </trkpt>
      <trkpt lat="49.21112" lon="3.76001">
        <ele>181</ele>
        <time>2018-04-01T12:52:32Z</time>
      </trkpt>
      <trkpt lat="49.21111" lon="3.76012">
        <ele>181</ele>
        <time>2018-04-01T12:53:32Z</time>
      </trkpt>
      <trkpt lat="49.21109" lon="3.76023">
        <ele>181</ele>
        <time>2018-04-01T12:54:32Z</time>
      </trkpt>
      <trkpt lat="49.21105" lon="3.76037">
        <ele>181</ele>
        <time>2018-04-01T12:55:32Z</time>
      </trkpt>
      <trkpt lat="49.21097" lon="3.76062">
        <ele>181</ele>
        <time>2018-04-01T12:56:32Z</time>
      </trkpt>
      <trkpt lat="49.21094" lon="3.76075">
        <ele>181</ele>
        <time>2018-04-01T12:57:32Z</time>
      </trkpt>
      <trkpt lat="49.21092" lon="3.76085">
        <ele>181</ele>
        <time>2018-04-01T12:58:32Z</time>
      </trkpt>
      <trkpt lat="49.21088" lon="3.76098">
        <ele>181</ele>
        <time>2018-04-01T12:59:32Z</time>
      </trkpt>
      <trkpt lat="49.21085" lon="3.76107">
        <ele>180</ele>
        <time>2018-04-01T13:00:32Z</time>
      </trkpt>
      <trkpt lat="49.21082" lon="3.76114">
        <ele>180</ele>
        <time>2018-04-01T13:01:32Z</time>
      </trkpt>
      <trkpt lat="49.2108" lon="3.7612">
        <ele>180</ele>
        <time>2018-04-01T13:02:32Z</time>
      </trkpt>
      <trkpt lat="49.21073" lon="3.76129">
        <ele>180</ele>
        <time>2018-04-01T13:03:32Z</time>
      </trkpt>
      <trkpt lat="49.21063" lon="3.76144">
        <ele>179</ele>
        <time>2018-04-01T13:04:32Z</time>
      </trkpt>
      <trkpt lat="49.21027" lon="3.76194">
        <ele>177</ele>
        <time>2018-04-01T13:05:32Z</time>
      </trkpt>
      <trkpt lat="49.21021" lon="3.76204">
        <ele>176</ele>
        <time>2018-04-01T13:06:32Z</time>
      </trkpt>
      <trkpt lat="49.2102" lon="3.76206">
        <ele>176</ele>
        <time>2018-04-01T13:07:32Z</time>
      </trkpt>
      <trkpt lat="49.21019" lon="3.76209">
        <ele>176</ele>
        <time>2018-04-01T13:08:32Z</time>
      </trkpt>
      <trkpt lat="49.21018" lon="3.76212">
        <ele>176</ele>
        <time>2018-04-01T13:09:32Z</time>
      </trkpt>
      <trkpt lat="49.21018" lon="3.76216">
        <ele>175</ele>
        <time>2018-04-01T13:10:32Z</time>
      </trkpt>
      <trkpt lat="49.21017" lon="3.7622">
        <ele>175</ele>
        <time>2018-04-01T13:11:32Z</time>
      </trkpt>
      <trkpt lat="49.21018" lon="3.76224">
        <ele>175</ele>
        <time>2018-04-01T13:12:32Z</time>
      </trkpt>
      <trkpt lat="49.21019" lon="3.76227">
        <ele>175</ele>
        <time>2018-04-01T13:13:32Z</time>
      </trkpt>
      <trkpt lat="49.21021" lon="3.7623">
        <ele>175</ele>
        <time>2018-04-01T13:14:32Z</time>
      </trkpt>
      <trkpt lat="49.21026" lon="3.76241">
        <ele>174</ele>
        <time>2018-04-01T13:15:32Z</time>
      </trkpt>
      <trkpt lat="49.2104" lon="3.76264">
        <ele>173</ele>
        <time>2018-04-01T13:16:32Z</time>
      </trkpt>
      <trkpt lat="49.21045" lon="3.76274">
        <ele>173</ele>
        <time>2018-04-01T13:17:32Z</time>
      </trkpt>
      <trkpt lat="49.21054" lon="3.76294">
        <ele>173</ele>
        <time>2018-04-01T13:18:32Z</time>
      </trkpt>
      <trkpt lat="49.21056" lon="3.76299">
        <ele>173</ele>
        <time>2018-04-01T13:19:32Z</time>
      </trkpt>
      <trkpt lat="49.21056" lon="3.76303">
        <ele>172</ele>
        <time>2018-04-01T13:20:32Z</time>
      </trkpt>
      <trkpt lat="49.21056" lon="3.76307">
        <ele>172</ele>
        <time>2018-04-01T13:21:32Z</time>
      </trkpt>
      <trkpt lat="49.21056" lon="3.76312">
        <ele>172</ele>
        <time>2018-04-01T13:22:32Z</time>
      </trkpt>
      <trkpt lat="49.21054" lon="3.7633">
        <ele>171</ele>
        <time>2018-04-01T13:23:32Z</time>
      </trkpt>
      <trkpt lat="49.21049" lon="3.76355">
        <ele>170</ele>
        <time>2018-04-01T13:24:32Z</time>
      </trkpt>
      <trkpt lat="49.21042" lon="3.76381">
        <ele>169</ele>
        <time>2018-04-01T13:25:32Z</time>
      </trkpt>
      <trkpt lat="49.21041" lon="3.76387">
        <ele>169</ele>
        <time>2018-04-01T13:26:32Z</time>
      </trkpt>
      <trkpt lat="49.21037" lon="3.764">
        <ele>168</ele>
        <time>2018-04-01T13:27:32Z</time>
      </trkpt>
      <trkpt lat="49.21037" lon="3.764">
        <ele>168</ele>
        <time>2018-04-01T13:28:32Z</time>
      </trkpt>
      <trkpt lat="49.21028" lon="3.76445">
        <ele>166</ele>
        <time>2018-04-01T13:29:32Z</time>
      </trkpt>
      <trkpt lat="49.21022" lon="3.76484">
        <ele>164</ele>
        <time>2018-04-01T13:30:32Z</time>
      </trkpt>
      <trkpt lat="49.21021" lon="3.76495">
        <ele>164</ele>
        <time>2018-04-01T13:31:32Z</time>
      </trkpt>
      <trkpt lat="49.21021" lon="3.76496">
        <ele>164</ele>
        <time>2018-04-01T13:32:32Z</time>
      </trkpt>
      <trkpt lat="49.21021" lon="3.76504">
        <ele>163</ele>
        <time>2018-04-01T13:33:32Z</time>
      </trkpt>
      <trkpt lat="49.21023" lon="3.76515">
        <ele>163</ele>
        <time>2018-04-01T13:34:32Z</time>
      </trkpt>
      <trkpt lat="49.21028" lon="3.76531">
        <ele>163</ele>
        <time>2018-04-01T13:35:32Z</time>
      </trkpt>
      <trkpt lat="49.21031" lon="3.7654">
        <ele>162</ele>
        <time>2018-04-01T13:36:32Z</time>
      </trkpt>
      <trkpt lat="49.2105" lon="3.76595">
        <ele>161</ele>
        <time>2018-04-01T13:37:32Z</time>
      </trkpt>
      <trkpt lat="49.21069" lon="3.76647">
        <ele>159</ele>
        <time>2018-04-01T13:38:32Z</time>
      </trkpt>
      <trkpt lat="49.21077" lon="3.76668">
        <ele>158</ele>
        <time>2018-04-01T13:39:32Z</time>
      </trkpt>
      <trkpt lat="49.21081" lon="3.76682">
        <ele>157</ele>
        <time>2018-04-01T13:40:32Z</time>
      </trkpt>
      <trkpt lat="49.21089" lon="3.76704">
        <ele>157</ele>
        <time>2018-04-01T13:41:32Z</time>
      </trkpt>
      <trkpt lat="49.21103" lon="3.76733">
        <ele>156</ele>
        <time>2018-04-01T13:42:32Z</time>
      </trkpt>
      <trkpt lat="49.2111" lon="3.76747">
        <ele>155</ele>
        <time>2018-04-01T13:43:32Z</time>
      </trkpt>
      <trkpt lat="49.21118" lon="3.76761">
        <ele>155</ele>
        <time>2018-04-01T13:44:32Z</time>
      </trkpt>
      <trkpt lat="49.21144" lon="3.76799">
        <ele>152</ele>
        <time>2018-04-01T13:45:32Z</time>
      </trkpt>
      <trkpt lat="49.21168" lon="3.76833">
        <ele>148</ele>
        <time>2018-04-01T13:46:32Z</time>
      </trkpt>
      <trkpt lat="49.21182" lon="3.76853">
        <ele>147</ele>
        <time>2018-04-01T13:47:32Z</time>
      </trkpt>
      <trkpt lat="49.21191" lon="3.76867">
        <ele>146</ele>
        <time>2018-04-01T13:48:32Z</time>
      </trkpt>
      <trkpt lat="49.21199" lon="3.76882">
        <ele>145</ele>
        <time>2018-04-01T13:49:32Z</time>
      </trkpt>
      <trkpt lat="49.21211" lon="3.76906">
        <ele>144</ele>
        <time>2018-04-01T13:50:32Z</time>
      </trkpt>
      <trkpt lat="49.2124" lon="3.76969">
        <ele>139</ele>
        <time>2018-04-01T13:51:32Z</time>
      </trkpt>
      <trkpt lat="49.21264" lon="3.77023">
        <ele>137</ele>
        <time>2018-04-01T13:52:32Z</time>
      </trkpt>
      <trkpt lat="49.21282" lon="3.77062">
        <ele>137</ele>
        <time>2018-04-01T13:53:32Z</time>
      </trkpt>
      <trkpt lat="49.21287" lon="3.77074">
        <ele>137</ele>
        <time>2018-04-01T13:54:32Z</time>
      </trkpt>
      <trkpt lat="49.21295" lon="3.77092">
        <ele>138</ele>
        <time>2018-04-01T13:55:32Z</time>
      </trkpt>
      <trkpt lat="49.21302" lon="3.77105">
        <ele>138</ele>
        <time>2018-04-01T13:56:32Z</time>
      </trkpt>
      <trkpt lat="49.21305" lon="3.7711">
        <ele>139</ele>
        <time>2018-04-01T13:57:32Z</time>
      </trkpt>
      <trkpt lat="49.21308" lon="3.77114">
        <ele>139</ele>
        <time>2018-04-01T13:58:32Z</time>
      </trkpt>
      <trkpt lat="49.21314" lon="3.77121">
        <ele>140</ele>
        <time>2018-04-01T13:59:32Z</time>
      </trkpt>
      <trkpt lat="49.21324" lon="3.77125">
        <ele>141</ele>
        <time>2018-04-01T14:00:32Z</time>
      </trkpt>
      <trkpt lat="49.21329" lon="3.77126">
        <ele>141</ele>
        <time>2018-04-01T14:01:32Z</time>
      </trkpt>
      <trkpt lat="49.21334" lon="3.77126">
        <ele>141</ele>
        <time>2018-04-01T14:02:32Z</time>
      </trkpt>
      <trkpt lat="49.21343" lon="3.77122">
        <ele>141</ele>
        <time>2018-04-01T14:03:32Z</time>
      </trkpt>
      <trkpt lat="49.21359" lon="3.77111">
        <ele>142</ele>
        <time>2018-04-01T14:04:32Z</time>
      </trkpt>
      <trkpt lat="49.21368" lon="3.77103">
        <ele>141</ele>
        <time>2018-04-01T14:05:32Z</time>
      </trkpt>
      <trkpt lat="49.21374" lon="3.771">
        <ele>142</ele>
        <time>2018-04-01T14:06:32Z</time>
      </trkpt>
      <trkpt lat="49.21381" lon="3.77097">
        <ele>142</ele>
        <time>2018-04-01T14:07:32Z</time>
      </trkpt>
      <trkpt lat="49.21383" lon="3.77096">
        <ele>142</ele>
        <time>2018-04-01T14:08:32Z</time>
      </trkpt>
      <trkpt lat="49.21388" lon="3.77096">
        <ele>142</ele>
        <time>2018-04-01T14:09:32Z</time>
      </trkpt>
      <trkpt lat="49.21392" lon="3.77096">
        <ele>143</ele>
        <time>2018-04-01T14:10:32Z</time>
      </trkpt>
      <trkpt lat="49.21396" lon="3.77098">
        <ele>143</ele>
        <time>2018-04-01T14:11:32Z</time>
      </trkpt>
      <trkpt lat="49.21401" lon="3.771">
        <ele>144</ele>
        <time>2018-04-01T14:12:32Z</time>
      </trkpt>
      <trkpt lat="49.2141" lon="3.77109">
        <ele>145</ele>
        <time>2018-04-01T14:13:32Z</time>
      </trkpt>
      <trkpt lat="49.21425" lon="3.77128">
        <ele>149</ele>
        <time>2018-04-01T14:14:32Z</time>
      </trkpt>
      <trkpt lat="49.21452" lon="3.77163">
        <ele>153</ele>
        <time>2018-04-01T14:15:32Z</time>
      </trkpt>
      <trkpt lat="49.21467" lon="3.77183">
        <ele>155</ele>
        <time>2018-04-01T14:16:32Z</time>
      </trkpt>
      <trkpt lat="49.21492" lon="3.77217">
        <ele>158</ele>
        <time>2018-04-01T14:17:32Z</time>
      </trkpt>
      <trkpt lat="49.21527" lon="3.77261">
        <ele>161</ele>
        <time>2018-04-01T14:18:32Z</time>
      </trkpt>
      <trkpt lat="49.21556" lon="3.77299">
        <ele>164</ele>
        <time>2018-04-01T14:19:32Z</time>
      </trkpt>
      <trkpt lat="49.21563" lon="3.77307">
        <ele>164</ele>
        <time>2018-04-01T14:20:32Z</time>
      </trkpt>
      <trkpt lat="49.21598" lon="3.77352">
        <ele>167</ele>
        <time>2018-04-01T14:21:32Z</time>
      </trkpt>
      <trkpt lat="49.2164" lon="3.77406">
        <ele>171</ele>
        <time>2018-04-01T14:22:32Z</time>
      </trkpt>
      <trkpt lat="49.21671" lon="3.77447">
        <ele>172</ele>
        <time>2018-04-01T14:23:32Z</time>
      </trkpt>
      <trkpt lat="49.21688" lon="3.77468">
        <ele>173</ele>
        <time>2018-04-01T14:24:32Z</time>
      </trkpt>
      <trkpt lat="49.21743" lon="3.77537">
        <ele>175</ele>
        <time>2018-04-01T14:25:32Z</time>
      </trkpt>
      <trkpt lat="49.21784" lon="3.77592">
        <ele>175</ele>
        <time>2018-04-01T14:26:32Z</time>
      </trkpt>
      <trkpt lat="49.21797" lon="3.77608">
        <ele>175</ele>
        <time>2018-04-01T14:27:32Z</time>
      </trkpt>
      <trkpt lat="49.21808" lon="3.7762">
        <ele>175</ele>
        <time>2018-04-01T14:28:32Z</time>
      </trkpt>
      <trkpt lat="49.2182" lon="3.77632">
        <ele>174</ele>
        <time>2018-04-01T14:29:32Z</time>
      </trkpt>
      <trkpt lat="49.2183" lon="3.77641">
        <ele>174</ele>
        <time>2018-04-01T14:30:32Z</time>
      </trkpt>
      <trkpt lat="49.21841" lon="3.7765">
        <ele>174</ele>
        <time>2018-04-01T14:31:32Z</time>
      </trkpt>
      <trkpt lat="49.21848" lon="3.77654">
        <ele>173</ele>
        <time>2018-04-01T14:32:32Z</time>
      </trkpt>
      <trkpt lat="49.2186" lon="3.77663">
        <ele>173</ele>
        <time>2018-04-01T14:33:32Z</time>
      </trkpt>
      <trkpt lat="49.2188" lon="3.77671">
        <ele>172</ele>
        <time>2018-04-01T14:34:32Z</time>
      </trkpt>
      <trkpt lat="49.21903" lon="3.77681">
        <ele>171</ele>
        <time>2018-04-01T14:35:32Z</time>
      </trkpt>
      <trkpt lat="49.2193" lon="3.77691">
        <ele>169</ele>
        <time>2018-04-01T14:36:32Z</time>
      </trkpt>
      <trkpt lat="49.21946" lon="3.77699">
        <ele>168</ele>
        <time>2018-04-01T14:37:32Z</time>
      </trkpt>
      <trkpt lat="49.21961" lon="3.77708">
        <ele>166</ele>
        <time>2018-04-01T14:38:32Z</time>
      </trkpt>
      <trkpt lat="49.21972" lon="3.77716">
        <ele>165</ele>
        <time>2018-04-01T14:39:32Z</time>
      </trkpt>
      <trkpt lat="49.21977" lon="3.77721">
        <ele>165</ele>
        <time>2018-04-01T14:40:32Z</time>
      </trkpt>
      <trkpt lat="49.21982" lon="3.77727">
        <ele>164</ele>
        <time>2018-04-01T14:41:32Z</time>
      </trkpt>
      <trkpt lat="49.21987" lon="3.77733">
        <ele>164</ele>
        <time>2018-04-01T14:42:32Z</time>
      </trkpt>
      <trkpt lat="49.21992" lon="3.7774">
        <ele>163</ele>
        <time>2018-04-01T14:43:32Z</time>
      </trkpt>
      <trkpt lat="49.21994" lon="3.77743">
        <ele>163</ele>
        <time>2018-04-01T14:44:32Z</time>
      </trkpt>
      <trkpt lat="49.21998" lon="3.77751">
        <ele>162</ele>
        <time>2018-04-01T14:45:32Z</time>
      </trkpt>
      <trkpt lat="49.22003" lon="3.77761">
        <ele>161</ele>
        <time>2018-04-01T14:46:32Z</time>
      </trkpt>
      <trkpt lat="49.22009" lon="3.77776">
        <ele>160</ele>
        <time>2018-04-01T14:47:32Z</time>
      </trkpt>
      <trkpt lat="49.22012" lon="3.7779">
        <ele>159</ele>
        <time>2018-04-01T14:48:32Z</time>
      </trkpt>
      <trkpt lat="49.22016" lon="3.77807">
        <ele>158</ele>
        <time>2018-04-01T14:49:32Z</time>
      </trkpt>
      <trkpt lat="49.22022" lon="3.77853">
        <ele>156</ele>
        <time>2018-04-01T14:50:32Z</time>
      </trkpt>
      <trkpt lat="49.22029" lon="3.77904">
        <ele>154</ele>
        <time>2018-04-01T14:51:32Z</time>
      </trkpt>
      <trkpt lat="49.22034" lon="3.77947">
        <ele>154</ele>
        <time>2018-04-01T14:52:32Z</time>
      </trkpt>
      <trkpt lat="49.22036" lon="3.77978">
        <ele>153</ele>
        <time>2018-04-01T14:53:32Z</time>
      </trkpt>
      <trkpt lat="49.22038" lon="3.77994">
        <ele>153</ele>
        <time>2018-04-01T14:54:32Z</time>
      </trkpt>
      <trkpt lat="49.22041" lon="3.78009">
        <ele>153</ele>
        <time>2018-04-01T14:55:32Z</time>
      </trkpt>
      <trkpt lat="49.22044" lon="3.78022">
        <ele>152</ele>
        <time>2018-04-01T14:56:32Z</time>
      </trkpt>
      <trkpt lat="49.22047" lon="3.78034">
        <ele>151</ele>
        <time>2018-04-01T14:57:32Z</time>
      </trkpt>
      <trkpt lat="49.22051" lon="3.78048">
        <ele>151</ele>
        <time>2018-04-01T14:58:32Z</time>
      </trkpt>
      <trkpt lat="49.22067" lon="3.78093">
        <ele>148</ele>
        <time>2018-04-01T14:59:32Z</time>
      </trkpt>
      <trkpt lat="49.2209" lon="3.78162">
        <ele>144</ele>
        <time>2018-04-01T15:00:32Z</time>
      </trkpt>
      <trkpt lat="49.22105" lon="3.782">
        <ele>142</ele>
        <time>2018-04-01T15:01:32Z</time>
      </trkpt>
      <trkpt lat="49.22125" lon="3.78248">
        <ele>139</ele>
        <time>2018-04-01T15:02:32Z</time>
      </trkpt>
      <trkpt lat="49.22135" lon="3.78268">
        <ele>138</ele>
        <time>2018-04-01T15:03:32Z</time>
      </trkpt>
      <trkpt lat="49.2214" lon="3.78279">
        <ele>137</ele>
        <time>2018-04-01T15:04:32Z</time>
      </trkpt>
      <trkpt lat="49.22156" lon="3.78304">
        <ele>135</ele>
        <time>2018-04-01T15:05:32Z</time>
      </trkpt>
      <trkpt lat="49.22172" lon="3.78329">
        <ele>133</ele>
        <time>2018-04-01T15:06:32Z</time>
      </trkpt>
      <trkpt lat="49.22184" lon="3.78346">
        <ele>131</ele>
        <time>2018-04-01T15:07:32Z</time>
      </trkpt>
      <trkpt lat="49.22191" lon="3.78355">
        <ele>130</ele>
        <time>2018-04-01T15:08:32Z</time>
      </trkpt>
      <trkpt lat="49.22195" lon="3.78359">
        <ele>130</ele>
        <time>2018-04-01T15:09:32Z</time>
      </trkpt>
      <trkpt lat="49.22206" lon="3.78368">
        <ele>128</ele>
        <time>2018-04-01T15:10:32Z</time>
      </trkpt>
      <trkpt lat="49.2221" lon="3.7837">
        <ele>127</ele>
        <time>2018-04-01T15:11:32Z</time>
      </trkpt>
      <trkpt lat="49.22217" lon="3.78374">
        <ele>126</ele>
        <time>2018-04-01T15:12:32Z</time>
      </trkpt>
      <trkpt lat="49.22224" lon="3.78377">
        <ele>125</ele>
        <time>2018-04-01T15:13:32Z</time>
      </trkpt>
      <trkpt lat="49.22232" lon="3.78379">
        <ele>123</ele>
        <time>2018-04-01T15:14:32Z</time>
      </trkpt>
      <trkpt lat="49.22244" lon="3.78381">
        <ele>120</ele>
        <time>2018-04-01T15:15:32Z</time>
      </trkpt>
      <trkpt lat="49.22255" lon="3.78381">
        <ele>119</ele>
        <time>2018-04-01T15:16:32Z</time>
      </trkpt>
      <trkpt lat="49.22271" lon="3.7838">
        <ele>118</ele>
        <time>2018-04-01T15:17:32Z</time>
      </trkpt>
      <trkpt lat="49.22281" lon="3.78378">
        <ele>117</ele>
        <time>2018-04-01T15:18:32Z</time>
      </trkpt>
      <trkpt lat="49.22298" lon="3.78374">
        <ele>116</ele>
        <time>2018-04-01T15:19:32Z</time>
      </trkpt>
      <trkpt lat="49.22312" lon="3.78369">
        <ele>114</ele>
        <time>2018-04-01T15:20:32Z</time>
      </trkpt>
      <trkpt lat="49.22326" lon="3.78364">
        <ele>114</ele>
        <time>2018-04-01T15:21:32Z</time>
      </trkpt>
      <trkpt lat="49.22345" lon="3.78356">
        <ele>113</ele>
        <time>2018-04-01T15:22:32Z</time>
      </trkpt>
      <trkpt lat="49.22356" lon="3.78352">
        <ele>112</ele>
        <time>2018-04-01T15:23:32Z</time>
      </trkpt>
      <trkpt lat="49.22366" lon="3.78349">
        <ele>112</ele>
        <time>2018-04-01T15:24:32Z</time>
      </trkpt>
      <trkpt lat="49.22382" lon="3.78341">
        <ele>112</ele>
        <time>2018-04-01T15:25:32Z</time>
      </trkpt>
      <trkpt lat="49.22387" lon="3.78339">
        <ele>112</ele>
        <time>2018-04-01T15:26:32Z</time>
      </trkpt>
      <trkpt lat="49.224" lon="3.78333">
        <ele>111</ele>
        <time>2018-04-01T15:27:32Z</time>
      </trkpt>
      <trkpt lat="49.22407" lon="3.78331">
        <ele>111</ele>
        <time>2018-04-01T15:28:32Z</time>
      </trkpt>
      <trkpt lat="49.22424" lon="3.78322">
        <ele>110</ele>
        <time>2018-04-01T15:29:32Z</time>
      </trkpt>
      <trkpt lat="49.22434" lon="3.7832">
        <ele>109</ele>
        <time>2018-04-01T15:30:32Z</time>
      </trkpt>
      <trkpt lat="49.22438" lon="3.7832">
        <ele>109</ele>
        <time>2018-04-01T15:31:32Z</time>
      </trkpt>
      <trkpt lat="49.22442" lon="3.78319">
        <ele>109</ele>
        <time>2018-04-01T15:32:32Z</time>
      </trkpt>
      <trkpt lat="49.22444" lon="3.7832">
        <ele>108</ele>
        <time>2018-04-01T15:33:32Z</time>
      </trkpt>
      <trkpt lat="49.22447" lon="3.7832">
        <ele>108</ele>
        <time>2018-04-01T15:34:32Z</time>
      </trkpt>
      <trkpt lat="49.22449" lon="3.7832">
        <ele>108</ele>
        <time>2018-04-01T15:35:32Z</time>
      </trkpt>
      <trkpt lat="49.22451" lon="3.78321">
        <ele>108</ele>
        <time>2018-04-01T15:36:32Z</time>
      </trkpt>
      <trkpt lat="49.22452" lon="3.78322">
        <ele>108</ele>
        <time>2018-04-01T15:37:32Z</time>
      </trkpt>
      <trkpt lat="49.22455" lon="3.78323">
        <ele>108</ele>
        <time>2018-04-01T15:38:32Z</time>
      </trkpt>
      <trkpt lat="49.22458" lon="3.78325">
        <ele>107</ele>
        <time>2018-04-01T15:39:32Z</time>
      </trkpt>
      <trkpt lat="49.22462" lon="3.78331">
        <ele>107</ele>
        <time>2018-04-01T15:40:32Z</time>
      </trkpt>
      <trkpt lat="49.22464" lon="3.78335">
        <ele>107</ele>
        <time>2018-04-01T15:41:32Z</time>
      </trkpt>
      <trkpt lat="49.22465" lon="3.78338">
        <ele>107</ele>
        <time>2018-04-01T15:42:32Z</time>
      </trkpt>
      <trkpt lat="49.22466" lon="3.78341">
        <ele>107</ele>
        <time>2018-04-01T15:43:32Z</time>
      </trkpt>
      <trkpt lat="49.22467" lon="3.78347">
        <ele>107</ele>
        <time>2018-04-01T15:44:32Z</time>
      </trkpt>
      <trkpt lat="49.22467" lon="3.7835">
        <ele>107</ele>
        <time>2018-04-01T15:45:32Z</time>
      </trkpt>
      <trkpt lat="49.22467" lon="3.78354">
        <ele>107</ele>
        <time>2018-04-01T15:46:32Z</time>
      </trkpt>
      <trkpt lat="49.22467" lon="3.78361">
        <ele>107</ele>
        <time>2018-04-01T15:47:32Z</time>
      </trkpt>
      <trkpt lat="49.22466" lon="3.78366">
        <ele>107</ele>
        <time>2018-04-01T15:48:32Z</time>
      </trkpt>
      <trkpt lat="49.22464" lon="3.78372">
        <ele>107</ele>
        <time>2018-04-01T15:49:32Z</time>
      </trkpt>
      <trkpt lat="49.22462" lon="3.78381">
        <ele>107</ele>
        <time>2018-04-01T15:50:32Z</time>
      </trkpt>
      <trkpt lat="49.22459" lon="3.78386">
        <ele>107</ele>
        <time>2018-04-01T15:51:32Z</time>
      </trkpt>
      <trkpt lat="49.22453" lon="3.78403">
        <ele>107</ele>
        <time>2018-04-01T15:52:32Z</time>
      </trkpt>
      <trkpt lat="49.22447" lon="3.78421">
        <ele>108</ele>
        <time>2018-04-01T15:53:32Z</time>
      </trkpt>
      <trkpt lat="49.22444" lon="3.78433">
        <ele>108</ele>
        <time>2018-04-01T15:54:32Z</time>
      </trkpt>
      <trkpt lat="49.22442" lon="3.78441">
        <ele>108</ele>
        <time>2018-04-01T15:55:32Z</time>
      </trkpt>
      <trkpt lat="49.22442" lon="3.78449">
        <ele>108</ele>
        <time>2018-04-01T15:56:32Z</time>
      </trkpt>
      <trkpt lat="49.22441" lon="3.78457">
        <ele>108</ele>
        <time>2018-04-01T15:57:32Z</time>
      </trkpt>
      <trkpt lat="49.22442" lon="3.78468">
        <ele>108</ele>
        <time>2018-04-01T15:58:32Z</time>
      </trkpt>
      <trkpt lat="49.22443" lon="3.78483">
        <ele>108</ele>
        <time>2018-04-01T15:59:32Z</time>
      </trkpt>
      <trkpt lat="49.22445" lon="3.785">
        <ele>108</ele>
        <time>2018-04-01T16:00:32Z</time>
      </trkpt>
      <trkpt lat="49.22447" lon="3.78512">
        <ele>108</ele>
        <time>2018-04-01T16:01:32Z</time>
      </trkpt>
      <trkpt lat="49.22448" lon="3.78521">
        <ele>108</ele>
        <time>2018-04-01T16:02:32Z</time>
      </trkpt>
      <trkpt lat="49.2245" lon="3.78528">
        <ele>108</ele>
        <time>2018-04-01T16:03:32Z</time>
      </trkpt>
      <trkpt lat="49.22454" lon="3.7854">
        <ele>109</ele>
        <time>2018-04-01T16:04:32Z</time>
      </trkpt>
      <trkpt lat="49.22458" lon="3.78548">
        <ele>109</ele>
        <time>2018-04-01T16:05:32Z</time>
      </trkpt>
      <trkpt lat="49.22462" lon="3.78554">
        <ele>109</ele>
        <time>2018-04-01T16:06:32Z</time>
      </trkpt>
      <trkpt lat="49.22466" lon="3.7856">
        <ele>109</ele>
        <time>2018-04-01T16:07:32Z</time>
      </trkpt>
      <trkpt lat="49.2247" lon="3.78565">
        <ele>109</ele>
        <time>2018-04-01T16:08:32Z</time>
      </trkpt>
      <trkpt lat="49.22475" lon="3.78571">
        <ele>109</ele>
        <time>2018-04-01T16:09:32Z</time>
      </trkpt>
      <trkpt lat="49.22481" lon="3.78577">
        <ele>109</ele>
        <time>2018-04-01T16:10:32Z</time>
      </trkpt>
      <trkpt lat="49.22489" lon="3.78584">
        <ele>109</ele>
        <time>2018-04-01T16:11:32Z</time>
      </trkpt>
      <trkpt lat="49.22498" lon="3.78592">
        <ele>108</ele>
        <time>2018-04-01T16:12:32Z</time>
      </trkpt>
      <trkpt lat="49.22511" lon="3.78602">
        <ele>108</ele>
        <time>2018-04-01T16:13:32Z</time>
      </trkpt>
      <trkpt lat="49.22521" lon="3.78611">
        <ele>108</ele>
        <time>2018-04-01T16:14:32Z</time>
      </trkpt>
      <trkpt lat="49.22523" lon="3.78612">
        <ele>108</ele>
        <time>2018-04-01T16:15:32Z</time>
      </trkpt>
      <trkpt lat="49.22563" lon="3.78643">
        <ele>106</ele>
        <time>2018-04-01T16:16:32Z</time>
      </trkpt>
      <trkpt lat="49.2261" lon="3.7868">
        <ele>105</ele>
        <time>2018-04-01T16:17:32Z</time>
      </trkpt>
      <trkpt lat="49.22674" lon="3.78731">
        <ele>103</ele>
        <time>2018-04-01T16:18:32Z</time>
      </trkpt>
      <trkpt lat="49.2271" lon="3.78759">
        <ele>102</ele>
        <time>2018-04-01T16:19:32Z</time>
      </trkpt>
      <trkpt lat="49.2272" lon="3.78767">
        <ele>102</ele>
        <time>2018-04-01T16:20:32Z</time>
      </trkpt>
      <trkpt lat="49.2273" lon="3.78772">
        <ele>102</ele>
        <time>2018-04-01T16:21:32Z</time>
      </trkpt>
      <trkpt lat="49.22741" lon="3.78778">
        <ele>102</ele>
        <time>2018-04-01T16:22:32Z</time>
      </trkpt>
      <trkpt lat="49.2275" lon="3.78781">
        <ele>102</ele>
        <time>2018-04-01T16:23:32Z</time>
      </trkpt>
      <trkpt lat="49.22759" lon="3.78782">
        <ele>102</ele>
        <time>2018-04-01T16:24:32Z</time>
      </trkpt>
      <trkpt lat="49.22768" lon="3.78781">
        <ele>102</ele>
        <time>2018-04-01T16:25:32Z</time>
      </trkpt>
      <trkpt lat="49.22779" lon="3.7878">
        <ele>101</ele>
        <time>2018-04-01T16:26:32Z</time>
      </trkpt>
      <trkpt lat="49.22817" lon="3.78774">
        <ele>100</ele>
        <time>2018-04-01T16:27:32Z</time>
      </trkpt>
      <trkpt lat="49.22876" lon="3.78763">
        <ele>98</ele>
        <time>2018-04-01T16:28:32Z</time>
      </trkpt>
      <trkpt lat="49.22925" lon="3.78757">
        <ele>98</ele>
        <time>2018-04-01T16:29:32Z</time>
      </trkpt>
      <trkpt lat="49.22937" lon="3.78757">
        <ele>97</ele>
        <time>2018-04-01T16:30:32Z</time>
      </trkpt>
      <trkpt lat="49.22947" lon="3.78758">
        <ele>96</ele>
        <time>2018-04-01T16:31:32Z</time>
      </trkpt>
      <trkpt lat="49.2296" lon="3.78764">
        <ele>95</ele>
        <time>2018-04-01T16:32:32Z</time>
      </trkpt>
      <trkpt lat="49.22968" lon="3.7877">
        <ele>95</ele>
        <time>2018-04-01T16:33:32Z</time>
      </trkpt>
      <trkpt lat="49.22973" lon="3.78775">
        <ele>95</ele>
        <time>2018-04-01T16:34:32Z</time>
      </trkpt>
      <trkpt lat="49.22979" lon="3.78781">
        <ele>94</ele>
        <time>2018-04-01T16:35:32Z</time>
      </trkpt>
      <trkpt lat="49.22986" lon="3.78789">
        <ele>94</ele>
        <time>2018-04-01T16:36:32Z</time>
      </trkpt>
      <trkpt lat="49.22996" lon="3.78803">
        <ele>94</ele>
        <time>2018-04-01T16:37:32Z</time>
      </trkpt>
      <trkpt lat="49.23014" lon="3.78823">
        <ele>94</ele>
        <time>2018-04-01T16:38:32Z</time>
      </trkpt>
      <trkpt lat="49.23029" lon="3.78838">
        <ele>94</ele>
        <time>2018-04-01T16:39:32Z</time>
      </trkpt>
      <trkpt lat="49.2304" lon="3.7885">
        <ele>94</ele>
        <time>2018-04-01T16:40:32Z</time>
      </trkpt>
      <trkpt lat="49.23047" lon="3.78856">
        <ele>94</ele>
        <time>2018-04-01T16:41:32Z</time>
      </trkpt>
      <trkpt lat="49.23055" lon="3.78862">
        <ele>93</ele>
        <time>2018-04-01T16:42:32Z</time>
      </trkpt>
      <trkpt lat="49.23064" lon="3.78868">
        <ele>93</ele>
        <time>2018-04-01T16:43:32Z</time>
      </trkpt>
      <trkpt lat="49.23074" lon="3.78873">
        <ele>93</ele>
        <time>2018-04-01T16:44:32Z</time>
      </trkpt>
      <trkpt lat="49.23097" lon="3.78884">
        <ele>91</ele>
        <time>2018-04-01T16:45:32Z</time>
      </trkpt>
      <trkpt lat="49.23122" lon="3.78895">
        <ele>89</ele>
        <time>2018-04-01T16:46:32Z</time>
      </trkpt>
      <trkpt lat="49.23139" lon="3.78904">
        <ele>88</ele>
        <time>2018-04-01T16:47:32Z</time>
      </trkpt>
      <trkpt lat="49.2315" lon="3.7891">
        <ele>87</ele>
        <time>2018-04-01T16:48:32Z</time>
      </trkpt>
      <trkpt lat="49.2316" lon="3.78916">
        <ele>87</ele>
        <time>2018-04-01T16:49:32Z</time>
      </trkpt>
      <trkpt lat="49.23167" lon="3.7892">
        <ele>86</ele>
        <time>2018-04-01T16:50:32Z</time>
      </trkpt>
      <trkpt lat="49.23167" lon="3.7892">
        <ele>86</ele>
        <time>2018-04-01T16:51:32Z</time>
      </trkpt>
      <trkpt lat="49.23173" lon="3.78921">
        <ele>86</ele>
        <time>2018-04-01T16:52:32Z</time>
      </trkpt>
      <trkpt lat="49.23176" lon="3.78922">
        <ele>86</ele>
        <time>2018-04-01T16:53:32Z</time>
      </trkpt>
      <trkpt lat="49.23182" lon="3.78923">
        <ele>86</ele>
        <time>2018-04-01T16:54:32Z</time>
      </trkpt>
      <trkpt lat="49.2319" lon="3.78926">
        <ele>86</ele>
        <time>2018-04-01T16:55:32Z</time>
      </trkpt>
      <trkpt lat="49.23201" lon="3.78931">
        <ele>86</ele>
        <time>2018-04-01T16:56:32Z</time>
      </trkpt>
      <trkpt lat="49.23231" lon="3.78946">
        <ele>85</ele>
        <time>2018-04-01T16:57:32Z</time>
      </trkpt>
      <trkpt lat="49.23239" lon="3.78951">
        <ele>85</ele>
        <time>2018-04-01T16:58:32Z</time>
      </trkpt>
      <trkpt lat="49.23249" lon="3.78958">
        <ele>85</ele>
        <time>2018-04-01T16:59:32Z</time>
      </trkpt>
      <trkpt lat="49.23258" lon="3.78965">
        <ele>85</ele>
        <time>2018-04-01T17:00:32Z</time>
      </trkpt>
      <trkpt lat="49.2327" lon="3.78975">
        <ele>85</ele>
        <time>2018-04-01T17:01:32Z</time>
      </trkpt>
      <trkpt lat="49.23302" lon="3.79002">
        <ele>86</ele>
        <time>2018-04-01T17:02:32Z</time>
      </trkpt>
      <trkpt lat="49.23302" lon="3.79002">
        <ele>86</ele>
        <time>2018-04-01T17:03:32Z</time>
      </trkpt>
      <trkpt lat="49.23344" lon="3.79038">
        <ele>86</ele>
        <time>2018-04-01T17:04:32Z</time>
      </trkpt>
      <trkpt lat="49.23374" lon="3.79064">
        <ele>87</ele>
        <time>2018-04-01T17:05:32Z</time>
      </trkpt>
      <trkpt lat="49.23411" lon="3.79097">
        <ele>88</ele>
        <time>2018-04-01T17:06:32Z</time>
      </trkpt>
      <trkpt lat="49.23428" lon="3.79112">
        <ele>89</ele>
        <time>2018-04-01T17:07:32Z</time>
      </trkpt>
      <trkpt lat="49.23431" lon="3.79114">
        <ele>89</ele>
        <time>2018-04-01T17:08:32Z</time>
      </trkpt>
      <trkpt lat="49.23434" lon="3.79115">
        <ele>89</ele>
        <time>2018-04-01T17:09:32Z</time>
      </trkpt>
      <trkpt lat="49.23437" lon="3.79114">
        <ele>89</ele>
        <time>2018-04-01T17:10:32Z</time>
      </trkpt>
      <trkpt lat="49.2344" lon="3.79113">
        <ele>89</ele>
        <time>2018-04-01T17:11:32Z</time>
      </trkpt>
      <trkpt lat="49.23442" lon="3.79112">
        <ele>89</ele>
        <time>2018-04-01T17:12:32Z</time>
      </trkpt>
      <trkpt lat="49.23442" lon="3.79112">
        <ele>89</ele>
        <time>2018-04-01T17:13:32Z</time>
      </trkpt>
      <trkpt lat="49.23448" lon="3.79133">
        <ele>90</ele>
        <time>2018-04-01T17:14:32Z</time>
      </trkpt>
      <trkpt lat="49.23454" lon="3.79151">
        <ele>91</ele>
        <time>2018-04-01T17:15:32Z</time>
      </trkpt>
      <trkpt lat="49.23461" lon="3.79166">
        <ele>91</ele>
        <time>2018-04-01T17:16:32Z</time>
      </trkpt>
      <trkpt lat="49.23464" lon="3.79173">
        <ele>91</ele>
        <time>2018-04-01T17:17:32Z</time>
      </trkpt>
      <trkpt lat="49.23466" lon="3.79186">
        <ele>92</ele>
        <time>2018-04-01T17:18:32Z</time>
      </trkpt>
      <trkpt lat="49.23467" lon="3.79195">
        <ele>92</ele>
        <time>2018-04-01T17:19:32Z</time>
      </trkpt>
      <trkpt lat="49.23467" lon="3.79201">
        <ele>92</ele>
        <time>2018-04-01T17:20:32Z</time>
      </trkpt>
      <trkpt lat="49.23466" lon="3.79207">
        <ele>92</ele>
        <time>2018-04-01T17:21:32Z</time>
      </trkpt>
      <trkpt lat="49.23465" lon="3.79217">
        <ele>92</ele>
        <time>2018-04-01T17:22:32Z</time>
      </trkpt>
      <trkpt lat="49.23463" lon="3.79227">
        <ele>93</ele>
        <time>2018-04-01T17:23:32Z</time>
      </trkpt>
      <trkpt lat="49.23461" lon="3.79236">
        <ele>93</ele>
        <time>2018-04-01T17:24:32Z</time>
      </trkpt>
      <trkpt lat="49.23459" lon="3.79244">
        <ele>93</ele>
        <time>2018-04-01T17:25:32Z</time>
      </trkpt>
      <trkpt lat="49.23456" lon="3.79252">
        <ele>93</ele>
        <time>2018-04-01T17:26:32Z</time>
      </trkpt>
      <trkpt lat="49.23453" lon="3.79259">
        <ele>93</ele>
        <time>2018-04-01T17:27:32Z</time>
      </trkpt>
      <trkpt lat="49.23449" lon="3.79268">
        <ele>93</ele>
        <time>2018-04-01T17:28:32Z</time>
      </trkpt>
      <trkpt lat="49.23446" lon="3.79272">
        <ele>93</ele>
        <time>2018-04-01T17:29:32Z</time>
      </trkpt>
      <trkpt lat="49.23436" lon="3.79286">
        <ele>92</ele>
        <time>2018-04-01T17:30:32Z</time>
      </trkpt>
      <trkpt lat="49.2343" lon="3.79295">
        <ele>92</ele>
        <time>2018-04-01T17:31:32Z</time>
      </trkpt>
      <trkpt lat="49.23426" lon="3.79302">
        <ele>92</ele>
        <time>2018-04-01T17:32:32Z</time>
      </trkpt>
      <trkpt lat="49.23422" lon="3.79309">
        <ele>92</ele>
        <time>2018-04-01T17:33:32Z</time>
      </trkpt>
      <trkpt lat="49.23418" lon="3.79319">
        <ele>92</ele>
        <time>2018-04-01T17:34:32Z</time>
      </trkpt>
      <trkpt lat="49.23415" lon="3.79329">
        <ele>92</ele>
        <time>2018-04-01T17:35:32Z</time>
      </trkpt>
      <trkpt lat="49.23412" lon="3.79337">
        <ele>92</ele>
        <time>2018-04-01T17:36:32Z</time>
      </trkpt>
      <trkpt lat="49.23409" lon="3.79347">
        <ele>92</ele>
        <time>2018-04-01T17:37:32Z</time>
      </trkpt>
      <trkpt lat="49.23405" lon="3.79361">
        <ele>92</ele>
        <time>2018-04-01T17:38:32Z</time>
      </trkpt>
      <trkpt lat="49.234" lon="3.79378">
        <ele>92</ele>
        <time>2018-04-01T17:39:32Z</time>
      </trkpt>
      <trkpt lat="49.23397" lon="3.79392">
        <ele>92</ele>
        <time>2018-04-01T17:40:32Z</time>
      </trkpt>
      <trkpt lat="49.23393" lon="3.79404">
        <ele>92</ele>
        <time>2018-04-01T17:41:32Z</time>
      </trkpt>
      <trkpt lat="49.23389" lon="3.79416">
        <ele>92</ele>
        <time>2018-04-01T17:42:32Z</time>
      </trkpt>
      <trkpt lat="49.23384" lon="3.79428">
        <ele>92</ele>
        <time>2018-04-01T17:43:32Z</time>
      </trkpt>
      <trkpt lat="49.23381" lon="3.79437">
        <ele>92</ele>
        <time>2018-04-01T17:44:32Z</time>
      </trkpt>
      <trkpt lat="49.23374" lon="3.79453">
        <ele>92</ele>
        <time>2018-04-01T17:45:32Z</time>
      </trkpt>
      <trkpt lat="49.23362" lon="3.79478">
        <ele>92</ele>
        <time>2018-04-01T17:46:32Z</time>
      </trkpt>
      <trkpt lat="49.23348" lon="3.79509">
        <ele>92</ele>
        <time>2018-04-01T17:47:32Z</time>
      </trkpt>
      <trkpt lat="49.23339" lon="3.79527">
        <ele>91</ele>
        <time>2018-04-01T17:48:32Z</time>
      </trkpt>
      <trkpt lat="49.23326" lon="3.79556">
        <ele>91</ele>
        <time>2018-04-01T17:49:32Z</time>
      </trkpt>
      <trkpt lat="49.23318" lon="3.79577">
        <ele>91</ele>
        <time>2018-04-01T17:50:32Z</time>
      </trkpt>
      <trkpt lat="49.23312" lon="3.79596">
        <ele>91</ele>
        <time>2018-04-01T17:51:32Z</time>
      </trkpt>
      <trkpt lat="49.23309" lon="3.79609">
        <ele>91</ele>
        <time>2018-04-01T17:52:32Z</time>
      </trkpt>
      <trkpt lat="49.23305" lon="3.79624">
        <ele>91</ele>
        <time>2018-04-01T17:53:32Z</time>
      </trkpt>
      <trkpt lat="49.23301" lon="3.79646">
        <ele>91</ele>
        <time>2018-04-01T17:54:32Z</time>
      </trkpt>
      <trkpt lat="49.233" lon="3.79657">
        <ele>91</ele>
        <time>2018-04-01T17:55:32Z</time>
      </trkpt>
      <trkpt lat="49.23299" lon="3.79661">
        <ele>92</ele>
        <time>2018-04-01T17:56:32Z</time>
      </trkpt>
      <trkpt lat="49.23299" lon="3.79665">
        <ele>92</ele>
        <time>2018-04-01T17:57:32Z</time>
      </trkpt>
      <trkpt lat="49.23299" lon="3.79672">
        <ele>92</ele>
        <time>2018-04-01T17:58:32Z</time>
      </trkpt>
      <trkpt lat="49.23299" lon="3.79681">
        <ele>92</ele>
        <time>2018-04-01T17:59:32Z</time>
      </trkpt>
      <trkpt lat="49.233" lon="3.79693">
        <ele>92</ele>
        <time>2018-04-01T18:00:32Z</time>
      </trkpt>
      <trkpt lat="49.23303" lon="3.79716">
        <ele>93</ele>
        <time>2018-04-01T18:01:32Z</time>
      </trkpt>
      <trkpt lat="49.23308" lon="3.79751">
        <ele>94</ele>
        <time>2018-04-01T18:02:32Z</time>
      </trkpt>
      <trkpt lat="49.23311" lon="3.79777">
        <ele>95</ele>
        <time>2018-04-01T18:03:32Z</time>
      </trkpt>
      <trkpt lat="49.23315" lon="3.79807">
        <ele>95</ele>
        <time>2018-04-01T18:04:32Z</time>
      </trkpt>
      <trkpt lat="49.23318" lon="3.79829">
        <ele>95</ele>
        <time>2018-04-01T18:05:32Z</time>
      </trkpt>
      <trkpt lat="49.23319" lon="3.79844">
        <ele>95</ele>
        <time>2018-04-01T18:06:32Z</time>
      </trkpt>
      <trkpt lat="49.2332" lon="3.79853">
        <ele>95</ele>
        <time>2018-04-01T18:07:32Z</time>
      </trkpt>
      <trkpt lat="49.23321" lon="3.79863">
        <ele>95</ele>
        <time>2018-04-01T18:08:32Z</time>
      </trkpt>
      <trkpt lat="49.23321" lon="3.79872">
        <ele>95</ele>
        <time>2018-04-01T18:09:32Z</time>
      </trkpt>
      <trkpt lat="49.23321" lon="3.79892">
        <ele>95</ele>
        <time>2018-04-01T18:10:32Z</time>
      </trkpt>
      <trkpt lat="49.23319" lon="3.79936">
        <ele>95</ele>
        <time>2018-04-01T18:11:32Z</time>
      </trkpt>
      <trkpt lat="49.23317" lon="3.79989">
        <ele>94</ele>
        <time>2018-04-01T18:12:32Z</time>
      </trkpt>
      <trkpt lat="49.23316" lon="3.79997">
        <ele>94</ele>
        <time>2018-04-01T18:13:32Z</time>
      </trkpt>
      <trkpt lat="49.23313" lon="3.80066">
        <ele>93</ele>
        <time>2018-04-01T18:14:32Z</time>
      </trkpt>
      <trkpt lat="49.2331" lon="3.8014">
        <ele>93</ele>
        <time>2018-04-01T18:15:32Z</time>
      </trkpt>
      <trkpt lat="49.23307" lon="3.80221">
        <ele>92</ele>
        <time>2018-04-01T18:16:32Z</time>
      </trkpt>
      <trkpt lat="49.23301" lon="3.80336">
        <ele>95</ele>
        <time>2018-04-01T18:17:32Z</time>
      </trkpt>
      <trkpt lat="49.23297" lon="3.80421">
        <ele>97</ele>
        <time>2018-04-01T18:18:32Z</time>
      </trkpt>
      <trkpt lat="49.23291" lon="3.80551">
        <ele>99</ele>
        <time>2018-04-01T18:19:32Z</time>
      </trkpt>
      <trkpt lat="49.23285" lon="3.8069">
        <ele>99</ele>
        <time>2018-04-01T18:20:32Z</time>
      </trkpt>
      <trkpt lat="49.23283" lon="3.80736">
        <ele>99</ele>
        <time>2018-04-01T18:21:32Z</time>
      </trkpt>
      <trkpt lat="49.23283" lon="3.80757">
        <ele>99</ele>
        <time>2018-04-01T18:22:32Z</time>
      </trkpt>
      <trkpt lat="49.23284" lon="3.80769">
        <ele>99</ele>
        <time>2018-04-01T18:23:32Z</time>
      </trkpt>
      <trkpt lat="49.23285" lon="3.80781">
        <ele>99</ele>
        <time>2018-04-01T18:24:32Z</time>
      </trkpt>
      <trkpt lat="49.23288" lon="3.80793">
        <ele>100</ele>
        <time>2018-04-01T18:25:32Z</time>
      </trkpt>
      <trkpt lat="49.2329" lon="3.80806">
        <ele>100</ele>
        <time>2018-04-01T18:26:32Z</time>
      </trkpt>
      <trkpt lat="49.23294" lon="3.8082">
        <ele>100</ele>
        <time>2018-04-01T18:27:32Z</time>
      </trkpt>
      <trkpt lat="49.2331" lon="3.80868">
        <ele>102</ele>
        <time>2018-04-01T18:28:32Z</time>
      </trkpt>
      <trkpt lat="49.2334" lon="3.80955">
        <ele>102</ele>
        <time>2018-04-01T18:29:32Z</time>
      </trkpt>
      <trkpt lat="49.23367" lon="3.81028">
        <ele>102</ele>
        <time>2018-04-01T18:30:32Z</time>
      </trkpt>
      <trkpt lat="49.23393" lon="3.81097">
        <ele>104</ele>
        <time>2018-04-01T18:31:32Z</time>
      </trkpt>
      <trkpt lat="49.23402" lon="3.81116">
        <ele>104</ele>
        <time>2018-04-01T18:32:32Z</time>
      </trkpt>
      <trkpt lat="49.23417" lon="3.81155">
        <ele>104</ele>
        <time>2018-04-01T18:33:32Z</time>
      </trkpt>
      <trkpt lat="49.23427" lon="3.8118">
        <ele>104</ele>
        <time>2018-04-01T18:34:32Z</time>
      </trkpt>
      <trkpt lat="49.23433" lon="3.81196">
        <ele>104</ele>
        <time>2018-04-01T18:35:32Z</time>
      </trkpt>
      <trkpt lat="49.23446" lon="3.81229">
        <ele>104</ele>
        <time>2018-04-01T18:36:32Z</time>
      </trkpt>
      <trkpt lat="49.23475" lon="3.813">
        <ele>102</ele>
        <time>2018-04-01T18:37:32Z</time>
      </trkpt>
      <trkpt lat="49.23483" lon="3.8132">
        <ele>101</ele>
        <time>2018-04-01T18:38:32Z</time>
      </trkpt>
      <trkpt lat="49.23491" lon="3.81343">
        <ele>100</ele>
        <time>2018-04-01T18:39:32Z</time>
      </trkpt>
      <trkpt lat="49.23527" lon="3.81432">
        <ele>99</ele>
        <time>2018-04-01T18:40:32Z</time>
      </trkpt>
      <trkpt lat="49.23544" lon="3.81474">
        <ele>100</ele>
        <time>2018-04-01T18:41:32Z</time>
      </trkpt>
      <trkpt lat="49.23551" lon="3.8149">
        <ele>101</ele>
        <time>2018-04-01T18:42:32Z</time>
      </trkpt>
      <trkpt lat="49.23559" lon="3.81507">
        <ele>101</ele>
        <time>2018-04-01T18:43:32Z</time>
      </trkpt>
      <trkpt lat="49.23567" lon="3.8152">
        <ele>102</ele>
        <time>2018-04-01T18:44:32Z</time>
      </trkpt>
      <trkpt lat="49.23576" lon="3.81534">
        <ele>102</ele>
        <time>2018-04-01T18:45:32Z</time>
      </trkpt>
      <trkpt lat="49.236" lon="3.81568">
        <ele>102</ele>
        <time>2018-04-01T18:46:32Z</time>
      </trkpt>
      <trkpt lat="49.23632" lon="3.81616">
        <ele>103</ele>
        <time>2018-04-01T18:47:32Z</time>
      </trkpt>
      <trkpt lat="49.23665" lon="3.81662">
        <ele>103</ele>
        <time>2018-04-01T18:48:32Z</time>
      </trkpt>
      <trkpt lat="49.23708" lon="3.81726">
        <ele>104</ele>
        <time>2018-04-01T18:49:32Z</time>
      </trkpt>
      <trkpt lat="49.23739" lon="3.81771">
        <ele>105</ele>
        <time>2018-04-01T18:50:32Z</time>
      </trkpt>
      <trkpt lat="49.23771" lon="3.81817">
        <ele>107</ele>
        <time>2018-04-01T18:51:32Z</time>
      </trkpt>
      <trkpt lat="49.23798" lon="3.81858">
        <ele>109</ele>
        <time>2018-04-01T18:52:32Z</time>
      </trkpt>
      <trkpt lat="49.23805" lon="3.81867">
        <ele>109</ele>
        <time>2018-04-01T18:53:32Z</time>
      </trkpt>
      <trkpt lat="49.23807" lon="3.81871">
        <ele>109</ele>
        <time>2018-04-01T18:54:32Z</time>
      </trkpt>
      <trkpt lat="49.23821" lon="3.81897">
        <ele>108</ele>
        <time>2018-04-01T18:55:32Z</time>
      </trkpt>
      <trkpt lat="49.2382" lon="3.81899">
        <ele>108</ele>
        <time>2018-04-01T18:56:32Z</time>
      </trkpt>
      <trkpt lat="49.2382" lon="3.81901">
        <ele>108</ele>
        <time>2018-04-01T18:57:32Z</time>
      </trkpt>
      <trkpt lat="49.2382" lon="3.81904">
        <ele>108</ele>
        <time>2018-04-01T18:58:32Z</time>
      </trkpt>
      <trkpt lat="49.2382" lon="3.81907">
        <ele>108</ele>
        <time>2018-04-01T18:59:32Z</time>
      </trkpt>
      <trkpt lat="49.23821" lon="3.8191">
        <ele>108</ele>
        <time>2018-04-01T19:00:32Z</time>
      </trkpt>
      <trkpt lat="49.23823" lon="3.81911">
        <ele>108</ele>
        <time>2018-04-01T19:01:32Z</time>
      </trkpt>
      <trkpt lat="49.23825" lon="3.81912">
        <ele>108</ele>
        <time>2018-04-01T19:02:32Z</time>
      </trkpt>
      <trkpt lat="49.23827" lon="3.81911">
        <ele>108</ele>
        <time>2018-04-01T19:03:32Z</time>
      </trkpt>
      <trkpt lat="49.23829" lon="3.8191">
        <ele>108</ele>
        <time>2018-04-01T19:04:32Z</time>
      </trkpt>
      <trkpt lat="49.23839" lon="3.81922">
        <ele>109</ele>
        <time>2018-04-01T19:05:32Z</time>
      </trkpt>
      <trkpt lat="49.23848" lon="3.81934">
        <ele>109</ele>
        <time>2018-04-01T19:06:32Z</time>
      </trkpt>
      <trkpt lat="49.2385" lon="3.81937">
        <ele>109</ele>
        <time>2018-04-01T19:07:32Z</time>
      </trkpt>
      <trkpt lat="49.2387" lon="3.81968">
        <ele>111</ele>
        <time>2018-04-01T19:08:32Z</time>
      </trkpt>
      <trkpt lat="49.23898" lon="3.82008">
        <ele>112</ele>
        <time>2018-04-01T19:09:32Z</time>
      </trkpt>
      <trkpt lat="49.23929" lon="3.82054">
        <ele>111</ele>
        <time>2018-04-01T19:10:32Z</time>
      </trkpt>
      <trkpt lat="49.23937" lon="3.82065">
        <ele>111</ele>
        <time>2018-04-01T19:11:32Z</time>
      </trkpt>
      <trkpt lat="49.23949" lon="3.8208">
        <ele>110</ele>
        <time>2018-04-01T19:12:32Z</time>
      </trkpt>
      <trkpt lat="49.23964" lon="3.82091">
        <ele>110</ele>
        <time>2018-04-01T19:13:32Z</time>
      </trkpt>
      <trkpt lat="49.23985" lon="3.82109">
        <ele>110</ele>
        <time>2018-04-01T19:14:32Z</time>
      </trkpt>
      <trkpt lat="49.23994" lon="3.82117">
        <ele>110</ele>
        <time>2018-04-01T19:15:32Z</time>
      </trkpt>
      <trkpt lat="49.24002" lon="3.82126">
        <ele>111</ele>
        <time>2018-04-01T19:16:32Z</time>
      </trkpt>
      <trkpt lat="49.24007" lon="3.82132">
        <ele>111</ele>
        <time>2018-04-01T19:17:32Z</time>
      </trkpt>
      <trkpt lat="49.24011" lon="3.82139">
        <ele>111</ele>
        <time>2018-04-01T19:18:32Z</time>
      </trkpt>
      <trkpt lat="49.24015" lon="3.82146">
        <ele>111</ele>
        <time>2018-04-01T19:19:32Z</time>
      </trkpt>
      <trkpt lat="49.24017" lon="3.82152">
        <ele>111</ele>
        <time>2018-04-01T19:20:32Z</time>
      </trkpt>
      <trkpt lat="49.24019" lon="3.82159">
        <ele>111</ele>
        <time>2018-04-01T19:21:32Z</time>
      </trkpt>
      <trkpt lat="49.24025" lon="3.82176">
        <ele>111</ele>
        <time>2018-04-01T19:22:32Z</time>
      </trkpt>
      <trkpt lat="49.24028" lon="3.82186">
        <ele>111</ele>
        <time>2018-04-01T19:23:32Z</time>
      </trkpt>
      <trkpt lat="49.24033" lon="3.82207">
        <ele>112</ele>
        <time>2018-04-01T19:24:32Z</time>
      </trkpt>
      <trkpt lat="49.24036" lon="3.8222">
        <ele>112</ele>
        <time>2018-04-01T19:25:32Z</time>
      </trkpt>
      <trkpt lat="49.24038" lon="3.82232">
        <ele>112</ele>
        <time>2018-04-01T19:26:32Z</time>
      </trkpt>
      <trkpt lat="49.24039" lon="3.82234">
        <ele>113</ele>
        <time>2018-04-01T19:27:32Z</time>
      </trkpt>
      <trkpt lat="49.24041" lon="3.82252">
        <ele>113</ele>
        <time>2018-04-01T19:28:32Z</time>
      </trkpt>
      <trkpt lat="49.24044" lon="3.82266">
        <ele>114</ele>
        <time>2018-04-01T19:29:32Z</time>
      </trkpt>
      <trkpt lat="49.24046" lon="3.82281">
        <ele>114</ele>
        <time>2018-04-01T19:30:32Z</time>
      </trkpt>
      <trkpt lat="49.24046" lon="3.82288">
        <ele>114</ele>
        <time>2018-04-01T19:31:32Z</time>
      </trkpt>
      <trkpt lat="49.24048" lon="3.82296">
        <ele>115</ele>
        <time>2018-04-01T19:32:32Z</time>
      </trkpt>
      <trkpt lat="49.24049" lon="3.82305">
        <ele>115</ele>
        <time>2018-04-01T19:33:32Z</time>
      </trkpt>
      <trkpt lat="49.2405" lon="3.82315">
        <ele>115</ele>
        <time>2018-04-01T19:34:32Z</time>
      </trkpt>
      <trkpt lat="49.2405" lon="3.82326">
        <ele>116</ele>
        <time>2018-04-01T19:35:32Z</time>
      </trkpt>
      <trkpt lat="49.2405" lon="3.82337">
        <ele>116</ele>
        <time>2018-04-01T19:36:32Z</time>
      </trkpt>
      <trkpt lat="49.2405" lon="3.82345">
        <ele>116</ele>
        <time>2018-04-01T19:37:32Z</time>
      </trkpt>
      <trkpt lat="49.2405" lon="3.82351">
        <ele>116</ele>
        <time>2018-04-01T19:38:32Z</time>
      </trkpt>
      <trkpt lat="49.2405" lon="3.82357">
        <ele>116</ele>
        <time>2018-04-01T19:39:32Z</time>
      </trkpt>
      <trkpt lat="49.2405" lon="3.82368">
        <ele>116</ele>
        <time>2018-04-01T19:40:32Z</time>
      </trkpt>
      <trkpt lat="49.2405" lon="3.82382">
        <ele>117</ele>
        <time>2018-04-01T19:41:32Z</time>
      </trkpt>
      <trkpt lat="49.24052" lon="3.82415">
        <ele>117</ele>
        <time>2018-04-01T19:42:32Z</time>
      </trkpt>
      <trkpt lat="49.24053" lon="3.82422">
        <ele>117</ele>
        <time>2018-04-01T19:43:32Z</time>
      </trkpt>
      <trkpt lat="49.24053" lon="3.82434">
        <ele>117</ele>
        <time>2018-04-01T19:44:32Z</time>
      </trkpt>
      <trkpt lat="49.24054" lon="3.82443">
        <ele>117</ele>
        <time>2018-04-01T19:45:32Z</time>
      </trkpt>
      <trkpt lat="49.24054" lon="3.82448">
        <ele>117</ele>
        <time>2018-04-01T19:46:32Z</time>
      </trkpt>
      <trkpt lat="49.24055" lon="3.8246">
        <ele>116</ele>
        <time>2018-04-01T19:47:32Z</time>
      </trkpt>
      <trkpt lat="49.24056" lon="3.82473">
        <ele>116</ele>
        <time>2018-04-01T19:48:32Z</time>
      </trkpt>
      <trkpt lat="49.24057" lon="3.8248">
        <ele>116</ele>
        <time>2018-04-01T19:49:32Z</time>
      </trkpt>
      <trkpt lat="49.24058" lon="3.82487">
        <ele>116</ele>
        <time>2018-04-01T19:50:32Z</time>
      </trkpt>
      <trkpt lat="49.24059" lon="3.82495">
        <ele>115</ele>
        <time>2018-04-01T19:51:32Z</time>
      </trkpt>
      <trkpt lat="49.24059" lon="3.82497">
        <ele>115</ele>
        <time>2018-04-01T19:52:32Z</time>
      </trkpt>
      <trkpt lat="49.24061" lon="3.82506">
        <ele>115</ele>
        <time>2018-04-01T19:53:32Z</time>
      </trkpt>
      <trkpt lat="49.24065" lon="3.8252">
        <ele>115</ele>
        <time>2018-04-01T19:54:32Z</time>
      </trkpt>
      <trkpt lat="49.24071" lon="3.82537">
        <ele>114</ele>
        <time>2018-04-01T19:55:32Z</time>
      </trkpt>
      <trkpt lat="49.24078" lon="3.82553">
        <ele>114</ele>
        <time>2018-04-01T19:56:32Z</time>
      </trkpt>
      <trkpt lat="49.24085" lon="3.82571">
        <ele>114</ele>
        <time>2018-04-01T19:57:32Z</time>
      </trkpt>
      <trkpt lat="49.24087" lon="3.82576">
        <ele>114</ele>
        <time>2018-04-01T19:58:32Z</time>
      </trkpt>
      <trkpt lat="49.24098" lon="3.82602">
        <ele>113</ele>
        <time>2018-04-01T19:59:32Z</time>
      </trkpt>
      <trkpt lat="49.24107" lon="3.82619">
        <ele>113</ele>
        <time>2018-04-01T20:00:32Z</time>
      </trkpt>
      <trkpt lat="49.24114" lon="3.82633">
        <ele>113</ele>
        <time>2018-04-01T20:01:32Z</time>
      </trkpt>
      <trkpt lat="49.24123" lon="3.82649">
        <ele>113</ele>
        <time>2018-04-01T20:02:32Z</time>
      </trkpt>
      <trkpt lat="49.24129" lon="3.82662">
        <ele>112</ele>
        <time>2018-04-01T20:03:32Z</time>
      </trkpt>
      <trkpt lat="49.24133" lon="3.8267">
        <ele>113</ele>
        <time>2018-04-01T20:04:32Z</time>
      </trkpt>
      <trkpt lat="49.24138" lon="3.82682">
        <ele>113</ele>
        <time>2018-04-01T20:05:32Z</time>
      </trkpt>
      <trkpt lat="49.24142" lon="3.82691">
        <ele>113</ele>
        <time>2018-04-01T20:06:32Z</time>
      </trkpt>
      <trkpt lat="49.24145" lon="3.82702">
        <ele>113</ele>
        <time>2018-04-01T20:07:32Z</time>
      </trkpt>
      <trkpt lat="49.24147" lon="3.82713">
        <ele>113</ele>
        <time>2018-04-01T20:08:32Z</time>
      </trkpt>
      <trkpt lat="49.24149" lon="3.82724">
        <ele>112</ele>
        <time>2018-04-01T20:09:32Z</time>
      </trkpt>
      <trkpt lat="49.24151" lon="3.82736">
        <ele>112</ele>
        <time>2018-04-01T20:10:32Z</time>
      </trkpt>
      <trkpt lat="49.24152" lon="3.82747">
        <ele>112</ele>
        <time>2018-04-01T20:11:32Z</time>
      </trkpt>
      <trkpt lat="49.24152" lon="3.82763">
        <ele>112</ele>
        <time>2018-04-01T20:12:32Z</time>
      </trkpt>
      <trkpt lat="49.24152" lon="3.82782">
        <ele>112</ele>
        <time>2018-04-01T20:13:32Z</time>
      </trkpt>
      <trkpt lat="49.24152" lon="3.82802">
        <ele>112</ele>
        <time>2018-04-01T20:14:32Z</time>
      </trkpt>
      <trkpt lat="49.24153" lon="3.82829">
        <ele>111</ele>
        <time>2018-04-01T20:15:32Z</time>
      </trkpt>
      <trkpt lat="49.24154" lon="3.82846">
        <ele>111</ele>
        <time>2018-04-01T20:16:32Z</time>
      </trkpt>
      <trkpt lat="49.24156" lon="3.82861">
        <ele>112</ele>
        <time>2018-04-01T20:17:32Z</time>
      </trkpt>
      <trkpt lat="49.24158" lon="3.82874">
        <ele>112</ele>
        <time>2018-04-01T20:18:32Z</time>
      </trkpt>
      <trkpt lat="49.24162" lon="3.8289">
        <ele>112</ele>
        <time>2018-04-01T20:19:32Z</time>
      </trkpt>
      <trkpt lat="49.24166" lon="3.82905">
        <ele>112</ele>
        <time>2018-04-01T20:20:32Z</time>
      </trkpt>
      <trkpt lat="49.24174" lon="3.82925">
        <ele>113</ele>
        <time>2018-04-01T20:21:32Z</time>
      </trkpt>
      <trkpt lat="49.24184" lon="3.82947">
        <ele>115</ele>
        <time>2018-04-01T20:22:32Z</time>
      </trkpt>
      <trkpt lat="49.24195" lon="3.82969">
        <ele>116</ele>
        <time>2018-04-01T20:23:32Z</time>
      </trkpt>
      <trkpt lat="49.24216" lon="3.83011">
        <ele>119</ele>
        <time>2018-04-01T20:24:32Z</time>
      </trkpt>
      <trkpt lat="49.24236" lon="3.83052">
        <ele>123</ele>
        <time>2018-04-01T20:25:32Z</time>
      </trkpt>
      <trkpt lat="49.24261" lon="3.83101">
        <ele>126</ele>
        <time>2018-04-01T20:26:32Z</time>
      </trkpt>
      <trkpt lat="49.2429" lon="3.83158">
        <ele>128</ele>
        <time>2018-04-01T20:27:32Z</time>
      </trkpt>
      <trkpt lat="49.2431" lon="3.83197">
        <ele>131</ele>
        <time>2018-04-01T20:28:32Z</time>
      </trkpt>
      <trkpt lat="49.24344" lon="3.83265">
        <ele>135</ele>
        <time>2018-04-01T20:29:32Z</time>
      </trkpt>
      <trkpt lat="49.24367" lon="3.8331">
        <ele>138</ele>
        <time>2018-04-01T20:30:32Z</time>
      </trkpt>
      <trkpt lat="49.24388" lon="3.83349">
        <ele>140</ele>
        <time>2018-04-01T20:31:32Z</time>
      </trkpt>
      <trkpt lat="49.24402" lon="3.83372">
        <ele>142</ele>
        <time>2018-04-01T20:32:32Z</time>
      </trkpt>
      <trkpt lat="49.24414" lon="3.8339">
        <ele>143</ele>
        <time>2018-04-01T20:33:32Z</time>
      </trkpt>
      <trkpt lat="49.24439" lon="3.83424">
        <ele>144</ele>
        <time>2018-04-01T20:34:32Z</time>
      </trkpt>
      <trkpt lat="49.24468" lon="3.8346">
        <ele>146</ele>
        <time>2018-04-01T20:35:32Z</time>
      </trkpt>
      <trkpt lat="49.24507" lon="3.83509">
        <ele>150</ele>
        <time>2018-04-01T20:36:32Z</time>
      </trkpt>
      <trkpt lat="49.24524" lon="3.8353">
        <ele>151</ele>
        <time>2018-04-01T20:37:32Z</time>
      </trkpt>
      <trkpt lat="49.24556" lon="3.83567">
        <ele>153</ele>
        <time>2018-04-01T20:38:32Z</time>
      </trkpt>
      <trkpt lat="49.24582" lon="3.836">
        <ele>155</ele>
        <time>2018-04-01T20:39:32Z</time>
      </trkpt>
      <trkpt lat="49.24617" lon="3.83642">
        <ele>158</ele>
        <time>2018-04-01T20:40:32Z</time>
      </trkpt>
      <trkpt lat="49.24627" lon="3.83655">
        <ele>159</ele>
        <time>2018-04-01T20:41:32Z</time>
      </trkpt>
      <trkpt lat="49.24655" lon="3.83689">
        <ele>162</ele>
        <time>2018-04-01T20:42:32Z</time>
      </trkpt>
      <trkpt lat="49.24675" lon="3.83714">
        <ele>165</ele>
        <time>2018-04-01T20:43:32Z</time>
      </trkpt>
      <trkpt lat="49.24685" lon="3.83728">
        <ele>165</ele>
        <time>2018-04-01T20:44:32Z</time>
      </trkpt>
      <trkpt lat="49.24692" lon="3.83738">
        <ele>166</ele>
        <time>2018-04-01T20:45:32Z</time>
      </trkpt>
      <trkpt lat="49.24697" lon="3.83747">
        <ele>166</ele>
        <time>2018-04-01T20:46:32Z</time>
      </trkpt>
      <trkpt lat="49.24702" lon="3.8376">
        <ele>167</ele>
        <time>2018-04-01T20:47:32Z</time>
      </trkpt>
      <trkpt lat="49.24711" lon="3.83783">
        <ele>168</ele>
        <time>2018-04-01T20:48:32Z</time>
      </trkpt>
      <trkpt lat="49.24733" lon="3.83844">
        <ele>172</ele>
        <time>2018-04-01T20:49:32Z</time>
      </trkpt>
      <trkpt lat="49.24743" lon="3.83871">
        <ele>174</ele>
        <time>2018-04-01T20:50:32Z</time>
      </trkpt>
      <trkpt lat="49.2475" lon="3.83889">
        <ele>175</ele>
        <time>2018-04-01T20:51:32Z</time>
      </trkpt>
      <trkpt lat="49.24757" lon="3.83907">
        <ele>176</ele>
        <time>2018-04-01T20:52:32Z</time>
      </trkpt>
      <trkpt lat="49.24765" lon="3.83924">
        <ele>177</ele>
        <time>2018-04-01T20:53:32Z</time>
      </trkpt>
      <trkpt lat="49.24778" lon="3.83951">
        <ele>178</ele>
        <time>2018-04-01T20:54:32Z</time>
      </trkpt>
      <trkpt lat="49.24785" lon="3.83963">
        <ele>179</ele>
        <time>2018-04-01T20:55:32Z</time>
      </trkpt>
      <trkpt lat="49.24792" lon="3.83977">
        <ele>180</ele>
        <time>2018-04-01T20:56:32Z</time>
      </trkpt>
      <trkpt lat="49.248" lon="3.83991">
        <ele>181</ele>
        <time>2018-04-01T20:57:32Z</time>
      </trkpt>
      <trkpt lat="49.24809" lon="3.84005">
        <ele>182</ele>
        <time>2018-04-01T20:58:32Z</time>
      </trkpt>
      <trkpt lat="49.24814" lon="3.84011">
        <ele>182</ele>
        <time>2018-04-01T20:59:32Z</time>
      </trkpt>
      <trkpt lat="49.24818" lon="3.84016">
        <ele>182</ele>
        <time>2018-04-01T21:00:32Z</time>
      </trkpt>
      <trkpt lat="49.2483" lon="3.84029">
        <ele>183</ele>
        <time>2018-04-01T21:01:32Z</time>
      </trkpt>
      <trkpt lat="49.24872" lon="3.84071">
        <ele>183</ele>
        <time>2018-04-01T21:02:32Z</time>
      </trkpt>
      <trkpt lat="49.24931" lon="3.84129">
        <ele>185</ele>
        <time>2018-04-01T21:03:32Z</time>
      </trkpt>
      <trkpt lat="49.24993" lon="3.84191">
        <ele>188</ele>
        <time>2018-04-01T21:04:32Z</time>
      </trkpt>
      <trkpt lat="49.25053" lon="3.84251">
        <ele>190</ele>
        <time>2018-04-01T21:05:32Z</time>
      </trkpt>
      <trkpt lat="49.25113" lon="3.8431">
        <ele>191</ele>
        <time>2018-04-01T21:06:32Z</time>
      </trkpt>
      <trkpt lat="49.25147" lon="3.84345">
        <ele>192</ele>
        <time>2018-04-01T21:07:32Z</time>
      </trkpt>
      <trkpt lat="49.25159" lon="3.84357">
        <ele>192</ele>
        <time>2018-04-01T21:08:32Z</time>
      </trkpt>
      <trkpt lat="49.25173" lon="3.84374">
        <ele>192</ele>
        <time>2018-04-01T21:09:32Z</time>
      </trkpt>
      <trkpt lat="49.25181" lon="3.84384">
        <ele>192</ele>
        <time>2018-04-01T21:10:32Z</time>
      </trkpt>
      <trkpt lat="49.25188" lon="3.84395">
        <ele>192</ele>
        <time>2018-04-01T21:11:32Z</time>
      </trkpt>
      <trkpt lat="49.25194" lon="3.84404">
        <ele>192</ele>
        <time>2018-04-01T21:12:32Z</time>
      </trkpt>
      <trkpt lat="49.252" lon="3.84415">
        <ele>192</ele>
        <time>2018-04-01T21:13:32Z</time>
      </trkpt>
      <trkpt lat="49.25205" lon="3.84426">
        <ele>192</ele>
        <time>2018-04-01T21:14:32Z</time>
      </trkpt>
      <trkpt lat="49.25209" lon="3.84438">
        <ele>192</ele>
        <time>2018-04-01T21:15:32Z</time>
      </trkpt>
      <trkpt lat="49.25214" lon="3.84453">
        <ele>192</ele>
        <time>2018-04-01T21:16:32Z</time>
      </trkpt>
      <trkpt lat="49.25216" lon="3.84462">
        <ele>192</ele>
        <time>2018-04-01T21:17:32Z</time>
      </trkpt>
      <trkpt lat="49.25219" lon="3.84474">
        <ele>192</ele>
        <time>2018-04-01T21:18:32Z</time>
      </trkpt>
      <trkpt lat="49.25221" lon="3.84485">
        <ele>192</ele>
        <time>2018-04-01T21:19:32Z</time>
      </trkpt>
      <trkpt lat="49.25223" lon="3.84499">
        <ele>192</ele>
        <time>2018-04-01T21:20:32Z</time>
      </trkpt>
      <trkpt lat="49.25224" lon="3.84513">
        <ele>192</ele>
        <time>2018-04-01T21:21:32Z</time>
      </trkpt>
      <trkpt lat="49.25225" lon="3.84525">
        <ele>192</ele>
        <time>2018-04-01T21:22:32Z</time>
      </trkpt>
      <trkpt lat="49.25226" lon="3.84536">
        <ele>192</ele>
        <time>2018-04-01T21:23:32Z</time>
      </trkpt>
      <trkpt lat="49.25226" lon="3.84548">
        <ele>192</ele>
        <time>2018-04-01T21:24:32Z</time>
      </trkpt>
      <trkpt lat="49.25225" lon="3.84559">
        <ele>192</ele>
        <time>2018-04-01T21:25:32Z</time>
      </trkpt>
      <trkpt lat="49.25224" lon="3.84579">
        <ele>192</ele>
        <time>2018-04-01T21:26:32Z</time>
      </trkpt>
      <trkpt lat="49.25222" lon="3.84597">
        <ele>192</ele>
        <time>2018-04-01T21:27:32Z</time>
      </trkpt>
      <trkpt lat="49.25218" lon="3.84619">
        <ele>192</ele>
        <time>2018-04-01T21:28:32Z</time>
      </trkpt>
      <trkpt lat="49.25215" lon="3.84643">
        <ele>192</ele>
        <time>2018-04-01T21:29:32Z</time>
      </trkpt>
      <trkpt lat="49.25211" lon="3.84666">
        <ele>192</ele>
        <time>2018-04-01T21:30:32Z</time>
      </trkpt>
      <trkpt lat="49.25197" lon="3.84753">
        <ele>191</ele>
        <time>2018-04-01T21:31:32Z</time>
      </trkpt>
      <trkpt lat="49.25187" lon="3.8481">
        <ele>190</ele>
        <time>2018-04-01T21:32:32Z</time>
      </trkpt>
      <trkpt lat="49.25183" lon="3.84839">
        <ele>190</ele>
        <time>2018-04-01T21:33:32Z</time>
      </trkpt>
      <trkpt lat="49.25172" lon="3.84902">
        <ele>188</ele>
        <time>2018-04-01T21:34:32Z</time>
      </trkpt>
      <trkpt lat="49.25162" lon="3.8496">
        <ele>187</ele>
        <time>2018-04-01T21:35:32Z</time>
      </trkpt>
      <trkpt lat="49.2515" lon="3.85041">
        <ele>187</ele>
        <time>2018-04-01T21:36:32Z</time>
      </trkpt>
      <trkpt lat="49.25132" lon="3.85149">
        <ele>186</ele>
        <time>2018-04-01T21:37:32Z</time>
      </trkpt>
      <trkpt lat="49.25115" lon="3.85252">
        <ele>184</ele>
        <time>2018-04-01T21:38:32Z</time>
      </trkpt>
      <trkpt lat="49.25101" lon="3.85336">
        <ele>182</ele>
        <time>2018-04-01T21:39:32Z</time>
      </trkpt>
      <trkpt lat="49.25088" lon="3.85411">
        <ele>182</ele>
        <time>2018-04-01T21:40:32Z</time>
      </trkpt>
      <trkpt lat="49.25084" lon="3.85447">
        <ele>183</ele>
        <time>2018-04-01T21:41:32Z</time>
      </trkpt>
      <trkpt lat="49.25082" lon="3.85469">
        <ele>182</ele>
        <time>2018-04-01T21:42:32Z</time>
      </trkpt>
      <trkpt lat="49.25081" lon="3.85485">
        <ele>182</ele>
        <time>2018-04-01T21:43:32Z</time>
      </trkpt>
      <trkpt lat="49.25081" lon="3.85499">
        <ele>182</ele>
        <time>2018-04-01T21:44:32Z</time>
      </trkpt>
      <trkpt lat="49.25082" lon="3.85523">
        <ele>182</ele>
        <time>2018-04-01T21:45:32Z</time>
      </trkpt>
      <trkpt lat="49.25084" lon="3.8555">
        <ele>181</ele>
        <time>2018-04-01T21:46:32Z</time>
      </trkpt>
      <trkpt lat="49.25086" lon="3.85559">
        <ele>180</ele>
        <time>2018-04-01T21:47:32Z</time>
      </trkpt>
      <trkpt lat="49.25087" lon="3.85567">
        <ele>180</ele>
        <time>2018-04-01T21:48:32Z</time>
      </trkpt>
      <trkpt lat="49.25089" lon="3.85581">
        <ele>179</ele>
        <time>2018-04-01T21:49:32Z</time>
      </trkpt>
      <trkpt lat="49.25094" lon="3.85604">
        <ele>179</ele>
        <time>2018-04-01T21:50:32Z</time>
      </trkpt>
      <trkpt lat="49.25093" lon="3.85611">
        <ele>179</ele>
        <time>2018-04-01T21:51:32Z</time>
      </trkpt>
      <trkpt lat="49.25102" lon="3.85635">
        <ele>178</ele>
        <time>2018-04-01T21:52:32Z</time>
      </trkpt>
      <trkpt lat="49.25108" lon="3.85653">
        <ele>178</ele>
        <time>2018-04-01T21:53:32Z</time>
      </trkpt>
      <trkpt lat="49.25114" lon="3.85666">
        <ele>177</ele>
        <time>2018-04-01T21:54:32Z</time>
      </trkpt>
      <trkpt lat="49.25116" lon="3.85671">
        <ele>177</ele>
        <time>2018-04-01T21:55:32Z</time>
      </trkpt>
      <trkpt lat="49.25136" lon="3.85712">
        <ele>175</ele>
        <time>2018-04-01T21:56:32Z</time>
      </trkpt>
      <trkpt lat="49.25141" lon="3.85719">
        <ele>174</ele>
        <time>2018-04-01T21:57:32Z</time>
      </trkpt>
      <trkpt lat="49.25149" lon="3.85736">
        <ele>174</ele>
        <time>2018-04-01T21:58:32Z</time>
      </trkpt>
      <trkpt lat="49.25173" lon="3.85792">
        <ele>171</ele>
        <time>2018-04-01T21:59:32Z</time>
      </trkpt>
      <trkpt lat="49.25185" lon="3.8582">
        <ele>169</ele>
        <time>2018-04-01T22:00:32Z</time>
      </trkpt>
      <trkpt lat="49.25186" lon="3.85825">
        <ele>168</ele>
        <time>2018-04-01T22:01:32Z</time>
      </trkpt>
      <trkpt lat="49.25194" lon="3.85848">
        <ele>167</ele>
        <time>2018-04-01T22:02:32Z</time>
      </trkpt>
      <trkpt lat="49.25197" lon="3.85855">
        <ele>167</ele>
        <time>2018-04-01T22:03:32Z</time>
      </trkpt>
      <trkpt lat="49.25199" lon="3.8586">
        <ele>166</ele>
        <time>2018-04-01T22:04:32Z</time>
      </trkpt>
      <trkpt lat="49.25207" lon="3.85877">
        <ele>165</ele>
        <time>2018-04-01T22:05:32Z</time>
      </trkpt>
      <trkpt lat="49.25215" lon="3.859">
        <ele>164</ele>
        <time>2018-04-01T22:06:32Z</time>
      </trkpt>
      <trkpt lat="49.25221" lon="3.8592">
        <ele>163</ele>
        <time>2018-04-01T22:07:32Z</time>
      </trkpt>
      <trkpt lat="49.25227" lon="3.85934">
        <ele>162</ele>
        <time>2018-04-01T22:08:32Z</time>
      </trkpt>
      <trkpt lat="49.25231" lon="3.85942">
        <ele>161</ele>
        <time>2018-04-01T22:09:32Z</time>
      </trkpt>
      <trkpt lat="49.25233" lon="3.85952">
        <ele>160</ele>
        <time>2018-04-01T22:10:32Z</time>
      </trkpt>
      <trkpt lat="49.25234" lon="3.85969">
        <ele>160</ele>
        <time>2018-04-01T22:11:32Z</time>
      </trkpt>
      <trkpt lat="49.25234" lon="3.8598">
        <ele>159</ele>
        <time>2018-04-01T22:12:32Z</time>
      </trkpt>
      <trkpt lat="49.25234" lon="3.85993">
        <ele>159</ele>
        <time>2018-04-01T22:13:32Z</time>
      </trkpt>
      <trkpt lat="49.25233" lon="3.86009">
        <ele>158</ele>
        <time>2018-04-01T22:14:32Z</time>
      </trkpt>
      <trkpt lat="49.25225" lon="3.86147">
        <ele>155</ele>
        <time>2018-04-01T22:15:32Z</time>
      </trkpt>
      <trkpt lat="49.25224" lon="3.8616">
        <ele>155</ele>
        <time>2018-04-01T22:16:32Z</time>
      </trkpt>
      <trkpt lat="49.25225" lon="3.86173">
        <ele>154</ele>
        <time>2018-04-01T22:17:32Z</time>
      </trkpt>
      <trkpt lat="49.25226" lon="3.86186">
        <ele>154</ele>
        <time>2018-04-01T22:18:32Z</time>
      </trkpt>
      <trkpt lat="49.25227" lon="3.86198">
        <ele>154</ele>
        <time>2018-04-01T22:19:32Z</time>
      </trkpt>
      <trkpt lat="49.25229" lon="3.86209">
        <ele>153</ele>
        <time>2018-04-01T22:20:32Z</time>
      </trkpt>
      <trkpt lat="49.25235" lon="3.8623">
        <ele>152</ele>
        <time>2018-04-01T22:21:32Z</time>
      </trkpt>
      <trkpt lat="49.25243" lon="3.86253">
        <ele>150</ele>
        <time>2018-04-01T22:22:32Z</time>
      </trkpt>
      <trkpt lat="49.25252" lon="3.86272">
        <ele>149</ele>
        <time>2018-04-01T22:23:32Z</time>
      </trkpt>
      <trkpt lat="49.25268" lon="3.86307">
        <ele>147</ele>
        <time>2018-04-01T22:24:32Z</time>
      </trkpt>
      <trkpt lat="49.2528" lon="3.86331">
        <ele>145</ele>
        <time>2018-04-01T22:25:32Z</time>
      </trkpt>
      <trkpt lat="49.25287" lon="3.86345">
        <ele>144</ele>
        <time>2018-04-01T22:26:32Z</time>
      </trkpt>
      <trkpt lat="49.25288" lon="3.86349">
        <ele>143</ele>
        <time>2018-04-01T22:27:32Z</time>
      </trkpt>
      <trkpt lat="49.2529" lon="3.86354">
        <ele>143</ele>
        <time>2018-04-01T22:28:32Z</time>
      </trkpt>
      <trkpt lat="49.25292" lon="3.86359">
        <ele>143</ele>
        <time>2018-04-01T22:29:32Z</time>
      </trkpt>
      <trkpt lat="49.25293" lon="3.86365">
        <ele>143</ele>
        <time>2018-04-01T22:30:32Z</time>
      </trkpt>
      <trkpt lat="49.25295" lon="3.86377">
        <ele>143</ele>
        <time>2018-04-01T22:31:32Z</time>
      </trkpt>
      <trkpt lat="49.25296" lon="3.86388">
        <ele>143</ele>
        <time>2018-04-01T22:32:32Z</time>
      </trkpt>
      <trkpt lat="49.25297" lon="3.86403">
        <ele>143</ele>
        <time>2018-04-01T22:33:32Z</time>
      </trkpt>
      <trkpt lat="49.25299" lon="3.86428">
        <ele>144</ele>
        <time>2018-04-01T22:34:32Z</time>
      </trkpt>
      <trkpt lat="49.253" lon="3.86439">
        <ele>144</ele>
        <time>2018-04-01T22:35:32Z</time>
      </trkpt>
      <trkpt lat="49.25299" lon="3.86454">
        <ele>144</ele>
        <time>2018-04-01T22:36:32Z</time>
      </trkpt>
      <trkpt lat="49.25298" lon="3.8646">
        <ele>144</ele>
        <time>2018-04-01T22:37:32Z</time>
      </trkpt>
      <trkpt lat="49.25298" lon="3.86468">
        <ele>145</ele>
        <time>2018-04-01T22:38:32Z</time>
      </trkpt>
      <trkpt lat="49.25297" lon="3.86475">
        <ele>145</ele>
        <time>2018-04-01T22:39:32Z</time>
      </trkpt>
      <trkpt lat="49.25296" lon="3.86486">
        <ele>145</ele>
        <time>2018-04-01T22:40:32Z</time>
      </trkpt>
      <trkpt lat="49.25295" lon="3.86494">
        <ele>146</ele>
        <time>2018-04-01T22:41:32Z</time>
      </trkpt>
      <trkpt lat="49.25294" lon="3.86499">
        <ele>146</ele>
        <time>2018-04-01T22:42:32Z</time>
      </trkpt>
      <trkpt lat="49.25294" lon="3.86507">
        <ele>146</ele>
        <time>2018-04-01T22:43:32Z</time>
      </trkpt>
      <trkpt lat="49.25291" lon="3.86517">
        <ele>146</ele>
        <time>2018-04-01T22:44:32Z</time>
      </trkpt>
      <trkpt lat="49.25272" lon="3.86583">
        <ele>147</ele>
        <time>2018-04-01T22:45:32Z</time>
      </trkpt>
      <trkpt lat="49.25256" lon="3.8663">
        <ele>145</ele>
        <time>2018-04-01T22:46:32Z</time>
      </trkpt>
      <trkpt lat="49.25235" lon="3.86704">
        <ele>141</ele>
        <time>2018-04-01T22:47:32Z</time>
      </trkpt>
      <trkpt lat="49.25231" lon="3.86722">
        <ele>140</ele>
        <time>2018-04-01T22:48:32Z</time>
      </trkpt>
      <trkpt lat="49.25228" lon="3.86735">
        <ele>140</ele>
        <time>2018-04-01T22:49:32Z</time>
      </trkpt>
      <trkpt lat="49.25226" lon="3.86751">
        <ele>139</ele>
        <time>2018-04-01T22:50:32Z</time>
      </trkpt>
      <trkpt lat="49.25224" lon="3.8677">
        <ele>138</ele>
        <time>2018-04-01T22:51:32Z</time>
      </trkpt>
      <trkpt lat="49.25223" lon="3.86789">
        <ele>137</ele>
        <time>2018-04-01T22:52:32Z</time>
      </trkpt>
      <trkpt lat="49.25222" lon="3.86809">
        <ele>136</ele>
        <time>2018-04-01T22:53:32Z</time>
      </trkpt>
      <trkpt lat="49.25222" lon="3.86833">
        <ele>134</ele>
        <time>2018-04-01T22:54:32Z</time>
      </trkpt>
      <trkpt lat="49.25223" lon="3.86844">
        <ele>133</ele>
        <time>2018-04-01T22:55:32Z</time>
      </trkpt>
      <trkpt lat="49.25226" lon="3.86872">
        <ele>131</ele>
        <time>2018-04-01T22:56:32Z</time>
      </trkpt>
      <trkpt lat="49.25227" lon="3.86879">
        <ele>130</ele>
        <time>2018-04-01T22:57:32Z</time>
      </trkpt>
      <trkpt lat="49.25231" lon="3.86901">
        <ele>128</ele>
        <time>2018-04-01T22:58:32Z</time>
      </trkpt>
      <trkpt lat="49.25245" lon="3.86983">
        <ele>122</ele>
        <time>2018-04-01T22:59:32Z</time>
      </trkpt>
      <trkpt lat="49.25256" lon="3.87044">
        <ele>119</ele>
        <time>2018-04-01T23:00:32Z</time>
      </trkpt>
      <trkpt lat="49.25289" lon="3.87214">
        <ele>115</ele>
        <time>2018-04-01T23:01:32Z</time>
      </trkpt>
      <trkpt lat="49.25301" lon="3.87278">
        <ele>113</ele>
        <time>2018-04-01T23:02:32Z</time>
      </trkpt>
      <trkpt lat="49.25305" lon="3.87303">
        <ele>112</ele>
        <time>2018-04-01T23:03:32Z</time>
      </trkpt>
      <trkpt lat="49.25309" lon="3.87323">
        <ele>111</ele>
        <time>2018-04-01T23:04:32Z</time>
      </trkpt>
      <trkpt lat="49.25311" lon="3.87337">
        <ele>111</ele>
        <time>2018-04-01T23:05:32Z</time>
      </trkpt>
      <trkpt lat="49.25312" lon="3.87349">
        <ele>110</ele>
        <time>2018-04-01T23:06:32Z</time>
      </trkpt>
      <trkpt lat="49.25313" lon="3.87358">
        <ele>110</ele>
        <time>2018-04-01T23:07:32Z</time>
      </trkpt>
      <trkpt lat="49.25314" lon="3.87371">
        <ele>109</ele>
        <time>2018-04-01T23:08:32Z</time>
      </trkpt>
      <trkpt lat="49.25314" lon="3.87384">
        <ele>109</ele>
        <time>2018-04-01T23:09:32Z</time>
      </trkpt>
      <trkpt lat="49.25315" lon="3.87399">
        <ele>108</ele>
        <time>2018-04-01T23:10:32Z</time>
      </trkpt>
      <trkpt lat="49.25315" lon="3.87416">
        <ele>107</ele>
        <time>2018-04-01T23:11:32Z</time>
      </trkpt>
      <trkpt lat="49.25314" lon="3.87439">
        <ele>107</ele>
        <time>2018-04-01T23:12:32Z</time>
      </trkpt>
      <trkpt lat="49.25313" lon="3.87474">
        <ele>106</ele>
        <time>2018-04-01T23:13:32Z</time>
      </trkpt>
      <trkpt lat="49.25309" lon="3.87555">
        <ele>104</ele>
        <time>2018-04-01T23:14:32Z</time>
      </trkpt>
      <trkpt lat="49.25301" lon="3.87741">
        <ele>102</ele>
        <time>2018-04-01T23:15:32Z</time>
      </trkpt>
      <trkpt lat="49.25294" lon="3.87873">
        <ele>101</ele>
        <time>2018-04-01T23:16:32Z</time>
      </trkpt>
      <trkpt lat="49.25294" lon="3.87887">
        <ele>101</ele>
        <time>2018-04-01T23:17:32Z</time>
      </trkpt>
      <trkpt lat="49.25293" lon="3.87902">
        <ele>101</ele>
        <time>2018-04-01T23:18:32Z</time>
      </trkpt>
      <trkpt lat="49.25292" lon="3.87919">
        <ele>101</ele>
        <time>2018-04-01T23:19:32Z</time>
      </trkpt>
      <trkpt lat="49.25291" lon="3.87932">
        <ele>101</ele>
        <time>2018-04-01T23:20:32Z</time>
      </trkpt>
      <trkpt lat="49.25292" lon="3.87958">
        <ele>101</ele>
        <time>2018-04-01T23:21:32Z</time>
      </trkpt>
      <trkpt lat="49.25296" lon="3.87997">
        <ele>102</ele>
        <time>2018-04-01T23:22:32Z</time>
      </trkpt>
      <trkpt lat="49.253" lon="3.88059">
        <ele>103</ele>
        <time>2018-04-01T23:23:32Z</time>
      </trkpt>
      <trkpt lat="49.25306" lon="3.88126">
        <ele>103</ele>
        <time>2018-04-01T23:24:32Z</time>
      </trkpt>
      <trkpt lat="49.25312" lon="3.88175">
        <ele>103</ele>
        <time>2018-04-01T23:25:32Z</time>
      </trkpt>
      <trkpt lat="49.25317" lon="3.88208">
        <ele>103</ele>
        <time>2018-04-01T23:26:32Z</time>
      </trkpt>
      <trkpt lat="49.25321" lon="3.88235">
        <ele>103</ele>
        <time>2018-04-01T23:27:32Z</time>
      </trkpt>
      <trkpt lat="49.25322" lon="3.88245">
        <ele>103</ele>
        <time>2018-04-01T23:28:32Z</time>
      </trkpt>
      <trkpt lat="49.25323" lon="3.88262">
        <ele>103</ele>
        <time>2018-04-01T23:29:32Z</time>
      </trkpt>
      <trkpt lat="49.25323" lon="3.88295">
        <ele>102</ele>
        <time>2018-04-01T23:30:32Z</time>
      </trkpt>
      <trkpt lat="49.25323" lon="3.88339">
        <ele>101</ele>
        <time>2018-04-01T23:31:32Z</time>
      </trkpt>
      <trkpt lat="49.25323" lon="3.88444">
        <ele>101</ele>
        <time>2018-04-01T23:32:32Z</time>
      </trkpt>
      <trkpt lat="49.25323" lon="3.88464">
        <ele>101</ele>
        <time>2018-04-01T23:33:32Z</time>
      </trkpt>
      <trkpt lat="49.25324" lon="3.88502">
        <ele>102</ele>
        <time>2018-04-01T23:34:32Z</time>
      </trkpt>
      <trkpt lat="49.25324" lon="3.88553">
        <ele>102</ele>
        <time>2018-04-01T23:35:32Z</time>
      </trkpt>
      <trkpt lat="49.25324" lon="3.88632">
        <ele>100</ele>
        <time>2018-04-01T23:36:32Z</time>
      </trkpt>
      <trkpt lat="49.25325" lon="3.88716">
        <ele>99</ele>
        <time>2018-04-01T23:37:32Z</time>
      </trkpt>
      <trkpt lat="49.25324" lon="3.8876">
        <ele>99</ele>
        <time>2018-04-01T23:38:32Z</time>
      </trkpt>
      <trkpt lat="49.25325" lon="3.88782">
        <ele>99</ele>
        <time>2018-04-01T23:39:32Z</time>
      </trkpt>
      <trkpt lat="49.25324" lon="3.88807">
        <ele>99</ele>
        <time>2018-04-01T23:40:32Z</time>
      </trkpt>
      <trkpt lat="49.25324" lon="3.88833">
        <ele>99</ele>
        <time>2018-04-01T23:41:32Z</time>
      </trkpt>
      <trkpt lat="49.25324" lon="3.88863">
        <ele>100</ele>
        <time>2018-04-01T23:42:32Z</time>
      </trkpt>
      <trkpt lat="49.25323" lon="3.88887">
        <ele>100</ele>
        <time>2018-04-01T23:43:32Z</time>
      </trkpt>
      <trkpt lat="49.25319" lon="3.88946">
        <ele>101</ele>
        <time>2018-04-01T23:44:32Z</time>
      </trkpt>
      <trkpt lat="49.25311" lon="3.89046">
        <ele>101</ele>
        <time>2018-04-01T23:45:32Z</time>
      </trkpt>
      <trkpt lat="49.25308" lon="3.89083">
        <ele>102</ele>
        <time>2018-04-01T23:46:32Z</time>
      </trkpt>
      <trkpt lat="49.25306" lon="3.89109">
        <ele>102</ele>
        <time>2018-04-01T23:47:32Z</time>
      </trkpt>
      <trkpt lat="49.25303" lon="3.89131">
        <ele>102</ele>
        <time>2018-04-01T23:48:32Z</time>
      </trkpt>
      <trkpt lat="49.25302" lon="3.89147">
        <ele>102</ele>
        <time>2018-04-01T23:49:32Z</time>
      </trkpt>
      <trkpt lat="49.253" lon="3.89156">
        <ele>102</ele>
        <time>2018-04-01T23:50:32Z</time>
      </trkpt>
      <trkpt lat="49.25297" lon="3.89166">
        <ele>102</ele>
        <time>2018-04-01T23:51:32Z</time>
      </trkpt>
      <trkpt lat="49.25295" lon="3.89178">
        <ele>102</ele>
        <time>2018-04-01T23:52:32Z</time>
      </trkpt>
      <trkpt lat="49.25291" lon="3.89188">
        <ele>103</ele>
        <time>2018-04-01T23:53:32Z</time>
      </trkpt>
      <trkpt lat="49.25287" lon="3.89198">
        <ele>103</ele>
        <time>2018-04-01T23:54:32Z</time>
      </trkpt>
      <trkpt lat="49.25281" lon="3.89213">
        <ele>103</ele>
        <time>2018-04-01T23:55:32Z</time>
      </trkpt>
      <trkpt lat="49.2528" lon="3.89214">
        <ele>103</ele>
        <time>2018-04-01T23:56:32Z</time>
      </trkpt>
      <trkpt lat="49.25275" lon="3.89224">
        <ele>103</ele>
        <time>2018-04-01T23:57:32Z</time>
      </trkpt>
      <trkpt lat="49.25263" lon="3.89242">
        <ele>103</ele>
        <time>2018-04-01T23:58:32Z</time>
      </trkpt>
      <trkpt lat="49.25244" lon="3.8927">
        <ele>105</ele>
        <time>2018-04-01T23:59:32Z</time>
      </trkpt>
      <trkpt lat="49.25212" lon="3.89312">
        <ele>106</ele>
        <time>2018-04-02T00:00:32Z</time>
      </trkpt>
      <trkpt lat="49.25158" lon="3.89383">
        <ele>109</ele>
        <time>2018-04-02T00:01:32Z</time>
      </trkpt>
      <trkpt lat="49.25122" lon="3.89431">
        <ele>111</ele>
        <time>2018-04-02T00:02:32Z</time>
      </trkpt>
      <trkpt lat="49.2511" lon="3.89446">
        <ele>111</ele>
        <time>2018-04-02T00:03:32Z</time>
      </trkpt>
      <trkpt lat="49.25096" lon="3.89468">
        <ele>111</ele>
        <time>2018-04-02T00:04:32Z</time>
      </trkpt>
      <trkpt lat="49.25081" lon="3.89491">
        <ele>111</ele>
        <time>2018-04-02T00:05:32Z</time>
      </trkpt>
      <trkpt lat="49.25068" lon="3.89514">
        <ele>111</ele>
        <time>2018-04-02T00:06:32Z</time>
      </trkpt>
      <trkpt lat="49.25056" lon="3.8954">
        <ele>111</ele>
        <time>2018-04-02T00:07:32Z</time>
      </trkpt>
      <trkpt lat="49.25048" lon="3.89562">
        <ele>110</ele>
        <time>2018-04-02T00:08:32Z</time>
      </trkpt>
      <trkpt lat="49.25036" lon="3.89593">
        <ele>110</ele>
        <time>2018-04-02T00:09:32Z</time>
      </trkpt>
      <trkpt lat="49.25024" lon="3.89632">
        <ele>110</ele>
        <time>2018-04-02T00:10:32Z</time>
      </trkpt>
      <trkpt lat="49.24997" lon="3.89732">
        <ele>109</ele>
        <time>2018-04-02T00:11:32Z</time>
      </trkpt>
      <trkpt lat="49.24987" lon="3.89776">
        <ele>109</ele>
        <time>2018-04-02T00:12:32Z</time>
      </trkpt>
      <trkpt lat="49.24985" lon="3.89784">
        <ele>109</ele>
        <time>2018-04-02T00:13:32Z</time>
      </trkpt>
      <trkpt lat="49.24984" lon="3.89785">
        <ele>109</ele>
        <time>2018-04-02T00:14:32Z</time>
      </trkpt>
      <trkpt lat="49.24951" lon="3.89907">
        <ele>107</ele>
        <time>2018-04-02T00:15:32Z</time>
      </trkpt>
      <trkpt lat="49.2495" lon="3.89912">
        <ele>107</ele>
        <time>2018-04-02T00:16:32Z</time>
      </trkpt>
      <trkpt lat="49.24937" lon="3.89961">
        <ele>106</ele>
        <time>2018-04-02T00:17:32Z</time>
      </trkpt>
      <trkpt lat="49.24931" lon="3.89987">
        <ele>106</ele>
        <time>2018-04-02T00:18:32Z</time>
      </trkpt>
      <trkpt lat="49.24929" lon="3.90001">
        <ele>106</ele>
        <time>2018-04-02T00:19:32Z</time>
      </trkpt>
      <trkpt lat="49.24928" lon="3.90006">
        <ele>106</ele>
        <time>2018-04-02T00:20:32Z</time>
      </trkpt>
      <trkpt lat="49.24926" lon="3.90017">
        <ele>106</ele>
        <time>2018-04-02T00:21:32Z</time>
      </trkpt>
      <trkpt lat="49.24925" lon="3.9002">
        <ele>106</ele>
        <time>2018-04-02T00:22:32Z</time>
      </trkpt>
      <trkpt lat="49.24922" lon="3.90046">
        <ele>106</ele>
        <time>2018-04-02T00:23:32Z</time>
      </trkpt>
      <trkpt lat="49.24921" lon="3.90046">
        <ele>106</ele>
        <time>2018-04-02T00:24:32Z</time>
      </trkpt>
      <trkpt lat="49.24921" lon="3.90047">
        <ele>106</ele>
        <time>2018-04-02T00:25:32Z</time>
      </trkpt>
      <trkpt lat="49.2492" lon="3.90047">
        <ele>106</ele>
        <time>2018-04-02T00:26:32Z</time>
      </trkpt>
      <trkpt lat="49.24919" lon="3.90048">
        <ele>106</ele>
        <time>2018-04-02T00:27:32Z</time>
      </trkpt>
      <trkpt lat="49.24919" lon="3.90049">
        <ele>106</ele>
        <time>2018-04-02T00:28:32Z</time>
      </trkpt>
      <trkpt lat="49.24918" lon="3.90049">
        <ele>106</ele>
        <time>2018-04-02T00:29:32Z</time>
      </trkpt>
      <trkpt lat="49.24918" lon="3.9005">
        <ele>106</ele>
        <time>2018-04-02T00:30:32Z</time>
      </trkpt>
      <trkpt lat="49.24917" lon="3.9005">
        <ele>106</ele>
        <time>2018-04-02T00:31:32Z</time>
      </trkpt>
      <trkpt lat="49.24917" lon="3.90051">
        <ele>106</ele>
        <time>2018-04-02T00:32:32Z</time>
      </trkpt>
      <trkpt lat="49.24917" lon="3.90052">
        <ele>106</ele>
        <time>2018-04-02T00:33:32Z</time>
      </trkpt>
      <trkpt lat="49.24916" lon="3.90052">
        <ele>106</ele>
        <time>2018-04-02T00:34:32Z</time>
      </trkpt>
      <trkpt lat="49.24916" lon="3.90053">
        <ele>106</ele>
        <time>2018-04-02T00:35:32Z</time>
      </trkpt>
      <trkpt lat="49.24916" lon="3.90054">
        <ele>106</ele>
        <time>2018-04-02T00:36:32Z</time>
      </trkpt>
      <trkpt lat="49.24915" lon="3.90055">
        <ele>106</ele>
        <time>2018-04-02T00:37:32Z</time>
      </trkpt>
      <trkpt lat="49.24915" lon="3.90056">
        <ele>106</ele>
        <time>2018-04-02T00:38:32Z</time>
      </trkpt>
      <trkpt lat="49.24915" lon="3.90057">
        <ele>106</ele>
        <time>2018-04-02T00:39:32Z</time>
      </trkpt>
      <trkpt lat="49.24915" lon="3.90058">
        <ele>106</ele>
        <time>2018-04-02T00:40:32Z</time>
      </trkpt>
      <trkpt lat="49.24915" lon="3.90059">
        <ele>106</ele>
        <time>2018-04-02T00:41:32Z</time>
      </trkpt>
      <trkpt lat="49.24915" lon="3.9006">
        <ele>106</ele>
        <time>2018-04-02T00:42:32Z</time>
      </trkpt>
      <trkpt lat="49.24915" lon="3.90061">
        <ele>106</ele>
        <time>2018-04-02T00:43:32Z</time>
      </trkpt>
      <trkpt lat="49.24915" lon="3.90062">
        <ele>106</ele>
        <time>2018-04-02T00:44:32Z</time>
      </trkpt>
      <trkpt lat="49.24915" lon="3.90063">
        <ele>106</ele>
        <time>2018-04-02T00:45:32Z</time>
      </trkpt>
      <trkpt lat="49.24915" lon="3.90064">
        <ele>106</ele>
        <time>2018-04-02T00:46:32Z</time>
      </trkpt>
      <trkpt lat="49.24916" lon="3.90064">
        <ele>106</ele>
        <time>2018-04-02T00:47:32Z</time>
      </trkpt>
      <trkpt lat="49.24916" lon="3.90065">
        <ele>106</ele>
        <time>2018-04-02T00:48:32Z</time>
      </trkpt>
      <trkpt lat="49.24916" lon="3.90066">
        <ele>106</ele>
        <time>2018-04-02T00:49:32Z</time>
      </trkpt>
      <trkpt lat="49.24916" lon="3.90067">
        <ele>106</ele>
        <time>2018-04-02T00:50:32Z</time>
      </trkpt>
      <trkpt lat="49.24917" lon="3.90067">
        <ele>106</ele>
        <time>2018-04-02T00:51:32Z</time>
      </trkpt>
      <trkpt lat="49.24917" lon="3.90068">
        <ele>106</ele>
        <time>2018-04-02T00:52:32Z</time>
      </trkpt>
      <trkpt lat="49.24917" lon="3.90069">
        <ele>106</ele>
        <time>2018-04-02T00:53:32Z</time>
      </trkpt>
      <trkpt lat="49.24918" lon="3.90069">
        <ele>106</ele>
        <time>2018-04-02T00:54:32Z</time>
      </trkpt>
      <trkpt lat="49.24918" lon="3.9007">
        <ele>106</ele>
        <time>2018-04-02T00:55:32Z</time>
      </trkpt>
      <trkpt lat="49.24919" lon="3.9007">
        <ele>106</ele>
        <time>2018-04-02T00:56:32Z</time>
      </trkpt>
      <trkpt lat="49.24919" lon="3.90071">
        <ele>106</ele>
        <time>2018-04-02T00:57:32Z</time>
      </trkpt>
      <trkpt lat="49.2492" lon="3.90072">
        <ele>106</ele>
        <time>2018-04-02T00:58:32Z</time>
      </trkpt>
      <trkpt lat="49.24921" lon="3.90072">
        <ele>106</ele>
        <time>2018-04-02T00:59:32Z</time>
      </trkpt>
      <trkpt lat="49.24921" lon="3.90073">
        <ele>106</ele>
        <time>2018-04-02T01:00:32Z</time>
      </trkpt>
      <trkpt lat="49.24922" lon="3.90073">
        <ele>106</ele>
        <time>2018-04-02T01:01:32Z</time>
      </trkpt>
      <trkpt lat="49.24927" lon="3.90095">
        <ele>106</ele>
        <time>2018-04-02T01:02:32Z</time>
      </trkpt>
      <trkpt lat="49.24941" lon="3.90138">
        <ele>106</ele>
        <time>2018-04-02T01:03:32Z</time>
      </trkpt>
      <trkpt lat="49.24959" lon="3.90187">
        <ele>105</ele>
        <time>2018-04-02T01:04:32Z</time>
      </trkpt>
      <trkpt lat="49.24968" lon="3.90219">
        <ele>104</ele>
        <time>2018-04-02T01:05:32Z</time>
      </trkpt>
      <trkpt lat="49.24974" lon="3.90254">
        <ele>103</ele>
        <time>2018-04-02T01:06:32Z</time>
      </trkpt>
      <trkpt lat="49.24987" lon="3.90322">
        <ele>101</ele>
        <time>2018-04-02T01:07:32Z</time>
      </trkpt>
      <trkpt lat="49.24995" lon="3.90372">
        <ele>101</ele>
        <time>2018-04-02T01:08:32Z</time>
      </trkpt>
      <trkpt lat="49.24999" lon="3.90396">
        <ele>102</ele>
        <time>2018-04-02T01:09:32Z</time>
      </trkpt>
      <trkpt lat="49.25" lon="3.90407">
        <ele>102</ele>
        <time>2018-04-02T01:10:32Z</time>
      </trkpt>
      <trkpt lat="49.25" lon="3.90415">
        <ele>102</ele>
        <time>2018-04-02T01:11:32Z</time>
      </trkpt>
      <trkpt lat="49.25001" lon="3.9043">
        <ele>102</ele>
        <time>2018-04-02T01:12:32Z</time>
      </trkpt>
      <trkpt lat="49.25001" lon="3.9046">
        <ele>101</ele>
        <time>2018-04-02T01:13:32Z</time>
      </trkpt>
      <trkpt lat="49.25004" lon="3.90471">
        <ele>101</ele>
        <time>2018-04-02T01:14:32Z</time>
      </trkpt>
      <trkpt lat="49.25007" lon="3.9049">
        <ele>101</ele>
        <time>2018-04-02T01:15:32Z</time>
      </trkpt>
      <trkpt lat="49.25006" lon="3.90518">
        <ele>101</ele>
        <time>2018-04-02T01:16:32Z</time>
      </trkpt>
      <trkpt lat="49.25006" lon="3.90547">
        <ele>101</ele>
        <time>2018-04-02T01:17:32Z</time>
      </trkpt>
      <trkpt lat="49.25006" lon="3.90559">
        <ele>101</ele>
        <time>2018-04-02T01:18:32Z</time>
      </trkpt>
      <trkpt lat="49.25007" lon="3.90567">
        <ele>101</ele>
        <time>2018-04-02T01:19:32Z</time>
      </trkpt>
      <trkpt lat="49.25009" lon="3.90579">
        <ele>101</ele>
        <time>2018-04-02T01:20:32Z</time>
      </trkpt>
      <trkpt lat="49.25011" lon="3.90592">
        <ele>101</ele>
        <time>2018-04-02T01:21:32Z</time>
      </trkpt>
      <trkpt lat="49.25014" lon="3.90607">
        <ele>100</ele>
        <time>2018-04-02T01:22:32Z</time>
      </trkpt>
      <trkpt lat="49.2502" lon="3.90633">
        <ele>99</ele>
        <time>2018-04-02T01:23:32Z</time>
      </trkpt>
      <trkpt lat="49.25027" lon="3.90663">
        <ele>99</ele>
        <time>2018-04-02T01:24:32Z</time>
      </trkpt>
      <trkpt lat="49.25033" lon="3.90684">
        <ele>99</ele>
        <time>2018-04-02T01:25:32Z</time>
      </trkpt>
      <trkpt lat="49.2504" lon="3.90704">
        <ele>99</ele>
        <time>2018-04-02T01:26:32Z</time>
      </trkpt>
      <trkpt lat="49.25046" lon="3.9072">
        <ele>99</ele>
        <time>2018-04-02T01:27:32Z</time>
      </trkpt>
      <trkpt lat="49.25049" lon="3.90736">
        <ele>99</ele>
        <time>2018-04-02T01:28:32Z</time>
      </trkpt>
      <trkpt lat="49.2505" lon="3.90743">
        <ele>99</ele>
        <time>2018-04-02T01:29:32Z</time>
      </trkpt>
      <trkpt lat="49.25052" lon="3.90757">
        <ele>99</ele>
        <time>2018-04-02T01:30:32Z</time>
      </trkpt>
      <trkpt lat="49.25053" lon="3.90784">
        <ele>98</ele>
        <time>2018-04-02T01:31:32Z</time>
      </trkpt>
      <trkpt lat="49.25056" lon="3.90819">
        <ele>98</ele>
        <time>2018-04-02T01:32:32Z</time>
      </trkpt>
      <trkpt lat="49.25059" lon="3.9085">
        <ele>98</ele>
        <time>2018-04-02T01:33:32Z</time>
      </trkpt>
      <trkpt lat="49.2506" lon="3.90876">
        <ele>98</ele>
        <time>2018-04-02T01:34:32Z</time>
      </trkpt>
      <trkpt lat="49.25062" lon="3.909">
        <ele>98</ele>
        <time>2018-04-02T01:35:32Z</time>
      </trkpt>
      <trkpt lat="49.25063" lon="3.90924">
        <ele>98</ele>
        <time>2018-04-02T01:36:32Z</time>
      </trkpt>
      <trkpt lat="49.25064" lon="3.90947">
        <ele>97</ele>
        <time>2018-04-02T01:37:32Z</time>
      </trkpt>
      <trkpt lat="49.25066" lon="3.90966">
        <ele>97</ele>
        <time>2018-04-02T01:38:32Z</time>
      </trkpt>
      <trkpt lat="49.25062" lon="3.90979">
        <ele>97</ele>
        <time>2018-04-02T01:39:32Z</time>
      </trkpt>
      <trkpt lat="49.25062" lon="3.90979">
        <ele>97</ele>
        <time>2018-04-02T01:40:32Z</time>
      </trkpt>
      <trkpt lat="49.25061" lon="3.90978">
        <ele>97</ele>
        <time>2018-04-02T01:41:32Z</time>
      </trkpt>
      <trkpt lat="49.25061" lon="3.90977">
        <ele>97</ele>
        <time>2018-04-02T01:42:32Z</time>
      </trkpt>
      <trkpt lat="49.2506" lon="3.90977">
        <ele>97</ele>
        <time>2018-04-02T01:43:32Z</time>
      </trkpt>
      <trkpt lat="49.2506" lon="3.90976">
        <ele>97</ele>
        <time>2018-04-02T01:44:32Z</time>
      </trkpt>
      <trkpt lat="49.25059" lon="3.90976">
        <ele>97</ele>
        <time>2018-04-02T01:45:32Z</time>
      </trkpt>
      <trkpt lat="49.25059" lon="3.90975">
        <ele>97</ele>
        <time>2018-04-02T01:46:32Z</time>
      </trkpt>
      <trkpt lat="49.25058" lon="3.90975">
        <ele>97</ele>
        <time>2018-04-02T01:47:32Z</time>
      </trkpt>
      <trkpt lat="49.25057" lon="3.90974">
        <ele>97</ele>
        <time>2018-04-02T01:48:32Z</time>
      </trkpt>
      <trkpt lat="49.25056" lon="3.90974">
        <ele>97</ele>
        <time>2018-04-02T01:49:32Z</time>
      </trkpt>
      <trkpt lat="49.25055" lon="3.90974">
        <ele>97</ele>
        <time>2018-04-02T01:50:32Z</time>
      </trkpt>
      <trkpt lat="49.25054" lon="3.90974">
        <ele>97</ele>
        <time>2018-04-02T01:51:32Z</time>
      </trkpt>
      <trkpt lat="49.25053" lon="3.90974">
        <ele>97</ele>
        <time>2018-04-02T01:52:32Z</time>
      </trkpt>
      <trkpt lat="49.25052" lon="3.90974">
        <ele>97</ele>
        <time>2018-04-02T01:53:32Z</time>
      </trkpt>
      <trkpt lat="49.25051" lon="3.90974">
        <ele>97</ele>
        <time>2018-04-02T01:54:32Z</time>
      </trkpt>
      <trkpt lat="49.2505" lon="3.90974">
        <ele>97</ele>
        <time>2018-04-02T01:55:32Z</time>
      </trkpt>
      <trkpt lat="49.2505" lon="3.90975">
        <ele>97</ele>
        <time>2018-04-02T01:56:32Z</time>
      </trkpt>
      <trkpt lat="49.25049" lon="3.90975">
        <ele>97</ele>
        <time>2018-04-02T01:57:32Z</time>
      </trkpt>
      <trkpt lat="49.25048" lon="3.90975">
        <ele>97</ele>
        <time>2018-04-02T01:58:32Z</time>
      </trkpt>
      <trkpt lat="49.25048" lon="3.90976">
        <ele>97</ele>
        <time>2018-04-02T01:59:32Z</time>
      </trkpt>
      <trkpt lat="49.25047" lon="3.90976">
        <ele>97</ele>
        <time>2018-04-02T02:00:32Z</time>
      </trkpt>
      <trkpt lat="49.25047" lon="3.90977">
        <ele>97</ele>
        <time>2018-04-02T02:01:32Z</time>
      </trkpt>
      <trkpt lat="49.25046" lon="3.90978">
        <ele>97</ele>
        <time>2018-04-02T02:02:32Z</time>
      </trkpt>
      <trkpt lat="49.25045" lon="3.90979">
        <ele>97</ele>
        <time>2018-04-02T02:03:32Z</time>
      </trkpt>
      <trkpt lat="49.25044" lon="3.9098">
        <ele>97</ele>
        <time>2018-04-02T02:04:32Z</time>
      </trkpt>
      <trkpt lat="49.25044" lon="3.90981">
        <ele>97</ele>
        <time>2018-04-02T02:05:32Z</time>
      </trkpt>
      <trkpt lat="49.25043" lon="3.90982">
        <ele>97</ele>
        <time>2018-04-02T02:06:32Z</time>
      </trkpt>
      <trkpt lat="49.25043" lon="3.90983">
        <ele>97</ele>
        <time>2018-04-02T02:07:32Z</time>
      </trkpt>
      <trkpt lat="49.25043" lon="3.90984">
        <ele>97</ele>
        <time>2018-04-02T02:08:32Z</time>
      </trkpt>
      <trkpt lat="49.25042" lon="3.90985">
        <ele>97</ele>
        <time>2018-04-02T02:09:32Z</time>
      </trkpt>
      <trkpt lat="49.25042" lon="3.90986">
        <ele>97</ele>
        <time>2018-04-02T02:10:32Z</time>
      </trkpt>
      <trkpt lat="49.25042" lon="3.90987">
        <ele>97</ele>
        <time>2018-04-02T02:11:32Z</time>
      </trkpt>
      <trkpt lat="49.25042" lon="3.90988">
        <ele>97</ele>
        <time>2018-04-02T02:12:32Z</time>
      </trkpt>
      <trkpt lat="49.25041" lon="3.90989">
        <ele>97</ele>
        <time>2018-04-02T02:13:32Z</time>
      </trkpt>
      <trkpt lat="49.25041" lon="3.9099">
        <ele>97</ele>
        <time>2018-04-02T02:14:32Z</time>
      </trkpt>
      <trkpt lat="49.25041" lon="3.90991">
        <ele>97</ele>
        <time>2018-04-02T02:15:32Z</time>
      </trkpt>
      <trkpt lat="49.25041" lon="3.90992">
        <ele>97</ele>
        <time>2018-04-02T02:16:32Z</time>
      </trkpt>
      <trkpt lat="49.25041" lon="3.90993">
        <ele>97</ele>
        <time>2018-04-02T02:17:32Z</time>
      </trkpt>
      <trkpt lat="49.25041" lon="3.90994">
        <ele>97</ele>
        <time>2018-04-02T02:18:32Z</time>
      </trkpt>
      <trkpt lat="49.25041" lon="3.90995">
        <ele>97</ele>
        <time>2018-04-02T02:19:32Z</time>
      </trkpt>
      <trkpt lat="49.25041" lon="3.90996">
        <ele>97</ele>
        <time>2018-04-02T02:20:32Z</time>
      </trkpt>
      <trkpt lat="49.25041" lon="3.90997">
        <ele>97</ele>
        <time>2018-04-02T02:21:32Z</time>
      </trkpt>
      <trkpt lat="49.25042" lon="3.90998">
        <ele>97</ele>
        <time>2018-04-02T02:22:32Z</time>
      </trkpt>
      <trkpt lat="49.25042" lon="3.90999">
        <ele>97</ele>
        <time>2018-04-02T02:23:32Z</time>
      </trkpt>
      <trkpt lat="49.25042" lon="3.91">
        <ele>97</ele>
        <time>2018-04-02T02:24:32Z</time>
      </trkpt>
      <trkpt lat="49.25042" lon="3.91001">
        <ele>97</ele>
        <time>2018-04-02T02:25:32Z</time>
      </trkpt>
      <trkpt lat="49.25043" lon="3.91002">
        <ele>97</ele>
        <time>2018-04-02T02:26:32Z</time>
      </trkpt>
      <trkpt lat="49.25043" lon="3.91003">
        <ele>97</ele>
        <time>2018-04-02T02:27:32Z</time>
      </trkpt>
      <trkpt lat="49.25044" lon="3.91004">
        <ele>97</ele>
        <time>2018-04-02T02:28:32Z</time>
      </trkpt>
      <trkpt lat="49.25044" lon="3.91005">
        <ele>97</ele>
        <time>2018-04-02T02:29:32Z</time>
      </trkpt>
      <trkpt lat="49.25044" lon="3.91006">
        <ele>97</ele>
        <time>2018-04-02T02:30:32Z</time>
      </trkpt>
      <trkpt lat="49.25045" lon="3.91006">
        <ele>97</ele>
        <time>2018-04-02T02:31:32Z</time>
      </trkpt>
      <trkpt lat="49.25045" lon="3.91007">
        <ele>97</ele>
        <time>2018-04-02T02:32:32Z</time>
      </trkpt>
      <trkpt lat="49.25046" lon="3.91008">
        <ele>97</ele>
        <time>2018-04-02T02:33:32Z</time>
      </trkpt>
      <trkpt lat="49.25047" lon="3.91009">
        <ele>97</ele>
        <time>2018-04-02T02:34:32Z</time>
      </trkpt>
      <trkpt lat="49.25048" lon="3.9101">
        <ele>97</ele>
        <time>2018-04-02T02:35:32Z</time>
      </trkpt>
      <trkpt lat="49.25049" lon="3.9101">
        <ele>97</ele>
        <time>2018-04-02T02:36:32Z</time>
      </trkpt>
      <trkpt lat="49.2505" lon="3.91011">
        <ele>97</ele>
        <time>2018-04-02T02:37:32Z</time>
      </trkpt>
      <trkpt lat="49.25051" lon="3.91011">
        <ele>97</ele>
        <time>2018-04-02T02:38:32Z</time>
      </trkpt>
      <trkpt lat="49.25052" lon="3.91012">
        <ele>97</ele>
        <time>2018-04-02T02:39:32Z</time>
      </trkpt>
      <trkpt lat="49.25053" lon="3.91012">
        <ele>97</ele>
        <time>2018-04-02T02:40:32Z</time>
      </trkpt>
      <trkpt lat="49.25054" lon="3.91012">
        <ele>97</ele>
        <time>2018-04-02T02:41:32Z</time>
      </trkpt>
      <trkpt lat="49.25055" lon="3.91012">
        <ele>97</ele>
        <time>2018-04-02T02:42:32Z</time>
      </trkpt>
      <trkpt lat="49.25056" lon="3.91012">
        <ele>97</ele>
        <time>2018-04-02T02:43:32Z</time>
      </trkpt>
      <trkpt lat="49.25056" lon="3.91011">
        <ele>97</ele>
        <time>2018-04-02T02:44:32Z</time>
      </trkpt>
      <trkpt lat="49.25057" lon="3.91011">
        <ele>97</ele>
        <time>2018-04-02T02:45:32Z</time>
      </trkpt>
      <trkpt lat="49.25058" lon="3.91011">
        <ele>97</ele>
        <time>2018-04-02T02:46:32Z</time>
      </trkpt>
      <trkpt lat="49.25059" lon="3.9101">
        <ele>97</ele>
        <time>2018-04-02T02:47:32Z</time>
      </trkpt>
      <trkpt lat="49.2506" lon="3.9101">
        <ele>97</ele>
        <time>2018-04-02T02:48:32Z</time>
      </trkpt>
      <trkpt lat="49.25061" lon="3.91009">
        <ele>97</ele>
        <time>2018-04-02T02:49:32Z</time>
      </trkpt>
      <trkpt lat="49.25066" lon="3.9103">
        <ele>96</ele>
        <time>2018-04-02T02:50:32Z</time>
      </trkpt>
      <trkpt lat="49.25067" lon="3.91034">
        <ele>96</ele>
        <time>2018-04-02T02:51:32Z</time>
      </trkpt>
      <trkpt lat="49.25073" lon="3.91067">
        <ele>96</ele>
        <time>2018-04-02T02:52:32Z</time>
      </trkpt>
      <trkpt lat="49.25079" lon="3.9111">
        <ele>95</ele>
        <time>2018-04-02T02:53:32Z</time>
      </trkpt>
      <trkpt lat="49.25085" lon="3.9114">
        <ele>94</ele>
        <time>2018-04-02T02:54:32Z</time>
      </trkpt>
      <trkpt lat="49.25098" lon="3.91218">
        <ele>93</ele>
        <time>2018-04-02T02:55:32Z</time>
      </trkpt>
      <trkpt lat="49.25107" lon="3.91276">
        <ele>92</ele>
        <time>2018-04-02T02:56:32Z</time>
      </trkpt>
      <trkpt lat="49.2511" lon="3.91301">
        <ele>92</ele>
        <time>2018-04-02T02:57:32Z</time>
      </trkpt>
      <trkpt lat="49.25111" lon="3.91303">
        <ele>92</ele>
        <time>2018-04-02T02:58:32Z</time>
      </trkpt>
      <trkpt lat="49.25114" lon="3.91326">
        <ele>91</ele>
        <time>2018-04-02T02:59:32Z</time>
      </trkpt>
      <trkpt lat="49.25115" lon="3.91349">
        <ele>91</ele>
        <time>2018-04-02T03:00:32Z</time>
      </trkpt>
      <trkpt lat="49.25116" lon="3.91351">
        <ele>92</ele>
        <time>2018-04-02T03:01:32Z</time>
      </trkpt>
      <trkpt lat="49.25116" lon="3.91358">
        <ele>92</ele>
        <time>2018-04-02T03:02:32Z</time>
      </trkpt>
      <trkpt lat="49.25115" lon="3.91363">
        <ele>92</ele>
        <time>2018-04-02T03:03:32Z</time>
      </trkpt>
      <trkpt lat="49.25116" lon="3.91377">
        <ele>92</ele>
        <time>2018-04-02T03:04:32Z</time>
      </trkpt>
      <trkpt lat="49.25116" lon="3.91391">
        <ele>92</ele>
        <time>2018-04-02T03:05:32Z</time>
      </trkpt>
      <trkpt lat="49.25114" lon="3.91399">
        <ele>92</ele>
        <time>2018-04-02T03:06:32Z</time>
      </trkpt>
      <trkpt lat="49.25113" lon="3.91444">
        <ele>92</ele>
        <time>2018-04-02T03:07:32Z</time>
      </trkpt>
      <trkpt lat="49.25117" lon="3.91571">
        <ele>92</ele>
        <time>2018-04-02T03:08:32Z</time>
      </trkpt>
      <trkpt lat="49.2512" lon="3.91683">
        <ele>91</ele>
        <time>2018-04-02T03:09:32Z</time>
      </trkpt>
      <trkpt lat="49.25122" lon="3.91791">
        <ele>90</ele>
        <time>2018-04-02T03:10:32Z</time>
      </trkpt>
      <trkpt lat="49.25124" lon="3.91881">
        <ele>89</ele>
        <time>2018-04-02T03:11:32Z</time>
      </trkpt>
      <trkpt lat="49.25125" lon="3.91908">
        <ele>89</ele>
        <time>2018-04-02T03:12:32Z</time>
      </trkpt>
      <trkpt lat="49.25126" lon="3.91984">
        <ele>87</ele>
        <time>2018-04-02T03:13:32Z</time>
      </trkpt>
      <trkpt lat="49.25125" lon="3.91998">
        <ele>87</ele>
        <time>2018-04-02T03:14:32Z</time>
      </trkpt>
      <trkpt lat="49.25126" lon="3.92001">
        <ele>87</ele>
        <time>2018-04-02T03:15:32Z</time>
      </trkpt>
      <trkpt lat="49.25126" lon="3.92023">
        <ele>87</ele>
        <time>2018-04-02T03:16:32Z</time>
      </trkpt>
      <trkpt lat="49.25127" lon="3.92038">
        <ele>87</ele>
        <time>2018-04-02T03:17:32Z</time>
      </trkpt>
      <trkpt lat="49.25127" lon="3.92056">
        <ele>87</ele>
        <time>2018-04-02T03:18:32Z</time>
      </trkpt>
      <trkpt lat="49.25128" lon="3.92112">
        <ele>87</ele>
        <time>2018-04-02T03:19:32Z</time>
      </trkpt>
      <trkpt lat="49.25128" lon="3.92144">
        <ele>87</ele>
        <time>2018-04-02T03:20:32Z</time>
      </trkpt>
      <trkpt lat="49.25129" lon="3.92179">
        <ele>86</ele>
        <time>2018-04-02T03:21:32Z</time>
      </trkpt>
      <trkpt lat="49.25129" lon="3.92198">
        <ele>86</ele>
        <time>2018-04-02T03:22:32Z</time>
      </trkpt>
      <trkpt lat="49.25129" lon="3.9221">
        <ele>86</ele>
        <time>2018-04-02T03:23:32Z</time>
      </trkpt>
      <trkpt lat="49.2513" lon="3.9222">
        <ele>86</ele>
        <time>2018-04-02T03:24:32Z</time>
      </trkpt>
      <trkpt lat="49.25131" lon="3.92228">
        <ele>86</ele>
        <time>2018-04-02T03:25:32Z</time>
      </trkpt>
      <trkpt lat="49.25133" lon="3.92242">
        <ele>86</ele>
        <time>2018-04-02T03:26:32Z</time>
      </trkpt>
      <trkpt lat="49.25143" lon="3.92274">
        <ele>87</ele>
        <time>2018-04-02T03:27:32Z</time>
      </trkpt>
      <trkpt lat="49.25146" lon="3.92282">
        <ele>87</ele>
        <time>2018-04-02T03:28:32Z</time>
      </trkpt>
      <trkpt lat="49.25151" lon="3.92295">
        <ele>87</ele>
        <time>2018-04-02T03:29:32Z</time>
      </trkpt>
      <trkpt lat="49.25154" lon="3.92307">
        <ele>87</ele>
        <time>2018-04-02T03:30:32Z</time>
      </trkpt>
      <trkpt lat="49.25155" lon="3.92317">
        <ele>87</ele>
        <time>2018-04-02T03:31:32Z</time>
      </trkpt>
      <trkpt lat="49.25157" lon="3.9233">
        <ele>87</ele>
        <time>2018-04-02T03:32:32Z</time>
      </trkpt>
      <trkpt lat="49.25157" lon="3.9233">
        <ele>87</ele>
        <time>2018-04-02T03:33:32Z</time>
      </trkpt>
      <trkpt lat="49.25155" lon="3.92335">
        <ele>87</ele>
        <time>2018-04-02T03:34:32Z</time>
      </trkpt>
      <trkpt lat="49.25153" lon="3.92341">
        <ele>87</ele>
        <time>2018-04-02T03:35:32Z</time>
      </trkpt>
      <trkpt lat="49.25152" lon="3.92344">
        <ele>87</ele>
        <time>2018-04-02T03:36:32Z</time>
      </trkpt>
      <trkpt lat="49.2515" lon="3.92349">
        <ele>88</ele>
        <time>2018-04-02T03:37:32Z</time>
      </trkpt>
      <trkpt lat="49.25149" lon="3.92355">
        <ele>88</ele>
        <time>2018-04-02T03:38:32Z</time>
      </trkpt>
      <trkpt lat="49.25148" lon="3.92361">
        <ele>88</ele>
        <time>2018-04-02T03:39:32Z</time>
      </trkpt>
      <trkpt lat="49.25149" lon="3.92367">
        <ele>88</ele>
        <time>2018-04-02T03:40:32Z</time>
      </trkpt>
      <trkpt lat="49.25149" lon="3.92371">
        <ele>88</ele>
        <time>2018-04-02T03:41:32Z</time>
      </trkpt>
      <trkpt lat="49.25155" lon="3.9238">
        <ele>88</ele>
        <time>2018-04-02T03:42:32Z</time>
      </trkpt>
      <trkpt lat="49.25157" lon="3.92383">
        <ele>88</ele>
        <time>2018-04-02T03:43:32Z</time>
      </trkpt>
      <trkpt lat="49.25162" lon="3.92387">
        <ele>88</ele>
        <time>2018-04-02T03:44:32Z</time>
      </trkpt>
      <trkpt lat="49.25167" lon="3.92389">
        <ele>88</ele>
        <time>2018-04-02T03:45:32Z</time>
      </trkpt>
      <trkpt lat="49.25173" lon="3.92389">
        <ele>88</ele>
        <time>2018-04-02T03:46:32Z</time>
      </trkpt>
      <trkpt lat="49.25174" lon="3.92389">
        <ele>88</ele>
        <time>2018-04-02T03:47:32Z</time>
      </trkpt>
      <trkpt lat="49.25178" lon="3.92389">
        <ele>88</ele>
        <time>2018-04-02T03:48:32Z</time>
      </trkpt>
      <trkpt lat="49.25181" lon="3.92388">
        <ele>88</ele>
        <time>2018-04-02T03:49:32Z</time>
      </trkpt>
      <trkpt lat="49.25187" lon="3.92395">
        <ele>88</ele>
        <time>2018-04-02T03:50:32Z</time>
      </trkpt>
      <trkpt lat="49.25192" lon="3.92404">
        <ele>88</ele>
        <time>2018-04-02T03:51:32Z</time>
      </trkpt>
      <trkpt lat="49.25196" lon="3.92412">
        <ele>89</ele>
        <time>2018-04-02T03:52:32Z</time>
      </trkpt>
      <trkpt lat="49.25201" lon="3.92422">
        <ele>89</ele>
        <time>2018-04-02T03:53:32Z</time>
      </trkpt>
      <trkpt lat="49.25204" lon="3.9243">
        <ele>89</ele>
        <time>2018-04-02T03:54:32Z</time>
      </trkpt>
      <trkpt lat="49.25207" lon="3.92441">
        <ele>89</ele>
        <time>2018-04-02T03:55:32Z</time>
      </trkpt>
      <trkpt lat="49.25209" lon="3.92451">
        <ele>89</ele>
        <time>2018-04-02T03:56:32Z</time>
      </trkpt>
      <trkpt lat="49.25212" lon="3.92461">
        <ele>89</ele>
        <time>2018-04-02T03:57:32Z</time>
      </trkpt>
      <trkpt lat="49.25214" lon="3.92475">
        <ele>89</ele>
        <time>2018-04-02T03:58:32Z</time>
      </trkpt>
      <trkpt lat="49.2522" lon="3.92496">
        <ele>90</ele>
        <time>2018-04-02T03:59:32Z</time>
      </trkpt>
      <trkpt lat="49.25226" lon="3.92519">
        <ele>90</ele>
        <time>2018-04-02T04:00:32Z</time>
      </trkpt>
      <trkpt lat="49.25237" lon="3.92554">
        <ele>90</ele>
        <time>2018-04-02T04:01:32Z</time>
      </trkpt>
      <trkpt lat="49.25252" lon="3.92603">
        <ele>90</ele>
        <time>2018-04-02T04:02:32Z</time>
      </trkpt>
      <trkpt lat="49.25272" lon="3.92666">
        <ele>90</ele>
        <time>2018-04-02T04:03:32Z</time>
      </trkpt>
      <trkpt lat="49.25292" lon="3.92728">
        <ele>92</ele>
        <time>2018-04-02T04:04:32Z</time>
      </trkpt>
      <trkpt lat="49.2531" lon="3.92786">
        <ele>92</ele>
        <time>2018-04-02T04:05:32Z</time>
      </trkpt>
      <trkpt lat="49.2532" lon="3.92821">
        <ele>92</ele>
        <time>2018-04-02T04:06:32Z</time>
      </trkpt>
      <trkpt lat="49.25338" lon="3.92877">
        <ele>91</ele>
        <time>2018-04-02T04:07:32Z</time>
      </trkpt>
      <trkpt lat="49.25361" lon="3.92953">
        <ele>89</ele>
        <time>2018-04-02T04:08:32Z</time>
      </trkpt>
      <trkpt lat="49.25381" lon="3.93016">
        <ele>89</ele>
        <time>2018-04-02T04:09:32Z</time>
      </trkpt>
      <trkpt lat="49.25421" lon="3.93149">
        <ele>86</ele>
        <time>2018-04-02T04:10:32Z</time>
      </trkpt>
      <trkpt lat="49.25455" lon="3.93261">
        <ele>85</ele>
        <time>2018-04-02T04:11:32Z</time>
      </trkpt>
      <trkpt lat="49.25464" lon="3.93292">
        <ele>85</ele>
        <time>2018-04-02T04:12:32Z</time>
      </trkpt>
      <trkpt lat="49.25488" lon="3.9337">
        <ele>84</ele>
        <time>2018-04-02T04:13:32Z</time>
      </trkpt>
      <trkpt lat="49.25511" lon="3.93445">
        <ele>83</ele>
        <time>2018-04-02T04:14:32Z</time>
      </trkpt>
      <trkpt lat="49.25516" lon="3.9346">
        <ele>83</ele>
        <time>2018-04-02T04:15:32Z</time>
      </trkpt>
      <trkpt lat="49.25521" lon="3.93477">
        <ele>83</ele>
        <time>2018-04-02T04:16:32Z</time>
      </trkpt>
      <trkpt lat="49.25554" lon="3.93589">
        <ele>83</ele>
        <time>2018-04-02T04:17:32Z</time>
      </trkpt>
      <trkpt lat="49.25565" lon="3.93623">
        <ele>83</ele>
        <time>2018-04-02T04:18:32Z</time>
      </trkpt>
      <trkpt lat="49.2559" lon="3.93709">
        <ele>84</ele>
        <time>2018-04-02T04:19:32Z</time>
      </trkpt>
      <trkpt lat="49.25629" lon="3.93837">
        <ele>85</ele>
        <time>2018-04-02T04:20:32Z</time>
      </trkpt>
      <trkpt lat="49.2565" lon="3.93908">
        <ele>84</ele>
        <time>2018-04-02T04:21:32Z</time>
      </trkpt>
      <trkpt lat="49.25688" lon="3.94033">
        <ele>84</ele>
        <time>2018-04-02T04:22:32Z</time>
      </trkpt>
      <trkpt lat="49.25723" lon="3.94149">
        <ele>84</ele>
        <time>2018-04-02T04:23:32Z</time>
      </trkpt>
      <trkpt lat="49.25756" lon="3.94259">
        <ele>84</ele>
        <time>2018-04-02T04:24:32Z</time>
      </trkpt>
      <trkpt lat="49.25794" lon="3.94384">
        <ele>84</ele>
        <time>2018-04-02T04:25:32Z</time>
      </trkpt>
      <trkpt lat="49.25822" lon="3.9448">
        <ele>84</ele>
        <time>2018-04-02T04:26:32Z</time>
      </trkpt>
      <trkpt lat="49.25853" lon="3.94582">
        <ele>85</ele>
        <time>2018-04-02T04:27:32Z</time>
      </trkpt>
      <trkpt lat="49.25887" lon="3.94693">
        <ele>87</ele>
        <time>2018-04-02T04:28:32Z</time>
      </trkpt>
      <trkpt lat="49.25899" lon="3.94728">
        <ele>87</ele>
        <time>2018-04-02T04:29:32Z</time>
      </trkpt>
      <trkpt lat="49.25906" lon="3.9475">
        <ele>87</ele>
        <time>2018-04-02T04:30:32Z</time>
      </trkpt>
      <trkpt lat="49.25914" lon="3.94772">
        <ele>87</ele>
        <time>2018-04-02T04:31:32Z</time>
      </trkpt>
      <trkpt lat="49.25921" lon="3.94793">
        <ele>87</ele>
        <time>2018-04-02T04:32:32Z</time>
      </trkpt>
      <trkpt lat="49.25929" lon="3.94812">
        <ele>87</ele>
        <time>2018-04-02T04:33:32Z</time>
      </trkpt>
      <trkpt lat="49.25938" lon="3.94831">
        <ele>87</ele>
        <time>2018-04-02T04:34:32Z</time>
      </trkpt>
      <trkpt lat="49.25947" lon="3.9485">
        <ele>86</ele>
        <time>2018-04-02T04:35:32Z</time>
      </trkpt>
      <trkpt lat="49.25953" lon="3.94861">
        <ele>86</ele>
        <time>2018-04-02T04:36:32Z</time>
      </trkpt>
      <trkpt lat="49.25957" lon="3.94868">
        <ele>86</ele>
        <time>2018-04-02T04:37:32Z</time>
      </trkpt>
      <trkpt lat="49.25966" lon="3.94883">
        <ele>86</ele>
        <time>2018-04-02T04:38:32Z</time>
      </trkpt>
      <trkpt lat="49.25975" lon="3.94897">
        <ele>86</ele>
        <time>2018-04-02T04:39:32Z</time>
      </trkpt>
      <trkpt lat="49.25983" lon="3.94909">
        <ele>85</ele>
        <time>2018-04-02T04:40:32Z</time>
      </trkpt>
      <trkpt lat="49.25986" lon="3.9492">
        <ele>85</ele>
        <time>2018-04-02T04:41:32Z</time>
      </trkpt>
      <trkpt lat="49.25997" lon="3.9494">
        <ele>85</ele>
        <time>2018-04-02T04:42:32Z</time>
      </trkpt>
      <trkpt lat="49.26005" lon="3.94956">
        <ele>85</ele>
        <time>2018-04-02T04:43:32Z</time>
      </trkpt>
      <trkpt lat="49.26007" lon="3.94964">
        <ele>85</ele>
        <time>2018-04-02T04:44:32Z</time>
      </trkpt>
      <trkpt lat="49.26009" lon="3.94971">
        <ele>85</ele>
        <time>2018-04-02T04:45:32Z</time>
      </trkpt>
      <trkpt lat="49.26012" lon="3.94981">
        <ele>85</ele>
        <time>2018-04-02T04:46:32Z</time>
      </trkpt>
      <trkpt lat="49.26012" lon="3.94981">
        <ele>85</ele>
        <time>2018-04-02T04:47:32Z</time>
      </trkpt>
      <trkpt lat="49.26011" lon="3.94983">
        <ele>85</ele>
        <time>2018-04-02T04:48:32Z</time>
      </trkpt>
      <trkpt lat="49.26011" lon="3.94985">
        <ele>85</ele>
        <time>2018-04-02T04:49:32Z</time>
      </trkpt>
      <trkpt lat="49.2601" lon="3.94987">
        <ele>85</ele>
        <time>2018-04-02T04:50:32Z</time>
      </trkpt>
      <trkpt lat="49.2601" lon="3.94989">
        <ele>85</ele>
        <time>2018-04-02T04:51:32Z</time>
      </trkpt>
      <trkpt lat="49.2601" lon="3.94991">
        <ele>85</ele>
        <time>2018-04-02T04:52:32Z</time>
      </trkpt>
      <trkpt lat="49.26009" lon="3.94993">
        <ele>85</ele>
        <time>2018-04-02T04:53:32Z</time>
      </trkpt>
      <trkpt lat="49.26009" lon="3.94995">
        <ele>85</ele>
        <time>2018-04-02T04:54:32Z</time>
      </trkpt>
      <trkpt lat="49.26009" lon="3.94997">
        <ele>85</ele>
        <time>2018-04-02T04:55:32Z</time>
      </trkpt>
      <trkpt lat="49.26009" lon="3.95">
        <ele>85</ele>
        <time>2018-04-02T04:56:32Z</time>
      </trkpt>
      <trkpt lat="49.26009" lon="3.95002">
        <ele>85</ele>
        <time>2018-04-02T04:57:32Z</time>
      </trkpt>
      <trkpt lat="49.26009" lon="3.95004">
        <ele>85</ele>
        <time>2018-04-02T04:58:32Z</time>
      </trkpt>
      <trkpt lat="49.26009" lon="3.95007">
        <ele>85</ele>
        <time>2018-04-02T04:59:32Z</time>
      </trkpt>
      <trkpt lat="49.2601" lon="3.95009">
        <ele>86</ele>
        <time>2018-04-02T05:00:32Z</time>
      </trkpt>
      <trkpt lat="49.2601" lon="3.95012">
        <ele>86</ele>
        <time>2018-04-02T05:01:32Z</time>
      </trkpt>
      <trkpt lat="49.26011" lon="3.95014">
        <ele>86</ele>
        <time>2018-04-02T05:02:32Z</time>
      </trkpt>
      <trkpt lat="49.26011" lon="3.95016">
        <ele>86</ele>
        <time>2018-04-02T05:03:32Z</time>
      </trkpt>
      <trkpt lat="49.26012" lon="3.95018">
        <ele>86</ele>
        <time>2018-04-02T05:04:32Z</time>
      </trkpt>
      <trkpt lat="49.26012" lon="3.9502">
        <ele>86</ele>
        <time>2018-04-02T05:05:32Z</time>
      </trkpt>
      <trkpt lat="49.26013" lon="3.95021">
        <ele>86</ele>
        <time>2018-04-02T05:06:32Z</time>
      </trkpt>
      <trkpt lat="49.26014" lon="3.95023">
        <ele>86</ele>
        <time>2018-04-02T05:07:32Z</time>
      </trkpt>
      <trkpt lat="49.26015" lon="3.95024">
        <ele>86</ele>
        <time>2018-04-02T05:08:32Z</time>
      </trkpt>
      <trkpt lat="49.26015" lon="3.95026">
        <ele>86</ele>
        <time>2018-04-02T05:09:32Z</time>
      </trkpt>
      <trkpt lat="49.26016" lon="3.95027">
        <ele>86</ele>
        <time>2018-04-02T05:10:32Z</time>
      </trkpt>
      <trkpt lat="49.26017" lon="3.95029">
        <ele>86</ele>
        <time>2018-04-02T05:11:32Z</time>
      </trkpt>
      <trkpt lat="49.26015" lon="3.95047">
        <ele>87</ele>
        <time>2018-04-02T05:12:32Z</time>
      </trkpt>
      <trkpt lat="49.26013" lon="3.95059">
        <ele>87</ele>
        <time>2018-04-02T05:13:32Z</time>
      </trkpt>
      <trkpt lat="49.26007" lon="3.95083">
        <ele>87</ele>
        <time>2018-04-02T05:14:32Z</time>
      </trkpt>
      <trkpt lat="49.25991" lon="3.95149">
        <ele>88</ele>
        <time>2018-04-02T05:15:32Z</time>
      </trkpt>
      <trkpt lat="49.25974" lon="3.95218">
        <ele>88</ele>
        <time>2018-04-02T05:16:32Z</time>
      </trkpt>
      <trkpt lat="49.25957" lon="3.95283">
        <ele>87</ele>
        <time>2018-04-02T05:17:32Z</time>
      </trkpt>
      <trkpt lat="49.25938" lon="3.95357">
        <ele>86</ele>
        <time>2018-04-02T05:18:32Z</time>
      </trkpt>
      <trkpt lat="49.25929" lon="3.95393">
        <ele>86</ele>
        <time>2018-04-02T05:19:32Z</time>
      </trkpt>
      <trkpt lat="49.25905" lon="3.95487">
        <ele>84</ele>
        <time>2018-04-02T05:20:32Z</time>
      </trkpt>
      <trkpt lat="49.25892" lon="3.95539">
        <ele>84</ele>
        <time>2018-04-02T05:21:32Z</time>
      </trkpt>
      <trkpt lat="49.25872" lon="3.95623">
        <ele>84</ele>
        <time>2018-04-02T05:22:32Z</time>
      </trkpt>
      <trkpt lat="49.25863" lon="3.95657">
        <ele>84</ele>
        <time>2018-04-02T05:23:32Z</time>
      </trkpt>
      <trkpt lat="49.2585" lon="3.95711">
        <ele>84</ele>
        <time>2018-04-02T05:24:32Z</time>
      </trkpt>
      <trkpt lat="49.25822" lon="3.95821">
        <ele>83</ele>
        <time>2018-04-02T05:25:32Z</time>
      </trkpt>
      <trkpt lat="49.25803" lon="3.95895">
        <ele>84</ele>
        <time>2018-04-02T05:26:32Z</time>
      </trkpt>
      <trkpt lat="49.25798" lon="3.95915">
        <ele>84</ele>
        <time>2018-04-02T05:27:32Z</time>
      </trkpt>
      <trkpt lat="49.25793" lon="3.95934">
        <ele>84</ele>
        <time>2018-04-02T05:28:32Z</time>
      </trkpt>
      <trkpt lat="49.25787" lon="3.95958">
        <ele>84</ele>
        <time>2018-04-02T05:29:32Z</time>
      </trkpt>
      <trkpt lat="49.25771" lon="3.96014">
        <ele>85</ele>
        <time>2018-04-02T05:30:32Z</time>
      </trkpt>
      <trkpt lat="49.25738" lon="3.96138">
        <ele>85</ele>
        <time>2018-04-02T05:31:32Z</time>
      </trkpt>
      <trkpt lat="49.25729" lon="3.96174">
        <ele>85</ele>
        <time>2018-04-02T05:32:32Z</time>
      </trkpt>
      <trkpt lat="49.25719" lon="3.96209">
        <ele>85</ele>
        <time>2018-04-02T05:33:32Z</time>
      </trkpt>
      <trkpt lat="49.25718" lon="3.96211">
        <ele>85</ele>
        <time>2018-04-02T05:34:32Z</time>
      </trkpt>
      <trkpt lat="49.25712" lon="3.96232">
        <ele>85</ele>
        <time>2018-04-02T05:35:32Z</time>
      </trkpt>
      <trkpt lat="49.25707" lon="3.96253">
        <ele>85</ele>
        <time>2018-04-02T05:36:32Z</time>
      </trkpt>
      <trkpt lat="49.25695" lon="3.96296">
        <ele>85</ele>
        <time>2018-04-02T05:37:32Z</time>
      </trkpt>
      <trkpt lat="49.25677" lon="3.96361">
        <ele>83</ele>
        <time>2018-04-02T05:38:32Z</time>
      </trkpt>
      <trkpt lat="49.2566" lon="3.96423">
        <ele>82</ele>
        <time>2018-04-02T05:39:32Z</time>
      </trkpt>
      <trkpt lat="49.25643" lon="3.96484">
        <ele>81</ele>
        <time>2018-04-02T05:40:32Z</time>
      </trkpt>
      <trkpt lat="49.25624" lon="3.96548">
        <ele>81</ele>
        <time>2018-04-02T05:41:32Z</time>
      </trkpt>
      <trkpt lat="49.2561" lon="3.96596">
        <ele>80</ele>
        <time>2018-04-02T05:42:32Z</time>
      </trkpt>
      <trkpt lat="49.25606" lon="3.96608">
        <ele>79</ele>
        <time>2018-04-02T05:43:32Z</time>
      </trkpt>
      <trkpt lat="49.25605" lon="3.96611">
        <ele>79</ele>
        <time>2018-04-02T05:44:32Z</time>
      </trkpt>
      <trkpt lat="49.25603" lon="3.96615">
        <ele>79</ele>
        <time>2018-04-02T05:45:32Z</time>
      </trkpt>
      <trkpt lat="49.25602" lon="3.96618">
        <ele>79</ele>
        <time>2018-04-02T05:46:32Z</time>
      </trkpt>
      <trkpt lat="49.256" lon="3.96621">
        <ele>79</ele>
        <time>2018-04-02T05:47:32Z</time>
      </trkpt>
      <trkpt lat="49.25597" lon="3.96624">
        <ele>79</ele>
        <time>2018-04-02T05:48:32Z</time>
      </trkpt>
      <trkpt lat="49.25597" lon="3.96624">
        <ele>79</ele>
        <time>2018-04-02T05:49:32Z</time>
      </trkpt>
      <trkpt lat="49.25594" lon="3.96624">
        <ele>79</ele>
        <time>2018-04-02T05:50:32Z</time>
      </trkpt>
      <trkpt lat="49.25592" lon="3.96625">
        <ele>79</ele>
        <time>2018-04-02T05:51:32Z</time>
      </trkpt>
      <trkpt lat="49.2559" lon="3.96625">
        <ele>79</ele>
        <time>2018-04-02T05:52:32Z</time>
      </trkpt>
      <trkpt lat="49.25588" lon="3.96627">
        <ele>79</ele>
        <time>2018-04-02T05:53:32Z</time>
      </trkpt>
      <trkpt lat="49.25586" lon="3.96628">
        <ele>79</ele>
        <time>2018-04-02T05:54:32Z</time>
      </trkpt>
      <trkpt lat="49.25584" lon="3.9663">
        <ele>79</ele>
        <time>2018-04-02T05:55:32Z</time>
      </trkpt>
      <trkpt lat="49.25583" lon="3.96632">
        <ele>79</ele>
        <time>2018-04-02T05:56:32Z</time>
      </trkpt>
      <trkpt lat="49.25581" lon="3.96635">
        <ele>79</ele>
        <time>2018-04-02T05:57:32Z</time>
      </trkpt>
      <trkpt lat="49.2558" lon="3.96637">
        <ele>79</ele>
        <time>2018-04-02T05:58:32Z</time>
      </trkpt>
      <trkpt lat="49.25578" lon="3.96641">
        <ele>79</ele>
        <time>2018-04-02T05:59:32Z</time>
      </trkpt>
      <trkpt lat="49.25577" lon="3.96643">
        <ele>78</ele>
        <time>2018-04-02T06:00:32Z</time>
      </trkpt>
      <trkpt lat="49.25576" lon="3.96646">
        <ele>78</ele>
        <time>2018-04-02T06:01:32Z</time>
      </trkpt>
      <trkpt lat="49.25575" lon="3.96649">
        <ele>78</ele>
        <time>2018-04-02T06:02:32Z</time>
      </trkpt>
      <trkpt lat="49.25575" lon="3.96653">
        <ele>78</ele>
        <time>2018-04-02T06:03:32Z</time>
      </trkpt>
      <trkpt lat="49.25575" lon="3.96656">
        <ele>78</ele>
        <time>2018-04-02T06:04:32Z</time>
      </trkpt>
      <trkpt lat="49.25574" lon="3.96659">
        <ele>78</ele>
        <time>2018-04-02T06:05:32Z</time>
      </trkpt>
      <trkpt lat="49.25574" lon="3.96662">
        <ele>78</ele>
        <time>2018-04-02T06:06:32Z</time>
      </trkpt>
      <trkpt lat="49.25575" lon="3.96665">
        <ele>78</ele>
        <time>2018-04-02T06:07:32Z</time>
      </trkpt>
      <trkpt lat="49.25575" lon="3.96668">
        <ele>78</ele>
        <time>2018-04-02T06:08:32Z</time>
      </trkpt>
      <trkpt lat="49.25576" lon="3.96671">
        <ele>78</ele>
        <time>2018-04-02T06:09:32Z</time>
      </trkpt>
      <trkpt lat="49.25576" lon="3.96673">
        <ele>78</ele>
        <time>2018-04-02T06:10:32Z</time>
      </trkpt>
      <trkpt lat="49.25577" lon="3.96676">
        <ele>78</ele>
        <time>2018-04-02T06:11:32Z</time>
      </trkpt>
      <trkpt lat="49.25578" lon="3.96678">
        <ele>78</ele>
        <time>2018-04-02T06:12:32Z</time>
      </trkpt>
      <trkpt lat="49.25579" lon="3.9668">
        <ele>78</ele>
        <time>2018-04-02T06:13:32Z</time>
      </trkpt>
      <trkpt lat="49.2558" lon="3.96682">
        <ele>78</ele>
        <time>2018-04-02T06:14:32Z</time>
      </trkpt>
      <trkpt lat="49.25581" lon="3.96684">
        <ele>78</ele>
        <time>2018-04-02T06:15:32Z</time>
      </trkpt>
      <trkpt lat="49.25583" lon="3.96686">
        <ele>78</ele>
        <time>2018-04-02T06:16:32Z</time>
      </trkpt>
      <trkpt lat="49.25584" lon="3.96689">
        <ele>78</ele>
        <time>2018-04-02T06:17:32Z</time>
      </trkpt>
      <trkpt lat="49.25586" lon="3.9669">
        <ele>78</ele>
        <time>2018-04-02T06:18:32Z</time>
      </trkpt>
      <trkpt lat="49.25588" lon="3.96692">
        <ele>78</ele>
        <time>2018-04-02T06:19:32Z</time>
      </trkpt>
      <trkpt lat="49.2559" lon="3.96693">
        <ele>78</ele>
        <time>2018-04-02T06:20:32Z</time>
      </trkpt>
      <trkpt lat="49.25592" lon="3.96694">
        <ele>78</ele>
        <time>2018-04-02T06:21:32Z</time>
      </trkpt>
      <trkpt lat="49.25595" lon="3.96695">
        <ele>78</ele>
        <time>2018-04-02T06:22:32Z</time>
      </trkpt>
      <trkpt lat="49.25597" lon="3.96695">
        <ele>78</ele>
        <time>2018-04-02T06:23:32Z</time>
      </trkpt>
      <trkpt lat="49.25599" lon="3.96695">
        <ele>78</ele>
        <time>2018-04-02T06:24:32Z</time>
      </trkpt>
      <trkpt lat="49.25602" lon="3.96694">
        <ele>78</ele>
        <time>2018-04-02T06:25:32Z</time>
      </trkpt>
      <trkpt lat="49.25604" lon="3.96694">
        <ele>78</ele>
        <time>2018-04-02T06:26:32Z</time>
      </trkpt>
      <trkpt lat="49.25607" lon="3.96692">
        <ele>78</ele>
        <time>2018-04-02T06:27:32Z</time>
      </trkpt>
      <trkpt lat="49.25609" lon="3.96691">
        <ele>78</ele>
        <time>2018-04-02T06:28:32Z</time>
      </trkpt>
      <trkpt lat="49.25611" lon="3.96689">
        <ele>78</ele>
        <time>2018-04-02T06:29:32Z</time>
      </trkpt>
      <trkpt lat="49.25613" lon="3.96686">
        <ele>78</ele>
        <time>2018-04-02T06:30:32Z</time>
      </trkpt>
      <trkpt lat="49.25615" lon="3.96684">
        <ele>78</ele>
        <time>2018-04-02T06:31:32Z</time>
      </trkpt>
      <trkpt lat="49.25621" lon="3.96684">
        <ele>78</ele>
        <time>2018-04-02T06:32:32Z</time>
      </trkpt>
      <trkpt lat="49.2563" lon="3.96686">
        <ele>78</ele>
        <time>2018-04-02T06:33:32Z</time>
      </trkpt>
      <trkpt lat="49.25635" lon="3.96689">
        <ele>78</ele>
        <time>2018-04-02T06:34:32Z</time>
      </trkpt>
      <trkpt lat="49.25644" lon="3.96693">
        <ele>78</ele>
        <time>2018-04-02T06:35:32Z</time>
      </trkpt>
      <trkpt lat="49.25668" lon="3.96708">
        <ele>78</ele>
        <time>2018-04-02T06:36:32Z</time>
      </trkpt>
      <trkpt lat="49.257" lon="3.96729">
        <ele>79</ele>
        <time>2018-04-02T06:37:32Z</time>
      </trkpt>
      <trkpt lat="49.25717" lon="3.9674">
        <ele>80</ele>
        <time>2018-04-02T06:38:32Z</time>
      </trkpt>
      <trkpt lat="49.25724" lon="3.96745">
        <ele>80</ele>
        <time>2018-04-02T06:39:32Z</time>
      </trkpt>
      <trkpt lat="49.25729" lon="3.9675">
        <ele>80</ele>
        <time>2018-04-02T06:40:32Z</time>
      </trkpt>
      <trkpt lat="49.25729" lon="3.9675">
        <ele>80</ele>
        <time>2018-04-02T06:41:32Z</time>
      </trkpt>
      <trkpt lat="49.25729" lon="3.96751">
        <ele>81</ele>
        <time>2018-04-02T06:42:32Z</time>
      </trkpt>
      <trkpt lat="49.25729" lon="3.96753">
        <ele>81</ele>
        <time>2018-04-02T06:43:32Z</time>
      </trkpt>
      <trkpt lat="49.2573" lon="3.96755">
        <ele>81</ele>
        <time>2018-04-02T06:44:32Z</time>
      </trkpt>
      <trkpt lat="49.2573" lon="3.96757">
        <ele>81</ele>
        <time>2018-04-02T06:45:32Z</time>
      </trkpt>
      <trkpt lat="49.2573" lon="3.96759">
        <ele>81</ele>
        <time>2018-04-02T06:46:32Z</time>
      </trkpt>
      <trkpt lat="49.25731" lon="3.96761">
        <ele>81</ele>
        <time>2018-04-02T06:47:32Z</time>
      </trkpt>
      <trkpt lat="49.25731" lon="3.96762">
        <ele>81</ele>
        <time>2018-04-02T06:48:32Z</time>
      </trkpt>
      <trkpt lat="49.25732" lon="3.96764">
        <ele>82</ele>
        <time>2018-04-02T06:49:32Z</time>
      </trkpt>
      <trkpt lat="49.25733" lon="3.96766">
        <ele>82</ele>
        <time>2018-04-02T06:50:32Z</time>
      </trkpt>
      <trkpt lat="49.25734" lon="3.96768">
        <ele>82</ele>
        <time>2018-04-02T06:51:32Z</time>
      </trkpt>
      <trkpt lat="49.25734" lon="3.96769">
        <ele>82</ele>
        <time>2018-04-02T06:52:32Z</time>
      </trkpt>
      <trkpt lat="49.25735" lon="3.9677">
        <ele>82</ele>
        <time>2018-04-02T06:53:32Z</time>
      </trkpt>
      <trkpt lat="49.25736" lon="3.96771">
        <ele>82</ele>
        <time>2018-04-02T06:54:32Z</time>
      </trkpt>
      <trkpt lat="49.25738" lon="3.96773">
        <ele>82</ele>
        <time>2018-04-02T06:55:32Z</time>
      </trkpt>
      <trkpt lat="49.25739" lon="3.96774">
        <ele>82</ele>
        <time>2018-04-02T06:56:32Z</time>
      </trkpt>
      <trkpt lat="49.2574" lon="3.96774">
        <ele>82</ele>
        <time>2018-04-02T06:57:32Z</time>
      </trkpt>
      <trkpt lat="49.25741" lon="3.96775">
        <ele>83</ele>
        <time>2018-04-02T06:58:32Z</time>
      </trkpt>
      <trkpt lat="49.25742" lon="3.96775">
        <ele>83</ele>
        <time>2018-04-02T06:59:32Z</time>
      </trkpt>
      <trkpt lat="49.25743" lon="3.96776">
        <ele>83</ele>
        <time>2018-04-02T07:00:32Z</time>
      </trkpt>
      <trkpt lat="49.25744" lon="3.96776">
        <ele>83</ele>
        <time>2018-04-02T07:01:32Z</time>
      </trkpt>
      <trkpt lat="49.25745" lon="3.96776">
        <ele>83</ele>
        <time>2018-04-02T07:02:32Z</time>
      </trkpt>
      <trkpt lat="49.25746" lon="3.96776">
        <ele>83</ele>
        <time>2018-04-02T07:03:32Z</time>
      </trkpt>
      <trkpt lat="49.25747" lon="3.96776">
        <ele>83</ele>
        <time>2018-04-02T07:04:32Z</time>
      </trkpt>
      <trkpt lat="49.25748" lon="3.96776">
        <ele>83</ele>
        <time>2018-04-02T07:05:32Z</time>
      </trkpt>
      <trkpt lat="49.2575" lon="3.96775">
        <ele>83</ele>
        <time>2018-04-02T07:06:32Z</time>
      </trkpt>
      <trkpt lat="49.25751" lon="3.96775">
        <ele>83</ele>
        <time>2018-04-02T07:07:32Z</time>
      </trkpt>
      <trkpt lat="49.25752" lon="3.96774">
        <ele>83</ele>
        <time>2018-04-02T07:08:32Z</time>
      </trkpt>
      <trkpt lat="49.25753" lon="3.96773">
        <ele>83</ele>
        <time>2018-04-02T07:09:32Z</time>
      </trkpt>
      <trkpt lat="49.25754" lon="3.96773">
        <ele>83</ele>
        <time>2018-04-02T07:10:32Z</time>
      </trkpt>
      <trkpt lat="49.25755" lon="3.96771">
        <ele>83</ele>
        <time>2018-04-02T07:11:32Z</time>
      </trkpt>
      <trkpt lat="49.25756" lon="3.9677">
        <ele>83</ele>
        <time>2018-04-02T07:12:32Z</time>
      </trkpt>
      <trkpt lat="49.25757" lon="3.96769">
        <ele>83</ele>
        <time>2018-04-02T07:13:32Z</time>
      </trkpt>
      <trkpt lat="49.25757" lon="3.96768">
        <ele>83</ele>
        <time>2018-04-02T07:14:32Z</time>
      </trkpt>
      <trkpt lat="49.25758" lon="3.96767">
        <ele>82</ele>
        <time>2018-04-02T07:15:32Z</time>
      </trkpt>
      <trkpt lat="49.25759" lon="3.96766">
        <ele>82</ele>
        <time>2018-04-02T07:16:32Z</time>
      </trkpt>
      <trkpt lat="49.25759" lon="3.96764">
        <ele>82</ele>
        <time>2018-04-02T07:17:32Z</time>
      </trkpt>
      <trkpt lat="49.2576" lon="3.96763">
        <ele>82</ele>
        <time>2018-04-02T07:18:32Z</time>
      </trkpt>
      <trkpt lat="49.2576" lon="3.96762">
        <ele>82</ele>
        <time>2018-04-02T07:19:32Z</time>
      </trkpt>
      <trkpt lat="49.25761" lon="3.96761">
        <ele>82</ele>
        <time>2018-04-02T07:20:32Z</time>
      </trkpt>
      <trkpt lat="49.25761" lon="3.96759">
        <ele>82</ele>
        <time>2018-04-02T07:21:32Z</time>
      </trkpt>
      <trkpt lat="49.25761" lon="3.96758">
        <ele>82</ele>
        <time>2018-04-02T07:22:32Z</time>
      </trkpt>
      <trkpt lat="49.25761" lon="3.96756">
        <ele>82</ele>
        <time>2018-04-02T07:23:32Z</time>
      </trkpt>
      <trkpt lat="49.25762" lon="3.96755">
        <ele>82</ele>
        <time>2018-04-02T07:24:32Z</time>
      </trkpt>
      <trkpt lat="49.25762" lon="3.96753">
        <ele>82</ele>
        <time>2018-04-02T07:25:32Z</time>
      </trkpt>
      <trkpt lat="49.25762" lon="3.96752">
        <ele>82</ele>
        <time>2018-04-02T07:26:32Z</time>
      </trkpt>
      <trkpt lat="49.25762" lon="3.9675">
        <ele>81</ele>
        <time>2018-04-02T07:27:32Z</time>
      </trkpt>
      <trkpt lat="49.25771" lon="3.96741">
        <ele>81</ele>
        <time>2018-04-02T07:28:32Z</time>
      </trkpt>
      <trkpt lat="49.25777" lon="3.96735">
        <ele>81</ele>
        <time>2018-04-02T07:29:32Z</time>
      </trkpt>
      <trkpt lat="49.25784" lon="3.96728">
        <ele>81</ele>
        <time>2018-04-02T07:30:32Z</time>
      </trkpt>
      <trkpt lat="49.25792" lon="3.96721">
        <ele>81</ele>
        <time>2018-04-02T07:31:32Z</time>
      </trkpt>
      <trkpt lat="49.25805" lon="3.96712">
        <ele>81</ele>
        <time>2018-04-02T07:32:32Z</time>
      </trkpt>
      <trkpt lat="49.25836" lon="3.96693">
        <ele>81</ele>
        <time>2018-04-02T07:33:32Z</time>
      </trkpt>
      <trkpt lat="49.25903" lon="3.96654">
        <ele>79</ele>
        <time>2018-04-02T07:34:32Z</time>
      </trkpt>
      <trkpt lat="49.2597" lon="3.96614">
        <ele>78</ele>
        <time>2018-04-02T07:35:32Z</time>
      </trkpt>
      <trkpt lat="49.26037" lon="3.96574">
        <ele>77</ele>
        <time>2018-04-02T07:36:32Z</time>
      </trkpt>
      <trkpt lat="49.26044" lon="3.9657">
        <ele>77</ele>
        <time>2018-04-02T07:37:32Z</time>
      </trkpt>
      <trkpt lat="49.26048" lon="3.96566">
        <ele>77</ele>
        <time>2018-04-02T07:38:32Z</time>
      </trkpt>
      <trkpt lat="49.2605" lon="3.96567">
        <ele>77</ele>
        <time>2018-04-02T07:39:32Z</time>
      </trkpt>
      <trkpt lat="49.26051" lon="3.96568">
        <ele>77</ele>
        <time>2018-04-02T07:40:32Z</time>
      </trkpt>
      <trkpt lat="49.26053" lon="3.96569">
        <ele>77</ele>
        <time>2018-04-02T07:41:32Z</time>
      </trkpt>
      <trkpt lat="49.26055" lon="3.96569">
        <ele>77</ele>
        <time>2018-04-02T07:42:32Z</time>
      </trkpt>
      <trkpt lat="49.26056" lon="3.96569">
        <ele>77</ele>
        <time>2018-04-02T07:43:32Z</time>
      </trkpt>
      <trkpt lat="49.26058" lon="3.96569">
        <ele>77</ele>
        <time>2018-04-02T07:44:32Z</time>
      </trkpt>
      <trkpt lat="49.2606" lon="3.96568">
        <ele>77</ele>
        <time>2018-04-02T07:45:32Z</time>
      </trkpt>
      <trkpt lat="49.26061" lon="3.96567">
        <ele>77</ele>
        <time>2018-04-02T07:46:32Z</time>
      </trkpt>
      <trkpt lat="49.26063" lon="3.96566">
        <ele>77</ele>
        <time>2018-04-02T07:47:32Z</time>
      </trkpt>
      <trkpt lat="49.26064" lon="3.96564">
        <ele>77</ele>
        <time>2018-04-02T07:48:32Z</time>
      </trkpt>
      <trkpt lat="49.26065" lon="3.96563">
        <ele>77</ele>
        <time>2018-04-02T07:49:32Z</time>
      </trkpt>
      <trkpt lat="49.26066" lon="3.96561">
        <ele>77</ele>
        <time>2018-04-02T07:50:32Z</time>
      </trkpt>
      <trkpt lat="49.26067" lon="3.96558">
        <ele>77</ele>
        <time>2018-04-02T07:51:32Z</time>
      </trkpt>
      <trkpt lat="49.26108" lon="3.9655">
        <ele>77</ele>
        <time>2018-04-02T07:52:32Z</time>
      </trkpt>
      <trkpt lat="49.26156" lon="3.96541">
        <ele>75</ele>
        <time>2018-04-02T07:53:32Z</time>
      </trkpt>
      <trkpt lat="49.26191" lon="3.96534">
        <ele>75</ele>
        <time>2018-04-02T07:54:32Z</time>
      </trkpt>
      <trkpt lat="49.26198" lon="3.96534">
        <ele>75</ele>
        <time>2018-04-02T07:55:32Z</time>
      </trkpt>
      <trkpt lat="49.26202" lon="3.96534">
        <ele>76</ele>
        <time>2018-04-02T07:56:32Z</time>
      </trkpt>
      <trkpt lat="49.26208" lon="3.96536">
        <ele>76</ele>
        <time>2018-04-02T07:57:32Z</time>
      </trkpt>
      <trkpt lat="49.26212" lon="3.96539">
        <ele>76</ele>
        <time>2018-04-02T07:58:32Z</time>
      </trkpt>
      <trkpt lat="49.26216" lon="3.96543">
        <ele>76</ele>
        <time>2018-04-02T07:59:32Z</time>
      </trkpt>
      <trkpt lat="49.2622" lon="3.9655">
        <ele>76</ele>
        <time>2018-04-02T08:00:32Z</time>
      </trkpt>
      <trkpt lat="49.26238" lon="3.96579">
        <ele>75</ele>
        <time>2018-04-02T08:01:32Z</time>
      </trkpt>
      <trkpt lat="49.2624" lon="3.96581">
        <ele>75</ele>
        <time>2018-04-02T08:02:32Z</time>
      </trkpt>
      <trkpt lat="49.26242" lon="3.96583">
        <ele>75</ele>
        <time>2018-04-02T08:03:32Z</time>
      </trkpt>
      <trkpt lat="49.26244" lon="3.96584">
        <ele>75</ele>
        <time>2018-04-02T08:04:32Z</time>
      </trkpt>
      <trkpt lat="49.26248" lon="3.96585">
        <ele>75</ele>
        <time>2018-04-02T08:05:32Z</time>
      </trkpt>
      <trkpt lat="49.26248" lon="3.96585">
        <ele>75</ele>
        <time>2018-04-02T08:06:32Z</time>
      </trkpt>
      <trkpt lat="49.26248" lon="3.96588">
        <ele>75</ele>
        <time>2018-04-02T08:07:32Z</time>
      </trkpt>
      <trkpt lat="49.26248" lon="3.9659">
        <ele>75</ele>
        <time>2018-04-02T08:08:32Z</time>
      </trkpt>
      <trkpt lat="49.26248" lon="3.96592">
        <ele>75</ele>
        <time>2018-04-02T08:09:32Z</time>
      </trkpt>
      <trkpt lat="49.26248" lon="3.96593">
        <ele>75</ele>
        <time>2018-04-02T08:10:32Z</time>
      </trkpt>
      <trkpt lat="49.26248" lon="3.96595">
        <ele>75</ele>
        <time>2018-04-02T08:11:32Z</time>
      </trkpt>
      <trkpt lat="49.26249" lon="3.96597">
        <ele>75</ele>
        <time>2018-04-02T08:12:32Z</time>
      </trkpt>
      <trkpt lat="49.26249" lon="3.96599">
        <ele>75</ele>
        <time>2018-04-02T08:13:32Z</time>
      </trkpt>
      <trkpt lat="49.2625" lon="3.966">
        <ele>75</ele>
        <time>2018-04-02T08:14:32Z</time>
      </trkpt>
      <trkpt lat="49.2625" lon="3.96602">
        <ele>75</ele>
        <time>2018-04-02T08:15:32Z</time>
      </trkpt>
      <trkpt lat="49.26251" lon="3.96603">
        <ele>75</ele>
        <time>2018-04-02T08:16:32Z</time>
      </trkpt>
      <trkpt lat="49.26252" lon="3.96605">
        <ele>75</ele>
        <time>2018-04-02T08:17:32Z</time>
      </trkpt>
      <trkpt lat="49.26253" lon="3.96606">
        <ele>75</ele>
        <time>2018-04-02T08:18:32Z</time>
      </trkpt>
      <trkpt lat="49.26254" lon="3.96607">
        <ele>75</ele>
        <time>2018-04-02T08:19:32Z</time>
      </trkpt>
      <trkpt lat="49.26255" lon="3.96608">
        <ele>75</ele>
        <time>2018-04-02T08:20:32Z</time>
      </trkpt>
      <trkpt lat="49.26256" lon="3.96609">
        <ele>75</ele>
        <time>2018-04-02T08:21:32Z</time>
      </trkpt>
      <trkpt lat="49.26257" lon="3.9661">
        <ele>75</ele>
        <time>2018-04-02T08:22:32Z</time>
      </trkpt>
      <trkpt lat="49.26258" lon="3.96611">
        <ele>75</ele>
        <time>2018-04-02T08:23:32Z</time>
      </trkpt>
      <trkpt lat="49.26259" lon="3.96611">
        <ele>75</ele>
        <time>2018-04-02T08:24:32Z</time>
      </trkpt>
      <trkpt lat="49.2626" lon="3.96612">
        <ele>75</ele>
        <time>2018-04-02T08:25:32Z</time>
      </trkpt>
      <trkpt lat="49.26261" lon="3.96612">
        <ele>75</ele>
        <time>2018-04-02T08:26:32Z</time>
      </trkpt>
      <trkpt lat="49.26262" lon="3.96612">
        <ele>75</ele>
        <time>2018-04-02T08:27:32Z</time>
      </trkpt>
      <trkpt lat="49.26263" lon="3.96613">
        <ele>75</ele>
        <time>2018-04-02T08:28:32Z</time>
      </trkpt>
      <trkpt lat="49.26265" lon="3.96613">
        <ele>75</ele>
        <time>2018-04-02T08:29:32Z</time>
      </trkpt>
      <trkpt lat="49.26266" lon="3.96612">
        <ele>75</ele>
        <time>2018-04-02T08:30:32Z</time>
      </trkpt>
      <trkpt lat="49.26267" lon="3.96612">
        <ele>75</ele>
        <time>2018-04-02T08:31:32Z</time>
      </trkpt>
      <trkpt lat="49.26268" lon="3.96612">
        <ele>75</ele>
        <time>2018-04-02T08:32:32Z</time>
      </trkpt>
      <trkpt lat="49.26269" lon="3.96611">
        <ele>75</ele>
        <time>2018-04-02T08:33:32Z</time>
      </trkpt>
      <trkpt lat="49.2627" lon="3.96611">
        <ele>75</ele>
        <time>2018-04-02T08:34:32Z</time>
      </trkpt>
      <trkpt lat="49.26271" lon="3.9661">
        <ele>75</ele>
        <time>2018-04-02T08:35:32Z</time>
      </trkpt>
      <trkpt lat="49.26273" lon="3.96608">
        <ele>75</ele>
        <time>2018-04-02T08:36:32Z</time>
      </trkpt>
      <trkpt lat="49.26275" lon="3.96606">
        <ele>76</ele>
        <time>2018-04-02T08:37:32Z</time>
      </trkpt>
      <trkpt lat="49.26275" lon="3.96605">
        <ele>76</ele>
        <time>2018-04-02T08:38:32Z</time>
      </trkpt>
      <trkpt lat="49.26276" lon="3.96604">
        <ele>76</ele>
        <time>2018-04-02T08:39:32Z</time>
      </trkpt>
      <trkpt lat="49.26277" lon="3.96603">
        <ele>76</ele>
        <time>2018-04-02T08:40:32Z</time>
      </trkpt>
      <trkpt lat="49.26278" lon="3.96601">
        <ele>76</ele>
        <time>2018-04-02T08:41:32Z</time>
      </trkpt>
      <trkpt lat="49.26278" lon="3.96599">
        <ele>76</ele>
        <time>2018-04-02T08:42:32Z</time>
      </trkpt>
      <trkpt lat="49.26279" lon="3.96598">
        <ele>76</ele>
        <time>2018-04-02T08:43:32Z</time>
      </trkpt>
      <trkpt lat="49.26279" lon="3.96596">
        <ele>76</ele>
        <time>2018-04-02T08:44:32Z</time>
      </trkpt>
      <trkpt lat="49.2628" lon="3.96594">
        <ele>76</ele>
        <time>2018-04-02T08:45:32Z</time>
      </trkpt>
      <trkpt lat="49.2628" lon="3.96593">
        <ele>76</ele>
        <time>2018-04-02T08:46:32Z</time>
      </trkpt>
      <trkpt lat="49.2628" lon="3.96591">
        <ele>76</ele>
        <time>2018-04-02T08:47:32Z</time>
      </trkpt>
      <trkpt lat="49.2628" lon="3.96589">
        <ele>76</ele>
        <time>2018-04-02T08:48:32Z</time>
      </trkpt>
      <trkpt lat="49.2628" lon="3.96587">
        <ele>76</ele>
        <time>2018-04-02T08:49:32Z</time>
      </trkpt>
      <trkpt lat="49.2628" lon="3.96585">
        <ele>76</ele>
        <time>2018-04-02T08:50:32Z</time>
      </trkpt>
      <trkpt lat="49.26283" lon="3.96577">
        <ele>76</ele>
        <time>2018-04-02T08:51:32Z</time>
      </trkpt>
      <trkpt lat="49.26286" lon="3.9657">
        <ele>76</ele>
        <time>2018-04-02T08:52:32Z</time>
      </trkpt>
      <trkpt lat="49.26293" lon="3.96557">
        <ele>77</ele>
        <time>2018-04-02T08:53:32Z</time>
      </trkpt>
      <trkpt lat="49.26301" lon="3.96544">
        <ele>77</ele>
        <time>2018-04-02T08:54:32Z</time>
      </trkpt>
      <trkpt lat="49.26321" lon="3.96515">
        <ele>78</ele>
        <time>2018-04-02T08:55:32Z</time>
      </trkpt>
      <trkpt lat="49.26327" lon="3.96504">
        <ele>79</ele>
        <time>2018-04-02T08:56:32Z</time>
      </trkpt>
      <trkpt lat="49.26329" lon="3.96501">
        <ele>79</ele>
        <time>2018-04-02T08:57:32Z</time>
      </trkpt>
      <trkpt lat="49.26344" lon="3.96482">
        <ele>80</ele>
        <time>2018-04-02T08:58:32Z</time>
      </trkpt>
      <trkpt lat="49.26364" lon="3.96457">
        <ele>82</ele>
        <time>2018-04-02T08:59:32Z</time>
      </trkpt>
      <trkpt lat="49.26364" lon="3.96457">
        <ele>82</ele>
        <time>2018-04-02T09:00:32Z</time>
      </trkpt>
      <trkpt lat="49.26368" lon="3.96459">
        <ele>82</ele>
        <time>2018-04-02T09:01:32Z</time>
      </trkpt>
      <trkpt lat="49.2637" lon="3.96459">
        <ele>82</ele>
        <time>2018-04-02T09:02:32Z</time>
      </trkpt>
      <trkpt lat="49.26374" lon="3.96458">
        <ele>83</ele>
        <time>2018-04-02T09:03:32Z</time>
      </trkpt>
      <trkpt lat="49.26376" lon="3.9646">
        <ele>83</ele>
        <time>2018-04-02T09:04:32Z</time>
      </trkpt>
      <trkpt lat="49.26378" lon="3.96463">
        <ele>83</ele>
        <time>2018-04-02T09:05:32Z</time>
      </trkpt>
      <trkpt lat="49.26382" lon="3.96465">
        <ele>83</ele>
        <time>2018-04-02T09:06:32Z</time>
      </trkpt>
      <trkpt lat="49.26385" lon="3.96468">
        <ele>83</ele>
        <time>2018-04-02T09:07:32Z</time>
      </trkpt>
      <trkpt lat="49.2639" lon="3.96473">
        <ele>83</ele>
        <time>2018-04-02T09:08:32Z</time>
      </trkpt>
      <trkpt lat="49.26402" lon="3.96491">
        <ele>83</ele>
        <time>2018-04-02T09:09:32Z</time>
      </trkpt>
      <trkpt lat="49.26404" lon="3.96496">
        <ele>83</ele>
        <time>2018-04-02T09:10:32Z</time>
      </trkpt>
      <trkpt lat="49.26429" lon="3.96536">
        <ele>84</ele>
        <time>2018-04-02T09:11:32Z</time>
      </trkpt>
      <trkpt lat="49.26432" lon="3.96542">
        <ele>84</ele>
        <time>2018-04-02T09:12:32Z</time>
      </trkpt>
      <trkpt lat="49.26491" lon="3.96642">
        <ele>85</ele>
        <time>2018-04-02T09:13:32Z</time>
      </trkpt>
      <trkpt lat="49.26493" lon="3.96644">
        <ele>85</ele>
        <time>2018-04-02T09:14:32Z</time>
      </trkpt>
      <trkpt lat="49.26498" lon="3.96654">
        <ele>85</ele>
        <time>2018-04-02T09:15:32Z</time>
      </trkpt>
      <trkpt lat="49.26523" lon="3.96698">
        <ele>84</ele>
        <time>2018-04-02T09:16:32Z</time>
      </trkpt>
      <trkpt lat="49.26535" lon="3.96718">
        <ele>84</ele>
        <time>2018-04-02T09:17:32Z</time>
      </trkpt>
      <trkpt lat="49.26546" lon="3.9674">
        <ele>83</ele>
        <time>2018-04-02T09:18:32Z</time>
      </trkpt>
      <trkpt lat="49.26549" lon="3.96743">
        <ele>84</ele>
        <time>2018-04-02T09:19:32Z</time>
      </trkpt>
      <trkpt lat="49.26555" lon="3.96758">
        <ele>83</ele>
        <time>2018-04-02T09:20:32Z</time>
      </trkpt>
      <trkpt lat="49.26586" lon="3.9681">
        <ele>84</ele>
        <time>2018-04-02T09:21:32Z</time>
      </trkpt>
      <trkpt lat="49.26591" lon="3.96821">
        <ele>84</ele>
        <time>2018-04-02T09:22:32Z</time>
      </trkpt>
      <trkpt lat="49.26594" lon="3.96829">
        <ele>84</ele>
        <time>2018-04-02T09:23:32Z</time>
      </trkpt>
      <trkpt lat="49.26596" lon="3.96837">
        <ele>83</ele>
        <time>2018-04-02T09:24:32Z</time>
      </trkpt>
      <trkpt lat="49.26597" lon="3.96848">
        <ele>83</ele>
        <time>2018-04-02T09:25:32Z</time>
      </trkpt>
      <trkpt lat="49.26598" lon="3.96855">
        <ele>83</ele>
        <time>2018-04-02T09:26:32Z</time>
      </trkpt>
      <trkpt lat="49.26598" lon="3.96861">
        <ele>82</ele>
        <time>2018-04-02T09:27:32Z</time>
      </trkpt>
      <trkpt lat="49.266" lon="3.96867">
        <ele>82</ele>
        <time>2018-04-02T09:28:32Z</time>
      </trkpt>
      <trkpt lat="49.266" lon="3.96867">
        <ele>82</ele>
        <time>2018-04-02T09:29:32Z</time>
      </trkpt>
      <trkpt lat="49.26599" lon="3.96868">
        <ele>82</ele>
        <time>2018-04-02T09:30:32Z</time>
      </trkpt>
      <trkpt lat="49.26599" lon="3.9687">
        <ele>82</ele>
        <time>2018-04-02T09:31:32Z</time>
      </trkpt>
      <trkpt lat="49.26598" lon="3.96871">
        <ele>82</ele>
        <time>2018-04-02T09:32:32Z</time>
      </trkpt>
      <trkpt lat="49.26598" lon="3.96872">
        <ele>82</ele>
        <time>2018-04-02T09:33:32Z</time>
      </trkpt>
      <trkpt lat="49.26598" lon="3.96878">
        <ele>82</ele>
        <time>2018-04-02T09:34:32Z</time>
      </trkpt>
      <trkpt lat="49.26599" lon="3.96883">
        <ele>81</ele>
        <time>2018-04-02T09:35:32Z</time>
      </trkpt>
      <trkpt lat="49.266" lon="3.96887">
        <ele>81</ele>
        <time>2018-04-02T09:36:32Z</time>
      </trkpt>
      <trkpt lat="49.26601" lon="3.96887">
        <ele>81</ele>
        <time>2018-04-02T09:37:32Z</time>
      </trkpt>
      <trkpt lat="49.266" lon="3.96892">
        <ele>81</ele>
        <time>2018-04-02T09:38:32Z</time>
      </trkpt>
      <trkpt lat="49.266" lon="3.96897">
        <ele>81</ele>
        <time>2018-04-02T09:39:32Z</time>
      </trkpt>
      <trkpt lat="49.266" lon="3.96904">
        <ele>81</ele>
        <time>2018-04-02T09:40:32Z</time>
      </trkpt>
      <trkpt lat="49.266" lon="3.96911">
        <ele>80</ele>
        <time>2018-04-02T09:41:32Z</time>
      </trkpt>
      <trkpt lat="49.26601" lon="3.96916">
        <ele>80</ele>
        <time>2018-04-02T09:42:32Z</time>
      </trkpt>
      <trkpt lat="49.26595" lon="3.97005">
        <ele>77</ele>
        <time>2018-04-02T09:43:32Z</time>
      </trkpt>
      <trkpt lat="49.26585" lon="3.97126">
        <ele>76</ele>
        <time>2018-04-02T09:44:32Z</time>
      </trkpt>
      <trkpt lat="49.26583" lon="3.97163">
        <ele>76</ele>
        <time>2018-04-02T09:45:32Z</time>
      </trkpt>
      <trkpt lat="49.26574" lon="3.97276">
        <ele>75</ele>
        <time>2018-04-02T09:46:32Z</time>
      </trkpt>
      <trkpt lat="49.26574" lon="3.97288">
        <ele>75</ele>
        <time>2018-04-02T09:47:32Z</time>
      </trkpt>
      <trkpt lat="49.26573" lon="3.97303">
        <ele>76</ele>
        <time>2018-04-02T09:48:32Z</time>
      </trkpt>
      <trkpt lat="49.26574" lon="3.9734">
        <ele>75</ele>
        <time>2018-04-02T09:49:32Z</time>
      </trkpt>
      <trkpt lat="49.26577" lon="3.97359">
        <ele>75</ele>
        <time>2018-04-02T09:50:32Z</time>
      </trkpt>
      <trkpt lat="49.26584" lon="3.97388">
        <ele>74</ele>
        <time>2018-04-02T09:51:32Z</time>
      </trkpt>
      <trkpt lat="49.26585" lon="3.97394">
        <ele>74</ele>
        <time>2018-04-02T09:52:32Z</time>
      </trkpt>
      <trkpt lat="49.26586" lon="3.97399">
        <ele>74</ele>
        <time>2018-04-02T09:53:32Z</time>
      </trkpt>
      <trkpt lat="49.26586" lon="3.97403">
        <ele>74</ele>
        <time>2018-04-02T09:54:32Z</time>
      </trkpt>
      <trkpt lat="49.26587" lon="3.9741">
        <ele>74</ele>
        <time>2018-04-02T09:55:32Z</time>
      </trkpt>
      <trkpt lat="49.26587" lon="3.9741">
        <ele>74</ele>
        <time>2018-04-02T09:56:32Z</time>
      </trkpt>
      <trkpt lat="49.26586" lon="3.9741">
        <ele>74</ele>
        <time>2018-04-02T09:57:32Z</time>
      </trkpt>
      <trkpt lat="49.26585" lon="3.9741">
        <ele>74</ele>
        <time>2018-04-02T09:58:32Z</time>
      </trkpt>
      <trkpt lat="49.26585" lon="3.97411">
        <ele>74</ele>
        <time>2018-04-02T09:59:32Z</time>
      </trkpt>
      <trkpt lat="49.26584" lon="3.97411">
        <ele>74</ele>
        <time>2018-04-02T10:00:32Z</time>
      </trkpt>
      <trkpt lat="49.26584" lon="3.97412">
        <ele>74</ele>
        <time>2018-04-02T10:01:32Z</time>
      </trkpt>
      <trkpt lat="49.26583" lon="3.97412">
        <ele>74</ele>
        <time>2018-04-02T10:02:32Z</time>
      </trkpt>
      <trkpt lat="49.26583" lon="3.97413">
        <ele>74</ele>
        <time>2018-04-02T10:03:32Z</time>
      </trkpt>
      <trkpt lat="49.26583" lon="3.97414">
        <ele>74</ele>
        <time>2018-04-02T10:04:32Z</time>
      </trkpt>
      <trkpt lat="49.26582" lon="3.97414">
        <ele>74</ele>
        <time>2018-04-02T10:05:32Z</time>
      </trkpt>
      <trkpt lat="49.26582" lon="3.97415">
        <ele>74</ele>
        <time>2018-04-02T10:06:32Z</time>
      </trkpt>
      <trkpt lat="49.26582" lon="3.97416">
        <ele>74</ele>
        <time>2018-04-02T10:07:32Z</time>
      </trkpt>
      <trkpt lat="49.26582" lon="3.97417">
        <ele>74</ele>
        <time>2018-04-02T10:08:32Z</time>
      </trkpt>
      <trkpt lat="49.26581" lon="3.97418">
        <ele>74</ele>
        <time>2018-04-02T10:09:32Z</time>
      </trkpt>
      <trkpt lat="49.26581" lon="3.97419">
        <ele>74</ele>
        <time>2018-04-02T10:10:32Z</time>
      </trkpt>
      <trkpt lat="49.26581" lon="3.9742">
        <ele>74</ele>
        <time>2018-04-02T10:11:32Z</time>
      </trkpt>
      <trkpt lat="49.26581" lon="3.97421">
        <ele>74</ele>
        <time>2018-04-02T10:12:32Z</time>
      </trkpt>
      <trkpt lat="49.26581" lon="3.97422">
        <ele>74</ele>
        <time>2018-04-02T10:13:32Z</time>
      </trkpt>
      <trkpt lat="49.26581" lon="3.97423">
        <ele>74</ele>
        <time>2018-04-02T10:14:32Z</time>
      </trkpt>
      <trkpt lat="49.26582" lon="3.97423">
        <ele>74</ele>
        <time>2018-04-02T10:15:32Z</time>
      </trkpt>
      <trkpt lat="49.26582" lon="3.97424">
        <ele>74</ele>
        <time>2018-04-02T10:16:32Z</time>
      </trkpt>
      <trkpt lat="49.26582" lon="3.97425">
        <ele>74</ele>
        <time>2018-04-02T10:17:32Z</time>
      </trkpt>
      <trkpt lat="49.26582" lon="3.97426">
        <ele>74</ele>
        <time>2018-04-02T10:18:32Z</time>
      </trkpt>
      <trkpt lat="49.2658" lon="3.97429">
        <ele>74</ele>
        <time>2018-04-02T10:19:32Z</time>
      </trkpt>
      <trkpt lat="49.26579" lon="3.9743">
        <ele>74</ele>
        <time>2018-04-02T10:20:32Z</time>
      </trkpt>
      <trkpt lat="49.26556" lon="3.97459">
        <ele>75</ele>
        <time>2018-04-02T10:21:32Z</time>
      </trkpt>
      <trkpt lat="49.26546" lon="3.97471">
        <ele>75</ele>
        <time>2018-04-02T10:22:32Z</time>
      </trkpt>
      <trkpt lat="49.26539" lon="3.97481">
        <ele>75</ele>
        <time>2018-04-02T10:23:32Z</time>
      </trkpt>
      <trkpt lat="49.26526" lon="3.97503">
        <ele>75</ele>
        <time>2018-04-02T10:24:32Z</time>
      </trkpt>
      <trkpt lat="49.26517" lon="3.97519">
        <ele>75</ele>
        <time>2018-04-02T10:25:32Z</time>
      </trkpt>
      <trkpt lat="49.26513" lon="3.97526">
        <ele>75</ele>
        <time>2018-04-02T10:26:32Z</time>
      </trkpt>
      <trkpt lat="49.26491" lon="3.9756">
        <ele>74</ele>
        <time>2018-04-02T10:27:32Z</time>
      </trkpt>
      <trkpt lat="49.26478" lon="3.97575">
        <ele>74</ele>
        <time>2018-04-02T10:28:32Z</time>
      </trkpt>
      <trkpt lat="49.26458" lon="3.97594">
        <ele>73</ele>
        <time>2018-04-02T10:29:32Z</time>
      </trkpt>
      <trkpt lat="49.26438" lon="3.97607">
        <ele>73</ele>
        <time>2018-04-02T10:30:32Z</time>
      </trkpt>
      <trkpt lat="49.26418" lon="3.9762">
        <ele>73</ele>
        <time>2018-04-02T10:31:32Z</time>
      </trkpt>
      <trkpt lat="49.26391" lon="3.97635">
        <ele>73</ele>
        <time>2018-04-02T10:32:32Z</time>
      </trkpt>
      <trkpt lat="49.26351" lon="3.97661">
        <ele>74</ele>
        <time>2018-04-02T10:33:32Z</time>
      </trkpt>
      <trkpt lat="49.26335" lon="3.9767">
        <ele>74</ele>
        <time>2018-04-02T10:34:32Z</time>
      </trkpt>
      <trkpt lat="49.26327" lon="3.97679">
        <ele>74</ele>
        <time>2018-04-02T10:35:32Z</time>
      </trkpt>
      <trkpt lat="49.26321" lon="3.97688">
        <ele>74</ele>
        <time>2018-04-02T10:36:32Z</time>
      </trkpt>
      <trkpt lat="49.26313" lon="3.97702">
        <ele>74</ele>
        <time>2018-04-02T10:37:32Z</time>
      </trkpt>
      <trkpt lat="49.26307" lon="3.97716">
        <ele>75</ele>
        <time>2018-04-02T10:38:32Z</time>
      </trkpt>
      <trkpt lat="49.26302" lon="3.9773">
        <ele>75</ele>
        <time>2018-04-02T10:39:32Z</time>
      </trkpt>
      <trkpt lat="49.26298" lon="3.97741">
        <ele>75</ele>
        <time>2018-04-02T10:40:32Z</time>
      </trkpt>
      <trkpt lat="49.26284" lon="3.97801">
        <ele>75</ele>
        <time>2018-04-02T10:41:32Z</time>
      </trkpt>
      <trkpt lat="49.26276" lon="3.97833">
        <ele>74</ele>
        <time>2018-04-02T10:42:32Z</time>
      </trkpt>
      <trkpt lat="49.26247" lon="3.97995">
        <ele>74</ele>
        <time>2018-04-02T10:43:32Z</time>
      </trkpt>
      <trkpt lat="49.26246" lon="3.98003">
        <ele>74</ele>
        <time>2018-04-02T10:44:32Z</time>
      </trkpt>
      <trkpt lat="49.26233" lon="3.98075">
        <ele>73</ele>
        <time>2018-04-02T10:45:32Z</time>
      </trkpt>
      <trkpt lat="49.26225" lon="3.98089">
        <ele>73</ele>
        <time>2018-04-02T10:46:32Z</time>
      </trkpt>
      <trkpt lat="49.26222" lon="3.98093">
        <ele>73</ele>
        <time>2018-04-02T10:47:32Z</time>
      </trkpt>
      <trkpt lat="49.26218" lon="3.98097">
        <ele>73</ele>
        <time>2018-04-02T10:48:32Z</time>
      </trkpt>
      <trkpt lat="49.26218" lon="3.98097">
        <ele>73</ele>
        <time>2018-04-02T10:49:32Z</time>
      </trkpt>
      <trkpt lat="49.26214" lon="3.98096">
        <ele>73</ele>
        <time>2018-04-02T10:50:32Z</time>
      </trkpt>
      <trkpt lat="49.2621" lon="3.98097">
        <ele>73</ele>
        <time>2018-04-02T10:51:32Z</time>
      </trkpt>
      <trkpt lat="49.26208" lon="3.98098">
        <ele>73</ele>
        <time>2018-04-02T10:52:32Z</time>
      </trkpt>
      <trkpt lat="49.26206" lon="3.98101">
        <ele>73</ele>
        <time>2018-04-02T10:53:32Z</time>
      </trkpt>
      <trkpt lat="49.26205" lon="3.98104">
        <ele>73</ele>
        <time>2018-04-02T10:54:32Z</time>
      </trkpt>
      <trkpt lat="49.26203" lon="3.98108">
        <ele>73</ele>
        <time>2018-04-02T10:55:32Z</time>
      </trkpt>
      <trkpt lat="49.26203" lon="3.98114">
        <ele>73</ele>
        <time>2018-04-02T10:56:32Z</time>
      </trkpt>
      <trkpt lat="49.26204" lon="3.98118">
        <ele>73</ele>
        <time>2018-04-02T10:57:32Z</time>
      </trkpt>
      <trkpt lat="49.26205" lon="3.98122">
        <ele>73</ele>
        <time>2018-04-02T10:58:32Z</time>
      </trkpt>
      <trkpt lat="49.26205" lon="3.98135">
        <ele>73</ele>
        <time>2018-04-02T10:59:32Z</time>
      </trkpt>
      <trkpt lat="49.26203" lon="3.98149">
        <ele>73</ele>
        <time>2018-04-02T11:00:32Z</time>
      </trkpt>
      <trkpt lat="49.26196" lon="3.98167">
        <ele>73</ele>
        <time>2018-04-02T11:01:32Z</time>
      </trkpt>
      <trkpt lat="49.26191" lon="3.9818">
        <ele>73</ele>
        <time>2018-04-02T11:02:32Z</time>
      </trkpt>
      <trkpt lat="49.26189" lon="3.98184">
        <ele>73</ele>
        <time>2018-04-02T11:03:32Z</time>
      </trkpt>
      <trkpt lat="49.26187" lon="3.98189">
        <ele>73</ele>
        <time>2018-04-02T11:04:32Z</time>
      </trkpt>
      <trkpt lat="49.26186" lon="3.98194">
        <ele>73</ele>
        <time>2018-04-02T11:05:32Z</time>
      </trkpt>
      <trkpt lat="49.26185" lon="3.982">
        <ele>73</ele>
        <time>2018-04-02T11:06:32Z</time>
      </trkpt>
      <trkpt lat="49.26184" lon="3.98206">
        <ele>73</ele>
        <time>2018-04-02T11:07:32Z</time>
      </trkpt>
      <trkpt lat="49.26183" lon="3.98212">
        <ele>73</ele>
        <time>2018-04-02T11:08:32Z</time>
      </trkpt>
      <trkpt lat="49.26183" lon="3.98218">
        <ele>73</ele>
        <time>2018-04-02T11:09:32Z</time>
      </trkpt>
      <trkpt lat="49.26183" lon="3.98225">
        <ele>74</ele>
        <time>2018-04-02T11:10:32Z</time>
      </trkpt>
      <trkpt lat="49.26184" lon="3.98233">
        <ele>74</ele>
        <time>2018-04-02T11:11:32Z</time>
      </trkpt>
      <trkpt lat="49.26186" lon="3.98249">
        <ele>74</ele>
        <time>2018-04-02T11:12:32Z</time>
      </trkpt>
      <trkpt lat="49.26188" lon="3.98262">
        <ele>74</ele>
        <time>2018-04-02T11:13:32Z</time>
      </trkpt>
      <trkpt lat="49.26208" lon="3.98402">
        <ele>75</ele>
        <time>2018-04-02T11:14:32Z</time>
      </trkpt>
      <trkpt lat="49.2621" lon="3.98416">
        <ele>75</ele>
        <time>2018-04-02T11:15:32Z</time>
      </trkpt>
      <trkpt lat="49.26213" lon="3.98436">
        <ele>75</ele>
        <time>2018-04-02T11:16:32Z</time>
      </trkpt>
      <trkpt lat="49.26211" lon="3.98437">
        <ele>75</ele>
        <time>2018-04-02T11:17:32Z</time>
      </trkpt>
      <trkpt lat="49.26209" lon="3.98437">
        <ele>75</ele>
        <time>2018-04-02T11:18:32Z</time>
      </trkpt>
      <trkpt lat="49.26207" lon="3.98439">
        <ele>75</ele>
        <time>2018-04-02T11:19:32Z</time>
      </trkpt>
      <trkpt lat="49.26206" lon="3.98441">
        <ele>75</ele>
        <time>2018-04-02T11:20:32Z</time>
      </trkpt>
      <trkpt lat="49.26205" lon="3.98444">
        <ele>75</ele>
        <time>2018-04-02T11:21:32Z</time>
      </trkpt>
      <trkpt lat="49.26204" lon="3.98446">
        <ele>75</ele>
        <time>2018-04-02T11:22:32Z</time>
      </trkpt>
      <trkpt lat="49.26204" lon="3.98447">
        <ele>75</ele>
        <time>2018-04-02T11:23:32Z</time>
      </trkpt>
      <trkpt lat="49.26204" lon="3.9845">
        <ele>75</ele>
        <time>2018-04-02T11:24:32Z</time>
      </trkpt>
      <trkpt lat="49.26204" lon="3.98452">
        <ele>75</ele>
        <time>2018-04-02T11:25:32Z</time>
      </trkpt>
      <trkpt lat="49.26204" lon="3.98454">
        <ele>75</ele>
        <time>2018-04-02T11:26:32Z</time>
      </trkpt>
      <trkpt lat="49.26205" lon="3.98456">
        <ele>75</ele>
        <time>2018-04-02T11:27:32Z</time>
      </trkpt>
      <trkpt lat="49.26206" lon="3.98458">
        <ele>75</ele>
        <time>2018-04-02T11:28:32Z</time>
      </trkpt>
      <trkpt lat="49.26207" lon="3.9846">
        <ele>75</ele>
        <time>2018-04-02T11:29:32Z</time>
      </trkpt>
      <trkpt lat="49.26209" lon="3.98461">
        <ele>74</ele>
        <time>2018-04-02T11:30:32Z</time>
      </trkpt>
      <trkpt lat="49.26211" lon="3.98462">
        <ele>74</ele>
        <time>2018-04-02T11:31:32Z</time>
      </trkpt>
      <trkpt lat="49.26213" lon="3.98463">
        <ele>74</ele>
        <time>2018-04-02T11:32:32Z</time>
      </trkpt>
      <trkpt lat="49.26215" lon="3.98462">
        <ele>74</ele>
        <time>2018-04-02T11:33:32Z</time>
      </trkpt>
      <trkpt lat="49.26217" lon="3.98461">
        <ele>74</ele>
        <time>2018-04-02T11:34:32Z</time>
      </trkpt>
      <trkpt lat="49.26217" lon="3.98465">
        <ele>74</ele>
        <time>2018-04-02T11:35:32Z</time>
      </trkpt>
      <trkpt lat="49.26217" lon="3.98468">
        <ele>74</ele>
        <time>2018-04-02T11:36:32Z</time>
      </trkpt>
      <trkpt lat="49.26217" lon="3.98472">
        <ele>74</ele>
        <time>2018-04-02T11:37:32Z</time>
      </trkpt>
      <trkpt lat="49.26217" lon="3.98476">
        <ele>74</ele>
        <time>2018-04-02T11:38:32Z</time>
      </trkpt>
      <trkpt lat="49.26217" lon="3.98482">
        <ele>74</ele>
        <time>2018-04-02T11:39:32Z</time>
      </trkpt>
      <trkpt lat="49.26215" lon="3.98501">
        <ele>74</ele>
        <time>2018-04-02T11:40:32Z</time>
      </trkpt>
      <trkpt lat="49.26212" lon="3.98535">
        <ele>74</ele>
        <time>2018-04-02T11:41:32Z</time>
      </trkpt>
      <trkpt lat="49.26209" lon="3.98563">
        <ele>74</ele>
        <time>2018-04-02T11:42:32Z</time>
      </trkpt>
      <trkpt lat="49.26207" lon="3.98579">
        <ele>74</ele>
        <time>2018-04-02T11:43:32Z</time>
      </trkpt>
      <trkpt lat="49.26207" lon="3.98597">
        <ele>75</ele>
        <time>2018-04-02T11:44:32Z</time>
      </trkpt>
      <trkpt lat="49.26207" lon="3.98597">
        <ele>75</ele>
        <time>2018-04-02T11:45:32Z</time>
      </trkpt>
      <trkpt lat="49.26214" lon="3.98619">
        <ele>75</ele>
        <time>2018-04-02T11:46:32Z</time>
      </trkpt>
      <trkpt lat="49.26219" lon="3.98621">
        <ele>75</ele>
        <time>2018-04-02T11:47:32Z</time>
      </trkpt>
      <trkpt lat="49.26227" lon="3.98626">
        <ele>75</ele>
        <time>2018-04-02T11:48:32Z</time>
      </trkpt>
      <trkpt lat="49.26284" lon="3.98642">
        <ele>76</ele>
        <time>2018-04-02T11:49:32Z</time>
      </trkpt>
      <trkpt lat="49.2641" lon="3.98673">
        <ele>74</ele>
        <time>2018-04-02T11:50:32Z</time>
      </trkpt>
      <trkpt lat="49.26416" lon="3.98676">
        <ele>74</ele>
        <time>2018-04-02T11:51:32Z</time>
      </trkpt>
      <trkpt lat="49.26416" lon="3.98676">
        <ele>74</ele>
        <time>2018-04-02T11:52:32Z</time>
      </trkpt>
      <trkpt lat="49.26417" lon="3.98678">
        <ele>74</ele>
        <time>2018-04-02T11:53:32Z</time>
      </trkpt>
      <trkpt lat="49.26418" lon="3.98681">
        <ele>74</ele>
        <time>2018-04-02T11:54:32Z</time>
      </trkpt>
      <trkpt lat="49.26431" lon="3.98708">
        <ele>74</ele>
        <time>2018-04-02T11:55:32Z</time>
      </trkpt>
      <trkpt lat="49.26433" lon="3.9871">
        <ele>74</ele>
        <time>2018-04-02T11:56:32Z</time>
      </trkpt>
      <trkpt lat="49.26434" lon="3.98711">
        <ele>74</ele>
        <time>2018-04-02T11:57:32Z</time>
      </trkpt>
      <trkpt lat="49.26435" lon="3.98711">
        <ele>74</ele>
        <time>2018-04-02T11:58:32Z</time>
      </trkpt>
      <trkpt lat="49.26437" lon="3.9871">
        <ele>74</ele>
        <time>2018-04-02T11:59:32Z</time>
      </trkpt>
      <trkpt lat="49.26437" lon="3.9871">
        <ele>74</ele>
        <time>2018-04-02T12:00:32Z</time>
      </trkpt>
      <trkpt lat="49.26438" lon="3.98711">
        <ele>74</ele>
        <time>2018-04-02T12:01:32Z</time>
      </trkpt>
      <trkpt lat="49.26438" lon="3.98712">
        <ele>74</ele>
        <time>2018-04-02T12:02:32Z</time>
      </trkpt>
      <trkpt lat="49.26438" lon="3.98713">
        <ele>74</ele>
        <time>2018-04-02T12:03:32Z</time>
      </trkpt>
      <trkpt lat="49.26438" lon="3.98714">
        <ele>74</ele>
        <time>2018-04-02T12:04:32Z</time>
      </trkpt>
      <trkpt lat="49.26439" lon="3.98714">
        <ele>74</ele>
        <time>2018-04-02T12:05:32Z</time>
      </trkpt>
      <trkpt lat="49.26439" lon="3.98715">
        <ele>74</ele>
        <time>2018-04-02T12:06:32Z</time>
      </trkpt>
      <trkpt lat="49.26439" lon="3.98716">
        <ele>74</ele>
        <time>2018-04-02T12:07:32Z</time>
      </trkpt>
      <trkpt lat="49.2644" lon="3.98717">
        <ele>74</ele>
        <time>2018-04-02T12:08:32Z</time>
      </trkpt>
      <trkpt lat="49.2644" lon="3.98718">
        <ele>74</ele>
        <time>2018-04-02T12:09:32Z</time>
      </trkpt>
      <trkpt lat="49.26441" lon="3.98718">
        <ele>74</ele>
        <time>2018-04-02T12:10:32Z</time>
      </trkpt>
      <trkpt lat="49.26441" lon="3.98719">
        <ele>74</ele>
        <time>2018-04-02T12:11:32Z</time>
      </trkpt>
      <trkpt lat="49.26442" lon="3.98719">
        <ele>74</ele>
        <time>2018-04-02T12:12:32Z</time>
      </trkpt>
      <trkpt lat="49.26442" lon="3.9872">
        <ele>74</ele>
        <time>2018-04-02T12:13:32Z</time>
      </trkpt>
      <trkpt lat="49.26443" lon="3.9872">
        <ele>74</ele>
        <time>2018-04-02T12:14:32Z</time>
      </trkpt>
      <trkpt lat="49.26444" lon="3.9872">
        <ele>74</ele>
        <time>2018-04-02T12:15:32Z</time>
      </trkpt>
      <trkpt lat="49.26444" lon="3.98721">
        <ele>74</ele>
        <time>2018-04-02T12:16:32Z</time>
      </trkpt>
      <trkpt lat="49.26445" lon="3.98721">
        <ele>74</ele>
        <time>2018-04-02T12:17:32Z</time>
      </trkpt>
      <trkpt lat="49.26446" lon="3.98721">
        <ele>74</ele>
        <time>2018-04-02T12:18:32Z</time>
      </trkpt>
      <trkpt lat="49.26447" lon="3.98721">
        <ele>74</ele>
        <time>2018-04-02T12:19:32Z</time>
      </trkpt>
      <trkpt lat="49.26448" lon="3.98721">
        <ele>74</ele>
        <time>2018-04-02T12:20:32Z</time>
      </trkpt>
      <trkpt lat="49.26448" lon="3.9872">
        <ele>74</ele>
        <time>2018-04-02T12:21:32Z</time>
      </trkpt>
      <trkpt lat="49.26449" lon="3.9872">
        <ele>74</ele>
        <time>2018-04-02T12:22:32Z</time>
      </trkpt>
      <trkpt lat="49.2645" lon="3.9872">
        <ele>74</ele>
        <time>2018-04-02T12:23:32Z</time>
      </trkpt>
      <trkpt lat="49.2645" lon="3.98719">
        <ele>74</ele>
        <time>2018-04-02T12:24:32Z</time>
      </trkpt>
      <trkpt lat="49.26451" lon="3.98719">
        <ele>74</ele>
        <time>2018-04-02T12:25:32Z</time>
      </trkpt>
      <trkpt lat="49.26451" lon="3.98718">
        <ele>74</ele>
        <time>2018-04-02T12:26:32Z</time>
      </trkpt>
      <trkpt lat="49.26452" lon="3.98717">
        <ele>74</ele>
        <time>2018-04-02T12:27:32Z</time>
      </trkpt>
      <trkpt lat="49.26452" lon="3.98716">
        <ele>74</ele>
        <time>2018-04-02T12:28:32Z</time>
      </trkpt>
      <trkpt lat="49.26453" lon="3.98716">
        <ele>74</ele>
        <time>2018-04-02T12:29:32Z</time>
      </trkpt>
      <trkpt lat="49.26453" lon="3.98715">
        <ele>74</ele>
        <time>2018-04-02T12:30:32Z</time>
      </trkpt>
      <trkpt lat="49.26453" lon="3.98714">
        <ele>74</ele>
        <time>2018-04-02T12:31:32Z</time>
      </trkpt>
      <trkpt lat="49.26453" lon="3.98713">
        <ele>74</ele>
        <time>2018-04-02T12:32:32Z</time>
      </trkpt>
      <trkpt lat="49.2646" lon="3.98719">
        <ele>73</ele>
        <time>2018-04-02T12:33:32Z</time>
      </trkpt>
      <trkpt lat="49.26465" lon="3.98723">
        <ele>73</ele>
        <time>2018-04-02T12:34:32Z</time>
      </trkpt>
      <trkpt lat="49.26469" lon="3.98731">
        <ele>73</ele>
        <time>2018-04-02T12:35:32Z</time>
      </trkpt>
      <trkpt lat="49.26479" lon="3.98749">
        <ele>73</ele>
        <time>2018-04-02T12:36:32Z</time>
      </trkpt>
      <trkpt lat="49.26486" lon="3.9876">
        <ele>73</ele>
        <time>2018-04-02T12:37:32Z</time>
      </trkpt>
      <trkpt lat="49.26523" lon="3.98821">
        <ele>74</ele>
        <time>2018-04-02T12:38:32Z</time>
      </trkpt>
      <trkpt lat="49.26523" lon="3.98821">
        <ele>74</ele>
        <time>2018-04-02T12:39:32Z</time>
      </trkpt>
      <trkpt lat="49.26526" lon="3.98831">
        <ele>74</ele>
        <time>2018-04-02T12:40:32Z</time>
      </trkpt>
      <trkpt lat="49.26529" lon="3.98838">
        <ele>74</ele>
        <time>2018-04-02T12:41:32Z</time>
      </trkpt>
      <trkpt lat="49.26533" lon="3.98851">
        <ele>74</ele>
        <time>2018-04-02T12:42:32Z</time>
      </trkpt>
      <trkpt lat="49.26534" lon="3.98855">
        <ele>74</ele>
        <time>2018-04-02T12:43:32Z</time>
      </trkpt>
      <trkpt lat="49.26534" lon="3.98859">
        <ele>74</ele>
        <time>2018-04-02T12:44:32Z</time>
      </trkpt>
      <trkpt lat="49.26533" lon="3.98863">
        <ele>74</ele>
        <time>2018-04-02T12:45:32Z</time>
      </trkpt>
      <trkpt lat="49.26532" lon="3.98869">
        <ele>74</ele>
        <time>2018-04-02T12:46:32Z</time>
      </trkpt>
      <trkpt lat="49.26527" lon="3.98885">
        <ele>74</ele>
        <time>2018-04-02T12:47:32Z</time>
      </trkpt>
      <trkpt lat="49.26509" lon="3.98912">
        <ele>74</ele>
        <time>2018-04-02T12:48:32Z</time>
      </trkpt>
      <trkpt lat="49.26498" lon="3.98929">
        <ele>74</ele>
        <time>2018-04-02T12:49:32Z</time>
      </trkpt>
      <trkpt lat="49.26489" lon="3.98947">
        <ele>74</ele>
        <time>2018-04-02T12:50:32Z</time>
      </trkpt>
      <trkpt lat="49.2645" lon="3.99041">
        <ele>74</ele>
        <time>2018-04-02T12:51:32Z</time>
      </trkpt>
      <trkpt lat="49.26415" lon="3.99125">
        <ele>74</ele>
        <time>2018-04-02T12:52:32Z</time>
      </trkpt>
      <trkpt lat="49.26399" lon="3.99166">
        <ele>73</ele>
        <time>2018-04-02T12:53:32Z</time>
      </trkpt>
      <trkpt lat="49.26396" lon="3.99177">
        <ele>73</ele>
        <time>2018-04-02T12:54:32Z</time>
      </trkpt>
      <trkpt lat="49.26394" lon="3.99192">
        <ele>73</ele>
        <time>2018-04-02T12:55:32Z</time>
      </trkpt>
      <trkpt lat="49.26389" lon="3.99234">
        <ele>74</ele>
        <time>2018-04-02T12:56:32Z</time>
      </trkpt>
      <trkpt lat="49.26381" lon="3.99339">
        <ele>73</ele>
        <time>2018-04-02T12:57:32Z</time>
      </trkpt>
      <trkpt lat="49.26381" lon="3.99339">
        <ele>73</ele>
        <time>2018-04-02T12:58:32Z</time>
      </trkpt>
      <trkpt lat="49.26376" lon="3.99381">
        <ele>72</ele>
        <time>2018-04-02T12:59:32Z</time>
      </trkpt>
      <trkpt lat="49.26368" lon="3.99476">
        <ele>72</ele>
        <time>2018-04-02T13:00:32Z</time>
      </trkpt>
      <trkpt lat="49.26363" lon="3.99542">
        <ele>74</ele>
        <time>2018-04-02T13:01:32Z</time>
      </trkpt>
      <trkpt lat="49.2636" lon="3.99576">
        <ele>75</ele>
        <time>2018-04-02T13:02:32Z</time>
      </trkpt>
      <trkpt lat="49.26359" lon="3.99584">
        <ele>76</ele>
        <time>2018-04-02T13:03:32Z</time>
      </trkpt>
      <trkpt lat="49.26351" lon="3.99663">
        <ele>77</ele>
        <time>2018-04-02T13:04:32Z</time>
      </trkpt>
      <trkpt lat="49.2635" lon="3.99685">
        <ele>77</ele>
        <time>2018-04-02T13:05:32Z</time>
      </trkpt>
      <trkpt lat="49.26347" lon="3.99717">
        <ele>77</ele>
        <time>2018-04-02T13:06:32Z</time>
      </trkpt>
      <trkpt lat="49.26342" lon="3.99776">
        <ele>77</ele>
        <time>2018-04-02T13:07:32Z</time>
      </trkpt>
      <trkpt lat="49.26305" lon="4.00183">
        <ele>79</ele>
        <time>2018-04-02T13:08:32Z</time>
      </trkpt>
      <trkpt lat="49.263" lon="4.00243">
        <ele>78</ele>
        <time>2018-04-02T13:09:32Z</time>
      </trkpt>
      <trkpt lat="49.26298" lon="4.00273">
        <ele>78</ele>
        <time>2018-04-02T13:10:32Z</time>
      </trkpt>
      <trkpt lat="49.26297" lon="4.00275">
        <ele>78</ele>
        <time>2018-04-02T13:11:32Z</time>
      </trkpt>
      <trkpt lat="49.26297" lon="4.00278">
        <ele>78</ele>
        <time>2018-04-02T13:12:32Z</time>
      </trkpt>
      <trkpt lat="49.26297" lon="4.00284">
        <ele>78</ele>
        <time>2018-04-02T13:13:32Z</time>
      </trkpt>
      <trkpt lat="49.26289" lon="4.00357">
        <ele>79</ele>
        <time>2018-04-02T13:14:32Z</time>
      </trkpt>
      <trkpt lat="49.26288" lon="4.00382">
        <ele>78</ele>
        <time>2018-04-02T13:15:32Z</time>
      </trkpt>
      <trkpt lat="49.26288" lon="4.00382">
        <ele>78</ele>
        <time>2018-04-02T13:16:32Z</time>
      </trkpt>
      <trkpt lat="49.26051" lon="4.00746">
        <ele>75</ele>
        <time>2018-04-02T13:17:32Z</time>
      </trkpt>
      <trkpt lat="49.25968" lon="4.00872">
        <ele>75</ele>
        <time>2018-04-02T13:18:32Z</time>
      </trkpt>
      <trkpt lat="49.25918" lon="4.00948">
        <ele>76</ele>
        <time>2018-04-02T13:19:32Z</time>
      </trkpt>
      <trkpt lat="49.25911" lon="4.0096">
        <ele>76</ele>
        <time>2018-04-02T13:20:32Z</time>
      </trkpt>
      <trkpt lat="49.25905" lon="4.0097">
        <ele>76</ele>
        <time>2018-04-02T13:21:32Z</time>
      </trkpt>
      <trkpt lat="49.2589" lon="4.00995">
        <ele>76</ele>
        <time>2018-04-02T13:22:32Z</time>
      </trkpt>
      <trkpt lat="49.25842" lon="4.01073">
        <ele>77</ele>
        <time>2018-04-02T13:23:32Z</time>
      </trkpt>
      <trkpt lat="49.25707" lon="4.01293">
        <ele>79</ele>
        <time>2018-04-02T13:24:32Z</time>
      </trkpt>
      <trkpt lat="49.25603" lon="4.01452">
        <ele>77</ele>
        <time>2018-04-02T13:25:32Z</time>
      </trkpt>
      <trkpt lat="49.25523" lon="4.01579">
        <ele>77</ele>
        <time>2018-04-02T13:26:32Z</time>
      </trkpt>
      <trkpt lat="49.25507" lon="4.01605">
        <ele>77</ele>
        <time>2018-04-02T13:27:32Z</time>
      </trkpt>
      <trkpt lat="49.25428" lon="4.01726">
        <ele>76</ele>
        <time>2018-04-02T13:28:32Z</time>
      </trkpt>
      <trkpt lat="49.25419" lon="4.01741">
        <ele>76</ele>
        <time>2018-04-02T13:29:32Z</time>
      </trkpt>
      <trkpt lat="49.25415" lon="4.01747">
        <ele>76</ele>
        <time>2018-04-02T13:30:32Z</time>
      </trkpt>
      <trkpt lat="49.25409" lon="4.01756">
        <ele>76</ele>
        <time>2018-04-02T13:31:32Z</time>
      </trkpt>
      <trkpt lat="49.25396" lon="4.01777">
        <ele>77</ele>
        <time>2018-04-02T13:32:32Z</time>
      </trkpt>
      <trkpt lat="49.2539" lon="4.01782">
        <ele>77</ele>
        <time>2018-04-02T13:33:32Z</time>
      </trkpt>
      <trkpt lat="49.25375" lon="4.01804">
        <ele>78</ele>
        <time>2018-04-02T13:34:32Z</time>
      </trkpt>
      <trkpt lat="49.25348" lon="4.01846">
        <ele>78</ele>
        <time>2018-04-02T13:35:32Z</time>
      </trkpt>
      <trkpt lat="49.25348" lon="4.01846">
        <ele>78</ele>
        <time>2018-04-02T13:36:32Z</time>
      </trkpt>
      <trkpt lat="49.25347" lon="4.01849">
        <ele>78</ele>
        <time>2018-04-02T13:37:32Z</time>
      </trkpt>
      <trkpt lat="49.25346" lon="4.01851">
        <ele>78</ele>
        <time>2018-04-02T13:38:32Z</time>
      </trkpt>
      <trkpt lat="49.25345" lon="4.01853">
        <ele>78</ele>
        <time>2018-04-02T13:39:32Z</time>
      </trkpt>
      <trkpt lat="49.25345" lon="4.01854">
        <ele>78</ele>
        <time>2018-04-02T13:40:32Z</time>
      </trkpt>
      <trkpt lat="49.25345" lon="4.01855">
        <ele>78</ele>
        <time>2018-04-02T13:41:32Z</time>
      </trkpt>
      <trkpt lat="49.25344" lon="4.01857">
        <ele>78</ele>
        <time>2018-04-02T13:42:32Z</time>
      </trkpt>
      <trkpt lat="49.25344" lon="4.01858">
        <ele>78</ele>
        <time>2018-04-02T13:43:32Z</time>
      </trkpt>
      <trkpt lat="49.25343" lon="4.01858">
        <ele>78</ele>
        <time>2018-04-02T13:44:32Z</time>
      </trkpt>
      <trkpt lat="49.25343" lon="4.0186">
        <ele>78</ele>
        <time>2018-04-02T13:45:32Z</time>
      </trkpt>
      <trkpt lat="49.2534" lon="4.01865">
        <ele>78</ele>
        <time>2018-04-02T13:46:32Z</time>
      </trkpt>
      <trkpt lat="49.25339" lon="4.01866">
        <ele>78</ele>
        <time>2018-04-02T13:47:32Z</time>
      </trkpt>
      <trkpt lat="49.25337" lon="4.01869">
        <ele>78</ele>
        <time>2018-04-02T13:48:32Z</time>
      </trkpt>
      <trkpt lat="49.25333" lon="4.01874">
        <ele>78</ele>
        <time>2018-04-02T13:49:32Z</time>
      </trkpt>
      <trkpt lat="49.25331" lon="4.01877">
        <ele>78</ele>
        <time>2018-04-02T13:50:32Z</time>
      </trkpt>
      <trkpt lat="49.25324" lon="4.01889">
        <ele>78</ele>
        <time>2018-04-02T13:51:32Z</time>
      </trkpt>
      <trkpt lat="49.2531" lon="4.0191">
        <ele>79</ele>
        <time>2018-04-02T13:52:32Z</time>
      </trkpt>
      <trkpt lat="49.25305" lon="4.01917">
        <ele>79</ele>
        <time>2018-04-02T13:53:32Z</time>
      </trkpt>
      <trkpt lat="49.25293" lon="4.01936">
        <ele>79</ele>
        <time>2018-04-02T13:54:32Z</time>
      </trkpt>
      <trkpt lat="49.25286" lon="4.01947">
        <ele>79</ele>
        <time>2018-04-02T13:55:32Z</time>
      </trkpt>
      <trkpt lat="49.25224" lon="4.02046">
        <ele>81</ele>
        <time>2018-04-02T13:56:32Z</time>
      </trkpt>
      <trkpt lat="49.25205" lon="4.02077">
        <ele>80</ele>
        <time>2018-04-02T13:57:32Z</time>
      </trkpt>
      <trkpt lat="49.25198" lon="4.02084">
        <ele>80</ele>
        <time>2018-04-02T13:58:32Z</time>
      </trkpt>
      <trkpt lat="49.25193" lon="4.02091">
        <ele>80</ele>
        <time>2018-04-02T13:59:32Z</time>
      </trkpt>
      <trkpt lat="49.2518" lon="4.0211">
        <ele>79</ele>
        <time>2018-04-02T14:00:32Z</time>
      </trkpt>
      <trkpt lat="49.25169" lon="4.02125">
        <ele>79</ele>
        <time>2018-04-02T14:01:32Z</time>
      </trkpt>
      <trkpt lat="49.25165" lon="4.02131">
        <ele>79</ele>
        <time>2018-04-02T14:02:32Z</time>
      </trkpt>
      <trkpt lat="49.25164" lon="4.02132">
        <ele>79</ele>
        <time>2018-04-02T14:03:32Z</time>
      </trkpt>
      <trkpt lat="49.25164" lon="4.02132">
        <ele>79</ele>
        <time>2018-04-02T14:04:32Z</time>
      </trkpt>
      <trkpt lat="49.25159" lon="4.0214">
        <ele>79</ele>
        <time>2018-04-02T14:05:32Z</time>
      </trkpt>
      <trkpt lat="49.25139" lon="4.02171">
        <ele>78</ele>
        <time>2018-04-02T14:06:32Z</time>
      </trkpt>
      <trkpt lat="49.25134" lon="4.02179">
        <ele>78</ele>
        <time>2018-04-02T14:07:32Z</time>
      </trkpt>
      <trkpt lat="49.25131" lon="4.0219">
        <ele>78</ele>
        <time>2018-04-02T14:08:32Z</time>
      </trkpt>
      <trkpt lat="49.25131" lon="4.0219">
        <ele>78</ele>
        <time>2018-04-02T14:09:32Z</time>
      </trkpt>
      <trkpt lat="49.25122" lon="4.02207">
        <ele>78</ele>
        <time>2018-04-02T14:10:32Z</time>
      </trkpt>
      <trkpt lat="49.25116" lon="4.02217">
        <ele>78</ele>
        <time>2018-04-02T14:11:32Z</time>
      </trkpt>
      <trkpt lat="49.25115" lon="4.02219">
        <ele>78</ele>
        <time>2018-04-02T14:12:32Z</time>
      </trkpt>
      <trkpt lat="49.25113" lon="4.02222">
        <ele>78</ele>
        <time>2018-04-02T14:13:32Z</time>
      </trkpt>
      <trkpt lat="49.25112" lon="4.02225">
        <ele>78</ele>
        <time>2018-04-02T14:14:32Z</time>
      </trkpt>
      <trkpt lat="49.2511" lon="4.02227">
        <ele>78</ele>
        <time>2018-04-02T14:15:32Z</time>
      </trkpt>
      <trkpt lat="49.25107" lon="4.02232">
        <ele>78</ele>
        <time>2018-04-02T14:16:32Z</time>
      </trkpt>
      <trkpt lat="49.25076" lon="4.02277">
        <ele>79</ele>
        <time>2018-04-02T14:17:32Z</time>
      </trkpt>
      <trkpt lat="49.25066" lon="4.02298">
        <ele>79</ele>
        <time>2018-04-02T14:18:32Z</time>
      </trkpt>
      <trkpt lat="49.2505" lon="4.02322">
        <ele>78</ele>
        <time>2018-04-02T14:19:32Z</time>
      </trkpt>
      <trkpt lat="49.25039" lon="4.02341">
        <ele>78</ele>
        <time>2018-04-02T14:20:32Z</time>
      </trkpt>
      <trkpt lat="49.25031" lon="4.02352">
        <ele>78</ele>
        <time>2018-04-02T14:21:32Z</time>
      </trkpt>
      <trkpt lat="49.25028" lon="4.02356">
        <ele>77</ele>
        <time>2018-04-02T14:22:32Z</time>
      </trkpt>
      <trkpt lat="49.25024" lon="4.02364">
        <ele>77</ele>
        <time>2018-04-02T14:23:32Z</time>
      </trkpt>
      <trkpt lat="49.25022" lon="4.02367">
        <ele>77</ele>
        <time>2018-04-02T14:24:32Z</time>
      </trkpt>
      <trkpt lat="49.25018" lon="4.0238">
        <ele>77</ele>
        <time>2018-04-02T14:25:32Z</time>
      </trkpt>
      <trkpt lat="49.25017" lon="4.02401">
        <ele>78</ele>
        <time>2018-04-02T14:26:32Z</time>
      </trkpt>
      <trkpt lat="49.25016" lon="4.02414">
        <ele>78</ele>
        <time>2018-04-02T14:27:32Z</time>
      </trkpt>
      <trkpt lat="49.25016" lon="4.02437">
        <ele>78</ele>
        <time>2018-04-02T14:28:32Z</time>
      </trkpt>
      <trkpt lat="49.25016" lon="4.02442">
        <ele>78</ele>
        <time>2018-04-02T14:29:32Z</time>
      </trkpt>
      <trkpt lat="49.25016" lon="4.02444">
        <ele>78</ele>
        <time>2018-04-02T14:30:32Z</time>
      </trkpt>
      <trkpt lat="49.25016" lon="4.02447">
        <ele>78</ele>
        <time>2018-04-02T14:31:32Z</time>
      </trkpt>
      <trkpt lat="49.25016" lon="4.02447">
        <ele>78</ele>
        <time>2018-04-02T14:32:32Z</time>
      </trkpt>
      <trkpt lat="49.25015" lon="4.02451">
        <ele>78</ele>
        <time>2018-04-02T14:33:32Z</time>
      </trkpt>
      <trkpt lat="49.25014" lon="4.02454">
        <ele>78</ele>
        <time>2018-04-02T14:34:32Z</time>
      </trkpt>
      <trkpt lat="49.25013" lon="4.02456">
        <ele>78</ele>
        <time>2018-04-02T14:35:32Z</time>
      </trkpt>
      <trkpt lat="49.25012" lon="4.02457">
        <ele>78</ele>
        <time>2018-04-02T14:36:32Z</time>
      </trkpt>
      <trkpt lat="49.25007" lon="4.02467">
        <ele>78</ele>
        <time>2018-04-02T14:37:32Z</time>
      </trkpt>
      <trkpt lat="49.24988" lon="4.02496">
        <ele>79</ele>
        <time>2018-04-02T14:38:32Z</time>
      </trkpt>
      <trkpt lat="49.24957" lon="4.02544">
        <ele>79</ele>
        <time>2018-04-02T14:39:32Z</time>
      </trkpt>
      <trkpt lat="49.24949" lon="4.02556">
        <ele>79</ele>
        <time>2018-04-02T14:40:32Z</time>
      </trkpt>
      <trkpt lat="49.24866" lon="4.02682">
        <ele>77</ele>
        <time>2018-04-02T14:41:32Z</time>
      </trkpt>
      <trkpt lat="49.2481" lon="4.02771">
        <ele>79</ele>
        <time>2018-04-02T14:42:32Z</time>
      </trkpt>
      <trkpt lat="49.2478" lon="4.02816">
        <ele>80</ele>
        <time>2018-04-02T14:43:32Z</time>
      </trkpt>
      <trkpt lat="49.24708" lon="4.02933">
        <ele>79</ele>
        <time>2018-04-02T14:44:32Z</time>
      </trkpt>
      <trkpt lat="49.24695" lon="4.02953">
        <ele>79</ele>
        <time>2018-04-02T14:45:32Z</time>
      </trkpt>
      <trkpt lat="49.24695" lon="4.02953">
        <ele>79</ele>
        <time>2018-04-02T14:46:32Z</time>
      </trkpt>
      <trkpt lat="49.24691" lon="4.02954">
        <ele>78</ele>
        <time>2018-04-02T14:47:32Z</time>
      </trkpt>
      <trkpt lat="49.2469" lon="4.02955">
        <ele>78</ele>
        <time>2018-04-02T14:48:32Z</time>
      </trkpt>
      <trkpt lat="49.2467" lon="4.02983">
        <ele>78</ele>
        <time>2018-04-02T14:49:32Z</time>
      </trkpt>
      <trkpt lat="49.24668" lon="4.02983">
        <ele>78</ele>
        <time>2018-04-02T14:50:32Z</time>
      </trkpt>
      <trkpt lat="49.24666" lon="4.02984">
        <ele>78</ele>
        <time>2018-04-02T14:51:32Z</time>
      </trkpt>
      <trkpt lat="49.24664" lon="4.02986">
        <ele>78</ele>
        <time>2018-04-02T14:52:32Z</time>
      </trkpt>
      <trkpt lat="49.24623" lon="4.03011">
        <ele>78</ele>
        <time>2018-04-02T14:53:32Z</time>
      </trkpt>
      <trkpt lat="49.24618" lon="4.03015">
        <ele>78</ele>
        <time>2018-04-02T14:54:32Z</time>
      </trkpt>
      <trkpt lat="49.24611" lon="4.0302">
        <ele>78</ele>
        <time>2018-04-02T14:55:32Z</time>
      </trkpt>
      <trkpt lat="49.24606" lon="4.03025">
        <ele>78</ele>
        <time>2018-04-02T14:56:32Z</time>
      </trkpt>
      <trkpt lat="49.246" lon="4.03032">
        <ele>77</ele>
        <time>2018-04-02T14:57:32Z</time>
      </trkpt>
      <trkpt lat="49.24596" lon="4.03037">
        <ele>77</ele>
        <time>2018-04-02T14:58:32Z</time>
      </trkpt>
      <trkpt lat="49.24589" lon="4.03049">
        <ele>77</ele>
        <time>2018-04-02T14:59:32Z</time>
      </trkpt>
      <trkpt lat="49.24588" lon="4.03049">
        <ele>77</ele>
        <time>2018-04-02T15:00:32Z</time>
      </trkpt>
      <trkpt lat="49.24585" lon="4.03054">
        <ele>77</ele>
        <time>2018-04-02T15:01:32Z</time>
      </trkpt>
      <trkpt lat="49.24558" lon="4.03101">
        <ele>78</ele>
        <time>2018-04-02T15:02:32Z</time>
      </trkpt>
      <trkpt lat="49.24533" lon="4.03144">
        <ele>78</ele>
        <time>2018-04-02T15:03:32Z</time>
      </trkpt>
      <trkpt lat="49.24528" lon="4.03153">
        <ele>78</ele>
        <time>2018-04-02T15:04:32Z</time>
      </trkpt>
      <trkpt lat="49.24514" lon="4.03177">
        <ele>78</ele>
        <time>2018-04-02T15:05:32Z</time>
      </trkpt>
      <trkpt lat="49.24514" lon="4.03177">
        <ele>78</ele>
        <time>2018-04-02T15:06:32Z</time>
      </trkpt>
      <trkpt lat="49.24488" lon="4.03224">
        <ele>78</ele>
        <time>2018-04-02T15:07:32Z</time>
      </trkpt>
      <trkpt lat="49.24478" lon="4.03241">
        <ele>78</ele>
        <time>2018-04-02T15:08:32Z</time>
      </trkpt>
      <trkpt lat="49.24476" lon="4.03247">
        <ele>78</ele>
        <time>2018-04-02T15:09:32Z</time>
      </trkpt>
      <trkpt lat="49.24445" lon="4.03291">
        <ele>80</ele>
        <time>2018-04-02T15:10:32Z</time>
      </trkpt>
      <trkpt lat="49.24398" lon="4.03348">
        <ele>81</ele>
        <time>2018-04-02T15:11:32Z</time>
      </trkpt>
      <trkpt lat="49.24362" lon="4.0339">
        <ele>81</ele>
        <time>2018-04-02T15:12:32Z</time>
      </trkpt>
      <trkpt lat="49.24345" lon="4.03408">
        <ele>81</ele>
        <time>2018-04-02T15:13:32Z</time>
      </trkpt>
      <trkpt lat="49.24333" lon="4.03421">
        <ele>81</ele>
        <time>2018-04-02T15:14:32Z</time>
      </trkpt>
      <trkpt lat="49.24325" lon="4.0343">
        <ele>81</ele>
        <time>2018-04-02T15:15:32Z</time>
      </trkpt>
      <trkpt lat="49.24313" lon="4.03444">
        <ele>81</ele>
        <time>2018-04-02T15:16:32Z</time>
      </trkpt>
      <trkpt lat="49.24268" lon="4.03491">
        <ele>80</ele>
        <time>2018-04-02T15:17:32Z</time>
      </trkpt>
      <trkpt lat="49.24258" lon="4.035">
        <ele>80</ele>
        <time>2018-04-02T15:18:32Z</time>
      </trkpt>
      <trkpt lat="49.24248" lon="4.03512">
        <ele>80</ele>
        <time>2018-04-02T15:19:32Z</time>
      </trkpt>
      <trkpt lat="49.24248" lon="4.03512">
        <ele>80</ele>
        <time>2018-04-02T15:20:32Z</time>
      </trkpt>
      <trkpt lat="49.24239" lon="4.03514">
        <ele>80</ele>
        <time>2018-04-02T15:21:32Z</time>
      </trkpt>
      <trkpt lat="49.24225" lon="4.03522">
        <ele>80</ele>
        <time>2018-04-02T15:22:32Z</time>
      </trkpt>
      <trkpt lat="49.24208" lon="4.03542">
        <ele>80</ele>
        <time>2018-04-02T15:23:32Z</time>
      </trkpt>
      <trkpt lat="49.2419" lon="4.0356">
        <ele>80</ele>
        <time>2018-04-02T15:24:32Z</time>
      </trkpt>
      <trkpt lat="49.24172" lon="4.0358">
        <ele>80</ele>
        <time>2018-04-02T15:25:32Z</time>
      </trkpt>
      <trkpt lat="49.24175" lon="4.03592">
        <ele>80</ele>
        <time>2018-04-02T15:26:32Z</time>
      </trkpt>
      <trkpt lat="49.24176" lon="4.03593">
        <ele>80</ele>
        <time>2018-04-02T15:27:32Z</time>
      </trkpt>
      <trkpt lat="49.24179" lon="4.03605">
        <ele>80</ele>
        <time>2018-04-02T15:28:32Z</time>
      </trkpt>
    </trkseg>
  </trk>
</gpx>